<?xml version='1.0' encoding='UTF-8'?><gpx version="1.1" creator="JPX - https://github.com/jenetics/jpx" xmlns="http://www.topografix.com/GPX/1/1"><trk><trkseg><trkpt lat="37.92127364472605" lon="15.99084377694854"><ele>35.0</ele><time>2026-05-03T08:37:53Z</time></trkpt><trkpt lat="37.92129138794972" lon="15.990944281506826"><ele>35.0</ele><time>2026-05-03T08:40:40Z</time></trkpt><trkpt lat="37.92124245282837" lon="15.991035256266047"><ele>35.0</ele><time>2026-05-03T08:40:43Z</time></trkpt><trkpt lat="37.92113407570403" lon="15.991018146826095"><ele>35.0</ele><time>2026-05-03T08:40:45Z</time></trkpt><trkpt lat="37.92106744222325" lon="15.991010045283335"><ele>35.0</ele><time>2026-05-03T08:40:46Z</time></trkpt><trkpt lat="37.92087059485775" lon="15.990904482768066"><ele>33.6</ele><time>2026-05-03T08:40:47Z</time></trkpt><trkpt lat="37.92071906978448" lon="15.990911959852692"><ele>32.2</ele><time>2026-05-03T08:40:48Z</time></trkpt><trkpt lat="37.92064060945552" lon="15.990893391444237"><ele>30.799999999999997</ele><time>2026-05-03T08:40:49Z</time></trkpt><trkpt lat="37.92057167241512" lon="15.99088626643749"><ele>29.4</ele><time>2026-05-03T08:40:50Z</time></trkpt><trkpt lat="37.92049698318175" lon="15.99087854691235"><ele>28.0</ele><time>2026-05-03T08:40:51Z</time></trkpt><trkpt lat="37.92041437189947" lon="15.990870008605208"><ele>28.0</ele><time>2026-05-03T08:40:52Z</time></trkpt><trkpt lat="37.920338524356026" lon="15.990862153303967"><ele>28.0</ele><time>2026-05-03T08:40:53Z</time></trkpt><trkpt lat="37.92026902858654" lon="15.990875059977345"><ele>28.0</ele><time>2026-05-03T08:40:54Z</time></trkpt><trkpt lat="37.92019767325197" lon="15.990866712169124"><ele>28.0</ele><time>2026-05-03T08:40:55Z</time></trkpt><trkpt lat="37.9201261307618" lon="15.990852263466646"><ele>28.0</ele><time>2026-05-03T08:40:56Z</time></trkpt><trkpt lat="37.92005016759207" lon="15.990832257384072"><ele>28.0</ele><time>2026-05-03T08:40:57Z</time></trkpt><trkpt lat="37.919982723038146" lon="15.990838932814867"><ele>28.0</ele><time>2026-05-03T08:40:58Z</time></trkpt><trkpt lat="37.91991108740699" lon="15.990834006270035"><ele>26.666666666666668</ele><time>2026-05-03T08:40:59Z</time></trkpt><trkpt lat="37.91984236300546" lon="15.990822530852443"><ele>25.333333333333336</ele><time>2026-05-03T08:41:00Z</time></trkpt><trkpt lat="37.91977357928267" lon="15.99081414117966"><ele>24.0</ele><time>2026-05-03T08:41:01Z</time></trkpt><trkpt lat="37.919691805576676" lon="15.990812640145204"><ele>22.666666666666668</ele><time>2026-05-03T08:41:02Z</time></trkpt><trkpt lat="37.91958746539627" lon="15.990784694518261"><ele>21.333333333333336</ele><time>2026-05-03T08:41:04Z</time></trkpt><trkpt lat="37.91949203524339" lon="15.99077022027372"><ele>20.0</ele><time>2026-05-03T08:41:06Z</time></trkpt><trkpt lat="37.9195302344235" lon="15.990610520576002"><ele>20.0</ele><time>2026-05-03T08:41:09Z</time></trkpt><trkpt lat="37.91953693271458" lon="15.990502056971016"><ele>20.0</ele><time>2026-05-03T08:41:10Z</time></trkpt><trkpt lat="37.91954402706834" lon="15.99038718004234"><ele>20.0</ele><time>2026-05-03T08:41:11Z</time></trkpt><trkpt lat="37.919551199899495" lon="15.990271177854504"><ele>20.0</ele><time>2026-05-03T08:41:12Z</time></trkpt><trkpt lat="37.919551938039476" lon="15.99018517874692"><ele>20.0</ele><time>2026-05-03T08:41:13Z</time></trkpt><trkpt lat="37.91955964208403" lon="15.990089012532245"><ele>20.0</ele><time>2026-05-03T08:41:14Z</time></trkpt><trkpt lat="37.91955382328882" lon="15.990001527596784"><ele>20.0</ele><time>2026-05-03T08:41:17Z</time></trkpt><trkpt lat="37.91932862517249" lon="15.990010610343793"><ele>20.0</ele><time>2026-05-03T08:41:18Z</time></trkpt><trkpt lat="37.91924139037953" lon="15.990028364353671"><ele>20.0</ele><time>2026-05-03T08:41:19Z</time></trkpt><trkpt lat="37.9191716134264" lon="15.990008679828568"><ele>20.0</ele><time>2026-05-03T08:41:20Z</time></trkpt><trkpt lat="37.91910482849234" lon="15.990002390925039"><ele>18.2</ele><time>2026-05-03T08:41:21Z</time></trkpt><trkpt lat="37.91897226112039" lon="15.989988622499025"><ele>16.4</ele><time>2026-05-03T08:41:23Z</time></trkpt><trkpt lat="37.918908191616346" lon="15.989981900008733"><ele>14.600000000000001</ele><time>2026-05-03T08:41:24Z</time></trkpt><trkpt lat="37.91879099926792" lon="15.989954510249587"><ele>12.8</ele><time>2026-05-03T08:41:26Z</time></trkpt><trkpt lat="37.9187136881647" lon="15.989955936251429"><ele>11.0</ele><time>2026-05-03T08:41:28Z</time></trkpt><trkpt lat="37.91869598484263" lon="15.989814131734125"><ele>11.0</ele><time>2026-05-03T08:41:32Z</time></trkpt><trkpt lat="37.91870332439946" lon="15.989661538372824"><ele>11.0</ele><time>2026-05-03T08:41:33Z</time></trkpt><trkpt lat="37.918717514256436" lon="15.989529218860394"><ele>11.0</ele><time>2026-05-03T08:41:34Z</time></trkpt><trkpt lat="37.91872676846706" lon="15.98939368997438"><ele>11.0</ele><time>2026-05-03T08:41:35Z</time></trkpt><trkpt lat="37.91873925022758" lon="15.989248392740189"><ele>11.0</ele><time>2026-05-03T08:41:36Z</time></trkpt><trkpt lat="37.91875076436525" lon="15.989087531000335"><ele>10.75</ele><time>2026-05-03T08:41:37Z</time></trkpt><trkpt lat="37.91876540236708" lon="15.988933478926272"><ele>10.5</ele><time>2026-05-03T08:41:38Z</time></trkpt><trkpt lat="37.918776692379055" lon="15.988788018948696"><ele>10.25</ele><time>2026-05-03T08:41:39Z</time></trkpt><trkpt lat="37.918788958735185" lon="15.98860727602812"><ele>10.0</ele><time>2026-05-03T08:41:40Z</time></trkpt><trkpt lat="37.91880109530625" lon="15.988434729052834"><ele>10.0</ele><time>2026-05-03T08:41:41Z</time></trkpt><trkpt lat="37.918815234419625" lon="15.988256784952958"><ele>10.0</ele><time>2026-05-03T08:41:42Z</time></trkpt><trkpt lat="37.91883980282559" lon="15.988075022689245"><ele>10.0</ele><time>2026-05-03T08:41:43Z</time></trkpt><trkpt lat="37.918871736189736" lon="15.987910949908164"><ele>10.0</ele><time>2026-05-03T08:41:44Z</time></trkpt><trkpt lat="37.91890242813895" lon="15.987722816252676"><ele>10.0</ele><time>2026-05-03T08:41:45Z</time></trkpt><trkpt lat="37.918940055940695" lon="15.987545539063635"><ele>10.0</ele><time>2026-05-03T08:41:46Z</time></trkpt><trkpt lat="37.91899255768338" lon="15.987376944242715"><ele>10.0</ele><time>2026-05-03T08:41:47Z</time></trkpt><trkpt lat="37.91903727909689" lon="15.98720119793306"><ele>10.0</ele><time>2026-05-03T08:41:48Z</time></trkpt><trkpt lat="37.91907198456065" lon="15.987014837863853"><ele>10.25</ele><time>2026-05-03T08:41:49Z</time></trkpt><trkpt lat="37.919095582791" lon="15.98683375111523"><ele>10.5</ele><time>2026-05-03T08:41:50Z</time></trkpt><trkpt lat="37.91911014253857" lon="15.986647503720025"><ele>10.75</ele><time>2026-05-03T08:41:51Z</time></trkpt><trkpt lat="37.91911424372433" lon="15.98645142864425"><ele>11.0</ele><time>2026-05-03T08:41:52Z</time></trkpt><trkpt lat="37.91910984119085" lon="15.986252606044275"><ele>11.0</ele><time>2026-05-03T08:41:53Z</time></trkpt><trkpt lat="37.91910049037913" lon="15.98606047726202"><ele>11.0</ele><time>2026-05-03T08:41:54Z</time></trkpt><trkpt lat="37.91908429263507" lon="15.98586161008476"><ele>11.0</ele><time>2026-05-03T08:41:55Z</time></trkpt><trkpt lat="37.919052717402195" lon="15.985658293840867"><ele>10.666666666666666</ele><time>2026-05-03T08:41:56Z</time></trkpt><trkpt lat="37.919017930224484" lon="15.985454135736026"><ele>10.333333333333334</ele><time>2026-05-03T08:41:57Z</time></trkpt><trkpt lat="37.91900522122017" lon="15.985248499612803"><ele>10.0</ele><time>2026-05-03T08:41:58Z</time></trkpt><trkpt lat="37.91900841164533" lon="15.985030114195926"><ele>10.333333333333334</ele><time>2026-05-03T08:41:59Z</time></trkpt><trkpt lat="37.919033974372326" lon="15.98482574003674"><ele>10.666666666666666</ele><time>2026-05-03T08:42:00Z</time></trkpt><trkpt lat="37.91903503501605" lon="15.98463367646702"><ele>11.0</ele><time>2026-05-03T08:42:01Z</time></trkpt><trkpt lat="37.91906165249579" lon="15.984399187969808"><ele>11.0</ele><time>2026-05-03T08:42:02Z</time></trkpt><trkpt lat="37.91907756182073" lon="15.984183290549664"><ele>11.0</ele><time>2026-05-03T08:42:03Z</time></trkpt><trkpt lat="37.919094900935086" lon="15.983961085445857"><ele>11.0</ele><time>2026-05-03T08:42:04Z</time></trkpt><trkpt lat="37.91911215800567" lon="15.983743865798823"><ele>9.666666666666666</ele><time>2026-05-03T08:42:05Z</time></trkpt><trkpt lat="37.91912636998414" lon="15.983523759538945"><ele>8.333333333333334</ele><time>2026-05-03T08:42:06Z</time></trkpt><trkpt lat="37.91914514197184" lon="15.98330601535785"><ele>7.0</ele><time>2026-05-03T08:42:07Z</time></trkpt><trkpt lat="37.91915470287603" lon="15.983076832974362"><ele>7.0</ele><time>2026-05-03T08:42:08Z</time></trkpt><trkpt lat="37.9191744048475" lon="15.982856141293135"><ele>7.0</ele><time>2026-05-03T08:42:09Z</time></trkpt><trkpt lat="37.91919871000071" lon="15.982631142695373"><ele>7.0</ele><time>2026-05-03T08:42:10Z</time></trkpt><trkpt lat="37.91921851952956" lon="15.982405175359107"><ele>7.0</ele><time>2026-05-03T08:42:11Z</time></trkpt><trkpt lat="37.91923425839007" lon="15.982178018657722"><ele>7.0</ele><time>2026-05-03T08:42:12Z</time></trkpt><trkpt lat="37.91924331354061" lon="15.981952286008308"><ele>7.0</ele><time>2026-05-03T08:42:13Z</time></trkpt><trkpt lat="37.91925903635567" lon="15.981733925089296"><ele>7.666666666666667</ele><time>2026-05-03T08:42:14Z</time></trkpt><trkpt lat="37.919275350780474" lon="15.981503128264475"><ele>8.333333333333334</ele><time>2026-05-03T08:42:15Z</time></trkpt><trkpt lat="37.919293838133626" lon="15.981263968339348"><ele>9.0</ele><time>2026-05-03T08:42:16Z</time></trkpt><trkpt lat="37.91931332437508" lon="15.98102386050878"><ele>9.666666666666666</ele><time>2026-05-03T08:42:17Z</time></trkpt><trkpt lat="37.919338206752954" lon="15.980773224993627"><ele>10.333333333333332</ele><time>2026-05-03T08:42:18Z</time></trkpt><trkpt lat="37.91934679422898" lon="15.980552826502215"><ele>11.0</ele><time>2026-05-03T08:42:19Z</time></trkpt><trkpt lat="37.91935958703586" lon="15.980323614392395"><ele>11.0</ele><time>2026-05-03T08:42:20Z</time></trkpt><trkpt lat="37.91937264560492" lon="15.980097633285338"><ele>11.0</ele><time>2026-05-03T08:42:21Z</time></trkpt><trkpt lat="37.919402226778296" lon="15.979867628320346"><ele>11.0</ele><time>2026-05-03T08:42:22Z</time></trkpt><trkpt lat="37.91942045654575" lon="15.979626298100573"><ele>12.333333333333332</ele><time>2026-05-03T08:42:23Z</time></trkpt><trkpt lat="37.919424217812704" lon="15.979390981522588"><ele>13.666666666666666</ele><time>2026-05-03T08:42:24Z</time></trkpt><trkpt lat="37.919442326194144" lon="15.979163180221084"><ele>15.0</ele><time>2026-05-03T08:42:25Z</time></trkpt><trkpt lat="37.91946353194243" lon="15.978927943975426"><ele>16.333333333333332</ele><time>2026-05-03T08:42:26Z</time></trkpt><trkpt lat="37.919494431706475" lon="15.978686818401211"><ele>17.666666666666664</ele><time>2026-05-03T08:42:27Z</time></trkpt><trkpt lat="37.919511075943674" lon="15.978465641913013"><ele>19.0</ele><time>2026-05-03T08:42:28Z</time></trkpt><trkpt lat="37.919522727973906" lon="15.978229005628824"><ele>21.0</ele><time>2026-05-03T08:42:29Z</time></trkpt><trkpt lat="37.919550373304205" lon="15.978001521067034"><ele>23.0</ele><time>2026-05-03T08:42:30Z</time></trkpt><trkpt lat="37.91956908847884" lon="15.977759230462551"><ele>25.0</ele><time>2026-05-03T08:42:31Z</time></trkpt><trkpt lat="37.919603640615335" lon="15.97752483492874"><ele>26.0</ele><time>2026-05-03T08:42:32Z</time></trkpt><trkpt lat="37.91964232081147" lon="15.977283874696651"><ele>27.0</ele><time>2026-05-03T08:42:33Z</time></trkpt><trkpt lat="37.91970922907099" lon="15.977062689253712"><ele>28.0</ele><time>2026-05-03T08:42:34Z</time></trkpt><trkpt lat="37.91978141033766" lon="15.976830267320706"><ele>25.666666666666668</ele><time>2026-05-03T08:42:35Z</time></trkpt><trkpt lat="37.919849135656065" lon="15.9765983366563"><ele>23.333333333333336</ele><time>2026-05-03T08:42:36Z</time></trkpt><trkpt lat="37.91991995956555" lon="15.976366106071858"><ele>21.0</ele><time>2026-05-03T08:42:37Z</time></trkpt><trkpt lat="37.91998572874319" lon="15.976126701692513"><ele>21.0</ele><time>2026-05-03T08:42:38Z</time></trkpt><trkpt lat="37.92004142264763" lon="15.975892068137819"><ele>21.0</ele><time>2026-05-03T08:42:39Z</time></trkpt><trkpt lat="37.92007926650039" lon="15.975649450598578"><ele>21.0</ele><time>2026-05-03T08:42:40Z</time></trkpt><trkpt lat="37.92010858615244" lon="15.975401506716905"><ele>31.666666666666668</ele><time>2026-05-03T08:42:41Z</time></trkpt><trkpt lat="37.92014113933397" lon="15.97514887309951"><ele>42.333333333333336</ele><time>2026-05-03T08:42:42Z</time></trkpt><trkpt lat="37.920169625054484" lon="15.97489528075056"><ele>53.0</ele><time>2026-05-03T08:42:43Z</time></trkpt><trkpt lat="37.92019887989976" lon="15.974641535891347"><ele>53.0</ele><time>2026-05-03T08:42:44Z</time></trkpt><trkpt lat="37.920230217467164" lon="15.974385810189228"><ele>53.0</ele><time>2026-05-03T08:42:45Z</time></trkpt><trkpt lat="37.92025717436095" lon="15.974137552497067"><ele>53.0</ele><time>2026-05-03T08:42:46Z</time></trkpt><trkpt lat="37.92028664559046" lon="15.973888791402741"><ele>50.66666666666667</ele><time>2026-05-03T08:42:47Z</time></trkpt><trkpt lat="37.920316399864255" lon="15.973629336783313"><ele>48.333333333333336</ele><time>2026-05-03T08:42:48Z</time></trkpt><trkpt lat="37.92034691907014" lon="15.973369340683996"><ele>46.0</ele><time>2026-05-03T08:42:49Z</time></trkpt><trkpt lat="37.9203755189951" lon="15.973095160839012"><ele>42.66666666666667</ele><time>2026-05-03T08:42:50Z</time></trkpt><trkpt lat="37.92038330677778" lon="15.972821594006154"><ele>39.333333333333336</ele><time>2026-05-03T08:42:51Z</time></trkpt><trkpt lat="37.92037370617742" lon="15.972544659375881"><ele>36.0</ele><time>2026-05-03T08:42:52Z</time></trkpt><trkpt lat="37.92035750910805" lon="15.972272918829454"><ele>34.0</ele><time>2026-05-03T08:42:53Z</time></trkpt><trkpt lat="37.92034299923716" lon="15.972000999941189"><ele>32.0</ele><time>2026-05-03T08:42:54Z</time></trkpt><trkpt lat="37.920332625708234" lon="15.971727102170913"><ele>30.0</ele><time>2026-05-03T08:42:55Z</time></trkpt><trkpt lat="37.920308653952915" lon="15.971445980059027"><ele>30.0</ele><time>2026-05-03T08:42:56Z</time></trkpt><trkpt lat="37.920284485406874" lon="15.971157139987406"><ele>30.0</ele><time>2026-05-03T08:42:57Z</time></trkpt><trkpt lat="37.92024857494445" lon="15.970882376497734"><ele>30.0</ele><time>2026-05-03T08:42:58Z</time></trkpt><trkpt lat="37.920240318489846" lon="15.970606923097414"><ele>33.666666666666664</ele><time>2026-05-03T08:42:59Z</time></trkpt><trkpt lat="37.92020720221466" lon="15.970342634619481"><ele>37.33333333333333</ele><time>2026-05-03T08:43:00Z</time></trkpt><trkpt lat="37.920161032386666" lon="15.970050235960052"><ele>41.0</ele><time>2026-05-03T08:43:01Z</time></trkpt><trkpt lat="37.920108863670904" lon="15.96976769195426"><ele>33.33333333333333</ele><time>2026-05-03T08:43:02Z</time></trkpt><trkpt lat="37.92006018082239" lon="15.969493957539695"><ele>25.666666666666664</ele><time>2026-05-03T08:43:03Z</time></trkpt><trkpt lat="37.92001125256774" lon="15.969213687081504"><ele>18.0</ele><time>2026-05-03T08:43:04Z</time></trkpt><trkpt lat="37.919976052589924" lon="15.96893849995726"><ele>18.0</ele><time>2026-05-03T08:43:05Z</time></trkpt><trkpt lat="37.91994278888069" lon="15.968663845858103"><ele>18.0</ele><time>2026-05-03T08:43:06Z</time></trkpt><trkpt lat="37.9199048065838" lon="15.968389906565669"><ele>18.0</ele><time>2026-05-03T08:43:07Z</time></trkpt><trkpt lat="37.919880982965815" lon="15.96811629553155"><ele>17.333333333333332</ele><time>2026-05-03T08:43:08Z</time></trkpt><trkpt lat="37.91985703548453" lon="15.967838757547067"><ele>16.666666666666664</ele><time>2026-05-03T08:43:09Z</time></trkpt><trkpt lat="37.919835338636815" lon="15.967559493620874"><ele>16.0</ele><time>2026-05-03T08:43:10Z</time></trkpt><trkpt lat="37.91981774293793" lon="15.967247500012089"><ele>17.333333333333332</ele><time>2026-05-03T08:43:11Z</time></trkpt><trkpt lat="37.919815150341506" lon="15.966993058862062"><ele>18.666666666666668</ele><time>2026-05-03T08:43:12Z</time></trkpt><trkpt lat="37.91982645430019" lon="15.9667339560924"><ele>20.0</ele><time>2026-05-03T08:43:13Z</time></trkpt><trkpt lat="37.91981680868421" lon="15.96645893914195"><ele>22.0</ele><time>2026-05-03T08:43:14Z</time></trkpt><trkpt lat="37.919802318265" lon="15.96618919123437"><ele>24.0</ele><time>2026-05-03T08:43:15Z</time></trkpt><trkpt lat="37.91978697006241" lon="15.965978828005642"><ele>26.0</ele><time>2026-05-03T08:43:16Z</time></trkpt><trkpt lat="37.919768778166045" lon="15.965762208541436"><ele>28.0</ele><time>2026-05-03T08:43:17Z</time></trkpt><trkpt lat="37.91978589259448" lon="15.965545527516282"><ele>30.0</ele><time>2026-05-03T08:43:18Z</time></trkpt><trkpt lat="37.919794080283395" lon="15.96534461779"><ele>32.0</ele><time>2026-05-03T08:43:19Z</time></trkpt><trkpt lat="37.91987218654483" lon="15.965130957849961"><ele>30.333333333333332</ele><time>2026-05-03T08:43:20Z</time></trkpt><trkpt lat="37.91988571628985" lon="15.96491783633575"><ele>28.666666666666664</ele><time>2026-05-03T08:43:21Z</time></trkpt><trkpt lat="37.9198785570128" lon="15.96473468374646"><ele>27.0</ele><time>2026-05-03T08:43:22Z</time></trkpt><trkpt lat="37.91992496331455" lon="15.964503701907725"><ele>27.0</ele><time>2026-05-03T08:43:23Z</time></trkpt><trkpt lat="37.9199273364052" lon="15.964306900920986"><ele>27.0</ele><time>2026-05-03T08:43:24Z</time></trkpt><trkpt lat="37.919970354987484" lon="15.96410171941648"><ele>27.0</ele><time>2026-05-03T08:43:25Z</time></trkpt><trkpt lat="37.919976224711505" lon="15.963892980845229"><ele>24.333333333333332</ele><time>2026-05-03T08:43:26Z</time></trkpt><trkpt lat="37.91997760330585" lon="15.963665608195463"><ele>21.666666666666664</ele><time>2026-05-03T08:43:27Z</time></trkpt><trkpt lat="37.91999132729013" lon="15.963448229646719"><ele>19.0</ele><time>2026-05-03T08:43:28Z</time></trkpt><trkpt lat="37.92000550910266" lon="15.96323381808896"><ele>16.0</ele><time>2026-05-03T08:43:29Z</time></trkpt><trkpt lat="37.920019247472084" lon="15.963017145548895"><ele>13.0</ele><time>2026-05-03T08:43:30Z</time></trkpt><trkpt lat="37.92005351682169" lon="15.96280460997642"><ele>10.0</ele><time>2026-05-03T08:43:31Z</time></trkpt><trkpt lat="37.92003777516493" lon="15.962578892342886"><ele>9.333333333333334</ele><time>2026-05-03T08:43:32Z</time></trkpt><trkpt lat="37.92004216949965" lon="15.962359777985014"><ele>8.666666666666666</ele><time>2026-05-03T08:43:33Z</time></trkpt><trkpt lat="37.92003821430114" lon="15.962161730746104"><ele>8.0</ele><time>2026-05-03T08:43:34Z</time></trkpt><trkpt lat="37.920060549356016" lon="15.96193603099118"><ele>9.666666666666666</ele><time>2026-05-03T08:43:35Z</time></trkpt><trkpt lat="37.92015151970084" lon="15.961682387970058"><ele>11.333333333333332</ele><time>2026-05-03T08:43:36Z</time></trkpt><trkpt lat="37.92018261270451" lon="15.961453287249334"><ele>13.0</ele><time>2026-05-03T08:43:37.021Z</time></trkpt><trkpt lat="37.92097143366739" lon="15.961139034494721"><ele>14.0</ele><time>2026-05-03T08:43:43Z</time></trkpt><trkpt lat="37.92107267062238" lon="15.961044253324678"><ele>15.0</ele><time>2026-05-03T08:43:44Z</time></trkpt><trkpt lat="37.92115560563478" lon="15.960945662210754"><ele>16.0</ele><time>2026-05-03T08:43:45Z</time></trkpt><trkpt lat="37.92124456691763" lon="15.96087071728297"><ele>17.0</ele><time>2026-05-03T08:43:46Z</time></trkpt><trkpt lat="37.92131451739362" lon="15.960766628308956"><ele>17.0</ele><time>2026-05-03T08:43:47Z</time></trkpt><trkpt lat="37.921361990888705" lon="15.96066964282796"><ele>17.0</ele><time>2026-05-03T08:43:48Z</time></trkpt><trkpt lat="37.92142072337779" lon="15.960566173882743"><ele>17.0</ele><time>2026-05-03T08:43:49Z</time></trkpt><trkpt lat="37.921459057807084" lon="15.96046140569835"><ele>17.0</ele><time>2026-05-03T08:43:50Z</time></trkpt><trkpt lat="37.92151058913303" lon="15.96035431795267"><ele>17.0</ele><time>2026-05-03T08:43:51Z</time></trkpt><trkpt lat="37.92156344176993" lon="15.960239418712387"><ele>17.0</ele><time>2026-05-03T08:43:52Z</time></trkpt><trkpt lat="37.92159675838461" lon="15.960143018074067"><ele>17.0</ele><time>2026-05-03T08:43:53Z</time></trkpt><trkpt lat="37.92164426452643" lon="15.959989291777475"><ele>17.0</ele><time>2026-05-03T08:43:54Z</time></trkpt><trkpt lat="37.92169361287916" lon="15.959861323257336"><ele>17.0</ele><time>2026-05-03T08:43:55Z</time></trkpt><trkpt lat="37.92173730205694" lon="15.959737703302844"><ele>17.0</ele><time>2026-05-03T08:43:56Z</time></trkpt><trkpt lat="37.921791569875204" lon="15.959595154381956"><ele>17.4</ele><time>2026-05-03T08:43:57Z</time></trkpt><trkpt lat="37.921828660433206" lon="15.95947326755148"><ele>17.799999999999997</ele><time>2026-05-03T08:43:58Z</time></trkpt><trkpt lat="37.921827381992536" lon="15.959339325545761"><ele>18.2</ele><time>2026-05-03T08:43:59Z</time></trkpt><trkpt lat="37.92180176536157" lon="15.959211157699118"><ele>18.599999999999998</ele><time>2026-05-03T08:44:00Z</time></trkpt><trkpt lat="37.92175107361993" lon="15.959099692454727"><ele>19.0</ele><time>2026-05-03T08:44:01Z</time></trkpt><trkpt lat="37.921705208004674" lon="15.95899280056891"><ele>19.0</ele><time>2026-05-03T08:44:02Z</time></trkpt><trkpt lat="37.921693867666804" lon="15.95888862300683"><ele>19.0</ele><time>2026-05-03T08:44:03Z</time></trkpt><trkpt lat="37.92170788841596" lon="15.958795437505506"><ele>19.0</ele><time>2026-05-03T08:44:04Z</time></trkpt><trkpt lat="37.92172727205598" lon="15.95869668866812"><ele>19.0</ele><time>2026-05-03T08:44:05Z</time></trkpt><trkpt lat="37.92175358757759" lon="15.958602250690328"><ele>19.0</ele><time>2026-05-03T08:44:06Z</time></trkpt><trkpt lat="37.921792185731334" lon="15.958492858321595"><ele>19.0</ele><time>2026-05-03T08:44:07Z</time></trkpt><trkpt lat="37.92184151397143" lon="15.95836370496229"><ele>17.5</ele><time>2026-05-03T08:44:08Z</time></trkpt><trkpt lat="37.921900848056005" lon="15.958219113309209"><ele>16.0</ele><time>2026-05-03T08:44:09Z</time></trkpt><trkpt lat="37.92196017136088" lon="15.958070834084129"><ele>14.5</ele><time>2026-05-03T08:44:10Z</time></trkpt><trkpt lat="37.922045153795004" lon="15.957899276089494"><ele>13.0</ele><time>2026-05-03T08:44:11Z</time></trkpt><trkpt lat="37.92212348110378" lon="15.95773377678771"><ele>13.0</ele><time>2026-05-03T08:44:12Z</time></trkpt><trkpt lat="37.92219961958867" lon="15.957560824526007"><ele>13.0</ele><time>2026-05-03T08:44:13Z</time></trkpt><trkpt lat="37.922279301104545" lon="15.957388060881556"><ele>13.0</ele><time>2026-05-03T08:44:14Z</time></trkpt><trkpt lat="37.9223614402512" lon="15.95723092773534"><ele>12.333333333333332</ele><time>2026-05-03T08:44:15Z</time></trkpt><trkpt lat="37.9224342236411" lon="15.957060527394217"><ele>11.666666666666666</ele><time>2026-05-03T08:44:16Z</time></trkpt><trkpt lat="37.922476088627086" lon="15.956858891313303"><ele>11.0</ele><time>2026-05-03T08:44:17Z</time></trkpt><trkpt lat="37.92250334306374" lon="15.956668792031486"><ele>10.25</ele><time>2026-05-03T08:44:18Z</time></trkpt><trkpt lat="37.92252153378657" lon="15.95647291120175"><ele>9.5</ele><time>2026-05-03T08:44:19Z</time></trkpt><trkpt lat="37.92252006679521" lon="15.95631633799458"><ele>8.75</ele><time>2026-05-03T08:44:20Z</time></trkpt><trkpt lat="37.92251836336958" lon="15.956159517202613"><ele>8.0</ele><time>2026-05-03T08:44:21Z</time></trkpt><trkpt lat="37.922528021364336" lon="15.956012471641557"><ele>9.25</ele><time>2026-05-03T08:44:22Z</time></trkpt><trkpt lat="37.92256819719032" lon="15.955859970778123"><ele>10.5</ele><time>2026-05-03T08:44:23Z</time></trkpt><trkpt lat="37.9226045854154" lon="15.955708332930993"><ele>11.75</ele><time>2026-05-03T08:44:24Z</time></trkpt><trkpt lat="37.922632270857434" lon="15.955584555059392"><ele>13.0</ele><time>2026-05-03T08:44:25Z</time></trkpt><trkpt lat="37.92268249265926" lon="15.955434612576443"><ele>13.0</ele><time>2026-05-03T08:44:26Z</time></trkpt><trkpt lat="37.92275331370484" lon="15.955295748395418"><ele>13.0</ele><time>2026-05-03T08:44:27Z</time></trkpt><trkpt lat="37.92281176581749" lon="15.955161237590717"><ele>13.0</ele><time>2026-05-03T08:44:28Z</time></trkpt><trkpt lat="37.92287215733684" lon="15.955027791881664"><ele>13.0</ele><time>2026-05-03T08:44:29Z</time></trkpt><trkpt lat="37.922941805927934" lon="15.954864563137294"><ele>12.333333333333332</ele><time>2026-05-03T08:44:30Z</time></trkpt><trkpt lat="37.92302014589922" lon="15.954703387137526"><ele>11.666666666666666</ele><time>2026-05-03T08:44:31Z</time></trkpt><trkpt lat="37.92311156864902" lon="15.954538728750729"><ele>11.0</ele><time>2026-05-03T08:44:32Z</time></trkpt><trkpt lat="37.92320939339495" lon="15.954367061609421"><ele>11.333333333333332</ele><time>2026-05-03T08:44:33Z</time></trkpt><trkpt lat="37.92331131553986" lon="15.954186199812515"><ele>11.666666666666666</ele><time>2026-05-03T08:44:34Z</time></trkpt><trkpt lat="37.923412875231044" lon="15.95401292328603"><ele>12.0</ele><time>2026-05-03T08:44:35Z</time></trkpt><trkpt lat="37.923506901740986" lon="15.953840168446174"><ele>12.0</ele><time>2026-05-03T08:44:36Z</time></trkpt><trkpt lat="37.92360215339111" lon="15.953680468589814"><ele>12.0</ele><time>2026-05-03T08:44:37Z</time></trkpt><trkpt lat="37.92370475576619" lon="15.953511625470467"><ele>12.0</ele><time>2026-05-03T08:44:38Z</time></trkpt><trkpt lat="37.923791489851524" lon="15.95332619708212"><ele>11.666666666666666</ele><time>2026-05-03T08:44:39Z</time></trkpt><trkpt lat="37.92385011051137" lon="15.95312636364323"><ele>11.333333333333332</ele><time>2026-05-03T08:44:40Z</time></trkpt><trkpt lat="37.923937495935746" lon="15.9529285552488"><ele>11.0</ele><time>2026-05-03T08:44:41Z</time></trkpt><trkpt lat="37.92401254796779" lon="15.952708321857767"><ele>10.333333333333332</ele><time>2026-05-03T08:44:42Z</time></trkpt><trkpt lat="37.92408034912914" lon="15.952478125350515"><ele>9.666666666666666</ele><time>2026-05-03T08:44:43Z</time></trkpt><trkpt lat="37.92414276647455" lon="15.952238010126361"><ele>9.0</ele><time>2026-05-03T08:44:44Z</time></trkpt><trkpt lat="37.92419797904198" lon="15.951982157738373"><ele>9.0</ele><time>2026-05-03T08:44:45Z</time></trkpt><trkpt lat="37.92424545289793" lon="15.951709802443728"><ele>9.0</ele><time>2026-05-03T08:44:46Z</time></trkpt><trkpt lat="37.92429184751668" lon="15.951419675429863"><ele>8.0</ele><time>2026-05-03T08:44:47Z</time></trkpt><trkpt lat="37.92434386366295" lon="15.95110731822901"><ele>7.0</ele><time>2026-05-03T08:44:48Z</time></trkpt><trkpt lat="37.9244151564011" lon="15.95078718136223"><ele>7.0</ele><time>2026-05-03T08:44:49Z</time></trkpt><trkpt lat="37.92448356079945" lon="15.950454707357752"><ele>7.0</ele><time>2026-05-03T08:44:50Z</time></trkpt><trkpt lat="37.92454352708094" lon="15.95010189649193"><ele>7.5</ele><time>2026-05-03T08:44:51Z</time></trkpt><trkpt lat="37.92460980649418" lon="15.949752801631282"><ele>8.0</ele><time>2026-05-03T08:44:52Z</time></trkpt><trkpt lat="37.92467236515408" lon="15.949421198794203"><ele>8.5</ele><time>2026-05-03T08:44:53Z</time></trkpt><trkpt lat="37.92472581118997" lon="15.949137749609156"><ele>9.0</ele><time>2026-05-03T08:44:54Z</time></trkpt><trkpt lat="37.924779906094805" lon="15.948864441169603"><ele>9.0</ele><time>2026-05-03T08:44:55Z</time></trkpt><trkpt lat="37.924849933312615" lon="15.948573506633204"><ele>9.0</ele><time>2026-05-03T08:44:56Z</time></trkpt><trkpt lat="37.924947140110795" lon="15.948265527362336"><ele>11.0</ele><time>2026-05-03T08:44:57Z</time></trkpt><trkpt lat="37.92504999636896" lon="15.947944343912717"><ele>13.0</ele><time>2026-05-03T08:44:58Z</time></trkpt><trkpt lat="37.92515361165639" lon="15.94762174369867"><ele>23.5</ele><time>2026-05-03T08:44:59Z</time></trkpt><trkpt lat="37.92526965150921" lon="15.947306198617996"><ele>34.0</ele><time>2026-05-03T08:45:00Z</time></trkpt><trkpt lat="37.925400922042876" lon="15.946988153465995"><ele>36.5</ele><time>2026-05-03T08:45:01Z</time></trkpt><trkpt lat="37.9255157217267" lon="15.946659757235016"><ele>39.0</ele><time>2026-05-03T08:45:02Z</time></trkpt><trkpt lat="37.92562616579605" lon="15.946332337697687"><ele>39.0</ele><time>2026-05-03T08:45:03Z</time></trkpt><trkpt lat="37.92573092572164" lon="15.945995873194056"><ele>39.0</ele><time>2026-05-03T08:45:04Z</time></trkpt><trkpt lat="37.925822957411775" lon="15.945670386819112"><ele>48.5</ele><time>2026-05-03T08:45:05Z</time></trkpt><trkpt lat="37.92590696113878" lon="15.945346578123516"><ele>58.0</ele><time>2026-05-03T08:45:06Z</time></trkpt><trkpt lat="37.92599357387759" lon="15.945016291853998"><ele>58.0</ele><time>2026-05-03T08:45:07.02Z</time></trkpt><trkpt lat="37.926078980296" lon="15.944691752076638"><ele>58.0</ele><time>2026-05-03T08:45:08.016Z</time></trkpt><trkpt lat="37.92616117249103" lon="15.944361905160871"><ele>54.5</ele><time>2026-05-03T08:45:09.018Z</time></trkpt><trkpt lat="37.92624428040085" lon="15.944035555939386"><ele>51.0</ele><time>2026-05-03T08:45:10.019Z</time></trkpt><trkpt lat="37.92632857016294" lon="15.943712510244048"><ele>44.5</ele><time>2026-05-03T08:45:11.017Z</time></trkpt><trkpt lat="37.92643908482597" lon="15.943291671520592"><ele>38.0</ele><time>2026-05-03T08:45:14.893Z</time></trkpt><trkpt lat="37.92678955045062" lon="15.941967228828005"><ele>42.5</ele><time>2026-05-03T08:45:16Z</time></trkpt><trkpt lat="37.92688377142123" lon="15.94159583620308"><ele>47.0</ele><time>2026-05-03T08:45:17Z</time></trkpt><trkpt lat="37.92696378884495" lon="15.94126867543082"><ele>47.0</ele><time>2026-05-03T08:45:18Z</time></trkpt><trkpt lat="37.927059038818705" lon="15.940922234254415"><ele>47.0</ele><time>2026-05-03T08:45:19Z</time></trkpt><trkpt lat="37.92714471121666" lon="15.940640151968244"><ele>59.5</ele><time>2026-05-03T08:45:20Z</time></trkpt><trkpt lat="37.9272363089678" lon="15.940312884210222"><ele>72.0</ele><time>2026-05-03T08:45:21.019Z</time></trkpt><trkpt lat="37.92951464656547" lon="15.93160715886944"><ele>47.0</ele><time>2026-05-03T08:45:47Z</time></trkpt><trkpt lat="37.92962205693188" lon="15.931285373280504"><ele>22.0</ele><time>2026-05-03T08:45:48Z</time></trkpt><trkpt lat="37.929765276338095" lon="15.931055660914549"><ele>19.0</ele><time>2026-05-03T08:45:49Z</time></trkpt><trkpt lat="37.92989858888082" lon="15.930713417370027"><ele>16.0</ele><time>2026-05-03T08:45:50Z</time></trkpt><trkpt lat="37.930041356578876" lon="15.930397952517774"><ele>17.5</ele><time>2026-05-03T08:45:51Z</time></trkpt><trkpt lat="37.93018016399312" lon="15.930089778540781"><ele>19.0</ele><time>2026-05-03T08:45:52Z</time></trkpt><trkpt lat="37.930330859827365" lon="15.929783762558566"><ele>19.0</ele><time>2026-05-03T08:45:53Z</time></trkpt><trkpt lat="37.93048332009981" lon="15.92948657854758"><ele>19.0</ele><time>2026-05-03T08:45:54.001Z</time></trkpt><trkpt lat="37.9306368178025" lon="15.929190790129667"><ele>17.0</ele><time>2026-05-03T08:45:55.001Z</time></trkpt><trkpt lat="37.930789951480804" lon="15.928896890227449"><ele>15.0</ele><time>2026-05-03T08:45:56.001Z</time></trkpt><trkpt lat="37.93094743492587" lon="15.928591577146639"><ele>14.0</ele><time>2026-05-03T08:45:57.001Z</time></trkpt><trkpt lat="37.93110961354362" lon="15.928309641807475"><ele>13.0</ele><time>2026-05-03T08:45:58.001Z</time></trkpt><trkpt lat="37.93123622428439" lon="15.92803439824815"><ele>13.0</ele><time>2026-05-03T08:45:59.001Z</time></trkpt><trkpt lat="37.93138808268529" lon="15.927722124823319"><ele>13.0</ele><time>2026-05-03T08:46:00.001Z</time></trkpt><trkpt lat="37.93154073695489" lon="15.927424941630159"><ele>12.0</ele><time>2026-05-03T08:46:01.001Z</time></trkpt><trkpt lat="37.93168793925711" lon="15.92712939717219"><ele>11.0</ele><time>2026-05-03T08:46:02.001Z</time></trkpt><trkpt lat="37.93183564440441" lon="15.926838912283179"><ele>11.5</ele><time>2026-05-03T08:46:03.001Z</time></trkpt><trkpt lat="37.93198505740877" lon="15.926547348163368"><ele>12.0</ele><time>2026-05-03T08:46:04.001Z</time></trkpt><trkpt lat="37.93213146529323" lon="15.926260877125092"><ele>12.0</ele><time>2026-05-03T08:46:05.001Z</time></trkpt><trkpt lat="37.932274948553534" lon="15.925970341363996"><ele>12.0</ele><time>2026-05-03T08:46:06.001Z</time></trkpt><trkpt lat="37.932418661369" lon="15.925679116716788"><ele>20.5</ele><time>2026-05-03T08:46:07.001Z</time></trkpt><trkpt lat="37.932565195933385" lon="15.925381424637637"><ele>29.0</ele><time>2026-05-03T08:46:08.001Z</time></trkpt><trkpt lat="37.932714401771456" lon="15.925098171126638"><ele>36.0</ele><time>2026-05-03T08:46:09Z</time></trkpt><trkpt lat="37.932863098031554" lon="15.924808779208862"><ele>43.0</ele><time>2026-05-03T08:46:10Z</time></trkpt><trkpt lat="37.9330121852078" lon="15.924518955894385"><ele>43.0</ele><time>2026-05-03T08:46:11Z</time></trkpt><trkpt lat="37.93316156997147" lon="15.924226247833857"><ele>43.0</ele><time>2026-05-03T08:46:12Z</time></trkpt><trkpt lat="37.93330895996241" lon="15.923930957944771"><ele>47.0</ele><time>2026-05-03T08:46:13Z</time></trkpt><trkpt lat="37.933454304212866" lon="15.923638206193237"><ele>51.0</ele><time>2026-05-03T08:46:14Z</time></trkpt><trkpt lat="37.93359872517225" lon="15.923349700748442"><ele>55.0</ele><time>2026-05-03T08:46:15Z</time></trkpt><trkpt lat="37.93374215931203" lon="15.923056821129473"><ele>59.0</ele><time>2026-05-03T08:46:16Z</time></trkpt><trkpt lat="37.93388789311737" lon="15.922756504981269"><ele>58.5</ele><time>2026-05-03T08:46:17Z</time></trkpt><trkpt lat="37.934007683208236" lon="15.922445191988682"><ele>58.0</ele><time>2026-05-03T08:46:18Z</time></trkpt><trkpt lat="37.93410156212643" lon="15.922119672154786"><ele>58.0</ele><time>2026-05-03T08:46:19Z</time></trkpt><trkpt lat="37.93419145352334" lon="15.921789037556504"><ele>58.0</ele><time>2026-05-03T08:46:20Z</time></trkpt><trkpt lat="37.93426136842227" lon="15.921451729758827"><ele>67.0</ele><time>2026-05-03T08:46:21Z</time></trkpt><trkpt lat="37.93433298393253" lon="15.921117040484674"><ele>76.0</ele><time>2026-05-03T08:46:22Z</time></trkpt><trkpt lat="37.93441447261897" lon="15.92078454137605"><ele>76.0</ele><time>2026-05-03T08:46:23Z</time></trkpt><trkpt lat="37.934502064139664" lon="15.920448660728901"><ele>76.0</ele><time>2026-05-03T08:46:24.017Z</time></trkpt><trkpt lat="37.93456814842626" lon="15.92010438046541"><ele>69.5</ele><time>2026-05-03T08:46:25.02Z</time></trkpt><trkpt lat="37.93458867068689" lon="15.91976458697332"><ele>63.0</ele><time>2026-05-03T08:46:26Z</time></trkpt><trkpt lat="37.934647906435096" lon="15.919421467846021"><ele>56.5</ele><time>2026-05-03T08:46:27Z</time></trkpt><trkpt lat="37.93471209949443" lon="15.91908299690552"><ele>50.0</ele><time>2026-05-03T08:46:28Z</time></trkpt><trkpt lat="37.93477447874069" lon="15.918744508524039"><ele>43.0</ele><time>2026-05-03T08:46:29Z</time></trkpt><trkpt lat="37.934831550218846" lon="15.918399784861279"><ele>36.0</ele><time>2026-05-03T08:46:30Z</time></trkpt><trkpt lat="37.934871839161914" lon="15.918055528624663"><ele>36.0</ele><time>2026-05-03T08:46:31Z</time></trkpt><trkpt lat="37.93490128549575" lon="15.917711505135202"><ele>36.0</ele><time>2026-05-03T08:46:32Z</time></trkpt><trkpt lat="37.93491312523763" lon="15.91736324367812"><ele>32.5</ele><time>2026-05-03T08:46:33Z</time></trkpt><trkpt lat="37.93491483783629" lon="15.917015518350864"><ele>29.0</ele><time>2026-05-03T08:46:34Z</time></trkpt><trkpt lat="37.93490437571733" lon="15.916668462245493"><ele>28.5</ele><time>2026-05-03T08:46:35Z</time></trkpt><trkpt lat="37.93488870315714" lon="15.916321495734925"><ele>28.0</ele><time>2026-05-03T08:46:36Z</time></trkpt><trkpt lat="37.93485645013604" lon="15.915979872636624"><ele>30.0</ele><time>2026-05-03T08:46:37Z</time></trkpt><trkpt lat="37.93480990924394" lon="15.91564035866581"><ele>32.0</ele><time>2026-05-03T08:46:38Z</time></trkpt><trkpt lat="37.93474989528653" lon="15.915304070715122"><ele>39.0</ele><time>2026-05-03T08:46:39Z</time></trkpt><trkpt lat="37.934679662909744" lon="15.914965233450998"><ele>46.0</ele><time>2026-05-03T08:46:40Z</time></trkpt><trkpt lat="37.934600027654845" lon="15.91463382171062"><ele>46.0</ele><time>2026-05-03T08:46:41Z</time></trkpt><trkpt lat="37.93450566172459" lon="15.914308375818907"><ele>46.0</ele><time>2026-05-03T08:46:42Z</time></trkpt><trkpt lat="37.9344035711375" lon="15.913989977665532"><ele>50.5</ele><time>2026-05-03T08:46:43Z</time></trkpt><trkpt lat="37.934300908563614" lon="15.91367208223041"><ele>55.0</ele><time>2026-05-03T08:46:44Z</time></trkpt><trkpt lat="37.934198254204226" lon="15.913347045639398"><ele>55.0</ele><time>2026-05-03T08:46:45.021Z</time></trkpt><trkpt lat="37.93409902081196" lon="15.913027064519326"><ele>55.0</ele><time>2026-05-03T08:46:46.018Z</time></trkpt><trkpt lat="37.93395855547145" lon="15.91273320395457"><ele>49.0</ele><time>2026-05-03T08:46:47.014Z</time></trkpt><trkpt lat="37.933819894395306" lon="15.912453771170396"><ele>43.0</ele><time>2026-05-03T08:46:48.014Z</time></trkpt><trkpt lat="37.93283689770655" lon="15.911075519412673"><ele>32.0</ele><time>2026-05-03T08:46:54Z</time></trkpt><trkpt lat="37.93267809630064" lon="15.910818607228949"><ele>21.0</ele><time>2026-05-03T08:46:55Z</time></trkpt><trkpt lat="37.932411873494104" lon="15.910345152731365"><ele>19.5</ele><time>2026-05-03T08:46:56Z</time></trkpt><trkpt lat="37.932222821269136" lon="15.91004347606998"><ele>18.0</ele><time>2026-05-03T08:46:57Z</time></trkpt><trkpt lat="37.932046876689164" lon="15.909783316220908"><ele>18.0</ele><time>2026-05-03T08:46:58Z</time></trkpt><trkpt lat="37.93186717251141" lon="15.909541803345876"><ele>18.0</ele><time>2026-05-03T08:46:59Z</time></trkpt><trkpt lat="37.93167233361187" lon="15.909240298079549"><ele>18.5</ele><time>2026-05-03T08:47:00Z</time></trkpt><trkpt lat="37.93148169081664" lon="15.908968916649016"><ele>19.0</ele><time>2026-05-03T08:47:01Z</time></trkpt><trkpt lat="37.93129911512925" lon="15.908683312084275"><ele>25.0</ele><time>2026-05-03T08:47:02Z</time></trkpt><trkpt lat="37.93110831787128" lon="15.908407602206857"><ele>31.0</ele><time>2026-05-03T08:47:03Z</time></trkpt><trkpt lat="37.93091369684378" lon="15.908132809232118"><ele>27.0</ele><time>2026-05-03T08:47:04Z</time></trkpt><trkpt lat="37.930733668690344" lon="15.907853513340243"><ele>23.0</ele><time>2026-05-03T08:47:05Z</time></trkpt><trkpt lat="37.930545969027754" lon="15.907569186854154"><ele>32.0</ele><time>2026-05-03T08:47:06Z</time></trkpt><trkpt lat="37.930361457801254" lon="15.907284446080938"><ele>41.0</ele><time>2026-05-03T08:47:07Z</time></trkpt><trkpt lat="37.93017191676953" lon="15.906998346827878"><ele>31.5</ele><time>2026-05-03T08:47:08.017Z</time></trkpt><trkpt lat="37.9299837826655" lon="15.90671169684609"><ele>22.0</ele><time>2026-05-03T08:47:09.019Z</time></trkpt><trkpt lat="37.92979585197463" lon="15.906453269057867"><ele>22.0</ele><time>2026-05-03T08:47:10Z</time></trkpt><trkpt lat="37.92961195049791" lon="15.906164948946198"><ele>22.0</ele><time>2026-05-03T08:47:11Z</time></trkpt><trkpt lat="37.929447631772504" lon="15.905930135709347"><ele>16.5</ele><time>2026-05-03T08:47:12Z</time></trkpt><trkpt lat="37.92927471749885" lon="15.905674984019802"><ele>11.0</ele><time>2026-05-03T08:47:13Z</time></trkpt><trkpt lat="37.92910778331016" lon="15.905422649406484"><ele>11.0</ele><time>2026-05-03T08:47:14Z</time></trkpt><trkpt lat="37.92897336105943" lon="15.905178996256867"><ele>11.0</ele><time>2026-05-03T08:47:15Z</time></trkpt><trkpt lat="37.92885429535916" lon="15.904917687223111"><ele>11.666666666666666</ele><time>2026-05-03T08:47:16Z</time></trkpt><trkpt lat="37.92875995275853" lon="15.904661488359977"><ele>12.333333333333332</ele><time>2026-05-03T08:47:17Z</time></trkpt><trkpt lat="37.92866371951417" lon="15.904417490555861"><ele>13.0</ele><time>2026-05-03T08:47:18Z</time></trkpt><trkpt lat="37.92860192240722" lon="15.904179309203878"><ele>14.0</ele><time>2026-05-03T08:47:19Z</time></trkpt><trkpt lat="37.928558475115636" lon="15.903946127273883"><ele>15.0</ele><time>2026-05-03T08:47:20Z</time></trkpt><trkpt lat="37.92853055594017" lon="15.903735193241973"><ele>16.0</ele><time>2026-05-03T08:47:21Z</time></trkpt><trkpt lat="37.928520072911596" lon="15.903529251063382"><ele>15.666666666666666</ele><time>2026-05-03T08:47:22Z</time></trkpt><trkpt lat="37.92850928148543" lon="15.903287234380667"><ele>15.333333333333332</ele><time>2026-05-03T08:47:23Z</time></trkpt><trkpt lat="37.92846379792284" lon="15.90302532480769"><ele>15.0</ele><time>2026-05-03T08:47:24Z</time></trkpt><trkpt lat="37.92841569315589" lon="15.902756126708585"><ele>12.5</ele><time>2026-05-03T08:47:25Z</time></trkpt><trkpt lat="37.928370383826625" lon="15.902475425412696"><ele>10.0</ele><time>2026-05-03T08:47:26Z</time></trkpt><trkpt lat="37.9283381935331" lon="15.902184131728728"><ele>10.0</ele><time>2026-05-03T08:47:27Z</time></trkpt><trkpt lat="37.928316052446895" lon="15.901882289576402"><ele>10.0</ele><time>2026-05-03T08:47:28Z</time></trkpt><trkpt lat="37.92830243119087" lon="15.90156747277564"><ele>10.0</ele><time>2026-05-03T08:47:29Z</time></trkpt><trkpt lat="37.928286798605484" lon="15.901258947262088"><ele>10.0</ele><time>2026-05-03T08:47:30Z</time></trkpt><trkpt lat="37.92827514141101" lon="15.900946400731147"><ele>10.0</ele><time>2026-05-03T08:47:31Z</time></trkpt><trkpt lat="37.928265767616324" lon="15.900650244930999"><ele>10.0</ele><time>2026-05-03T08:47:32Z</time></trkpt><trkpt lat="37.92826550446181" lon="15.900354453854161"><ele>10.0</ele><time>2026-05-03T08:47:33Z</time></trkpt><trkpt lat="37.9282753052415" lon="15.900043359900677"><ele>10.0</ele><time>2026-05-03T08:47:34.001Z</time></trkpt><trkpt lat="37.92827388538781" lon="15.899734422573003"><ele>10.0</ele><time>2026-05-03T08:47:35.001Z</time></trkpt><trkpt lat="37.928255798811556" lon="15.899418354747462"><ele>10.0</ele><time>2026-05-03T08:47:36.001Z</time></trkpt><trkpt lat="37.92825081788896" lon="15.899081919479492"><ele>10.0</ele><time>2026-05-03T08:47:37.001Z</time></trkpt><trkpt lat="37.92825748835097" lon="15.898766727659916"><ele>10.0</ele><time>2026-05-03T08:47:38.001Z</time></trkpt><trkpt lat="37.92825892873369" lon="15.898440209549232"><ele>9.5</ele><time>2026-05-03T08:47:39.001Z</time></trkpt><trkpt lat="37.92825676277695" lon="15.898108266830313"><ele>9.0</ele><time>2026-05-03T08:47:40.001Z</time></trkpt><trkpt lat="37.92825598760104" lon="15.897778179443637"><ele>8.5</ele><time>2026-05-03T08:47:41.001Z</time></trkpt><trkpt lat="37.92825456400714" lon="15.897440940664731"><ele>8.0</ele><time>2026-05-03T08:47:42.001Z</time></trkpt><trkpt lat="37.92825775326981" lon="15.897107267521532"><ele>8.0</ele><time>2026-05-03T08:47:43.001Z</time></trkpt><trkpt lat="37.928262800649094" lon="15.896770676847789"><ele>8.0</ele><time>2026-05-03T08:47:44.001Z</time></trkpt><trkpt lat="37.92827930997611" lon="15.896433474488349"><ele>8.0</ele><time>2026-05-03T08:47:45.001Z</time></trkpt><trkpt lat="37.92826678292193" lon="15.896090649887118"><ele>8.0</ele><time>2026-05-03T08:47:46.001Z</time></trkpt><trkpt lat="37.92827061741027" lon="15.89574440320705"><ele>8.0</ele><time>2026-05-03T08:47:47.001Z</time></trkpt><trkpt lat="37.928275129917814" lon="15.895387009757949"><ele>8.0</ele><time>2026-05-03T08:47:48.001Z</time></trkpt><trkpt lat="37.92828931343046" lon="15.895038861576527"><ele>7.0</ele><time>2026-05-03T08:47:49.001Z</time></trkpt><trkpt lat="37.928297633048146" lon="15.89468125260963"><ele>6.0</ele><time>2026-05-03T08:47:50.001Z</time></trkpt><trkpt lat="37.92830941898345" lon="15.894322425730213"><ele>6.5</ele><time>2026-05-03T08:47:51.001Z</time></trkpt><trkpt lat="37.92832031948934" lon="15.893964366258649"><ele>7.0</ele><time>2026-05-03T08:47:52.001Z</time></trkpt><trkpt lat="37.928336668050335" lon="15.893599128285423"><ele>7.5</ele><time>2026-05-03T08:47:53.001Z</time></trkpt><trkpt lat="37.9283727664803" lon="15.893239810034986"><ele>8.0</ele><time>2026-05-03T08:47:54.001Z</time></trkpt><trkpt lat="37.92838773521893" lon="15.89286411868546"><ele>8.0</ele><time>2026-05-03T08:47:55.001Z</time></trkpt><trkpt lat="37.92842955558795" lon="15.892511096056817"><ele>8.0</ele><time>2026-05-03T08:47:56.001Z</time></trkpt><trkpt lat="37.92849452261769" lon="15.892163793945617"><ele>8.0</ele><time>2026-05-03T08:47:57.001Z</time></trkpt><trkpt lat="37.928545864523656" lon="15.891809946758537"><ele>8.0</ele><time>2026-05-03T08:47:58.001Z</time></trkpt><trkpt lat="37.92859919908692" lon="15.891461416500208"><ele>8.5</ele><time>2026-05-03T08:47:59.001Z</time></trkpt><trkpt lat="37.92864768796115" lon="15.891094740726686"><ele>9.0</ele><time>2026-05-03T08:48:00.001Z</time></trkpt><trkpt lat="37.92869068024601" lon="15.890736272824661"><ele>9.0</ele><time>2026-05-03T08:48:01.001Z</time></trkpt><trkpt lat="37.928701598654015" lon="15.890376017828121"><ele>9.0</ele><time>2026-05-03T08:48:02.001Z</time></trkpt><trkpt lat="37.928727012236905" lon="15.890016944839747"><ele>8.5</ele><time>2026-05-03T08:48:03.001Z</time></trkpt><trkpt lat="37.92875001651859" lon="15.889659003804125"><ele>8.0</ele><time>2026-05-03T08:48:04.001Z</time></trkpt><trkpt lat="37.92877451625225" lon="15.889298018160439"><ele>6.5</ele><time>2026-05-03T08:48:05.001Z</time></trkpt><trkpt lat="37.92880120357093" lon="15.888943330109"><ele>5.0</ele><time>2026-05-03T08:48:06.001Z</time></trkpt><trkpt lat="37.92882493509066" lon="15.888580292346663"><ele>5.5</ele><time>2026-05-03T08:48:07.001Z</time></trkpt><trkpt lat="37.92884980651558" lon="15.888223170524103"><ele>6.0</ele><time>2026-05-03T08:48:08.001Z</time></trkpt><trkpt lat="37.928875496371234" lon="15.887867517774941"><ele>7.0</ele><time>2026-05-03T08:48:09.001Z</time></trkpt><trkpt lat="37.928898737027566" lon="15.887508550697493"><ele>8.0</ele><time>2026-05-03T08:48:10.001Z</time></trkpt><trkpt lat="37.928922255301586" lon="15.887155087465258"><ele>8.0</ele><time>2026-05-03T08:48:11.001Z</time></trkpt><trkpt lat="37.928939922597465" lon="15.886772229512093"><ele>8.0</ele><time>2026-05-03T08:48:12.001Z</time></trkpt><trkpt lat="37.92897070761739" lon="15.886429337744797"><ele>8.5</ele><time>2026-05-03T08:48:13.001Z</time></trkpt><trkpt lat="37.9289915554198" lon="15.886069915194916"><ele>9.0</ele><time>2026-05-03T08:48:14.001Z</time></trkpt><trkpt lat="37.92900986005485" lon="15.88571046031508"><ele>9.5</ele><time>2026-05-03T08:48:15Z</time></trkpt><trkpt lat="37.92902270743577" lon="15.885346679090587"><ele>10.0</ele><time>2026-05-03T08:48:16Z</time></trkpt><trkpt lat="37.929030704725164" lon="15.884982001626062"><ele>10.0</ele><time>2026-05-03T08:48:17Z</time></trkpt><trkpt lat="37.9290358800156" lon="15.88462126114861"><ele>10.0</ele><time>2026-05-03T08:48:18Z</time></trkpt><trkpt lat="37.92903362996386" lon="15.8842567926493"><ele>9.5</ele><time>2026-05-03T08:48:19Z</time></trkpt><trkpt lat="37.92903655589178" lon="15.883905816115291"><ele>9.0</ele><time>2026-05-03T08:48:20Z</time></trkpt><trkpt lat="37.929038818254" lon="15.883575643270202"><ele>8.5</ele><time>2026-05-03T08:48:21Z</time></trkpt><trkpt lat="37.92904076958849" lon="15.88326481723839"><ele>8.0</ele><time>2026-05-03T08:48:22Z</time></trkpt><trkpt lat="37.92904469783794" lon="15.882971337980765"><ele>8.0</ele><time>2026-05-03T08:48:23Z</time></trkpt><trkpt lat="37.92905124468009" lon="15.88270401353236"><ele>8.0</ele><time>2026-05-03T08:48:24Z</time></trkpt><trkpt lat="37.92905550068603" lon="15.882445743773982"><ele>8.0</ele><time>2026-05-03T08:48:25Z</time></trkpt><trkpt lat="37.92905582191059" lon="15.882194785467176"><ele>7.666666666666666</ele><time>2026-05-03T08:48:26Z</time></trkpt><trkpt lat="37.929047867209476" lon="15.881940605267705"><ele>7.333333333333334</ele><time>2026-05-03T08:48:27Z</time></trkpt><trkpt lat="37.92904526209696" lon="15.881698376377225"><ele>7.0</ele><time>2026-05-03T08:48:28Z</time></trkpt><trkpt lat="37.92907281161619" lon="15.881464945512324"><ele>7.0</ele><time>2026-05-03T08:48:29Z</time></trkpt><trkpt lat="37.929105977902324" lon="15.88118889132793"><ele>7.0</ele><time>2026-05-03T08:48:30Z</time></trkpt><trkpt lat="37.92912529331509" lon="15.880915461647735"><ele>7.0</ele><time>2026-05-03T08:48:31Z</time></trkpt><trkpt lat="37.92917987829098" lon="15.880646570442538"><ele>7.0</ele><time>2026-05-03T08:48:32Z</time></trkpt><trkpt lat="37.92922372081907" lon="15.880370092259872"><ele>7.0</ele><time>2026-05-03T08:48:33Z</time></trkpt><trkpt lat="37.92925810419909" lon="15.880097170654862"><ele>7.0</ele><time>2026-05-03T08:48:34Z</time></trkpt><trkpt lat="37.929296959138114" lon="15.879836951973509"><ele>7.666666666666667</ele><time>2026-05-03T08:48:35Z</time></trkpt><trkpt lat="37.929331606756044" lon="15.87959225815205"><ele>8.333333333333334</ele><time>2026-05-03T08:48:36Z</time></trkpt><trkpt lat="37.92935874996285" lon="15.87936097254585"><ele>9.0</ele><time>2026-05-03T08:48:37Z</time></trkpt><trkpt lat="37.929376528544765" lon="15.879138486353717"><ele>9.333333333333334</ele><time>2026-05-03T08:48:38Z</time></trkpt><trkpt lat="37.9293941070865" lon="15.878929287819302"><ele>9.666666666666668</ele><time>2026-05-03T08:48:39Z</time></trkpt><trkpt lat="37.92941152718517" lon="15.878728275396194"><ele>10.0</ele><time>2026-05-03T08:48:40Z</time></trkpt><trkpt lat="37.92942544984714" lon="15.878542253113388"><ele>9.75</ele><time>2026-05-03T08:48:41Z</time></trkpt><trkpt lat="37.92943629498689" lon="15.878365940915424"><ele>9.5</ele><time>2026-05-03T08:48:42Z</time></trkpt><trkpt lat="37.92945346289072" lon="15.87820536950642"><ele>9.25</ele><time>2026-05-03T08:48:43Z</time></trkpt><trkpt lat="37.929470249711954" lon="15.878045132814028"><ele>9.0</ele><time>2026-05-03T08:48:44Z</time></trkpt><trkpt lat="37.9294769927982" lon="15.877877128362922"><ele>9.0</ele><time>2026-05-03T08:48:45Z</time></trkpt><trkpt lat="37.92948278191588" lon="15.877783678309195"><ele>9.0</ele><time>2026-05-03T08:48:46Z</time></trkpt><trkpt lat="37.92950536318186" lon="15.877671643991194"><ele>9.0</ele><time>2026-05-03T08:48:47Z</time></trkpt><trkpt lat="37.92950886091981" lon="15.877559155232088"><ele>9.0</ele><time>2026-05-03T08:48:48Z</time></trkpt><trkpt lat="37.92950951176713" lon="15.877471827656683"><ele>9.0</ele><time>2026-05-03T08:48:49Z</time></trkpt><trkpt lat="37.92951745515466" lon="15.877383388430776"><ele>9.0</ele><time>2026-05-03T08:48:50Z</time></trkpt><trkpt lat="37.92943874919945" lon="15.877302521756018"><ele>8.833333333333334</ele><time>2026-05-03T08:48:51Z</time></trkpt><trkpt lat="37.92937535387906" lon="15.877227324188985"><ele>8.666666666666666</ele><time>2026-05-03T08:48:52Z</time></trkpt><trkpt lat="37.929332902189515" lon="15.877152298981693"><ele>8.5</ele><time>2026-05-03T08:48:53Z</time></trkpt><trkpt lat="37.92929715469707" lon="15.877003861934694"><ele>8.333333333333332</ele><time>2026-05-03T08:48:55Z</time></trkpt><trkpt lat="37.929277385138484" lon="15.876924161650512"><ele>8.166666666666666</ele><time>2026-05-03T08:48:56Z</time></trkpt><trkpt lat="37.929268508885364" lon="15.876824095696492"><ele>8.0</ele><time>2026-05-03T08:48:57Z</time></trkpt><trkpt lat="37.92924524214313" lon="15.876713398740511"><ele>7.75</ele><time>2026-05-03T08:48:58Z</time></trkpt><trkpt lat="37.92922831556879" lon="15.87658669555384"><ele>7.5</ele><time>2026-05-03T08:48:59Z</time></trkpt><trkpt lat="37.92919909044778" lon="15.876455404762135"><ele>7.25</ele><time>2026-05-03T08:49:00Z</time></trkpt><trkpt lat="37.92916785418035" lon="15.876296596092448"><ele>7.0</ele><time>2026-05-03T08:49:01Z</time></trkpt><trkpt lat="37.92913648388062" lon="15.876110942407362"><ele>7.0</ele><time>2026-05-03T08:49:02Z</time></trkpt><trkpt lat="37.929098585648376" lon="15.875899967257432"><ele>7.0</ele><time>2026-05-03T08:49:03Z</time></trkpt><trkpt lat="37.92905979685807" lon="15.87568656458572"><ele>7.0</ele><time>2026-05-03T08:49:04Z</time></trkpt><trkpt lat="37.92902523520584" lon="15.875465739087032"><ele>7.0</ele><time>2026-05-03T08:49:05Z</time></trkpt><trkpt lat="37.928993409915" lon="15.875243372529775"><ele>7.0</ele><time>2026-05-03T08:49:06Z</time></trkpt><trkpt lat="37.928945473717484" lon="15.87501804123127"><ele>7.0</ele><time>2026-05-03T08:49:07Z</time></trkpt><trkpt lat="37.92890076965696" lon="15.874797839933072"><ele>7.0</ele><time>2026-05-03T08:49:08Z</time></trkpt><trkpt lat="37.928864083635446" lon="15.874580196059325"><ele>7.0</ele><time>2026-05-03T08:49:09Z</time></trkpt><trkpt lat="37.928825544716624" lon="15.874368382093516"><ele>7.0</ele><time>2026-05-03T08:49:10Z</time></trkpt><trkpt lat="37.92878630999325" lon="15.874168275526754"><ele>7.0</ele><time>2026-05-03T08:49:11Z</time></trkpt><trkpt lat="37.92874957830827" lon="15.873988168026669"><ele>7.0</ele><time>2026-05-03T08:49:12Z</time></trkpt><trkpt lat="37.92872149454527" lon="15.873821239039154"><ele>7.0</ele><time>2026-05-03T08:49:13Z</time></trkpt><trkpt lat="37.928686301496384" lon="15.873649694187645"><ele>7.0</ele><time>2026-05-03T08:49:14Z</time></trkpt><trkpt lat="37.928651943004205" lon="15.87347499105063"><ele>7.0</ele><time>2026-05-03T08:49:15Z</time></trkpt><trkpt lat="37.928620796314384" lon="15.87331358585394"><ele>6.999999999999999</ele><time>2026-05-03T08:49:16Z</time></trkpt><trkpt lat="37.92858979048071" lon="15.873171813076477"><ele>6.999999999999999</ele><time>2026-05-03T08:49:17Z</time></trkpt><trkpt lat="37.928565831402985" lon="15.873046888134459"><ele>7.0</ele><time>2026-05-03T08:49:18Z</time></trkpt><trkpt lat="37.92854545052221" lon="15.87294570312291"><ele>7.0</ele><time>2026-05-03T08:49:19Z</time></trkpt><trkpt lat="37.92855136320981" lon="15.872818135847902"><ele>7.000000000000001</ele><time>2026-05-03T08:49:21Z</time></trkpt><trkpt lat="37.92854634981165" lon="15.872735338355314"><ele>7.0</ele><time>2026-05-03T08:49:30Z</time></trkpt><trkpt lat="37.92856226999471" lon="15.872651512806659"><ele>7.0</ele><time>2026-05-03T08:52:56Z</time></trkpt><trkpt lat="37.928540161492904" lon="15.872568041916779"><ele>7.0</ele><time>2026-05-03T08:52:59Z</time></trkpt><trkpt lat="37.928467978803646" lon="15.87253836247037"><ele>7.000000000000001</ele><time>2026-05-03T08:53:03Z</time></trkpt><trkpt lat="37.92841711512277" lon="15.87239156779986"><ele>7.0</ele><time>2026-05-03T08:53:05Z</time></trkpt><trkpt lat="37.928405092117394" lon="15.872261799747255"><ele>7.0</ele><time>2026-05-03T08:53:06Z</time></trkpt><trkpt lat="37.92838601359057" lon="15.872127515333373"><ele>7.0</ele><time>2026-05-03T08:53:07Z</time></trkpt><trkpt lat="37.928354185971266" lon="15.871983017939607"><ele>7.0</ele><time>2026-05-03T08:53:08Z</time></trkpt><trkpt lat="37.92832308807265" lon="15.871823871188461"><ele>7.0</ele><time>2026-05-03T08:53:09Z</time></trkpt><trkpt lat="37.928295170437586" lon="15.871635080200495"><ele>7.0</ele><time>2026-05-03T08:53:10Z</time></trkpt><trkpt lat="37.928276145732895" lon="15.87144125032651"><ele>7.0</ele><time>2026-05-03T08:53:11Z</time></trkpt><trkpt lat="37.92824900850034" lon="15.871243458583137"><ele>7.0</ele><time>2026-05-03T08:53:12Z</time></trkpt><trkpt lat="37.928158810156695" lon="15.870889275143316"><ele>9.0</ele><time>2026-05-03T08:53:13Z</time></trkpt><trkpt lat="37.92810329419226" lon="15.87057671933544"><ele>11.0</ele><time>2026-05-03T08:53:14Z</time></trkpt><trkpt lat="37.92805720003849" lon="15.870294063306037"><ele>11.666666666666666</ele><time>2026-05-03T08:53:15Z</time></trkpt><trkpt lat="37.928012910379834" lon="15.870047427088233"><ele>12.333333333333332</ele><time>2026-05-03T08:53:16Z</time></trkpt><trkpt lat="37.927977854319394" lon="15.869817610012499"><ele>13.0</ele><time>2026-05-03T08:53:17Z</time></trkpt><trkpt lat="37.927937506719886" lon="15.869656391148252"><ele>13.0</ele><time>2026-05-03T08:53:18Z</time></trkpt><trkpt lat="37.92791910098796" lon="15.869504161930195"><ele>13.0</ele><time>2026-05-03T08:53:19Z</time></trkpt><trkpt lat="37.92789038123013" lon="15.869356579464501"><ele>13.0</ele><time>2026-05-03T08:53:20Z</time></trkpt><trkpt lat="37.92786582369158" lon="15.86921985747666"><ele>13.0</ele><time>2026-05-03T08:53:21Z</time></trkpt><trkpt lat="37.92783709140514" lon="15.869098191569433"><ele>12.999999999999998</ele><time>2026-05-03T08:53:22Z</time></trkpt><trkpt lat="37.927810020758024" lon="15.868993197945974"><ele>13.0</ele><time>2026-05-03T08:53:23Z</time></trkpt><trkpt lat="37.927799518572186" lon="15.868889758282121"><ele>13.0</ele><time>2026-05-03T08:53:24Z</time></trkpt><trkpt lat="37.927780375501584" lon="15.868783626158125"><ele>13.0</ele><time>2026-05-03T08:53:25Z</time></trkpt><trkpt lat="37.92775610235267" lon="15.868683462405013"><ele>12.999999999999998</ele><time>2026-05-03T08:53:26Z</time></trkpt><trkpt lat="37.92773867664572" lon="15.868570892255839"><ele>13.0</ele><time>2026-05-03T08:53:27Z</time></trkpt><trkpt lat="37.92772108800172" lon="15.868462134096045"><ele>13.4</ele><time>2026-05-03T08:53:28Z</time></trkpt><trkpt lat="37.92770536625876" lon="15.868371516313237"><ele>13.8</ele><time>2026-05-03T08:53:29Z</time></trkpt><trkpt lat="37.9276769004705" lon="15.86825164012064"><ele>14.2</ele><time>2026-05-03T08:53:30Z</time></trkpt><trkpt lat="37.92766723300703" lon="15.86813273635955"><ele>14.6</ele><time>2026-05-03T08:53:31Z</time></trkpt><trkpt lat="37.92763021241795" lon="15.868002127298233"><ele>15.0</ele><time>2026-05-03T08:53:32Z</time></trkpt><trkpt lat="37.92758870641008" lon="15.867877840924045"><ele>14.5</ele><time>2026-05-03T08:53:33Z</time></trkpt><trkpt lat="37.927555344182736" lon="15.86774178450977"><ele>14.0</ele><time>2026-05-03T08:53:34Z</time></trkpt><trkpt lat="37.92753724026009" lon="15.867599832697525"><ele>13.5</ele><time>2026-05-03T08:53:35Z</time></trkpt><trkpt lat="37.92750927207841" lon="15.867449653986863"><ele>13.0</ele><time>2026-05-03T08:53:36Z</time></trkpt><trkpt lat="37.927482815954505" lon="15.86728080527858"><ele>12.666666666666666</ele><time>2026-05-03T08:53:37Z</time></trkpt><trkpt lat="37.927443431825154" lon="15.867061049298552"><ele>12.333333333333332</ele><time>2026-05-03T08:53:38Z</time></trkpt><trkpt lat="37.927411452479795" lon="15.866853492537121"><ele>12.0</ele><time>2026-05-03T08:53:39Z</time></trkpt><trkpt lat="37.92736610904745" lon="15.86665103395894"><ele>11.333333333333334</ele><time>2026-05-03T08:53:40Z</time></trkpt><trkpt lat="37.927328126716816" lon="15.866448248585446"><ele>10.666666666666668</ele><time>2026-05-03T08:53:41Z</time></trkpt><trkpt lat="37.92729282293073" lon="15.866258228470345"><ele>10.0</ele><time>2026-05-03T08:53:42Z</time></trkpt><trkpt lat="37.927254269637714" lon="15.866029206079444"><ele>10.0</ele><time>2026-05-03T08:53:43Z</time></trkpt><trkpt lat="37.92721977899759" lon="15.865814971675745"><ele>10.0</ele><time>2026-05-03T08:53:44Z</time></trkpt><trkpt lat="37.92718079922973" lon="15.865607916898187"><ele>10.0</ele><time>2026-05-03T08:53:45Z</time></trkpt><trkpt lat="37.9271331891372" lon="15.86541101782743"><ele>10.0</ele><time>2026-05-03T08:53:46Z</time></trkpt><trkpt lat="37.92710102489179" lon="15.865191395045457"><ele>10.0</ele><time>2026-05-03T08:53:47Z</time></trkpt><trkpt lat="37.927063831499225" lon="15.865007199172531"><ele>10.0</ele><time>2026-05-03T08:53:48Z</time></trkpt><trkpt lat="37.92702564027463" lon="15.864800622627055"><ele>10.333333333333334</ele><time>2026-05-03T08:53:49Z</time></trkpt><trkpt lat="37.9270022683094" lon="15.864595568617137"><ele>10.666666666666666</ele><time>2026-05-03T08:53:50.001Z</time></trkpt><trkpt lat="37.92696846727666" lon="15.864391833212947"><ele>11.0</ele><time>2026-05-03T08:53:51.001Z</time></trkpt><trkpt lat="37.926953442729065" lon="15.864176220974546"><ele>11.0</ele><time>2026-05-03T08:53:52.001Z</time></trkpt><trkpt lat="37.92692209977927" lon="15.86397295114944"><ele>11.0</ele><time>2026-05-03T08:53:53.001Z</time></trkpt><trkpt lat="37.926839380735444" lon="15.863791055450012"><ele>11.0</ele><time>2026-05-03T08:53:54.001Z</time></trkpt><trkpt lat="37.92680573672085" lon="15.863578556359839"><ele>10.666666666666666</ele><time>2026-05-03T08:53:55.001Z</time></trkpt><trkpt lat="37.9267642551396" lon="15.863379889439758"><ele>10.333333333333334</ele><time>2026-05-03T08:53:56.001Z</time></trkpt><trkpt lat="37.926734202641995" lon="15.863173687900517"><ele>10.0</ele><time>2026-05-03T08:53:57.001Z</time></trkpt><trkpt lat="37.926695947217496" lon="15.862960765792165"><ele>10.0</ele><time>2026-05-03T08:53:58.001Z</time></trkpt><trkpt lat="37.926665734050104" lon="15.86275278265137"><ele>10.0</ele><time>2026-05-03T08:53:59.001Z</time></trkpt><trkpt lat="37.926608492810146" lon="15.862549836316637"><ele>10.0</ele><time>2026-05-03T08:54:00.001Z</time></trkpt><trkpt lat="37.92658456447718" lon="15.862347908155968"><ele>10.333333333333334</ele><time>2026-05-03T08:54:01.001Z</time></trkpt><trkpt lat="37.926545770991055" lon="15.862161647726607"><ele>10.666666666666666</ele><time>2026-05-03T08:54:02.001Z</time></trkpt><trkpt lat="37.926498740349906" lon="15.861944489626312"><ele>11.0</ele><time>2026-05-03T08:54:03.001Z</time></trkpt><trkpt lat="37.926452511463" lon="15.861731747727207"><ele>11.0</ele><time>2026-05-03T08:54:04.001Z</time></trkpt><trkpt lat="37.92643216595455" lon="15.86152476751807"><ele>11.0</ele><time>2026-05-03T08:54:05.001Z</time></trkpt><trkpt lat="37.9263967858246" lon="15.861311865452636"><ele>11.0</ele><time>2026-05-03T08:54:06.001Z</time></trkpt><trkpt lat="37.926350275327664" lon="15.86110796892803"><ele>10.666666666666666</ele><time>2026-05-03T08:54:07.001Z</time></trkpt><trkpt lat="37.92632612710758" lon="15.860895943930366"><ele>10.333333333333334</ele><time>2026-05-03T08:54:08.001Z</time></trkpt><trkpt lat="37.926292967175854" lon="15.860688350803322"><ele>10.0</ele><time>2026-05-03T08:54:09.001Z</time></trkpt><trkpt lat="37.92625085144411" lon="15.86048608101363"><ele>10.0</ele><time>2026-05-03T08:54:10.001Z</time></trkpt><trkpt lat="37.92620471885582" lon="15.86028709970063"><ele>10.0</ele><time>2026-05-03T08:54:11.001Z</time></trkpt><trkpt lat="37.926158231191444" lon="15.86007951405086"><ele>10.0</ele><time>2026-05-03T08:54:12.001Z</time></trkpt><trkpt lat="37.92612397535513" lon="15.859870908669407"><ele>10.666666666666668</ele><time>2026-05-03T08:54:13.001Z</time></trkpt><trkpt lat="37.926095810899184" lon="15.859654657847692"><ele>11.333333333333334</ele><time>2026-05-03T08:54:14.001Z</time></trkpt><trkpt lat="37.926062243621125" lon="15.85944096479983"><ele>12.0</ele><time>2026-05-03T08:54:15.001Z</time></trkpt><trkpt lat="37.926023485779304" lon="15.859229936668427"><ele>12.666666666666668</ele><time>2026-05-03T08:54:16.001Z</time></trkpt><trkpt lat="37.92599231408004" lon="15.85902601288735"><ele>13.333333333333334</ele><time>2026-05-03T08:54:17.001Z</time></trkpt><trkpt lat="37.92596187644698" lon="15.858822874695075"><ele>14.0</ele><time>2026-05-03T08:54:18.001Z</time></trkpt><trkpt lat="37.92591667457677" lon="15.858621348327874"><ele>14.0</ele><time>2026-05-03T08:54:19.001Z</time></trkpt><trkpt lat="37.925875051784764" lon="15.858413638853287"><ele>14.0</ele><time>2026-05-03T08:54:20.001Z</time></trkpt><trkpt lat="37.92583361381749" lon="15.85820186478473"><ele>14.0</ele><time>2026-05-03T08:54:21.001Z</time></trkpt><trkpt lat="37.92579973462669" lon="15.857989897782332"><ele>14.0</ele><time>2026-05-03T08:54:22.001Z</time></trkpt><trkpt lat="37.92575853784576" lon="15.857775449269651"><ele>14.0</ele><time>2026-05-03T08:54:23.001Z</time></trkpt><trkpt lat="37.92572691023909" lon="15.857569322479781"><ele>14.0</ele><time>2026-05-03T08:54:24.001Z</time></trkpt><trkpt lat="37.92568461492156" lon="15.857369691638567"><ele>14.25</ele><time>2026-05-03T08:54:25.001Z</time></trkpt><trkpt lat="37.925638904894186" lon="15.8571818405029"><ele>14.5</ele><time>2026-05-03T08:54:26.001Z</time></trkpt><trkpt lat="37.925603782726036" lon="15.85701271625426"><ele>14.75</ele><time>2026-05-03T08:54:27.001Z</time></trkpt><trkpt lat="37.92557498695442" lon="15.856864166913354"><ele>15.0</ele><time>2026-05-03T08:54:28.001Z</time></trkpt><trkpt lat="37.92555145108561" lon="15.856711765457641"><ele>15.5</ele><time>2026-05-03T08:54:29.001Z</time></trkpt><trkpt lat="37.92551904252265" lon="15.856552675626657"><ele>16.0</ele><time>2026-05-03T08:54:30.001Z</time></trkpt><trkpt lat="37.925473068855986" lon="15.85638471779423"><ele>16.5</ele><time>2026-05-03T08:54:31.001Z</time></trkpt><trkpt lat="37.92544709554838" lon="15.856178287874597"><ele>17.0</ele><time>2026-05-03T08:54:32.001Z</time></trkpt><trkpt lat="37.92541117292532" lon="15.855979826353266"><ele>17.25</ele><time>2026-05-03T08:54:33Z</time></trkpt><trkpt lat="37.925377889075335" lon="15.855786120128625"><ele>17.5</ele><time>2026-05-03T08:54:34Z</time></trkpt><trkpt lat="37.92534228716517" lon="15.855607598210504"><ele>17.75</ele><time>2026-05-03T08:54:35Z</time></trkpt><trkpt lat="37.925313688675736" lon="15.855432395301587"><ele>18.0</ele><time>2026-05-03T08:54:36Z</time></trkpt><trkpt lat="37.92528642834415" lon="15.855266103577932"><ele>18.25</ele><time>2026-05-03T08:54:37Z</time></trkpt><trkpt lat="37.925255694938144" lon="15.855105605071456"><ele>18.5</ele><time>2026-05-03T08:54:38Z</time></trkpt><trkpt lat="37.9252138881263" lon="15.854930350616689"><ele>18.75</ele><time>2026-05-03T08:54:39Z</time></trkpt><trkpt lat="37.92518211494185" lon="15.85473404418379"><ele>19.0</ele><time>2026-05-03T08:54:40Z</time></trkpt><trkpt lat="37.92514980248635" lon="15.854531314470886"><ele>19.0</ele><time>2026-05-03T08:54:41Z</time></trkpt><trkpt lat="37.92511541622921" lon="15.854331667859071"><ele>19.0</ele><time>2026-05-03T08:54:42Z</time></trkpt><trkpt lat="37.92507184350498" lon="15.854146414454176"><ele>19.0</ele><time>2026-05-03T08:54:43Z</time></trkpt><trkpt lat="37.92503249925749" lon="15.853958429848248"><ele>18.0</ele><time>2026-05-03T08:54:44Z</time></trkpt><trkpt lat="37.924997391014855" lon="15.85376145489119"><ele>17.0</ele><time>2026-05-03T08:54:45Z</time></trkpt><trkpt lat="37.924953576171056" lon="15.853558172784865"><ele>16.0</ele><time>2026-05-03T08:54:46Z</time></trkpt><trkpt lat="37.92491779188457" lon="15.853368864403086"><ele>16.0</ele><time>2026-05-03T08:54:47Z</time></trkpt><trkpt lat="37.924873047049225" lon="15.853187210348842"><ele>16.0</ele><time>2026-05-03T08:54:48Z</time></trkpt><trkpt lat="37.9248627827166" lon="15.853016959129894"><ele>16.0</ele><time>2026-05-03T08:54:49Z</time></trkpt><trkpt lat="37.92484304596628" lon="15.852893172791235"><ele>16.0</ele><time>2026-05-03T08:54:50Z</time></trkpt><trkpt lat="37.9248410739992" lon="15.852774844764317"><ele>16.0</ele><time>2026-05-03T08:54:51Z</time></trkpt><trkpt lat="37.92485752360101" lon="15.852667303508719"><ele>16.0</ele><time>2026-05-03T08:54:52Z</time></trkpt><trkpt lat="37.924900466893966" lon="15.852523817080213"><ele>16.0</ele><time>2026-05-03T08:54:54Z</time></trkpt><trkpt lat="37.924904274537575" lon="15.852428072689595"><ele>16.0</ele><time>2026-05-03T08:54:56Z</time></trkpt><trkpt lat="37.92489946537302" lon="15.852274100964408"><ele>16.0</ele><time>2026-05-03T08:54:58Z</time></trkpt><trkpt lat="37.92483970694729" lon="15.852178771224466"><ele>16.666666666666664</ele><time>2026-05-03T08:54:59Z</time></trkpt><trkpt lat="37.92478130072995" lon="15.852042626577301"><ele>17.333333333333332</ele><time>2026-05-03T08:55:00Z</time></trkpt><trkpt lat="37.92471136486775" lon="15.851869131290506"><ele>18.0</ele><time>2026-05-03T08:55:01Z</time></trkpt><trkpt lat="37.92463876474745" lon="15.851647000521695"><ele>20.0</ele><time>2026-05-03T08:55:02Z</time></trkpt><trkpt lat="37.92455838693156" lon="15.851404123351415"><ele>22.0</ele><time>2026-05-03T08:55:03Z</time></trkpt><trkpt lat="37.92448156116558" lon="15.851137618629169"><ele>24.0</ele><time>2026-05-03T08:55:04Z</time></trkpt><trkpt lat="37.924407088883285" lon="15.85084175937573"><ele>25.0</ele><time>2026-05-03T08:55:05Z</time></trkpt><trkpt lat="37.92432609582732" lon="15.850535215522617"><ele>26.0</ele><time>2026-05-03T08:55:06Z</time></trkpt><trkpt lat="37.924247415351466" lon="15.850207576401328"><ele>22.0</ele><time>2026-05-03T08:55:07Z</time></trkpt><trkpt lat="37.92417930618204" lon="15.849852765000145"><ele>18.0</ele><time>2026-05-03T08:55:08Z</time></trkpt><trkpt lat="37.924115822105875" lon="15.849498635220664"><ele>20.0</ele><time>2026-05-03T08:55:09Z</time></trkpt><trkpt lat="37.92405502328668" lon="15.849134981681194"><ele>22.0</ele><time>2026-05-03T08:55:10Z</time></trkpt><trkpt lat="37.92398585870467" lon="15.848764731519967"><ele>24.5</ele><time>2026-05-03T08:55:11Z</time></trkpt><trkpt lat="37.923911070349654" lon="15.848386492129267"><ele>27.0</ele><time>2026-05-03T08:55:12Z</time></trkpt><trkpt lat="37.923847474159" lon="15.848006632862198"><ele>29.0</ele><time>2026-05-03T08:55:13Z</time></trkpt><trkpt lat="37.92377544642587" lon="15.847619696169538"><ele>31.0</ele><time>2026-05-03T08:55:14Z</time></trkpt><trkpt lat="37.92370794553606" lon="15.847231294657288"><ele>31.0</ele><time>2026-05-03T08:55:15Z</time></trkpt><trkpt lat="37.923640171633515" lon="15.846844195720914"><ele>31.0</ele><time>2026-05-03T08:55:16Z</time></trkpt><trkpt lat="37.92357061420168" lon="15.846464233676565"><ele>36.5</ele><time>2026-05-03T08:55:17Z</time></trkpt><trkpt lat="37.92355532864568" lon="15.846102312722993"><ele>42.0</ele><time>2026-05-03T08:55:18Z</time></trkpt><trkpt lat="37.92351937845824" lon="15.845674982540626"><ele>44.5</ele><time>2026-05-03T08:55:19Z</time></trkpt><trkpt lat="37.92349374939518" lon="15.845279988012598"><ele>47.0</ele><time>2026-05-03T08:55:20Z</time></trkpt><trkpt lat="37.923459512757304" lon="15.844883385609156"><ele>41.5</ele><time>2026-05-03T08:55:21Z</time></trkpt><trkpt lat="37.92342890885379" lon="15.844486494988743"><ele>36.0</ele><time>2026-05-03T08:55:22Z</time></trkpt><trkpt lat="37.92339496619243" lon="15.844094180352888"><ele>26.5</ele><time>2026-05-03T08:55:23Z</time></trkpt><trkpt lat="37.923352043651846" lon="15.843713855189824"><ele>17.0</ele><time>2026-05-03T08:55:24Z</time></trkpt><trkpt lat="37.92329490295286" lon="15.843346717960841"><ele>17.0</ele><time>2026-05-03T08:55:25Z</time></trkpt><trkpt lat="37.9232253574034" lon="15.842989455634827"><ele>17.0</ele><time>2026-05-03T08:55:26Z</time></trkpt><trkpt lat="37.92315141184667" lon="15.842629937697255"><ele>19.5</ele><time>2026-05-03T08:55:27Z</time></trkpt><trkpt lat="37.923080197050005" lon="15.842262101073356"><ele>22.0</ele><time>2026-05-03T08:55:28Z</time></trkpt><trkpt lat="37.92301193821906" lon="15.841894826681894"><ele>22.5</ele><time>2026-05-03T08:55:29Z</time></trkpt><trkpt lat="37.922943405588654" lon="15.841534977360316"><ele>23.0</ele><time>2026-05-03T08:55:30Z</time></trkpt><trkpt lat="37.92288429530084" lon="15.841164253219853"><ele>23.0</ele><time>2026-05-03T08:55:31Z</time></trkpt><trkpt lat="37.92284281119257" lon="15.840787329192711"><ele>23.0</ele><time>2026-05-03T08:55:32Z</time></trkpt><trkpt lat="37.92282941269865" lon="15.84040330012373"><ele>18.0</ele><time>2026-05-03T08:55:33Z</time></trkpt><trkpt lat="37.92284108214376" lon="15.840020460327738"><ele>13.0</ele><time>2026-05-03T08:55:34Z</time></trkpt><trkpt lat="37.922857644202736" lon="15.8396446444246"><ele>13.0</ele><time>2026-05-03T08:55:35Z</time></trkpt><trkpt lat="37.92287374627618" lon="15.839264942567088"><ele>13.0</ele><time>2026-05-03T08:55:36Z</time></trkpt><trkpt lat="37.92287854419319" lon="15.838884401192772"><ele>13.0</ele><time>2026-05-03T08:55:37Z</time></trkpt><trkpt lat="37.92288374487532" lon="15.838501388829444"><ele>13.0</ele><time>2026-05-03T08:55:38Z</time></trkpt><trkpt lat="37.92289571866831" lon="15.838123492008819"><ele>13.5</ele><time>2026-05-03T08:55:39Z</time></trkpt><trkpt lat="37.92290559099215" lon="15.837750765387742"><ele>14.0</ele><time>2026-05-03T08:55:40Z</time></trkpt><trkpt lat="37.922916438801" lon="15.83737698827078"><ele>14.5</ele><time>2026-05-03T08:55:41Z</time></trkpt><trkpt lat="37.922925262476184" lon="15.837011219069286"><ele>15.0</ele><time>2026-05-03T08:55:42Z</time></trkpt><trkpt lat="37.92293291983568" lon="15.836641248730297"><ele>17.5</ele><time>2026-05-03T08:55:43Z</time></trkpt><trkpt lat="37.92294261294324" lon="15.836277427096018"><ele>20.0</ele><time>2026-05-03T08:55:44Z</time></trkpt><trkpt lat="37.922952943357394" lon="15.835917040840057"><ele>22.0</ele><time>2026-05-03T08:55:45Z</time></trkpt><trkpt lat="37.922966100954575" lon="15.835553268799032"><ele>24.0</ele><time>2026-05-03T08:55:46Z</time></trkpt><trkpt lat="37.92295753687633" lon="15.83519345839722"><ele>27.0</ele><time>2026-05-03T08:55:47Z</time></trkpt><trkpt lat="37.92292019470579" lon="15.834838154751704"><ele>30.0</ele><time>2026-05-03T08:55:48Z</time></trkpt><trkpt lat="37.922852254782136" lon="15.834482851056414"><ele>32.0</ele><time>2026-05-03T08:55:49Z</time></trkpt><trkpt lat="37.92275792625264" lon="15.834118922725835"><ele>34.0</ele><time>2026-05-03T08:55:50Z</time></trkpt><trkpt lat="37.92265105684154" lon="15.833762210802764"><ele>31.5</ele><time>2026-05-03T08:55:51Z</time></trkpt><trkpt lat="37.92254499061587" lon="15.833398082559714"><ele>29.0</ele><time>2026-05-03T08:55:52Z</time></trkpt><trkpt lat="37.92242163432327" lon="15.833055021497634"><ele>29.0</ele><time>2026-05-03T08:55:53Z</time></trkpt><trkpt lat="37.92231650797124" lon="15.832700313691417"><ele>29.0</ele><time>2026-05-03T08:55:54Z</time></trkpt><trkpt lat="37.92222780460849" lon="15.832350679480012"><ele>33.0</ele><time>2026-05-03T08:55:55Z</time></trkpt><trkpt lat="37.92216643052729" lon="15.831970227118097"><ele>37.0</ele><time>2026-05-03T08:55:56Z</time></trkpt><trkpt lat="37.92212994001751" lon="15.831586951967473"><ele>38.0</ele><time>2026-05-03T08:55:57Z</time></trkpt><trkpt lat="37.92211964342949" lon="15.831195066612535"><ele>39.0</ele><time>2026-05-03T08:55:58Z</time></trkpt><trkpt lat="37.92211269349476" lon="15.8308086623822"><ele>37.0</ele><time>2026-05-03T08:55:59Z</time></trkpt><trkpt lat="37.92211595043277" lon="15.830422738752343"><ele>35.0</ele><time>2026-05-03T08:56:00Z</time></trkpt><trkpt lat="37.922115168021044" lon="15.830024782032229"><ele>34.0</ele><time>2026-05-03T08:56:01Z</time></trkpt><trkpt lat="37.922107934418214" lon="15.829633153710903"><ele>33.0</ele><time>2026-05-03T08:56:02Z</time></trkpt><trkpt lat="37.92209874140905" lon="15.829247506735683"><ele>31.5</ele><time>2026-05-03T08:56:03Z</time></trkpt><trkpt lat="37.92209271304152" lon="15.828867760356452"><ele>30.0</ele><time>2026-05-03T08:56:04Z</time></trkpt><trkpt lat="37.922085119966376" lon="15.82849698135259"><ele>28.5</ele><time>2026-05-03T08:56:05Z</time></trkpt><trkpt lat="37.92207580927604" lon="15.828127317066041"><ele>27.0</ele><time>2026-05-03T08:56:06Z</time></trkpt><trkpt lat="37.92205538725142" lon="15.827755303621625"><ele>30.0</ele><time>2026-05-03T08:56:07Z</time></trkpt><trkpt lat="37.922003592944584" lon="15.827384986832293"><ele>33.0</ele><time>2026-05-03T08:56:08Z</time></trkpt><trkpt lat="37.92192645091763" lon="15.827014096364147"><ele>37.5</ele><time>2026-05-03T08:56:09Z</time></trkpt><trkpt lat="37.92182513932048" lon="15.826640537747487"><ele>42.0</ele><time>2026-05-03T08:56:10Z</time></trkpt><trkpt lat="37.921701793398675" lon="15.826276910453394"><ele>37.0</ele><time>2026-05-03T08:56:11Z</time></trkpt><trkpt lat="37.92155382257653" lon="15.825924899263054"><ele>32.0</ele><time>2026-05-03T08:56:12Z</time></trkpt><trkpt lat="37.921385456002994" lon="15.825579660526401"><ele>32.0</ele><time>2026-05-03T08:56:13Z</time></trkpt><trkpt lat="37.92121359190119" lon="15.825236037917085"><ele>32.0</ele><time>2026-05-03T08:56:14Z</time></trkpt><trkpt lat="37.92104747167895" lon="15.824885601840398"><ele>26.5</ele><time>2026-05-03T08:56:15Z</time></trkpt><trkpt lat="37.920896434556404" lon="15.824538068680484"><ele>21.0</ele><time>2026-05-03T08:56:16Z</time></trkpt><trkpt lat="37.92075777152816" lon="15.824191663999082"><ele>20.5</ele><time>2026-05-03T08:56:17.001Z</time></trkpt><trkpt lat="37.92063486553758" lon="15.8238433999553"><ele>20.0</ele><time>2026-05-03T08:56:18.001Z</time></trkpt><trkpt lat="37.92055593373368" lon="15.823485127058055"><ele>18.5</ele><time>2026-05-03T08:56:19.001Z</time></trkpt><trkpt lat="37.920508620329116" lon="15.82311052069389"><ele>17.0</ele><time>2026-05-03T08:56:20.001Z</time></trkpt><trkpt lat="37.920481052156454" lon="15.822732385028266"><ele>19.0</ele><time>2026-05-03T08:56:21.001Z</time></trkpt><trkpt lat="37.920452102999" lon="15.822349356798552"><ele>21.0</ele><time>2026-05-03T08:56:22.001Z</time></trkpt><trkpt lat="37.92041597875286" lon="15.821957538998515"><ele>28.0</ele><time>2026-05-03T08:56:23.001Z</time></trkpt><trkpt lat="37.92040481399198" lon="15.821555224345019"><ele>35.0</ele><time>2026-05-03T08:56:24.001Z</time></trkpt><trkpt lat="37.92040642837872" lon="15.821128033963614"><ele>37.0</ele><time>2026-05-03T08:56:25.001Z</time></trkpt><trkpt lat="37.920430521610776" lon="15.820718490201257"><ele>39.0</ele><time>2026-05-03T08:56:26.001Z</time></trkpt><trkpt lat="37.9204551852982" lon="15.820307889237391"><ele>37.5</ele><time>2026-05-03T08:56:27.001Z</time></trkpt><trkpt lat="37.92047820572339" lon="15.819902544977914"><ele>36.0</ele><time>2026-05-03T08:56:28.001Z</time></trkpt><trkpt lat="37.92049447013869" lon="15.8194986096662"><ele>34.0</ele><time>2026-05-03T08:56:29.001Z</time></trkpt><trkpt lat="37.92051445276576" lon="15.819097048777998"><ele>32.0</ele><time>2026-05-03T08:56:30.001Z</time></trkpt><trkpt lat="37.92053365621893" lon="15.818699352710398"><ele>26.0</ele><time>2026-05-03T08:56:31.001Z</time></trkpt><trkpt lat="37.920553275872145" lon="15.818305181661046"><ele>20.0</ele><time>2026-05-03T08:56:32.001Z</time></trkpt><trkpt lat="37.92057229854936" lon="15.817914257113328"><ele>19.0</ele><time>2026-05-03T08:56:33.001Z</time></trkpt><trkpt lat="37.920591945909024" lon="15.817521890156767"><ele>18.0</ele><time>2026-05-03T08:56:34.001Z</time></trkpt><trkpt lat="37.92061060096885" lon="15.817131069230495"><ele>21.0</ele><time>2026-05-03T08:56:35.001Z</time></trkpt><trkpt lat="37.92062153045463" lon="15.816739458311345"><ele>24.0</ele><time>2026-05-03T08:56:36.001Z</time></trkpt><trkpt lat="37.92063633700459" lon="15.816347580192822"><ele>19.5</ele><time>2026-05-03T08:56:37.001Z</time></trkpt><trkpt lat="37.92065472969096" lon="15.815956346542597"><ele>15.0</ele><time>2026-05-03T08:56:38.001Z</time></trkpt><trkpt lat="37.920672921498024" lon="15.815571648661127"><ele>15.0</ele><time>2026-05-03T08:56:38.999Z</time></trkpt><trkpt lat="37.92069208513244" lon="15.815191260878494"><ele>15.0</ele><time>2026-05-03T08:56:39.999Z</time></trkpt><trkpt lat="37.9207090728646" lon="15.814822490367048"><ele>13.0</ele><time>2026-05-03T08:56:40.999Z</time></trkpt><trkpt lat="37.920725325645584" lon="15.814477023083892"><ele>11.0</ele><time>2026-05-03T08:56:41.999Z</time></trkpt><trkpt lat="37.92074566964841" lon="15.814144510097146"><ele>11.0</ele><time>2026-05-03T08:56:42.999Z</time></trkpt><trkpt lat="37.92076381030876" lon="15.813831250424633"><ele>11.0</ele><time>2026-05-03T08:56:43.999Z</time></trkpt><trkpt lat="37.92077930142149" lon="15.81351193678618"><ele>11.0</ele><time>2026-05-03T08:56:44.999Z</time></trkpt><trkpt lat="37.92078548400346" lon="15.81317815077836"><ele>11.0</ele><time>2026-05-03T08:56:45.999Z</time></trkpt><trkpt lat="37.92078828721421" lon="15.812830607961411"><ele>11.5</ele><time>2026-05-03T08:56:46.999Z</time></trkpt><trkpt lat="37.92079243232883" lon="15.812478702121902"><ele>12.0</ele><time>2026-05-03T08:56:47.999Z</time></trkpt><trkpt lat="37.92080314428515" lon="15.812114879545216"><ele>11.0</ele><time>2026-05-03T08:56:48.999Z</time></trkpt><trkpt lat="37.92080757572136" lon="15.811753716995959"><ele>10.0</ele><time>2026-05-03T08:56:49.999Z</time></trkpt><trkpt lat="37.92081349009254" lon="15.811385918748458"><ele>10.0</ele><time>2026-05-03T08:56:51Z</time></trkpt><trkpt lat="37.920813187378535" lon="15.811012196412852"><ele>10.0</ele><time>2026-05-03T08:56:52Z</time></trkpt><trkpt lat="37.920817211314365" lon="15.810647660651654"><ele>10.0</ele><time>2026-05-03T08:56:53Z</time></trkpt><trkpt lat="37.92082391756986" lon="15.810254305948904"><ele>10.0</ele><time>2026-05-03T08:56:54Z</time></trkpt><trkpt lat="37.92082795574112" lon="15.809873541910097"><ele>10.0</ele><time>2026-05-03T08:56:55Z</time></trkpt><trkpt lat="37.92083146004295" lon="15.809493724830475"><ele>10.0</ele><time>2026-05-03T08:56:56Z</time></trkpt><trkpt lat="37.92083358077915" lon="15.80911162974183"><ele>10.5</ele><time>2026-05-03T08:56:57Z</time></trkpt><trkpt lat="37.920840181747835" lon="15.808730468396147"><ele>11.0</ele><time>2026-05-03T08:56:58Z</time></trkpt><trkpt lat="37.920847709984315" lon="15.80835317489219"><ele>11.5</ele><time>2026-05-03T08:56:59Z</time></trkpt><trkpt lat="37.92085648881322" lon="15.807992452777246"><ele>12.0</ele><time>2026-05-03T08:57:00Z</time></trkpt><trkpt lat="37.92086223455901" lon="15.807618381520488"><ele>12.5</ele><time>2026-05-03T08:57:01Z</time></trkpt><trkpt lat="37.9208671232959" lon="15.807265385490997"><ele>13.0</ele><time>2026-05-03T08:57:02Z</time></trkpt><trkpt lat="37.920868877252495" lon="15.806938763216392"><ele>12.0</ele><time>2026-05-03T08:57:03Z</time></trkpt><trkpt lat="37.92086465278732" lon="15.806635556498366"><ele>11.0</ele><time>2026-05-03T08:57:04Z</time></trkpt><trkpt lat="37.920864678239504" lon="15.806341654064006"><ele>11.0</ele><time>2026-05-03T08:57:05Z</time></trkpt><trkpt lat="37.92085898925975" lon="15.806071992353681"><ele>11.0</ele><time>2026-05-03T08:57:06Z</time></trkpt><trkpt lat="37.920867445845765" lon="15.805805946991644"><ele>11.0</ele><time>2026-05-03T08:57:07Z</time></trkpt><trkpt lat="37.92084895765365" lon="15.80559241180781"><ele>10.666666666666666</ele><time>2026-05-03T08:57:08Z</time></trkpt><trkpt lat="37.9208528607383" lon="15.805385694259229"><ele>10.333333333333334</ele><time>2026-05-03T08:57:09Z</time></trkpt><trkpt lat="37.92085145460645" lon="15.805195026584094"><ele>10.0</ele><time>2026-05-03T08:57:10Z</time></trkpt><trkpt lat="37.92084650935361" lon="15.805001438496943"><ele>9.666666666666668</ele><time>2026-05-03T08:57:11Z</time></trkpt><trkpt lat="37.920839658174074" lon="15.804788541687612"><ele>9.333333333333334</ele><time>2026-05-03T08:57:12Z</time></trkpt><trkpt lat="37.9208397553217" lon="15.804571049867972"><ele>9.0</ele><time>2026-05-03T08:57:13Z</time></trkpt><trkpt lat="37.92084018833957" lon="15.804357446292729"><ele>8.75</ele><time>2026-05-03T08:57:14Z</time></trkpt><trkpt lat="37.92083557995844" lon="15.80416010045688"><ele>8.5</ele><time>2026-05-03T08:57:15Z</time></trkpt><trkpt lat="37.92083040711634" lon="15.803980516404854"><ele>8.25</ele><time>2026-05-03T08:57:16Z</time></trkpt><trkpt lat="37.92083040619198" lon="15.803816043445238"><ele>8.0</ele><time>2026-05-03T08:57:17Z</time></trkpt><trkpt lat="37.920837916057096" lon="15.80365881654189"><ele>7.999999999999999</ele><time>2026-05-03T08:57:18Z</time></trkpt><trkpt lat="37.920837948153384" lon="15.803525200747728"><ele>8.0</ele><time>2026-05-03T08:57:19Z</time></trkpt><trkpt lat="37.92084693505307" lon="15.803407068194119"><ele>8.0</ele><time>2026-05-03T08:57:20Z</time></trkpt><trkpt lat="37.92086191089102" lon="15.803307957504124"><ele>8.0</ele><time>2026-05-03T08:57:21Z</time></trkpt><trkpt lat="37.92090167214387" lon="15.803230153940804"><ele>7.999999999999999</ele><time>2026-05-03T08:57:22Z</time></trkpt><trkpt lat="37.92095734013692" lon="15.803172028098224"><ele>8.0</ele><time>2026-05-03T08:57:23Z</time></trkpt><trkpt lat="37.92097561993163" lon="15.803035412538444"><ele>9.0</ele><time>2026-05-03T08:57:25Z</time></trkpt><trkpt lat="37.92091817380003" lon="15.802940612635952"><ele>10.0</ele><time>2026-05-03T08:57:27Z</time></trkpt><trkpt lat="37.92088184019189" lon="15.802872621567623"><ele>11.0</ele><time>2026-05-03T08:57:28Z</time></trkpt><trkpt lat="37.92084777747705" lon="15.802783465879589"><ele>12.0</ele><time>2026-05-03T08:57:29Z</time></trkpt><trkpt lat="37.92082494777558" lon="15.80268192465855"><ele>13.0</ele><time>2026-05-03T08:57:30Z</time></trkpt><trkpt lat="37.92083325973191" lon="15.802503509366293"><ele>13.333333333333332</ele><time>2026-05-03T08:57:31Z</time></trkpt><trkpt lat="37.92082125533057" lon="15.802320721072745"><ele>13.666666666666668</ele><time>2026-05-03T08:57:32Z</time></trkpt><trkpt lat="37.92083725610284" lon="15.802077322775663"><ele>14.0</ele><time>2026-05-03T08:57:33Z</time></trkpt><trkpt lat="37.92084426819058" lon="15.801813642875095"><ele>15.0</ele><time>2026-05-03T08:57:34Z</time></trkpt><trkpt lat="37.92083499819538" lon="15.801526013143343"><ele>16.0</ele><time>2026-05-03T08:57:35Z</time></trkpt><trkpt lat="37.92083026961926" lon="15.801223235026269"><ele>17.0</ele><time>2026-05-03T08:57:36Z</time></trkpt><trkpt lat="37.9208210976467" lon="15.800898523525266"><ele>18.0</ele><time>2026-05-03T08:57:37Z</time></trkpt><trkpt lat="37.92081236188946" lon="15.800565599596672"><ele>18.0</ele><time>2026-05-03T08:57:38Z</time></trkpt><trkpt lat="37.92079527390304" lon="15.800214178396285"><ele>18.0</ele><time>2026-05-03T08:57:39Z</time></trkpt><trkpt lat="37.92077211823073" lon="15.799855549769237"><ele>18.0</ele><time>2026-05-03T08:57:40Z</time></trkpt><trkpt lat="37.92074975233996" lon="15.79948970369467"><ele>18.0</ele><time>2026-05-03T08:57:41Z</time></trkpt><trkpt lat="37.92073151167401" lon="15.799118012899305"><ele>18.0</ele><time>2026-05-03T08:57:42Z</time></trkpt><trkpt lat="37.92070812859052" lon="15.79874190674135"><ele>18.0</ele><time>2026-05-03T08:57:43Z</time></trkpt><trkpt lat="37.920684780175286" lon="15.798367893444256"><ele>18.5</ele><time>2026-05-03T08:57:44Z</time></trkpt><trkpt lat="37.920659903980784" lon="15.798011450609248"><ele>19.0</ele><time>2026-05-03T08:57:45Z</time></trkpt><trkpt lat="37.92064160021369" lon="15.797625296241957"><ele>20.0</ele><time>2026-05-03T08:57:46Z</time></trkpt><trkpt lat="37.920621489924464" lon="15.797251096810982"><ele>21.0</ele><time>2026-05-03T08:57:47Z</time></trkpt><trkpt lat="37.92059866785386" lon="15.796881351168349"><ele>23.0</ele><time>2026-05-03T08:57:48Z</time></trkpt><trkpt lat="37.92058287649273" lon="15.796518063560764"><ele>25.0</ele><time>2026-05-03T08:57:49Z</time></trkpt><trkpt lat="37.92056567236313" lon="15.796157715585398"><ele>27.5</ele><time>2026-05-03T08:57:50Z</time></trkpt><trkpt lat="37.92054172183207" lon="15.79580019725184"><ele>30.0</ele><time>2026-05-03T08:57:51Z</time></trkpt><trkpt lat="37.92052032150884" lon="15.795439450018272"><ele>29.5</ele><time>2026-05-03T08:57:52Z</time></trkpt><trkpt lat="37.920503404384114" lon="15.79508182049275"><ele>29.0</ele><time>2026-05-03T08:57:53Z</time></trkpt><trkpt lat="37.920497741052785" lon="15.794723807593028"><ele>29.0</ele><time>2026-05-03T08:57:54Z</time></trkpt><trkpt lat="37.92051231080474" lon="15.794360886535527"><ele>29.0</ele><time>2026-05-03T08:57:55Z</time></trkpt><trkpt lat="37.920575276550004" lon="15.794004912962688"><ele>29.0</ele><time>2026-05-03T08:57:56Z</time></trkpt><trkpt lat="37.92066156806567" lon="15.793646899717883"><ele>29.0</ele><time>2026-05-03T08:57:57Z</time></trkpt><trkpt lat="37.920775528783274" lon="15.79331342928354"><ele>27.5</ele><time>2026-05-03T08:57:58Z</time></trkpt><trkpt lat="37.920901370965005" lon="15.792984406900182"><ele>26.0</ele><time>2026-05-03T08:57:59Z</time></trkpt><trkpt lat="37.92103698092662" lon="15.79266541547563"><ele>26.0</ele><time>2026-05-03T08:58:00Z</time></trkpt><trkpt lat="37.92117349261367" lon="15.792352611588303"><ele>26.0</ele><time>2026-05-03T08:58:01Z</time></trkpt><trkpt lat="37.921299981322015" lon="15.792039149227126"><ele>21.5</ele><time>2026-05-03T08:58:02Z</time></trkpt><trkpt lat="37.921426209412424" lon="15.791722581673678"><ele>17.0</ele><time>2026-05-03T08:58:03Z</time></trkpt><trkpt lat="37.921553269686704" lon="15.791405702845026"><ele>17.0</ele><time>2026-05-03T08:58:04Z</time></trkpt><trkpt lat="37.92167891895565" lon="15.791095273109534"><ele>17.0</ele><time>2026-05-03T08:58:05Z</time></trkpt><trkpt lat="37.921802062730386" lon="15.790784006993162"><ele>18.0</ele><time>2026-05-03T08:58:06Z</time></trkpt><trkpt lat="37.921925209077735" lon="15.790481225263619"><ele>19.0</ele><time>2026-05-03T08:58:07Z</time></trkpt><trkpt lat="37.922047027699676" lon="15.790174094094155"><ele>20.0</ele><time>2026-05-03T08:58:08Z</time></trkpt><trkpt lat="37.92216898529326" lon="15.789869125697061"><ele>21.0</ele><time>2026-05-03T08:58:09Z</time></trkpt><trkpt lat="37.92229064737182" lon="15.789564059703487"><ele>21.0</ele><time>2026-05-03T08:58:10Z</time></trkpt><trkpt lat="37.9224076070617" lon="15.789266425626378"><ele>21.0</ele><time>2026-05-03T08:58:11Z</time></trkpt><trkpt lat="37.9225258774159" lon="15.788967639605733"><ele>22.5</ele><time>2026-05-03T08:58:12Z</time></trkpt><trkpt lat="37.92265009144079" lon="15.788673298734695"><ele>24.0</ele><time>2026-05-03T08:58:13Z</time></trkpt><trkpt lat="37.922770681699795" lon="15.788376258137957"><ele>25.0</ele><time>2026-05-03T08:58:14Z</time></trkpt><trkpt lat="37.92289076305803" lon="15.788084772871287"><ele>26.0</ele><time>2026-05-03T08:58:15Z</time></trkpt><trkpt lat="37.92300457816983" lon="15.787785404955116"><ele>29.5</ele><time>2026-05-03T08:58:16Z</time></trkpt><trkpt lat="37.92311653090276" lon="15.78748938404518"><ele>33.0</ele><time>2026-05-03T08:58:17Z</time></trkpt><trkpt lat="37.92321346758638" lon="15.787188413195471"><ele>33.0</ele><time>2026-05-03T08:58:18Z</time></trkpt><trkpt lat="37.92328949401465" lon="15.78688789185772"><ele>33.0</ele><time>2026-05-03T08:58:19Z</time></trkpt><trkpt lat="37.923358984742784" lon="15.786582319097434"><ele>45.5</ele><time>2026-05-03T08:58:20Z</time></trkpt><trkpt lat="37.92343634365443" lon="15.78627709929359"><ele>58.0</ele><time>2026-05-03T08:58:21.018Z</time></trkpt><trkpt lat="37.923513243194336" lon="15.78597736795425"><ele>69.0</ele><time>2026-05-03T08:58:22.019Z</time></trkpt><trkpt lat="37.9235905822718" lon="15.785672323712822"><ele>80.0</ele><time>2026-05-03T08:58:23.02Z</time></trkpt><trkpt lat="37.92366467646342" lon="15.78536986783098"><ele>90.5</ele><time>2026-05-03T08:58:24.019Z</time></trkpt><trkpt lat="37.92374155003069" lon="15.785066387296014"><ele>101.0</ele><time>2026-05-03T08:58:25.016Z</time></trkpt><trkpt lat="37.923818682408964" lon="15.784763452428903"><ele>66.0</ele><time>2026-05-03T08:58:26.016Z</time></trkpt><trkpt lat="37.92424083690897" lon="15.781915420681035"><ele>61.75</ele><time>2026-05-03T08:58:38.001Z</time></trkpt><trkpt lat="37.924277074788776" lon="15.781727912547886"><ele>57.5</ele><time>2026-05-03T08:58:39.001Z</time></trkpt><trkpt lat="37.92433406589973" lon="15.781567248918236"><ele>53.25</ele><time>2026-05-03T08:58:40.001Z</time></trkpt><trkpt lat="37.92439043528298" lon="15.78142020035253"><ele>49.0</ele><time>2026-05-03T08:58:41.001Z</time></trkpt><trkpt lat="37.92445484746674" lon="15.781300446709944"><ele>49.0</ele><time>2026-05-03T08:58:42.001Z</time></trkpt><trkpt lat="37.924517355016505" lon="15.781185827155477"><ele>49.0</ele><time>2026-05-03T08:58:43.001Z</time></trkpt><trkpt lat="37.92454955250242" lon="15.781046503760248"><ele>49.0</ele><time>2026-05-03T08:58:44.001Z</time></trkpt><trkpt lat="37.92452077288622" lon="15.7808910563508"><ele>49.0</ele><time>2026-05-03T08:58:45Z</time></trkpt><trkpt lat="37.92446802038224" lon="15.780729962986165"><ele>45.33333333333333</ele><time>2026-05-03T08:58:46Z</time></trkpt><trkpt lat="37.924440873173786" lon="15.780545458931801"><ele>41.666666666666664</ele><time>2026-05-03T08:58:47Z</time></trkpt><trkpt lat="37.92442131395591" lon="15.780339385891429"><ele>38.0</ele><time>2026-05-03T08:58:48Z</time></trkpt><trkpt lat="37.924395986523926" lon="15.780122499610883"><ele>37.33333333333333</ele><time>2026-05-03T08:58:49Z</time></trkpt><trkpt lat="37.924371234200095" lon="15.77989744374299"><ele>36.666666666666664</ele><time>2026-05-03T08:58:50Z</time></trkpt><trkpt lat="37.92433752650911" lon="15.779662222642632"><ele>36.0</ele><time>2026-05-03T08:58:51Z</time></trkpt><trkpt lat="37.92429458895622" lon="15.779427437933503"><ele>36.333333333333336</ele><time>2026-05-03T08:58:52Z</time></trkpt><trkpt lat="37.92422619891962" lon="15.77918936040268"><ele>36.66666666666667</ele><time>2026-05-03T08:58:53Z</time></trkpt><trkpt lat="37.92414245780735" lon="15.778951137015609"><ele>37.0</ele><time>2026-05-03T08:58:54Z</time></trkpt><trkpt lat="37.92405596437654" lon="15.778714204490646"><ele>38.333333333333336</ele><time>2026-05-03T08:58:55Z</time></trkpt><trkpt lat="37.92397070745591" lon="15.778478124775674"><ele>39.666666666666664</ele><time>2026-05-03T08:58:56Z</time></trkpt><trkpt lat="37.923815349440765" lon="15.778245062291706"><ele>41.0</ele><time>2026-05-03T08:58:57Z</time></trkpt><trkpt lat="37.92368347116698" lon="15.778006402274189"><ele>41.0</ele><time>2026-05-03T08:58:58Z</time></trkpt><trkpt lat="37.92355063698022" lon="15.777764268047166"><ele>41.0</ele><time>2026-05-03T08:58:59Z</time></trkpt><trkpt lat="37.92341612515107" lon="15.777517233268975"><ele>36.0</ele><time>2026-05-03T08:59:00Z</time></trkpt><trkpt lat="37.92327265767808" lon="15.777268872833877"><ele>31.0</ele><time>2026-05-03T08:59:01Z</time></trkpt><trkpt lat="37.92313365034014" lon="15.77700413707895"><ele>30.5</ele><time>2026-05-03T08:59:02Z</time></trkpt><trkpt lat="37.92299780849392" lon="15.776739296614007"><ele>30.0</ele><time>2026-05-03T08:59:03Z</time></trkpt><trkpt lat="37.92285929642384" lon="15.776464694058552"><ele>30.0</ele><time>2026-05-03T08:59:04Z</time></trkpt><trkpt lat="37.92272584179719" lon="15.77618336002123"><ele>30.0</ele><time>2026-05-03T08:59:05Z</time></trkpt><trkpt lat="37.92260551756761" lon="15.775888922001727"><ele>30.5</ele><time>2026-05-03T08:59:06Z</time></trkpt><trkpt lat="37.92250451852237" lon="15.77558522599628"><ele>31.0</ele><time>2026-05-03T08:59:07Z</time></trkpt><trkpt lat="37.92243019743694" lon="15.775257794869258"><ele>33.5</ele><time>2026-05-03T08:59:08Z</time></trkpt><trkpt lat="37.92239414957624" lon="15.77491169876661"><ele>36.0</ele><time>2026-05-03T08:59:09Z</time></trkpt><trkpt lat="37.922387204741156" lon="15.774544862710062"><ele>34.0</ele><time>2026-05-03T08:59:10Z</time></trkpt><trkpt lat="37.922402025545956" lon="15.774167846087279"><ele>32.0</ele><time>2026-05-03T08:59:11Z</time></trkpt><trkpt lat="37.922421015363504" lon="15.773789273698585"><ele>31.0</ele><time>2026-05-03T08:59:12Z</time></trkpt><trkpt lat="37.922457095175666" lon="15.773412476333487"><ele>30.0</ele><time>2026-05-03T08:59:13Z</time></trkpt><trkpt lat="37.92249288380225" lon="15.773029894225958"><ele>29.5</ele><time>2026-05-03T08:59:14Z</time></trkpt><trkpt lat="37.922525598998995" lon="15.772647091814113"><ele>29.0</ele><time>2026-05-03T08:59:15Z</time></trkpt><trkpt lat="37.92255126502866" lon="15.772274785250909"><ele>30.0</ele><time>2026-05-03T08:59:16Z</time></trkpt><trkpt lat="37.92256544730816" lon="15.771888598246418"><ele>31.0</ele><time>2026-05-03T08:59:17Z</time></trkpt><trkpt lat="37.92256462466262" lon="15.771505935679562"><ele>28.0</ele><time>2026-05-03T08:59:18Z</time></trkpt><trkpt lat="37.922540301353145" lon="15.77113150105772"><ele>25.0</ele><time>2026-05-03T08:59:19Z</time></trkpt><trkpt lat="37.92250896979084" lon="15.770733698079884"><ele>23.5</ele><time>2026-05-03T08:59:20Z</time></trkpt><trkpt lat="37.92247511841068" lon="15.770343156434539"><ele>22.0</ele><time>2026-05-03T08:59:21Z</time></trkpt><trkpt lat="37.922445334628165" lon="15.769951945081996"><ele>22.0</ele><time>2026-05-03T08:59:22Z</time></trkpt><trkpt lat="37.92242526493104" lon="15.769566371337147"><ele>22.0</ele><time>2026-05-03T08:59:23Z</time></trkpt><trkpt lat="37.922400623907706" lon="15.769184747380464"><ele>24.5</ele><time>2026-05-03T08:59:24Z</time></trkpt><trkpt lat="37.92237618345204" lon="15.768802497843794"><ele>27.0</ele><time>2026-05-03T08:59:25Z</time></trkpt><trkpt lat="37.92235215410497" lon="15.768422193006964"><ele>30.0</ele><time>2026-05-03T08:59:26Z</time></trkpt><trkpt lat="37.92233467120562" lon="15.768043055326698"><ele>33.0</ele><time>2026-05-03T08:59:27Z</time></trkpt><trkpt lat="37.92234448381313" lon="15.767661435467753"><ele>33.0</ele><time>2026-05-03T08:59:28Z</time></trkpt><trkpt lat="37.92239132471677" lon="15.767281912382765"><ele>33.0</ele><time>2026-05-03T08:59:29Z</time></trkpt><trkpt lat="37.92248700417245" lon="15.766915711751496"><ele>36.5</ele><time>2026-05-03T08:59:30Z</time></trkpt><trkpt lat="37.922576629952566" lon="15.76654978262414"><ele>40.0</ele><time>2026-05-03T08:59:31Z</time></trkpt><trkpt lat="37.92267255583308" lon="15.766192230599389"><ele>38.0</ele><time>2026-05-03T08:59:32Z</time></trkpt><trkpt lat="37.92280418291409" lon="15.765825939288671"><ele>36.0</ele><time>2026-05-03T08:59:33Z</time></trkpt><trkpt lat="37.92291269451057" lon="15.765476096803347"><ele>34.5</ele><time>2026-05-03T08:59:34Z</time></trkpt><trkpt lat="37.923016918880904" lon="15.765123741520531"><ele>33.0</ele><time>2026-05-03T08:59:35Z</time></trkpt><trkpt lat="37.923114064510145" lon="15.764768391225351"><ele>33.0</ele><time>2026-05-03T08:59:36Z</time></trkpt><trkpt lat="37.923211221516254" lon="15.76441568322992"><ele>33.0</ele><time>2026-05-03T08:59:37Z</time></trkpt><trkpt lat="37.92331829714789" lon="15.764060134404303"><ele>36.5</ele><time>2026-05-03T08:59:38Z</time></trkpt><trkpt lat="37.92340339911947" lon="15.763741520334571"><ele>40.0</ele><time>2026-05-03T08:59:39Z</time></trkpt><trkpt lat="37.92351005879006" lon="15.763409829818922"><ele>40.0</ele><time>2026-05-03T08:59:40Z</time></trkpt><trkpt lat="37.92363417425433" lon="15.76309791713197"><ele>40.0</ele><time>2026-05-03T08:59:41Z</time></trkpt><trkpt lat="37.9237916823823" lon="15.762777438963063"><ele>36.0</ele><time>2026-05-03T08:59:42Z</time></trkpt><trkpt lat="37.9239496103232" lon="15.762473607729628"><ele>32.0</ele><time>2026-05-03T08:59:43Z</time></trkpt><trkpt lat="37.924098879183354" lon="15.762195918855964"><ele>32.0</ele><time>2026-05-03T08:59:44Z</time></trkpt><trkpt lat="37.92424410209479" lon="15.761895364573617"><ele>32.0</ele><time>2026-05-03T08:59:45Z</time></trkpt><trkpt lat="37.92442991586616" lon="15.761603285591422"><ele>31.0</ele><time>2026-05-03T08:59:46Z</time></trkpt><trkpt lat="37.9245893996165" lon="15.761306671329248"><ele>30.0</ele><time>2026-05-03T08:59:47Z</time></trkpt><trkpt lat="37.924739898788395" lon="15.761007471693977"><ele>30.0</ele><time>2026-05-03T08:59:48Z</time></trkpt><trkpt lat="37.924903390997216" lon="15.760717605095227"><ele>30.0</ele><time>2026-05-03T08:59:49Z</time></trkpt><trkpt lat="37.92506429119187" lon="15.760429630131455"><ele>31.5</ele><time>2026-05-03T08:59:50Z</time></trkpt><trkpt lat="37.92521698957919" lon="15.760138361806673"><ele>33.0</ele><time>2026-05-03T08:59:51Z</time></trkpt><trkpt lat="37.92536832847726" lon="15.759846096810554"><ele>33.0</ele><time>2026-05-03T08:59:52Z</time></trkpt><trkpt lat="37.92552129463395" lon="15.759562067701193"><ele>33.0</ele><time>2026-05-03T08:59:53Z</time></trkpt><trkpt lat="37.92567675994166" lon="15.759272492980056"><ele>32.5</ele><time>2026-05-03T08:59:54Z</time></trkpt><trkpt lat="37.925831651409965" lon="15.75899093957103"><ele>32.0</ele><time>2026-05-03T08:59:55Z</time></trkpt><trkpt lat="37.92598636520186" lon="15.75870895778687"><ele>33.5</ele><time>2026-05-03T08:59:56Z</time></trkpt><trkpt lat="37.926136516222776" lon="15.758424370565665"><ele>35.0</ele><time>2026-05-03T08:59:57Z</time></trkpt><trkpt lat="37.92628527901031" lon="15.758139994181976"><ele>35.0</ele><time>2026-05-03T08:59:58Z</time></trkpt><trkpt lat="37.92643541652703" lon="15.757850780647134"><ele>35.0</ele><time>2026-05-03T08:59:59Z</time></trkpt><trkpt lat="37.92658871270418" lon="15.757564821036246"><ele>35.5</ele><time>2026-05-03T09:00:00Z</time></trkpt><trkpt lat="37.92674569008748" lon="15.757280679532395"><ele>36.0</ele><time>2026-05-03T09:00:01Z</time></trkpt><trkpt lat="37.9268982137524" lon="15.756994579167303"><ele>35.0</ele><time>2026-05-03T09:00:02Z</time></trkpt><trkpt lat="37.927052911675695" lon="15.756704854985756"><ele>34.0</ele><time>2026-05-03T09:00:03Z</time></trkpt><trkpt lat="37.92720801883459" lon="15.756414559556683"><ele>34.0</ele><time>2026-05-03T09:00:04Z</time></trkpt><trkpt lat="37.9273571258892" lon="15.75612213511257"><ele>34.0</ele><time>2026-05-03T09:00:05Z</time></trkpt><trkpt lat="37.92749581287902" lon="15.755816095443071"><ele>35.0</ele><time>2026-05-03T09:00:06Z</time></trkpt><trkpt lat="37.927630639437574" lon="15.755505504878718"><ele>36.0</ele><time>2026-05-03T09:00:07Z</time></trkpt><trkpt lat="37.927763357911495" lon="15.755192879905321"><ele>36.0</ele><time>2026-05-03T09:00:08Z</time></trkpt><trkpt lat="37.927896124369305" lon="15.754880973641702"><ele>36.0</ele><time>2026-05-03T09:00:09Z</time></trkpt><trkpt lat="37.92802730207717" lon="15.754565577508838"><ele>35.0</ele><time>2026-05-03T09:00:10Z</time></trkpt><trkpt lat="37.92816363461165" lon="15.754257257499393"><ele>34.0</ele><time>2026-05-03T09:00:11Z</time></trkpt><trkpt lat="37.92829841843051" lon="15.75393277200872"><ele>37.5</ele><time>2026-05-03T09:00:12Z</time></trkpt><trkpt lat="37.928439528952524" lon="15.753622169894433"><ele>41.0</ele><time>2026-05-03T09:00:13.001Z</time></trkpt><trkpt lat="37.92857137074214" lon="15.753301407709092"><ele>41.0</ele><time>2026-05-03T09:00:14.001Z</time></trkpt><trkpt lat="37.928707079086664" lon="15.752983335131772"><ele>41.0</ele><time>2026-05-03T09:00:15.001Z</time></trkpt><trkpt lat="37.92884317507878" lon="15.752667331161792"><ele>38.5</ele><time>2026-05-03T09:00:16.001Z</time></trkpt><trkpt lat="37.92897505367119" lon="15.752354280169227"><ele>36.0</ele><time>2026-05-03T09:00:17.001Z</time></trkpt><trkpt lat="37.92910861794559" lon="15.75203982547189"><ele>35.0</ele><time>2026-05-03T09:00:18.001Z</time></trkpt><trkpt lat="37.92924274283716" lon="15.751728922729576"><ele>34.0</ele><time>2026-05-03T09:00:19.001Z</time></trkpt><trkpt lat="37.92936810727816" lon="15.751418233072318"><ele>34.0</ele><time>2026-05-03T09:00:20.001Z</time></trkpt><trkpt lat="37.92948881276897" lon="15.751109987831173"><ele>34.0</ele><time>2026-05-03T09:00:21.001Z</time></trkpt><trkpt lat="37.92960439033694" lon="15.750809408139494"><ele>33.0</ele><time>2026-05-03T09:00:22.001Z</time></trkpt><trkpt lat="37.92971025760625" lon="15.750491388523956"><ele>32.0</ele><time>2026-05-03T09:00:23.001Z</time></trkpt><trkpt lat="37.92980353057667" lon="15.750179046321076"><ele>31.5</ele><time>2026-05-03T09:00:24.001Z</time></trkpt><trkpt lat="37.92988818070753" lon="15.749864847788563"><ele>31.0</ele><time>2026-05-03T09:00:25.001Z</time></trkpt><trkpt lat="37.929965477765315" lon="15.749550888216218"><ele>31.0</ele><time>2026-05-03T09:00:26.001Z</time></trkpt><trkpt lat="37.93003765957038" lon="15.749250416609511"><ele>31.0</ele><time>2026-05-03T09:00:27.001Z</time></trkpt><trkpt lat="37.93009993274919" lon="15.748968318839122"><ele>32.0</ele><time>2026-05-03T09:00:28.001Z</time></trkpt><trkpt lat="37.930156566833595" lon="15.748696401586166"><ele>33.0</ele><time>2026-05-03T09:00:29.001Z</time></trkpt><trkpt lat="37.93020966239105" lon="15.7484367671068"><ele>34.0</ele><time>2026-05-03T09:00:30.001Z</time></trkpt><trkpt lat="37.93026713540474" lon="15.748180067398636"><ele>34.0</ele><time>2026-05-03T09:00:31.001Z</time></trkpt><trkpt lat="37.930331238183804" lon="15.747921749788667"><ele>34.0</ele><time>2026-05-03T09:00:32.001Z</time></trkpt><trkpt lat="37.93039676928431" lon="15.74766970880364"><ele>34.0</ele><time>2026-05-03T09:00:33.001Z</time></trkpt><trkpt lat="37.93045869690872" lon="15.74742065244377"><ele>33.0</ele><time>2026-05-03T09:00:34.001Z</time></trkpt><trkpt lat="37.930517126859286" lon="15.747172714651418"><ele>32.0</ele><time>2026-05-03T09:00:35.001Z</time></trkpt><trkpt lat="37.930572628868944" lon="15.746923701575758"><ele>31.0</ele><time>2026-05-03T09:00:36.001Z</time></trkpt><trkpt lat="37.93063008966694" lon="15.74667713850912"><ele>30.666666666666668</ele><time>2026-05-03T09:00:37.001Z</time></trkpt><trkpt lat="37.930683862750335" lon="15.746435379853798"><ele>30.333333333333336</ele><time>2026-05-03T09:00:38.001Z</time></trkpt><trkpt lat="37.93074054809053" lon="15.746199365931295"><ele>30.0</ele><time>2026-05-03T09:00:39.001Z</time></trkpt><trkpt lat="37.930795211384435" lon="15.745960471554987"><ele>30.0</ele><time>2026-05-03T09:00:40.001Z</time></trkpt><trkpt lat="37.930850025567565" lon="15.745726057744019"><ele>30.0</ele><time>2026-05-03T09:00:41.001Z</time></trkpt><trkpt lat="37.93090557859122" lon="15.74549603185473"><ele>30.0</ele><time>2026-05-03T09:00:42.001Z</time></trkpt><trkpt lat="37.93095809851322" lon="15.745270599434111"><ele>29.0</ele><time>2026-05-03T09:00:43.001Z</time></trkpt><trkpt lat="37.931005845776134" lon="15.74505826438251"><ele>28.0</ele><time>2026-05-03T09:00:44.001Z</time></trkpt><trkpt lat="37.931052813236946" lon="15.744855198415372"><ele>27.0</ele><time>2026-05-03T09:00:45.001Z</time></trkpt><trkpt lat="37.93109894907341" lon="15.744669619019"><ele>27.0</ele><time>2026-05-03T09:00:46.001Z</time></trkpt><trkpt lat="37.931136243551606" lon="15.744511886778753"><ele>27.0</ele><time>2026-05-03T09:00:47.001Z</time></trkpt><trkpt lat="37.93116620223184" lon="15.744363582343565"><ele>27.0</ele><time>2026-05-03T09:00:48.001Z</time></trkpt><trkpt lat="37.931196080955914" lon="15.744200761802684"><ele>27.0</ele><time>2026-05-03T09:00:49.001Z</time></trkpt><trkpt lat="37.931232321991985" lon="15.744026161691844"><ele>27.0</ele><time>2026-05-03T09:00:50.001Z</time></trkpt><trkpt lat="37.93126717156208" lon="15.74385803607202"><ele>27.0</ele><time>2026-05-03T09:00:51Z</time></trkpt><trkpt lat="37.931313169946485" lon="15.743676695541414"><ele>27.0</ele><time>2026-05-03T09:00:52Z</time></trkpt><trkpt lat="37.931368767119615" lon="15.743468800562017"><ele>28.0</ele><time>2026-05-03T09:00:53Z</time></trkpt><trkpt lat="37.93142620307195" lon="15.743258465030037"><ele>29.0</ele><time>2026-05-03T09:00:54Z</time></trkpt><trkpt lat="37.931478948236226" lon="15.743041519972174"><ele>30.0</ele><time>2026-05-03T09:00:55Z</time></trkpt><trkpt lat="37.931529577478386" lon="15.742819423896844"><ele>30.333333333333336</ele><time>2026-05-03T09:00:56Z</time></trkpt><trkpt lat="37.93158180590796" lon="15.742594881240668"><ele>30.666666666666668</ele><time>2026-05-03T09:00:57Z</time></trkpt><trkpt lat="37.931637043584104" lon="15.74236218136592"><ele>31.0</ele><time>2026-05-03T09:00:58Z</time></trkpt><trkpt lat="37.931689952480546" lon="15.742126803956515"><ele>32.0</ele><time>2026-05-03T09:00:59Z</time></trkpt><trkpt lat="37.93174337515981" lon="15.741902871583067"><ele>33.0</ele><time>2026-05-03T09:01:00Z</time></trkpt><trkpt lat="37.93179121243731" lon="15.74169609058969"><ele>34.0</ele><time>2026-05-03T09:01:01Z</time></trkpt><trkpt lat="37.93184058642296" lon="15.741505783091403"><ele>34.0</ele><time>2026-05-03T09:01:02Z</time></trkpt><trkpt lat="37.93189374528851" lon="15.741322590560657"><ele>34.0</ele><time>2026-05-03T09:01:03Z</time></trkpt><trkpt lat="37.931933288703775" lon="15.741160652366155"><ele>34.0</ele><time>2026-05-03T09:01:04Z</time></trkpt><trkpt lat="37.93197371693399" lon="15.741011497812506"><ele>34.0</ele><time>2026-05-03T09:01:05Z</time></trkpt><trkpt lat="37.93202359736256" lon="15.740876736308921"><ele>33.6</ele><time>2026-05-03T09:01:06Z</time></trkpt><trkpt lat="37.93209224706429" lon="15.740767653269684"><ele>33.2</ele><time>2026-05-03T09:01:07Z</time></trkpt><trkpt lat="37.932177052946855" lon="15.740686435678684"><ele>32.800000000000004</ele><time>2026-05-03T09:01:08Z</time></trkpt><trkpt lat="37.932278576499705" lon="15.74062516156495"><ele>32.4</ele><time>2026-05-03T09:01:09Z</time></trkpt><trkpt lat="37.93236628415863" lon="15.740604813237079"><ele>32.0</ele><time>2026-05-03T09:01:10Z</time></trkpt><trkpt lat="37.932455056886205" lon="15.740613258176543"><ele>32.0</ele><time>2026-05-03T09:01:11Z</time></trkpt><trkpt lat="37.93254790174969" lon="15.740645811138561"><ele>32.0</ele><time>2026-05-03T09:01:12Z</time></trkpt><trkpt lat="37.932647459182256" lon="15.740704841858879"><ele>32.0</ele><time>2026-05-03T09:01:13Z</time></trkpt><trkpt lat="37.9327309682108" lon="15.740800214839881"><ele>32.0</ele><time>2026-05-03T09:01:14Z</time></trkpt><trkpt lat="37.93281254830252" lon="15.74087802631823"><ele>32.0</ele><time>2026-05-03T09:01:15Z</time></trkpt><trkpt lat="37.93292071573426" lon="15.740891440865946"><ele>34.25</ele><time>2026-05-03T09:01:16Z</time></trkpt><trkpt lat="37.93304626034713" lon="15.740827380910908"><ele>36.5</ele><time>2026-05-03T09:01:17Z</time></trkpt><trkpt lat="37.93317054418392" lon="15.74073666727938"><ele>38.75</ele><time>2026-05-03T09:01:18Z</time></trkpt><trkpt lat="37.93329552771774" lon="15.74064030610085"><ele>41.0</ele><time>2026-05-03T09:01:19Z</time></trkpt><trkpt lat="37.933421090411166" lon="15.740548480689114"><ele>44.25</ele><time>2026-05-03T09:01:20Z</time></trkpt><trkpt lat="37.933546799699336" lon="15.740467682710454"><ele>47.5</ele><time>2026-05-03T09:01:21Z</time></trkpt><trkpt lat="37.933669679020255" lon="15.74039957619677"><ele>50.75</ele><time>2026-05-03T09:01:22Z</time></trkpt><trkpt lat="37.93379471783862" lon="15.740354699277527"><ele>54.0</ele><time>2026-05-03T09:01:23Z</time></trkpt><trkpt lat="37.93393533426515" lon="15.740344166481924"><ele>54.0</ele><time>2026-05-03T09:01:24Z</time></trkpt><trkpt lat="37.934059913051705" lon="15.740384861548216"><ele>54.0</ele><time>2026-05-03T09:01:25Z</time></trkpt><trkpt lat="37.93420861244874" lon="15.740452362777022"><ele>54.0</ele><time>2026-05-03T09:01:26Z</time></trkpt><trkpt lat="37.93435241332297" lon="15.740521640893247"><ele>54.0</ele><time>2026-05-03T09:01:27Z</time></trkpt><trkpt lat="37.93448723805764" lon="15.74061557963955"><ele>56.75</ele><time>2026-05-03T09:01:28Z</time></trkpt><trkpt lat="37.93461569837965" lon="15.740692561623138"><ele>59.5</ele><time>2026-05-03T09:01:29Z</time></trkpt><trkpt lat="37.93475772249286" lon="15.740744040461001"><ele>62.25</ele><time>2026-05-03T09:01:30Z</time></trkpt><trkpt lat="37.934889264550904" lon="15.740740751147872"><ele>65.0</ele><time>2026-05-03T09:01:31Z</time></trkpt><trkpt lat="37.93502853436292" lon="15.740687559779467"><ele>68.0</ele><time>2026-05-03T09:01:32Z</time></trkpt><trkpt lat="37.93513017757579" lon="15.740583769810026"><ele>71.0</ele><time>2026-05-03T09:01:33Z</time></trkpt><trkpt lat="37.935207184396916" lon="15.7404475149342"><ele>74.0</ele><time>2026-05-03T09:01:34Z</time></trkpt><trkpt lat="37.93523198000731" lon="15.740264438195403"><ele>77.0</ele><time>2026-05-03T09:01:35Z</time></trkpt><trkpt lat="37.93527389600428" lon="15.740073415166759"><ele>77.0</ele><time>2026-05-03T09:01:36Z</time></trkpt><trkpt lat="37.935301047092494" lon="15.739871737455854"><ele>77.0</ele><time>2026-05-03T09:01:37Z</time></trkpt><trkpt lat="37.93533593057297" lon="15.739669213633938"><ele>77.0</ele><time>2026-05-03T09:01:38Z</time></trkpt><trkpt lat="37.9353653643297" lon="15.739472350755742"><ele>76.0</ele><time>2026-05-03T09:01:39Z</time></trkpt><trkpt lat="37.9353956113193" lon="15.73928611904519"><ele>75.0</ele><time>2026-05-03T09:01:40Z</time></trkpt><trkpt lat="37.935433650751946" lon="15.739117596535964"><ele>74.0</ele><time>2026-05-03T09:01:41Z</time></trkpt><trkpt lat="37.935473075088524" lon="15.73900691578317"><ele>73.0</ele><time>2026-05-03T09:01:43Z</time></trkpt><trkpt lat="37.93560168084388" lon="15.739008443360408"><ele>73.0</ele><time>2026-05-03T09:01:45Z</time></trkpt><trkpt lat="37.93570130012238" lon="15.739001115241566"><ele>73.0</ele><time>2026-05-03T09:01:46Z</time></trkpt><trkpt lat="37.93580899190237" lon="15.739017475795142"><ele>73.0</ele><time>2026-05-03T09:01:47Z</time></trkpt><trkpt lat="37.935917829233254" lon="15.739023983139663"><ele>73.0</ele><time>2026-05-03T09:01:48Z</time></trkpt><trkpt lat="37.936026217171054" lon="15.739021182489102"><ele>73.0</ele><time>2026-05-03T09:01:49Z</time></trkpt><trkpt lat="37.936107260837815" lon="15.738970124479486"><ele>75.5</ele><time>2026-05-03T09:01:50Z</time></trkpt><trkpt lat="37.93614338528354" lon="15.738844911260255"><ele>78.0</ele><time>2026-05-03T09:01:51Z</time></trkpt><trkpt lat="37.936155831918015" lon="15.738687094430086"><ele>80.5</ele><time>2026-05-03T09:01:52Z</time></trkpt><trkpt lat="37.9361491543778" lon="15.738514239346586"><ele>83.0</ele><time>2026-05-03T09:01:53Z</time></trkpt><trkpt lat="37.93614690880327" lon="15.738345301564005"><ele>83.0</ele><time>2026-05-03T09:01:54Z</time></trkpt><trkpt lat="37.93617347325028" lon="15.738183235570446"><ele>83.0</ele><time>2026-05-03T09:01:55Z</time></trkpt><trkpt lat="37.936255932211274" lon="15.738045929344764"><ele>83.0</ele><time>2026-05-03T09:01:56Z</time></trkpt><trkpt lat="37.93635266733249" lon="15.737916358893576"><ele>83.0</ele><time>2026-05-03T09:01:57Z</time></trkpt><trkpt lat="37.93644887772508" lon="15.737781485478793"><ele>82.75</ele><time>2026-05-03T09:01:58Z</time></trkpt><trkpt lat="37.93655355520369" lon="15.737657809136868"><ele>82.5</ele><time>2026-05-03T09:01:59Z</time></trkpt><trkpt lat="37.93665072682251" lon="15.737532134640077"><ele>82.25</ele><time>2026-05-03T09:02:00Z</time></trkpt><trkpt lat="37.93672026288355" lon="15.737383276883769"><ele>82.0</ele><time>2026-05-03T09:02:01Z</time></trkpt><trkpt lat="37.93675618310112" lon="15.737199773461297"><ele>85.66666666666666</ele><time>2026-05-03T09:02:02Z</time></trkpt><trkpt lat="37.93675414769015" lon="15.736988935838744"><ele>89.33333333333333</ele><time>2026-05-03T09:02:03Z</time></trkpt><trkpt lat="37.936745148298655" lon="15.736777317081556"><ele>93.0</ele><time>2026-05-03T09:02:04Z</time></trkpt><trkpt lat="37.936745905659706" lon="15.736563106899986"><ele>93.0</ele><time>2026-05-03T09:02:05Z</time></trkpt><trkpt lat="37.9367556468065" lon="15.736363921082726"><ele>93.0</ele><time>2026-05-03T09:02:06Z</time></trkpt><trkpt lat="37.93676977777175" lon="15.73619755911539"><ele>93.0</ele><time>2026-05-03T09:02:07Z</time></trkpt><trkpt lat="37.93678913000998" lon="15.736062962291873"><ele>93.0</ele><time>2026-05-03T09:02:08.001Z</time></trkpt><trkpt lat="37.93682924317346" lon="15.73594675879316"><ele>93.0</ele><time>2026-05-03T09:02:09.001Z</time></trkpt><trkpt lat="37.93691736413256" lon="15.735876583424842"><ele>93.0</ele><time>2026-05-03T09:02:10.001Z</time></trkpt><trkpt lat="37.93701397537875" lon="15.735839029157448"><ele>93.0</ele><time>2026-05-03T09:02:11.001Z</time></trkpt><trkpt lat="37.93712657893633" lon="15.735879451986232"><ele>93.0</ele><time>2026-05-03T09:02:12.001Z</time></trkpt><trkpt lat="37.9372283083793" lon="15.735959973779295"><ele>93.0</ele><time>2026-05-03T09:02:13.001Z</time></trkpt><trkpt lat="37.93729224385016" lon="15.736074202677598"><ele>93.0</ele><time>2026-05-03T09:02:14.001Z</time></trkpt><trkpt lat="37.93733624910274" lon="15.73624187636373"><ele>93.0</ele><time>2026-05-03T09:02:15.001Z</time></trkpt><trkpt lat="37.93737886801076" lon="15.736413468253238"><ele>93.0</ele><time>2026-05-03T09:02:16.001Z</time></trkpt><trkpt lat="37.93741336532615" lon="15.736613406277947"><ele>93.0</ele><time>2026-05-03T09:02:17.001Z</time></trkpt><trkpt lat="37.937470155503384" lon="15.736789916954717"><ele>94.66666666666666</ele><time>2026-05-03T09:02:18.001Z</time></trkpt><trkpt lat="37.937554467715024" lon="15.73695734949308"><ele>96.33333333333333</ele><time>2026-05-03T09:02:19.001Z</time></trkpt><trkpt lat="37.93766306804779" lon="15.737114737579951"><ele>98.0</ele><time>2026-05-03T09:02:20.001Z</time></trkpt><trkpt lat="37.93776174550882" lon="15.73725956189514"><ele>98.0</ele><time>2026-05-03T09:02:21.001Z</time></trkpt><trkpt lat="37.937846989440175" lon="15.737386104006928"><ele>98.0</ele><time>2026-05-03T09:02:22.001Z</time></trkpt><trkpt lat="37.93794050370972" lon="15.737504831833817"><ele>98.0</ele><time>2026-05-03T09:02:23.001Z</time></trkpt><trkpt lat="37.938060693912995" lon="15.737569033737064"><ele>98.0</ele><time>2026-05-03T09:02:24.001Z</time></trkpt><trkpt lat="37.93818898413281" lon="15.737605399294111"><ele>98.0</ele><time>2026-05-03T09:02:25.001Z</time></trkpt><trkpt lat="37.93833685055762" lon="15.737640710822408"><ele>98.0</ele><time>2026-05-03T09:02:26.001Z</time></trkpt><trkpt lat="37.9384621335376" lon="15.737680156039511"><ele>98.0</ele><time>2026-05-03T09:02:27.001Z</time></trkpt><trkpt lat="37.938555593623384" lon="15.737772304614266"><ele>98.0</ele><time>2026-05-03T09:02:28.001Z</time></trkpt><trkpt lat="37.938617423591964" lon="15.737887293881995"><ele>104.25</ele><time>2026-05-03T09:02:29.001Z</time></trkpt><trkpt lat="37.938648773733775" lon="15.738038772140946"><ele>110.5</ele><time>2026-05-03T09:02:30.001Z</time></trkpt><trkpt lat="37.93864919695012" lon="15.738212076474428"><ele>116.75</ele><time>2026-05-03T09:02:31.001Z</time></trkpt><trkpt lat="37.938612651524735" lon="15.738394263214166"><ele>123.0</ele><time>2026-05-03T09:02:32.001Z</time></trkpt><trkpt lat="37.93857595881998" lon="15.738600070586077"><ele>123.33333333333334</ele><time>2026-05-03T09:02:33.001Z</time></trkpt><trkpt lat="37.93851232233539" lon="15.738804106589548"><ele>123.66666666666667</ele><time>2026-05-03T09:02:34.001Z</time></trkpt><trkpt lat="37.93845849058608" lon="15.739013058144245"><ele>124.0</ele><time>2026-05-03T09:02:35.001Z</time></trkpt><trkpt lat="37.93840229783603" lon="15.73922579454688"><ele>119.75</ele><time>2026-05-03T09:02:36.001Z</time></trkpt><trkpt lat="37.938341413474454" lon="15.739422683433409"><ele>115.5</ele><time>2026-05-03T09:02:37.001Z</time></trkpt><trkpt lat="37.93828358932365" lon="15.73959599913337"><ele>111.25</ele><time>2026-05-03T09:02:38.001Z</time></trkpt><trkpt lat="37.93823559565646" lon="15.73974271150731"><ele>107.0</ele><time>2026-05-03T09:02:39.001Z</time></trkpt><trkpt lat="37.93820621652383" lon="15.739872333890906"><ele>107.0</ele><time>2026-05-03T09:02:40.001Z</time></trkpt><trkpt lat="37.938198565382244" lon="15.739992501183176"><ele>106.99999999999999</ele><time>2026-05-03T09:02:41.001Z</time></trkpt><trkpt lat="37.938239129275495" lon="15.74009155149936"><ele>106.99999999999999</ele><time>2026-05-03T09:02:42.001Z</time></trkpt><trkpt lat="37.93831568178984" lon="15.740185239628511"><ele>107.0</ele><time>2026-05-03T09:02:43.001Z</time></trkpt><trkpt lat="37.93842551066687" lon="15.740229593707937"><ele>107.0</ele><time>2026-05-03T09:02:44.001Z</time></trkpt><trkpt lat="37.93853929963694" lon="15.740189306067792"><ele>110.75</ele><time>2026-05-03T09:02:45.001Z</time></trkpt><trkpt lat="37.93864540844567" lon="15.740058188444575"><ele>114.5</ele><time>2026-05-03T09:02:46.001Z</time></trkpt><trkpt lat="37.938763698282855" lon="15.739944194310647"><ele>118.25</ele><time>2026-05-03T09:02:47.001Z</time></trkpt><trkpt lat="37.93888930943352" lon="15.739852373511685"><ele>122.0</ele><time>2026-05-03T09:02:48.001Z</time></trkpt><trkpt lat="37.93904120252732" lon="15.739800933658588"><ele>122.0</ele><time>2026-05-03T09:02:49.001Z</time></trkpt><trkpt lat="37.93918870152076" lon="15.739805337568994"><ele>122.0</ele><time>2026-05-03T09:02:50.001Z</time></trkpt><trkpt lat="37.93930253877832" lon="15.739812732018471"><ele>122.0</ele><time>2026-05-03T09:02:51.001Z</time></trkpt><trkpt lat="37.93937161841688" lon="15.739916653684848"><ele>122.0</ele><time>2026-05-03T09:02:52.001Z</time></trkpt><trkpt lat="37.93940705654754" lon="15.740042608714859"><ele>125.25</ele><time>2026-05-03T09:02:53.001Z</time></trkpt><trkpt lat="37.9394608689897" lon="15.740192385951703"><ele>128.5</ele><time>2026-05-03T09:02:54.001Z</time></trkpt><trkpt lat="37.93949369018096" lon="15.740372295263164"><ele>131.75</ele><time>2026-05-03T09:02:55.001Z</time></trkpt><trkpt lat="37.93953651498344" lon="15.740541534583922"><ele>135.0</ele><time>2026-05-03T09:02:56.001Z</time></trkpt><trkpt lat="37.93950159785751" lon="15.740674434426738"><ele>135.0</ele><time>2026-05-03T09:02:57Z</time></trkpt><trkpt lat="37.93945608983542" lon="15.740780144795881"><ele>135.0</ele><time>2026-05-03T09:02:58Z</time></trkpt><trkpt lat="37.93937273179462" lon="15.740881522051714"><ele>135.0</ele><time>2026-05-03T09:02:59Z</time></trkpt><trkpt lat="37.93928514382579" lon="15.741030893502291"><ele>135.0</ele><time>2026-05-03T09:03:00Z</time></trkpt><trkpt lat="37.9391792732966" lon="15.741166139988577"><ele>134.66666666666666</ele><time>2026-05-03T09:03:01Z</time></trkpt><trkpt lat="37.93907268120979" lon="15.741317161622925"><ele>134.33333333333331</ele><time>2026-05-03T09:03:02Z</time></trkpt><trkpt lat="37.93895728107396" lon="15.741459281363941"><ele>134.0</ele><time>2026-05-03T09:03:03Z</time></trkpt><trkpt lat="37.93886966355149" lon="15.741636424728034"><ele>134.0</ele><time>2026-05-03T09:03:04Z</time></trkpt><trkpt lat="37.93879012733549" lon="15.741796100643027"><ele>134.0</ele><time>2026-05-03T09:03:05Z</time></trkpt><trkpt lat="37.93873389541226" lon="15.74197107207104"><ele>134.0</ele><time>2026-05-03T09:03:06Z</time></trkpt><trkpt lat="37.9387015663626" lon="15.742184867279105"><ele>138.0</ele><time>2026-05-03T09:03:07Z</time></trkpt><trkpt lat="37.93869385074364" lon="15.742422863945258"><ele>142.0</ele><time>2026-05-03T09:03:08Z</time></trkpt><trkpt lat="37.93866725399252" lon="15.742632049773478"><ele>146.0</ele><time>2026-05-03T09:03:09Z</time></trkpt><trkpt lat="37.93864199121142" lon="15.742829964697345"><ele>146.5</ele><time>2026-05-03T09:03:10Z</time></trkpt><trkpt lat="37.93862617894474" lon="15.742994761696941"><ele>147.0</ele><time>2026-05-03T09:03:11Z</time></trkpt><trkpt lat="37.93865311366055" lon="15.743106281312302"><ele>147.5</ele><time>2026-05-03T09:03:12Z</time></trkpt><trkpt lat="37.93872548421329" lon="15.743192738635313"><ele>148.0</ele><time>2026-05-03T09:03:13Z</time></trkpt><trkpt lat="37.938885511697734" lon="15.743290701165703"><ele>148.0</ele><time>2026-05-03T09:03:14Z</time></trkpt><trkpt lat="37.938990420201954" lon="15.743406511813948"><ele>148.0</ele><time>2026-05-03T09:03:15Z</time></trkpt><trkpt lat="37.939071485618584" lon="15.74359641136403"><ele>148.0</ele><time>2026-05-03T09:03:16Z</time></trkpt><trkpt lat="37.93910731339091" lon="15.743801939872665"><ele>149.33333333333334</ele><time>2026-05-03T09:03:17Z</time></trkpt><trkpt lat="37.939159282392694" lon="15.744028449238478"><ele>150.66666666666666</ele><time>2026-05-03T09:03:18Z</time></trkpt><trkpt lat="37.939205976681514" lon="15.744223965593152"><ele>152.0</ele><time>2026-05-03T09:03:19Z</time></trkpt><trkpt lat="37.939280988635154" lon="15.744395030210432"><ele>152.0</ele><time>2026-05-03T09:03:20Z</time></trkpt><trkpt lat="37.939393172589185" lon="15.744565932844427"><ele>152.0</ele><time>2026-05-03T09:03:21Z</time></trkpt><trkpt lat="37.93953052188231" lon="15.744713263361437"><ele>152.0</ele><time>2026-05-03T09:03:22Z</time></trkpt><trkpt lat="37.939662880568314" lon="15.744877741897575"><ele>152.0</ele><time>2026-05-03T09:03:23Z</time></trkpt><trkpt lat="37.93980138535126" lon="15.745051211981494"><ele>152.0</ele><time>2026-05-03T09:03:24Z</time></trkpt><trkpt lat="37.939947623689115" lon="15.745205415447217"><ele>152.0</ele><time>2026-05-03T09:03:25Z</time></trkpt><trkpt lat="37.9400993655599" lon="15.745381189563775"><ele>153.0</ele><time>2026-05-03T09:03:26Z</time></trkpt><trkpt lat="37.94022506001492" lon="15.745530320534014"><ele>154.0</ele><time>2026-05-03T09:03:27Z</time></trkpt><trkpt lat="37.940335815468515" lon="15.74568217240417"><ele>155.0</ele><time>2026-05-03T09:03:28Z</time></trkpt><trkpt lat="37.94043461382718" lon="15.745819314002803"><ele>155.0</ele><time>2026-05-03T09:03:29Z</time></trkpt><trkpt lat="37.94058177822934" lon="15.74589962239808"><ele>155.0</ele><time>2026-05-03T09:03:30Z</time></trkpt><trkpt lat="37.94073370279768" lon="15.745960366155613"><ele>155.0</ele><time>2026-05-03T09:03:31Z</time></trkpt><trkpt lat="37.94089075753004" lon="15.746006124718267"><ele>157.33333333333331</ele><time>2026-05-03T09:03:32Z</time></trkpt><trkpt lat="37.94105479311201" lon="15.746036978935528"><ele>159.66666666666666</ele><time>2026-05-03T09:03:33Z</time></trkpt><trkpt lat="37.94123452256846" lon="15.746023006738534"><ele>162.0</ele><time>2026-05-03T09:03:34Z</time></trkpt><trkpt lat="37.94142917990167" lon="15.74598518160887"><ele>162.0</ele><time>2026-05-03T09:03:35Z</time></trkpt><trkpt lat="37.94161853700705" lon="15.74595752055641"><ele>162.0</ele><time>2026-05-03T09:03:36Z</time></trkpt><trkpt lat="37.94184235880137" lon="15.745946325579848"><ele>162.0</ele><time>2026-05-03T09:03:37Z</time></trkpt><trkpt lat="37.94205334955327" lon="15.745927079233535"><ele>163.33333333333334</ele><time>2026-05-03T09:03:38Z</time></trkpt><trkpt lat="37.942261607836656" lon="15.745889766930592"><ele>164.66666666666669</ele><time>2026-05-03T09:03:39Z</time></trkpt><trkpt lat="37.94246956167257" lon="15.74585577827622"><ele>166.0</ele><time>2026-05-03T09:03:40Z</time></trkpt><trkpt lat="37.94266703717008" lon="15.745831128610916"><ele>167.66666666666669</ele><time>2026-05-03T09:03:41Z</time></trkpt><trkpt lat="37.94285455233987" lon="15.745807126086788"><ele>169.33333333333334</ele><time>2026-05-03T09:03:42Z</time></trkpt><trkpt lat="37.94302954151909" lon="15.745787866381185"><ele>171.0</ele><time>2026-05-03T09:03:43Z</time></trkpt><trkpt lat="37.943191643042866" lon="15.74576841516416"><ele>171.0</ele><time>2026-05-03T09:03:44Z</time></trkpt><trkpt lat="37.94333578595919" lon="15.745751990172302"><ele>171.0</ele><time>2026-05-03T09:03:45Z</time></trkpt><trkpt lat="37.94347594211611" lon="15.745770419041513"><ele>171.0</ele><time>2026-05-03T09:03:46Z</time></trkpt><trkpt lat="37.943601264827784" lon="15.74587133403903"><ele>171.0</ele><time>2026-05-03T09:03:47Z</time></trkpt><trkpt lat="37.943741560441495" lon="15.745954595275423"><ele>170.25</ele><time>2026-05-03T09:03:48Z</time></trkpt><trkpt lat="37.94385768777241" lon="15.746041714669559"><ele>169.5</ele><time>2026-05-03T09:03:49Z</time></trkpt><trkpt lat="37.94397706017674" lon="15.74607331986203"><ele>168.75</ele><time>2026-05-03T09:03:50Z</time></trkpt><trkpt lat="37.94412496098104" lon="15.746020597161307"><ele>168.0</ele><time>2026-05-03T09:03:51Z</time></trkpt><trkpt lat="37.94428149854171" lon="15.745924003723433"><ele>171.66666666666666</ele><time>2026-05-03T09:03:52Z</time></trkpt><trkpt lat="37.94444008789147" lon="15.745827654211283"><ele>175.33333333333331</ele><time>2026-05-03T09:03:53Z</time></trkpt><trkpt lat="37.94460999236209" lon="15.745773728976797"><ele>179.0</ele><time>2026-05-03T09:03:54Z</time></trkpt><trkpt lat="37.94479388118742" lon="15.745798598697029"><ele>179.0</ele><time>2026-05-03T09:03:55.001Z</time></trkpt><trkpt lat="37.94498012969474" lon="15.745839188118822"><ele>179.0</ele><time>2026-05-03T09:03:56.001Z</time></trkpt><trkpt lat="37.945164349389124" lon="15.74586399801593"><ele>179.0</ele><time>2026-05-03T09:03:57.001Z</time></trkpt><trkpt lat="37.9453231870959" lon="15.74590429702573"><ele>181.0</ele><time>2026-05-03T09:03:58.001Z</time></trkpt><trkpt lat="37.94545871602457" lon="15.745938514042336"><ele>183.0</ele><time>2026-05-03T09:03:59.001Z</time></trkpt><trkpt lat="37.94556070528346" lon="15.745984594844787"><ele>185.0</ele><time>2026-05-03T09:04:00.001Z</time></trkpt><trkpt lat="37.94561446558561" lon="15.74608188338717"><ele>187.0</ele><time>2026-05-03T09:04:01.001Z</time></trkpt><trkpt lat="37.945594364356374" lon="15.746227128599338"><ele>187.5</ele><time>2026-05-03T09:04:02.001Z</time></trkpt><trkpt lat="37.945533400538594" lon="15.746341050392665"><ele>188.0</ele><time>2026-05-03T09:04:03.001Z</time></trkpt><trkpt lat="37.94547544591312" lon="15.74651317844498"><ele>188.5</ele><time>2026-05-03T09:04:04.001Z</time></trkpt><trkpt lat="37.94542187006542" lon="15.746706079189895"><ele>189.0</ele><time>2026-05-03T09:04:05.001Z</time></trkpt><trkpt lat="37.9453518519512" lon="15.746891652763166"><ele>189.0</ele><time>2026-05-03T09:04:06.001Z</time></trkpt><trkpt lat="37.945298023546165" lon="15.747064860428633"><ele>189.0</ele><time>2026-05-03T09:04:07.001Z</time></trkpt><trkpt lat="37.94526889219688" lon="15.747233607711891"><ele>189.0</ele><time>2026-05-03T09:04:08.001Z</time></trkpt><trkpt lat="37.94526821522871" lon="15.747413859231662"><ele>189.0</ele><time>2026-05-03T09:04:09.001Z</time></trkpt><trkpt lat="37.94530374390785" lon="15.747628277658855"><ele>189.0</ele><time>2026-05-03T09:04:10.001Z</time></trkpt><trkpt lat="37.94535342508518" lon="15.747858803185737"><ele>189.0</ele><time>2026-05-03T09:04:11.001Z</time></trkpt><trkpt lat="37.945381832042195" lon="15.748108499076567"><ele>189.0</ele><time>2026-05-03T09:04:12.001Z</time></trkpt><trkpt lat="37.94541837692183" lon="15.748367999475471"><ele>188.0</ele><time>2026-05-03T09:04:13.001Z</time></trkpt><trkpt lat="37.94547144038157" lon="15.748627649795328"><ele>187.0</ele><time>2026-05-03T09:04:14.001Z</time></trkpt><trkpt lat="37.94550418900521" lon="15.748887952163512"><ele>186.0</ele><time>2026-05-03T09:04:15.001Z</time></trkpt><trkpt lat="37.94553950679613" lon="15.749135964490028"><ele>186.66666666666666</ele><time>2026-05-03T09:04:16.001Z</time></trkpt><trkpt lat="37.94557956957816" lon="15.749413551146572"><ele>187.33333333333331</ele><time>2026-05-03T09:04:17.001Z</time></trkpt><trkpt lat="37.94560744325909" lon="15.749661950901176"><ele>188.0</ele><time>2026-05-03T09:04:18.001Z</time></trkpt><trkpt lat="37.94561649498569" lon="15.749896270856981"><ele>188.0</ele><time>2026-05-03T09:04:19.001Z</time></trkpt><trkpt lat="37.94562280760888" lon="15.750117870741407"><ele>188.0</ele><time>2026-05-03T09:04:20.001Z</time></trkpt><trkpt lat="37.94565077912431" lon="15.750325428880087"><ele>188.0</ele><time>2026-05-03T09:04:21.001Z</time></trkpt><trkpt lat="37.9457075320649" lon="15.75052037433041"><ele>187.5</ele><time>2026-05-03T09:04:22.001Z</time></trkpt><trkpt lat="37.94579058813551" lon="15.750718790735837"><ele>187.0</ele><time>2026-05-03T09:04:23.001Z</time></trkpt><trkpt lat="37.94585932217078" lon="15.75087801350976"><ele>186.5</ele><time>2026-05-03T09:04:24.001Z</time></trkpt><trkpt lat="37.94594675747752" lon="15.750992353121479"><ele>186.0</ele><time>2026-05-03T09:04:25.001Z</time></trkpt><trkpt lat="37.9460600923564" lon="15.751040884399362"><ele>188.0</ele><time>2026-05-03T09:04:26.001Z</time></trkpt><trkpt lat="37.94618445376805" lon="15.75097056955125"><ele>190.0</ele><time>2026-05-03T09:04:27.001Z</time></trkpt><trkpt lat="37.94629509655754" lon="15.750898185235133"><ele>192.0</ele><time>2026-05-03T09:04:28.001Z</time></trkpt><trkpt lat="37.946385507537215" lon="15.750780122716002"><ele>194.0</ele><time>2026-05-03T09:04:29.001Z</time></trkpt><trkpt lat="37.94648122282422" lon="15.750758902973125"><ele>194.0</ele><time>2026-05-03T09:04:30.001Z</time></trkpt><trkpt lat="37.94656668465139" lon="15.750761662629442"><ele>194.0</ele><time>2026-05-03T09:04:31.001Z</time></trkpt><trkpt lat="37.946639594086015" lon="15.750780669290087"><ele>194.0</ele><time>2026-05-03T09:04:32.001Z</time></trkpt><trkpt lat="37.94667485452685" lon="15.750865429336429"><ele>194.0</ele><time>2026-05-03T09:04:33.001Z</time></trkpt><trkpt lat="37.94674955388588" lon="15.750976007442395"><ele>194.0</ele><time>2026-05-03T09:04:34.001Z</time></trkpt><trkpt lat="37.94686770464972" lon="15.75112272204104"><ele>195.5</ele><time>2026-05-03T09:04:35.001Z</time></trkpt><trkpt lat="37.947038883317575" lon="15.75135393913993"><ele>197.0</ele><time>2026-05-03T09:04:36.001Z</time></trkpt><trkpt lat="37.94718911722907" lon="15.751522161659855"><ele>197.0</ele><time>2026-05-03T09:04:37.001Z</time></trkpt><trkpt lat="37.94737625948547" lon="15.751675998166268"><ele>197.0</ele><time>2026-05-03T09:04:38.001Z</time></trkpt><trkpt lat="37.947531904684034" lon="15.751829464378991"><ele>197.0</ele><time>2026-05-03T09:04:39.001Z</time></trkpt><trkpt lat="37.947727826341186" lon="15.752005495144147"><ele>199.0</ele><time>2026-05-03T09:04:40.001Z</time></trkpt><trkpt lat="37.94790634625022" lon="15.752082369314746"><ele>201.0</ele><time>2026-05-03T09:04:41.001Z</time></trkpt><trkpt lat="37.94808381413412" lon="15.752191452164185"><ele>203.0</ele><time>2026-05-03T09:04:42.001Z</time></trkpt><trkpt lat="37.948248923710835" lon="15.752295040329523"><ele>202.75</ele><time>2026-05-03T09:04:43.001Z</time></trkpt><trkpt lat="37.94839628195568" lon="15.75240231678557"><ele>202.5</ele><time>2026-05-03T09:04:44.001Z</time></trkpt><trkpt lat="37.94850891652838" lon="15.752516059956237"><ele>202.25</ele><time>2026-05-03T09:04:45.001Z</time></trkpt><trkpt lat="37.94857864417915" lon="15.752658934851514"><ele>202.0</ele><time>2026-05-03T09:04:46.001Z</time></trkpt><trkpt lat="37.94859478054513" lon="15.752829314723234"><ele>202.0</ele><time>2026-05-03T09:04:47.001Z</time></trkpt><trkpt lat="37.94865883861347" lon="15.752998106282647"><ele>202.0</ele><time>2026-05-03T09:04:48.001Z</time></trkpt><trkpt lat="37.948728634576696" lon="15.753135440836111"><ele>202.0</ele><time>2026-05-03T09:04:49.001Z</time></trkpt><trkpt lat="37.948846918062806" lon="15.753217682483651"><ele>202.0</ele><time>2026-05-03T09:04:50.001Z</time></trkpt><trkpt lat="37.949000106752116" lon="15.75326055796475"><ele>202.0</ele><time>2026-05-03T09:04:51.001Z</time></trkpt><trkpt lat="37.94917896645916" lon="15.753251342909275"><ele>202.0</ele><time>2026-05-03T09:04:52.001Z</time></trkpt><trkpt lat="37.949330675433586" lon="15.753232209057092"><ele>202.0</ele><time>2026-05-03T09:04:53.001Z</time></trkpt><trkpt lat="37.94944100607443" lon="15.753212849011026"><ele>202.0</ele><time>2026-05-03T09:04:54.001Z</time></trkpt><trkpt lat="37.94951685313072" lon="15.75306085499275"><ele>201.0</ele><time>2026-05-03T09:04:55.001Z</time></trkpt><trkpt lat="37.949597031730484" lon="15.752871988995313"><ele>200.0</ele><time>2026-05-03T09:04:56.001Z</time></trkpt><trkpt lat="37.9496536041926" lon="15.752646062687356"><ele>199.0</ele><time>2026-05-03T09:04:57.001Z</time></trkpt><trkpt lat="37.949704858985086" lon="15.752419088769438"><ele>202.66666666666666</ele><time>2026-05-03T09:04:58.001Z</time></trkpt><trkpt lat="37.94978408143705" lon="15.752210548375265"><ele>206.33333333333331</ele><time>2026-05-03T09:04:59.001Z</time></trkpt><trkpt lat="37.94985167617473" lon="15.752022383878137"><ele>210.0</ele><time>2026-05-03T09:05:00.001Z</time></trkpt><trkpt lat="37.949912490487414" lon="15.7518270279431"><ele>212.0</ele><time>2026-05-03T09:05:01.001Z</time></trkpt><trkpt lat="37.949980446601955" lon="15.75168337340941"><ele>214.0</ele><time>2026-05-03T09:05:02.001Z</time></trkpt><trkpt lat="37.950064271063916" lon="15.751592997153383"><ele>216.0</ele><time>2026-05-03T09:05:03Z</time></trkpt><trkpt lat="37.950164061179464" lon="15.751577574261194"><ele>218.0</ele><time>2026-05-03T09:05:04Z</time></trkpt><trkpt lat="37.95024998845228" lon="15.7516446789336"><ele>220.0</ele><time>2026-05-03T09:05:05Z</time></trkpt><trkpt lat="37.95026912590285" lon="15.751793319298606"><ele>221.5</ele><time>2026-05-03T09:05:06Z</time></trkpt><trkpt lat="37.9503422847054" lon="15.751921449095574"><ele>223.0</ele><time>2026-05-03T09:05:07Z</time></trkpt><trkpt lat="37.95040072126245" lon="15.752085191268785"><ele>224.5</ele><time>2026-05-03T09:05:08Z</time></trkpt><trkpt lat="37.95046314422371" lon="15.752264525099793"><ele>226.0</ele><time>2026-05-03T09:05:09Z</time></trkpt><trkpt lat="37.95052182345797" lon="15.752441451093315"><ele>226.0</ele><time>2026-05-03T09:05:10Z</time></trkpt><trkpt lat="37.95060084993193" lon="15.752596135882817"><ele>226.0</ele><time>2026-05-03T09:05:11Z</time></trkpt><trkpt lat="37.95072005373049" lon="15.75273069922052"><ele>226.0</ele><time>2026-05-03T09:05:12Z</time></trkpt><trkpt lat="37.95086501374938" lon="15.752849890744194"><ele>226.33333333333331</ele><time>2026-05-03T09:05:13Z</time></trkpt><trkpt lat="37.95099511614052" lon="15.752972177496623"><ele>226.66666666666669</ele><time>2026-05-03T09:05:14Z</time></trkpt><trkpt lat="37.95111702848515" lon="15.753086529685154"><ele>227.0</ele><time>2026-05-03T09:05:15Z</time></trkpt><trkpt lat="37.95124474524455" lon="15.753172597861258"><ele>227.0</ele><time>2026-05-03T09:05:16Z</time></trkpt><trkpt lat="37.9513963702003" lon="15.75317117856935"><ele>227.0</ele><time>2026-05-03T09:05:17Z</time></trkpt><trkpt lat="37.95155757250032" lon="15.753230369720916"><ele>227.0</ele><time>2026-05-03T09:05:18Z</time></trkpt><trkpt lat="37.95170523607198" lon="15.75334635875493"><ele>225.75</ele><time>2026-05-03T09:05:19Z</time></trkpt><trkpt lat="37.95187335975592" lon="15.753429240149751"><ele>224.5</ele><time>2026-05-03T09:05:20Z</time></trkpt><trkpt lat="37.95201063357571" lon="15.753462428289986"><ele>223.25</ele><time>2026-05-03T09:05:21Z</time></trkpt><trkpt lat="37.95211271709131" lon="15.753508991085571"><ele>222.0</ele><time>2026-05-03T09:05:22Z</time></trkpt><trkpt lat="37.9521820076395" lon="15.753565085698014"><ele>222.0</ele><time>2026-05-03T09:05:23Z</time></trkpt><trkpt lat="37.952257608546745" lon="15.753636184072926"><ele>222.0</ele><time>2026-05-03T09:05:24Z</time></trkpt><trkpt lat="37.95233129027213" lon="15.753700897158028"><ele>222.0</ele><time>2026-05-03T09:05:25Z</time></trkpt><trkpt lat="37.95240900999171" lon="15.753766997457216"><ele>222.0</ele><time>2026-05-03T09:05:26Z</time></trkpt><trkpt lat="37.95246750951464" lon="15.75381675220938"><ele>222.0</ele><time>2026-05-03T09:05:28Z</time></trkpt><trkpt lat="37.95253788529828" lon="15.7538157279615"><ele>222.0</ele><time>2026-05-03T09:05:30Z</time></trkpt><trkpt lat="37.952668680568365" lon="15.75385641599679"><ele>223.5</ele><time>2026-05-03T09:05:32Z</time></trkpt><trkpt lat="37.95275566473981" lon="15.75389574455283"><ele>225.0</ele><time>2026-05-03T09:05:33Z</time></trkpt><trkpt lat="37.95286430727113" lon="15.753938481334384"><ele>226.5</ele><time>2026-05-03T09:05:34Z</time></trkpt><trkpt lat="37.95297846365388" lon="15.753993985768279"><ele>228.0</ele><time>2026-05-03T09:05:35Z</time></trkpt><trkpt lat="37.9530981155347" lon="15.754038746182058"><ele>228.0</ele><time>2026-05-03T09:05:36Z</time></trkpt><trkpt lat="37.9532313590553" lon="15.754095908953893"><ele>228.0</ele><time>2026-05-03T09:05:37Z</time></trkpt><trkpt lat="37.95333445749818" lon="15.754117910025366"><ele>228.0</ele><time>2026-05-03T09:05:38Z</time></trkpt><trkpt lat="37.95343352485137" lon="15.75413844936013"><ele>228.0</ele><time>2026-05-03T09:05:39Z</time></trkpt><trkpt lat="37.95353778379013" lon="15.754138752001628"><ele>226.75</ele><time>2026-05-03T09:05:40Z</time></trkpt><trkpt lat="37.95365991032988" lon="15.754121031488916"><ele>225.5</ele><time>2026-05-03T09:05:41Z</time></trkpt><trkpt lat="37.95378967588645" lon="15.75408171669719"><ele>224.25</ele><time>2026-05-03T09:05:42Z</time></trkpt><trkpt lat="37.95391931556401" lon="15.754033578557676"><ele>223.0</ele><time>2026-05-03T09:05:43Z</time></trkpt><trkpt lat="37.95403872463825" lon="15.753967278291936"><ele>223.0</ele><time>2026-05-03T09:05:44Z</time></trkpt><trkpt lat="37.95414536814807" lon="15.753873101056536"><ele>223.0</ele><time>2026-05-03T09:05:45Z</time></trkpt><trkpt lat="37.95424431798469" lon="15.753740167734955"><ele>223.0</ele><time>2026-05-03T09:05:46Z</time></trkpt><trkpt lat="37.954329634970925" lon="15.753592449972155"><ele>223.0</ele><time>2026-05-03T09:05:47Z</time></trkpt><trkpt lat="37.95440960843966" lon="15.753464844424085"><ele>224.5</ele><time>2026-05-03T09:05:48Z</time></trkpt><trkpt lat="37.954512609097186" lon="15.753399229704"><ele>226.0</ele><time>2026-05-03T09:05:49Z</time></trkpt><trkpt lat="37.95461727883685" lon="15.753356112229612"><ele>227.5</ele><time>2026-05-03T09:05:50Z</time></trkpt><trkpt lat="37.954748734446085" lon="15.753414168344573"><ele>229.0</ele><time>2026-05-03T09:05:51Z</time></trkpt><trkpt lat="37.95490014791783" lon="15.7534446552767"><ele>229.0</ele><time>2026-05-03T09:05:52Z</time></trkpt><trkpt lat="37.9550551071231" lon="15.753472288414741"><ele>229.0</ele><time>2026-05-03T09:05:53Z</time></trkpt><trkpt lat="37.95519012967713" lon="15.753539172831042"><ele>229.0</ele><time>2026-05-03T09:05:54Z</time></trkpt><trkpt lat="37.95528334145958" lon="15.753677822757115"><ele>229.0</ele><time>2026-05-03T09:05:55Z</time></trkpt><trkpt lat="37.95540698580533" lon="15.753781985515825"><ele>226.0</ele><time>2026-05-03T09:05:56Z</time></trkpt><trkpt lat="37.95551227153346" lon="15.753886360919688"><ele>223.0</ele><time>2026-05-03T09:05:57Z</time></trkpt><trkpt lat="37.955632161686346" lon="15.753934343977077"><ele>220.0</ele><time>2026-05-03T09:05:58Z</time></trkpt><trkpt lat="37.955755748493196" lon="15.753927394465665"><ele>217.0</ele><time>2026-05-03T09:05:59Z</time></trkpt><trkpt lat="37.95585361461937" lon="15.753852758844593"><ele>218.33333333333331</ele><time>2026-05-03T09:06:00Z</time></trkpt><trkpt lat="37.95595336066757" lon="15.75374525330894"><ele>219.66666666666669</ele><time>2026-05-03T09:06:01Z</time></trkpt><trkpt lat="37.956054787319715" lon="15.753592220585196"><ele>221.0</ele><time>2026-05-03T09:06:02.001Z</time></trkpt><trkpt lat="37.956162236030885" lon="15.753433002383202"><ele>222.0</ele><time>2026-05-03T09:06:03.001Z</time></trkpt><trkpt lat="37.95626344667066" lon="15.753289683520796"><ele>223.00000000000003</ele><time>2026-05-03T09:06:04.001Z</time></trkpt><trkpt lat="37.95635673659683" lon="15.753190459320617"><ele>224.00000000000003</ele><time>2026-05-03T09:06:05.001Z</time></trkpt><trkpt lat="37.95643977387916" lon="15.753145915304154"><ele>225.0</ele><time>2026-05-03T09:06:06.001Z</time></trkpt><trkpt lat="37.9565043572538" lon="15.753162639867307"><ele>226.0</ele><time>2026-05-03T09:06:07.001Z</time></trkpt><trkpt lat="37.956563961534926" lon="15.753255583214754"><ele>226.0</ele><time>2026-05-03T09:06:08.001Z</time></trkpt><trkpt lat="37.956599846944" lon="15.753395096621801"><ele>226.0</ele><time>2026-05-03T09:06:09.001Z</time></trkpt><trkpt lat="37.95662691187893" lon="15.75354920007412"><ele>226.0</ele><time>2026-05-03T09:06:10.001Z</time></trkpt><trkpt lat="37.95667271821794" lon="15.75369278320979"><ele>226.0</ele><time>2026-05-03T09:06:11.001Z</time></trkpt><trkpt lat="37.95673330618669" lon="15.753803946991237"><ele>224.0</ele><time>2026-05-03T09:06:12.001Z</time></trkpt><trkpt lat="37.95683943081211" lon="15.753869019395314"><ele>222.0</ele><time>2026-05-03T09:06:13.001Z</time></trkpt><trkpt lat="37.956959996262924" lon="15.75388416097727"><ele>220.0</ele><time>2026-05-03T09:06:14.001Z</time></trkpt><trkpt lat="37.95708152439248" lon="15.753847441913972"><ele>218.0</ele><time>2026-05-03T09:06:15.001Z</time></trkpt><trkpt lat="37.95720770937979" lon="15.75374801516143"><ele>218.0</ele><time>2026-05-03T09:06:16.001Z</time></trkpt><trkpt lat="37.95733441628569" lon="15.753641485519362"><ele>218.0</ele><time>2026-05-03T09:06:17.001Z</time></trkpt><trkpt lat="37.95744562164161" lon="15.753511761497126"><ele>218.0</ele><time>2026-05-03T09:06:18.001Z</time></trkpt><trkpt lat="37.95758604589067" lon="15.75338092399239"><ele>215.66666666666669</ele><time>2026-05-03T09:06:19.001Z</time></trkpt><trkpt lat="37.957760229198215" lon="15.753246672280362"><ele>213.33333333333331</ele><time>2026-05-03T09:06:20.001Z</time></trkpt><trkpt lat="37.95791880500443" lon="15.753187304632942"><ele>211.0</ele><time>2026-05-03T09:06:21.001Z</time></trkpt><trkpt lat="37.958109650570044" lon="15.75308241276264"><ele>211.0</ele><time>2026-05-03T09:06:22.001Z</time></trkpt><trkpt lat="37.95830483872429" lon="15.753025758238646"><ele>211.0</ele><time>2026-05-03T09:06:23.001Z</time></trkpt><trkpt lat="37.958485835864124" lon="15.752954835805623"><ele>211.0</ele><time>2026-05-03T09:06:24.001Z</time></trkpt><trkpt lat="37.95866336969334" lon="15.752935576635613"><ele>212.5</ele><time>2026-05-03T09:06:25.001Z</time></trkpt><trkpt lat="37.958824985961385" lon="15.752914836626228"><ele>214.0</ele><time>2026-05-03T09:06:26.001Z</time></trkpt><trkpt lat="37.95896692467605" lon="15.752867816655447"><ele>215.5</ele><time>2026-05-03T09:06:27.001Z</time></trkpt><trkpt lat="37.95906716567433" lon="15.752776084040008"><ele>217.0</ele><time>2026-05-03T09:06:28.001Z</time></trkpt><trkpt lat="37.959118860838" lon="15.752684936466615"><ele>217.0</ele><time>2026-05-03T09:06:29.001Z</time></trkpt><trkpt lat="37.95914194215758" lon="15.752539176566327"><ele>217.0</ele><time>2026-05-03T09:06:30.001Z</time></trkpt><trkpt lat="37.9591292027694" lon="15.752387812400203"><ele>217.0</ele><time>2026-05-03T09:06:31.001Z</time></trkpt><trkpt lat="37.95912107993355" lon="15.752234355947907"><ele>217.0</ele><time>2026-05-03T09:06:32.001Z</time></trkpt><trkpt lat="37.95913236577885" lon="15.752080940279011"><ele>217.0</ele><time>2026-05-03T09:06:33.001Z</time></trkpt><trkpt lat="37.9591639768194" lon="15.751968229951988"><ele>217.0</ele><time>2026-05-03T09:06:34.001Z</time></trkpt><trkpt lat="37.95923727078983" lon="15.751912326128721"><ele>217.0</ele><time>2026-05-03T09:06:35.001Z</time></trkpt><trkpt lat="37.95937607482447" lon="15.751925170872466"><ele>217.0</ele><time>2026-05-03T09:06:37.001Z</time></trkpt><trkpt lat="37.95951224678116" lon="15.752089851819862"><ele>220.5</ele><time>2026-05-03T09:06:38.001Z</time></trkpt><trkpt lat="37.95963831931827" lon="15.75221991379697"><ele>224.0</ele><time>2026-05-03T09:06:39.001Z</time></trkpt><trkpt lat="37.95970955852823" lon="15.752385092352855"><ele>227.5</ele><time>2026-05-03T09:06:40.001Z</time></trkpt><trkpt lat="37.9597707694048" lon="15.752522842288528"><ele>231.0</ele><time>2026-05-03T09:06:41.001Z</time></trkpt><trkpt lat="37.95984995349597" lon="15.752707815435306"><ele>231.0</ele><time>2026-05-03T09:06:42.001Z</time></trkpt><trkpt lat="37.95988480647498" lon="15.752848607551135"><ele>231.0</ele><time>2026-05-03T09:06:43.001Z</time></trkpt><trkpt lat="37.95986512481233" lon="15.752996531877315"><ele>231.0</ele><time>2026-05-03T09:06:44.001Z</time></trkpt><trkpt lat="37.95984569201134" lon="15.75314005340587"><ele>231.0</ele><time>2026-05-03T09:06:45.001Z</time></trkpt><trkpt lat="37.9598218108961" lon="15.753307784242013"><ele>231.0</ele><time>2026-05-03T09:06:46.001Z</time></trkpt><trkpt lat="37.95978415620403" lon="15.753460020755542"><ele>231.0</ele><time>2026-05-03T09:06:47.001Z</time></trkpt><trkpt lat="37.95968758483446" lon="15.753527899404723"><ele>231.0</ele><time>2026-05-03T09:06:48.001Z</time></trkpt><trkpt lat="37.959576245672" lon="15.753608856557307"><ele>231.0</ele><time>2026-05-03T09:06:49.001Z</time></trkpt><trkpt lat="37.959479986480716" lon="15.753659900256169"><ele>231.0</ele><time>2026-05-03T09:06:50.001Z</time></trkpt><trkpt lat="37.959389967667505" lon="15.753684201169403"><ele>231.0</ele><time>2026-05-03T09:06:51.001Z</time></trkpt><trkpt lat="37.95929732799109" lon="15.753689183262965"><ele>231.0</ele><time>2026-05-03T09:06:52.001Z</time></trkpt><trkpt lat="37.95922322635057" lon="15.753503930329419"><ele>231.0</ele><time>2026-05-03T09:06:53.001Z</time></trkpt><trkpt lat="37.95911822617861" lon="15.753493740188174"><ele>230.0</ele><time>2026-05-03T09:06:54.001Z</time></trkpt><trkpt lat="37.95904478116061" lon="15.753506569734729"><ele>229.00000000000003</ele><time>2026-05-03T09:06:55.001Z</time></trkpt><trkpt lat="37.959009059865494" lon="15.753612342015302"><ele>228.00000000000003</ele><time>2026-05-03T09:06:56.001Z</time></trkpt><trkpt lat="37.95904905632407" lon="15.75375623043561"><ele>227.0</ele><time>2026-05-03T09:06:57.001Z</time></trkpt><trkpt lat="37.9591510869689" lon="15.753832214643273"><ele>226.0</ele><time>2026-05-03T09:06:58.001Z</time></trkpt><trkpt lat="37.959234898655126" lon="15.753910046231713"><ele>230.0</ele><time>2026-05-03T09:06:59.001Z</time></trkpt><trkpt lat="37.959382028921965" lon="15.754036253210407"><ele>234.0</ele><time>2026-05-03T09:07:00.001Z</time></trkpt><trkpt lat="37.95948567695353" lon="15.754086052934237"><ele>238.0</ele><time>2026-05-03T09:07:01.001Z</time></trkpt><trkpt lat="37.95960362021283" lon="15.754117895626356"><ele>242.0</ele><time>2026-05-03T09:07:02.001Z</time></trkpt><trkpt lat="37.95973888764174" lon="15.754069968262396"><ele>242.0</ele><time>2026-05-03T09:07:03.001Z</time></trkpt><trkpt lat="37.959891535287696" lon="15.75407566440453"><ele>242.0</ele><time>2026-05-03T09:07:04.001Z</time></trkpt><trkpt lat="37.960013994058116" lon="15.754085677443337"><ele>242.0</ele><time>2026-05-03T09:07:05.001Z</time></trkpt><trkpt lat="37.960125537355914" lon="15.754109710966375"><ele>242.0</ele><time>2026-05-03T09:07:06.001Z</time></trkpt><trkpt lat="37.9602337316511" lon="15.754128940232622"><ele>244.0</ele><time>2026-05-03T09:07:07.001Z</time></trkpt><trkpt lat="37.96034527645568" lon="15.754139127553943"><ele>246.0</ele><time>2026-05-03T09:07:08.001Z</time></trkpt><trkpt lat="37.96046004322187" lon="15.754109735686908"><ele>248.0</ele><time>2026-05-03T09:07:09Z</time></trkpt><trkpt lat="37.960612248527184" lon="15.754036860617784"><ele>250.0</ele><time>2026-05-03T09:07:10Z</time></trkpt><trkpt lat="37.960724859959626" lon="15.754019513002696"><ele>250.0</ele><time>2026-05-03T09:07:11Z</time></trkpt><trkpt lat="37.96082997193953" lon="15.754056366569854"><ele>250.0</ele><time>2026-05-03T09:07:12Z</time></trkpt><trkpt lat="37.96089356416403" lon="15.754153396208354"><ele>250.0</ele><time>2026-05-03T09:07:13Z</time></trkpt><trkpt lat="37.960846353412606" lon="15.754264984546333"><ele>250.0</ele><time>2026-05-03T09:07:15Z</time></trkpt><trkpt lat="37.96069213188749" lon="15.754429041604315"><ele>252.25</ele><time>2026-05-03T09:07:16Z</time></trkpt><trkpt lat="37.960604679799005" lon="15.754577517069253"><ele>254.5</ele><time>2026-05-03T09:07:17Z</time></trkpt><trkpt lat="37.96048739632094" lon="15.754639355536575"><ele>256.75</ele><time>2026-05-03T09:07:18Z</time></trkpt><trkpt lat="37.96034452063387" lon="15.754639616489337"><ele>259.0</ele><time>2026-05-03T09:07:19Z</time></trkpt><trkpt lat="37.96016657166671" lon="15.754631703731754"><ele>257.75</ele><time>2026-05-03T09:07:20Z</time></trkpt><trkpt lat="37.96000985515603" lon="15.754588306961708"><ele>256.5</ele><time>2026-05-03T09:07:21Z</time></trkpt><trkpt lat="37.95986799659955" lon="15.75455325045817"><ele>255.25</ele><time>2026-05-03T09:07:22Z</time></trkpt><trkpt lat="37.95975187108087" lon="15.754568872705436"><ele>254.0</ele><time>2026-05-03T09:07:23Z</time></trkpt><trkpt lat="37.95968085213102" lon="15.754603144553592"><ele>254.0</ele><time>2026-05-03T09:07:24Z</time></trkpt><trkpt lat="37.95963937405541" lon="15.754683850614098"><ele>254.0</ele><time>2026-05-03T09:07:25Z</time></trkpt><trkpt lat="37.959700991341386" lon="15.754871724956667"><ele>254.0</ele><time>2026-05-03T09:07:26Z</time></trkpt><trkpt lat="37.95979549731807" lon="15.754873672884957"><ele>254.0</ele><time>2026-05-03T09:07:27Z</time></trkpt><trkpt lat="37.959948339753986" lon="15.754942699959939"><ele>255.66666666666669</ele><time>2026-05-03T09:07:28Z</time></trkpt><trkpt lat="37.960120571702944" lon="15.755015744829164"><ele>257.3333333333333</ele><time>2026-05-03T09:07:29Z</time></trkpt><trkpt lat="37.96035219890896" lon="15.755145041669143"><ele>259.0</ele><time>2026-05-03T09:07:30Z</time></trkpt><trkpt lat="37.960592439388634" lon="15.755211773951876"><ele>262.3333333333333</ele><time>2026-05-03T09:07:31Z</time></trkpt><trkpt lat="37.96080912414659" lon="15.755270046244634"><ele>265.6666666666667</ele><time>2026-05-03T09:07:32Z</time></trkpt><trkpt lat="37.9610185146387" lon="15.755319282823377"><ele>269.0</ele><time>2026-05-03T09:07:33Z</time></trkpt><trkpt lat="37.9611994982296" lon="15.755318446208497"><ele>271.0</ele><time>2026-05-03T09:07:34Z</time></trkpt><trkpt lat="37.96136821657201" lon="15.755309719897484"><ele>273.0</ele><time>2026-05-03T09:07:35Z</time></trkpt><trkpt lat="37.96151585847841" lon="15.755319337257534"><ele>275.0</ele><time>2026-05-03T09:07:36Z</time></trkpt><trkpt lat="37.96161699731096" lon="15.755464076263058"><ele>275.0</ele><time>2026-05-03T09:07:38Z</time></trkpt><trkpt lat="37.96167358782051" lon="15.755612764575439"><ele>275.0</ele><time>2026-05-03T09:07:39Z</time></trkpt><trkpt lat="37.961764300378555" lon="15.75578844903225"><ele>275.0</ele><time>2026-05-03T09:07:40Z</time></trkpt><trkpt lat="37.96185892849662" lon="15.755975967421712"><ele>277.25</ele><time>2026-05-03T09:07:41Z</time></trkpt><trkpt lat="37.96194863128353" lon="15.75614065683476"><ele>279.5</ele><time>2026-05-03T09:07:42Z</time></trkpt><trkpt lat="37.962037911197804" lon="15.756283467790215"><ele>281.75</ele><time>2026-05-03T09:07:43Z</time></trkpt><trkpt lat="37.96213665396513" lon="15.756389149836314"><ele>284.0</ele><time>2026-05-03T09:07:44Z</time></trkpt><trkpt lat="37.962249866601624" lon="15.756446223827798"><ele>284.0</ele><time>2026-05-03T09:07:45Z</time></trkpt><trkpt lat="37.96242177476536" lon="15.756445813922381"><ele>284.0</ele><time>2026-05-03T09:07:46Z</time></trkpt><trkpt lat="37.962570961335906" lon="15.756427639594499"><ele>284.0</ele><time>2026-05-03T09:07:47Z</time></trkpt><trkpt lat="37.962748162228294" lon="15.756363981803352"><ele>287.5</ele><time>2026-05-03T09:07:48Z</time></trkpt><trkpt lat="37.9629700202662" lon="15.756493383617554"><ele>291.0</ele><time>2026-05-03T09:07:49Z</time></trkpt><trkpt lat="37.96320165553212" lon="15.756427074267808"><ele>291.0</ele><time>2026-05-03T09:07:50Z</time></trkpt><trkpt lat="37.96334988409452" lon="15.756284212376489"><ele>291.0</ele><time>2026-05-03T09:07:51Z</time></trkpt><trkpt lat="37.96349966035361" lon="15.756165864820808"><ele>291.0</ele><time>2026-05-03T09:07:52Z</time></trkpt><trkpt lat="37.963656714393295" lon="15.756114802629853"><ele>291.5</ele><time>2026-05-03T09:07:53Z</time></trkpt><trkpt lat="37.963808594621625" lon="15.756085091020545"><ele>292.0</ele><time>2026-05-03T09:07:54Z</time></trkpt><trkpt lat="37.96385982851719" lon="15.755929337793757"><ele>292.5</ele><time>2026-05-03T09:07:55Z</time></trkpt><trkpt lat="37.96396139170627" lon="15.755854199897277"><ele>293.0</ele><time>2026-05-03T09:07:56Z</time></trkpt><trkpt lat="37.964037491485215" lon="15.755709339501923"><ele>293.0</ele><time>2026-05-03T09:07:57Z</time></trkpt><trkpt lat="37.964107328955876" lon="15.755569757432779"><ele>293.0</ele><time>2026-05-03T09:07:58Z</time></trkpt><trkpt lat="37.96417142777787" lon="15.75540906938429"><ele>293.0</ele><time>2026-05-03T09:07:59Z</time></trkpt><trkpt lat="37.964267249639335" lon="15.755313513359317"><ele>293.0</ele><time>2026-05-03T09:08:00Z</time></trkpt><trkpt lat="37.96435178890554" lon="15.755234629352"><ele>294.75</ele><time>2026-05-03T09:08:01Z</time></trkpt><trkpt lat="37.96447251642894" lon="15.755154934097337"><ele>296.5</ele><time>2026-05-03T09:08:02Z</time></trkpt><trkpt lat="37.964615747134495" lon="15.75506800494206"><ele>298.25</ele><time>2026-05-03T09:08:03Z</time></trkpt><trkpt lat="37.96472937508241" lon="15.755017515211055"><ele>300.0</ele><time>2026-05-03T09:08:04Z</time></trkpt><trkpt lat="37.96482782052124" lon="15.755008273196971"><ele>300.0</ele><time>2026-05-03T09:08:05Z</time></trkpt><trkpt lat="37.96492269986186" lon="15.755082176855028"><ele>300.0</ele><time>2026-05-03T09:08:06Z</time></trkpt><trkpt lat="37.964956924866485" lon="15.75516438471945"><ele>300.0</ele><time>2026-05-03T09:08:07Z</time></trkpt><trkpt lat="37.965064948533986" lon="15.755319531828636"><ele>300.0</ele><time>2026-05-03T09:08:08Z</time></trkpt><trkpt lat="37.96519256571202" lon="15.75546444838598"><ele>299.5</ele><time>2026-05-03T09:08:09Z</time></trkpt><trkpt lat="37.965336194170504" lon="15.755547610831334"><ele>299.0</ele><time>2026-05-03T09:08:10Z</time></trkpt><trkpt lat="37.96545738790538" lon="15.755570996817314"><ele>298.5</ele><time>2026-05-03T09:08:11.001Z</time></trkpt><trkpt lat="37.96558560981211" lon="15.755581099729751"><ele>298.0</ele><time>2026-05-03T09:08:12.001Z</time></trkpt><trkpt lat="37.965704306147565" lon="15.755612518642108"><ele>298.0</ele><time>2026-05-03T09:08:13.001Z</time></trkpt><trkpt lat="37.96580829549902" lon="15.755667758237323"><ele>298.0</ele><time>2026-05-03T09:08:14.001Z</time></trkpt><trkpt lat="37.965912703609" lon="15.755730166857088"><ele>298.0</ele><time>2026-05-03T09:08:15.001Z</time></trkpt><trkpt lat="37.965973063824514" lon="15.755879532279968"><ele>298.0</ele><time>2026-05-03T09:08:16.001Z</time></trkpt><trkpt lat="37.96601171450997" lon="15.755976291320524"><ele>298.0</ele><time>2026-05-03T09:08:17.001Z</time></trkpt><trkpt lat="37.966024753418786" lon="15.756086626485212"><ele>298.25</ele><time>2026-05-03T09:08:18.001Z</time></trkpt><trkpt lat="37.96598943698522" lon="15.756277994202618"><ele>298.5</ele><time>2026-05-03T09:08:19.001Z</time></trkpt><trkpt lat="37.96601947346281" lon="15.75645439270272"><ele>298.75</ele><time>2026-05-03T09:08:20.001Z</time></trkpt><trkpt lat="37.966095773637974" lon="15.756597126516821"><ele>299.0</ele><time>2026-05-03T09:08:21.001Z</time></trkpt><trkpt lat="37.966170065902354" lon="15.756718161875973"><ele>299.0</ele><time>2026-05-03T09:08:22.001Z</time></trkpt><trkpt lat="37.96623881438659" lon="15.75680926383253"><ele>299.0</ele><time>2026-05-03T09:08:23.001Z</time></trkpt><trkpt lat="37.9663414138454" lon="15.756823975236502"><ele>299.0</ele><time>2026-05-03T09:08:24.001Z</time></trkpt><trkpt lat="37.96640878027233" lon="15.756718448359091"><ele>299.0</ele><time>2026-05-03T09:08:25.001Z</time></trkpt><trkpt lat="37.966574589858105" lon="15.756699189048556"><ele>300.4</ele><time>2026-05-03T09:08:26.001Z</time></trkpt><trkpt lat="37.96670946468701" lon="15.756763363431736"><ele>301.79999999999995</ele><time>2026-05-03T09:08:27.001Z</time></trkpt><trkpt lat="37.96680683770551" lon="15.756846465065472"><ele>303.20000000000005</ele><time>2026-05-03T09:08:28.001Z</time></trkpt><trkpt lat="37.96687735373992" lon="15.756934750173805"><ele>304.6</ele><time>2026-05-03T09:08:29.001Z</time></trkpt><trkpt lat="37.966918734610886" lon="15.757001124802843"><ele>306.0</ele><time>2026-05-03T09:08:30.001Z</time></trkpt><trkpt lat="37.96696296074457" lon="15.75707073743554"><ele>303.0</ele><time>2026-05-03T09:08:31.001Z</time></trkpt><trkpt lat="37.967007073825" lon="15.757133597765032"><ele>300.0</ele><time>2026-05-03T09:08:32.001Z</time></trkpt><trkpt lat="37.96705424215941" lon="15.7572096215103"><ele>297.0</ele><time>2026-05-03T09:08:33.001Z</time></trkpt><trkpt lat="37.96711392009302" lon="15.757274728456885"><ele>294.0</ele><time>2026-05-03T09:08:34.001Z</time></trkpt><trkpt lat="37.967178394108196" lon="15.757337479437828"><ele>291.0</ele><time>2026-05-03T09:08:35.001Z</time></trkpt><trkpt lat="37.96726431422884" lon="15.757357531805209"><ele>288.0</ele><time>2026-05-03T09:08:36.001Z</time></trkpt><trkpt lat="37.96734633962157" lon="15.757345886280191"><ele>288.0</ele><time>2026-05-03T09:08:37.001Z</time></trkpt><trkpt lat="37.96744484810222" lon="15.757279710814768"><ele>288.0</ele><time>2026-05-03T09:08:38.001Z</time></trkpt><trkpt lat="37.96752352505762" lon="15.757187600690616"><ele>288.0</ele><time>2026-05-03T09:08:39.001Z</time></trkpt><trkpt lat="37.96758771199284" lon="15.757100505257617"><ele>288.0</ele><time>2026-05-03T09:08:40.001Z</time></trkpt><trkpt lat="37.9676637122091" lon="15.757016966860892"><ele>288.0</ele><time>2026-05-03T09:08:41.001Z</time></trkpt><trkpt lat="37.967748358587734" lon="15.75696705807094"><ele>289.2</ele><time>2026-05-03T09:08:42.001Z</time></trkpt><trkpt lat="37.967881509942174" lon="15.756996152201136"><ele>290.4</ele><time>2026-05-03T09:08:43.001Z</time></trkpt><trkpt lat="37.96796670343934" lon="15.757001273002379"><ele>291.59999999999997</ele><time>2026-05-03T09:08:44.001Z</time></trkpt><trkpt lat="37.96809579448102" lon="15.757017652195454"><ele>292.8</ele><time>2026-05-03T09:08:46.001Z</time></trkpt><trkpt lat="37.968162485722495" lon="15.757016729376463"><ele>294.0</ele><time>2026-05-03T09:08:47.001Z</time></trkpt><trkpt lat="37.96823679410392" lon="15.756993933511495"><ele>294.0</ele><time>2026-05-03T09:08:49.001Z</time></trkpt><trkpt lat="37.968326018943195" lon="15.756975216049073"><ele>294.0</ele><time>2026-05-03T09:08:51.001Z</time></trkpt><trkpt lat="37.96839397445572" lon="15.757002234031193"><ele>294.0</ele><time>2026-05-03T09:08:52.001Z</time></trkpt><trkpt lat="37.9684293974879" lon="15.756897502235567"><ele>294.0</ele><time>2026-05-03T09:08:53.001Z</time></trkpt><trkpt lat="37.96856808266252" lon="15.756859886288762"><ele>294.0</ele><time>2026-05-03T09:08:55.001Z</time></trkpt><trkpt lat="37.9686491945473" lon="15.756860200379853"><ele>293.8</ele><time>2026-05-03T09:08:56.001Z</time></trkpt><trkpt lat="37.96873020071369" lon="15.756837899735599"><ele>293.59999999999997</ele><time>2026-05-03T09:08:57.001Z</time></trkpt><trkpt lat="37.9687748551195" lon="15.756671861636447"><ele>293.4</ele><time>2026-05-03T09:08:59.001Z</time></trkpt><trkpt lat="37.968801083250405" lon="15.75655883744506"><ele>293.2</ele><time>2026-05-03T09:09:00.001Z</time></trkpt><trkpt lat="37.96889827938111" lon="15.75645296873848"><ele>293.0</ele><time>2026-05-03T09:09:02.001Z</time></trkpt><trkpt lat="37.96905777469223" lon="15.75646367025514"><ele>293.0</ele><time>2026-05-03T09:09:04.001Z</time></trkpt><trkpt lat="37.969143551431635" lon="15.756565067568204"><ele>293.0</ele><time>2026-05-03T09:09:05.001Z</time></trkpt><trkpt lat="37.96913652765727" lon="15.75672656910677"><ele>293.0</ele><time>2026-05-03T09:09:06.001Z</time></trkpt><trkpt lat="37.96921772614052" lon="15.75682067960045"><ele>293.0</ele><time>2026-05-03T09:09:08.001Z</time></trkpt><trkpt lat="37.969330170240994" lon="15.75685399562944"><ele>293.33333333333337</ele><time>2026-05-03T09:09:10.001Z</time></trkpt><trkpt lat="37.969397475156555" lon="15.756793509288599"><ele>293.6666666666667</ele><time>2026-05-03T09:09:11.001Z</time></trkpt><trkpt lat="37.96945390527511" lon="15.756725151997628"><ele>294.0</ele><time>2026-05-03T09:09:12.001Z</time></trkpt><trkpt lat="37.969501653651456" lon="15.75666782859082"><ele>294.3333333333333</ele><time>2026-05-03T09:09:13.001Z</time></trkpt><trkpt lat="37.96957240160642" lon="15.756637234629986"><ele>294.66666666666663</ele><time>2026-05-03T09:09:14.001Z</time></trkpt><trkpt lat="37.969705378433474" lon="15.756626295349655"><ele>295.0</ele><time>2026-05-03T09:09:16Z</time></trkpt><trkpt lat="37.96977023581582" lon="15.756650584726518"><ele>295.0</ele><time>2026-05-03T09:09:17Z</time></trkpt><trkpt lat="37.969859699750316" lon="15.756737133469688"><ele>295.0</ele><time>2026-05-03T09:09:19Z</time></trkpt><trkpt lat="37.96991086077839" lon="15.756805508100996"><ele>295.0</ele><time>2026-05-03T09:09:20Z</time></trkpt><trkpt lat="37.96992656272507" lon="15.75699512710941"><ele>295.0</ele><time>2026-05-03T09:09:22Z</time></trkpt><trkpt lat="37.96994098604098" lon="15.757132657657083"><ele>295.0</ele><time>2026-05-03T09:09:23Z</time></trkpt><trkpt lat="37.96998623800846" lon="15.757259995566661"><ele>295.25</ele><time>2026-05-03T09:09:24Z</time></trkpt><trkpt lat="37.96996911766395" lon="15.75742464300497"><ele>295.5</ele><time>2026-05-03T09:09:25Z</time></trkpt><trkpt lat="37.969994782857746" lon="15.757571479456555"><ele>295.75</ele><time>2026-05-03T09:09:26Z</time></trkpt><trkpt lat="37.97000198130002" lon="15.757720818579115"><ele>296.0</ele><time>2026-05-03T09:09:27Z</time></trkpt><trkpt lat="37.9700022791937" lon="15.757871551647833"><ele>294.2</ele><time>2026-05-03T09:09:28Z</time></trkpt><trkpt lat="37.96999715643145" lon="15.758023354597023"><ele>292.40000000000003</ele><time>2026-05-03T09:09:29Z</time></trkpt><trkpt lat="37.96996855731491" lon="15.758181254485821"><ele>290.6</ele><time>2026-05-03T09:09:30Z</time></trkpt><trkpt lat="37.96995272120307" lon="15.758313420392673"><ele>288.8</ele><time>2026-05-03T09:09:31Z</time></trkpt><trkpt lat="37.96996311206905" lon="15.75842615379341"><ele>287.0</ele><time>2026-05-03T09:09:32Z</time></trkpt><trkpt lat="37.969977593171784" lon="15.758535290272176"><ele>282.4</ele><time>2026-05-03T09:09:33Z</time></trkpt><trkpt lat="37.97002449408364" lon="15.758616203590442"><ele>277.79999999999995</ele><time>2026-05-03T09:09:34Z</time></trkpt><trkpt lat="37.97011021780013" lon="15.758670862837418"><ele>273.2</ele><time>2026-05-03T09:09:35Z</time></trkpt><trkpt lat="37.97022966817589" lon="15.75870998452513"><ele>268.59999999999997</ele><time>2026-05-03T09:09:36Z</time></trkpt><trkpt lat="37.97032309057086" lon="15.758733779360107"><ele>264.0</ele><time>2026-05-03T09:09:37Z</time></trkpt><trkpt lat="37.97042337091596" lon="15.758755965052902"><ele>264.0</ele><time>2026-05-03T09:09:38Z</time></trkpt><trkpt lat="37.970536560572505" lon="15.758766981501395"><ele>264.0</ele><time>2026-05-03T09:09:39Z</time></trkpt><trkpt lat="37.97065284800328" lon="15.758774854548443"><ele>264.0</ele><time>2026-05-03T09:09:40Z</time></trkpt><trkpt lat="37.97077383529049" lon="15.7587759761818"><ele>264.0</ele><time>2026-05-03T09:09:41Z</time></trkpt><trkpt lat="37.97087086196887" lon="15.758787205605774"><ele>264.0</ele><time>2026-05-03T09:09:42Z</time></trkpt><trkpt lat="37.970951595178185" lon="15.758750727622012"><ele>264.4</ele><time>2026-05-03T09:09:43Z</time></trkpt><trkpt lat="37.971018763582265" lon="15.758674985637809"><ele>264.79999999999995</ele><time>2026-05-03T09:09:44Z</time></trkpt><trkpt lat="37.97110056803436" lon="15.758557239666585"><ele>265.20000000000005</ele><time>2026-05-03T09:09:45Z</time></trkpt><trkpt lat="37.97117686417503" lon="15.758467568706662"><ele>265.6</ele><time>2026-05-03T09:09:46Z</time></trkpt><trkpt lat="37.971262462398116" lon="15.758391403173185"><ele>266.0</ele><time>2026-05-03T09:09:47Z</time></trkpt><trkpt lat="37.97135384064933" lon="15.758320144304856"><ele>267.5</ele><time>2026-05-03T09:09:48Z</time></trkpt><trkpt lat="37.97144441862469" lon="15.758267676186719"><ele>269.0</ele><time>2026-05-03T09:09:49Z</time></trkpt><trkpt lat="37.97152683028622" lon="15.758226571122714"><ele>270.5</ele><time>2026-05-03T09:09:50Z</time></trkpt><trkpt lat="37.97161088565586" lon="15.75819929691372"><ele>272.0</ele><time>2026-05-03T09:09:51Z</time></trkpt><trkpt lat="37.97169475721385" lon="15.75817786123841"><ele>273.5</ele><time>2026-05-03T09:09:52Z</time></trkpt><trkpt lat="37.97174709059042" lon="15.758111831907728"><ele>275.0</ele><time>2026-05-03T09:09:53Z</time></trkpt><trkpt lat="37.97179004262262" lon="15.758038026100692"><ele>275.0</ele><time>2026-05-03T09:09:54Z</time></trkpt><trkpt lat="37.971831202387705" lon="15.757970670744031"><ele>275.0</ele><time>2026-05-03T09:09:55Z</time></trkpt><trkpt lat="37.971925502349" lon="15.75789110782152"><ele>275.0</ele><time>2026-05-03T09:09:57Z</time></trkpt><trkpt lat="37.97201711008388" lon="15.757886884747935"><ele>275.0</ele><time>2026-05-03T09:09:59Z</time></trkpt><trkpt lat="37.972094451520455" lon="15.7579498963419"><ele>275.0</ele><time>2026-05-03T09:10:00Z</time></trkpt><trkpt lat="37.97217675979979" lon="15.758001028155128"><ele>275.0</ele><time>2026-05-03T09:10:01Z</time></trkpt><trkpt lat="37.97225137357977" lon="15.758043774990805"><ele>275.0</ele><time>2026-05-03T09:10:02Z</time></trkpt><trkpt lat="37.97236467032098" lon="15.758135743794176"><ele>275.0</ele><time>2026-05-03T09:10:03Z</time></trkpt><trkpt lat="37.972455338453926" lon="15.758122382512061"><ele>275.0</ele><time>2026-05-03T09:10:04Z</time></trkpt><trkpt lat="37.97253828876686" lon="15.758096863509813"><ele>275.0</ele><time>2026-05-03T09:10:05Z</time></trkpt><trkpt lat="37.972622754216296" lon="15.757986046053878"><ele>277.0</ele><time>2026-05-03T09:10:06Z</time></trkpt><trkpt lat="37.9726996282406" lon="15.757903698489008"><ele>279.0</ele><time>2026-05-03T09:10:07Z</time></trkpt><trkpt lat="37.972768632302426" lon="15.757794433364834"><ele>281.0</ele><time>2026-05-03T09:10:08Z</time></trkpt><trkpt lat="37.972822322889854" lon="15.757684363109856"><ele>283.0</ele><time>2026-05-03T09:10:09Z</time></trkpt><trkpt lat="37.97286650291739" lon="15.757564205084979"><ele>285.0</ele><time>2026-05-03T09:10:10Z</time></trkpt><trkpt lat="37.972938845216454" lon="15.75748995911792"><ele>286.8</ele><time>2026-05-03T09:10:11Z</time></trkpt><trkpt lat="37.973066279324904" lon="15.757437496834655"><ele>288.6</ele><time>2026-05-03T09:10:13Z</time></trkpt><trkpt lat="37.973165824396254" lon="15.757410591955578"><ele>290.4</ele><time>2026-05-03T09:10:14Z</time></trkpt><trkpt lat="37.97327413328866" lon="15.757404793311514"><ele>292.2</ele><time>2026-05-03T09:10:15Z</time></trkpt><trkpt lat="37.973377008726935" lon="15.757413239739032"><ele>294.0</ele><time>2026-05-03T09:10:16Z</time></trkpt><trkpt lat="37.9734873145503" lon="15.757384499496421"><ele>297.5</ele><time>2026-05-03T09:10:17Z</time></trkpt><trkpt lat="37.9736135503957" lon="15.757281069658573"><ele>301.0</ele><time>2026-05-03T09:10:18Z</time></trkpt><trkpt lat="37.97373978880457" lon="15.757229788958346"><ele>304.5</ele><time>2026-05-03T09:10:19Z</time></trkpt><trkpt lat="37.97384490448554" lon="15.757198997973413"><ele>308.0</ele><time>2026-05-03T09:10:20Z</time></trkpt><trkpt lat="37.97392979292457" lon="15.75719289585116"><ele>308.0</ele><time>2026-05-03T09:10:21Z</time></trkpt><trkpt lat="37.97399169883153" lon="15.757255343988204"><ele>308.0</ele><time>2026-05-03T09:10:22Z</time></trkpt><trkpt lat="37.97403096284119" lon="15.757392309316577"><ele>308.0</ele><time>2026-05-03T09:10:24.001Z</time></trkpt><trkpt lat="37.97398152988897" lon="15.75751239310186"><ele>308.0</ele><time>2026-05-03T09:10:25.001Z</time></trkpt><trkpt lat="37.973811218479206" lon="15.75767564494381"><ele>309.0</ele><time>2026-05-03T09:10:26.001Z</time></trkpt><trkpt lat="37.973684537256965" lon="15.757764007531483"><ele>310.0</ele><time>2026-05-03T09:10:27.001Z</time></trkpt><trkpt lat="37.973577389591135" lon="15.757868176774215"><ele>311.0</ele><time>2026-05-03T09:10:28.001Z</time></trkpt><trkpt lat="37.97348040793615" lon="15.75798276332506"><ele>312.0</ele><time>2026-05-03T09:10:29.001Z</time></trkpt><trkpt lat="37.97340860428143" lon="15.758084190849575"><ele>312.0</ele><time>2026-05-03T09:10:30.001Z</time></trkpt><trkpt lat="37.97337147952469" lon="15.758197378903546"><ele>312.0</ele><time>2026-05-03T09:10:31.001Z</time></trkpt><trkpt lat="37.973363363166015" lon="15.758309274460581"><ele>312.0</ele><time>2026-05-03T09:10:32.001Z</time></trkpt><trkpt lat="37.97341384441266" lon="15.758433769473962"><ele>312.0</ele><time>2026-05-03T09:10:33.001Z</time></trkpt><trkpt lat="37.97350548862343" lon="15.758555078675217"><ele>312.0</ele><time>2026-05-03T09:10:34.001Z</time></trkpt><trkpt lat="37.973683554422756" lon="15.758732114281873"><ele>304.0</ele><time>2026-05-03T09:10:35.001Z</time></trkpt><trkpt lat="37.97387378713299" lon="15.758860756903118"><ele>296.0</ele><time>2026-05-03T09:10:36.001Z</time></trkpt><trkpt lat="37.97399146151535" lon="15.758973469409662"><ele>288.0</ele><time>2026-05-03T09:10:37.001Z</time></trkpt><trkpt lat="37.974091981954075" lon="15.759041270827632"><ele>288.0</ele><time>2026-05-03T09:10:38.001Z</time></trkpt><trkpt lat="37.97418766273359" lon="15.759020751877912"><ele>288.0</ele><time>2026-05-03T09:10:39.001Z</time></trkpt><trkpt lat="37.974241199344384" lon="15.75892225222044"><ele>288.0</ele><time>2026-05-03T09:10:40.001Z</time></trkpt><trkpt lat="37.97425565719484" lon="15.75878408123823"><ele>288.0</ele><time>2026-05-03T09:10:41.001Z</time></trkpt><trkpt lat="37.9742792310139" lon="15.758639790384317"><ele>288.0</ele><time>2026-05-03T09:10:42.001Z</time></trkpt><trkpt lat="37.97435133841321" lon="15.758545666835245"><ele>292.5</ele><time>2026-05-03T09:10:43.001Z</time></trkpt><trkpt lat="37.97445180171122" lon="15.758526879070812"><ele>297.0</ele><time>2026-05-03T09:10:44.001Z</time></trkpt><trkpt lat="37.974569240260266" lon="15.758581963739708"><ele>301.5</ele><time>2026-05-03T09:10:45.001Z</time></trkpt><trkpt lat="37.97466659311878" lon="15.758681424268943"><ele>306.0</ele><time>2026-05-03T09:10:46.001Z</time></trkpt><trkpt lat="37.974750851447915" lon="15.7587953560623"><ele>306.0</ele><time>2026-05-03T09:10:47.001Z</time></trkpt><trkpt lat="37.974770427949764" lon="15.759023997877136"><ele>306.0</ele><time>2026-05-03T09:10:48.001Z</time></trkpt><trkpt lat="37.97487013810134" lon="15.759150898292857"><ele>306.0</ele><time>2026-05-03T09:10:49.001Z</time></trkpt><trkpt lat="37.97502582406509" lon="15.759225032335515"><ele>306.0</ele><time>2026-05-03T09:10:50.001Z</time></trkpt><trkpt lat="37.97518629502008" lon="15.759269482991737"><ele>306.0</ele><time>2026-05-03T09:10:51.001Z</time></trkpt><trkpt lat="37.97535768043231" lon="15.759266371534272"><ele>306.0</ele><time>2026-05-03T09:10:52.001Z</time></trkpt><trkpt lat="37.97550009424481" lon="15.759233521718647"><ele>306.0</ele><time>2026-05-03T09:10:53.001Z</time></trkpt><trkpt lat="37.97558363570839" lon="15.759177558638498"><ele>306.0</ele><time>2026-05-03T09:10:54.001Z</time></trkpt><trkpt lat="37.975646634425075" lon="15.75909015641116"><ele>306.0</ele><time>2026-05-03T09:10:55.001Z</time></trkpt><trkpt lat="37.97570746940186" lon="15.758908928165727"><ele>306.0</ele><time>2026-05-03T09:10:56.001Z</time></trkpt><trkpt lat="37.97574111940615" lon="15.758745484307918"><ele>306.0</ele><time>2026-05-03T09:10:57.001Z</time></trkpt><trkpt lat="37.97579037368518" lon="15.758596395618158"><ele>306.0</ele><time>2026-05-03T09:10:58.001Z</time></trkpt><trkpt lat="37.97586280082471" lon="15.758487004080981"><ele>306.0</ele><time>2026-05-03T09:10:59.001Z</time></trkpt><trkpt lat="37.975933438006955" lon="15.75840583743769"><ele>306.0</ele><time>2026-05-03T09:11:00.001Z</time></trkpt><trkpt lat="37.97601235076256" lon="15.758334018529377"><ele>306.0</ele><time>2026-05-03T09:11:01.001Z</time></trkpt><trkpt lat="37.97610924042065" lon="15.758328123416034"><ele>316.5</ele><time>2026-05-03T09:11:02.001Z</time></trkpt><trkpt lat="37.9762857284013" lon="15.75867400179733"><ele>327.0</ele><time>2026-05-03T09:11:03.001Z</time></trkpt><trkpt lat="37.97643526702982" lon="15.758923623727755"><ele>327.0</ele><time>2026-05-03T09:11:04.001Z</time></trkpt><trkpt lat="37.97657953771815" lon="15.759204444630738"><ele>327.0</ele><time>2026-05-03T09:11:05.001Z</time></trkpt><trkpt lat="37.97672579740338" lon="15.759354266973336"><ele>328.3333333333333</ele><time>2026-05-03T09:11:06.001Z</time></trkpt><trkpt lat="37.97685419220973" lon="15.759543545619302"><ele>329.66666666666663</ele><time>2026-05-03T09:11:07.001Z</time></trkpt><trkpt lat="37.97696101413503" lon="15.759777415220322"><ele>331.0</ele><time>2026-05-03T09:11:08.001Z</time></trkpt><trkpt lat="37.977050141608814" lon="15.760018932991859"><ele>322.5</ele><time>2026-05-03T09:11:09.001Z</time></trkpt><trkpt lat="37.97712125376715" lon="15.760221038873421"><ele>314.0</ele><time>2026-05-03T09:11:10.001Z</time></trkpt><trkpt lat="37.9771826838105" lon="15.760335174998584"><ele>305.5</ele><time>2026-05-03T09:11:11.001Z</time></trkpt><trkpt lat="37.97728616656105" lon="15.760418972032129"><ele>297.0</ele><time>2026-05-03T09:11:12.001Z</time></trkpt><trkpt lat="37.97737730861056" lon="15.760407861705948"><ele>297.0</ele><time>2026-05-03T09:11:13.001Z</time></trkpt><trkpt lat="37.977519012930955" lon="15.76030729083621"><ele>297.0</ele><time>2026-05-03T09:11:14.001Z</time></trkpt><trkpt lat="37.97768949668839" lon="15.760242069585818"><ele>297.0</ele><time>2026-05-03T09:11:15.001Z</time></trkpt><trkpt lat="37.97784757307279" lon="15.76017926375023"><ele>300.3333333333333</ele><time>2026-05-03T09:11:16.001Z</time></trkpt><trkpt lat="37.977983723117305" lon="15.760078809755303"><ele>303.66666666666663</ele><time>2026-05-03T09:11:17.001Z</time></trkpt><trkpt lat="37.97809448641478" lon="15.759939244940762"><ele>307.0</ele><time>2026-05-03T09:11:18.001Z</time></trkpt><trkpt lat="37.978197922864084" lon="15.759786708024297"><ele>307.0</ele><time>2026-05-03T09:11:19.001Z</time></trkpt><trkpt lat="37.978309502565644" lon="15.759596764025211"><ele>307.0</ele><time>2026-05-03T09:11:20.001Z</time></trkpt><trkpt lat="37.978398774395444" lon="15.75936462694366"><ele>307.0</ele><time>2026-05-03T09:11:21Z</time></trkpt><trkpt lat="37.978458103245536" lon="15.759206846685624"><ele>307.75</ele><time>2026-05-03T09:11:22Z</time></trkpt><trkpt lat="37.97855472846869" lon="15.759071845266396"><ele>308.5</ele><time>2026-05-03T09:11:23Z</time></trkpt><trkpt lat="37.97867275675413" lon="15.759038136522921"><ele>309.25</ele><time>2026-05-03T09:11:24Z</time></trkpt><trkpt lat="37.97879752619861" lon="15.75903857637912"><ele>310.0</ele><time>2026-05-03T09:11:25Z</time></trkpt><trkpt lat="37.97892300117037" lon="15.758965661834745"><ele>310.0</ele><time>2026-05-03T09:11:26Z</time></trkpt><trkpt lat="37.97903881898515" lon="15.758833575808838"><ele>310.0</ele><time>2026-05-03T09:11:27Z</time></trkpt><trkpt lat="37.97914014382426" lon="15.758693723476728"><ele>310.0</ele><time>2026-05-03T09:11:28Z</time></trkpt><trkpt lat="37.979226700718215" lon="15.758517975899727"><ele>319.0</ele><time>2026-05-03T09:11:29Z</time></trkpt><trkpt lat="37.979314227657284" lon="15.758254258705424"><ele>328.0</ele><time>2026-05-03T09:11:30Z</time></trkpt><trkpt lat="37.97933512207329" lon="15.758003873112507"><ele>337.0</ele><time>2026-05-03T09:11:31Z</time></trkpt><trkpt lat="37.97940730134679" lon="15.757754657476575"><ele>333.66666666666663</ele><time>2026-05-03T09:11:32Z</time></trkpt><trkpt lat="37.9794981738729" lon="15.757499825522451"><ele>330.3333333333333</ele><time>2026-05-03T09:11:33Z</time></trkpt><trkpt lat="37.979569204507584" lon="15.757265940356515"><ele>327.0</ele><time>2026-05-03T09:11:34Z</time></trkpt><trkpt lat="37.97961765728576" lon="15.757075963321524"><ele>327.0</ele><time>2026-05-03T09:11:35Z</time></trkpt><trkpt lat="37.97965602933692" lon="15.756924299705002"><ele>327.0</ele><time>2026-05-03T09:11:36Z</time></trkpt><trkpt lat="37.97970346504554" lon="15.756822072444375"><ele>327.0</ele><time>2026-05-03T09:11:37Z</time></trkpt><trkpt lat="37.97978664261132" lon="15.75675477730931"><ele>327.0</ele><time>2026-05-03T09:11:38Z</time></trkpt><trkpt lat="37.9798983676484" lon="15.756746257166371"><ele>327.0</ele><time>2026-05-03T09:11:39Z</time></trkpt><trkpt lat="37.980012513490315" lon="15.756811800306666"><ele>332.25</ele><time>2026-05-03T09:11:40Z</time></trkpt><trkpt lat="37.980119763732624" lon="15.756889153104318"><ele>337.5</ele><time>2026-05-03T09:11:41Z</time></trkpt><trkpt lat="37.98024520600224" lon="15.756945038950422"><ele>342.75</ele><time>2026-05-03T09:11:42Z</time></trkpt><trkpt lat="37.9803894486427" lon="15.75700676542441"><ele>348.0</ele><time>2026-05-03T09:11:43Z</time></trkpt><trkpt lat="37.980512759561925" lon="15.757101882973096"><ele>348.0</ele><time>2026-05-03T09:11:44Z</time></trkpt><trkpt lat="37.98061491140254" lon="15.75719353384089"><ele>348.0</ele><time>2026-05-03T09:11:45Z</time></trkpt><trkpt lat="37.98071766866556" lon="15.75710935694444"><ele>348.0</ele><time>2026-05-03T09:11:47Z</time></trkpt><trkpt lat="37.980745774782946" lon="15.756967973646095"><ele>348.0</ele><time>2026-05-03T09:11:48Z</time></trkpt><trkpt lat="37.98077231064265" lon="15.75681757811182"><ele>349.4</ele><time>2026-05-03T09:11:49Z</time></trkpt><trkpt lat="37.980833139250755" lon="15.756732611170763"><ele>350.79999999999995</ele><time>2026-05-03T09:11:50Z</time></trkpt><trkpt lat="37.980921565385955" lon="15.756720885697634"><ele>352.2</ele><time>2026-05-03T09:11:51Z</time></trkpt><trkpt lat="37.981017833019216" lon="15.756791759486482"><ele>353.6</ele><time>2026-05-03T09:11:52Z</time></trkpt><trkpt lat="37.98110566199809" lon="15.756866112911506"><ele>355.0</ele><time>2026-05-03T09:11:53Z</time></trkpt><trkpt lat="37.98118321223086" lon="15.75692047114239"><ele>355.0</ele><time>2026-05-03T09:11:54Z</time></trkpt><trkpt lat="37.981249860323516" lon="15.756977922821847"><ele>355.0</ele><time>2026-05-03T09:11:55Z</time></trkpt><trkpt lat="37.98131283401396" lon="15.757044660693166"><ele>355.0</ele><time>2026-05-03T09:11:56Z</time></trkpt><trkpt lat="37.981396560311055" lon="15.757107688817499"><ele>355.0</ele><time>2026-05-03T09:11:57Z</time></trkpt><trkpt lat="37.98147981567172" lon="15.757173244186225"><ele>355.0</ele><time>2026-05-03T09:11:58Z</time></trkpt><trkpt lat="37.98156721538936" lon="15.75721270694408"><ele>360.0</ele><time>2026-05-03T09:11:59Z</time></trkpt><trkpt lat="37.98169588856515" lon="15.757207549547768"><ele>365.0</ele><time>2026-05-03T09:12:00Z</time></trkpt><trkpt lat="37.98190086555463" lon="15.7572153097056"><ele>370.0</ele><time>2026-05-03T09:12:01Z</time></trkpt><trkpt lat="37.982033128311464" lon="15.757247274872821"><ele>370.0</ele><time>2026-05-03T09:12:02Z</time></trkpt><trkpt lat="37.982203389133815" lon="15.75730001335529"><ele>370.0</ele><time>2026-05-03T09:12:03Z</time></trkpt><trkpt lat="37.982306125421374" lon="15.757214722124026"><ele>370.0</ele><time>2026-05-03T09:12:04Z</time></trkpt><trkpt lat="37.9824245038312" lon="15.757140474500622"><ele>370.0</ele><time>2026-05-03T09:12:05Z</time></trkpt><trkpt lat="37.98253299758391" lon="15.757043340873247"><ele>368.5</ele><time>2026-05-03T09:12:06Z</time></trkpt><trkpt lat="37.98263261626807" lon="15.756929827501015"><ele>367.0</ele><time>2026-05-03T09:12:07Z</time></trkpt><trkpt lat="37.98272151989407" lon="15.756836804617507"><ele>365.5</ele><time>2026-05-03T09:12:08Z</time></trkpt><trkpt lat="37.982772835051684" lon="15.756665505940857"><ele>364.0</ele><time>2026-05-03T09:12:09Z</time></trkpt><trkpt lat="37.98283602568405" lon="15.756550079059702"><ele>364.0</ele><time>2026-05-03T09:12:10Z</time></trkpt><trkpt lat="37.982746716965096" lon="15.75641457322941"><ele>364.0</ele><time>2026-05-03T09:12:11Z</time></trkpt><trkpt lat="37.982786140753504" lon="15.756660548484879"><ele>364.0</ele><time>2026-05-03T09:12:14Z</time></trkpt><trkpt lat="37.98272731041683" lon="15.756811604214311"><ele>365.5</ele><time>2026-05-03T09:12:15Z</time></trkpt><trkpt lat="37.9826817562037" lon="15.756946865134177"><ele>367.0</ele><time>2026-05-03T09:12:16Z</time></trkpt><trkpt lat="37.982639501575434" lon="15.75709095611696"><ele>368.5</ele><time>2026-05-03T09:12:17Z</time></trkpt><trkpt lat="37.98257319056744" lon="15.75720841078268"><ele>370.0</ele><time>2026-05-03T09:12:18Z</time></trkpt><trkpt lat="37.98248654427033" lon="15.757297816800515"><ele>370.0</ele><time>2026-05-03T09:12:19Z</time></trkpt><trkpt lat="37.98238214778822" lon="15.757393584220672"><ele>370.0</ele><time>2026-05-03T09:12:20Z</time></trkpt><trkpt lat="37.982268231177315" lon="15.75748661838391"><ele>370.0</ele><time>2026-05-03T09:12:21Z</time></trkpt><trkpt lat="37.98216152653411" lon="15.757586715266157"><ele>370.0</ele><time>2026-05-03T09:12:22Z</time></trkpt><trkpt lat="37.98207675701025" lon="15.757680037149234"><ele>374.0</ele><time>2026-05-03T09:12:23Z</time></trkpt><trkpt lat="37.98194069634774" lon="15.757738384747507"><ele>378.0</ele><time>2026-05-03T09:12:24Z</time></trkpt><trkpt lat="37.98178824119387" lon="15.757803415231319"><ele>382.0</ele><time>2026-05-03T09:12:25Z</time></trkpt><trkpt lat="37.98164366893954" lon="15.757897020887674"><ele>382.0</ele><time>2026-05-03T09:12:26Z</time></trkpt><trkpt lat="37.981524911756814" lon="15.7579864931985"><ele>382.0</ele><time>2026-05-03T09:12:27Z</time></trkpt><trkpt lat="37.98140974932676" lon="15.758030232950942"><ele>382.0</ele><time>2026-05-03T09:12:28Z</time></trkpt><trkpt lat="37.98129822283524" lon="15.758065950563095"><ele>382.0</ele><time>2026-05-03T09:12:29Z</time></trkpt><trkpt lat="37.98117003107752" lon="15.758068769501275"><ele>382.0</ele><time>2026-05-03T09:12:30Z</time></trkpt><trkpt lat="37.981021216032886" lon="15.758041704370788"><ele>382.0</ele><time>2026-05-03T09:12:31.001Z</time></trkpt><trkpt lat="37.98087120608078" lon="15.758101671603415"><ele>382.0</ele><time>2026-05-03T09:12:32.001Z</time></trkpt><trkpt lat="37.98072504624981" lon="15.758179720851626"><ele>380.25</ele><time>2026-05-03T09:12:33.001Z</time></trkpt><trkpt lat="37.980595434269" lon="15.75826637156189"><ele>378.5</ele><time>2026-05-03T09:12:34.001Z</time></trkpt><trkpt lat="37.9805008490415" lon="15.758336395946289"><ele>376.75</ele><time>2026-05-03T09:12:35.001Z</time></trkpt><trkpt lat="37.98042984516509" lon="15.758378164032175"><ele>375.0</ele><time>2026-05-03T09:12:36.001Z</time></trkpt><trkpt lat="37.98042908928773" lon="15.758580722715841"><ele>375.0</ele><time>2026-05-03T09:12:38.001Z</time></trkpt><trkpt lat="37.98050916105488" lon="15.758764814945419"><ele>375.0</ele><time>2026-05-03T09:12:39.001Z</time></trkpt><trkpt lat="37.98054452657546" lon="15.75893720205362"><ele>375.0</ele><time>2026-05-03T09:12:40.001Z</time></trkpt><trkpt lat="37.980596000464345" lon="15.759086142691176"><ele>375.0</ele><time>2026-05-03T09:12:41.001Z</time></trkpt><trkpt lat="37.980648892761245" lon="15.759190302445779"><ele>375.0</ele><time>2026-05-03T09:12:42.001Z</time></trkpt><trkpt lat="37.98071265814102" lon="15.759235079910923"><ele>375.0</ele><time>2026-05-03T09:12:43.001Z</time></trkpt><trkpt lat="37.980789415280675" lon="15.759208707203799"><ele>375.0</ele><time>2026-05-03T09:12:44.001Z</time></trkpt><trkpt lat="37.98085669102201" lon="15.759122915649256"><ele>375.0</ele><time>2026-05-03T09:12:45.001Z</time></trkpt><trkpt lat="37.98088812724599" lon="15.758973870756215"><ele>375.0</ele><time>2026-05-03T09:12:46.001Z</time></trkpt><trkpt lat="37.980912725111594" lon="15.75884664944616"><ele>378.3333333333333</ele><time>2026-05-03T09:12:47.001Z</time></trkpt><trkpt lat="37.98095950117481" lon="15.758781409582914"><ele>381.66666666666663</ele><time>2026-05-03T09:12:48.001Z</time></trkpt><trkpt lat="37.98102814365512" lon="15.758815453490426"><ele>385.0</ele><time>2026-05-03T09:12:49.001Z</time></trkpt><trkpt lat="37.9810471448378" lon="15.758918639139411"><ele>388.3333333333333</ele><time>2026-05-03T09:12:50.001Z</time></trkpt><trkpt lat="37.981048201139416" lon="15.759016032606148"><ele>391.66666666666663</ele><time>2026-05-03T09:12:51.001Z</time></trkpt><trkpt lat="37.98104083581262" lon="15.759119197610437"><ele>395.0</ele><time>2026-05-03T09:12:52.001Z</time></trkpt><trkpt lat="37.981015728369655" lon="15.759234616822928"><ele>394.99999999999994</ele><time>2026-05-03T09:12:53.001Z</time></trkpt><trkpt lat="37.98099224838671" lon="15.759311315498682"><ele>395.0</ele><time>2026-05-03T09:12:54.001Z</time></trkpt><trkpt lat="37.9810573044082" lon="15.759304561439958"><ele>395.0</ele><time>2026-05-03T09:12:55.001Z</time></trkpt><trkpt lat="37.981120156458935" lon="15.759245933701202"><ele>395.0</ele><time>2026-05-03T09:12:56.001Z</time></trkpt><trkpt lat="37.98113547015846" lon="15.759128047394809"><ele>394.99999999999994</ele><time>2026-05-03T09:12:57.001Z</time></trkpt><trkpt lat="37.981118157120946" lon="15.759006813146259"><ele>395.0</ele><time>2026-05-03T09:12:58.001Z</time></trkpt><trkpt lat="37.981186611711465" lon="15.758927719415134"><ele>395.0</ele><time>2026-05-03T09:13:00.001Z</time></trkpt><trkpt lat="37.981235581714756" lon="15.758979476741564"><ele>395.0</ele><time>2026-05-03T09:13:01.001Z</time></trkpt><trkpt lat="37.98123638108088" lon="15.759072179555833"><ele>395.0</ele><time>2026-05-03T09:13:02.001Z</time></trkpt><trkpt lat="37.981198853549934" lon="15.759181625555396"><ele>395.0</ele><time>2026-05-03T09:13:03.001Z</time></trkpt><trkpt lat="37.98113975128412" lon="15.759307614424353"><ele>395.0</ele><time>2026-05-03T09:13:04.001Z</time></trkpt><trkpt lat="37.981110559883774" lon="15.759436162636334"><ele>392.3333333333333</ele><time>2026-05-03T09:13:05.001Z</time></trkpt><trkpt lat="37.98111915736882" lon="15.75952060510611"><ele>389.66666666666663</ele><time>2026-05-03T09:13:06.001Z</time></trkpt><trkpt lat="37.981217030642924" lon="15.759598276698258"><ele>387.0</ele><time>2026-05-03T09:13:07.001Z</time></trkpt><trkpt lat="37.98130700165269" lon="15.759596662190194"><ele>384.3333333333333</ele><time>2026-05-03T09:13:08.001Z</time></trkpt><trkpt lat="37.98137087279421" lon="15.759503789803935"><ele>381.66666666666663</ele><time>2026-05-03T09:13:09.001Z</time></trkpt><trkpt lat="37.98142502217191" lon="15.75944622050084"><ele>379.0</ele><time>2026-05-03T09:13:10.001Z</time></trkpt><trkpt lat="37.98147951788824" lon="15.759397223719892"><ele>382.2</ele><time>2026-05-03T09:13:12.001Z</time></trkpt><trkpt lat="37.98154685379777" lon="15.759347496432335"><ele>385.4</ele><time>2026-05-03T09:13:16.001Z</time></trkpt><trkpt lat="37.981615964206206" lon="15.759285747520314"><ele>388.6</ele><time>2026-05-03T09:13:18.001Z</time></trkpt><trkpt lat="37.98168769858808" lon="15.759278998039123"><ele>391.8</ele><time>2026-05-03T09:13:20.001Z</time></trkpt><trkpt lat="37.9817865028164" lon="15.759315389952343"><ele>395.0</ele><time>2026-05-03T09:13:22.001Z</time></trkpt><trkpt lat="37.98192315042221" lon="15.759282604530306"><ele>395.1428571428571</ele><time>2026-05-03T09:13:24.001Z</time></trkpt><trkpt lat="37.98199040751148" lon="15.759269354327808"><ele>395.28571428571433</ele><time>2026-05-03T09:13:25.001Z</time></trkpt><trkpt lat="37.98206805312889" lon="15.759251920081761"><ele>395.42857142857144</ele><time>2026-05-03T09:13:26.001Z</time></trkpt><trkpt lat="37.98212339187034" lon="15.759204672664502"><ele>395.57142857142856</ele><time>2026-05-03T09:13:27Z</time></trkpt><trkpt lat="37.98218267736838" lon="15.759176068227829"><ele>395.71428571428567</ele><time>2026-05-03T09:13:28Z</time></trkpt><trkpt lat="37.98226106333449" lon="15.75914880587749"><ele>395.8571428571429</ele><time>2026-05-03T09:13:29Z</time></trkpt><trkpt lat="37.98233787975518" lon="15.759114922608935"><ele>396.0</ele><time>2026-05-03T09:13:30Z</time></trkpt><trkpt lat="37.982421917848605" lon="15.759104295045407"><ele>398.75</ele><time>2026-05-03T09:13:31Z</time></trkpt><trkpt lat="37.98255626765016" lon="15.759095763924684"><ele>401.5</ele><time>2026-05-03T09:13:32Z</time></trkpt><trkpt lat="37.98266782136084" lon="15.75911986847835"><ele>404.25</ele><time>2026-05-03T09:13:33Z</time></trkpt><trkpt lat="37.98276449871895" lon="15.759171731135485"><ele>407.0</ele><time>2026-05-03T09:13:34Z</time></trkpt><trkpt lat="37.982848033086505" lon="15.759245573967307"><ele>407.0</ele><time>2026-05-03T09:13:35Z</time></trkpt><trkpt lat="37.98294456908508" lon="15.759255893534895"><ele>407.0</ele><time>2026-05-03T09:13:36Z</time></trkpt><trkpt lat="37.983040433255944" lon="15.759260541185334"><ele>407.0</ele><time>2026-05-03T09:13:37Z</time></trkpt><trkpt lat="37.983131858049475" lon="15.7592750509129"><ele>407.0</ele><time>2026-05-03T09:13:38Z</time></trkpt><trkpt lat="37.983206276635215" lon="15.759323592570075"><ele>407.0</ele><time>2026-05-03T09:13:39Z</time></trkpt><trkpt lat="37.983272455310626" lon="15.759448101119128"><ele>404.99999999999994</ele><time>2026-05-03T09:13:41Z</time></trkpt><trkpt lat="37.98333847942803" lon="15.759451310634958"><ele>403.0</ele><time>2026-05-03T09:13:42Z</time></trkpt><trkpt lat="37.98341514732443" lon="15.759434214191415"><ele>401.0</ele><time>2026-05-03T09:13:43Z</time></trkpt><trkpt lat="37.983495878976775" lon="15.759406822603191"><ele>399.0</ele><time>2026-05-03T09:13:44Z</time></trkpt><trkpt lat="37.9835812277031" lon="15.759381476353688"><ele>396.99999999999994</ele><time>2026-05-03T09:13:45Z</time></trkpt><trkpt lat="37.983665073137445" lon="15.759341704953563"><ele>395.0</ele><time>2026-05-03T09:13:46Z</time></trkpt><trkpt lat="37.98374845662166" lon="15.75926978401196"><ele>395.0</ele><time>2026-05-03T09:13:47Z</time></trkpt><trkpt lat="37.98382234652773" lon="15.759188150267038"><ele>395.0</ele><time>2026-05-03T09:13:48Z</time></trkpt><trkpt lat="37.98391948464499" lon="15.759071291910997"><ele>395.0</ele><time>2026-05-03T09:13:49Z</time></trkpt><trkpt lat="37.98401654487949" lon="15.758971136302934"><ele>395.0</ele><time>2026-05-03T09:13:50Z</time></trkpt><trkpt lat="37.984126089210285" lon="15.758884214051276"><ele>392.0</ele><time>2026-05-03T09:13:51Z</time></trkpt><trkpt lat="37.984233770827174" lon="15.758806561315245"><ele>389.0</ele><time>2026-05-03T09:13:52Z</time></trkpt><trkpt lat="37.984344883970564" lon="15.75873905227484"><ele>386.0</ele><time>2026-05-03T09:13:53Z</time></trkpt><trkpt lat="37.984455738515344" lon="15.75868675586225"><ele>383.0</ele><time>2026-05-03T09:13:54Z</time></trkpt><trkpt lat="37.98455615384548" lon="15.758651070753709"><ele>383.0</ele><time>2026-05-03T09:13:55Z</time></trkpt><trkpt lat="37.98465504395097" lon="15.758635328832284"><ele>383.0</ele><time>2026-05-03T09:13:56Z</time></trkpt><trkpt lat="37.98473369797695" lon="15.758653620935725"><ele>383.0</ele><time>2026-05-03T09:13:57Z</time></trkpt><trkpt lat="37.984842083204654" lon="15.758681049986777"><ele>383.0</ele><time>2026-05-03T09:13:58Z</time></trkpt><trkpt lat="37.984928304429864" lon="15.758729005103758"><ele>383.0</ele><time>2026-05-03T09:13:59Z</time></trkpt><trkpt lat="37.98500154364826" lon="15.758780245164331"><ele>391.2</ele><time>2026-05-03T09:14:00Z</time></trkpt><trkpt lat="37.98509863949539" lon="15.75882919539652"><ele>399.4</ele><time>2026-05-03T09:14:01Z</time></trkpt><trkpt lat="37.985204518511296" lon="15.758880916398702"><ele>407.59999999999997</ele><time>2026-05-03T09:14:02Z</time></trkpt><trkpt lat="37.98530616316139" lon="15.75893342548082"><ele>415.79999999999995</ele><time>2026-05-03T09:14:03Z</time></trkpt><trkpt lat="37.98541274702636" lon="15.758978369017006"><ele>424.0</ele><time>2026-05-03T09:14:04Z</time></trkpt><trkpt lat="37.98548934547025" lon="15.758990894974817"><ele>424.0</ele><time>2026-05-03T09:14:05Z</time></trkpt><trkpt lat="37.98558142161494" lon="15.7590478794679"><ele>424.0</ele><time>2026-05-03T09:14:06Z</time></trkpt><trkpt lat="37.98565907743021" lon="15.75913122638915"><ele>424.0</ele><time>2026-05-03T09:14:07Z</time></trkpt><trkpt lat="37.98572886043747" lon="15.7592344099764"><ele>424.0</ele><time>2026-05-03T09:14:08Z</time></trkpt><trkpt lat="37.985792426594976" lon="15.759341823460955"><ele>424.0</ele><time>2026-05-03T09:14:09Z</time></trkpt><trkpt lat="37.9858678806691" lon="15.759429893045821"><ele>424.4</ele><time>2026-05-03T09:14:10Z</time></trkpt><trkpt lat="37.985955670322994" lon="15.759487378005254"><ele>424.79999999999995</ele><time>2026-05-03T09:14:11Z</time></trkpt><trkpt lat="37.986051682913974" lon="15.759534773987138"><ele>425.20000000000005</ele><time>2026-05-03T09:14:12Z</time></trkpt><trkpt lat="37.98615234511873" lon="15.759569541635912"><ele>425.6</ele><time>2026-05-03T09:14:13Z</time></trkpt><trkpt lat="37.98624675143876" lon="15.75958661791898"><ele>426.0</ele><time>2026-05-03T09:14:14.001Z</time></trkpt><trkpt lat="37.98632799464693" lon="15.759653332490293"><ele>426.0</ele><time>2026-05-03T09:14:15.001Z</time></trkpt><trkpt lat="37.98639782549529" lon="15.759747625661928"><ele>426.0</ele><time>2026-05-03T09:14:16.001Z</time></trkpt><trkpt lat="37.98645484609117" lon="15.759860850771501"><ele>426.0</ele><time>2026-05-03T09:14:17.001Z</time></trkpt><trkpt lat="37.986527652202916" lon="15.75997379747911"><ele>426.0</ele><time>2026-05-03T09:14:18.001Z</time></trkpt><trkpt lat="37.98659217137436" lon="15.760081021053683"><ele>426.0</ele><time>2026-05-03T09:14:19.001Z</time></trkpt><trkpt lat="37.98664783709596" lon="15.760201591178"><ele>423.20000000000005</ele><time>2026-05-03T09:14:20.001Z</time></trkpt><trkpt lat="37.986688637643155" lon="15.760338585276449"><ele>420.40000000000003</ele><time>2026-05-03T09:14:21.001Z</time></trkpt><trkpt lat="37.98672409073075" lon="15.760484322884595"><ele>417.6</ele><time>2026-05-03T09:14:22.001Z</time></trkpt><trkpt lat="37.98674746303518" lon="15.760619652554096"><ele>414.8</ele><time>2026-05-03T09:14:23.001Z</time></trkpt><trkpt lat="37.98676038887693" lon="15.760747166620957"><ele>412.0</ele><time>2026-05-03T09:14:24.001Z</time></trkpt><trkpt lat="37.98677656514456" lon="15.760848027822135"><ele>412.0</ele><time>2026-05-03T09:14:25.001Z</time></trkpt><trkpt lat="37.98679905404817" lon="15.760936103285678"><ele>412.0</ele><time>2026-05-03T09:14:26.001Z</time></trkpt><trkpt lat="37.986890042571815" lon="15.761015067163976"><ele>412.0</ele><time>2026-05-03T09:14:28.001Z</time></trkpt><trkpt lat="37.986959000093144" lon="15.760960546907224"><ele>412.0</ele><time>2026-05-03T09:14:29.001Z</time></trkpt><trkpt lat="37.987047683141796" lon="15.76092462664777"><ele>412.0</ele><time>2026-05-03T09:14:30.001Z</time></trkpt><trkpt lat="37.9871486603756" lon="15.760879066965124"><ele>412.0</ele><time>2026-05-03T09:14:31.001Z</time></trkpt><trkpt lat="37.98721510774874" lon="15.760828202074253"><ele>412.0</ele><time>2026-05-03T09:14:32.001Z</time></trkpt><trkpt lat="37.98725760448034" lon="15.760759910278129"><ele>412.0</ele><time>2026-05-03T09:14:33.001Z</time></trkpt><trkpt lat="37.98726561967673" lon="15.760672342197926"><ele>412.0</ele><time>2026-05-03T09:14:34.001Z</time></trkpt><trkpt lat="37.98724938441686" lon="15.760524437666945"><ele>412.0</ele><time>2026-05-03T09:14:35.001Z</time></trkpt><trkpt lat="37.98723290950296" lon="15.760351987673975"><ele>419.0</ele><time>2026-05-03T09:14:36.001Z</time></trkpt><trkpt lat="37.987241062884216" lon="15.76015194306995"><ele>426.0</ele><time>2026-05-03T09:14:37.001Z</time></trkpt><trkpt lat="37.98726725651829" lon="15.759976899782064"><ele>433.0</ele><time>2026-05-03T09:14:38.001Z</time></trkpt><trkpt lat="37.98728300233173" lon="15.759839257829372"><ele>440.0</ele><time>2026-05-03T09:14:39.001Z</time></trkpt><trkpt lat="37.987311405942215" lon="15.759727303265167"><ele>440.0</ele><time>2026-05-03T09:14:40.001Z</time></trkpt><trkpt lat="37.98733761916789" lon="15.759637209995928"><ele>440.0</ele><time>2026-05-03T09:14:41.001Z</time></trkpt><trkpt lat="37.98741908576147" lon="15.759614791809275"><ele>440.0</ele><time>2026-05-03T09:14:42.001Z</time></trkpt><trkpt lat="37.98767958274391" lon="15.759845564617773"><ele>445.66666666666663</ele><time>2026-05-03T09:14:44.001Z</time></trkpt><trkpt lat="37.98785609600968" lon="15.759953318441172"><ele>451.33333333333337</ele><time>2026-05-03T09:14:45.001Z</time></trkpt><trkpt lat="37.98800857149774" lon="15.760138927199561"><ele>457.0</ele><time>2026-05-03T09:14:46.001Z</time></trkpt><trkpt lat="37.98818183952114" lon="15.760239377846407"><ele>445.25</ele><time>2026-05-03T09:14:47.001Z</time></trkpt><trkpt lat="37.98832517294501" lon="15.760277648397858"><ele>433.5</ele><time>2026-05-03T09:14:48.001Z</time></trkpt><trkpt lat="37.988446530696365" lon="15.760313448371917"><ele>421.75</ele><time>2026-05-03T09:14:49.001Z</time></trkpt><trkpt lat="37.988556674371424" lon="15.760290445992391"><ele>410.0</ele><time>2026-05-03T09:14:50.001Z</time></trkpt><trkpt lat="37.988710995905116" lon="15.760282019319758"><ele>409.66666666666663</ele><time>2026-05-03T09:14:51.001Z</time></trkpt><trkpt lat="37.988857135380876" lon="15.760281807635675"><ele>409.33333333333337</ele><time>2026-05-03T09:14:52.001Z</time></trkpt><trkpt lat="37.98900043794101" lon="15.760185126852205"><ele>409.0</ele><time>2026-05-03T09:14:53.001Z</time></trkpt><trkpt lat="37.98912518676038" lon="15.760075853127612"><ele>422.6666666666667</ele><time>2026-05-03T09:14:54.001Z</time></trkpt><trkpt lat="37.989261638225685" lon="15.760029109772201"><ele>436.33333333333337</ele><time>2026-05-03T09:14:55.001Z</time></trkpt><trkpt lat="37.98941726067726" lon="15.759995306860427"><ele>450.0</ele><time>2026-05-03T09:14:56.001Z</time></trkpt><trkpt lat="37.98957417320667" lon="15.75999262426039"><ele>450.0</ele><time>2026-05-03T09:14:57.001Z</time></trkpt><trkpt lat="37.98973365146238" lon="15.759992412370647"><ele>450.0</ele><time>2026-05-03T09:14:58.001Z</time></trkpt><trkpt lat="37.98985515412255" lon="15.759919477929058"><ele>450.0</ele><time>2026-05-03T09:14:59.001Z</time></trkpt><trkpt lat="37.989970719574714" lon="15.759841206106595"><ele>450.0</ele><time>2026-05-03T09:15:00.001Z</time></trkpt><trkpt lat="37.99007151347614" lon="15.759717816927973"><ele>454.3333333333333</ele><time>2026-05-03T09:15:01.001Z</time></trkpt><trkpt lat="37.99013467912949" lon="15.759585486693778"><ele>458.66666666666663</ele><time>2026-05-03T09:15:02.001Z</time></trkpt><trkpt lat="37.990181692565805" lon="15.759481257744968"><ele>463.0</ele><time>2026-05-03T09:15:03.001Z</time></trkpt><trkpt lat="37.990228904443384" lon="15.75942551926285"><ele>467.3333333333333</ele><time>2026-05-03T09:15:04.001Z</time></trkpt><trkpt lat="37.99029789526976" lon="15.759391823654829"><ele>471.66666666666663</ele><time>2026-05-03T09:15:05.001Z</time></trkpt><trkpt lat="37.99038689639844" lon="15.759390072988134"><ele>476.0</ele><time>2026-05-03T09:15:06.001Z</time></trkpt><trkpt lat="37.99050106576534" lon="15.759561154054028"><ele>476.0</ele><time>2026-05-03T09:15:07.001Z</time></trkpt><trkpt lat="37.99056617738641" lon="15.759720682002706"><ele>476.0</ele><time>2026-05-03T09:15:08.001Z</time></trkpt><trkpt lat="37.99064145216913" lon="15.75985952224286"><ele>476.0</ele><time>2026-05-03T09:15:09.001Z</time></trkpt><trkpt lat="37.990694304560236" lon="15.759999940596929"><ele>476.0</ele><time>2026-05-03T09:15:10.001Z</time></trkpt><trkpt lat="37.99071039341026" lon="15.760160487271405"><ele>469.0</ele><time>2026-05-03T09:15:11.001Z</time></trkpt><trkpt lat="37.99068479122271" lon="15.760341232305757"><ele>462.0</ele><time>2026-05-03T09:15:12.001Z</time></trkpt><trkpt lat="37.990645537784864" lon="15.760514494126786"><ele>455.0</ele><time>2026-05-03T09:15:13.001Z</time></trkpt><trkpt lat="37.99063773745031" lon="15.760674016583586"><ele>448.0</ele><time>2026-05-03T09:15:14.001Z</time></trkpt><trkpt lat="37.99064382974855" lon="15.760801291235714"><ele>448.0</ele><time>2026-05-03T09:15:15.001Z</time></trkpt><trkpt lat="37.990685966667286" lon="15.760890006409785"><ele>448.0</ele><time>2026-05-03T09:15:16.001Z</time></trkpt><trkpt lat="37.99082022000159" lon="15.76088294936276"><ele>448.0</ele><time>2026-05-03T09:15:17.001Z</time></trkpt><trkpt lat="37.99094129351285" lon="15.760812174010184"><ele>448.0</ele><time>2026-05-03T09:15:18.001Z</time></trkpt><trkpt lat="37.99107218992683" lon="15.760746378857439"><ele>452.0</ele><time>2026-05-03T09:15:19.001Z</time></trkpt><trkpt lat="37.991223741647815" lon="15.760682660928428"><ele>456.0</ele><time>2026-05-03T09:15:20.001Z</time></trkpt><trkpt lat="37.99134956712529" lon="15.760637974144071"><ele>460.0</ele><time>2026-05-03T09:15:21.001Z</time></trkpt><trkpt lat="37.991465109280874" lon="15.760622423836665"><ele>464.0</ele><time>2026-05-03T09:15:22.001Z</time></trkpt><trkpt lat="37.99156823726999" lon="15.760656764258691"><ele>464.0</ele><time>2026-05-03T09:15:23.001Z</time></trkpt><trkpt lat="37.99166314402984" lon="15.760769584859817"><ele>464.0</ele><time>2026-05-03T09:15:24.001Z</time></trkpt><trkpt lat="37.991757756519725" lon="15.760897615124202"><ele>464.0</ele><time>2026-05-03T09:15:25.001Z</time></trkpt><trkpt lat="37.9918696642422" lon="15.760969372274586"><ele>464.0</ele><time>2026-05-03T09:15:26.001Z</time></trkpt><trkpt lat="37.99196471746881" lon="15.761037669191227"><ele>462.0</ele><time>2026-05-03T09:15:27.001Z</time></trkpt><trkpt lat="37.99207836786205" lon="15.761046024230865"><ele>460.0</ele><time>2026-05-03T09:15:28.001Z</time></trkpt><trkpt lat="37.992190951444364" lon="15.760953073908185"><ele>458.0</ele><time>2026-05-03T09:15:29.001Z</time></trkpt><trkpt lat="37.99226965911785" lon="15.760802587724381"><ele>456.0</ele><time>2026-05-03T09:15:30.001Z</time></trkpt><trkpt lat="37.99229208795445" lon="15.760610529810759"><ele>456.0</ele><time>2026-05-03T09:15:31.001Z</time></trkpt><trkpt lat="37.99230077325341" lon="15.76043205463275"><ele>456.0</ele><time>2026-05-03T09:15:32.001Z</time></trkpt><trkpt lat="37.99233882997357" lon="15.76026037595878"><ele>456.0</ele><time>2026-05-03T09:15:33.001Z</time></trkpt><trkpt lat="37.99240735441761" lon="15.760134541696"><ele>456.0</ele><time>2026-05-03T09:15:34.001Z</time></trkpt><trkpt lat="37.99249514661053" lon="15.76003730261747"><ele>458.5</ele><time>2026-05-03T09:15:35.001Z</time></trkpt><trkpt lat="37.992599052760944" lon="15.759949816578015"><ele>461.0</ele><time>2026-05-03T09:15:36.001Z</time></trkpt><trkpt lat="37.99273638808907" lon="15.759886222231568"><ele>463.5</ele><time>2026-05-03T09:15:37.001Z</time></trkpt><trkpt lat="37.992804205772494" lon="15.759760404627508"><ele>466.0</ele><time>2026-05-03T09:15:38.001Z</time></trkpt><trkpt lat="37.992876348556756" lon="15.759642510691673"><ele>466.0</ele><time>2026-05-03T09:15:39.001Z</time></trkpt><trkpt lat="37.992967527209466" lon="15.759555021729202"><ele>466.0</ele><time>2026-05-03T09:15:40.001Z</time></trkpt><trkpt lat="37.99306153425396" lon="15.759498732054936"><ele>466.0</ele><time>2026-05-03T09:15:41.001Z</time></trkpt><trkpt lat="37.993178007843" lon="15.759502229039118"><ele>466.0</ele><time>2026-05-03T09:15:42.001Z</time></trkpt><trkpt lat="37.99332269757472" lon="15.759530032779624"><ele>470.0</ele><time>2026-05-03T09:15:43Z</time></trkpt><trkpt lat="37.993461287649914" lon="15.759578499998154"><ele>474.0</ele><time>2026-05-03T09:15:44Z</time></trkpt><trkpt lat="37.99358933589479" lon="15.759585657828174"><ele>478.0</ele><time>2026-05-03T09:15:45Z</time></trkpt><trkpt lat="37.993718007638684" lon="15.759589342712708"><ele>482.0</ele><time>2026-05-03T09:15:46Z</time></trkpt><trkpt lat="37.99385120629631" lon="15.759607541862886"><ele>482.0</ele><time>2026-05-03T09:15:47Z</time></trkpt><trkpt lat="37.99398639215449" lon="15.759702275684068"><ele>482.0</ele><time>2026-05-03T09:15:48Z</time></trkpt><trkpt lat="37.99409820261976" lon="15.759840704749013"><ele>482.0</ele><time>2026-05-03T09:15:49Z</time></trkpt><trkpt lat="37.99420911689845" lon="15.759964920038945"><ele>481.75</ele><time>2026-05-03T09:15:50Z</time></trkpt><trkpt lat="37.994283242186434" lon="15.760126530437324"><ele>481.5</ele><time>2026-05-03T09:15:51Z</time></trkpt><trkpt lat="37.99436245953086" lon="15.760269252947422"><ele>481.25</ele><time>2026-05-03T09:15:52Z</time></trkpt><trkpt lat="37.994415582485196" lon="15.760444685893066"><ele>481.0</ele><time>2026-05-03T09:15:53Z</time></trkpt><trkpt lat="37.99443792446626" lon="15.760623629090626"><ele>478.0</ele><time>2026-05-03T09:15:54Z</time></trkpt><trkpt lat="37.994448978008144" lon="15.760778202064328"><ele>475.0</ele><time>2026-05-03T09:15:55Z</time></trkpt><trkpt lat="37.994503119139814" lon="15.760920964547648"><ele>472.0</ele><time>2026-05-03T09:15:56Z</time></trkpt><trkpt lat="37.994583762014244" lon="15.76100106309542"><ele>469.0</ele><time>2026-05-03T09:15:57Z</time></trkpt><trkpt lat="37.99465267519309" lon="15.761013920915055"><ele>466.0</ele><time>2026-05-03T09:15:58Z</time></trkpt><trkpt lat="37.99476242009569" lon="15.760942153673945"><ele>466.0</ele><time>2026-05-03T09:15:59Z</time></trkpt><trkpt lat="37.994852948087754" lon="15.760800502829186"><ele>466.0</ele><time>2026-05-03T09:16:00Z</time></trkpt><trkpt lat="37.994896727406456" lon="15.760550199527955"><ele>466.0</ele><time>2026-05-03T09:16:01Z</time></trkpt><trkpt lat="37.99488456649453" lon="15.76038617686063"><ele>466.0</ele><time>2026-05-03T09:16:02Z</time></trkpt><trkpt lat="37.99490135841649" lon="15.760214407515877"><ele>466.0</ele><time>2026-05-03T09:16:03Z</time></trkpt><trkpt lat="37.99492914374601" lon="15.760021803064374"><ele>466.0</ele><time>2026-05-03T09:16:04Z</time></trkpt><trkpt lat="37.994975676353356" lon="15.75983801799654"><ele>466.0</ele><time>2026-05-03T09:16:05Z</time></trkpt><trkpt lat="37.995025067907456" lon="15.759652104146191"><ele>468.25</ele><time>2026-05-03T09:16:06Z</time></trkpt><trkpt lat="37.99507650414337" lon="15.759467618398977"><ele>470.5</ele><time>2026-05-03T09:16:07Z</time></trkpt><trkpt lat="37.99511111434579" lon="15.759289783291129"><ele>472.75</ele><time>2026-05-03T09:16:08Z</time></trkpt><trkpt lat="37.995134269739275" lon="15.759147787760615"><ele>475.0</ele><time>2026-05-03T09:16:09Z</time></trkpt><trkpt lat="37.99517866540229" lon="15.759079032147609"><ele>479.4</ele><time>2026-05-03T09:16:10Z</time></trkpt><trkpt lat="37.99524125941978" lon="15.759008893097702"><ele>483.8</ele><time>2026-05-03T09:16:11Z</time></trkpt><trkpt lat="37.99532885003284" lon="15.758956595555146"><ele>488.20000000000005</ele><time>2026-05-03T09:16:12Z</time></trkpt><trkpt lat="37.99543739174736" lon="15.758932026877856"><ele>492.6</ele><time>2026-05-03T09:16:13Z</time></trkpt><trkpt lat="37.995552884118005" lon="15.75894587517785"><ele>497.0</ele><time>2026-05-03T09:16:14Z</time></trkpt><trkpt lat="37.99566459215308" lon="15.758972269038107"><ele>497.0</ele><time>2026-05-03T09:16:15Z</time></trkpt><trkpt lat="37.99579421213891" lon="15.759084113336776"><ele>497.0</ele><time>2026-05-03T09:16:16Z</time></trkpt><trkpt lat="37.99590490669636" lon="15.75919880199155"><ele>497.0</ele><time>2026-05-03T09:16:17.001Z</time></trkpt><trkpt lat="37.99597807563187" lon="15.759371078138445"><ele>498.3333333333333</ele><time>2026-05-03T09:16:18.001Z</time></trkpt><trkpt lat="37.99606034069402" lon="15.75956868603206"><ele>499.66666666666663</ele><time>2026-05-03T09:16:19.001Z</time></trkpt><trkpt lat="37.996154055919774" lon="15.759756607324869"><ele>501.0</ele><time>2026-05-03T09:16:20.001Z</time></trkpt><trkpt lat="37.99626036830861" lon="15.759922369708576"><ele>501.0</ele><time>2026-05-03T09:16:21.001Z</time></trkpt><trkpt lat="37.996361098795084" lon="15.760109791787874"><ele>501.0</ele><time>2026-05-03T09:16:22.001Z</time></trkpt><trkpt lat="37.99646007847533" lon="15.760266010242265"><ele>501.0</ele><time>2026-05-03T09:16:23.001Z</time></trkpt><trkpt lat="37.99654427511998" lon="15.760403185031938"><ele>496.0</ele><time>2026-05-03T09:16:24.001Z</time></trkpt><trkpt lat="37.99661975106543" lon="15.760514983217726"><ele>491.0</ele><time>2026-05-03T09:16:25.001Z</time></trkpt><trkpt lat="37.99670605057059" lon="15.760596972380712"><ele>486.0</ele><time>2026-05-03T09:16:26.001Z</time></trkpt><trkpt lat="37.996833715229705" lon="15.760636508162436"><ele>481.0</ele><time>2026-05-03T09:16:27.001Z</time></trkpt><trkpt lat="37.99696094923524" lon="15.760671647769179"><ele>481.0</ele><time>2026-05-03T09:16:28.001Z</time></trkpt><trkpt lat="37.9970764352673" lon="15.760710262161588"><ele>481.0</ele><time>2026-05-03T09:16:29.001Z</time></trkpt><trkpt lat="37.99719644862246" lon="15.760742075924469"><ele>481.0</ele><time>2026-05-03T09:16:30.001Z</time></trkpt><trkpt lat="37.997306755101455" lon="15.760711097776204"><ele>481.0</ele><time>2026-05-03T09:16:31.001Z</time></trkpt><trkpt lat="37.99739185801409" lon="15.760639525549086"><ele>481.0</ele><time>2026-05-03T09:16:32.001Z</time></trkpt><trkpt lat="37.9974623723756" lon="15.760487633852447"><ele>481.0</ele><time>2026-05-03T09:16:33.001Z</time></trkpt><trkpt lat="37.99753202899246" lon="15.760313670601152"><ele>481.0</ele><time>2026-05-03T09:16:34.001Z</time></trkpt><trkpt lat="37.997605128228884" lon="15.760133037307405"><ele>479.6666666666667</ele><time>2026-05-03T09:16:35.001Z</time></trkpt><trkpt lat="37.99767335029412" lon="15.759946708581104"><ele>478.33333333333337</ele><time>2026-05-03T09:16:36.001Z</time></trkpt><trkpt lat="37.99772896228372" lon="15.759745480349622"><ele>477.0</ele><time>2026-05-03T09:16:37.001Z</time></trkpt><trkpt lat="37.997767581137616" lon="15.759555411096844"><ele>477.0</ele><time>2026-05-03T09:16:38.001Z</time></trkpt><trkpt lat="37.99780597693141" lon="15.759399111789836"><ele>477.0</ele><time>2026-05-03T09:16:39.001Z</time></trkpt><trkpt lat="37.99786075076507" lon="15.75927271087008"><ele>477.0</ele><time>2026-05-03T09:16:40.001Z</time></trkpt><trkpt lat="37.99795054847588" lon="15.759190003932463"><ele>477.0</ele><time>2026-05-03T09:16:41.001Z</time></trkpt><trkpt lat="37.998065422533855" lon="15.759142922909803"><ele>480.0</ele><time>2026-05-03T09:16:42.001Z</time></trkpt><trkpt lat="37.998182091743644" lon="15.759107453016627"><ele>483.0</ele><time>2026-05-03T09:16:43.001Z</time></trkpt><trkpt lat="37.99835014841571" lon="15.759096553948929"><ele>486.0</ele><time>2026-05-03T09:16:44.001Z</time></trkpt><trkpt lat="37.99850486166156" lon="15.759088544606884"><ele>489.0</ele><time>2026-05-03T09:16:45.001Z</time></trkpt><trkpt lat="37.99866074517665" lon="15.759063026803059"><ele>493.0</ele><time>2026-05-03T09:16:46.001Z</time></trkpt><trkpt lat="37.99879213440548" lon="15.75903801958383"><ele>497.0</ele><time>2026-05-03T09:16:47.001Z</time></trkpt><trkpt lat="37.99891133681547" lon="15.759063166758843"><ele>501.0</ele><time>2026-05-03T09:16:48.001Z</time></trkpt><trkpt lat="37.99898651071848" lon="15.759105068251362"><ele>505.0</ele><time>2026-05-03T09:16:49.001Z</time></trkpt><trkpt lat="37.9990708342374" lon="15.759217456177746"><ele>505.0</ele><time>2026-05-03T09:16:50.001Z</time></trkpt><trkpt lat="37.99914473653185" lon="15.759349992830145"><ele>505.0</ele><time>2026-05-03T09:16:51.001Z</time></trkpt><trkpt lat="37.99924754513063" lon="15.759500010761325"><ele>505.0</ele><time>2026-05-03T09:16:52.001Z</time></trkpt><trkpt lat="37.99936395726478" lon="15.759563467833445"><ele>505.0</ele><time>2026-05-03T09:16:53.001Z</time></trkpt><trkpt lat="37.9994787840495" lon="15.759620279241819"><ele>506.33333333333337</ele><time>2026-05-03T09:16:54.001Z</time></trkpt><trkpt lat="37.999573150138104" lon="15.7597093343229"><ele>507.66666666666663</ele><time>2026-05-03T09:16:55.001Z</time></trkpt><trkpt lat="37.99963660105046" lon="15.759894411125861"><ele>509.0</ele><time>2026-05-03T09:16:56.001Z</time></trkpt><trkpt lat="37.999655556398395" lon="15.760121458512106"><ele>506.0</ele><time>2026-05-03T09:16:57.001Z</time></trkpt><trkpt lat="37.99971169402477" lon="15.76031055729593"><ele>503.0</ele><time>2026-05-03T09:16:58.001Z</time></trkpt><trkpt lat="37.99977601227408" lon="15.760487195279707"><ele>500.0</ele><time>2026-05-03T09:16:59.001Z</time></trkpt><trkpt lat="37.9998286450571" lon="15.760646437940043"><ele>497.0</ele><time>2026-05-03T09:17:00.001Z</time></trkpt><trkpt lat="37.99987217559376" lon="15.760818904493295"><ele>497.0</ele><time>2026-05-03T09:17:01.001Z</time></trkpt><trkpt lat="37.99992409308931" lon="15.760908345923907"><ele>497.00000000000006</ele><time>2026-05-03T09:17:02.001Z</time></trkpt><trkpt lat="38.00001450295457" lon="15.76094591705363"><ele>497.00000000000006</ele><time>2026-05-03T09:17:03.001Z</time></trkpt><trkpt lat="38.000115876691176" lon="15.760919999012023"><ele>497.0</ele><time>2026-05-03T09:17:04.001Z</time></trkpt><trkpt lat="38.00019543427253" lon="15.760823954423495"><ele>497.0</ele><time>2026-05-03T09:17:05.001Z</time></trkpt><trkpt lat="38.000253078996266" lon="15.760724887718357"><ele>497.0</ele><time>2026-05-03T09:17:06.001Z</time></trkpt><trkpt lat="38.00030011745857" lon="15.760550093736018"><ele>497.0</ele><time>2026-05-03T09:17:07.001Z</time></trkpt><trkpt lat="38.00034425527305" lon="15.760308164229292"><ele>497.0</ele><time>2026-05-03T09:17:08.001Z</time></trkpt><trkpt lat="38.00034399142192" lon="15.760107772344192"><ele>500.0</ele><time>2026-05-03T09:17:09.001Z</time></trkpt><trkpt lat="38.00039805509637" lon="15.759939346597466"><ele>503.0</ele><time>2026-05-03T09:17:10.001Z</time></trkpt><trkpt lat="38.000470370738284" lon="15.759812288986213"><ele>506.0</ele><time>2026-05-03T09:17:11.001Z</time></trkpt><trkpt lat="38.00055701563056" lon="15.759720389465727"><ele>509.0</ele><time>2026-05-03T09:17:12.001Z</time></trkpt><trkpt lat="38.000659568707086" lon="15.759670518377863"><ele>509.0</ele><time>2026-05-03T09:17:13.001Z</time></trkpt><trkpt lat="38.00079957032465" lon="15.759651462806831"><ele>509.0</ele><time>2026-05-03T09:17:14.001Z</time></trkpt><trkpt lat="38.0009268063194" lon="15.759621993939481"><ele>509.0</ele><time>2026-05-03T09:17:15.001Z</time></trkpt><trkpt lat="38.00106160460076" lon="15.759577875009958"><ele>509.0</ele><time>2026-05-03T09:17:16.001Z</time></trkpt><trkpt lat="38.00122082875921" lon="15.759521922095448"><ele>507.4</ele><time>2026-05-03T09:17:17.001Z</time></trkpt><trkpt lat="38.0013310399828" lon="15.759491988172554"><ele>505.79999999999995</ele><time>2026-05-03T09:17:18.001Z</time></trkpt><trkpt lat="38.001432480215485" lon="15.75950117726835"><ele>504.20000000000005</ele><time>2026-05-03T09:17:19.001Z</time></trkpt><trkpt lat="38.001524248346406" lon="15.7595454375722"><ele>502.6</ele><time>2026-05-03T09:17:20.001Z</time></trkpt><trkpt lat="38.00159771902454" lon="15.759648788303169"><ele>501.0</ele><time>2026-05-03T09:17:21.001Z</time></trkpt><trkpt lat="38.001667172409874" lon="15.759788108754492"><ele>501.0</ele><time>2026-05-03T09:17:22.001Z</time></trkpt><trkpt lat="38.00175581350449" lon="15.759923760262849"><ele>501.0</ele><time>2026-05-03T09:17:23.001Z</time></trkpt><trkpt lat="38.0018555998083" lon="15.760077455972192"><ele>501.0</ele><time>2026-05-03T09:17:24.001Z</time></trkpt><trkpt lat="38.001967640230326" lon="15.760229739466547"><ele>496.33333333333337</ele><time>2026-05-03T09:17:25.001Z</time></trkpt><trkpt lat="38.0020885549451" lon="15.760376071640582"><ele>491.6666666666667</ele><time>2026-05-03T09:17:26.001Z</time></trkpt><trkpt lat="38.00220495891768" lon="15.760507101426999"><ele>487.0</ele><time>2026-05-03T09:17:27.001Z</time></trkpt><trkpt lat="38.00231285782742" lon="15.760593702827501"><ele>487.0</ele><time>2026-05-03T09:17:28.001Z</time></trkpt><trkpt lat="38.00241605024931" lon="15.760641988063982"><ele>487.0</ele><time>2026-05-03T09:17:29.001Z</time></trkpt><trkpt lat="38.002515433955544" lon="15.760660170219179"><ele>487.0</ele><time>2026-05-03T09:17:30.001Z</time></trkpt><trkpt lat="38.00262215963634" lon="15.760651015578482"><ele>487.0</ele><time>2026-05-03T09:17:31.001Z</time></trkpt><trkpt lat="38.00273389829554" lon="15.760532356788858"><ele>489.0</ele><time>2026-05-03T09:17:32.001Z</time></trkpt><trkpt lat="38.00286761386998" lon="15.760400564321797"><ele>491.0</ele><time>2026-05-03T09:17:33.001Z</time></trkpt><trkpt lat="38.00298761189784" lon="15.760310388481852"><ele>493.0</ele><time>2026-05-03T09:17:34.001Z</time></trkpt><trkpt lat="38.00310256189844" lon="15.760263038956833"><ele>495.0</ele><time>2026-05-03T09:17:35.001Z</time></trkpt><trkpt lat="38.00324414652268" lon="15.760266879536891"><ele>495.0</ele><time>2026-05-03T09:17:36.001Z</time></trkpt><trkpt lat="38.00339705766956" lon="15.760323601376971"><ele>495.0</ele><time>2026-05-03T09:17:37.001Z</time></trkpt><trkpt lat="38.00355346187372" lon="15.7603805704984"><ele>495.0</ele><time>2026-05-03T09:17:38.001Z</time></trkpt><trkpt lat="38.003720664251915" lon="15.760428435485156"><ele>495.0</ele><time>2026-05-03T09:17:39.001Z</time></trkpt><trkpt lat="38.00388038884858" lon="15.760447773718743"><ele>495.0</ele><time>2026-05-03T09:17:40.001Z</time></trkpt><trkpt lat="38.00402404703372" lon="15.760477063294758"><ele>495.0</ele><time>2026-05-03T09:17:41.001Z</time></trkpt><trkpt lat="38.004154493907066" lon="15.760503255810018"><ele>495.0</ele><time>2026-05-03T09:17:42.001Z</time></trkpt><trkpt lat="38.004275042273385" lon="15.760528333503375"><ele>495.2</ele><time>2026-05-03T09:17:43.001Z</time></trkpt><trkpt lat="38.00437111703149" lon="15.760537108362065"><ele>495.4</ele><time>2026-05-03T09:17:44.001Z</time></trkpt><trkpt lat="38.00443731988841" lon="15.76046053358053"><ele>495.6</ele><time>2026-05-03T09:17:45.001Z</time></trkpt><trkpt lat="38.00450965924805" lon="15.76039241515474"><ele>495.8</ele><time>2026-05-03T09:17:46.001Z</time></trkpt><trkpt lat="38.00456231805621" lon="15.7602910652255"><ele>496.0</ele><time>2026-05-03T09:17:47.001Z</time></trkpt><trkpt lat="38.004601996750104" lon="15.76018484804592"><ele>500.0</ele><time>2026-05-03T09:17:48Z</time></trkpt><trkpt lat="38.004635583830776" lon="15.76003402536417"><ele>504.0</ele><time>2026-05-03T09:17:49Z</time></trkpt><trkpt lat="38.0046521664768" lon="15.759920535615505"><ele>508.0</ele><time>2026-05-03T09:17:50Z</time></trkpt><trkpt lat="38.0046836880377" lon="15.75981382874666"><ele>512.0</ele><time>2026-05-03T09:17:51Z</time></trkpt><trkpt lat="38.00472370553993" lon="15.7597101081172"><ele>516.0</ele><time>2026-05-03T09:17:52Z</time></trkpt><trkpt lat="38.0047729250368" lon="15.759593333099545"><ele>516.0</ele><time>2026-05-03T09:17:53Z</time></trkpt><trkpt lat="38.00483147248128" lon="15.759460741899154"><ele>516.0</ele><time>2026-05-03T09:17:54Z</time></trkpt><trkpt lat="38.00488550124607" lon="15.759307604658991"><ele>516.0</ele><time>2026-05-03T09:17:55Z</time></trkpt><trkpt lat="38.00497635559737" lon="15.759183643609482"><ele>516.0</ele><time>2026-05-03T09:17:56Z</time></trkpt><trkpt lat="38.00506984635329" lon="15.759042109094997"><ele>515.4</ele><time>2026-05-03T09:17:57Z</time></trkpt><trkpt lat="38.005139485062905" lon="15.75892295063649"><ele>514.8</ele><time>2026-05-03T09:17:58Z</time></trkpt><trkpt lat="38.005182346475465" lon="15.758818853693898"><ele>514.1999999999999</ele><time>2026-05-03T09:17:59Z</time></trkpt><trkpt lat="38.00524440803068" lon="15.758715635161291"><ele>513.6</ele><time>2026-05-03T09:18:00Z</time></trkpt><trkpt lat="38.00530541614173" lon="15.758627066477054"><ele>513.0</ele><time>2026-05-03T09:18:01Z</time></trkpt><trkpt lat="38.00536589117158" lon="15.758558283936958"><ele>513.0</ele><time>2026-05-03T09:18:02Z</time></trkpt><trkpt lat="38.00544776506485" lon="15.758525292863402"><ele>513.0</ele><time>2026-05-03T09:18:03Z</time></trkpt><trkpt lat="38.00554436963842" lon="15.758541805267026"><ele>513.0</ele><time>2026-05-03T09:18:04Z</time></trkpt><trkpt lat="38.005632847441234" lon="15.75856686255647"><ele>513.0</ele><time>2026-05-03T09:18:05Z</time></trkpt><trkpt lat="38.00573194684197" lon="15.758672989436345"><ele>513.0</ele><time>2026-05-03T09:18:06Z</time></trkpt><trkpt lat="38.00582923630149" lon="15.758847038461065"><ele>510.66666666666663</ele><time>2026-05-03T09:18:07Z</time></trkpt><trkpt lat="38.00593530464534" lon="15.758970635725378"><ele>508.3333333333333</ele><time>2026-05-03T09:18:08Z</time></trkpt><trkpt lat="38.00605791506038" lon="15.759099464009171"><ele>506.0</ele><time>2026-05-03T09:18:09Z</time></trkpt><trkpt lat="38.00617775444723" lon="15.759219616041133"><ele>506.0</ele><time>2026-05-03T09:18:10Z</time></trkpt><trkpt lat="38.006282192943836" lon="15.759330710809765"><ele>506.0</ele><time>2026-05-03T09:18:11Z</time></trkpt><trkpt lat="38.006378286856155" lon="15.75943397833811"><ele>506.0</ele><time>2026-05-03T09:18:12Z</time></trkpt><trkpt lat="38.0064793118861" lon="15.759518002744356"><ele>506.0</ele><time>2026-05-03T09:18:13Z</time></trkpt><trkpt lat="38.00657954206423" lon="15.759568177854426"><ele>505.75</ele><time>2026-05-03T09:18:14Z</time></trkpt><trkpt lat="38.00670152631735" lon="15.759589761373249"><ele>505.5</ele><time>2026-05-03T09:18:15Z</time></trkpt><trkpt lat="38.00682214737998" lon="15.759583859321587"><ele>505.25</ele><time>2026-05-03T09:18:16Z</time></trkpt><trkpt lat="38.00695893527865" lon="15.759580952148895"><ele>505.0</ele><time>2026-05-03T09:18:17Z</time></trkpt><trkpt lat="38.00712059475216" lon="15.759551418095405"><ele>505.0</ele><time>2026-05-03T09:18:18Z</time></trkpt><trkpt lat="38.0072821300379" lon="15.759478605760947"><ele>505.0</ele><time>2026-05-03T09:18:19Z</time></trkpt><trkpt lat="38.00740027658355" lon="15.759440333170808"><ele>505.0</ele><time>2026-05-03T09:18:20Z</time></trkpt><trkpt lat="38.00749013970125" lon="15.759444217372877"><ele>505.0</ele><time>2026-05-03T09:18:21Z</time></trkpt><trkpt lat="38.007583674327755" lon="15.759472281793313"><ele>507.0</ele><time>2026-05-03T09:18:22Z</time></trkpt><trkpt lat="38.007669745137726" lon="15.759524118715548"><ele>509.0</ele><time>2026-05-03T09:18:23Z</time></trkpt><trkpt lat="38.00776269487639" lon="15.759599408445759"><ele>511.0</ele><time>2026-05-03T09:18:24Z</time></trkpt><trkpt lat="38.007833681222074" lon="15.75973604228062"><ele>513.0</ele><time>2026-05-03T09:18:25Z</time></trkpt><trkpt lat="38.00790326343807" lon="15.759847686072273"><ele>515.0</ele><time>2026-05-03T09:18:26Z</time></trkpt><trkpt lat="38.00797283103139" lon="15.760005811280463"><ele>515.0</ele><time>2026-05-03T09:18:27Z</time></trkpt><trkpt lat="38.00809406273523" lon="15.760109713570815"><ele>515.0</ele><time>2026-05-03T09:18:28Z</time></trkpt><trkpt lat="38.0081770355233" lon="15.76018483226785"><ele>515.0</ele><time>2026-05-03T09:18:29.001Z</time></trkpt><trkpt lat="38.00822085743489" lon="15.760260194434206"><ele>515.0</ele><time>2026-05-03T09:18:30.001Z</time></trkpt><trkpt lat="38.00817022918875" lon="15.760437222760281"><ele>515.25</ele><time>2026-05-03T09:18:32.001Z</time></trkpt><trkpt lat="38.008119554872245" lon="15.760526064052897"><ele>515.5</ele><time>2026-05-03T09:18:33.001Z</time></trkpt><trkpt lat="38.00805122530181" lon="15.760641884735273"><ele>515.75</ele><time>2026-05-03T09:18:34.001Z</time></trkpt><trkpt lat="38.007949989106955" lon="15.7607655769921"><ele>516.0</ele><time>2026-05-03T09:18:35.001Z</time></trkpt><trkpt lat="38.0079115099556" lon="15.760919887100059"><ele>515.0</ele><time>2026-05-03T09:18:36.001Z</time></trkpt><trkpt lat="38.007956395235645" lon="15.761054242816245"><ele>514.0</ele><time>2026-05-03T09:18:37.001Z</time></trkpt><trkpt lat="38.008009823265965" lon="15.761192530336036"><ele>513.0</ele><time>2026-05-03T09:18:38.001Z</time></trkpt><trkpt lat="38.00803787706249" lon="15.761319326128868"><ele>512.0</ele><time>2026-05-03T09:18:39.001Z</time></trkpt><trkpt lat="38.00808668132424" lon="15.761443530941936"><ele>511.0</ele><time>2026-05-03T09:18:40.001Z</time></trkpt><trkpt lat="38.00821467807355" lon="15.761516940207253"><ele>514.3333333333334</ele><time>2026-05-03T09:18:41.001Z</time></trkpt><trkpt lat="38.00839002610242" lon="15.76167543476277"><ele>517.6666666666666</ele><time>2026-05-03T09:18:42.001Z</time></trkpt><trkpt lat="38.00851126640396" lon="15.761797206054094"><ele>521.0</ele><time>2026-05-03T09:18:43.001Z</time></trkpt><trkpt lat="38.008607663331254" lon="15.761905258372236"><ele>521.0</ele><time>2026-05-03T09:18:44.001Z</time></trkpt><trkpt lat="38.008702800248614" lon="15.762003455032234"><ele>521.0</ele><time>2026-05-03T09:18:45.001Z</time></trkpt><trkpt lat="38.00876495663427" lon="15.762079019049462"><ele>521.0</ele><time>2026-05-03T09:18:46.001Z</time></trkpt><trkpt lat="38.00884791714738" lon="15.762138193336654"><ele>521.0</ele><time>2026-05-03T09:18:48.001Z</time></trkpt><trkpt lat="38.00891981202896" lon="15.762130195597392"><ele>521.0</ele><time>2026-05-03T09:18:49.001Z</time></trkpt><trkpt lat="38.00900080097603" lon="15.76213316169375"><ele>521.0</ele><time>2026-05-03T09:18:50.001Z</time></trkpt><trkpt lat="38.009102171211836" lon="15.762052148307829"><ele>521.0</ele><time>2026-05-03T09:18:51.001Z</time></trkpt><trkpt lat="38.0091966775034" lon="15.762020159768403"><ele>521.0</ele><time>2026-05-03T09:18:52.001Z</time></trkpt><trkpt lat="38.00926095846275" lon="15.762097308555749"><ele>521.0</ele><time>2026-05-03T09:18:53.001Z</time></trkpt><trkpt lat="38.00937470955407" lon="15.762226103759135"><ele>525.0</ele><time>2026-05-03T09:18:54.001Z</time></trkpt><trkpt lat="38.00948805768332" lon="15.762336683456216"><ele>529.0</ele><time>2026-05-03T09:18:55.001Z</time></trkpt><trkpt lat="38.00960485611548" lon="15.762456441003064"><ele>533.0</ele><time>2026-05-03T09:18:56.001Z</time></trkpt><trkpt lat="38.00972154710982" lon="15.762565935939985"><ele>537.0</ele><time>2026-05-03T09:18:57.001Z</time></trkpt><trkpt lat="38.009841216473305" lon="15.762665149562002"><ele>540.25</ele><time>2026-05-03T09:18:58.001Z</time></trkpt><trkpt lat="38.01000038611811" lon="15.762673847520338"><ele>543.5</ele><time>2026-05-03T09:18:59.001Z</time></trkpt><trkpt lat="38.010114780547035" lon="15.762707246141778"><ele>546.75</ele><time>2026-05-03T09:19:00.001Z</time></trkpt><trkpt lat="38.010220465766146" lon="15.762771004738134"><ele>550.0</ele><time>2026-05-03T09:19:01.001Z</time></trkpt><trkpt lat="38.010310437212745" lon="15.762836562504203"><ele>550.0</ele><time>2026-05-03T09:19:02.001Z</time></trkpt><trkpt lat="38.01038783398015" lon="15.762912612573384"><ele>550.0</ele><time>2026-05-03T09:19:03.001Z</time></trkpt><trkpt lat="38.01043705839219" lon="15.763043612795569"><ele>550.0</ele><time>2026-05-03T09:19:04.001Z</time></trkpt><trkpt lat="38.01038049841345" lon="15.763284521110009"><ele>550.0</ele><time>2026-05-03T09:19:05.001Z</time></trkpt><trkpt lat="38.01032284750597" lon="15.763403695127518"><ele>550.0</ele><time>2026-05-03T09:19:06.001Z</time></trkpt><trkpt lat="38.01043987116546" lon="15.763504750837042"><ele>550.0</ele><time>2026-05-03T09:19:07.001Z</time></trkpt><trkpt lat="38.01049131712989" lon="15.763575647283027"><ele>550.0</ele><time>2026-05-03T09:19:08.001Z</time></trkpt><trkpt lat="38.010599579610385" lon="15.763616712944039"><ele>550.0</ele><time>2026-05-03T09:19:09.001Z</time></trkpt><trkpt lat="38.01072934397803" lon="15.76359792247874"><ele>550.25</ele><time>2026-05-03T09:19:10.001Z</time></trkpt><trkpt lat="38.01084915439605" lon="15.763558216607937"><ele>550.5</ele><time>2026-05-03T09:19:11.001Z</time></trkpt><trkpt lat="38.01094204992708" lon="15.763486478381099"><ele>550.75</ele><time>2026-05-03T09:19:12.001Z</time></trkpt><trkpt lat="38.011014582963" lon="15.763381838599837"><ele>551.0</ele><time>2026-05-03T09:19:13.001Z</time></trkpt><trkpt lat="38.01108086885209" lon="15.763268257335415"><ele>551.0</ele><time>2026-05-03T09:19:14.001Z</time></trkpt><trkpt lat="38.01115548056375" lon="15.763200059415647"><ele>551.0</ele><time>2026-05-03T09:19:15.001Z</time></trkpt><trkpt lat="38.01122791536445" lon="15.763193972016353"><ele>551.0</ele><time>2026-05-03T09:19:16.001Z</time></trkpt><trkpt lat="38.011262386374234" lon="15.763396288360836"><ele>551.0</ele><time>2026-05-03T09:19:17.001Z</time></trkpt><trkpt lat="38.01130886495695" lon="15.763451221721276"><ele>551.0</ele><time>2026-05-03T09:19:18.001Z</time></trkpt><trkpt lat="38.01131915454532" lon="15.76358511683019"><ele>551.0</ele><time>2026-05-03T09:19:19.001Z</time></trkpt><trkpt lat="38.01133245577855" lon="15.763697129686518"><ele>551.0</ele><time>2026-05-03T09:19:20.001Z</time></trkpt><trkpt lat="38.011397614327" lon="15.763796060097404"><ele>551.0</ele><time>2026-05-03T09:19:21.001Z</time></trkpt><trkpt lat="38.011465277406614" lon="15.763886138933492"><ele>551.0</ele><time>2026-05-03T09:19:22.001Z</time></trkpt><trkpt lat="38.01154662698609" lon="15.763974523423341"><ele>551.0</ele><time>2026-05-03T09:19:23.001Z</time></trkpt><trkpt lat="38.01164504586348" lon="15.764012101582423"><ele>553.4</ele><time>2026-05-03T09:19:24.001Z</time></trkpt><trkpt lat="38.011742837002764" lon="15.764041214457903"><ele>555.8</ele><time>2026-05-03T09:19:25.001Z</time></trkpt><trkpt lat="38.0118319545065" lon="15.763991023843452"><ele>558.1999999999999</ele><time>2026-05-03T09:19:26.001Z</time></trkpt><trkpt lat="38.0119142944649" lon="15.763944818330954"><ele>560.6</ele><time>2026-05-03T09:19:27.001Z</time></trkpt><trkpt lat="38.01198918225677" lon="15.763853697334259"><ele>563.0</ele><time>2026-05-03T09:19:28.001Z</time></trkpt><trkpt lat="38.01206878729795" lon="15.763770794186074"><ele>563.0</ele><time>2026-05-03T09:19:29.001Z</time></trkpt><trkpt lat="38.01214832540187" lon="15.763723053607931"><ele>563.0</ele><time>2026-05-03T09:19:30.001Z</time></trkpt><trkpt lat="38.01219998667972" lon="15.763808042122925"><ele>563.0</ele><time>2026-05-03T09:19:31.001Z</time></trkpt><trkpt lat="38.01219988677217" lon="15.763980903479341"><ele>563.0</ele><time>2026-05-03T09:19:32.001Z</time></trkpt><trkpt lat="38.01219497780855" lon="15.764103873726759"><ele>563.0</ele><time>2026-05-03T09:19:33.001Z</time></trkpt><trkpt lat="38.01220597107945" lon="15.76422953002693"><ele>563.0</ele><time>2026-05-03T09:19:34.001Z</time></trkpt><trkpt lat="38.01225573025191" lon="15.764312303020004"><ele>563.0</ele><time>2026-05-03T09:19:35.001Z</time></trkpt><trkpt lat="38.01231702953238" lon="15.764360123912143"><ele>563.0</ele><time>2026-05-03T09:19:36.001Z</time></trkpt><trkpt lat="38.01242224763217" lon="15.764367407228942"><ele>563.0</ele><time>2026-05-03T09:19:37.001Z</time></trkpt><trkpt lat="38.01253315604576" lon="15.76436945156116"><ele>563.0</ele><time>2026-05-03T09:19:38.001Z</time></trkpt><trkpt lat="38.01264370914843" lon="15.764359187553419"><ele>566.4</ele><time>2026-05-03T09:19:39.001Z</time></trkpt><trkpt lat="38.01272228605598" lon="15.764320232458555"><ele>569.8</ele><time>2026-05-03T09:19:40.001Z</time></trkpt><trkpt lat="38.012811525934985" lon="15.764236268752548"><ele>573.2</ele><time>2026-05-03T09:19:41.001Z</time></trkpt><trkpt lat="38.01291523439579" lon="15.764164065569942"><ele>576.6</ele><time>2026-05-03T09:19:42.001Z</time></trkpt><trkpt lat="38.01299160030463" lon="15.764156342649503"><ele>580.0</ele><time>2026-05-03T09:19:43.001Z</time></trkpt><trkpt lat="38.01305912573515" lon="15.764161723294773"><ele>580.0</ele><time>2026-05-03T09:19:44.001Z</time></trkpt><trkpt lat="38.01311012180232" lon="15.764279477705339"><ele>580.0</ele><time>2026-05-03T09:19:45.001Z</time></trkpt><trkpt lat="38.013085996617086" lon="15.764418232880526"><ele>580.0</ele><time>2026-05-03T09:19:46.001Z</time></trkpt><trkpt lat="38.01300791662792" lon="15.764594831815561"><ele>580.0</ele><time>2026-05-03T09:19:47.001Z</time></trkpt><trkpt lat="38.01303361569481" lon="15.764691824324027"><ele>577.75</ele><time>2026-05-03T09:19:48.001Z</time></trkpt><trkpt lat="38.01311707933609" lon="15.764780707131623"><ele>575.5</ele><time>2026-05-03T09:19:49.001Z</time></trkpt><trkpt lat="38.01324169312778" lon="15.764820835919819"><ele>573.25</ele><time>2026-05-03T09:19:50.001Z</time></trkpt><trkpt lat="38.01334483339659" lon="15.764830821989948"><ele>571.0</ele><time>2026-05-03T09:19:51.001Z</time></trkpt><trkpt lat="38.013461932767214" lon="15.764803109167813"><ele>575.5</ele><time>2026-05-03T09:19:52Z</time></trkpt><trkpt lat="38.01358138584065" lon="15.764723338670457"><ele>580.0</ele><time>2026-05-03T09:19:53Z</time></trkpt><trkpt lat="38.01370503216348" lon="15.764670778497498"><ele>584.5</ele><time>2026-05-03T09:19:54Z</time></trkpt><trkpt lat="38.01381413786321" lon="15.764624379599402"><ele>589.0</ele><time>2026-05-03T09:19:55Z</time></trkpt><trkpt lat="38.01390108892661" lon="15.764586936663491"><ele>589.0</ele><time>2026-05-03T09:19:56Z</time></trkpt><trkpt lat="38.01399022669354" lon="15.764554936577133"><ele>589.0</ele><time>2026-05-03T09:19:57Z</time></trkpt><trkpt lat="38.014054556835426" lon="15.764549923638082"><ele>589.0</ele><time>2026-05-03T09:19:58Z</time></trkpt><trkpt lat="38.01413475505091" lon="15.76473991870193"><ele>589.0</ele><time>2026-05-03T09:20:00Z</time></trkpt><trkpt lat="38.01410138376541" lon="15.76503520582049"><ele>589.0</ele><time>2026-05-03T09:20:01Z</time></trkpt><trkpt lat="38.01408357415017" lon="15.76517586012264"><ele>589.0</ele><time>2026-05-03T09:20:02Z</time></trkpt><trkpt lat="38.014026799181394" lon="15.765322400270055"><ele>589.0</ele><time>2026-05-03T09:20:03Z</time></trkpt><trkpt lat="38.013950218495154" lon="15.76546092589589"><ele>589.0</ele><time>2026-05-03T09:20:04Z</time></trkpt><trkpt lat="38.013901136935985" lon="15.765601310035496"><ele>588.8</ele><time>2026-05-03T09:20:05Z</time></trkpt><trkpt lat="38.01386501289043" lon="15.765723595535691"><ele>588.5999999999999</ele><time>2026-05-03T09:20:06Z</time></trkpt><trkpt lat="38.01387832436463" lon="15.765858023866143"><ele>588.4</ele><time>2026-05-03T09:20:07Z</time></trkpt><trkpt lat="38.01392211178019" lon="15.765974959814512"><ele>588.1999999999999</ele><time>2026-05-03T09:20:08Z</time></trkpt><trkpt lat="38.01400618813489" lon="15.766031010302965"><ele>588.0</ele><time>2026-05-03T09:20:09Z</time></trkpt><trkpt lat="38.0141208132468" lon="15.76606593921745"><ele>590.0</ele><time>2026-05-03T09:20:10Z</time></trkpt><trkpt lat="38.01422713070763" lon="15.766102574510834"><ele>592.0</ele><time>2026-05-03T09:20:11Z</time></trkpt><trkpt lat="38.0143482112311" lon="15.766093370864427"><ele>594.0</ele><time>2026-05-03T09:20:12Z</time></trkpt><trkpt lat="38.01450242976682" lon="15.766078075909862"><ele>596.0</ele><time>2026-05-03T09:20:13Z</time></trkpt><trkpt lat="38.01462473659107" lon="15.76610606455435"><ele>596.0</ele><time>2026-05-03T09:20:14Z</time></trkpt><trkpt lat="38.01473490741311" lon="15.766113779092207"><ele>596.0</ele><time>2026-05-03T09:20:15Z</time></trkpt><trkpt lat="38.01482449989119" lon="15.766114603615552"><ele>596.0</ele><time>2026-05-03T09:20:16Z</time></trkpt><trkpt lat="38.01492346155609" lon="15.766156436682088"><ele>596.0</ele><time>2026-05-03T09:20:17Z</time></trkpt><trkpt lat="38.01500254903532" lon="15.766223164911926"><ele>596.0</ele><time>2026-05-03T09:20:18Z</time></trkpt><trkpt lat="38.015035204788866" lon="15.766360413833265"><ele>595.25</ele><time>2026-05-03T09:20:19Z</time></trkpt><trkpt lat="38.01503806297111" lon="15.766523598972222"><ele>594.5</ele><time>2026-05-03T09:20:20Z</time></trkpt><trkpt lat="38.014997085679155" lon="15.766745133262821"><ele>593.75</ele><time>2026-05-03T09:20:21Z</time></trkpt><trkpt lat="38.01498550706797" lon="15.766906895648312"><ele>593.0</ele><time>2026-05-03T09:20:22Z</time></trkpt><trkpt lat="38.014957232742724" lon="15.767070051111546"><ele>593.0</ele><time>2026-05-03T09:20:23Z</time></trkpt><trkpt lat="38.014902666973626" lon="15.767202869040286"><ele>593.0</ele><time>2026-05-03T09:20:24Z</time></trkpt><trkpt lat="38.01490816209533" lon="15.767296450046947"><ele>593.0</ele><time>2026-05-03T09:20:25Z</time></trkpt><trkpt lat="38.014969966860015" lon="15.7673600228779"><ele>593.0</ele><time>2026-05-03T09:20:26Z</time></trkpt><trkpt lat="38.01504286797259" lon="15.767384126472548"><ele>593.0</ele><time>2026-05-03T09:20:27Z</time></trkpt><trkpt lat="38.015117747385354" lon="15.76732227355961"><ele>593.0</ele><time>2026-05-03T09:20:28Z</time></trkpt><trkpt lat="38.01516732971072" lon="15.767236876856645"><ele>597.1999999999999</ele><time>2026-05-03T09:20:29Z</time></trkpt><trkpt lat="38.015193641521584" lon="15.767144808010146"><ele>601.4</ele><time>2026-05-03T09:20:30Z</time></trkpt><trkpt lat="38.01517798412211" lon="15.767020488278245"><ele>605.5999999999999</ele><time>2026-05-03T09:20:31Z</time></trkpt><trkpt lat="38.01515198023787" lon="15.7668970249099"><ele>609.8</ele><time>2026-05-03T09:20:32Z</time></trkpt><trkpt lat="38.01513218048567" lon="15.7667578282661"><ele>614.0</ele><time>2026-05-03T09:20:33Z</time></trkpt><trkpt lat="38.0151137039369" lon="15.766616143804654"><ele>616.0</ele><time>2026-05-03T09:20:34Z</time></trkpt><trkpt lat="38.015088447893376" lon="15.766474630400117"><ele>618.0</ele><time>2026-05-03T09:20:35Z</time></trkpt><trkpt lat="38.01509056513566" lon="15.766336896651685"><ele>620.0</ele><time>2026-05-03T09:20:36Z</time></trkpt><trkpt lat="38.015155347127234" lon="15.766211368555206"><ele>622.0</ele><time>2026-05-03T09:20:37Z</time></trkpt><trkpt lat="38.01520055174741" lon="15.766089824210347"><ele>624.0</ele><time>2026-05-03T09:20:38Z</time></trkpt><trkpt lat="38.015241892268556" lon="15.765988971419787"><ele>625.8333333333334</ele><time>2026-05-03T09:20:39Z</time></trkpt><trkpt lat="38.01527926081903" lon="15.765919515508063"><ele>627.6666666666666</ele><time>2026-05-03T09:20:40Z</time></trkpt><trkpt lat="38.01526256039176" lon="15.765808438628437"><ele>629.5</ele><time>2026-05-03T09:20:41Z</time></trkpt><trkpt lat="38.015178850715614" lon="15.765694396846108"><ele>631.3333333333333</ele><time>2026-05-03T09:20:42Z</time></trkpt><trkpt lat="38.01510966016432" lon="15.76563602353641"><ele>633.1666666666666</ele><time>2026-05-03T09:20:43Z</time></trkpt><trkpt lat="38.01506909832303" lon="15.7655577889581"><ele>635.0</ele><time>2026-05-03T09:20:44Z</time></trkpt><trkpt lat="38.01504452501781" lon="15.765440960548883"><ele>635.0</ele><time>2026-05-03T09:20:45Z</time></trkpt><trkpt lat="38.015050893385244" lon="15.76533603001452"><ele>635.0</ele><time>2026-05-03T09:20:46Z</time></trkpt><trkpt lat="38.01512359348621" lon="15.765218992676862"><ele>635.0</ele><time>2026-05-03T09:20:47Z</time></trkpt><trkpt lat="38.01522737562311" lon="15.765131760742468"><ele>635.0</ele><time>2026-05-03T09:20:48Z</time></trkpt><trkpt lat="38.015319760595474" lon="15.765043204802208"><ele>635.0</ele><time>2026-05-03T09:20:49Z</time></trkpt><trkpt lat="38.01540131652139" lon="15.764930978232067"><ele>634.25</ele><time>2026-05-03T09:20:50Z</time></trkpt><trkpt lat="38.01551010547541" lon="15.764804918037399"><ele>633.5</ele><time>2026-05-03T09:20:51Z</time></trkpt><trkpt lat="38.01563383152688" lon="15.764690606274288"><ele>632.75</ele><time>2026-05-03T09:20:52Z</time></trkpt><trkpt lat="38.01573507262202" lon="15.764560304895056"><ele>632.0</ele><time>2026-05-03T09:20:53Z</time></trkpt><trkpt lat="38.01584363031386" lon="15.764468403828891"><ele>636.6666666666666</ele><time>2026-05-03T09:20:54Z</time></trkpt><trkpt lat="38.01593105576543" lon="15.764377221223366"><ele>641.3333333333333</ele><time>2026-05-03T09:20:55Z</time></trkpt><trkpt lat="38.01599714314337" lon="15.7643050200776"><ele>646.0</ele><time>2026-05-03T09:20:56Z</time></trkpt><trkpt lat="38.01600610407378" lon="15.76419324653389"><ele>650.6666666666666</ele><time>2026-05-03T09:20:57Z</time></trkpt><trkpt lat="38.01601503157499" lon="15.764100919457121"><ele>655.3333333333334</ele><time>2026-05-03T09:20:58Z</time></trkpt><trkpt lat="38.01603728576274" lon="15.764007789856581"><ele>660.0</ele><time>2026-05-03T09:20:59Z</time></trkpt><trkpt lat="38.0160279363849" lon="15.763910573248983"><ele>660.0</ele><time>2026-05-03T09:21:00Z</time></trkpt><trkpt lat="38.015973881778734" lon="15.76383728928217"><ele>660.0</ele><time>2026-05-03T09:21:01Z</time></trkpt><trkpt lat="38.01585135621534" lon="15.763801682735275"><ele>660.0</ele><time>2026-05-03T09:21:02Z</time></trkpt><trkpt lat="38.01573221408787" lon="15.763779223013602"><ele>660.0</ele><time>2026-05-03T09:21:03Z</time></trkpt><trkpt lat="38.015554290976986" lon="15.763884015157888"><ele>656.2</ele><time>2026-05-03T09:21:04Z</time></trkpt><trkpt lat="38.0154594013323" lon="15.763904679915743"><ele>652.4</ele><time>2026-05-03T09:21:05.001Z</time></trkpt><trkpt lat="38.01536844444878" lon="15.763910296638823"><ele>648.5999999999999</ele><time>2026-05-03T09:21:06.001Z</time></trkpt><trkpt lat="38.01527255439517" lon="15.763904684515529"><ele>644.8</ele><time>2026-05-03T09:21:07.001Z</time></trkpt><trkpt lat="38.0151777410645" lon="15.763903192477784"><ele>641.0</ele><time>2026-05-03T09:21:08.001Z</time></trkpt><trkpt lat="38.01508173402139" lon="15.763874488229959"><ele>642.25</ele><time>2026-05-03T09:21:09.001Z</time></trkpt><trkpt lat="38.01497790245337" lon="15.763783925294897"><ele>643.5</ele><time>2026-05-03T09:21:10.001Z</time></trkpt><trkpt lat="38.01489592693241" lon="15.763676496498226"><ele>644.75</ele><time>2026-05-03T09:21:11.001Z</time></trkpt><trkpt lat="38.014824107056036" lon="15.763553979015756"><ele>646.0</ele><time>2026-05-03T09:21:12.001Z</time></trkpt><trkpt lat="38.01478246086529" lon="15.763416201315284"><ele>646.0</ele><time>2026-05-03T09:21:13.001Z</time></trkpt><trkpt lat="38.01472208838654" lon="15.763238338721889"><ele>646.0</ele><time>2026-05-03T09:21:14.001Z</time></trkpt><trkpt lat="38.01464380622023" lon="15.763071940975202"><ele>646.0</ele><time>2026-05-03T09:21:15.001Z</time></trkpt><trkpt lat="38.01456116435117" lon="15.76292049266083"><ele>646.0</ele><time>2026-05-03T09:21:16.001Z</time></trkpt><trkpt lat="38.014478687711524" lon="15.76279456726772"><ele>646.0</ele><time>2026-05-03T09:21:17.001Z</time></trkpt><trkpt lat="38.01443888712418" lon="15.76268241479502"><ele>646.0</ele><time>2026-05-03T09:21:18.001Z</time></trkpt><trkpt lat="38.014444171157656" lon="15.762557220739328"><ele>646.0</ele><time>2026-05-03T09:21:19.001Z</time></trkpt><trkpt lat="38.0144401648889" lon="15.762415422788173"><ele>646.0</ele><time>2026-05-03T09:21:20.001Z</time></trkpt><trkpt lat="38.01438794218754" lon="15.762332983143642"><ele>645.1666666666667</ele><time>2026-05-03T09:21:22.001Z</time></trkpt><trkpt lat="38.014294328693644" lon="15.762419511570224"><ele>644.3333333333334</ele><time>2026-05-03T09:21:23.001Z</time></trkpt><trkpt lat="38.01429043558696" lon="15.762335690845784"><ele>643.5</ele><time>2026-05-03T09:21:24.001Z</time></trkpt><trkpt lat="38.01421129234636" lon="15.76233083455866"><ele>642.6666666666666</ele><time>2026-05-03T09:21:25.001Z</time></trkpt><trkpt lat="38.01415351371107" lon="15.76227979031881"><ele>641.8333333333333</ele><time>2026-05-03T09:21:26.001Z</time></trkpt><trkpt lat="38.01407415634322" lon="15.76218088269188"><ele>641.0</ele><time>2026-05-03T09:21:27.001Z</time></trkpt><trkpt lat="38.01400497254245" lon="15.762092925091967"><ele>641.0</ele><time>2026-05-03T09:21:28.001Z</time></trkpt><trkpt lat="38.01392748273636" lon="15.761977367636767"><ele>641.0</ele><time>2026-05-03T09:21:29.001Z</time></trkpt><trkpt lat="38.013880355377836" lon="15.761839136263667"><ele>641.0</ele><time>2026-05-03T09:21:30.001Z</time></trkpt><trkpt lat="38.013794477756" lon="15.761729946470044"><ele>641.0</ele><time>2026-05-03T09:21:31.001Z</time></trkpt><trkpt lat="38.013716669382745" lon="15.761648691902021"><ele>645.1999999999999</ele><time>2026-05-03T09:21:32.001Z</time></trkpt><trkpt lat="38.01365472934378" lon="15.761555343073702"><ele>649.4</ele><time>2026-05-03T09:21:33.001Z</time></trkpt><trkpt lat="38.01359849604805" lon="15.76144107890767"><ele>653.6</ele><time>2026-05-03T09:21:34.001Z</time></trkpt><trkpt lat="38.01354098576807" lon="15.761350227828698"><ele>657.8</ele><time>2026-05-03T09:21:35.001Z</time></trkpt><trkpt lat="38.013489128159776" lon="15.761254282041287"><ele>662.0</ele><time>2026-05-03T09:21:36.001Z</time></trkpt><trkpt lat="38.013448718362916" lon="15.76115706365574"><ele>662.0</ele><time>2026-05-03T09:21:37.001Z</time></trkpt><trkpt lat="38.01342222983605" lon="15.761046078735545"><ele>662.0</ele><time>2026-05-03T09:21:38.001Z</time></trkpt><trkpt lat="38.01341495726278" lon="15.760920174741763"><ele>662.0</ele><time>2026-05-03T09:21:39.001Z</time></trkpt><trkpt lat="38.01341967548308" lon="15.760822656871625"><ele>662.0</ele><time>2026-05-03T09:21:40.001Z</time></trkpt><trkpt lat="38.013464924253654" lon="15.760735393544055"><ele>662.0</ele><time>2026-05-03T09:21:41.001Z</time></trkpt><trkpt lat="38.01354080322547" lon="15.760688257773156"><ele>662.0</ele><time>2026-05-03T09:21:42.001Z</time></trkpt><trkpt lat="38.01363063357689" lon="15.760616908339003"><ele>662.8</ele><time>2026-05-03T09:21:43.001Z</time></trkpt><trkpt lat="38.013698166827155" lon="15.760574971673117"><ele>663.6</ele><time>2026-05-03T09:21:44.001Z</time></trkpt><trkpt lat="38.013804984959705" lon="15.760540518131842"><ele>664.4</ele><time>2026-05-03T09:21:45.001Z</time></trkpt><trkpt lat="38.01387734128116" lon="15.760484596662753"><ele>665.1999999999999</ele><time>2026-05-03T09:21:46.001Z</time></trkpt><trkpt lat="38.013961635848545" lon="15.760457365740054"><ele>666.0</ele><time>2026-05-03T09:21:47.001Z</time></trkpt><trkpt lat="38.01404606592701" lon="15.760383161391541"><ele>666.0</ele><time>2026-05-03T09:21:49.001Z</time></trkpt><trkpt lat="38.01411422598325" lon="15.760293146058993"><ele>666.0</ele><time>2026-05-03T09:21:50.001Z</time></trkpt><trkpt lat="38.0141469089607" lon="15.760180335327854"><ele>666.0</ele><time>2026-05-03T09:21:51Z</time></trkpt><trkpt lat="38.01414080482488" lon="15.760055346653289"><ele>666.0</ele><time>2026-05-03T09:21:52Z</time></trkpt><trkpt lat="38.014180764294984" lon="15.759939673488375"><ele>666.0</ele><time>2026-05-03T09:21:53Z</time></trkpt><trkpt lat="38.01419480439202" lon="15.759856478294513"><ele>669.5999999999999</ele><time>2026-05-03T09:21:54Z</time></trkpt><trkpt lat="38.01427244817871" lon="15.759827390941139"><ele>673.2</ele><time>2026-05-03T09:21:56Z</time></trkpt><trkpt lat="38.01435373907793" lon="15.759887254703976"><ele>676.8</ele><time>2026-05-03T09:21:58Z</time></trkpt><trkpt lat="38.01439659133373" lon="15.760057761892792"><ele>680.4000000000001</ele><time>2026-05-03T09:21:59Z</time></trkpt><trkpt lat="38.01439814722072" lon="15.760179692695868"><ele>684.0</ele><time>2026-05-03T09:22:00Z</time></trkpt><trkpt lat="38.014361713266304" lon="15.76034567687793"><ele>685.4000000000001</ele><time>2026-05-03T09:22:01Z</time></trkpt><trkpt lat="38.01436612708735" lon="15.760465896665238"><ele>686.8</ele><time>2026-05-03T09:22:02Z</time></trkpt><trkpt lat="38.01437100902394" lon="15.760577855781646"><ele>688.2</ele><time>2026-05-03T09:22:03Z</time></trkpt><trkpt lat="38.0144050883408" lon="15.760711383384931"><ele>689.5999999999999</ele><time>2026-05-03T09:22:04Z</time></trkpt><trkpt lat="38.01443313032956" lon="15.760838233821994"><ele>691.0</ele><time>2026-05-03T09:22:05Z</time></trkpt><trkpt lat="38.01444137358654" lon="15.76098314797774"><ele>691.0</ele><time>2026-05-03T09:22:06Z</time></trkpt><trkpt lat="38.01447249919002" lon="15.761098872387457"><ele>691.0</ele><time>2026-05-03T09:22:07Z</time></trkpt><trkpt lat="38.014532753608556" lon="15.761164654684988"><ele>691.0</ele><time>2026-05-03T09:22:08Z</time></trkpt><trkpt lat="38.014593404910194" lon="15.761217479820116"><ele>691.0</ele><time>2026-05-03T09:22:09Z</time></trkpt><trkpt lat="38.014656349782506" lon="15.761207817442413"><ele>691.0</ele><time>2026-05-03T09:22:11Z</time></trkpt><trkpt lat="38.014716670346054" lon="15.761028581427128"><ele>691.0</ele><time>2026-05-03T09:22:13Z</time></trkpt><trkpt lat="38.01473655481043" lon="15.760931857996962"><ele>691.0</ele><time>2026-05-03T09:22:14Z</time></trkpt><trkpt lat="38.014764202536014" lon="15.760857157990921"><ele>691.0</ele><time>2026-05-03T09:22:15Z</time></trkpt><trkpt lat="38.01481601511937" lon="15.760796061143306"><ele>691.0</ele><time>2026-05-03T09:22:16Z</time></trkpt><trkpt lat="38.01485959618385" lon="15.760725590856596"><ele>691.0</ele><time>2026-05-03T09:22:17Z</time></trkpt><trkpt lat="38.0148920260036" lon="15.760596944739373"><ele>691.0</ele><time>2026-05-03T09:22:19Z</time></trkpt><trkpt lat="38.01485045781638" lon="15.760426289060572"><ele>691.0</ele><time>2026-05-03T09:22:21Z</time></trkpt><trkpt lat="38.01481715161861" lon="15.760338875256274"><ele>691.0</ele><time>2026-05-03T09:22:22Z</time></trkpt><trkpt lat="38.014800982567245" lon="15.76021935065976"><ele>691.0</ele><time>2026-05-03T09:22:24Z</time></trkpt><trkpt lat="38.01487167451896" lon="15.760144800567161"><ele>691.0</ele><time>2026-05-03T09:22:27Z</time></trkpt><trkpt lat="38.0149755732214" lon="15.760099039231035"><ele>691.0</ele><time>2026-05-03T09:22:29Z</time></trkpt><trkpt lat="38.01504403895488" lon="15.76007675594166"><ele>691.0</ele><time>2026-05-03T09:22:31Z</time></trkpt><trkpt lat="38.01513408213405" lon="15.760146422059824"><ele>697.5</ele><time>2026-05-03T09:22:32Z</time></trkpt><trkpt lat="38.01518618833579" lon="15.760244827142255"><ele>704.0</ele><time>2026-05-03T09:22:33Z</time></trkpt><trkpt lat="38.01520252821865" lon="15.760462570083527"><ele>710.5</ele><time>2026-05-03T09:22:34Z</time></trkpt><trkpt lat="38.01522910394148" lon="15.76061762587988"><ele>717.0</ele><time>2026-05-03T09:22:35Z</time></trkpt><trkpt lat="38.01523877354242" lon="15.760772183090216"><ele>717.0</ele><time>2026-05-03T09:22:36Z</time></trkpt><trkpt lat="38.01526590986648" lon="15.760868031668796"><ele>717.0</ele><time>2026-05-03T09:22:37Z</time></trkpt><trkpt lat="38.015349205903476" lon="15.76093203023402"><ele>717.0</ele><time>2026-05-03T09:22:39Z</time></trkpt><trkpt lat="38.01545014633924" lon="15.760883096330986"><ele>717.0</ele><time>2026-05-03T09:22:41Z</time></trkpt><trkpt lat="38.0155316217509" lon="15.76067479365198"><ele>717.0</ele><time>2026-05-03T09:22:43Z</time></trkpt><trkpt lat="38.01553398730149" lon="15.760583033364341"><ele>717.0</ele><time>2026-05-03T09:22:44Z</time></trkpt><trkpt lat="38.015521765816764" lon="15.760473084582935"><ele>717.0</ele><time>2026-05-03T09:22:45Z</time></trkpt><trkpt lat="38.01554769529037" lon="15.760397751170053"><ele>717.0</ele><time>2026-05-03T09:22:46Z</time></trkpt><trkpt lat="38.015589494298126" lon="15.760323321943243"><ele>717.0</ele><time>2026-05-03T09:22:47Z</time></trkpt><trkpt lat="38.01563901981564" lon="15.760261603385791"><ele>717.0</ele><time>2026-05-03T09:22:48Z</time></trkpt><trkpt lat="38.01569685284432" lon="15.760195526172959"><ele>717.0</ele><time>2026-05-03T09:22:49Z</time></trkpt><trkpt lat="38.015760516915826" lon="15.760139015510205"><ele>719.5</ele><time>2026-05-03T09:22:50Z</time></trkpt><trkpt lat="38.01586892485377" lon="15.76014324360236"><ele>722.0</ele><time>2026-05-03T09:22:51Z</time></trkpt><trkpt lat="38.015976185658126" lon="15.760077878169469"><ele>724.5</ele><time>2026-05-03T09:22:52Z</time></trkpt><trkpt lat="38.01608978758875" lon="15.760028814183084"><ele>727.0</ele><time>2026-05-03T09:22:53Z</time></trkpt><trkpt lat="38.016239021785026" lon="15.760021274348238"><ele>727.0</ele><time>2026-05-03T09:22:54Z</time></trkpt><trkpt lat="38.016359445502054" lon="15.760007494523492"><ele>727.0</ele><time>2026-05-03T09:22:55Z</time></trkpt><trkpt lat="38.01648425396204" lon="15.759977174339513"><ele>727.0</ele><time>2026-05-03T09:22:56Z</time></trkpt><trkpt lat="38.01659113030413" lon="15.759938648782994"><ele>727.0</ele><time>2026-05-03T09:22:57Z</time></trkpt><trkpt lat="38.016696932563455" lon="15.75989256492794"><ele>730.6</ele><time>2026-05-03T09:22:58Z</time></trkpt><trkpt lat="38.01678824847512" lon="15.759824500829204"><ele>734.2</ele><time>2026-05-03T09:22:59Z</time></trkpt><trkpt lat="38.016875600383486" lon="15.759734519552323"><ele>737.8</ele><time>2026-05-03T09:23:00Z</time></trkpt><trkpt lat="38.016951239201326" lon="15.75965499646946"><ele>741.4</ele><time>2026-05-03T09:23:01Z</time></trkpt><trkpt lat="38.0170441404645" lon="15.75957905595035"><ele>745.0</ele><time>2026-05-03T09:23:02Z</time></trkpt><trkpt lat="38.017134657956845" lon="15.759537900476683"><ele>745.0</ele><time>2026-05-03T09:23:03Z</time></trkpt><trkpt lat="38.01725234523145" lon="15.75949559766969"><ele>745.0</ele><time>2026-05-03T09:23:04Z</time></trkpt><trkpt lat="38.01737049915079" lon="15.75946416747913"><ele>745.0</ele><time>2026-05-03T09:23:05Z</time></trkpt><trkpt lat="38.01749904986225" lon="15.759437692108673"><ele>745.0</ele><time>2026-05-03T09:23:06Z</time></trkpt><trkpt lat="38.01761416104951" lon="15.759416209369746"><ele>745.2</ele><time>2026-05-03T09:23:07Z</time></trkpt><trkpt lat="38.017730083822705" lon="15.759378018057376"><ele>745.4</ele><time>2026-05-03T09:23:08Z</time></trkpt><trkpt lat="38.01782898698926" lon="15.759335725126595"><ele>745.5999999999999</ele><time>2026-05-03T09:23:09Z</time></trkpt><trkpt lat="38.01790001702211" lon="15.759284355453262"><ele>745.8</ele><time>2026-05-03T09:23:10Z</time></trkpt><trkpt lat="38.01798164171061" lon="15.759247337669581"><ele>746.0</ele><time>2026-05-03T09:23:12Z</time></trkpt><trkpt lat="38.01798111341669" lon="15.759362220266457"><ele>749.3333333333333</ele><time>2026-05-03T09:23:14Z</time></trkpt><trkpt lat="38.01792650242279" lon="15.759433384011572"><ele>752.6666666666666</ele><time>2026-05-03T09:23:15Z</time></trkpt><trkpt lat="38.01785647666078" lon="15.759481414122966"><ele>756.0</ele><time>2026-05-03T09:23:16Z</time></trkpt><trkpt lat="38.017796929318195" lon="15.759556952476931"><ele>759.3333333333334</ele><time>2026-05-03T09:23:17Z</time></trkpt><trkpt lat="38.017737738329274" lon="15.759651819763402"><ele>762.6666666666667</ele><time>2026-05-03T09:23:18Z</time></trkpt><trkpt lat="38.01766861295971" lon="15.759753709710361"><ele>766.0</ele><time>2026-05-03T09:23:19Z</time></trkpt><trkpt lat="38.01760835125786" lon="15.759866530881105"><ele>766.0</ele><time>2026-05-03T09:23:20Z</time></trkpt><trkpt lat="38.017557909219754" lon="15.759998616062813"><ele>766.0</ele><time>2026-05-03T09:23:21Z</time></trkpt><trkpt lat="38.01751126464077" lon="15.760147546655205"><ele>766.0</ele><time>2026-05-03T09:23:22Z</time></trkpt><trkpt lat="38.01746737135877" lon="15.760325597727709"><ele>766.0</ele><time>2026-05-03T09:23:23Z</time></trkpt><trkpt lat="38.017413189537635" lon="15.760494369161142"><ele>764.75</ele><time>2026-05-03T09:23:24Z</time></trkpt><trkpt lat="38.01736276500794" lon="15.760636384578657"><ele>763.5</ele><time>2026-05-03T09:23:25Z</time></trkpt><trkpt lat="38.017325294164095" lon="15.760758251022114"><ele>762.25</ele><time>2026-05-03T09:23:26Z</time></trkpt><trkpt lat="38.01730949900822" lon="15.760900878098706"><ele>761.0</ele><time>2026-05-03T09:23:27Z</time></trkpt><trkpt lat="38.01731061112824" lon="15.7610641795993"><ele>760.75</ele><time>2026-05-03T09:23:28Z</time></trkpt><trkpt lat="38.01731535794469" lon="15.761235504601151"><ele>760.5</ele><time>2026-05-03T09:23:29Z</time></trkpt><trkpt lat="38.01732104004255" lon="15.761410212946558"><ele>760.25</ele><time>2026-05-03T09:23:30Z</time></trkpt><trkpt lat="38.01733866842918" lon="15.761566900258163"><ele>760.0</ele><time>2026-05-03T09:23:31.001Z</time></trkpt><trkpt lat="38.01735954067704" lon="15.76170763537029"><ele>760.0</ele><time>2026-05-03T09:23:32.001Z</time></trkpt><trkpt lat="38.01740237894862" lon="15.761827210283512"><ele>760.0</ele><time>2026-05-03T09:23:33.001Z</time></trkpt><trkpt lat="38.017462150488434" lon="15.76194837292138"><ele>760.0</ele><time>2026-05-03T09:23:34.001Z</time></trkpt><trkpt lat="38.01752624292108" lon="15.762065188550022"><ele>760.0</ele><time>2026-05-03T09:23:35.001Z</time></trkpt><trkpt lat="38.01757634898414" lon="15.76215821558171"><ele>760.0</ele><time>2026-05-03T09:23:36.001Z</time></trkpt><trkpt lat="38.017652592139" lon="15.762201655882219"><ele>763.0</ele><time>2026-05-03T09:23:38.001Z</time></trkpt><trkpt lat="38.017699555475744" lon="15.762051096581613"><ele>766.0</ele><time>2026-05-03T09:23:40.001Z</time></trkpt><trkpt lat="38.017719193309034" lon="15.761949401456993"><ele>769.0</ele><time>2026-05-03T09:23:41.001Z</time></trkpt><trkpt lat="38.01775314106631" lon="15.76182359537295"><ele>772.0</ele><time>2026-05-03T09:23:42.001Z</time></trkpt><trkpt lat="38.0177981289577" lon="15.76168058185875"><ele>775.0</ele><time>2026-05-03T09:23:43.001Z</time></trkpt><trkpt lat="38.01782208567569" lon="15.761513941882141"><ele>776.25</ele><time>2026-05-03T09:23:44.001Z</time></trkpt><trkpt lat="38.01784358635521" lon="15.761341592969018"><ele>777.5</ele><time>2026-05-03T09:23:45.001Z</time></trkpt><trkpt lat="38.017861802321825" lon="15.761163456247107"><ele>778.75</ele><time>2026-05-03T09:23:46.001Z</time></trkpt><trkpt lat="38.017889554935465" lon="15.761004298505572"><ele>780.0</ele><time>2026-05-03T09:23:47.001Z</time></trkpt><trkpt lat="38.017933207986054" lon="15.760877819465298"><ele>780.0</ele><time>2026-05-03T09:23:48.001Z</time></trkpt><trkpt lat="38.017996696229034" lon="15.760778149571035"><ele>780.0</ele><time>2026-05-03T09:23:49.001Z</time></trkpt><trkpt lat="38.0180616432178" lon="15.760773483725078"><ele>780.0</ele><time>2026-05-03T09:23:50.001Z</time></trkpt><trkpt lat="38.01815204152806" lon="15.760777480098046"><ele>780.0</ele><time>2026-05-03T09:23:51.001Z</time></trkpt><trkpt lat="38.01826309678461" lon="15.760775658505505"><ele>780.0</ele><time>2026-05-03T09:23:52.001Z</time></trkpt><trkpt lat="38.01836952380015" lon="15.760739854333206"><ele>785.0</ele><time>2026-05-03T09:23:53.001Z</time></trkpt><trkpt lat="38.01845032452663" lon="15.76064539344785"><ele>790.0</ele><time>2026-05-03T09:23:54.001Z</time></trkpt><trkpt lat="38.01854508960112" lon="15.760557551367818"><ele>795.0</ele><time>2026-05-03T09:23:55.001Z</time></trkpt><trkpt lat="38.018615037426336" lon="15.76044383010722"><ele>800.0</ele><time>2026-05-03T09:23:56.001Z</time></trkpt><trkpt lat="38.01867631953239" lon="15.760337456387479"><ele>805.0</ele><time>2026-05-03T09:23:57Z</time></trkpt><trkpt lat="38.01873056691851" lon="15.760260289309523"><ele>804.9999999999999</ele><time>2026-05-03T09:23:58Z</time></trkpt><trkpt lat="38.01878910475037" lon="15.760215133986492"><ele>805.0</ele><time>2026-05-03T09:23:59Z</time></trkpt><trkpt lat="38.01885704505993" lon="15.76023138867219"><ele>805.0</ele><time>2026-05-03T09:24:00Z</time></trkpt><trkpt lat="38.01891162838032" lon="15.760283426108797"><ele>805.0</ele><time>2026-05-03T09:24:01Z</time></trkpt><trkpt lat="38.01895740643482" lon="15.760362302494451"><ele>804.9999999999999</ele><time>2026-05-03T09:24:02Z</time></trkpt><trkpt lat="38.018983539189385" lon="15.760456981968979"><ele>805.0</ele><time>2026-05-03T09:24:03Z</time></trkpt><trkpt lat="38.01898756894547" lon="15.760588053028018"><ele>805.0</ele><time>2026-05-03T09:24:04Z</time></trkpt><trkpt lat="38.01895816217947" lon="15.760706996014704"><ele>805.0</ele><time>2026-05-03T09:24:05Z</time></trkpt><trkpt lat="38.01890910958102" lon="15.760836424869762"><ele>805.0</ele><time>2026-05-03T09:24:06Z</time></trkpt><trkpt lat="38.01888733864565" lon="15.760974187486367"><ele>805.0</ele><time>2026-05-03T09:24:07Z</time></trkpt><trkpt lat="38.018839495814866" lon="15.761104453552933"><ele>805.0</ele><time>2026-05-03T09:24:08Z</time></trkpt><trkpt lat="38.01881878154318" lon="15.761249819766975"><ele>804.8</ele><time>2026-05-03T09:24:09Z</time></trkpt><trkpt lat="38.018778165877066" lon="15.761384331589241"><ele>804.6</ele><time>2026-05-03T09:24:10Z</time></trkpt><trkpt lat="38.01874896122366" lon="15.761523644433899"><ele>804.4000000000001</ele><time>2026-05-03T09:24:11Z</time></trkpt><trkpt lat="38.01872794472257" lon="15.761663735954006"><ele>804.2</ele><time>2026-05-03T09:24:12Z</time></trkpt><trkpt lat="38.01871552134203" lon="15.761790721550206"><ele>804.0</ele><time>2026-05-03T09:24:13Z</time></trkpt><trkpt lat="38.01870157951925" lon="15.761911336820077"><ele>804.0</ele><time>2026-05-03T09:24:14Z</time></trkpt><trkpt lat="38.01871129348219" lon="15.761993269100712"><ele>804.0</ele><time>2026-05-03T09:24:15Z</time></trkpt><trkpt lat="38.018792037394704" lon="15.762009352978446"><ele>804.0</ele><time>2026-05-03T09:24:17Z</time></trkpt><trkpt lat="38.0188619454061" lon="15.761875003186562"><ele>804.0</ele><time>2026-05-03T09:24:19Z</time></trkpt><trkpt lat="38.01890918109407" lon="15.761811816980536"><ele>804.0</ele><time>2026-05-03T09:24:20Z</time></trkpt><trkpt lat="38.018940492939805" lon="15.761732332225085"><ele>804.0</ele><time>2026-05-03T09:24:21Z</time></trkpt><trkpt lat="38.01899126952963" lon="15.761603508907625"><ele>805.6</ele><time>2026-05-03T09:24:22Z</time></trkpt><trkpt lat="38.019067063066245" lon="15.761529926733207"><ele>807.2</ele><time>2026-05-03T09:24:23Z</time></trkpt><trkpt lat="38.019130108160816" lon="15.761425561027032"><ele>808.8000000000001</ele><time>2026-05-03T09:24:24Z</time></trkpt><trkpt lat="38.01918794353974" lon="15.761338909712228"><ele>810.4000000000001</ele><time>2026-05-03T09:24:25Z</time></trkpt><trkpt lat="38.01923245028009" lon="15.761260180446563"><ele>812.0</ele><time>2026-05-03T09:24:26Z</time></trkpt><trkpt lat="38.019315644371794" lon="15.761222075694736"><ele>817.4000000000001</ele><time>2026-05-03T09:24:28Z</time></trkpt><trkpt lat="38.01933138249063" lon="15.761360987421064"><ele>822.8000000000001</ele><time>2026-05-03T09:24:30Z</time></trkpt><trkpt lat="38.019271649213806" lon="15.761534710974795"><ele>828.2</ele><time>2026-05-03T09:24:32Z</time></trkpt><trkpt lat="38.01924470572075" lon="15.761659960369274"><ele>833.6</ele><time>2026-05-03T09:24:33Z</time></trkpt><trkpt lat="38.019226337210014" lon="15.76176634474074"><ele>839.0</ele><time>2026-05-03T09:24:34Z</time></trkpt><trkpt lat="38.0192107255215" lon="15.761885428839813"><ele>839.4000000000001</ele><time>2026-05-03T09:24:35Z</time></trkpt><trkpt lat="38.01921946599401" lon="15.762004114226574"><ele>839.8</ele><time>2026-05-03T09:24:36Z</time></trkpt><trkpt lat="38.01922749324963" lon="15.762118805536254"><ele>840.2</ele><time>2026-05-03T09:24:37Z</time></trkpt><trkpt lat="38.01922232039494" lon="15.76224133091034"><ele>840.5999999999999</ele><time>2026-05-03T09:24:38Z</time></trkpt><trkpt lat="38.01923625893802" lon="15.762365933322274"><ele>841.0</ele><time>2026-05-03T09:24:39Z</time></trkpt><trkpt lat="38.019262314555206" lon="15.762470956442353"><ele>840.9999999999999</ele><time>2026-05-03T09:24:40Z</time></trkpt><trkpt lat="38.01928660929955" lon="15.7625572783584"><ele>841.0</ele><time>2026-05-03T09:24:41Z</time></trkpt><trkpt lat="38.01937366095374" lon="15.762628444526259"><ele>841.0</ele><time>2026-05-03T09:24:43Z</time></trkpt><trkpt lat="38.01944160172823" lon="15.762558034193157"><ele>841.0</ele><time>2026-05-03T09:24:44Z</time></trkpt><trkpt lat="38.01948007202432" lon="15.762450584615541"><ele>840.9999999999999</ele><time>2026-05-03T09:24:45Z</time></trkpt><trkpt lat="38.019529442010175" lon="15.76236132659756"><ele>841.0</ele><time>2026-05-03T09:24:46Z</time></trkpt><trkpt lat="38.019609032501066" lon="15.762242396069503"><ele>841.0</ele><time>2026-05-03T09:24:47Z</time></trkpt><trkpt lat="38.019689960837354" lon="15.762120967960321"><ele>841.0</ele><time>2026-05-03T09:24:48Z</time></trkpt><trkpt lat="38.0197774696906" lon="15.762023873402644"><ele>841.0</ele><time>2026-05-03T09:24:49Z</time></trkpt><trkpt lat="38.019843899723334" lon="15.761952012539487"><ele>841.0</ele><time>2026-05-03T09:24:50Z</time></trkpt><trkpt lat="38.019905284634824" lon="15.761907810820794"><ele>841.0</ele><time>2026-05-03T09:24:51Z</time></trkpt><trkpt lat="38.0199788984811" lon="15.761916169985117"><ele>845.4</ele><time>2026-05-03T09:24:53Z</time></trkpt><trkpt lat="38.020046935251834" lon="15.76201160221578"><ele>849.8</ele><time>2026-05-03T09:24:55Z</time></trkpt><trkpt lat="38.02002219967001" lon="15.762147965475776"><ele>854.1999999999999</ele><time>2026-05-03T09:24:56Z</time></trkpt><trkpt lat="38.01999932773184" lon="15.762309792785791"><ele>858.5999999999999</ele><time>2026-05-03T09:24:58Z</time></trkpt><trkpt lat="38.019996447310916" lon="15.76242504626643"><ele>863.0</ele><time>2026-05-03T09:24:59Z</time></trkpt><trkpt lat="38.01998997733759" lon="15.762670755138476"><ele>863.0</ele><time>2026-05-03T09:25:00Z</time></trkpt><trkpt lat="38.01997821160926" lon="15.762936063539438"><ele>863.0</ele><time>2026-05-03T09:25:01Z</time></trkpt><trkpt lat="38.01998018648682" lon="15.763079130175605"><ele>863.0</ele><time>2026-05-03T09:25:02Z</time></trkpt><trkpt lat="38.02001104420104" lon="15.763214941623003"><ele>863.0</ele><time>2026-05-03T09:25:03Z</time></trkpt><trkpt lat="38.02004216270825" lon="15.763330903207256"><ele>863.0</ele><time>2026-05-03T09:25:04Z</time></trkpt><trkpt lat="38.02009810349824" lon="15.763408623212435"><ele>863.0</ele><time>2026-05-03T09:25:05Z</time></trkpt><trkpt lat="38.020195863552914" lon="15.76347768764743"><ele>863.0</ele><time>2026-05-03T09:25:06Z</time></trkpt><trkpt lat="38.02028514076648" lon="15.763549424461761"><ele>863.0</ele><time>2026-05-03T09:25:07Z</time></trkpt><trkpt lat="38.02038581639854" lon="15.763589465916324"><ele>863.0</ele><time>2026-05-03T09:25:08Z</time></trkpt><trkpt lat="38.020473740309704" lon="15.763615145644325"><ele>863.0</ele><time>2026-05-03T09:25:09Z</time></trkpt><trkpt lat="38.020561508251795" lon="15.763551280781261"><ele>863.0</ele><time>2026-05-03T09:25:11Z</time></trkpt><trkpt lat="38.02064897802542" lon="15.76336178866027"><ele>863.0</ele><time>2026-05-03T09:25:12Z</time></trkpt><trkpt lat="38.02067267177313" lon="15.763250722114346"><ele>863.0</ele><time>2026-05-03T09:25:13Z</time></trkpt><trkpt lat="38.02068964198392" lon="15.763152041539845"><ele>863.0</ele><time>2026-05-03T09:25:14Z</time></trkpt><trkpt lat="38.02070057819507" lon="15.763020837219695"><ele>863.0</ele><time>2026-05-03T09:25:15Z</time></trkpt><trkpt lat="38.020781746750586" lon="15.762937208647788"><ele>863.0</ele><time>2026-05-03T09:25:17Z</time></trkpt><trkpt lat="38.02085384310753" lon="15.762935534596764"><ele>863.0</ele><time>2026-05-03T09:25:18Z</time></trkpt><trkpt lat="38.02101325906304" lon="15.762954646576576"><ele>863.0</ele><time>2026-05-03T09:25:20Z</time></trkpt><trkpt lat="38.021115571693024" lon="15.762980716647185"><ele>863.0</ele><time>2026-05-03T09:25:21Z</time></trkpt><trkpt lat="38.021230388152325" lon="15.762987426025559"><ele>867.5</ele><time>2026-05-03T09:25:22Z</time></trkpt><trkpt lat="38.02133933204238" lon="15.763022040726897"><ele>872.0</ele><time>2026-05-03T09:25:23Z</time></trkpt><trkpt lat="38.02147345011483" lon="15.763049573149058"><ele>876.5</ele><time>2026-05-03T09:25:24Z</time></trkpt><trkpt lat="38.02161195171992" lon="15.763064636030652"><ele>881.0</ele><time>2026-05-03T09:25:25Z</time></trkpt><trkpt lat="38.021769049362995" lon="15.763075807479419"><ele>882.5</ele><time>2026-05-03T09:25:26Z</time></trkpt><trkpt lat="38.021918529426436" lon="15.763086830978631"><ele>884.0</ele><time>2026-05-03T09:25:27Z</time></trkpt><trkpt lat="38.02206886956073" lon="15.763110082207517"><ele>885.5</ele><time>2026-05-03T09:25:28Z</time></trkpt><trkpt lat="38.022207762692766" lon="15.763116867384829"><ele>887.0</ele><time>2026-05-03T09:25:29Z</time></trkpt><trkpt lat="38.02232875736218" lon="15.763128838440645"><ele>887.0</ele><time>2026-05-03T09:25:30Z</time></trkpt><trkpt lat="38.02244750279031" lon="15.76317326011321"><ele>887.0</ele><time>2026-05-03T09:25:31Z</time></trkpt><trkpt lat="38.0225506299773" lon="15.763197966703547"><ele>887.0</ele><time>2026-05-03T09:25:32Z</time></trkpt><trkpt lat="38.022654751316715" lon="15.763229364317615"><ele>887.0</ele><time>2026-05-03T09:25:33Z</time></trkpt><trkpt lat="38.02275862050644" lon="15.763263122303085"><ele>887.0</ele><time>2026-05-03T09:25:34Z</time></trkpt><trkpt lat="38.022863673012935" lon="15.76327952396072"><ele>887.6</ele><time>2026-05-03T09:25:35Z</time></trkpt><trkpt lat="38.02296494646704" lon="15.763356814718076"><ele>888.2</ele><time>2026-05-03T09:25:36Z</time></trkpt><trkpt lat="38.02303957822522" lon="15.763396648606072"><ele>888.8</ele><time>2026-05-03T09:25:37Z</time></trkpt><trkpt lat="38.02314536474717" lon="15.763413851082285"><ele>889.4</ele><time>2026-05-03T09:25:38Z</time></trkpt><trkpt lat="38.02323603160726" lon="15.76344522515383"><ele>890.0</ele><time>2026-05-03T09:25:39Z</time></trkpt><trkpt lat="38.02333943131581" lon="15.763474542007247"><ele>890.0</ele><time>2026-05-03T09:25:40Z</time></trkpt><trkpt lat="38.023436520028596" lon="15.763499197470551"><ele>890.0</ele><time>2026-05-03T09:25:41Z</time></trkpt><trkpt lat="38.023529005939835" lon="15.763501274082452"><ele>890.0</ele><time>2026-05-03T09:25:42Z</time></trkpt><trkpt lat="38.02372164292671" lon="15.76349296258955"><ele>890.0</ele><time>2026-05-03T09:25:44Z</time></trkpt><trkpt lat="38.02385166318583" lon="15.763487545151012"><ele>890.0</ele><time>2026-05-03T09:25:45Z</time></trkpt><trkpt lat="38.02396680896183" lon="15.763483062494299"><ele>890.0</ele><time>2026-05-03T09:25:46Z</time></trkpt><trkpt lat="38.02413634593874" lon="15.763467422500645"><ele>890.0</ele><time>2026-05-03T09:25:47Z</time></trkpt><trkpt lat="38.02425410747328" lon="15.763448415437534"><ele>890.0</ele><time>2026-05-03T09:25:48Z</time></trkpt><trkpt lat="38.02435893301397" lon="15.763424477350899"><ele>889.8</ele><time>2026-05-03T09:25:49Z</time></trkpt><trkpt lat="38.02447219301868" lon="15.763396540929623"><ele>889.6</ele><time>2026-05-03T09:25:50Z</time></trkpt><trkpt lat="38.02456792408036" lon="15.763348294951076"><ele>889.4000000000001</ele><time>2026-05-03T09:25:51Z</time></trkpt><trkpt lat="38.02467932169453" lon="15.76328015658283"><ele>889.2</ele><time>2026-05-03T09:25:52Z</time></trkpt><trkpt lat="38.024778614729904" lon="15.763244900892552"><ele>889.0</ele><time>2026-05-03T09:25:53Z</time></trkpt><trkpt lat="38.024857339029886" lon="15.763207986361257"><ele>889.0</ele><time>2026-05-03T09:25:54Z</time></trkpt><trkpt lat="38.02492814851269" lon="15.763173859603922"><ele>889.0000000000001</ele><time>2026-05-03T09:25:55Z</time></trkpt><trkpt lat="38.02501015473647" lon="15.763178620828315"><ele>889.0000000000001</ele><time>2026-05-03T09:25:56Z</time></trkpt><trkpt lat="38.02507586780569" lon="15.763228990679039"><ele>889.0</ele><time>2026-05-03T09:25:57Z</time></trkpt><trkpt lat="38.02519758461506" lon="15.763277951360104"><ele>889.0</ele><time>2026-05-03T09:25:59Z</time></trkpt><trkpt lat="38.02527866081231" lon="15.763320690653964"><ele>887.4000000000001</ele><time>2026-05-03T09:26:00Z</time></trkpt><trkpt lat="38.02542192099549" lon="15.7634378360017"><ele>885.8000000000001</ele><time>2026-05-03T09:26:01Z</time></trkpt><trkpt lat="38.02550243558528" lon="15.76350266500037"><ele>884.1999999999999</ele><time>2026-05-03T09:26:02Z</time></trkpt><trkpt lat="38.025595268043524" lon="15.763560241793286"><ele>882.5999999999999</ele><time>2026-05-03T09:26:03Z</time></trkpt><trkpt lat="38.02565787443321" lon="15.763585537681754"><ele>881.0</ele><time>2026-05-03T09:26:04Z</time></trkpt><trkpt lat="38.025798015136594" lon="15.763599031705452"><ele>879.8333333333334</ele><time>2026-05-03T09:26:06Z</time></trkpt><trkpt lat="38.02586876569143" lon="15.763561666521095"><ele>878.6666666666667</ele><time>2026-05-03T09:26:07Z</time></trkpt><trkpt lat="38.02596286891341" lon="15.763573443343516"><ele>877.5</ele><time>2026-05-03T09:26:09Z</time></trkpt><trkpt lat="38.02602567227681" lon="15.763592893404224"><ele>876.3333333333333</ele><time>2026-05-03T09:26:10Z</time></trkpt><trkpt lat="38.02606905606088" lon="15.763675206796313"><ele>875.1666666666666</ele><time>2026-05-03T09:26:11Z</time></trkpt><trkpt lat="38.02614543507691" lon="15.763738361312818"><ele>874.0</ele><time>2026-05-03T09:26:12Z</time></trkpt><trkpt lat="38.02622853257434" lon="15.76382061453631"><ele>874.0</ele><time>2026-05-03T09:26:13Z</time></trkpt><trkpt lat="38.02629643360195" lon="15.763870344592355"><ele>874.0000000000001</ele><time>2026-05-03T09:26:14Z</time></trkpt><trkpt lat="38.026384368150715" lon="15.763946876152593"><ele>874.0000000000001</ele><time>2026-05-03T09:26:15Z</time></trkpt><trkpt lat="38.02645554843301" lon="15.763995598139585"><ele>874.0</ele><time>2026-05-03T09:26:16Z</time></trkpt><trkpt lat="38.026521814648405" lon="15.764052731268194"><ele>874.0</ele><time>2026-05-03T09:26:17Z</time></trkpt><trkpt lat="38.02659859380369" lon="15.76414348448379"><ele>876.75</ele><time>2026-05-03T09:26:18Z</time></trkpt><trkpt lat="38.026682390952494" lon="15.76425218657152"><ele>879.5</ele><time>2026-05-03T09:26:19Z</time></trkpt><trkpt lat="38.0267759753453" lon="15.764374297185949"><ele>882.25</ele><time>2026-05-03T09:26:20Z</time></trkpt><trkpt lat="38.026847019564634" lon="15.76448557706313"><ele>885.0</ele><time>2026-05-03T09:26:21Z</time></trkpt><trkpt lat="38.026920869937705" lon="15.764570568453614"><ele>885.0</ele><time>2026-05-03T09:26:22Z</time></trkpt><trkpt lat="38.027004681362094" lon="15.764614244132513"><ele>885.0</ele><time>2026-05-03T09:26:23Z</time></trkpt><trkpt lat="38.02707287358524" lon="15.764666515015996"><ele>885.0</ele><time>2026-05-03T09:26:24Z</time></trkpt><trkpt lat="38.027146793162" lon="15.764679494737544"><ele>885.0</ele><time>2026-05-03T09:26:25Z</time></trkpt><trkpt lat="38.02721766772285" lon="15.764672924765774"><ele>885.0</ele><time>2026-05-03T09:26:26Z</time></trkpt><trkpt lat="38.02729299095481" lon="15.764672198419168"><ele>885.0</ele><time>2026-05-03T09:26:27Z</time></trkpt><trkpt lat="38.0273667779474" lon="15.76465662606134"><ele>885.0</ele><time>2026-05-03T09:26:28Z</time></trkpt><trkpt lat="38.02744525402254" lon="15.76465572670219"><ele>885.0</ele><time>2026-05-03T09:26:29Z</time></trkpt><trkpt lat="38.02753577591104" lon="15.764654689314154"><ele>885.0</ele><time>2026-05-03T09:26:30Z</time></trkpt><trkpt lat="38.02764936880906" lon="15.764642144493237"><ele>885.0</ele><time>2026-05-03T09:26:31Z</time></trkpt><trkpt lat="38.0277561456638" lon="15.764626545004974"><ele>885.0</ele><time>2026-05-03T09:26:32Z</time></trkpt><trkpt lat="38.027852402391076" lon="15.76461031321766"><ele>887.8</ele><time>2026-05-03T09:26:33Z</time></trkpt><trkpt lat="38.02794199375575" lon="15.76460216165471"><ele>890.6</ele><time>2026-05-03T09:26:34Z</time></trkpt><trkpt lat="38.02802418555522" lon="15.764598078524797"><ele>893.4000000000001</ele><time>2026-05-03T09:26:35Z</time></trkpt><trkpt lat="38.027972821603015" lon="15.764513594478402"><ele>896.2</ele><time>2026-05-03T09:26:39Z</time></trkpt><trkpt lat="38.02791934887121" lon="15.764388313217001"><ele>899.0</ele><time>2026-05-03T09:26:43Z</time></trkpt><trkpt lat="38.02779207607874" lon="15.764363439389017"><ele>899.75</ele><time>2026-05-03T09:26:44Z</time></trkpt><trkpt lat="38.0276594742334" lon="15.76433421661634"><ele>900.5</ele><time>2026-05-03T09:26:45Z</time></trkpt><trkpt lat="38.02754790173598" lon="15.764296133341174"><ele>901.25</ele><time>2026-05-03T09:26:46Z</time></trkpt><trkpt lat="38.02739708157075" lon="15.764232495435374"><ele>902.0</ele><time>2026-05-03T09:26:47Z</time></trkpt><trkpt lat="38.02730130565487" lon="15.76418179127056"><ele>902.0</ele><time>2026-05-03T09:26:48Z</time></trkpt><trkpt lat="38.027213619607394" lon="15.764122075934516"><ele>902.0</ele><time>2026-05-03T09:26:49Z</time></trkpt><trkpt lat="38.02713731862177" lon="15.764051743066362"><ele>902.0</ele><time>2026-05-03T09:26:50Z</time></trkpt><trkpt lat="38.02704974278112" lon="15.763915169888694"><ele>902.0</ele><time>2026-05-03T09:26:52Z</time></trkpt><trkpt lat="38.02702388338967" lon="15.763836300124506"><ele>902.0</ele><time>2026-05-03T09:26:53Z</time></trkpt><trkpt lat="38.027162977599836" lon="15.763664418037665"><ele>902.0000000000001</ele><time>2026-05-03T09:26:54Z</time></trkpt><trkpt lat="38.027240011934026" lon="15.763660166238754"><ele>902.0</ele><time>2026-05-03T09:26:55Z</time></trkpt><trkpt lat="38.02722867821716" lon="15.763743299354894"><ele>902.0</ele><time>2026-05-03T09:26:57Z</time></trkpt><trkpt lat="38.02727746039431" lon="15.763811085691694"><ele>902.0</ele><time>2026-05-03T09:26:58Z</time></trkpt><trkpt lat="38.027345759704914" lon="15.763842002526882"><ele>902.0000000000001</ele><time>2026-05-03T09:26:59Z</time></trkpt><trkpt lat="38.02745639425118" lon="15.763887711083465"><ele>902.0</ele><time>2026-05-03T09:27:00Z</time></trkpt><trkpt lat="38.027575395954045" lon="15.763926983037592"><ele>904.8</ele><time>2026-05-03T09:27:01Z</time></trkpt><trkpt lat="38.027662237442165" lon="15.76395363213936"><ele>907.6</ele><time>2026-05-03T09:27:02Z</time></trkpt><trkpt lat="38.02775612919105" lon="15.763964674747562"><ele>910.3999999999999</ele><time>2026-05-03T09:27:03Z</time></trkpt><trkpt lat="38.02785596446059" lon="15.763999740502298"><ele>913.1999999999999</ele><time>2026-05-03T09:27:04Z</time></trkpt><trkpt lat="38.02795211567157" lon="15.764019495940842"><ele>916.0</ele><time>2026-05-03T09:27:05Z</time></trkpt><trkpt lat="38.02805079384771" lon="15.764015885959292"><ele>916.0</ele><time>2026-05-03T09:27:06Z</time></trkpt><trkpt lat="38.02813988332027" lon="15.7639790842596"><ele>915.9999999999999</ele><time>2026-05-03T09:27:07Z</time></trkpt><trkpt lat="38.02823608597212" lon="15.763949859968385"><ele>915.9999999999999</ele><time>2026-05-03T09:27:08Z</time></trkpt><trkpt lat="38.02831563822307" lon="15.763945201430179"><ele>916.0</ele><time>2026-05-03T09:27:09Z</time></trkpt><trkpt lat="38.0284066090991" lon="15.763975046417611"><ele>916.0</ele><time>2026-05-03T09:27:10Z</time></trkpt><trkpt lat="38.02853627714511" lon="15.764052762061093"><ele>919.0</ele><time>2026-05-03T09:27:12Z</time></trkpt><trkpt lat="38.02860705618092" lon="15.764131597545008"><ele>921.9999999999999</ele><time>2026-05-03T09:27:13Z</time></trkpt><trkpt lat="38.028673764480374" lon="15.76421067369422"><ele>924.9999999999999</ele><time>2026-05-03T09:27:14Z</time></trkpt><trkpt lat="38.028761887636776" lon="15.764254819847663"><ele>928.0</ele><time>2026-05-03T09:27:15Z</time></trkpt><trkpt lat="38.02885953735521" lon="15.764305015315088"><ele>931.0</ele><time>2026-05-03T09:27:16Z</time></trkpt><trkpt lat="38.02896831078688" lon="15.764346000437362"><ele>930.6666666666666</ele><time>2026-05-03T09:27:17Z</time></trkpt><trkpt lat="38.02905386963612" lon="15.764380856164806"><ele>930.3333333333333</ele><time>2026-05-03T09:27:18Z</time></trkpt><trkpt lat="38.029134135302165" lon="15.764427458801189"><ele>930.0</ele><time>2026-05-03T09:27:19Z</time></trkpt><trkpt lat="38.02920005123986" lon="15.764487212939786"><ele>929.6666666666667</ele><time>2026-05-03T09:27:20Z</time></trkpt><trkpt lat="38.02921727944665" lon="15.764583986586581"><ele>929.3333333333334</ele><time>2026-05-03T09:27:22Z</time></trkpt><trkpt lat="38.029265578440786" lon="15.764673038808878"><ele>929.0</ele><time>2026-05-03T09:27:23Z</time></trkpt><trkpt lat="38.02929039840519" lon="15.764797612896462"><ele>929.0</ele><time>2026-05-03T09:27:24Z</time></trkpt><trkpt lat="38.02934113934504" lon="15.764908039526688"><ele>929.0000000000001</ele><time>2026-05-03T09:27:25Z</time></trkpt><trkpt lat="38.029373863805574" lon="15.765007007771532"><ele>929.0000000000001</ele><time>2026-05-03T09:27:26Z</time></trkpt><trkpt lat="38.02942076974908" lon="15.765127081843886"><ele>929.0</ele><time>2026-05-03T09:27:28Z</time></trkpt><trkpt lat="38.029483087918365" lon="15.765174731569363"><ele>929.0</ele><time>2026-05-03T09:27:30Z</time></trkpt><trkpt lat="38.0296165554417" lon="15.765164435844357"><ele>927.2</ele><time>2026-05-03T09:27:32Z</time></trkpt><trkpt lat="38.029673308340115" lon="15.765205467306457"><ele>925.4000000000001</ele><time>2026-05-03T09:27:33Z</time></trkpt><trkpt lat="38.029715745673265" lon="15.76526665092431"><ele>923.6</ele><time>2026-05-03T09:27:34Z</time></trkpt><trkpt lat="38.029734257697584" lon="15.765406005994043"><ele>921.8</ele><time>2026-05-03T09:27:35Z</time></trkpt><trkpt lat="38.029805466475274" lon="15.76551770630052"><ele>920.0</ele><time>2026-05-03T09:27:36Z</time></trkpt><trkpt lat="38.02987361373993" lon="15.765633999162143"><ele>920.0000000000001</ele><time>2026-05-03T09:27:37Z</time></trkpt><trkpt lat="38.02993272108164" lon="15.76571480537042"><ele>920.0</ele><time>2026-05-03T09:27:38Z</time></trkpt><trkpt lat="38.03000071303855" lon="15.765816338171621"><ele>920.0</ele><time>2026-05-03T09:27:39Z</time></trkpt><trkpt lat="38.03002349639694" lon="15.765894635927017"><ele>920.0</ele><time>2026-05-03T09:27:40Z</time></trkpt><trkpt lat="38.02997900273182" lon="15.765966017063521"><ele>920.0000000000001</ele><time>2026-05-03T09:27:41Z</time></trkpt><trkpt lat="38.029972755901404" lon="15.7660631676122"><ele>920.0</ele><time>2026-05-03T09:27:42Z</time></trkpt><trkpt lat="38.02997722946785" lon="15.766160804070234"><ele>924.0</ele><time>2026-05-03T09:27:43Z</time></trkpt><trkpt lat="38.0299816483821" lon="15.766266437896977"><ele>928.0</ele><time>2026-05-03T09:27:44Z</time></trkpt><trkpt lat="38.03005250097302" lon="15.76638077073711"><ele>932.0</ele><time>2026-05-03T09:27:45Z</time></trkpt><trkpt lat="38.030119904374494" lon="15.766474763045853"><ele>936.0</ele><time>2026-05-03T09:27:46Z</time></trkpt><trkpt lat="38.03017551150559" lon="15.766567701479978"><ele>940.0</ele><time>2026-05-03T09:27:47Z</time></trkpt><trkpt lat="38.03020094567813" lon="15.766669497206987"><ele>939.9999999999999</ele><time>2026-05-03T09:27:48Z</time></trkpt><trkpt lat="38.03021909497355" lon="15.766771086592295"><ele>940.0</ele><time>2026-05-03T09:27:49Z</time></trkpt><trkpt lat="38.03020128142504" lon="15.76688614895845"><ele>940.0</ele><time>2026-05-03T09:27:50Z</time></trkpt><trkpt lat="38.030202448117905" lon="15.766995187343625"><ele>940.0</ele><time>2026-05-03T09:27:51Z</time></trkpt><trkpt lat="38.030232458234906" lon="15.767098517187087"><ele>939.9999999999999</ele><time>2026-05-03T09:27:52Z</time></trkpt><trkpt lat="38.03025219927124" lon="15.767208038061375"><ele>940.0</ele><time>2026-05-03T09:27:53Z</time></trkpt><trkpt lat="38.030277618390436" lon="15.767325035458214"><ele>937.2</ele><time>2026-05-03T09:27:54Z</time></trkpt><trkpt lat="38.03031977473811" lon="15.767430972854973"><ele>934.4</ele><time>2026-05-03T09:27:55Z</time></trkpt><trkpt lat="38.03036971284535" lon="15.76752174935475"><ele>931.5999999999999</ele><time>2026-05-03T09:27:56Z</time></trkpt><trkpt lat="38.03044954597944" lon="15.767613311104197"><ele>928.8</ele><time>2026-05-03T09:27:57Z</time></trkpt><trkpt lat="38.030499478630105" lon="15.767727705574972"><ele>926.0</ele><time>2026-05-03T09:27:58Z</time></trkpt><trkpt lat="38.03058051753456" lon="15.76783251996986"><ele>923.4</ele><time>2026-05-03T09:27:59Z</time></trkpt><trkpt lat="38.03066450836482" lon="15.767935960013363"><ele>920.8</ele><time>2026-05-03T09:28:00Z</time></trkpt><trkpt lat="38.030756206831285" lon="15.768005641785543"><ele>918.1999999999999</ele><time>2026-05-03T09:28:01Z</time></trkpt><trkpt lat="38.030833532014775" lon="15.768102871763737"><ele>915.5999999999999</ele><time>2026-05-03T09:28:02Z</time></trkpt><trkpt lat="38.03090679660065" lon="15.768152529441164"><ele>913.0</ele><time>2026-05-03T09:28:03Z</time></trkpt><trkpt lat="38.03096726698179" lon="15.768206950053782"><ele>921.0</ele><time>2026-05-03T09:28:04Z</time></trkpt><trkpt lat="38.031026216520466" lon="15.768258813049622"><ele>929.0</ele><time>2026-05-03T09:28:05Z</time></trkpt><trkpt lat="38.03109806311271" lon="15.768324863204477"><ele>937.0</ele><time>2026-05-03T09:28:06Z</time></trkpt><trkpt lat="38.031161740189866" lon="15.768399934933644"><ele>945.0</ele><time>2026-05-03T09:28:07Z</time></trkpt><trkpt lat="38.03121936211437" lon="15.768496357134062"><ele>953.0</ele><time>2026-05-03T09:28:08Z</time></trkpt><trkpt lat="38.03129028728897" lon="15.768599889910833"><ele>954.2</ele><time>2026-05-03T09:28:09Z</time></trkpt><trkpt lat="38.03136866228735" lon="15.768704944410224"><ele>955.4</ele><time>2026-05-03T09:28:10Z</time></trkpt><trkpt lat="38.03144485324168" lon="15.768798679299774"><ele>956.6000000000001</ele><time>2026-05-03T09:28:11Z</time></trkpt><trkpt lat="38.0315242927917" lon="15.768895075763918"><ele>957.8000000000001</ele><time>2026-05-03T09:28:12Z</time></trkpt><trkpt lat="38.03159007841208" lon="15.768998070405223"><ele>959.0</ele><time>2026-05-03T09:28:13Z</time></trkpt><trkpt lat="38.031667663153755" lon="15.769089836139907"><ele>961.6</ele><time>2026-05-03T09:28:14Z</time></trkpt><trkpt lat="38.031754508877995" lon="15.769183081086194"><ele>964.2</ele><time>2026-05-03T09:28:15Z</time></trkpt><trkpt lat="38.03183404326131" lon="15.769295632718942"><ele>966.8000000000001</ele><time>2026-05-03T09:28:16Z</time></trkpt><trkpt lat="38.031916148026184" lon="15.769402371982126"><ele>969.4000000000001</ele><time>2026-05-03T09:28:17Z</time></trkpt><trkpt lat="38.03200021682258" lon="15.769466644660124"><ele>972.0</ele><time>2026-05-03T09:28:18Z</time></trkpt><trkpt lat="38.03208133100193" lon="15.769587160132163"><ele>973.5</ele><time>2026-05-03T09:28:19Z</time></trkpt><trkpt lat="38.032159112916204" lon="15.769704989355407"><ele>975.0</ele><time>2026-05-03T09:28:20Z</time></trkpt><trkpt lat="38.03222741566174" lon="15.769844531899727"><ele>976.5</ele><time>2026-05-03T09:28:21Z</time></trkpt><trkpt lat="38.032305664545014" lon="15.769991169990455"><ele>978.0</ele><time>2026-05-03T09:28:22Z</time></trkpt><trkpt lat="38.032382993437786" lon="15.770124170868055"><ele>979.5</ele><time>2026-05-03T09:28:23Z</time></trkpt><trkpt lat="38.03247172867226" lon="15.7702695045821"><ele>981.0</ele><time>2026-05-03T09:28:24Z</time></trkpt><trkpt lat="38.032554748125264" lon="15.7704131930713"><ele>982.5</ele><time>2026-05-03T09:28:25Z</time></trkpt><trkpt lat="38.0326193157502" lon="15.770574921875964"><ele>984.0</ele><time>2026-05-03T09:28:26Z</time></trkpt><trkpt lat="38.03269724817938" lon="15.770721917642746"><ele>984.0</ele><time>2026-05-03T09:28:27Z</time></trkpt><trkpt lat="38.03277225912431" lon="15.770862599963994"><ele>984.0</ele><time>2026-05-03T09:28:28Z</time></trkpt><trkpt lat="38.03284900193577" lon="15.770987743464248"><ele>984.0</ele><time>2026-05-03T09:28:29Z</time></trkpt><trkpt lat="38.032915671712566" lon="15.771098084298323"><ele>984.0</ele><time>2026-05-03T09:28:30Z</time></trkpt><trkpt lat="38.03295088046472" lon="15.771225377117865"><ele>986.75</ele><time>2026-05-03T09:28:31Z</time></trkpt><trkpt lat="38.032943917434075" lon="15.77138844276183"><ele>989.5</ele><time>2026-05-03T09:28:33Z</time></trkpt><trkpt lat="38.032932104728346" lon="15.771526981036079"><ele>992.25</ele><time>2026-05-03T09:28:34Z</time></trkpt><trkpt lat="38.032881905487486" lon="15.771697742143758"><ele>995.0</ele><time>2026-05-03T09:28:35Z</time></trkpt><trkpt lat="38.03284865596532" lon="15.771869594454667"><ele>995.0</ele><time>2026-05-03T09:28:36Z</time></trkpt><trkpt lat="38.03281920278408" lon="15.772043406165908"><ele>995.0</ele><time>2026-05-03T09:28:37Z</time></trkpt><trkpt lat="38.032778157162404" lon="15.772187990530206"><ele>995.0</ele><time>2026-05-03T09:28:38Z</time></trkpt><trkpt lat="38.03277105598593" lon="15.77232195647836"><ele>995.0</ele><time>2026-05-03T09:28:39Z</time></trkpt><trkpt lat="38.03277547260378" lon="15.772453818134727"><ele>995.0</ele><time>2026-05-03T09:28:40Z</time></trkpt><trkpt lat="38.03271474829962" lon="15.772576233932904"><ele>995.0</ele><time>2026-05-03T09:28:41Z</time></trkpt><trkpt lat="38.03266861157106" lon="15.77268501288735"><ele>995.0</ele><time>2026-05-03T09:28:42Z</time></trkpt><trkpt lat="38.03260406301892" lon="15.772829270020322"><ele>995.0</ele><time>2026-05-03T09:28:43Z</time></trkpt><trkpt lat="38.03255096092798" lon="15.7729492147513"><ele>994.4</ele><time>2026-05-03T09:28:44Z</time></trkpt><trkpt lat="38.032500606511356" lon="15.773045249385547"><ele>993.8</ele><time>2026-05-03T09:28:45Z</time></trkpt><trkpt lat="38.03248796578658" lon="15.773169452191457"><ele>993.2</ele><time>2026-05-03T09:28:46Z</time></trkpt><trkpt lat="38.032501066101204" lon="15.773307351356728"><ele>992.6</ele><time>2026-05-03T09:28:47Z</time></trkpt><trkpt lat="38.03253144986327" lon="15.773431991035356"><ele>992.0</ele><time>2026-05-03T09:28:48Z</time></trkpt><trkpt lat="38.032567416506375" lon="15.773535658680343"><ele>991.2</ele><time>2026-05-03T09:28:49Z</time></trkpt><trkpt lat="38.032597187330786" lon="15.77362955222756"><ele>990.4000000000001</ele><time>2026-05-03T09:28:50Z</time></trkpt><trkpt lat="38.032624613464975" lon="15.77374545878356"><ele>989.5999999999999</ele><time>2026-05-03T09:28:51Z</time></trkpt><trkpt lat="38.03265731265743" lon="15.773884055274403"><ele>988.8</ele><time>2026-05-03T09:28:52Z</time></trkpt><trkpt lat="38.03268158330583" lon="15.77404611563458"><ele>988.0</ele><time>2026-05-03T09:28:53Z</time></trkpt><trkpt lat="38.03271297559793" lon="15.774217695993046"><ele>989.6666666666666</ele><time>2026-05-03T09:28:54Z</time></trkpt><trkpt lat="38.032748791608064" lon="15.774415827056371"><ele>991.3333333333333</ele><time>2026-05-03T09:28:55Z</time></trkpt><trkpt lat="38.032780851131854" lon="15.774629420349719"><ele>993.0</ele><time>2026-05-03T09:28:56Z</time></trkpt><trkpt lat="38.03280090961148" lon="15.774844626127885"><ele>993.0</ele><time>2026-05-03T09:28:57Z</time></trkpt><trkpt lat="38.03282247060131" lon="15.77506100083716"><ele>993.0</ele><time>2026-05-03T09:28:58Z</time></trkpt><trkpt lat="38.03284427182232" lon="15.77528160042183"><ele>993.0</ele><time>2026-05-03T09:28:59Z</time></trkpt><trkpt lat="38.032852349306154" lon="15.775496721343922"><ele>996.0</ele><time>2026-05-03T09:29:00Z</time></trkpt><trkpt lat="38.0328831517266" lon="15.775701407070855"><ele>999.0</ele><time>2026-05-03T09:29:01Z</time></trkpt><trkpt lat="38.03290166796535" lon="15.775904720962647"><ele>1002.0</ele><time>2026-05-03T09:29:02Z</time></trkpt><trkpt lat="38.03293100699769" lon="15.776094879353646"><ele>1003.75</ele><time>2026-05-03T09:29:03Z</time></trkpt><trkpt lat="38.03296194122024" lon="15.776280285908078"><ele>1005.5</ele><time>2026-05-03T09:29:04Z</time></trkpt><trkpt lat="38.032995433384535" lon="15.776445955982679"><ele>1007.25</ele><time>2026-05-03T09:29:05Z</time></trkpt><trkpt lat="38.0330238141627" lon="15.776604441984981"><ele>1009.0</ele><time>2026-05-03T09:29:06Z</time></trkpt><trkpt lat="38.03306931377751" lon="15.776755251801642"><ele>1009.25</ele><time>2026-05-03T09:29:07Z</time></trkpt><trkpt lat="38.033103397742146" lon="15.776928976605674"><ele>1009.5</ele><time>2026-05-03T09:29:08Z</time></trkpt><trkpt lat="38.03311405010577" lon="15.777109231213121"><ele>1009.75</ele><time>2026-05-03T09:29:09Z</time></trkpt><trkpt lat="38.03311462885801" lon="15.77729383865617"><ele>1010.0</ele><time>2026-05-03T09:29:10Z</time></trkpt><trkpt lat="38.03311285798171" lon="15.777484528863871"><ele>1010.0</ele><time>2026-05-03T09:29:11Z</time></trkpt><trkpt lat="38.033059961895596" lon="15.777671315826977"><ele>1010.0</ele><time>2026-05-03T09:29:12Z</time></trkpt><trkpt lat="38.033034749369264" lon="15.77790487395194"><ele>1010.0</ele><time>2026-05-03T09:29:13Z</time></trkpt><trkpt lat="38.03304516181875" lon="15.778139086350087"><ele>1009.6666666666667</ele><time>2026-05-03T09:29:14Z</time></trkpt><trkpt lat="38.03304094422142" lon="15.778376426234557"><ele>1009.3333333333333</ele><time>2026-05-03T09:29:15Z</time></trkpt><trkpt lat="38.032996926674876" lon="15.778605597941459"><ele>1009.0</ele><time>2026-05-03T09:29:16Z</time></trkpt><trkpt lat="38.032953395067715" lon="15.77882824693383"><ele>1009.0</ele><time>2026-05-03T09:29:17Z</time></trkpt><trkpt lat="38.03292235589052" lon="15.779041651194552"><ele>1009.0</ele><time>2026-05-03T09:29:18Z</time></trkpt><trkpt lat="38.03291163687865" lon="15.77923358131206"><ele>1009.0</ele><time>2026-05-03T09:29:19Z</time></trkpt><trkpt lat="38.03287691308114" lon="15.779390310556108"><ele>1010.0</ele><time>2026-05-03T09:29:20Z</time></trkpt><trkpt lat="38.03282918654688" lon="15.779553513780774"><ele>1011.0</ele><time>2026-05-03T09:29:21Z</time></trkpt><trkpt lat="38.032799213770254" lon="15.779682412507062"><ele>1012.0</ele><time>2026-05-03T09:29:22Z</time></trkpt><trkpt lat="38.032819637781095" lon="15.779823306673078"><ele>1013.0</ele><time>2026-05-03T09:29:23Z</time></trkpt><trkpt lat="38.03282471548117" lon="15.77996078627517"><ele>1013.0</ele><time>2026-05-03T09:29:24Z</time></trkpt><trkpt lat="38.03284573802121" lon="15.780091119242044"><ele>1013.0</ele><time>2026-05-03T09:29:25Z</time></trkpt><trkpt lat="38.0328863939867" lon="15.780213521720574"><ele>1013.0</ele><time>2026-05-03T09:29:26Z</time></trkpt><trkpt lat="38.032913121920224" lon="15.780319448904939"><ele>1013.0</ele><time>2026-05-03T09:29:27Z</time></trkpt><trkpt lat="38.032920573647175" lon="15.780449933699597"><ele>1013.0</ele><time>2026-05-03T09:29:28Z</time></trkpt><trkpt lat="38.032916922327026" lon="15.78056716244716"><ele>1013.25</ele><time>2026-05-03T09:29:29Z</time></trkpt><trkpt lat="38.03292509368194" lon="15.780698359682269"><ele>1013.5</ele><time>2026-05-03T09:29:30Z</time></trkpt><trkpt lat="38.03295056549375" lon="15.780821824560789"><ele>1013.75</ele><time>2026-05-03T09:29:31Z</time></trkpt><trkpt lat="38.03300198063916" lon="15.780965992579322"><ele>1014.0</ele><time>2026-05-03T09:29:32Z</time></trkpt><trkpt lat="38.03305631673305" lon="15.781113334089026"><ele>1013.4000000000001</ele><time>2026-05-03T09:29:33Z</time></trkpt><trkpt lat="38.03307506291868" lon="15.78124090614111"><ele>1012.8000000000001</ele><time>2026-05-03T09:29:34Z</time></trkpt><trkpt lat="38.03312464698898" lon="15.78136731143083"><ele>1012.1999999999999</ele><time>2026-05-03T09:29:35Z</time></trkpt><trkpt lat="38.033154521553875" lon="15.781463984131442"><ele>1011.5999999999999</ele><time>2026-05-03T09:29:36Z</time></trkpt><trkpt lat="38.03323391390928" lon="15.78160107240513"><ele>1011.0</ele><time>2026-05-03T09:29:38Z</time></trkpt><trkpt lat="38.033326035241075" lon="15.781666420775577"><ele>1009.75</ele><time>2026-05-03T09:29:39Z</time></trkpt><trkpt lat="38.033435205727464" lon="15.781719429184095"><ele>1008.5</ele><time>2026-05-03T09:29:40Z</time></trkpt><trkpt lat="38.03353981972795" lon="15.781781522926218"><ele>1007.25</ele><time>2026-05-03T09:29:41Z</time></trkpt><trkpt lat="38.03364066805312" lon="15.781847670789636"><ele>1006.0</ele><time>2026-05-03T09:29:42Z</time></trkpt><trkpt lat="38.033739901918736" lon="15.78190437918339"><ele>1002.5</ele><time>2026-05-03T09:29:43Z</time></trkpt><trkpt lat="38.033845870084654" lon="15.781958826354373"><ele>999.0</ele><time>2026-05-03T09:29:44Z</time></trkpt><trkpt lat="38.03395881871435" lon="15.782013709940532"><ele>995.5</ele><time>2026-05-03T09:29:45Z</time></trkpt><trkpt lat="38.0340777714035" lon="15.782061210661482"><ele>992.0</ele><time>2026-05-03T09:29:46Z</time></trkpt><trkpt lat="38.03419740723299" lon="15.782108980692803"><ele>992.0</ele><time>2026-05-03T09:29:47Z</time></trkpt><trkpt lat="38.03431591429878" lon="15.782165122419203"><ele>992.0</ele><time>2026-05-03T09:29:48Z</time></trkpt><trkpt lat="38.034430736337" lon="15.782240588323965"><ele>992.0</ele><time>2026-05-03T09:29:49Z</time></trkpt><trkpt lat="38.03453976226475" lon="15.782330184320822"><ele>992.0</ele><time>2026-05-03T09:29:50Z</time></trkpt><trkpt lat="38.0346569283252" lon="15.782427832366528"><ele>992.0</ele><time>2026-05-03T09:29:51Z</time></trkpt><trkpt lat="38.03476263402263" lon="15.782525848733592"><ele>992.0</ele><time>2026-05-03T09:29:52Z</time></trkpt><trkpt lat="38.03487523994088" lon="15.782612482009243"><ele>992.0</ele><time>2026-05-03T09:29:53Z</time></trkpt><trkpt lat="38.03497969715217" lon="15.782690079932271"><ele>992.0</ele><time>2026-05-03T09:29:54Z</time></trkpt><trkpt lat="38.035091695621155" lon="15.782768623087247"><ele>988.8</ele><time>2026-05-03T09:29:55Z</time></trkpt><trkpt lat="38.0351794216893" lon="15.782853428311762"><ele>985.6</ele><time>2026-05-03T09:29:56Z</time></trkpt><trkpt lat="38.03525895671341" lon="15.782937297322817"><ele>982.3999999999999</ele><time>2026-05-03T09:29:57Z</time></trkpt><trkpt lat="38.03533412537857" lon="15.783029981346544"><ele>979.1999999999999</ele><time>2026-05-03T09:29:58Z</time></trkpt><trkpt lat="38.03541575335323" lon="15.783118104821304"><ele>976.0</ele><time>2026-05-03T09:29:59Z</time></trkpt><trkpt lat="38.03550538048705" lon="15.783214495132166"><ele>976.0</ele><time>2026-05-03T09:30:00Z</time></trkpt><trkpt lat="38.03560306734082" lon="15.783311836129009"><ele>976.0</ele><time>2026-05-03T09:30:01Z</time></trkpt><trkpt lat="38.035704442100425" lon="15.783408823170916"><ele>976.0</ele><time>2026-05-03T09:30:02Z</time></trkpt><trkpt lat="38.035802836543034" lon="15.783512286106731"><ele>976.0</ele><time>2026-05-03T09:30:03Z</time></trkpt><trkpt lat="38.03590245424971" lon="15.783618476114196"><ele>977.0</ele><time>2026-05-03T09:30:04Z</time></trkpt><trkpt lat="38.03599878314148" lon="15.783723172697961"><ele>978.0</ele><time>2026-05-03T09:30:05Z</time></trkpt><trkpt lat="38.03608632971138" lon="15.783822079820437"><ele>979.0</ele><time>2026-05-03T09:30:06Z</time></trkpt><trkpt lat="38.0361695321601" lon="15.783911088147303"><ele>980.0</ele><time>2026-05-03T09:30:07Z</time></trkpt><trkpt lat="38.03625100826502" lon="15.783987893693643"><ele>980.0</ele><time>2026-05-03T09:30:08Z</time></trkpt><trkpt lat="38.036336339487725" lon="15.784048916927734"><ele>980.0</ele><time>2026-05-03T09:30:09Z</time></trkpt><trkpt lat="38.03642485653308" lon="15.784119692093062"><ele>980.0</ele><time>2026-05-03T09:30:10Z</time></trkpt><trkpt lat="38.03652142165235" lon="15.78417531765057"><ele>980.0</ele><time>2026-05-03T09:30:11Z</time></trkpt><trkpt lat="38.0366291434584" lon="15.784235880787234"><ele>980.0</ele><time>2026-05-03T09:30:12Z</time></trkpt><trkpt lat="38.03673432812468" lon="15.78426719154181"><ele>981.8</ele><time>2026-05-03T09:30:13Z</time></trkpt><trkpt lat="38.03682990349279" lon="15.784275456976289"><ele>983.6</ele><time>2026-05-03T09:30:14Z</time></trkpt><trkpt lat="38.03693454303026" lon="15.784277745572577"><ele>985.4000000000001</ele><time>2026-05-03T09:30:15Z</time></trkpt><trkpt lat="38.03706581167287" lon="15.784282614997313"><ele>987.2</ele><time>2026-05-03T09:30:16Z</time></trkpt><trkpt lat="38.03717726820945" lon="15.784280101841269"><ele>989.0</ele><time>2026-05-03T09:30:17Z</time></trkpt><trkpt lat="38.037309550921705" lon="15.784257423820787"><ele>989.0</ele><time>2026-05-03T09:30:18Z</time></trkpt><trkpt lat="38.037446399883144" lon="15.784233221609123"><ele>989.0</ele><time>2026-05-03T09:30:19Z</time></trkpt><trkpt lat="38.03757160513212" lon="15.784210249998017"><ele>989.0</ele><time>2026-05-03T09:30:20Z</time></trkpt><trkpt lat="38.037711977185175" lon="15.784203374173718"><ele>989.0</ele><time>2026-05-03T09:30:21Z</time></trkpt><trkpt lat="38.037850244758914" lon="15.784188286762925"><ele>989.0</ele><time>2026-05-03T09:30:22Z</time></trkpt><trkpt lat="38.037985838801056" lon="15.784163957895537"><ele>989.0</ele><time>2026-05-03T09:30:23Z</time></trkpt><trkpt lat="38.038101803362586" lon="15.784145485096932"><ele>989.0</ele><time>2026-05-03T09:30:24Z</time></trkpt><trkpt lat="38.038239297780606" lon="15.784137332377131"><ele>989.0</ele><time>2026-05-03T09:30:25Z</time></trkpt><trkpt lat="38.03837225898912" lon="15.784108439381717"><ele>989.6666666666667</ele><time>2026-05-03T09:30:26Z</time></trkpt><trkpt lat="38.03854194808584" lon="15.784083169390923"><ele>990.3333333333333</ele><time>2026-05-03T09:30:27Z</time></trkpt><trkpt lat="38.03867937423478" lon="15.784073880038656"><ele>991.0</ele><time>2026-05-03T09:30:28Z</time></trkpt><trkpt lat="38.03882458379628" lon="15.784043040071849"><ele>991.0</ele><time>2026-05-03T09:30:29Z</time></trkpt><trkpt lat="38.03896138597248" lon="15.784043133705186"><ele>991.0</ele><time>2026-05-03T09:30:30Z</time></trkpt><trkpt lat="38.03911279658188" lon="15.784031403088006"><ele>991.0</ele><time>2026-05-03T09:30:31Z</time></trkpt><trkpt lat="38.03924694476878" lon="15.784004787357924"><ele>991.0</ele><time>2026-05-03T09:30:32Z</time></trkpt><trkpt lat="38.03938410243602" lon="15.783975493440023"><ele>989.75</ele><time>2026-05-03T09:30:33Z</time></trkpt><trkpt lat="38.039513744542845" lon="15.783937678329215"><ele>988.5</ele><time>2026-05-03T09:30:34Z</time></trkpt><trkpt lat="38.039661225171564" lon="15.783865231116515"><ele>987.25</ele><time>2026-05-03T09:30:35Z</time></trkpt><trkpt lat="38.03979855317114" lon="15.783788533862689"><ele>986.0</ele><time>2026-05-03T09:30:36Z</time></trkpt><trkpt lat="38.03994560914909" lon="15.783706728173541"><ele>986.3333333333334</ele><time>2026-05-03T09:30:37Z</time></trkpt><trkpt lat="38.040099041619314" lon="15.783573266403144"><ele>986.6666666666667</ele><time>2026-05-03T09:30:38Z</time></trkpt><trkpt lat="38.040248066136805" lon="15.783456372065363"><ele>987.0</ele><time>2026-05-03T09:30:39Z</time></trkpt><trkpt lat="38.040396907665595" lon="15.783338081369052"><ele>987.0</ele><time>2026-05-03T09:30:40Z</time></trkpt><trkpt lat="38.04053264669228" lon="15.783204412566267"><ele>987.0</ele><time>2026-05-03T09:30:41Z</time></trkpt><trkpt lat="38.040672675678124" lon="15.783080964250793"><ele>987.0</ele><time>2026-05-03T09:30:42Z</time></trkpt><trkpt lat="38.04081265645179" lon="15.782964469212729"><ele>987.3333333333333</ele><time>2026-05-03T09:30:43Z</time></trkpt><trkpt lat="38.04094057366611" lon="15.782853429595388"><ele>987.6666666666666</ele><time>2026-05-03T09:30:44Z</time></trkpt><trkpt lat="38.041074339501975" lon="15.782732735580865"><ele>988.0</ele><time>2026-05-03T09:30:45Z</time></trkpt><trkpt lat="38.041201338038384" lon="15.782609999341222"><ele>991.0</ele><time>2026-05-03T09:30:46Z</time></trkpt><trkpt lat="38.04134061097222" lon="15.782489124713067"><ele>994.0</ele><time>2026-05-03T09:30:47Z</time></trkpt><trkpt lat="38.041473654057995" lon="15.782373816927652"><ele>997.0</ele><time>2026-05-03T09:30:48Z</time></trkpt><trkpt lat="38.041591898320156" lon="15.782262507867598"><ele>996.5</ele><time>2026-05-03T09:30:49Z</time></trkpt><trkpt lat="38.0416983307191" lon="15.78214827847156"><ele>996.0</ele><time>2026-05-03T09:30:50Z</time></trkpt><trkpt lat="38.041814903389294" lon="15.78203947281797"><ele>995.5</ele><time>2026-05-03T09:30:51Z</time></trkpt><trkpt lat="38.04193283358284" lon="15.781943723547307"><ele>995.0</ele><time>2026-05-03T09:30:52Z</time></trkpt><trkpt lat="38.04204534990544" lon="15.7818757184624"><ele>996.0</ele><time>2026-05-03T09:30:53Z</time></trkpt><trkpt lat="38.04218015615626" lon="15.781810448302162"><ele>997.0</ele><time>2026-05-03T09:30:54Z</time></trkpt><trkpt lat="38.04236967614803" lon="15.781774733086818"><ele>998.0</ele><time>2026-05-03T09:30:55Z</time></trkpt><trkpt lat="38.04252722290127" lon="15.781729830190132"><ele>998.0</ele><time>2026-05-03T09:30:56Z</time></trkpt><trkpt lat="38.04266203067239" lon="15.781695590975156"><ele>998.0</ele><time>2026-05-03T09:30:57Z</time></trkpt><trkpt lat="38.04279448343519" lon="15.781642597604908"><ele>998.0</ele><time>2026-05-03T09:30:58Z</time></trkpt><trkpt lat="38.04291969353081" lon="15.78157452502177"><ele>998.0</ele><time>2026-05-03T09:30:59Z</time></trkpt><trkpt lat="38.04303027025945" lon="15.781521513919662"><ele>998.0</ele><time>2026-05-03T09:31:00Z</time></trkpt><trkpt lat="38.04314975611554" lon="15.781467163132895"><ele>998.0</ele><time>2026-05-03T09:31:01Z</time></trkpt><trkpt lat="38.04327849715259" lon="15.781414235315628"><ele>998.0</ele><time>2026-05-03T09:31:02Z</time></trkpt><trkpt lat="38.04339690868316" lon="15.781341157448333"><ele>998.0</ele><time>2026-05-03T09:31:03Z</time></trkpt><trkpt lat="38.043500132877" lon="15.781281497283633"><ele>997.8</ele><time>2026-05-03T09:31:04Z</time></trkpt><trkpt lat="38.04358206976718" lon="15.781212131441105"><ele>997.5999999999999</ele><time>2026-05-03T09:31:05Z</time></trkpt><trkpt lat="38.04368011669011" lon="15.781156127939528"><ele>997.4000000000001</ele><time>2026-05-03T09:31:06Z</time></trkpt><trkpt lat="38.043780688643494" lon="15.781113223244349"><ele>997.2</ele><time>2026-05-03T09:31:07Z</time></trkpt><trkpt lat="38.04388325361176" lon="15.781089873135597"><ele>997.0</ele><time>2026-05-03T09:31:08Z</time></trkpt><trkpt lat="38.04404230003921" lon="15.781054220932656"><ele>994.75</ele><time>2026-05-03T09:31:09Z</time></trkpt><trkpt lat="38.04416492456123" lon="15.781042874163877"><ele>992.5</ele><time>2026-05-03T09:31:10Z</time></trkpt><trkpt lat="38.04428620371741" lon="15.781025848555132"><ele>990.25</ele><time>2026-05-03T09:31:11Z</time></trkpt><trkpt lat="38.0444109959456" lon="15.781021947588489"><ele>988.0</ele><time>2026-05-03T09:31:12Z</time></trkpt><trkpt lat="38.04449580722021" lon="15.781077290847096"><ele>987.9999999999999</ele><time>2026-05-03T09:31:13Z</time></trkpt><trkpt lat="38.04453405880415" lon="15.781200882446644"><ele>988.0</ele><time>2026-05-03T09:31:14Z</time></trkpt><trkpt lat="38.044555876572566" lon="15.781290162709672"><ele>988.0</ele><time>2026-05-03T09:31:15Z</time></trkpt><trkpt lat="38.04453766045271" lon="15.781374657510668"><ele>988.0</ele><time>2026-05-03T09:31:16Z</time></trkpt><trkpt lat="38.04449640808287" lon="15.781466064284235"><ele>987.9999999999999</ele><time>2026-05-03T09:31:17Z</time></trkpt><trkpt lat="38.0444236197065" lon="15.781578996803223"><ele>988.0</ele><time>2026-05-03T09:31:18Z</time></trkpt><trkpt lat="38.044337077901" lon="15.781669492107307"><ele>988.0</ele><time>2026-05-03T09:31:19Z</time></trkpt><trkpt lat="38.04426261546395" lon="15.781762773419864"><ele>988.0</ele><time>2026-05-03T09:31:20Z</time></trkpt><trkpt lat="38.04420943846768" lon="15.781826551593696"><ele>988.0</ele><time>2026-05-03T09:31:21Z</time></trkpt><trkpt lat="38.04420205918739" lon="15.78196944215702"><ele>988.0</ele><time>2026-05-03T09:31:23Z</time></trkpt><trkpt lat="38.04426045428232" lon="15.782046974730662"><ele>988.0</ele><time>2026-05-03T09:31:24Z</time></trkpt><trkpt lat="38.044342928881605" lon="15.782096732338943"><ele>985.25</ele><time>2026-05-03T09:31:25Z</time></trkpt><trkpt lat="38.044450458736854" lon="15.782104708242729"><ele>982.5</ele><time>2026-05-03T09:31:26Z</time></trkpt><trkpt lat="38.044568252840676" lon="15.782107701160632"><ele>979.75</ele><time>2026-05-03T09:31:27Z</time></trkpt><trkpt lat="38.04469536642772" lon="15.782112387045315"><ele>977.0</ele><time>2026-05-03T09:31:28Z</time></trkpt><trkpt lat="38.04482916401395" lon="15.78209620450645"><ele>977.0</ele><time>2026-05-03T09:31:29Z</time></trkpt><trkpt lat="38.0449388453405" lon="15.78207084836626"><ele>977.0</ele><time>2026-05-03T09:31:30Z</time></trkpt><trkpt lat="38.045039968364165" lon="15.782032832609321"><ele>977.0</ele><time>2026-05-03T09:31:31Z</time></trkpt><trkpt lat="38.045134710209055" lon="15.78196895607837"><ele>977.0</ele><time>2026-05-03T09:31:32Z</time></trkpt><trkpt lat="38.045221694231714" lon="15.78188786326009"><ele>977.0</ele><time>2026-05-03T09:31:33Z</time></trkpt><trkpt lat="38.04531321085229" lon="15.7817824501718"><ele>978.0</ele><time>2026-05-03T09:31:34Z</time></trkpt><trkpt lat="38.04540437776675" lon="15.781680306961569"><ele>979.0</ele><time>2026-05-03T09:31:35Z</time></trkpt><trkpt lat="38.04550617813341" lon="15.781603229972294"><ele>980.0</ele><time>2026-05-03T09:31:36Z</time></trkpt><trkpt lat="38.045624277035415" lon="15.781549566408161"><ele>981.0</ele><time>2026-05-03T09:31:37Z</time></trkpt><trkpt lat="38.045742991401426" lon="15.78151365187923"><ele>980.0</ele><time>2026-05-03T09:31:38Z</time></trkpt><trkpt lat="38.045849015662576" lon="15.781486738565368"><ele>978.9999999999999</ele><time>2026-05-03T09:31:39Z</time></trkpt><trkpt lat="38.04593273364801" lon="15.781475427003649"><ele>977.9999999999999</ele><time>2026-05-03T09:31:40Z</time></trkpt><trkpt lat="38.04600645092671" lon="15.781464442551119"><ele>977.0</ele><time>2026-05-03T09:31:41Z</time></trkpt><trkpt lat="38.046091837996485" lon="15.78145559983171"><ele>976.0</ele><time>2026-05-03T09:31:42Z</time></trkpt><trkpt lat="38.04620442740166" lon="15.781443125337137"><ele>976.0</ele><time>2026-05-03T09:31:43Z</time></trkpt><trkpt lat="38.04633023092518" lon="15.781443402782415"><ele>976.0</ele><time>2026-05-03T09:31:44Z</time></trkpt><trkpt lat="38.04647028888775" lon="15.781452407507247"><ele>976.0</ele><time>2026-05-03T09:31:45Z</time></trkpt><trkpt lat="38.0466251306796" lon="15.781467966583653"><ele>976.0</ele><time>2026-05-03T09:31:46Z</time></trkpt><trkpt lat="38.04676348069807" lon="15.781483119303694"><ele>975.4</ele><time>2026-05-03T09:31:47Z</time></trkpt><trkpt lat="38.04688073581716" lon="15.781491121584518"><ele>974.8</ele><time>2026-05-03T09:31:48Z</time></trkpt><trkpt lat="38.04699378275575" lon="15.781469878801452"><ele>974.1999999999999</ele><time>2026-05-03T09:31:49Z</time></trkpt><trkpt lat="38.04710373553228" lon="15.781437564077535"><ele>973.5999999999999</ele><time>2026-05-03T09:31:50Z</time></trkpt><trkpt lat="38.047192206712914" lon="15.781391474851377"><ele>973.0</ele><time>2026-05-03T09:31:51Z</time></trkpt><trkpt lat="38.04726214689951" lon="15.781341686691716"><ele>972.9999999999999</ele><time>2026-05-03T09:31:52Z</time></trkpt><trkpt lat="38.0473136140549" lon="15.781266882223864"><ele>973.0</ele><time>2026-05-03T09:31:53Z</time></trkpt><trkpt lat="38.0473630353061" lon="15.781169305597123"><ele>973.0</ele><time>2026-05-03T09:31:54Z</time></trkpt><trkpt lat="38.04740161159259" lon="15.78105029157413"><ele>973.0</ele><time>2026-05-03T09:31:55Z</time></trkpt><trkpt lat="38.04742663700565" lon="15.78093847351778"><ele>972.9999999999999</ele><time>2026-05-03T09:31:56Z</time></trkpt><trkpt lat="38.04746065548577" lon="15.780844361997579"><ele>973.0</ele><time>2026-05-03T09:31:57Z</time></trkpt><trkpt lat="38.047511364668644" lon="15.780773200649262"><ele>973.8333333333333</ele><time>2026-05-03T09:31:58Z</time></trkpt><trkpt lat="38.04758080724939" lon="15.780725476781154"><ele>974.6666666666666</ele><time>2026-05-03T09:31:59Z</time></trkpt><trkpt lat="38.04764604431034" lon="15.780722499340422"><ele>975.5</ele><time>2026-05-03T09:32:00Z</time></trkpt><trkpt lat="38.047731457510324" lon="15.78080955607425"><ele>976.3333333333333</ele><time>2026-05-03T09:32:02Z</time></trkpt><trkpt lat="38.047788883108545" lon="15.780943414214237"><ele>977.1666666666666</ele><time>2026-05-03T09:32:04Z</time></trkpt><trkpt lat="38.047797773714436" lon="15.781029822142294"><ele>978.0</ele><time>2026-05-03T09:32:05Z</time></trkpt><trkpt lat="38.04779415101467" lon="15.781131047325298"><ele>978.3333333333334</ele><time>2026-05-03T09:32:06Z</time></trkpt><trkpt lat="38.04778174806932" lon="15.78123626975941"><ele>978.6666666666667</ele><time>2026-05-03T09:32:07Z</time></trkpt><trkpt lat="38.04776284476716" lon="15.781341305661758"><ele>979.0</ele><time>2026-05-03T09:32:08Z</time></trkpt><trkpt lat="38.04772477332898" lon="15.781462608246466"><ele>979.3333333333334</ele><time>2026-05-03T09:32:09Z</time></trkpt><trkpt lat="38.04770953643998" lon="15.781567783557795"><ele>979.6666666666667</ele><time>2026-05-03T09:32:10Z</time></trkpt><trkpt lat="38.047712202677275" lon="15.781673408626476"><ele>980.0</ele><time>2026-05-03T09:32:11Z</time></trkpt><trkpt lat="38.04774726334251" lon="15.7817922777357"><ele>980.4</ele><time>2026-05-03T09:32:12Z</time></trkpt><trkpt lat="38.04779578043144" lon="15.78192327029213"><ele>980.8</ele><time>2026-05-03T09:32:13Z</time></trkpt><trkpt lat="38.04785279360229" lon="15.78205072744905"><ele>981.2</ele><time>2026-05-03T09:32:14Z</time></trkpt><trkpt lat="38.04790572260308" lon="15.782167333081663"><ele>981.6</ele><time>2026-05-03T09:32:15Z</time></trkpt><trkpt lat="38.04795970886977" lon="15.78226688593654"><ele>982.0</ele><time>2026-05-03T09:32:16Z</time></trkpt><trkpt lat="38.04804248266065" lon="15.782368251132572"><ele>982.0</ele><time>2026-05-03T09:32:17Z</time></trkpt><trkpt lat="38.04814318986757" lon="15.782466166743633"><ele>982.0</ele><time>2026-05-03T09:32:18Z</time></trkpt><trkpt lat="38.048244879260835" lon="15.782583362773796"><ele>982.0</ele><time>2026-05-03T09:32:19Z</time></trkpt><trkpt lat="38.04833593536762" lon="15.782714693931345"><ele>982.0</ele><time>2026-05-03T09:32:20Z</time></trkpt><trkpt lat="38.04841329313733" lon="15.782857942013798"><ele>984.5</ele><time>2026-05-03T09:32:21Z</time></trkpt><trkpt lat="38.04849804029353" lon="15.782995690348695"><ele>987.0</ele><time>2026-05-03T09:32:22Z</time></trkpt><trkpt lat="38.04859822628331" lon="15.783113453658654"><ele>989.5</ele><time>2026-05-03T09:32:23Z</time></trkpt><trkpt lat="38.048700066842805" lon="15.783216466246923"><ele>992.0</ele><time>2026-05-03T09:32:24Z</time></trkpt><trkpt lat="38.04878954947368" lon="15.783313306592161"><ele>992.0</ele><time>2026-05-03T09:32:25Z</time></trkpt><trkpt lat="38.0488711197225" lon="15.783412339018987"><ele>992.0</ele><time>2026-05-03T09:32:26Z</time></trkpt><trkpt lat="38.04894848926136" lon="15.783530753451066"><ele>992.0</ele><time>2026-05-03T09:32:27Z</time></trkpt><trkpt lat="38.04901844278065" lon="15.783659555181382"><ele>992.0</ele><time>2026-05-03T09:32:28Z</time></trkpt><trkpt lat="38.04908310122538" lon="15.783786141142423"><ele>994.0</ele><time>2026-05-03T09:32:29Z</time></trkpt><trkpt lat="38.049144978818845" lon="15.783895251824562"><ele>996.0</ele><time>2026-05-03T09:32:30Z</time></trkpt><trkpt lat="38.04922391622064" lon="15.783987631084235"><ele>998.0</ele><time>2026-05-03T09:32:31Z</time></trkpt><trkpt lat="38.04932188155096" lon="15.784068606862684"><ele>1000.0</ele><time>2026-05-03T09:32:32Z</time></trkpt><trkpt lat="38.04945211641286" lon="15.78412972235537"><ele>1000.0</ele><time>2026-05-03T09:32:33Z</time></trkpt><trkpt lat="38.0495858365582" lon="15.78415969589815"><ele>1000.0</ele><time>2026-05-03T09:32:34Z</time></trkpt><trkpt lat="38.049733082549984" lon="15.784195023758103"><ele>1000.0</ele><time>2026-05-03T09:32:35Z</time></trkpt><trkpt lat="38.04991164361154" lon="15.784209621733716"><ele>1002.3333333333333</ele><time>2026-05-03T09:32:36Z</time></trkpt><trkpt lat="38.050086944384724" lon="15.78421082507832"><ele>1004.6666666666667</ele><time>2026-05-03T09:32:37Z</time></trkpt><trkpt lat="38.05025607394613" lon="15.784219377248432"><ele>1007.0</ele><time>2026-05-03T09:32:38Z</time></trkpt><trkpt lat="38.05041855970797" lon="15.784246115333877"><ele>1007.0</ele><time>2026-05-03T09:32:39Z</time></trkpt><trkpt lat="38.05057957565862" lon="15.784280278297116"><ele>1007.0</ele><time>2026-05-03T09:32:40Z</time></trkpt><trkpt lat="38.05073514284245" lon="15.784351484200716"><ele>1007.0</ele><time>2026-05-03T09:32:41Z</time></trkpt><trkpt lat="38.05091354294656" lon="15.784399524993425"><ele>1008.6666666666667</ele><time>2026-05-03T09:32:42Z</time></trkpt><trkpt lat="38.05108114840092" lon="15.784397715215494"><ele>1010.3333333333333</ele><time>2026-05-03T09:32:43Z</time></trkpt><trkpt lat="38.05129092620621" lon="15.784358061414345"><ele>1012.0</ele><time>2026-05-03T09:32:44Z</time></trkpt><trkpt lat="38.05146906708999" lon="15.784364758403733"><ele>1014.3333333333333</ele><time>2026-05-03T09:32:45Z</time></trkpt><trkpt lat="38.051660063472546" lon="15.784365167219498"><ele>1016.6666666666667</ele><time>2026-05-03T09:32:46Z</time></trkpt><trkpt lat="38.05184417651138" lon="15.784365408126732"><ele>1019.0</ele><time>2026-05-03T09:32:47Z</time></trkpt><trkpt lat="38.052026847487944" lon="15.784369081488009"><ele>1019.0</ele><time>2026-05-03T09:32:48Z</time></trkpt><trkpt lat="38.05219992302638" lon="15.784382287798241"><ele>1019.0</ele><time>2026-05-03T09:32:49Z</time></trkpt><trkpt lat="38.052366534481116" lon="15.784415015512176"><ele>1019.0</ele><time>2026-05-03T09:32:50Z</time></trkpt><trkpt lat="38.05253758642487" lon="15.784447999998738"><ele>1021.6666666666667</ele><time>2026-05-03T09:32:51Z</time></trkpt><trkpt lat="38.05270634417683" lon="15.784484800554454"><ele>1024.3333333333333</ele><time>2026-05-03T09:32:52Z</time></trkpt><trkpt lat="38.05287632684502" lon="15.784517228342862"><ele>1027.0</ele><time>2026-05-03T09:32:53Z</time></trkpt><trkpt lat="38.05302260075981" lon="15.784537066572923"><ele>1027.0</ele><time>2026-05-03T09:32:54Z</time></trkpt><trkpt lat="38.05317085399681" lon="15.784546271963025"><ele>1027.0</ele><time>2026-05-03T09:32:55Z</time></trkpt><trkpt lat="38.053310995466816" lon="15.784540321115713"><ele>1027.0</ele><time>2026-05-03T09:32:56Z</time></trkpt><trkpt lat="38.053458230885134" lon="15.784484245886917"><ele>1027.0</ele><time>2026-05-03T09:32:57Z</time></trkpt><trkpt lat="38.05358608849312" lon="15.784469060913656"><ele>1029.0</ele><time>2026-05-03T09:32:58Z</time></trkpt><trkpt lat="38.053696391533364" lon="15.784467021133636"><ele>1031.0</ele><time>2026-05-03T09:32:59Z</time></trkpt><trkpt lat="38.05376678015798" lon="15.784513538603342"><ele>1033.0</ele><time>2026-05-03T09:33:00Z</time></trkpt><trkpt lat="38.053863100717486" lon="15.784566278630765"><ele>1035.0</ele><time>2026-05-03T09:33:01Z</time></trkpt><trkpt lat="38.05397802221313" lon="15.7846440669414"><ele>1037.0</ele><time>2026-05-03T09:33:02Z</time></trkpt><trkpt lat="38.054093232019916" lon="15.784720730992428"><ele>1038.5</ele><time>2026-05-03T09:33:03Z</time></trkpt><trkpt lat="38.05422233329722" lon="15.784781747041194"><ele>1040.0</ele><time>2026-05-03T09:33:04Z</time></trkpt><trkpt lat="38.05436282820351" lon="15.78482585971595"><ele>1041.5</ele><time>2026-05-03T09:33:05Z</time></trkpt><trkpt lat="38.05451417595246" lon="15.784857383777993"><ele>1043.0</ele><time>2026-05-03T09:33:06Z</time></trkpt><trkpt lat="38.05467062316622" lon="15.784902972958436"><ele>1043.0</ele><time>2026-05-03T09:33:07Z</time></trkpt><trkpt lat="38.05482409113434" lon="15.784956533474142"><ele>1043.0</ele><time>2026-05-03T09:33:08Z</time></trkpt><trkpt lat="38.054960871802265" lon="15.785006258178246"><ele>1043.0</ele><time>2026-05-03T09:33:09Z</time></trkpt><trkpt lat="38.05508985278102" lon="15.785038624954776"><ele>1043.0</ele><time>2026-05-03T09:33:10Z</time></trkpt><trkpt lat="38.05523174105228" lon="15.785061626376866"><ele>1042.6666666666667</ele><time>2026-05-03T09:33:11Z</time></trkpt><trkpt lat="38.05538110870913" lon="15.78507954645648"><ele>1042.3333333333333</ele><time>2026-05-03T09:33:12Z</time></trkpt><trkpt lat="38.05553263468079" lon="15.785112685534687"><ele>1042.0</ele><time>2026-05-03T09:33:13Z</time></trkpt><trkpt lat="38.05568104916133" lon="15.785140143539559"><ele>1042.5</ele><time>2026-05-03T09:33:14Z</time></trkpt><trkpt lat="38.05582227023339" lon="15.785163616117362"><ele>1043.0</ele><time>2026-05-03T09:33:15Z</time></trkpt><trkpt lat="38.05595510650142" lon="15.785194280569662"><ele>1043.5</ele><time>2026-05-03T09:33:16Z</time></trkpt><trkpt lat="38.05608372984714" lon="15.785217684246685"><ele>1044.0</ele><time>2026-05-03T09:33:17Z</time></trkpt><trkpt lat="38.05620214213281" lon="15.78521891447537"><ele>1039.2</ele><time>2026-05-03T09:33:18Z</time></trkpt><trkpt lat="38.05632122846284" lon="15.78520534053609"><ele>1034.4</ele><time>2026-05-03T09:33:19Z</time></trkpt><trkpt lat="38.05643826369579" lon="15.785193271602443"><ele>1029.6</ele><time>2026-05-03T09:33:20Z</time></trkpt><trkpt lat="38.056547890287845" lon="15.785183897102906"><ele>1024.8</ele><time>2026-05-03T09:33:21Z</time></trkpt><trkpt lat="38.05664803020783" lon="15.785183826706687"><ele>1020.0</ele><time>2026-05-03T09:33:22Z</time></trkpt><trkpt lat="38.056747179139194" lon="15.785195346752165"><ele>1019.5</ele><time>2026-05-03T09:33:23Z</time></trkpt><trkpt lat="38.056855967135185" lon="15.785217535904913"><ele>1019.0</ele><time>2026-05-03T09:33:24Z</time></trkpt><trkpt lat="38.056971137691335" lon="15.785275506931253"><ele>1018.5</ele><time>2026-05-03T09:33:25Z</time></trkpt><trkpt lat="38.0571013149143" lon="15.785290681670572"><ele>1018.0</ele><time>2026-05-03T09:33:26Z</time></trkpt><trkpt lat="38.057232825700396" lon="15.785316731117833"><ele>1018.0</ele><time>2026-05-03T09:33:27Z</time></trkpt><trkpt lat="38.05737357657699" lon="15.78532319235767"><ele>1018.0</ele><time>2026-05-03T09:33:28Z</time></trkpt><trkpt lat="38.05752189348376" lon="15.78532526632127"><ele>1018.0</ele><time>2026-05-03T09:33:29Z</time></trkpt><trkpt lat="38.05767195753723" lon="15.785325057838925"><ele>1018.0</ele><time>2026-05-03T09:33:30Z</time></trkpt><trkpt lat="38.05782134652483" lon="15.785333827785395"><ele>1020.0</ele><time>2026-05-03T09:33:31Z</time></trkpt><trkpt lat="38.057966244402515" lon="15.785319715163103"><ele>1022.0</ele><time>2026-05-03T09:33:32Z</time></trkpt><trkpt lat="38.05809857266913" lon="15.785324522145212"><ele>1024.0</ele><time>2026-05-03T09:33:33Z</time></trkpt><trkpt lat="38.0582345787789" lon="15.785356218771684"><ele>1026.0</ele><time>2026-05-03T09:33:34Z</time></trkpt><trkpt lat="38.05837698165953" lon="15.785393947752812"><ele>1028.0</ele><time>2026-05-03T09:33:35Z</time></trkpt><trkpt lat="38.05852670516886" lon="15.785417534841196"><ele>1030.0</ele><time>2026-05-03T09:33:36Z</time></trkpt><trkpt lat="38.05868804549457" lon="15.785448563192618"><ele>1032.0</ele><time>2026-05-03T09:33:37Z</time></trkpt><trkpt lat="38.058836640762046" lon="15.785472471765095"><ele>1032.0</ele><time>2026-05-03T09:33:38Z</time></trkpt><trkpt lat="38.059002436084825" lon="15.78550065173717"><ele>1032.0</ele><time>2026-05-03T09:33:39Z</time></trkpt><trkpt lat="38.05913942004303" lon="15.785508481418354"><ele>1032.0</ele><time>2026-05-03T09:33:40Z</time></trkpt><trkpt lat="38.05929376025246" lon="15.78551280911635"><ele>1035.3333333333333</ele><time>2026-05-03T09:33:41Z</time></trkpt><trkpt lat="38.05945638880721" lon="15.785441916132951"><ele>1038.6666666666665</ele><time>2026-05-03T09:33:42Z</time></trkpt><trkpt lat="38.0596170891928" lon="15.785397063476365"><ele>1042.0</ele><time>2026-05-03T09:33:43Z</time></trkpt><trkpt lat="38.059779111858795" lon="15.785370992463815"><ele>1042.0</ele><time>2026-05-03T09:33:44Z</time></trkpt><trkpt lat="38.05991742685583" lon="15.785314387810722"><ele>1042.0</ele><time>2026-05-03T09:33:45Z</time></trkpt><trkpt lat="38.060049348587704" lon="15.78530453888756"><ele>1042.0</ele><time>2026-05-03T09:33:46Z</time></trkpt><trkpt lat="38.060165704204685" lon="15.785313820042004"><ele>1042.0</ele><time>2026-05-03T09:33:47Z</time></trkpt><trkpt lat="38.06023070274453" lon="15.785343581778367"><ele>1043.8</ele><time>2026-05-03T09:33:48Z</time></trkpt><trkpt lat="38.06028873653777" lon="15.785387571379847"><ele>1045.6</ele><time>2026-05-03T09:33:49Z</time></trkpt><trkpt lat="38.060353730957814" lon="15.785462378002018"><ele>1047.3999999999999</ele><time>2026-05-03T09:33:51Z</time></trkpt><trkpt lat="38.060453601544445" lon="15.785616764899386"><ele>1049.2</ele><time>2026-05-03T09:33:53Z</time></trkpt><trkpt lat="38.06053435533697" lon="15.785698980772791"><ele>1051.0</ele><time>2026-05-03T09:33:54Z</time></trkpt><trkpt lat="38.06060806733247" lon="15.78579403762832"><ele>1051.0</ele><time>2026-05-03T09:33:55Z</time></trkpt><trkpt lat="38.060692840292404" lon="15.785864611213148"><ele>1051.0</ele><time>2026-05-03T09:33:56Z</time></trkpt><trkpt lat="38.06077008055352" lon="15.78594832212356"><ele>1051.0</ele><time>2026-05-03T09:33:57Z</time></trkpt><trkpt lat="38.060834702638886" lon="15.786065983816458"><ele>1051.0</ele><time>2026-05-03T09:33:58Z</time></trkpt><trkpt lat="38.06089868398599" lon="15.78617809140796"><ele>1051.0</ele><time>2026-05-03T09:33:59Z</time></trkpt><trkpt lat="38.06096475603189" lon="15.786319948017807"><ele>1050.5</ele><time>2026-05-03T09:34:00Z</time></trkpt><trkpt lat="38.061030300054135" lon="15.786451308082919"><ele>1050.0</ele><time>2026-05-03T09:34:01Z</time></trkpt><trkpt lat="38.06108471385899" lon="15.786589228515833"><ele>1049.5</ele><time>2026-05-03T09:34:02Z</time></trkpt><trkpt lat="38.061103166729005" lon="15.786735887449272"><ele>1049.0</ele><time>2026-05-03T09:34:03Z</time></trkpt><trkpt lat="38.061125399627436" lon="15.786897843931206"><ele>1049.0</ele><time>2026-05-03T09:34:04Z</time></trkpt><trkpt lat="38.06111751934171" lon="15.787052242627155"><ele>1049.0</ele><time>2026-05-03T09:34:05Z</time></trkpt><trkpt lat="38.06111484671574" lon="15.78720304161149"><ele>1049.0</ele><time>2026-05-03T09:34:06Z</time></trkpt><trkpt lat="38.061108535086966" lon="15.78733661235762"><ele>1049.0</ele><time>2026-05-03T09:34:07Z</time></trkpt><trkpt lat="38.0611101323663" lon="15.787476461760182"><ele>1049.0</ele><time>2026-05-03T09:34:08Z</time></trkpt><trkpt lat="38.06110115231675" lon="15.787627818276178"><ele>1049.0</ele><time>2026-05-03T09:34:09Z</time></trkpt><trkpt lat="38.06111069349998" lon="15.78780734682597"><ele>1049.0</ele><time>2026-05-03T09:34:10Z</time></trkpt><trkpt lat="38.06111181129219" lon="15.787981485403611"><ele>1049.0</ele><time>2026-05-03T09:34:11Z</time></trkpt><trkpt lat="38.061115941460436" lon="15.788146886174578"><ele>1051.75</ele><time>2026-05-03T09:34:12Z</time></trkpt><trkpt lat="38.06111393676443" lon="15.788315721489935"><ele>1054.5</ele><time>2026-05-03T09:34:13Z</time></trkpt><trkpt lat="38.061108766729966" lon="15.788487173672584"><ele>1057.25</ele><time>2026-05-03T09:34:14Z</time></trkpt><trkpt lat="38.061111341078096" lon="15.788649257294967"><ele>1060.0</ele><time>2026-05-03T09:34:15Z</time></trkpt><trkpt lat="38.06112164136791" lon="15.788790523454734"><ele>1063.0</ele><time>2026-05-03T09:34:16Z</time></trkpt><trkpt lat="38.06113254003908" lon="15.788905517937948"><ele>1066.0</ele><time>2026-05-03T09:34:17Z</time></trkpt><trkpt lat="38.06111893814898" lon="15.788995890136842"><ele>1069.0</ele><time>2026-05-03T09:34:18Z</time></trkpt><trkpt lat="38.06105479563905" lon="15.78911992861106"><ele>1072.0</ele><time>2026-05-03T09:34:20Z</time></trkpt><trkpt lat="38.06098418716212" lon="15.789119412481885"><ele>1075.0</ele><time>2026-05-03T09:34:21Z</time></trkpt><trkpt lat="38.06086885416387" lon="15.789117589111841"><ele>1075.0</ele><time>2026-05-03T09:34:22Z</time></trkpt><trkpt lat="38.0608070519993" lon="15.789068689461581"><ele>1075.0</ele><time>2026-05-03T09:34:23Z</time></trkpt><trkpt lat="38.060792976283416" lon="15.788918325958376"><ele>1075.0</ele><time>2026-05-03T09:34:24Z</time></trkpt><trkpt lat="38.06068881674521" lon="15.788861511646632"><ele>1075.0</ele><time>2026-05-03T09:34:25Z</time></trkpt><trkpt lat="38.06056697348497" lon="15.788819762829387"><ele>1075.0</ele><time>2026-05-03T09:34:26Z</time></trkpt><trkpt lat="38.06045286985949" lon="15.788830624538846"><ele>1073.75</ele><time>2026-05-03T09:34:27Z</time></trkpt><trkpt lat="38.06034988263611" lon="15.788911481794575"><ele>1072.5</ele><time>2026-05-03T09:34:28Z</time></trkpt><trkpt lat="38.060235659098616" lon="15.788995167317502"><ele>1071.25</ele><time>2026-05-03T09:34:29Z</time></trkpt><trkpt lat="38.06016698943554" lon="15.789110233332249"><ele>1070.0</ele><time>2026-05-03T09:34:30Z</time></trkpt><trkpt lat="38.060092621042116" lon="15.789231791444369"><ele>1065.6666666666667</ele><time>2026-05-03T09:34:31Z</time></trkpt><trkpt lat="38.060009607584405" lon="15.78938328819279"><ele>1061.3333333333333</ele><time>2026-05-03T09:34:32Z</time></trkpt><trkpt lat="38.05993809308459" lon="15.789537917247394"><ele>1057.0</ele><time>2026-05-03T09:34:33Z</time></trkpt><trkpt lat="38.05984880903598" lon="15.789762721049387"><ele>1057.0</ele><time>2026-05-03T09:34:34Z</time></trkpt><trkpt lat="38.05975457395345" lon="15.789962234176395"><ele>1057.0</ele><time>2026-05-03T09:34:35Z</time></trkpt><trkpt lat="38.059657808796594" lon="15.790165730115023"><ele>1057.0</ele><time>2026-05-03T09:34:36Z</time></trkpt><trkpt lat="38.05955879914042" lon="15.790374819659602"><ele>1064.0</ele><time>2026-05-03T09:34:37Z</time></trkpt><trkpt lat="38.059454912113594" lon="15.790586471199385"><ele>1071.0</ele><time>2026-05-03T09:34:38Z</time></trkpt><trkpt lat="38.05935216994376" lon="15.790797202982503"><ele>1078.0</ele><time>2026-05-03T09:34:39Z</time></trkpt><trkpt lat="38.05925646323518" lon="15.791001231816827"><ele>1081.3333333333333</ele><time>2026-05-03T09:34:40Z</time></trkpt><trkpt lat="38.05916667567903" lon="15.791196400451687"><ele>1084.6666666666667</ele><time>2026-05-03T09:34:41Z</time></trkpt><trkpt lat="38.0590686924135" lon="15.791369397524985"><ele>1088.0</ele><time>2026-05-03T09:34:42Z</time></trkpt><trkpt lat="38.058986219967395" lon="15.791553927697942"><ele>1081.6666666666667</ele><time>2026-05-03T09:34:43Z</time></trkpt><trkpt lat="38.058906658590494" lon="15.791734888843772"><ele>1075.3333333333333</ele><time>2026-05-03T09:34:44Z</time></trkpt><trkpt lat="38.05882724216899" lon="15.791910949036595"><ele>1069.0</ele><time>2026-05-03T09:34:45Z</time></trkpt><trkpt lat="38.05875745225654" lon="15.792066624814394"><ele>1069.0</ele><time>2026-05-03T09:34:46Z</time></trkpt><trkpt lat="38.05871236209214" lon="15.792240947229054"><ele>1069.0</ele><time>2026-05-03T09:34:47Z</time></trkpt><trkpt lat="38.05869567848219" lon="15.792360183884227"><ele>1069.0</ele><time>2026-05-03T09:34:48Z</time></trkpt><trkpt lat="38.05870106186542" lon="15.792469859432332"><ele>1069.0</ele><time>2026-05-03T09:34:49Z</time></trkpt><trkpt lat="38.05877883653319" lon="15.792581594306116"><ele>1069.0</ele><time>2026-05-03T09:34:50Z</time></trkpt><trkpt lat="38.058835278480586" lon="15.792739969319834"><ele>1063.0</ele><time>2026-05-03T09:34:51Z</time></trkpt><trkpt lat="38.05889695792472" lon="15.79288773110217"><ele>1057.0</ele><time>2026-05-03T09:34:52Z</time></trkpt><trkpt lat="38.058948834666644" lon="15.793092612577624"><ele>1051.0</ele><time>2026-05-03T09:34:53Z</time></trkpt><trkpt lat="38.05900942960544" lon="15.793266131243199"><ele>1051.0</ele><time>2026-05-03T09:34:54Z</time></trkpt><trkpt lat="38.05908536466597" lon="15.793453406383746"><ele>1051.0</ele><time>2026-05-03T09:34:55Z</time></trkpt><trkpt lat="38.0591698618632" lon="15.793650120775597"><ele>1051.0</ele><time>2026-05-03T09:34:56Z</time></trkpt><trkpt lat="38.05926625338808" lon="15.79384297497675"><ele>1061.0</ele><time>2026-05-03T09:34:57Z</time></trkpt><trkpt lat="38.059351567172975" lon="15.794020462527358"><ele>1071.0</ele><time>2026-05-03T09:34:58Z</time></trkpt><trkpt lat="38.059432665698225" lon="15.794227450407865"><ele>1081.0</ele><time>2026-05-03T09:34:59Z</time></trkpt><trkpt lat="38.05950941879707" lon="15.79443123158764"><ele>1081.0</ele><time>2026-05-03T09:35:00Z</time></trkpt><trkpt lat="38.05959088125211" lon="15.794626887932155"><ele>1081.0</ele><time>2026-05-03T09:35:01Z</time></trkpt><trkpt lat="38.059669921668515" lon="15.794806421995242"><ele>1081.0</ele><time>2026-05-03T09:35:02Z</time></trkpt><trkpt lat="38.05971267197094" lon="15.794969113748936"><ele>1081.0</ele><time>2026-05-03T09:35:03Z</time></trkpt><trkpt lat="38.05975938285694" lon="15.795106948479003"><ele>1081.0</ele><time>2026-05-03T09:35:04Z</time></trkpt><trkpt lat="38.05981621272657" lon="15.795218877614102"><ele>1081.0</ele><time>2026-05-03T09:35:05Z</time></trkpt><trkpt lat="38.059853283728756" lon="15.795315917170113"><ele>1081.0</ele><time>2026-05-03T09:35:06Z</time></trkpt><trkpt lat="38.05985900825881" lon="15.795417634030665"><ele>1081.0</ele><time>2026-05-03T09:35:07Z</time></trkpt><trkpt lat="38.05985294916515" lon="15.79550057675798"><ele>1084.3999999999999</ele><time>2026-05-03T09:35:08Z</time></trkpt><trkpt lat="38.05982620313394" lon="15.795599040835649"><ele>1087.8</ele><time>2026-05-03T09:35:09Z</time></trkpt><trkpt lat="38.05975076767264" lon="15.79564840061105"><ele>1091.1999999999998</ele><time>2026-05-03T09:35:10Z</time></trkpt><trkpt lat="38.05967775491291" lon="15.795693507071254"><ele>1094.6</ele><time>2026-05-03T09:35:11Z</time></trkpt><trkpt lat="38.059566245685964" lon="15.79576444500996"><ele>1098.0</ele><time>2026-05-03T09:35:12Z</time></trkpt><trkpt lat="38.05943936914778" lon="15.79592316102234"><ele>1100.75</ele><time>2026-05-03T09:35:13Z</time></trkpt><trkpt lat="38.059375778646036" lon="15.796098780594697"><ele>1103.5</ele><time>2026-05-03T09:35:14Z</time></trkpt><trkpt lat="38.059317790911095" lon="15.79623826852519"><ele>1106.25</ele><time>2026-05-03T09:35:15Z</time></trkpt><trkpt lat="38.05930282559036" lon="15.796408767268687"><ele>1109.0</ele><time>2026-05-03T09:35:16Z</time></trkpt><trkpt lat="38.05927496879575" lon="15.79660078722013"><ele>1109.0</ele><time>2026-05-03T09:35:17Z</time></trkpt><trkpt lat="38.059245266978394" lon="15.796804625667397"><ele>1109.0</ele><time>2026-05-03T09:35:18Z</time></trkpt><trkpt lat="38.05920782163792" lon="15.797014559666177"><ele>1109.0</ele><time>2026-05-03T09:35:19Z</time></trkpt><trkpt lat="38.05920014662923" lon="15.797222326391521"><ele>1110.0</ele><time>2026-05-03T09:35:20Z</time></trkpt><trkpt lat="38.05916802354649" lon="15.797421516945192"><ele>1111.0</ele><time>2026-05-03T09:35:21Z</time></trkpt><trkpt lat="38.059140609547654" lon="15.797628035156338"><ele>1112.0</ele><time>2026-05-03T09:35:22Z</time></trkpt><trkpt lat="38.05911252906671" lon="15.797820463490655"><ele>1109.0</ele><time>2026-05-03T09:35:23Z</time></trkpt><trkpt lat="38.05908257160862" lon="15.79802369909594"><ele>1106.0</ele><time>2026-05-03T09:35:24Z</time></trkpt><trkpt lat="38.05905454171932" lon="15.798211235962746"><ele>1103.0</ele><time>2026-05-03T09:35:25Z</time></trkpt><trkpt lat="38.05903298029422" lon="15.79837966529964"><ele>1100.0</ele><time>2026-05-03T09:35:26Z</time></trkpt><trkpt lat="38.059019727072005" lon="15.798564770898558"><ele>1096.75</ele><time>2026-05-03T09:35:27Z</time></trkpt><trkpt lat="38.05900609362901" lon="15.798751647553882"><ele>1093.5</ele><time>2026-05-03T09:35:28Z</time></trkpt><trkpt lat="38.05904186790141" lon="15.79894465121862"><ele>1090.25</ele><time>2026-05-03T09:35:29Z</time></trkpt><trkpt lat="38.059078795783606" lon="15.799121959839956"><ele>1087.0</ele><time>2026-05-03T09:35:30Z</time></trkpt><trkpt lat="38.05911113959096" lon="15.799274376377127"><ele>1093.0</ele><time>2026-05-03T09:35:31Z</time></trkpt><trkpt lat="38.05914070611024" lon="15.799434547217583"><ele>1099.0</ele><time>2026-05-03T09:35:32Z</time></trkpt><trkpt lat="38.05914819694272" lon="15.79957606313679"><ele>1105.0</ele><time>2026-05-03T09:35:33Z</time></trkpt><trkpt lat="38.05916063803718" lon="15.799704812511102"><ele>1111.0</ele><time>2026-05-03T09:35:34Z</time></trkpt><trkpt lat="38.05916238064494" lon="15.799850094989612"><ele>1111.0</ele><time>2026-05-03T09:35:35Z</time></trkpt><trkpt lat="38.05915209119122" lon="15.800000945744904"><ele>1111.0</ele><time>2026-05-03T09:35:36Z</time></trkpt><trkpt lat="38.059147922504785" lon="15.800166505420158"><ele>1111.0</ele><time>2026-05-03T09:35:37Z</time></trkpt><trkpt lat="38.05912807282829" lon="15.800344515628677"><ele>1111.0</ele><time>2026-05-03T09:35:38Z</time></trkpt><trkpt lat="38.05910894700927" lon="15.800519073047777"><ele>1110.2</ele><time>2026-05-03T09:35:39Z</time></trkpt><trkpt lat="38.05909107344232" lon="15.800669104202768"><ele>1109.3999999999999</ele><time>2026-05-03T09:35:40Z</time></trkpt><trkpt lat="38.059069899340884" lon="15.80080042654246"><ele>1108.6</ele><time>2026-05-03T09:35:41Z</time></trkpt><trkpt lat="38.0590570676479" lon="15.8009306238103"><ele>1107.8</ele><time>2026-05-03T09:35:42Z</time></trkpt><trkpt lat="38.05901587664022" lon="15.80101978401813"><ele>1107.0</ele><time>2026-05-03T09:35:43Z</time></trkpt><trkpt lat="38.05896370821336" lon="15.801085385856679"><ele>1109.5</ele><time>2026-05-03T09:35:44Z</time></trkpt><trkpt lat="38.058895480989015" lon="15.80114593471701"><ele>1112.0</ele><time>2026-05-03T09:35:45Z</time></trkpt><trkpt lat="38.058803209313076" lon="15.801257823147084"><ele>1114.5</ele><time>2026-05-03T09:35:46Z</time></trkpt><trkpt lat="38.058709465911" lon="15.801364006036383"><ele>1117.0</ele><time>2026-05-03T09:35:47Z</time></trkpt><trkpt lat="38.05861890231202" lon="15.801474072767638"><ele>1117.0</ele><time>2026-05-03T09:35:48Z</time></trkpt><trkpt lat="38.05851904040646" lon="15.801584107691458"><ele>1117.0</ele><time>2026-05-03T09:35:49Z</time></trkpt><trkpt lat="38.058404497152324" lon="15.801695074006988"><ele>1117.0</ele><time>2026-05-03T09:35:50Z</time></trkpt><trkpt lat="38.05828429588707" lon="15.801835128973437"><ele>1117.0</ele><time>2026-05-03T09:35:51Z</time></trkpt><trkpt lat="38.05819298662175" lon="15.801968248719978"><ele>1116.5</ele><time>2026-05-03T09:35:52Z</time></trkpt><trkpt lat="38.05809566772723" lon="15.802093191046025"><ele>1116.0</ele><time>2026-05-03T09:35:53Z</time></trkpt><trkpt lat="38.05798180976095" lon="15.802210148658812"><ele>1115.5</ele><time>2026-05-03T09:35:54Z</time></trkpt><trkpt lat="38.05786673248418" lon="15.802352436500561"><ele>1115.0</ele><time>2026-05-03T09:35:55Z</time></trkpt><trkpt lat="38.05774749522503" lon="15.802493128253007"><ele>1115.0</ele><time>2026-05-03T09:35:56Z</time></trkpt><trkpt lat="38.05762305863339" lon="15.802626429943313"><ele>1115.0</ele><time>2026-05-03T09:35:57Z</time></trkpt><trkpt lat="38.05750138408576" lon="15.802760332069358"><ele>1115.0</ele><time>2026-05-03T09:35:58Z</time></trkpt><trkpt lat="38.057382525670825" lon="15.802885324167994"><ele>1114.75</ele><time>2026-05-03T09:35:59Z</time></trkpt><trkpt lat="38.05727033754147" lon="15.803007030559565"><ele>1114.5</ele><time>2026-05-03T09:36:00Z</time></trkpt><trkpt lat="38.057175659298316" lon="15.803116325464204"><ele>1114.25</ele><time>2026-05-03T09:36:01Z</time></trkpt><trkpt lat="38.0570990217198" lon="15.803225169899399"><ele>1114.0</ele><time>2026-05-03T09:36:02Z</time></trkpt><trkpt lat="38.057030597899164" lon="15.803375351454873"><ele>1114.0</ele><time>2026-05-03T09:36:03Z</time></trkpt><trkpt lat="38.05696253658375" lon="15.803535123843579"><ele>1114.0</ele><time>2026-05-03T09:36:04Z</time></trkpt><trkpt lat="38.05691085194846" lon="15.803695826421478"><ele>1114.0</ele><time>2026-05-03T09:36:05Z</time></trkpt><trkpt lat="38.056871078544816" lon="15.803876913089937"><ele>1114.0</ele><time>2026-05-03T09:36:06Z</time></trkpt><trkpt lat="38.056834079096525" lon="15.80404849879132"><ele>1114.0</ele><time>2026-05-03T09:36:07Z</time></trkpt><trkpt lat="38.05680240160402" lon="15.804227228880245"><ele>1114.0</ele><time>2026-05-03T09:36:08Z</time></trkpt><trkpt lat="38.05676984236672" lon="15.804407349122762"><ele>1114.0</ele><time>2026-05-03T09:36:09Z</time></trkpt><trkpt lat="38.056740833814644" lon="15.804583089036987"><ele>1114.0</ele><time>2026-05-03T09:36:10Z</time></trkpt><trkpt lat="38.05671292156915" lon="15.804757163568596"><ele>1115.75</ele><time>2026-05-03T09:36:11Z</time></trkpt><trkpt lat="38.05669650250937" lon="15.80493289102022"><ele>1117.5</ele><time>2026-05-03T09:36:12Z</time></trkpt><trkpt lat="38.056657483980466" lon="15.805088436940064"><ele>1119.25</ele><time>2026-05-03T09:36:13Z</time></trkpt><trkpt lat="38.05663914845249" lon="15.805246607640022"><ele>1121.0</ele><time>2026-05-03T09:36:14Z</time></trkpt><trkpt lat="38.05663584778348" lon="15.80542502730033"><ele>1122.5</ele><time>2026-05-03T09:36:15Z</time></trkpt><trkpt lat="38.056610416188704" lon="15.80556567848327"><ele>1124.0</ele><time>2026-05-03T09:36:16Z</time></trkpt><trkpt lat="38.056603473916226" lon="15.805726692670111"><ele>1125.5</ele><time>2026-05-03T09:36:17Z</time></trkpt><trkpt lat="38.056602625755026" lon="15.805882020933133"><ele>1127.0</ele><time>2026-05-03T09:36:18Z</time></trkpt><trkpt lat="38.05666054351418" lon="15.806074755841708"><ele>1127.0</ele><time>2026-05-03T09:36:19Z</time></trkpt><trkpt lat="38.05668758615126" lon="15.806207734770304"><ele>1127.0</ele><time>2026-05-03T09:36:20Z</time></trkpt><trkpt lat="38.056693451795084" lon="15.80635964802978"><ele>1127.0</ele><time>2026-05-03T09:36:21Z</time></trkpt><trkpt lat="38.05669878925173" lon="15.806512144946021"><ele>1127.0</ele><time>2026-05-03T09:36:22Z</time></trkpt><trkpt lat="38.05664962028242" lon="15.806687938841385"><ele>1127.6666666666667</ele><time>2026-05-03T09:36:23Z</time></trkpt><trkpt lat="38.05666142579105" lon="15.806867317419542"><ele>1128.3333333333333</ele><time>2026-05-03T09:36:24Z</time></trkpt><trkpt lat="38.056679421346736" lon="15.807055831611486"><ele>1129.0</ele><time>2026-05-03T09:36:25Z</time></trkpt><trkpt lat="38.05668167999659" lon="15.807262276544892"><ele>1129.0</ele><time>2026-05-03T09:36:26Z</time></trkpt><trkpt lat="38.05669352607253" lon="15.807462309268825"><ele>1129.0</ele><time>2026-05-03T09:36:27Z</time></trkpt><trkpt lat="38.05668753788971" lon="15.80766729989276"><ele>1129.0</ele><time>2026-05-03T09:36:28Z</time></trkpt><trkpt lat="38.05667778025024" lon="15.807882118010976"><ele>1129.2</ele><time>2026-05-03T09:36:29Z</time></trkpt><trkpt lat="38.056668418260564" lon="15.80807904120141"><ele>1129.4</ele><time>2026-05-03T09:36:30Z</time></trkpt><trkpt lat="38.05665767851747" lon="15.808232907966538"><ele>1129.6</ele><time>2026-05-03T09:36:31Z</time></trkpt><trkpt lat="38.056647818550175" lon="15.808337644840927"><ele>1129.8</ele><time>2026-05-03T09:36:32Z</time></trkpt><trkpt lat="38.056651651694004" lon="15.808421976700116"><ele>1130.0</ele><time>2026-05-03T09:36:34Z</time></trkpt><trkpt lat="38.056801416730664" lon="15.808319731810013"><ele>1130.0</ele><time>2026-05-03T09:36:39Z</time></trkpt><trkpt lat="38.05683080660094" lon="15.808238851968664"><ele>1130.0</ele><time>2026-05-03T09:36:40Z</time></trkpt><trkpt lat="38.05686766953287" lon="15.808154518690595"><ele>1130.0</ele><time>2026-05-03T09:36:41Z</time></trkpt><trkpt lat="38.056925629411154" lon="15.80807509740833"><ele>1130.0</ele><time>2026-05-03T09:36:42Z</time></trkpt><trkpt lat="38.0570138237361" lon="15.807998709057644"><ele>1130.0</ele><time>2026-05-03T09:36:43Z</time></trkpt><trkpt lat="38.05712201877563" lon="15.80793926980317"><ele>1130.0</ele><time>2026-05-03T09:36:44Z</time></trkpt><trkpt lat="38.05724415086745" lon="15.80787915728625"><ele>1130.0</ele><time>2026-05-03T09:36:45Z</time></trkpt><trkpt lat="38.05739103867743" lon="15.807807472919832"><ele>1130.0</ele><time>2026-05-03T09:36:46Z</time></trkpt><trkpt lat="38.057531737608336" lon="15.807731708181164"><ele>1130.0</ele><time>2026-05-03T09:36:47Z</time></trkpt><trkpt lat="38.05766970334359" lon="15.807654902261145"><ele>1131.4</ele><time>2026-05-03T09:36:48Z</time></trkpt><trkpt lat="38.05780044857929" lon="15.80759644588763"><ele>1132.8</ele><time>2026-05-03T09:36:49Z</time></trkpt><trkpt lat="38.05791910613953" lon="15.807553329708284"><ele>1134.2</ele><time>2026-05-03T09:36:50Z</time></trkpt><trkpt lat="38.058019545899626" lon="15.807526794025494"><ele>1135.6</ele><time>2026-05-03T09:36:51Z</time></trkpt><trkpt lat="38.05809105179633" lon="15.807511261508424"><ele>1137.0</ele><time>2026-05-03T09:36:52Z</time></trkpt><trkpt lat="38.05815739337628" lon="15.807519349567885"><ele>1136.9999999999998</ele><time>2026-05-03T09:36:53Z</time></trkpt><trkpt lat="38.058220116993034" lon="15.807496473308714"><ele>1137.0</ele><time>2026-05-03T09:36:54Z</time></trkpt><trkpt lat="38.05828995613696" lon="15.807495058646165"><ele>1137.0</ele><time>2026-05-03T09:36:56Z</time></trkpt><trkpt lat="38.058362588707496" lon="15.80748262151625"><ele>1137.0</ele><time>2026-05-03T09:37:00Z</time></trkpt><trkpt lat="38.05844937813908" lon="15.807488804354813"><ele>1137.0</ele><time>2026-05-03T09:37:04Z</time></trkpt><trkpt lat="38.0585142381547" lon="15.807470938174536"><ele>1136.9999999999998</ele><time>2026-05-03T09:37:08Z</time></trkpt><trkpt lat="38.05859773766808" lon="15.807464757675293"><ele>1137.0</ele><time>2026-05-03T09:37:36Z</time></trkpt><trkpt lat="38.058664364145216" lon="15.8074507443442"><ele>1137.8333333333333</ele><time>2026-05-03T09:37:38Z</time></trkpt><trkpt lat="38.05874541898973" lon="15.807439133079917"><ele>1138.6666666666667</ele><time>2026-05-03T09:37:41Z</time></trkpt><trkpt lat="38.058819513771766" lon="15.807431010803842"><ele>1139.5</ele><time>2026-05-03T09:37:44Z</time></trkpt><trkpt lat="38.0588913964931" lon="15.807410361222722"><ele>1140.3333333333335</ele><time>2026-05-03T09:37:47Z</time></trkpt><trkpt lat="38.058978209967385" lon="15.807388799547427"><ele>1141.1666666666667</ele><time>2026-05-03T09:37:50Z</time></trkpt><trkpt lat="38.05905599715696" lon="15.80738476904439"><ele>1142.0</ele><time>2026-05-03T09:37:53Z</time></trkpt><trkpt lat="38.05912936088192" lon="15.807370008593665"><ele>1143.0</ele><time>2026-05-03T09:38:02Z</time></trkpt><trkpt lat="38.059212599711536" lon="15.807365322197905"><ele>1144.0</ele><time>2026-05-03T09:38:40Z</time></trkpt><trkpt lat="38.059307364489975" lon="15.807351461336234"><ele>1145.0</ele><time>2026-05-03T09:38:55Z</time></trkpt><trkpt lat="38.05937507541806" lon="15.807338248438978"><ele>1146.0</ele><time>2026-05-03T09:38:56Z</time></trkpt><trkpt lat="38.059439297769835" lon="15.807328266905342"><ele>1147.0</ele><time>2026-05-03T09:38:57Z</time></trkpt><trkpt lat="38.05952597036765" lon="15.807320128526273"><ele>1148.0</ele><time>2026-05-03T09:38:58Z</time></trkpt><trkpt lat="38.059614426783135" lon="15.807310270134963"><ele>1148.0</ele><time>2026-05-03T09:38:59Z</time></trkpt><trkpt lat="38.05971425710115" lon="15.807327579766634"><ele>1148.0</ele><time>2026-05-03T09:39:00Z</time></trkpt><trkpt lat="38.059834100514905" lon="15.807372876963452"><ele>1148.0</ele><time>2026-05-03T09:39:01Z</time></trkpt><trkpt lat="38.059953429439" lon="15.807408153100594"><ele>1148.0</ele><time>2026-05-03T09:39:02Z</time></trkpt><trkpt lat="38.060090694535745" lon="15.807448413278347"><ele>1149.0</ele><time>2026-05-03T09:39:03Z</time></trkpt><trkpt lat="38.06022574755562" lon="15.807503521295649"><ele>1150.0</ele><time>2026-05-03T09:39:04Z</time></trkpt><trkpt lat="38.0603738321983" lon="15.807575387763707"><ele>1151.0</ele><time>2026-05-03T09:39:05Z</time></trkpt><trkpt lat="38.06051902492882" lon="15.807653017997353"><ele>1152.6666666666667</ele><time>2026-05-03T09:39:06Z</time></trkpt><trkpt lat="38.06066571325074" lon="15.807739754548438"><ele>1154.3333333333333</ele><time>2026-05-03T09:39:07Z</time></trkpt><trkpt lat="38.060810437002715" lon="15.80782547840608"><ele>1156.0</ele><time>2026-05-03T09:39:08Z</time></trkpt><trkpt lat="38.060953440455265" lon="15.807927293104493"><ele>1156.3333333333333</ele><time>2026-05-03T09:39:09Z</time></trkpt><trkpt lat="38.061093129465654" lon="15.8080357988369"><ele>1156.6666666666667</ele><time>2026-05-03T09:39:10Z</time></trkpt><trkpt lat="38.06122928595162" lon="15.808155805481412"><ele>1157.0</ele><time>2026-05-03T09:39:11Z</time></trkpt><trkpt lat="38.06135189534115" lon="15.808301902613442"><ele>1157.0</ele><time>2026-05-03T09:39:12Z</time></trkpt><trkpt lat="38.0614988204305" lon="15.80845582113848"><ele>1157.0</ele><time>2026-05-03T09:39:13Z</time></trkpt><trkpt lat="38.06161421568937" lon="15.808621858197853"><ele>1157.0</ele><time>2026-05-03T09:39:14Z</time></trkpt><trkpt lat="38.061703418433474" lon="15.808789158227915"><ele>1158.0</ele><time>2026-05-03T09:39:15Z</time></trkpt><trkpt lat="38.061726780922136" lon="15.808970219487705"><ele>1159.0</ele><time>2026-05-03T09:39:16Z</time></trkpt><trkpt lat="38.06174878237199" lon="15.809170192003986"><ele>1160.0</ele><time>2026-05-03T09:39:17Z</time></trkpt><trkpt lat="38.06173887788856" lon="15.809388923613529"><ele>1161.3333333333335</ele><time>2026-05-03T09:39:18Z</time></trkpt><trkpt lat="38.06173217167366" lon="15.80961391553762"><ele>1162.6666666666667</ele><time>2026-05-03T09:39:19Z</time></trkpt><trkpt lat="38.06173733336949" lon="15.809840064723721"><ele>1164.0</ele><time>2026-05-03T09:39:20Z</time></trkpt><trkpt lat="38.06174620383119" lon="15.81006356039319"><ele>1163.6666666666667</ele><time>2026-05-03T09:39:21Z</time></trkpt><trkpt lat="38.06177020727817" lon="15.81028872664299"><ele>1163.3333333333335</ele><time>2026-05-03T09:39:22Z</time></trkpt><trkpt lat="38.06181972674681" lon="15.81051966678983"><ele>1163.0</ele><time>2026-05-03T09:39:23Z</time></trkpt><trkpt lat="38.06188163024069" lon="15.810771344355276"><ele>1164.3333333333335</ele><time>2026-05-03T09:39:24Z</time></trkpt><trkpt lat="38.061961479472714" lon="15.810999969440658"><ele>1165.6666666666667</ele><time>2026-05-03T09:39:25Z</time></trkpt><trkpt lat="38.06203737527626" lon="15.81122337463823"><ele>1167.0</ele><time>2026-05-03T09:39:26Z</time></trkpt><trkpt lat="38.062128275081506" lon="15.811457488625658"><ele>1167.0</ele><time>2026-05-03T09:39:27Z</time></trkpt><trkpt lat="38.0622180826254" lon="15.81169775765962"><ele>1167.0</ele><time>2026-05-03T09:39:28Z</time></trkpt><trkpt lat="38.06230722004809" lon="15.811941079006536"><ele>1167.0</ele><time>2026-05-03T09:39:29Z</time></trkpt><trkpt lat="38.06239672734009" lon="15.81217845429028"><ele>1167.0</ele><time>2026-05-03T09:39:30Z</time></trkpt><trkpt lat="38.06248335845328" lon="15.812412222932544"><ele>1167.0</ele><time>2026-05-03T09:39:31Z</time></trkpt><trkpt lat="38.06256510905687" lon="15.812634839654981"><ele>1167.0</ele><time>2026-05-03T09:39:32Z</time></trkpt><trkpt lat="38.06264347194374" lon="15.812841934164668"><ele>1168.0</ele><time>2026-05-03T09:39:33Z</time></trkpt><trkpt lat="38.062729043769" lon="15.813034276321698"><ele>1169.0</ele><time>2026-05-03T09:39:34Z</time></trkpt><trkpt lat="38.062830735751106" lon="15.813225956554286"><ele>1170.0</ele><time>2026-05-03T09:39:35Z</time></trkpt><trkpt lat="38.062941734939386" lon="15.813408217778013"><ele>1170.0</ele><time>2026-05-03T09:39:36Z</time></trkpt><trkpt lat="38.06307798713645" lon="15.813576492909473"><ele>1170.0</ele><time>2026-05-03T09:39:37Z</time></trkpt><trkpt lat="38.06323725574976" lon="15.813745603259052"><ele>1170.0</ele><time>2026-05-03T09:39:38Z</time></trkpt><trkpt lat="38.06339637594425" lon="15.813917527441196"><ele>1170.0</ele><time>2026-05-03T09:39:39Z</time></trkpt><trkpt lat="38.06356150201718" lon="15.81409730082959"><ele>1170.0</ele><time>2026-05-03T09:39:40Z</time></trkpt><trkpt lat="38.06372686635289" lon="15.814286960074451"><ele>1170.0</ele><time>2026-05-03T09:39:41Z</time></trkpt><trkpt lat="38.06388561377368" lon="15.81446860696071"><ele>1171.0</ele><time>2026-05-03T09:39:42Z</time></trkpt><trkpt lat="38.06403939174373" lon="15.81464427644465"><ele>1172.0</ele><time>2026-05-03T09:39:43Z</time></trkpt><trkpt lat="38.064203457586046" lon="15.814812582745173"><ele>1173.0</ele><time>2026-05-03T09:39:44Z</time></trkpt><trkpt lat="38.06437537296572" lon="15.814975305988872"><ele>1174.6666666666667</ele><time>2026-05-03T09:39:45Z</time></trkpt><trkpt lat="38.064531927701886" lon="15.815155421582395"><ele>1176.3333333333335</ele><time>2026-05-03T09:39:46Z</time></trkpt><trkpt lat="38.064679963600554" lon="15.815345084325031"><ele>1178.0</ele><time>2026-05-03T09:39:47Z</time></trkpt><trkpt lat="38.06483676887078" lon="15.815531990497318"><ele>1177.6666666666667</ele><time>2026-05-03T09:39:48Z</time></trkpt><trkpt lat="38.0649913068436" lon="15.815718579429477"><ele>1177.3333333333333</ele><time>2026-05-03T09:39:49Z</time></trkpt><trkpt lat="38.065147531953144" lon="15.81592169930917"><ele>1177.0</ele><time>2026-05-03T09:39:50Z</time></trkpt><trkpt lat="38.06532079433138" lon="15.81611585551219"><ele>1177.3333333333333</ele><time>2026-05-03T09:39:51Z</time></trkpt><trkpt lat="38.065485636313156" lon="15.816309074749931"><ele>1177.6666666666667</ele><time>2026-05-03T09:39:52Z</time></trkpt><trkpt lat="38.065626713800256" lon="15.816529909535467"><ele>1178.0</ele><time>2026-05-03T09:39:53Z</time></trkpt><trkpt lat="38.065787074836194" lon="15.816730269503637"><ele>1179.0</ele><time>2026-05-03T09:39:54Z</time></trkpt><trkpt lat="38.06594583303157" lon="15.816932937000898"><ele>1180.0</ele><time>2026-05-03T09:39:55Z</time></trkpt><trkpt lat="38.066107247660646" lon="15.817140964690934"><ele>1180.0</ele><time>2026-05-03T09:39:56Z</time></trkpt><trkpt lat="38.06628766603632" lon="15.817350095148441"><ele>1180.0</ele><time>2026-05-03T09:39:57Z</time></trkpt><trkpt lat="38.06646843705806" lon="15.817559658118183"><ele>1180.0</ele><time>2026-05-03T09:39:58Z</time></trkpt><trkpt lat="38.066638899079116" lon="15.81776683889272"><ele>1180.0</ele><time>2026-05-03T09:39:59Z</time></trkpt><trkpt lat="38.06680814215429" lon="15.8179818311625"><ele>1180.0</ele><time>2026-05-03T09:40:00Z</time></trkpt><trkpt lat="38.06696616051558" lon="15.8181945760866"><ele>1180.0</ele><time>2026-05-03T09:40:01Z</time></trkpt><trkpt lat="38.06711547277299" lon="15.818434363673155"><ele>1181.5</ele><time>2026-05-03T09:40:02Z</time></trkpt><trkpt lat="38.06730187683558" lon="15.818614910470998"><ele>1183.0</ele><time>2026-05-03T09:40:03Z</time></trkpt><trkpt lat="38.0674634723505" lon="15.818817970481005"><ele>1183.0</ele><time>2026-05-03T09:40:04Z</time></trkpt><trkpt lat="38.06761855999631" lon="15.819023401724062"><ele>1183.0</ele><time>2026-05-03T09:40:05Z</time></trkpt><trkpt lat="38.067773033384405" lon="15.819227587405107"><ele>1183.0</ele><time>2026-05-03T09:40:06Z</time></trkpt><trkpt lat="38.06792689751239" lon="15.81942043853989"><ele>1183.3333333333333</ele><time>2026-05-03T09:40:07Z</time></trkpt><trkpt lat="38.068084593141" lon="15.819610894185875"><ele>1183.6666666666667</ele><time>2026-05-03T09:40:08Z</time></trkpt><trkpt lat="38.068252904606325" lon="15.819786039148314"><ele>1184.0</ele><time>2026-05-03T09:40:09Z</time></trkpt><trkpt lat="38.06842733204261" lon="15.81995755265649"><ele>1184.0</ele><time>2026-05-03T09:40:10Z</time></trkpt><trkpt lat="38.068603046144176" lon="15.820129837321813"><ele>1184.0</ele><time>2026-05-03T09:40:11Z</time></trkpt><trkpt lat="38.068782613281776" lon="15.820291496224488"><ele>1184.0</ele><time>2026-05-03T09:40:12Z</time></trkpt><trkpt lat="38.068954979588625" lon="15.820468415164328"><ele>1184.3333333333335</ele><time>2026-05-03T09:40:13Z</time></trkpt><trkpt lat="38.069131737170956" lon="15.820636232302235"><ele>1184.6666666666667</ele><time>2026-05-03T09:40:14Z</time></trkpt><trkpt lat="38.069306722775025" lon="15.820807460326606"><ele>1185.0</ele><time>2026-05-03T09:40:15Z</time></trkpt><trkpt lat="38.06947608354484" lon="15.820971487507418"><ele>1185.6666666666667</ele><time>2026-05-03T09:40:16Z</time></trkpt><trkpt lat="38.06963493028816" lon="15.821121783652858"><ele>1186.3333333333335</ele><time>2026-05-03T09:40:17Z</time></trkpt><trkpt lat="38.06979250437462" lon="15.821267136944007"><ele>1187.0</ele><time>2026-05-03T09:40:18Z</time></trkpt><trkpt lat="38.069943918764295" lon="15.821408035962039"><ele>1187.0</ele><time>2026-05-03T09:40:19Z</time></trkpt><trkpt lat="38.070099006570764" lon="15.821539988174536"><ele>1187.0</ele><time>2026-05-03T09:40:20Z</time></trkpt><trkpt lat="38.07026320557036" lon="15.82166232410239"><ele>1187.0</ele><time>2026-05-03T09:40:21Z</time></trkpt><trkpt lat="38.07043707296015" lon="15.821762706813725"><ele>1187.3333333333335</ele><time>2026-05-03T09:40:22Z</time></trkpt><trkpt lat="38.07062006867367" lon="15.821841903013341"><ele>1187.6666666666667</ele><time>2026-05-03T09:40:23Z</time></trkpt><trkpt lat="38.07080067854349" lon="15.821920158092434"><ele>1188.0</ele><time>2026-05-03T09:40:24Z</time></trkpt><trkpt lat="38.070975935590475" lon="15.821994174103493"><ele>1189.6666666666667</ele><time>2026-05-03T09:40:25Z</time></trkpt><trkpt lat="38.07114848651854" lon="15.822067311305638"><ele>1191.3333333333335</ele><time>2026-05-03T09:40:26Z</time></trkpt><trkpt lat="38.071297399131" lon="15.822106865338469"><ele>1193.0</ele><time>2026-05-03T09:40:27Z</time></trkpt><trkpt lat="38.071444292361186" lon="15.822171418726619"><ele>1193.0</ele><time>2026-05-03T09:40:28Z</time></trkpt><trkpt lat="38.071583191085445" lon="15.822225390468244"><ele>1193.0</ele><time>2026-05-03T09:40:29Z</time></trkpt><trkpt lat="38.07173178964866" lon="15.822285573622372"><ele>1193.0</ele><time>2026-05-03T09:40:30Z</time></trkpt><trkpt lat="38.07187588450451" lon="15.82232717146289"><ele>1193.0</ele><time>2026-05-03T09:40:31Z</time></trkpt><trkpt lat="38.07204210637939" lon="15.822387102429678"><ele>1194.0</ele><time>2026-05-03T09:40:32Z</time></trkpt><trkpt lat="38.07221837534503" lon="15.822441122761626"><ele>1195.0</ele><time>2026-05-03T09:40:33Z</time></trkpt><trkpt lat="38.072414057871306" lon="15.822502838519522"><ele>1196.0</ele><time>2026-05-03T09:40:34Z</time></trkpt><trkpt lat="38.07259069489939" lon="15.822561056824956"><ele>1201.5</ele><time>2026-05-03T09:40:35Z</time></trkpt><trkpt lat="38.07280482611888" lon="15.82265549663246"><ele>1207.0</ele><time>2026-05-03T09:40:36Z</time></trkpt><trkpt lat="38.0730256944576" lon="15.822738458390308"><ele>1207.0</ele><time>2026-05-03T09:40:37Z</time></trkpt><trkpt lat="38.073224365254745" lon="15.822822516068818"><ele>1207.0</ele><time>2026-05-03T09:40:38Z</time></trkpt><trkpt lat="38.07341941560363" lon="15.822910175491389"><ele>1207.0</ele><time>2026-05-03T09:40:39Z</time></trkpt><trkpt lat="38.073620717177654" lon="15.822976986606664"><ele>1206.0</ele><time>2026-05-03T09:40:40Z</time></trkpt><trkpt lat="38.073832414131125" lon="15.823034606354803"><ele>1205.0</ele><time>2026-05-03T09:40:41Z</time></trkpt><trkpt lat="38.074043330166774" lon="15.823077052274016"><ele>1204.0</ele><time>2026-05-03T09:40:42Z</time></trkpt><trkpt lat="38.0742529827862" lon="15.82311863142861"><ele>1204.0</ele><time>2026-05-03T09:40:43Z</time></trkpt><trkpt lat="38.07445283158467" lon="15.823159645793138"><ele>1204.0</ele><time>2026-05-03T09:40:44Z</time></trkpt><trkpt lat="38.07463675195126" lon="15.823196842076971"><ele>1204.0</ele><time>2026-05-03T09:40:45Z</time></trkpt><trkpt lat="38.07480395133782" lon="15.823239351410916"><ele>1204.5</ele><time>2026-05-03T09:40:46Z</time></trkpt><trkpt lat="38.0749519318123" lon="15.823308228615199"><ele>1205.0</ele><time>2026-05-03T09:40:47Z</time></trkpt><trkpt lat="38.075087920653914" lon="15.823388789347868"><ele>1205.5</ele><time>2026-05-03T09:40:48Z</time></trkpt><trkpt lat="38.07522128382151" lon="15.823442608648229"><ele>1206.0</ele><time>2026-05-03T09:40:49Z</time></trkpt><trkpt lat="38.07529711776893" lon="15.823430774034401"><ele>1206.0</ele><time>2026-05-03T09:40:50Z</time></trkpt><trkpt lat="38.07540955215395" lon="15.823359421896493"><ele>1206.0</ele><time>2026-05-03T09:40:51Z</time></trkpt><trkpt lat="38.07551510685113" lon="15.823274752406034"><ele>1206.0</ele><time>2026-05-03T09:40:52Z</time></trkpt><trkpt lat="38.07563118526272" lon="15.823201577687461"><ele>1206.0</ele><time>2026-05-03T09:40:53Z</time></trkpt><trkpt lat="38.0757589560117" lon="15.82317033866998"><ele>1207.3333333333333</ele><time>2026-05-03T09:40:54Z</time></trkpt><trkpt lat="38.07588824077291" lon="15.823159399801899"><ele>1208.6666666666665</ele><time>2026-05-03T09:40:55Z</time></trkpt><trkpt lat="38.07603147228514" lon="15.823173195831794"><ele>1210.0</ele><time>2026-05-03T09:40:56Z</time></trkpt><trkpt lat="38.07618787649793" lon="15.823297333049416"><ele>1210.0</ele><time>2026-05-03T09:40:57Z</time></trkpt><trkpt lat="38.07635939009393" lon="15.823343541226967"><ele>1210.0</ele><time>2026-05-03T09:40:58Z</time></trkpt><trkpt lat="38.07654258712835" lon="15.823386909546183"><ele>1210.0</ele><time>2026-05-03T09:40:59Z</time></trkpt><trkpt lat="38.07672708704583" lon="15.823417135373344"><ele>1209.0</ele><time>2026-05-03T09:41:00Z</time></trkpt><trkpt lat="38.07691589250401" lon="15.823455781088452"><ele>1208.0</ele><time>2026-05-03T09:41:01Z</time></trkpt><trkpt lat="38.07708977575396" lon="15.823490569640343"><ele>1207.0</ele><time>2026-05-03T09:41:02Z</time></trkpt><trkpt lat="38.077267352937874" lon="15.82352817715661"><ele>1212.0</ele><time>2026-05-03T09:41:03Z</time></trkpt><trkpt lat="38.07743386303522" lon="15.823565582333464"><ele>1217.0</ele><time>2026-05-03T09:41:04Z</time></trkpt><trkpt lat="38.07757840728768" lon="15.82359990457453"><ele>1222.0</ele><time>2026-05-03T09:41:05Z</time></trkpt><trkpt lat="38.07769974914957" lon="15.823633306113631"><ele>1227.0</ele><time>2026-05-03T09:41:06Z</time></trkpt><trkpt lat="38.07782278221412" lon="15.82367445195746"><ele>1227.25</ele><time>2026-05-03T09:41:07Z</time></trkpt><trkpt lat="38.077936421379206" lon="15.823781233266272"><ele>1227.5</ele><time>2026-05-03T09:41:08Z</time></trkpt><trkpt lat="38.078050260570656" lon="15.823897429949545"><ele>1227.75</ele><time>2026-05-03T09:41:09Z</time></trkpt><trkpt lat="38.07814761077402" lon="15.82402362843502"><ele>1228.0</ele><time>2026-05-03T09:41:10Z</time></trkpt><trkpt lat="38.07824280586023" lon="15.824160749094615"><ele>1227.25</ele><time>2026-05-03T09:41:11Z</time></trkpt><trkpt lat="38.0783192157404" lon="15.824316031011026"><ele>1226.5</ele><time>2026-05-03T09:41:12Z</time></trkpt><trkpt lat="38.078361488580576" lon="15.824455828798321"><ele>1225.75</ele><time>2026-05-03T09:41:13Z</time></trkpt><trkpt lat="38.07839030780358" lon="15.824599636686678"><ele>1225.0</ele><time>2026-05-03T09:41:14Z</time></trkpt><trkpt lat="38.078408753328354" lon="15.824746556057068"><ele>1225.0</ele><time>2026-05-03T09:41:15Z</time></trkpt><trkpt lat="38.07843463443791" lon="15.824892652434915"><ele>1225.0</ele><time>2026-05-03T09:41:16Z</time></trkpt><trkpt lat="38.07841937090755" lon="15.82498118024982"><ele>1225.0</ele><time>2026-05-03T09:41:17Z</time></trkpt><trkpt lat="38.07849441848541" lon="15.825094904495709"><ele>1225.0</ele><time>2026-05-03T09:41:19Z</time></trkpt><trkpt lat="38.0785902136929" lon="15.82508338656445"><ele>1225.0</ele><time>2026-05-03T09:41:20Z</time></trkpt><trkpt lat="38.078700291544536" lon="15.825071933002233"><ele>1225.0</ele><time>2026-05-03T09:41:21Z</time></trkpt><trkpt lat="38.07879905408225" lon="15.825050920992945"><ele>1225.0</ele><time>2026-05-03T09:41:22Z</time></trkpt><trkpt lat="38.07887935733206" lon="15.825071249988591"><ele>1225.0</ele><time>2026-05-03T09:41:23Z</time></trkpt><trkpt lat="38.078950805616316" lon="15.825100380877474"><ele>1225.0</ele><time>2026-05-03T09:41:24Z</time></trkpt><trkpt lat="38.078981541609984" lon="15.82524768639316"><ele>1225.0</ele><time>2026-05-03T09:41:25Z</time></trkpt><trkpt lat="38.07895347783894" lon="15.825401748526728"><ele>1228.2</ele><time>2026-05-03T09:41:26Z</time></trkpt><trkpt lat="38.078916882807206" lon="15.825514566831815"><ele>1231.4</ele><time>2026-05-03T09:41:27Z</time></trkpt><trkpt lat="38.07887595616584" lon="15.825649589557349"><ele>1234.6</ele><time>2026-05-03T09:41:28Z</time></trkpt><trkpt lat="38.07889160315332" lon="15.825794955969279"><ele>1237.8</ele><time>2026-05-03T09:41:29Z</time></trkpt><trkpt lat="38.078924126823054" lon="15.825931183065231"><ele>1241.0</ele><time>2026-05-03T09:41:30Z</time></trkpt><trkpt lat="38.078961247713515" lon="15.826051464218619"><ele>1237.0</ele><time>2026-05-03T09:41:31Z</time></trkpt><trkpt lat="38.07899706946075" lon="15.82614271900304"><ele>1233.0</ele><time>2026-05-03T09:41:32Z</time></trkpt><trkpt lat="38.079172622986825" lon="15.825950307765972"><ele>1229.0</ele><time>2026-05-03T09:41:33Z</time></trkpt><trkpt lat="38.07926629855237" lon="15.825886724715438"><ele>1225.0</ele><time>2026-05-03T09:41:34Z</time></trkpt><trkpt lat="38.079368388551465" lon="15.825835986408574"><ele>1225.0</ele><time>2026-05-03T09:41:35Z</time></trkpt><trkpt lat="38.07947024258378" lon="15.82583157907761"><ele>1225.0</ele><time>2026-05-03T09:41:36Z</time></trkpt><trkpt lat="38.079539444511546" lon="15.825918348478284"><ele>1225.0</ele><time>2026-05-03T09:41:37Z</time></trkpt><trkpt lat="38.079598601590085" lon="15.826000278356744"><ele>1225.0</ele><time>2026-05-03T09:41:38Z</time></trkpt><trkpt lat="38.07964760973722" lon="15.826074573274395"><ele>1225.0</ele><time>2026-05-03T09:41:39Z</time></trkpt><trkpt lat="38.07970379130231" lon="15.826112138627883"><ele>1225.0</ele><time>2026-05-03T09:41:40Z</time></trkpt><trkpt lat="38.07977342812084" lon="15.826133053401014"><ele>1225.1666666666665</ele><time>2026-05-03T09:41:41Z</time></trkpt><trkpt lat="38.07983970902051" lon="15.826124122164746"><ele>1225.3333333333333</ele><time>2026-05-03T09:41:42Z</time></trkpt><trkpt lat="38.07991130791253" lon="15.826040153279871"><ele>1225.5</ele><time>2026-05-03T09:41:43Z</time></trkpt><trkpt lat="38.079981037852235" lon="15.825986714346122"><ele>1225.6666666666667</ele><time>2026-05-03T09:41:44Z</time></trkpt><trkpt lat="38.08004788437685" lon="15.825965385615183"><ele>1225.8333333333335</ele><time>2026-05-03T09:41:45Z</time></trkpt><trkpt lat="38.08011985695666" lon="15.82597551161047"><ele>1226.0</ele><time>2026-05-03T09:41:46Z</time></trkpt><trkpt lat="38.08019610868567" lon="15.826030609477483"><ele>1226.0</ele><time>2026-05-03T09:41:47Z</time></trkpt><trkpt lat="38.080295154257875" lon="15.826136056464392"><ele>1226.0</ele><time>2026-05-03T09:41:48Z</time></trkpt><trkpt lat="38.08034014213483" lon="15.826244851898917"><ele>1226.0</ele><time>2026-05-03T09:41:49Z</time></trkpt><trkpt lat="38.080333623825794" lon="15.826350237561316"><ele>1226.0</ele><time>2026-05-03T09:41:50Z</time></trkpt><trkpt lat="38.08031071302769" lon="15.826453193292823"><ele>1226.0</ele><time>2026-05-03T09:41:51Z</time></trkpt><trkpt lat="38.08028512225667" lon="15.826548276974902"><ele>1226.0</ele><time>2026-05-03T09:41:52Z</time></trkpt><trkpt lat="38.08025188235543" lon="15.826630848111728"><ele>1226.0</ele><time>2026-05-03T09:41:53Z</time></trkpt><trkpt lat="38.080208353092445" lon="15.826712726649827"><ele>1226.0</ele><time>2026-05-03T09:41:54Z</time></trkpt><trkpt lat="38.08016762678198" lon="15.826793058077808"><ele>1226.0</ele><time>2026-05-03T09:41:55Z</time></trkpt><trkpt lat="38.080125266349064" lon="15.826864648270211"><ele>1226.0</ele><time>2026-05-03T09:41:56Z</time></trkpt><trkpt lat="38.08006220033316" lon="15.826947280484381"><ele>1226.0</ele><time>2026-05-03T09:41:57Z</time></trkpt><trkpt lat="38.08000460434964" lon="15.827004263670734"><ele>1225.5</ele><time>2026-05-03T09:41:58Z</time></trkpt><trkpt lat="38.07993368239676" lon="15.827061591119966"><ele>1225.0</ele><time>2026-05-03T09:41:59Z</time></trkpt><trkpt lat="38.07984787710205" lon="15.827045296422181"><ele>1224.5</ele><time>2026-05-03T09:42:00Z</time></trkpt><trkpt lat="38.079868186901" lon="15.8271446889768"><ele>1224.0</ele><time>2026-05-03T09:42:01Z</time></trkpt><trkpt lat="38.07989788523558" lon="15.827240776589777"><ele>1223.5</ele><time>2026-05-03T09:42:02Z</time></trkpt><trkpt lat="38.079926107078705" lon="15.82734309322148"><ele>1223.0</ele><time>2026-05-03T09:42:03Z</time></trkpt><trkpt lat="38.07994549196647" lon="15.827441548875312"><ele>1223.0</ele><time>2026-05-03T09:42:04Z</time></trkpt><trkpt lat="38.07993914504506" lon="15.827550213386399"><ele>1223.0</ele><time>2026-05-03T09:42:05Z</time></trkpt><trkpt lat="38.07991255907718" lon="15.827654650856502"><ele>1223.0</ele><time>2026-05-03T09:42:06Z</time></trkpt><trkpt lat="38.07984867627699" lon="15.827765974436229"><ele>1223.0</ele><time>2026-05-03T09:42:07Z</time></trkpt><trkpt lat="38.079827726560914" lon="15.827843852478864"><ele>1223.0</ele><time>2026-05-03T09:42:08Z</time></trkpt><trkpt lat="38.079792505591286" lon="15.827935268504946"><ele>1223.0</ele><time>2026-05-03T09:42:09Z</time></trkpt><trkpt lat="38.07976629233895" lon="15.82801760473824"><ele>1224.6</ele><time>2026-05-03T09:42:10Z</time></trkpt><trkpt lat="38.07971310633256" lon="15.828150787271408"><ele>1226.1999999999998</ele><time>2026-05-03T09:42:11Z</time></trkpt><trkpt lat="38.0797399697077" lon="15.828256680577473"><ele>1227.8</ele><time>2026-05-03T09:42:13Z</time></trkpt><trkpt lat="38.07980027836282" lon="15.828322741539658"><ele>1229.3999999999999</ele><time>2026-05-03T09:42:14Z</time></trkpt><trkpt lat="38.079923959871685" lon="15.828317946043056"><ele>1231.0</ele><time>2026-05-03T09:42:15Z</time></trkpt><trkpt lat="38.08006287658424" lon="15.828247220073052"><ele>1231.0</ele><time>2026-05-03T09:42:16Z</time></trkpt><trkpt lat="38.08024427775462" lon="15.828142652569332"><ele>1231.0</ele><time>2026-05-03T09:42:17Z</time></trkpt><trkpt lat="38.08035327895669" lon="15.828144550468341"><ele>1231.0</ele><time>2026-05-03T09:42:18Z</time></trkpt><trkpt lat="38.080454893862346" lon="15.828160386764097"><ele>1231.0</ele><time>2026-05-03T09:42:19Z</time></trkpt><trkpt lat="38.08055549650272" lon="15.828206484919285"><ele>1231.0</ele><time>2026-05-03T09:42:20Z</time></trkpt><trkpt lat="38.08063968063334" lon="15.828300560325548"><ele>1231.0</ele><time>2026-05-03T09:42:21Z</time></trkpt><trkpt lat="38.08072616998759" lon="15.828430189163504"><ele>1231.0</ele><time>2026-05-03T09:42:22Z</time></trkpt><trkpt lat="38.08074255083027" lon="15.828646217756944"><ele>1231.0</ele><time>2026-05-03T09:42:23Z</time></trkpt><trkpt lat="38.08077878561959" lon="15.82877560368671"><ele>1231.0</ele><time>2026-05-03T09:42:24Z</time></trkpt><trkpt lat="38.08078470381862" lon="15.828932084114271"><ele>1231.0</ele><time>2026-05-03T09:42:25Z</time></trkpt><trkpt lat="38.08079379249132" lon="15.829110420163474"><ele>1231.0</ele><time>2026-05-03T09:42:26Z</time></trkpt><trkpt lat="38.08080075477701" lon="15.829281109144537"><ele>1231.0</ele><time>2026-05-03T09:42:27Z</time></trkpt><trkpt lat="38.08086190832229" lon="15.829466030755583"><ele>1233.0</ele><time>2026-05-03T09:42:28Z</time></trkpt><trkpt lat="38.08095001639205" lon="15.829621037336333"><ele>1235.0</ele><time>2026-05-03T09:42:29Z</time></trkpt><trkpt lat="38.0810842138329" lon="15.829765743438513"><ele>1237.0</ele><time>2026-05-03T09:42:30Z</time></trkpt><trkpt lat="38.08122064167665" lon="15.829883481838452"><ele>1237.0</ele><time>2026-05-03T09:42:31Z</time></trkpt><trkpt lat="38.08133492763831" lon="15.829985261318376"><ele>1237.0</ele><time>2026-05-03T09:42:32Z</time></trkpt><trkpt lat="38.08143426498081" lon="15.830074068328294"><ele>1237.0</ele><time>2026-05-03T09:42:33Z</time></trkpt><trkpt lat="38.08151718627001" lon="15.830128679395136"><ele>1237.0</ele><time>2026-05-03T09:42:34Z</time></trkpt><trkpt lat="38.081582116201886" lon="15.830151378227434"><ele>1237.0</ele><time>2026-05-03T09:42:35Z</time></trkpt><trkpt lat="38.0816873103735" lon="15.830019189522215"><ele>1235.0</ele><time>2026-05-03T09:42:36Z</time></trkpt><trkpt lat="38.08179934010138" lon="15.829967037932143"><ele>1233.0</ele><time>2026-05-03T09:42:37Z</time></trkpt><trkpt lat="38.081943217957864" lon="15.829861937565441"><ele>1231.0</ele><time>2026-05-03T09:42:38Z</time></trkpt><trkpt lat="38.082076727958835" lon="15.82977592789671"><ele>1229.0</ele><time>2026-05-03T09:42:39Z</time></trkpt><trkpt lat="38.082187682054204" lon="15.829707565406313"><ele>1229.0</ele><time>2026-05-03T09:42:40Z</time></trkpt><trkpt lat="38.08229483390733" lon="15.829630300343284"><ele>1229.0</ele><time>2026-05-03T09:42:41Z</time></trkpt><trkpt lat="38.08238480164831" lon="15.829579819403348"><ele>1229.0</ele><time>2026-05-03T09:42:42Z</time></trkpt><trkpt lat="38.082487226884325" lon="15.829571735836799"><ele>1229.0</ele><time>2026-05-03T09:42:43Z</time></trkpt><trkpt lat="38.082590057929664" lon="15.82956363010909"><ele>1229.0</ele><time>2026-05-03T09:42:44Z</time></trkpt><trkpt lat="38.082713534158096" lon="15.829722333151114"><ele>1228.25</ele><time>2026-05-03T09:42:45Z</time></trkpt><trkpt lat="38.08280686739982" lon="15.82980983397349"><ele>1227.5</ele><time>2026-05-03T09:42:46Z</time></trkpt><trkpt lat="38.082882423382166" lon="15.829891304796089"><ele>1226.75</ele><time>2026-05-03T09:42:47Z</time></trkpt><trkpt lat="38.08292790122298" lon="15.830017074591128"><ele>1226.0</ele><time>2026-05-03T09:42:48Z</time></trkpt><trkpt lat="38.08292208859042" lon="15.830197035448984"><ele>1225.0</ele><time>2026-05-03T09:42:49Z</time></trkpt><trkpt lat="38.08287752164219" lon="15.830304050385264"><ele>1224.0</ele><time>2026-05-03T09:42:50Z</time></trkpt><trkpt lat="38.082744975140756" lon="15.83044885410667"><ele>1223.0</ele><time>2026-05-03T09:42:51Z</time></trkpt><trkpt lat="38.08264381365574" lon="15.830508455585727"><ele>1222.0</ele><time>2026-05-03T09:42:52Z</time></trkpt><trkpt lat="38.08260325717371" lon="15.830626553068557"><ele>1222.0</ele><time>2026-05-03T09:42:53Z</time></trkpt><trkpt lat="38.08261299946964" lon="15.830782242595903"><ele>1222.0</ele><time>2026-05-03T09:42:54Z</time></trkpt><trkpt lat="38.08265774458212" lon="15.830949054245808"><ele>1222.0</ele><time>2026-05-03T09:42:55Z</time></trkpt><trkpt lat="38.08270977281605" lon="15.831111281554438"><ele>1222.0</ele><time>2026-05-03T09:42:56Z</time></trkpt><trkpt lat="38.082807200363426" lon="15.83128345759744"><ele>1219.0</ele><time>2026-05-03T09:42:57Z</time></trkpt><trkpt lat="38.08292129908057" lon="15.831434731110015"><ele>1216.0</ele><time>2026-05-03T09:42:58Z</time></trkpt><trkpt lat="38.08306964263022" lon="15.831575114844561"><ele>1213.0</ele><time>2026-05-03T09:42:59Z</time></trkpt><trkpt lat="38.08323427333858" lon="15.83173646140403"><ele>1213.0</ele><time>2026-05-03T09:43:00Z</time></trkpt><trkpt lat="38.08339744624375" lon="15.831901056092274"><ele>1213.0</ele><time>2026-05-03T09:43:01Z</time></trkpt><trkpt lat="38.08356285450586" lon="15.832074419221927"><ele>1213.0</ele><time>2026-05-03T09:43:02Z</time></trkpt><trkpt lat="38.08369309513158" lon="15.832233014661785"><ele>1213.0</ele><time>2026-05-03T09:43:03Z</time></trkpt><trkpt lat="38.083819318155584" lon="15.832375053715523"><ele>1213.0</ele><time>2026-05-03T09:43:04Z</time></trkpt><trkpt lat="38.083925069021255" lon="15.832495694905662"><ele>1213.0</ele><time>2026-05-03T09:43:05Z</time></trkpt><trkpt lat="38.08401217518318" lon="15.832586405643"><ele>1213.0</ele><time>2026-05-03T09:43:06Z</time></trkpt><trkpt lat="38.08411848259769" lon="15.832656105269768"><ele>1212.5</ele><time>2026-05-03T09:43:07Z</time></trkpt><trkpt lat="38.084228192939804" lon="15.83269982003637"><ele>1212.0</ele><time>2026-05-03T09:43:08Z</time></trkpt><trkpt lat="38.08437623169607" lon="15.83272959615302"><ele>1211.5</ele><time>2026-05-03T09:43:09Z</time></trkpt><trkpt lat="38.08453659484877" lon="15.83274416922355"><ele>1211.0</ele><time>2026-05-03T09:43:10Z</time></trkpt><trkpt lat="38.08470676553699" lon="15.83274345762933"><ele>1211.0</ele><time>2026-05-03T09:43:11Z</time></trkpt><trkpt lat="38.084861869754285" lon="15.832747205036602"><ele>1211.0</ele><time>2026-05-03T09:43:12Z</time></trkpt><trkpt lat="38.085000095531434" lon="15.832746894807313"><ele>1211.0</ele><time>2026-05-03T09:43:13Z</time></trkpt><trkpt lat="38.08513287142923" lon="15.832742387294449"><ele>1211.0</ele><time>2026-05-03T09:43:14Z</time></trkpt><trkpt lat="38.08526213432718" lon="15.8327464887524"><ele>1211.5</ele><time>2026-05-03T09:43:15Z</time></trkpt><trkpt lat="38.08540004408153" lon="15.832744276055704"><ele>1212.0</ele><time>2026-05-03T09:43:16Z</time></trkpt><trkpt lat="38.08554036756079" lon="15.832755605523445"><ele>1212.5</ele><time>2026-05-03T09:43:17Z</time></trkpt><trkpt lat="38.08569131656959" lon="15.832764639768106"><ele>1213.0</ele><time>2026-05-03T09:43:18Z</time></trkpt><trkpt lat="38.085823859113304" lon="15.83276838997546"><ele>1215.0</ele><time>2026-05-03T09:43:19Z</time></trkpt><trkpt lat="38.08593685799246" lon="15.832780980045673"><ele>1217.0</ele><time>2026-05-03T09:43:20Z</time></trkpt><trkpt lat="38.086039794825986" lon="15.832806933218231"><ele>1219.0</ele><time>2026-05-03T09:43:21Z</time></trkpt><trkpt lat="38.08610454888613" lon="15.832858257029754"><ele>1221.0</ele><time>2026-05-03T09:43:22Z</time></trkpt><trkpt lat="38.086147960376714" lon="15.832931162410897"><ele>1223.0</ele><time>2026-05-03T09:43:23Z</time></trkpt><trkpt lat="38.08617187689789" lon="15.833018236347003"><ele>1225.0</ele><time>2026-05-03T09:43:24Z</time></trkpt><trkpt lat="38.08618369148175" lon="15.833135540694592"><ele>1225.0</ele><time>2026-05-03T09:43:25Z</time></trkpt><trkpt lat="38.086175336665924" lon="15.83330121706156"><ele>1225.0</ele><time>2026-05-03T09:43:26Z</time></trkpt><trkpt lat="38.08618890526726" lon="15.833455064934684"><ele>1225.0</ele><time>2026-05-03T09:43:27Z</time></trkpt><trkpt lat="38.08620557845015" lon="15.83361357939236"><ele>1225.0</ele><time>2026-05-03T09:43:28Z</time></trkpt><trkpt lat="38.08622000176208" lon="15.833764686254423"><ele>1224.75</ele><time>2026-05-03T09:43:29Z</time></trkpt><trkpt lat="38.08625646522433" lon="15.833912745018306"><ele>1224.5</ele><time>2026-05-03T09:43:30Z</time></trkpt><trkpt lat="38.086299348629005" lon="15.834056158062861"><ele>1224.25</ele><time>2026-05-03T09:43:31Z</time></trkpt><trkpt lat="38.08634840931235" lon="15.834180915985394"><ele>1224.0</ele><time>2026-05-03T09:43:32Z</time></trkpt><trkpt lat="38.086389649098045" lon="15.834306686793049"><ele>1224.6000000000001</ele><time>2026-05-03T09:43:33Z</time></trkpt><trkpt lat="38.0864544999122" lon="15.834356748651638"><ele>1225.2</ele><time>2026-05-03T09:43:34Z</time></trkpt><trkpt lat="38.08652259108908" lon="15.834496677185003"><ele>1225.8000000000002</ele><time>2026-05-03T09:43:36Z</time></trkpt><trkpt lat="38.08649286256114" lon="15.83461715731197"><ele>1226.4</ele><time>2026-05-03T09:43:37Z</time></trkpt><trkpt lat="38.08644586655767" lon="15.83473095352131"><ele>1227.0</ele><time>2026-05-03T09:43:38Z</time></trkpt><trkpt lat="38.08639935847431" lon="15.834841793187621"><ele>1227.0</ele><time>2026-05-03T09:43:39Z</time></trkpt><trkpt lat="38.086332902911444" lon="15.834953880836053"><ele>1227.0</ele><time>2026-05-03T09:43:40Z</time></trkpt><trkpt lat="38.08628974458196" lon="15.835088249013872"><ele>1227.0</ele><time>2026-05-03T09:43:41Z</time></trkpt><trkpt lat="38.086246196082946" lon="15.835239612393627"><ele>1227.0</ele><time>2026-05-03T09:43:42Z</time></trkpt><trkpt lat="38.086234581319175" lon="15.83538059579928"><ele>1222.0</ele><time>2026-05-03T09:43:43Z</time></trkpt><trkpt lat="38.08630969709982" lon="15.835544157926812"><ele>1217.0</ele><time>2026-05-03T09:43:44Z</time></trkpt><trkpt lat="38.08638961212386" lon="15.835678432247658"><ele>1212.0</ele><time>2026-05-03T09:43:45Z</time></trkpt><trkpt lat="38.08653217550295" lon="15.835791411061537"><ele>1217.25</ele><time>2026-05-03T09:43:46Z</time></trkpt><trkpt lat="38.08667044327745" lon="15.835914399925084"><ele>1222.5</ele><time>2026-05-03T09:43:47Z</time></trkpt><trkpt lat="38.08675254585186" lon="15.836021781371597"><ele>1227.75</ele><time>2026-05-03T09:43:48Z</time></trkpt><trkpt lat="38.08683362664617" lon="15.836094844244025"><ele>1233.0</ele><time>2026-05-03T09:43:49Z</time></trkpt><trkpt lat="38.08693730758437" lon="15.836134263799035"><ele>1233.0</ele><time>2026-05-03T09:43:50Z</time></trkpt><trkpt lat="38.087045120475125" lon="15.836177037660237"><ele>1233.0</ele><time>2026-05-03T09:43:51Z</time></trkpt><trkpt lat="38.087150656500036" lon="15.836268063871412"><ele>1233.0</ele><time>2026-05-03T09:43:52Z</time></trkpt><trkpt lat="38.08724469557208" lon="15.8363880211884"><ele>1233.0</ele><time>2026-05-03T09:43:53Z</time></trkpt><trkpt lat="38.08734199682952" lon="15.836536359626262"><ele>1240.6666666666667</ele><time>2026-05-03T09:43:54Z</time></trkpt><trkpt lat="38.08743247936226" lon="15.836702167448912"><ele>1248.3333333333335</ele><time>2026-05-03T09:43:55Z</time></trkpt><trkpt lat="38.08752719669933" lon="15.836879549856377"><ele>1256.0</ele><time>2026-05-03T09:43:56Z</time></trkpt><trkpt lat="38.0876293215694" lon="15.837063898163612"><ele>1256.0</ele><time>2026-05-03T09:43:57Z</time></trkpt><trkpt lat="38.08771902125696" lon="15.83724368715992"><ele>1256.0</ele><time>2026-05-03T09:43:58Z</time></trkpt><trkpt lat="38.08781239233791" lon="15.83741559347906"><ele>1256.0</ele><time>2026-05-03T09:43:59Z</time></trkpt><trkpt lat="38.087889546408036" lon="15.837579332264301"><ele>1253.8</ele><time>2026-05-03T09:44:00Z</time></trkpt><trkpt lat="38.087941011007" lon="15.837723893622524"><ele>1251.6</ele><time>2026-05-03T09:44:01Z</time></trkpt><trkpt lat="38.08797947038406" lon="15.837852136400437"><ele>1249.4</ele><time>2026-05-03T09:44:02Z</time></trkpt><trkpt lat="38.08801624363277" lon="15.837949772255538"><ele>1247.2</ele><time>2026-05-03T09:44:03Z</time></trkpt><trkpt lat="38.088074940421286" lon="15.837995580350443"><ele>1245.0</ele><time>2026-05-03T09:44:04Z</time></trkpt><trkpt lat="38.08815359655037" lon="15.837989556536664"><ele>1245.0</ele><time>2026-05-03T09:44:05Z</time></trkpt><trkpt lat="38.0882331438998" lon="15.837929132158578"><ele>1245.0</ele><time>2026-05-03T09:44:06Z</time></trkpt><trkpt lat="38.088309097907256" lon="15.837837137673125"><ele>1245.0</ele><time>2026-05-03T09:44:07Z</time></trkpt><trkpt lat="38.088398468095484" lon="15.837788073602162"><ele>1245.0</ele><time>2026-05-03T09:44:08Z</time></trkpt><trkpt lat="38.08850056192483" lon="15.837784476613528"><ele>1245.0</ele><time>2026-05-03T09:44:09Z</time></trkpt><trkpt lat="38.088590083833594" lon="15.837831372933842"><ele>1249.75</ele><time>2026-05-03T09:44:10Z</time></trkpt><trkpt lat="38.088669006998906" lon="15.837966696970648"><ele>1254.5</ele><time>2026-05-03T09:44:11Z</time></trkpt><trkpt lat="38.08875086183469" lon="15.838093091897953"><ele>1259.25</ele><time>2026-05-03T09:44:12Z</time></trkpt><trkpt lat="38.08884314659739" lon="15.83821680760714"><ele>1264.0</ele><time>2026-05-03T09:44:13Z</time></trkpt><trkpt lat="38.088910241822695" lon="15.838339422573187"><ele>1264.0</ele><time>2026-05-03T09:44:14Z</time></trkpt><trkpt lat="38.0889509950737" lon="15.838459376199511"><ele>1264.0</ele><time>2026-05-03T09:44:15Z</time></trkpt><trkpt lat="38.089002646358765" lon="15.838542551274054"><ele>1264.0</ele><time>2026-05-03T09:44:16Z</time></trkpt><trkpt lat="38.0890836411997" lon="15.838575431074254"><ele>1264.0</ele><time>2026-05-03T09:44:17Z</time></trkpt><trkpt lat="38.089180411714004" lon="15.838567004261256"><ele>1264.0</ele><time>2026-05-03T09:44:18Z</time></trkpt><trkpt lat="38.089273810210514" lon="15.838534865976072"><ele>1263.6000000000001</ele><time>2026-05-03T09:44:19Z</time></trkpt><trkpt lat="38.08936883700279" lon="15.83852912102733"><ele>1263.2</ele><time>2026-05-03T09:44:20Z</time></trkpt><trkpt lat="38.089459395926" lon="15.838579335251355"><ele>1262.8000000000002</ele><time>2026-05-03T09:44:21Z</time></trkpt><trkpt lat="38.08952411882828" lon="15.838683744717718"><ele>1262.4</ele><time>2026-05-03T09:44:22Z</time></trkpt><trkpt lat="38.08954734164036" lon="15.83881313166681"><ele>1262.0</ele><time>2026-05-03T09:44:23Z</time></trkpt><trkpt lat="38.089549334538724" lon="15.838950032527793"><ele>1262.0</ele><time>2026-05-03T09:44:24Z</time></trkpt><trkpt lat="38.08957681709146" lon="15.839079155970188"><ele>1262.0</ele><time>2026-05-03T09:44:25Z</time></trkpt><trkpt lat="38.089663715882395" lon="15.83917757979038"><ele>1262.0</ele><time>2026-05-03T09:44:26Z</time></trkpt><trkpt lat="38.08977387297754" lon="15.839210528744427"><ele>1262.0</ele><time>2026-05-03T09:44:27Z</time></trkpt><trkpt lat="38.0898705905248" lon="15.839202910301257"><ele>1262.0</ele><time>2026-05-03T09:44:28Z</time></trkpt><trkpt lat="38.0899569742726" lon="15.839130784462855"><ele>1258.8</ele><time>2026-05-03T09:44:29Z</time></trkpt><trkpt lat="38.09005368418579" lon="15.839067027796885"><ele>1255.6</ele><time>2026-05-03T09:44:30Z</time></trkpt><trkpt lat="38.090149956029855" lon="15.83907019423622"><ele>1252.3999999999999</ele><time>2026-05-03T09:44:31Z</time></trkpt><trkpt lat="38.090219879930174" lon="15.839111906430588"><ele>1249.2</ele><time>2026-05-03T09:44:32Z</time></trkpt><trkpt lat="38.0902892711729" lon="15.839236658698576"><ele>1246.0</ele><time>2026-05-03T09:44:33Z</time></trkpt><trkpt lat="38.09036479442653" lon="15.839333019544608"><ele>1246.0</ele><time>2026-05-03T09:44:34Z</time></trkpt><trkpt lat="38.09042888619908" lon="15.839486443300503"><ele>1246.0</ele><time>2026-05-03T09:44:35Z</time></trkpt><trkpt lat="38.09052882178712" lon="15.839571716355557"><ele>1246.0</ele><time>2026-05-03T09:44:36Z</time></trkpt><trkpt lat="38.090645033583755" lon="15.839635159609058"><ele>1246.0</ele><time>2026-05-03T09:44:37Z</time></trkpt><trkpt lat="38.090760870144436" lon="15.839635116202441"><ele>1252.75</ele><time>2026-05-03T09:44:38Z</time></trkpt><trkpt lat="38.090881397000544" lon="15.839610929133707"><ele>1259.5</ele><time>2026-05-03T09:44:39Z</time></trkpt><trkpt lat="38.09101091487648" lon="15.839540472665181"><ele>1266.25</ele><time>2026-05-03T09:44:40Z</time></trkpt><trkpt lat="38.09112152641021" lon="15.839471163384625"><ele>1273.0</ele><time>2026-05-03T09:44:41Z</time></trkpt><trkpt lat="38.091216541684034" lon="15.839416139670421"><ele>1273.0</ele><time>2026-05-03T09:44:42Z</time></trkpt><trkpt lat="38.0913014494964" lon="15.839418258251062"><ele>1273.0</ele><time>2026-05-03T09:44:43Z</time></trkpt><trkpt lat="38.091377861551244" lon="15.839447816203716"><ele>1273.0</ele><time>2026-05-03T09:44:44Z</time></trkpt><trkpt lat="38.091447994444245" lon="15.839504004198632"><ele>1273.0</ele><time>2026-05-03T09:44:45Z</time></trkpt><trkpt lat="38.091499435674564" lon="15.839637179616568"><ele>1273.0</ele><time>2026-05-03T09:44:46Z</time></trkpt><trkpt lat="38.09157614553434" lon="15.839735758027608"><ele>1271.2</ele><time>2026-05-03T09:44:47Z</time></trkpt><trkpt lat="38.09165161533033" lon="15.83985366355297"><ele>1269.4</ele><time>2026-05-03T09:44:48Z</time></trkpt><trkpt lat="38.09171571935845" lon="15.839979250454853"><ele>1267.6000000000001</ele><time>2026-05-03T09:44:49Z</time></trkpt><trkpt lat="38.09176023487997" lon="15.840106900959016"><ele>1265.8</ele><time>2026-05-03T09:44:50Z</time></trkpt><trkpt lat="38.09181143967006" lon="15.840215422615788"><ele>1264.0</ele><time>2026-05-03T09:44:51Z</time></trkpt><trkpt lat="38.09189337968782" lon="15.840290915794945"><ele>1264.0</ele><time>2026-05-03T09:44:52Z</time></trkpt><trkpt lat="38.09199372058115" lon="15.840352617733615"><ele>1264.0</ele><time>2026-05-03T09:44:53Z</time></trkpt><trkpt lat="38.09214598940847" lon="15.84032122410293"><ele>1264.0</ele><time>2026-05-03T09:44:54Z</time></trkpt><trkpt lat="38.09227943788032" lon="15.840332352149987"><ele>1264.0</ele><time>2026-05-03T09:44:55Z</time></trkpt><trkpt lat="38.0924065151029" lon="15.840298115051429"><ele>1269.4</ele><time>2026-05-03T09:44:56Z</time></trkpt><trkpt lat="38.092519270978016" lon="15.840222558675622"><ele>1274.8000000000002</ele><time>2026-05-03T09:44:57Z</time></trkpt><trkpt lat="38.09259194897878" lon="15.840238395781219"><ele>1280.1999999999998</ele><time>2026-05-03T09:44:58Z</time></trkpt><trkpt lat="38.09265323058811" lon="15.840293531432907"><ele>1285.6</ele><time>2026-05-03T09:44:59Z</time></trkpt><trkpt lat="38.09269557396312" lon="15.840395145104539"><ele>1291.0</ele><time>2026-05-03T09:45:00Z</time></trkpt><trkpt lat="38.09271462392336" lon="15.84053272042798"><ele>1291.0</ele><time>2026-05-03T09:45:01Z</time></trkpt><trkpt lat="38.09271710386758" lon="15.84067379150012"><ele>1291.0</ele><time>2026-05-03T09:45:02Z</time></trkpt><trkpt lat="38.09269829587135" lon="15.840843454293367"><ele>1291.0</ele><time>2026-05-03T09:45:03Z</time></trkpt><trkpt lat="38.0926876163816" lon="15.84102283800117"><ele>1291.0</ele><time>2026-05-03T09:45:04Z</time></trkpt><trkpt lat="38.0926834542462" lon="15.841206134061215"><ele>1291.6666666666665</ele><time>2026-05-03T09:45:05Z</time></trkpt><trkpt lat="38.09266604796935" lon="15.841398373770648"><ele>1292.3333333333333</ele><time>2026-05-03T09:45:06Z</time></trkpt><trkpt lat="38.09264974039045" lon="15.841586760444082"><ele>1293.0</ele><time>2026-05-03T09:45:07Z</time></trkpt><trkpt lat="38.09264445829084" lon="15.841781853350932"><ele>1296.0</ele><time>2026-05-03T09:45:08Z</time></trkpt><trkpt lat="38.09263206524187" lon="15.841947517398376"><ele>1299.0</ele><time>2026-05-03T09:45:09Z</time></trkpt><trkpt lat="38.09262923306135" lon="15.842074485027291"><ele>1302.0</ele><time>2026-05-03T09:45:10Z</time></trkpt><trkpt lat="38.09254879083632" lon="15.842207354452661"><ele>1305.0</ele><time>2026-05-03T09:45:11Z</time></trkpt><trkpt lat="38.0925068333581" lon="15.842311514029989"><ele>1305.0</ele><time>2026-05-03T09:45:12Z</time></trkpt><trkpt lat="38.09249224889235" lon="15.842456889446211"><ele>1305.0</ele><time>2026-05-03T09:45:13Z</time></trkpt><trkpt lat="38.09249978837556" lon="15.842607447675135"><ele>1305.0</ele><time>2026-05-03T09:45:14Z</time></trkpt><trkpt lat="38.09251098257563" lon="15.842758104292745"><ele>1305.0</ele><time>2026-05-03T09:45:15Z</time></trkpt><trkpt lat="38.09252243095176" lon="15.842899034738082"><ele>1307.2</ele><time>2026-05-03T09:45:16Z</time></trkpt><trkpt lat="38.0925365271126" lon="15.843023038351651"><ele>1309.4</ele><time>2026-05-03T09:45:17Z</time></trkpt><trkpt lat="38.09252580654827" lon="15.843154700639191"><ele>1311.6</ele><time>2026-05-03T09:45:18Z</time></trkpt><trkpt lat="38.0925175412105" lon="15.84327265870454"><ele>1313.8</ele><time>2026-05-03T09:45:19Z</time></trkpt><trkpt lat="38.09249388884526" lon="15.843383194490155"><ele>1316.0</ele><time>2026-05-03T09:45:20Z</time></trkpt><trkpt lat="38.09242522697256" lon="15.843463171668748"><ele>1308.75</ele><time>2026-05-03T09:45:21Z</time></trkpt><trkpt lat="38.09230315498246" lon="15.84356680900382"><ele>1301.5</ele><time>2026-05-03T09:45:22Z</time></trkpt><trkpt lat="38.09214828857391" lon="15.843663203913566"><ele>1294.25</ele><time>2026-05-03T09:45:23Z</time></trkpt><trkpt lat="38.0920917102588" lon="15.843742569849379"><ele>1287.0</ele><time>2026-05-03T09:45:24Z</time></trkpt><trkpt lat="38.09205634344854" lon="15.843833445704648"><ele>1287.0</ele><time>2026-05-03T09:45:25Z</time></trkpt><trkpt lat="38.092121064039354" lon="15.843940489203995"><ele>1287.0</ele><time>2026-05-03T09:45:26Z</time></trkpt><trkpt lat="38.09222037208849" lon="15.84399886910068"><ele>1287.0</ele><time>2026-05-03T09:45:27Z</time></trkpt><trkpt lat="38.092297735901774" lon="15.844048685673764"><ele>1287.0</ele><time>2026-05-03T09:45:28Z</time></trkpt><trkpt lat="38.09239421130026" lon="15.84408533485018"><ele>1287.0</ele><time>2026-05-03T09:45:29Z</time></trkpt><trkpt lat="38.09248397588011" lon="15.844086874323029"><ele>1293.0</ele><time>2026-05-03T09:45:30Z</time></trkpt><trkpt lat="38.092593200799655" lon="15.844032677575195"><ele>1299.0</ele><time>2026-05-03T09:45:31Z</time></trkpt><trkpt lat="38.09273840440026" lon="15.843940515176003"><ele>1305.0</ele><time>2026-05-03T09:45:32Z</time></trkpt><trkpt lat="38.09284534016975" lon="15.843988644977014"><ele>1311.0</ele><time>2026-05-03T09:45:33Z</time></trkpt><trkpt lat="38.092947750047585" lon="15.844026834868364"><ele>1311.0</ele><time>2026-05-03T09:45:34Z</time></trkpt><trkpt lat="38.093046543776516" lon="15.844068946929704"><ele>1311.0</ele><time>2026-05-03T09:45:35Z</time></trkpt><trkpt lat="38.09313553797285" lon="15.844124497853707"><ele>1311.0</ele><time>2026-05-03T09:45:36Z</time></trkpt><trkpt lat="38.09319456911727" lon="15.844189058180767"><ele>1311.0</ele><time>2026-05-03T09:45:37Z</time></trkpt><trkpt lat="38.09326297099171" lon="15.844249678733231"><ele>1311.0</ele><time>2026-05-03T09:45:38Z</time></trkpt><trkpt lat="38.093245855955836" lon="15.84437282635148"><ele>1310.5</ele><time>2026-05-03T09:45:39Z</time></trkpt><trkpt lat="38.09334081536694" lon="15.8446387792787"><ele>1310.0</ele><time>2026-05-03T09:45:40Z</time></trkpt><trkpt lat="38.09341240873988" lon="15.844732233767164"><ele>1309.5</ele><time>2026-05-03T09:45:41Z</time></trkpt><trkpt lat="38.09349367286385" lon="15.844794872524917"><ele>1309.0</ele><time>2026-05-03T09:45:42Z</time></trkpt><trkpt lat="38.093584648996405" lon="15.844811659985234"><ele>1309.0</ele><time>2026-05-03T09:45:43Z</time></trkpt><trkpt lat="38.09368460378996" lon="15.844842654202253"><ele>1309.0</ele><time>2026-05-03T09:45:44Z</time></trkpt><trkpt lat="38.09378688558828" lon="15.844880488202339"><ele>1309.0</ele><time>2026-05-03T09:45:45Z</time></trkpt><trkpt lat="38.09390957590365" lon="15.844933285062655"><ele>1309.0</ele><time>2026-05-03T09:45:46Z</time></trkpt><trkpt lat="38.09402082189071" lon="15.844976742396245"><ele>1310.0</ele><time>2026-05-03T09:45:47Z</time></trkpt><trkpt lat="38.09411771050964" lon="15.844993411628183"><ele>1311.0</ele><time>2026-05-03T09:45:48Z</time></trkpt><trkpt lat="38.09420453187983" lon="15.845088378744414"><ele>1312.0</ele><time>2026-05-03T09:45:49Z</time></trkpt><trkpt lat="38.09426082215227" lon="15.845175328594745"><ele>1313.0</ele><time>2026-05-03T09:45:50Z</time></trkpt><trkpt lat="38.094288649718564" lon="15.845274226522148"><ele>1314.0</ele><time>2026-05-03T09:45:51Z</time></trkpt><trkpt lat="38.094287875006806" lon="15.84541181900714"><ele>1314.0</ele><time>2026-05-03T09:45:52Z</time></trkpt><trkpt lat="38.09435897627457" lon="15.845597784175576"><ele>1314.0</ele><time>2026-05-03T09:45:53Z</time></trkpt><trkpt lat="38.094415844908305" lon="15.845708067720619"><ele>1314.0</ele><time>2026-05-03T09:45:54Z</time></trkpt><trkpt lat="38.094478545269425" lon="15.845822794539593"><ele>1314.0</ele><time>2026-05-03T09:45:55Z</time></trkpt><trkpt lat="38.0945547925346" lon="15.845955840819363"><ele>1311.2</ele><time>2026-05-03T09:45:56Z</time></trkpt><trkpt lat="38.094632240821845" lon="15.84607305495258"><ele>1308.4</ele><time>2026-05-03T09:45:57Z</time></trkpt><trkpt lat="38.09469207053388" lon="15.846154921253861"><ele>1305.6</ele><time>2026-05-03T09:45:58Z</time></trkpt><trkpt lat="38.094817741330395" lon="15.846164764720443"><ele>1302.8</ele><time>2026-05-03T09:46:00Z</time></trkpt><trkpt lat="38.09486781735999" lon="15.846108927183312"><ele>1300.0</ele><time>2026-05-03T09:46:01Z</time></trkpt><trkpt lat="38.09487914353051" lon="15.846012904528878"><ele>1302.8</ele><time>2026-05-03T09:46:02Z</time></trkpt><trkpt lat="38.09485670787401" lon="15.845932017643884"><ele>1305.6</ele><time>2026-05-03T09:46:03Z</time></trkpt><trkpt lat="38.09480556599696" lon="15.845854460535376"><ele>1308.4</ele><time>2026-05-03T09:46:04Z</time></trkpt><trkpt lat="38.094733140467866" lon="15.845758221030168"><ele>1311.2</ele><time>2026-05-03T09:46:05Z</time></trkpt><trkpt lat="38.0946485011957" lon="15.845691270036298"><ele>1314.0</ele><time>2026-05-03T09:46:06Z</time></trkpt><trkpt lat="38.09457665170872" lon="15.84559195841566"><ele>1314.0</ele><time>2026-05-03T09:46:07Z</time></trkpt><trkpt lat="38.094507716886056" lon="15.845506036942592"><ele>1314.0</ele><time>2026-05-03T09:46:08Z</time></trkpt><trkpt lat="38.09445740098336" lon="15.845414352013044"><ele>1314.0</ele><time>2026-05-03T09:46:09Z</time></trkpt><trkpt lat="38.09443938714038" lon="15.845327400530223"><ele>1314.0</ele><time>2026-05-03T09:46:10Z</time></trkpt><trkpt lat="38.09445906603006" lon="15.845206007887604"><ele>1314.0</ele><time>2026-05-03T09:46:12Z</time></trkpt><trkpt lat="38.09446226554898" lon="15.844949113333913"><ele>1318.25</ele><time>2026-05-03T09:46:13Z</time></trkpt><trkpt lat="38.09440441053937" lon="15.844766254077653"><ele>1322.5</ele><time>2026-05-03T09:46:14Z</time></trkpt><trkpt lat="38.09433755663042" lon="15.844672483971111"><ele>1326.75</ele><time>2026-05-03T09:46:15Z</time></trkpt><trkpt lat="38.094240727282084" lon="15.844627831404486"><ele>1331.0</ele><time>2026-05-03T09:46:16Z</time></trkpt><trkpt lat="38.094145257547154" lon="15.844587937851513"><ele>1325.5</ele><time>2026-05-03T09:46:17Z</time></trkpt><trkpt lat="38.094025070353176" lon="15.844598401288076"><ele>1320.0</ele><time>2026-05-03T09:46:18Z</time></trkpt><trkpt lat="38.093925716588444" lon="15.84454298354424"><ele>1314.5</ele><time>2026-05-03T09:46:19Z</time></trkpt><trkpt lat="38.093825816380836" lon="15.844475090616289"><ele>1309.0</ele><time>2026-05-03T09:46:20Z</time></trkpt><trkpt lat="38.09374062292479" lon="15.844390945994892"><ele>1309.0</ele><time>2026-05-03T09:46:21Z</time></trkpt><trkpt lat="38.09367914342236" lon="15.844300491228097"><ele>1309.0</ele><time>2026-05-03T09:46:22Z</time></trkpt><trkpt lat="38.09363022984275" lon="15.844201097334212"><ele>1309.0</ele><time>2026-05-03T09:46:23Z</time></trkpt><trkpt lat="38.09360182485183" lon="15.844104895828437"><ele>1309.0</ele><time>2026-05-03T09:46:24Z</time></trkpt><trkpt lat="38.093609697201096" lon="15.844007729885424"><ele>1309.0</ele><time>2026-05-03T09:46:25Z</time></trkpt><trkpt lat="38.09355545861385" lon="15.843833935992949"><ele>1314.2</ele><time>2026-05-03T09:46:26Z</time></trkpt><trkpt lat="38.093455892149834" lon="15.843703970901926"><ele>1319.4</ele><time>2026-05-03T09:46:27Z</time></trkpt><trkpt lat="38.09338808586376" lon="15.843617834278323"><ele>1324.6</ele><time>2026-05-03T09:46:28Z</time></trkpt><trkpt lat="38.09333913204807" lon="15.8435380425918"><ele>1329.8</ele><time>2026-05-03T09:46:29Z</time></trkpt><trkpt lat="38.0933098893454" lon="15.843455884750572"><ele>1335.0</ele><time>2026-05-03T09:46:30Z</time></trkpt><trkpt lat="38.093293659349776" lon="15.843338666439125"><ele>1337.75</ele><time>2026-05-03T09:46:31Z</time></trkpt><trkpt lat="38.0933134332234" lon="15.843211035008522"><ele>1340.5</ele><time>2026-05-03T09:46:32Z</time></trkpt><trkpt lat="38.093379492678814" lon="15.843131037253213"><ele>1343.25</ele><time>2026-05-03T09:46:33Z</time></trkpt><trkpt lat="38.093434869395594" lon="15.842972023383986"><ele>1346.0</ele><time>2026-05-03T09:46:34Z</time></trkpt><trkpt lat="38.09347184103598" lon="15.842798099740083"><ele>1346.0</ele><time>2026-05-03T09:46:35Z</time></trkpt><trkpt lat="38.09346927682137" lon="15.842638550218892"><ele>1346.0</ele><time>2026-05-03T09:46:36Z</time></trkpt><trkpt lat="38.09349082047812" lon="15.842436562679488"><ele>1346.0</ele><time>2026-05-03T09:46:37Z</time></trkpt><trkpt lat="38.09349399053966" lon="15.842254320897855"><ele>1346.0</ele><time>2026-05-03T09:46:38Z</time></trkpt><trkpt lat="38.09350234465031" lon="15.842076879110873"><ele>1345.75</ele><time>2026-05-03T09:46:39Z</time></trkpt><trkpt lat="38.09348555662627" lon="15.84190212141987"><ele>1345.5</ele><time>2026-05-03T09:46:40Z</time></trkpt><trkpt lat="38.09349938447722" lon="15.841753836113018"><ele>1345.25</ele><time>2026-05-03T09:46:41Z</time></trkpt><trkpt lat="38.09349167917966" lon="15.841639466392637"><ele>1345.0</ele><time>2026-05-03T09:46:42Z</time></trkpt><trkpt lat="38.093525727717484" lon="15.841498311194204"><ele>1344.2</ele><time>2026-05-03T09:46:43Z</time></trkpt><trkpt lat="38.09355699041278" lon="15.841377742548017"><ele>1343.4</ele><time>2026-05-03T09:46:44Z</time></trkpt><trkpt lat="38.0936184900866" lon="15.841303109853264"><ele>1342.6</ele><time>2026-05-03T09:46:45Z</time></trkpt><trkpt lat="38.09369264564294" lon="15.841254927033205"><ele>1341.8</ele><time>2026-05-03T09:46:46Z</time></trkpt><trkpt lat="38.09378438634065" lon="15.841233012068"><ele>1341.0</ele><time>2026-05-03T09:46:47Z</time></trkpt><trkpt lat="38.09388020483967" lon="15.841214043810066"><ele>1341.0</ele><time>2026-05-03T09:46:48Z</time></trkpt><trkpt lat="38.093999517020485" lon="15.841220093644706"><ele>1341.0</ele><time>2026-05-03T09:46:49Z</time></trkpt><trkpt lat="38.094114226090774" lon="15.841242033606092"><ele>1341.0</ele><time>2026-05-03T09:46:50Z</time></trkpt><trkpt lat="38.09423569625051" lon="15.841268090742645"><ele>1341.0</ele><time>2026-05-03T09:46:51Z</time></trkpt><trkpt lat="38.09435136592788" lon="15.841298869925746"><ele>1346.6</ele><time>2026-05-03T09:46:52Z</time></trkpt><trkpt lat="38.094470357042965" lon="15.841355549519893"><ele>1352.1999999999998</ele><time>2026-05-03T09:46:53Z</time></trkpt><trkpt lat="38.094527013215206" lon="15.84141725278226"><ele>1357.8000000000002</ele><time>2026-05-03T09:46:54Z</time></trkpt><trkpt lat="38.09460465613843" lon="15.841471484364591"><ele>1363.4</ele><time>2026-05-03T09:46:55Z</time></trkpt><trkpt lat="38.09469182142595" lon="15.841476627636714"><ele>1369.0</ele><time>2026-05-03T09:46:56Z</time></trkpt><trkpt lat="38.094802715775806" lon="15.84145885378195"><ele>1369.0</ele><time>2026-05-03T09:46:57Z</time></trkpt><trkpt lat="38.09489278210037" lon="15.841395803670332"><ele>1369.0</ele><time>2026-05-03T09:46:58Z</time></trkpt><trkpt lat="38.09490395510279" lon="15.84126178240263"><ele>1369.0</ele><time>2026-05-03T09:46:59Z</time></trkpt><trkpt lat="38.09490489646875" lon="15.841136349387137"><ele>1369.0</ele><time>2026-05-03T09:47:00Z</time></trkpt><trkpt lat="38.0948725701241" lon="15.841004466879665"><ele>1369.0</ele><time>2026-05-03T09:47:01Z</time></trkpt><trkpt lat="38.09483405624753" lon="15.840881095777053"><ele>1365.5</ele><time>2026-05-03T09:47:02Z</time></trkpt><trkpt lat="38.09480206845589" lon="15.840751198448167"><ele>1362.0</ele><time>2026-05-03T09:47:03Z</time></trkpt><trkpt lat="38.09474877005868" lon="15.840569990731066"><ele>1358.5</ele><time>2026-05-03T09:47:04Z</time></trkpt><trkpt lat="38.094707596195235" lon="15.84038613272603"><ele>1355.0</ele><time>2026-05-03T09:47:05Z</time></trkpt><trkpt lat="38.0946438529534" lon="15.8401895037075"><ele>1358.3333333333335</ele><time>2026-05-03T09:47:06Z</time></trkpt><trkpt lat="38.09459037673886" lon="15.840009752721093"><ele>1361.6666666666667</ele><time>2026-05-03T09:47:07Z</time></trkpt><trkpt lat="38.094534056730424" lon="15.839820808418683"><ele>1365.0</ele><time>2026-05-03T09:47:08Z</time></trkpt><trkpt lat="38.094482101406165" lon="15.839649800919261"><ele>1365.0</ele><time>2026-05-03T09:47:09Z</time></trkpt><trkpt lat="38.09442798146588" lon="15.839506149650772"><ele>1365.0</ele><time>2026-05-03T09:47:10Z</time></trkpt><trkpt lat="38.094381562520255" lon="15.83937408148955"><ele>1365.0</ele><time>2026-05-03T09:47:11Z</time></trkpt><trkpt lat="38.09434013967039" lon="15.839274575856866"><ele>1365.0</ele><time>2026-05-03T09:47:12Z</time></trkpt><trkpt lat="38.094327600235445" lon="15.83916807651404"><ele>1365.0</ele><time>2026-05-03T09:47:13Z</time></trkpt><trkpt lat="38.09431650888451" lon="15.839061031492914"><ele>1367.0</ele><time>2026-05-03T09:47:14Z</time></trkpt><trkpt lat="38.09436692761033" lon="15.83901063557243"><ele>1369.0</ele><time>2026-05-03T09:47:15Z</time></trkpt><trkpt lat="38.09444121627681" lon="15.838962918006656"><ele>1371.0</ele><time>2026-05-03T09:47:17Z</time></trkpt><trkpt lat="38.09453374085269" lon="15.838966227759718"><ele>1373.0</ele><time>2026-05-03T09:47:19Z</time></trkpt><trkpt lat="38.094596625392434" lon="15.839023200305629"><ele>1375.0</ele><time>2026-05-03T09:47:20Z</time></trkpt><trkpt lat="38.09474440772277" lon="15.839047306095619"><ele>1377.3333333333333</ele><time>2026-05-03T09:47:21Z</time></trkpt><trkpt lat="38.09500364382696" lon="15.839034582795701"><ele>1379.6666666666667</ele><time>2026-05-03T09:47:22Z</time></trkpt><trkpt lat="38.09512635592018" lon="15.839012553826356"><ele>1382.0</ele><time>2026-05-03T09:47:23Z</time></trkpt><trkpt lat="38.0952567022736" lon="15.838984433046244"><ele>1382.0</ele><time>2026-05-03T09:47:24Z</time></trkpt><trkpt lat="38.09536598262265" lon="15.83894541977755"><ele>1382.0</ele><time>2026-05-03T09:47:25Z</time></trkpt><trkpt lat="38.095479321888654" lon="15.838949508923953"><ele>1382.0</ele><time>2026-05-03T09:47:26Z</time></trkpt><trkpt lat="38.09557003148317" lon="15.838961231175816"><ele>1382.0</ele><time>2026-05-03T09:47:27Z</time></trkpt><trkpt lat="38.095659777413886" lon="15.838986652942678"><ele>1382.0</ele><time>2026-05-03T09:47:28Z</time></trkpt><trkpt lat="38.09572169114888" lon="15.839062459278757"><ele>1383.0</ele><time>2026-05-03T09:47:29Z</time></trkpt><trkpt lat="38.095859022420285" lon="15.839152954787078"><ele>1384.0</ele><time>2026-05-03T09:47:30Z</time></trkpt><trkpt lat="38.09597066800996" lon="15.839173709733124"><ele>1385.0</ele><time>2026-05-03T09:47:31Z</time></trkpt><trkpt lat="38.09607801732432" lon="15.839224480982914"><ele>1386.0</ele><time>2026-05-03T09:47:32Z</time></trkpt><trkpt lat="38.0961817677578" lon="15.839244090708446"><ele>1386.0</ele><time>2026-05-03T09:47:33Z</time></trkpt><trkpt lat="38.09627382924553" lon="15.839218440643231"><ele>1386.0</ele><time>2026-05-03T09:47:34Z</time></trkpt><trkpt lat="38.09636832378268" lon="15.839190712347344"><ele>1386.0</ele><time>2026-05-03T09:47:35Z</time></trkpt><trkpt lat="38.09652295787602" lon="15.839136066557346"><ele>1386.0</ele><time>2026-05-03T09:47:36Z</time></trkpt><trkpt lat="38.096616720141554" lon="15.839104464384048"><ele>1386.0</ele><time>2026-05-03T09:47:37Z</time></trkpt><trkpt lat="38.096695096319635" lon="15.839073158377968"><ele>1384.6666666666667</ele><time>2026-05-03T09:47:38Z</time></trkpt><trkpt lat="38.09690807298215" lon="15.838933619542319"><ele>1383.3333333333335</ele><time>2026-05-03T09:47:39Z</time></trkpt><trkpt lat="38.09702809432044" lon="15.838841582827591"><ele>1382.0</ele><time>2026-05-03T09:47:40Z</time></trkpt><trkpt lat="38.097146197490716" lon="15.83877447055727"><ele>1382.0</ele><time>2026-05-03T09:47:41Z</time></trkpt><trkpt lat="38.09723956675736" lon="15.838710080041652"><ele>1382.0</ele><time>2026-05-03T09:47:42Z</time></trkpt><trkpt lat="38.097316703201884" lon="15.838688985183158"><ele>1382.0</ele><time>2026-05-03T09:47:43Z</time></trkpt><trkpt lat="38.09740135716589" lon="15.838673348631264"><ele>1382.0</ele><time>2026-05-03T09:47:44Z</time></trkpt><trkpt lat="38.09749592226178" lon="15.838655977860443"><ele>1382.0</ele><time>2026-05-03T09:47:45Z</time></trkpt><trkpt lat="38.09759767970086" lon="15.838620668687913"><ele>1385.0</ele><time>2026-05-03T09:47:46Z</time></trkpt><trkpt lat="38.09767267126949" lon="15.838537072530043"><ele>1388.0</ele><time>2026-05-03T09:47:47Z</time></trkpt><trkpt lat="38.09777850557531" lon="15.838410180607543"><ele>1391.0</ele><time>2026-05-03T09:47:48Z</time></trkpt><trkpt lat="38.097861853690326" lon="15.838359415066403"><ele>1394.0</ele><time>2026-05-03T09:47:49Z</time></trkpt><trkpt lat="38.09794328469147" lon="15.838304012281021"><ele>1397.0</ele><time>2026-05-03T09:47:50Z</time></trkpt><trkpt lat="38.0980381922087" lon="15.838313138252545"><ele>1397.0</ele><time>2026-05-03T09:47:51Z</time></trkpt><trkpt lat="38.098109669171606" lon="15.838333879304077"><ele>1397.0</ele><time>2026-05-03T09:47:52Z</time></trkpt><trkpt lat="38.098188113560724" lon="15.838368378409623"><ele>1397.0</ele><time>2026-05-03T09:47:53Z</time></trkpt><trkpt lat="38.0982415036204" lon="15.838475801296457"><ele>1397.0</ele><time>2026-05-03T09:47:54Z</time></trkpt><trkpt lat="38.09824989368531" lon="15.838577469317594"><ele>1397.0</ele><time>2026-05-03T09:47:55Z</time></trkpt><trkpt lat="38.09824109622594" lon="15.838708718756799"><ele>1397.0</ele><time>2026-05-03T09:47:56Z</time></trkpt><trkpt lat="38.09827816974033" lon="15.838851373030431"><ele>1395.5</ele><time>2026-05-03T09:47:57Z</time></trkpt><trkpt lat="38.09834594191511" lon="15.839019951305396"><ele>1394.0</ele><time>2026-05-03T09:47:58Z</time></trkpt><trkpt lat="38.09840976210692" lon="15.839164032173763"><ele>1392.5</ele><time>2026-05-03T09:47:59Z</time></trkpt><trkpt lat="38.09847649586982" lon="15.839324331758215"><ele>1391.0</ele><time>2026-05-03T09:48:00Z</time></trkpt><trkpt lat="38.09854753013777" lon="15.839497250798305"><ele>1395.1999999999998</ele><time>2026-05-03T09:48:01Z</time></trkpt><trkpt lat="38.09857675400493" lon="15.83963052741203"><ele>1399.3999999999999</ele><time>2026-05-03T09:48:02Z</time></trkpt><trkpt lat="38.09862425921402" lon="15.839727106519051"><ele>1403.6</ele><time>2026-05-03T09:48:03Z</time></trkpt><trkpt lat="38.09869340082803" lon="15.839795993442262"><ele>1407.8</ele><time>2026-05-03T09:48:04Z</time></trkpt><trkpt lat="38.09878166675816" lon="15.839818202274278"><ele>1412.0</ele><time>2026-05-03T09:48:05Z</time></trkpt><trkpt lat="38.09887849455296" lon="15.839772333797468"><ele>1412.0</ele><time>2026-05-03T09:48:06Z</time></trkpt><trkpt lat="38.098955928467035" lon="15.839678950306169"><ele>1412.0</ele><time>2026-05-03T09:48:07Z</time></trkpt><trkpt lat="38.09905014119849" lon="15.839622732242628"><ele>1412.0</ele><time>2026-05-03T09:48:08Z</time></trkpt><trkpt lat="38.09913027922112" lon="15.83962645674299"><ele>1412.0</ele><time>2026-05-03T09:48:09Z</time></trkpt><trkpt lat="38.099207849916034" lon="15.83967736376355"><ele>1412.0</ele><time>2026-05-03T09:48:10Z</time></trkpt><trkpt lat="38.09931781003319" lon="15.83971048473963"><ele>1408.6</ele><time>2026-05-03T09:48:11Z</time></trkpt><trkpt lat="38.09941573193794" lon="15.839762491959192"><ele>1405.1999999999998</ele><time>2026-05-03T09:48:12Z</time></trkpt><trkpt lat="38.099520268189885" lon="15.839769981035206"><ele>1401.8</ele><time>2026-05-03T09:48:13Z</time></trkpt><trkpt lat="38.09962748410301" lon="15.839724354852416"><ele>1398.4</ele><time>2026-05-03T09:48:14Z</time></trkpt><trkpt lat="38.09972717999231" lon="15.839634751589836"><ele>1395.0</ele><time>2026-05-03T09:48:15Z</time></trkpt><trkpt lat="38.09982038678614" lon="15.839512278215754"><ele>1395.0</ele><time>2026-05-03T09:48:16Z</time></trkpt><trkpt lat="38.09989681382726" lon="15.839420975666908"><ele>1395.0</ele><time>2026-05-03T09:48:17Z</time></trkpt><trkpt lat="38.09997431788141" lon="15.839391552067632"><ele>1395.0</ele><time>2026-05-03T09:48:18Z</time></trkpt><trkpt lat="38.10005456849738" lon="15.83940539282664"><ele>1395.0</ele><time>2026-05-03T09:48:19Z</time></trkpt><trkpt lat="38.100141057021276" lon="15.839452739903166"><ele>1395.0</ele><time>2026-05-03T09:48:20Z</time></trkpt><trkpt lat="38.10022765232833" lon="15.839436872282706"><ele>1395.0</ele><time>2026-05-03T09:48:21Z</time></trkpt><trkpt lat="38.10032523546767" lon="15.839583783096453"><ele>1394.25</ele><time>2026-05-03T09:48:22Z</time></trkpt><trkpt lat="38.1004355344909" lon="15.839683287609033"><ele>1393.5</ele><time>2026-05-03T09:48:23Z</time></trkpt><trkpt lat="38.10056667605991" lon="15.839780896309804"><ele>1392.75</ele><time>2026-05-03T09:48:24Z</time></trkpt><trkpt lat="38.10070749346869" lon="15.839869031613551"><ele>1392.0</ele><time>2026-05-03T09:48:25Z</time></trkpt><trkpt lat="38.100845337591046" lon="15.839950103432532"><ele>1386.3333333333333</ele><time>2026-05-03T09:48:26Z</time></trkpt><trkpt lat="38.10098321995137" lon="15.840048797116395"><ele>1380.6666666666665</ele><time>2026-05-03T09:48:27Z</time></trkpt><trkpt lat="38.10112446035889" lon="15.840161327792623"><ele>1375.0</ele><time>2026-05-03T09:48:28Z</time></trkpt><trkpt lat="38.10125143071548" lon="15.840263791576911"><ele>1375.5</ele><time>2026-05-03T09:48:29Z</time></trkpt><trkpt lat="38.10137274731123" lon="15.840363819212614"><ele>1376.0</ele><time>2026-05-03T09:48:30Z</time></trkpt><trkpt lat="38.10149544538212" lon="15.84046908823921"><ele>1376.5</ele><time>2026-05-03T09:48:31Z</time></trkpt><trkpt lat="38.10161947742927" lon="15.840552257688207"><ele>1377.0</ele><time>2026-05-03T09:48:32Z</time></trkpt><trkpt lat="38.10173865127377" lon="15.840642850016922"><ele>1377.0</ele><time>2026-05-03T09:48:33Z</time></trkpt><trkpt lat="38.10184388976099" lon="15.840735673200548"><ele>1377.0</ele><time>2026-05-03T09:48:34Z</time></trkpt><trkpt lat="38.10194021260565" lon="15.840819040727945"><ele>1377.0</ele><time>2026-05-03T09:48:35Z</time></trkpt><trkpt lat="38.102042488659386" lon="15.84089711247645"><ele>1377.0</ele><time>2026-05-03T09:48:36Z</time></trkpt><trkpt lat="38.10211038202243" lon="15.840965673602948"><ele>1383.8</ele><time>2026-05-03T09:48:37Z</time></trkpt><trkpt lat="38.10218427933357" lon="15.841055337714275"><ele>1390.6</ele><time>2026-05-03T09:48:38Z</time></trkpt><trkpt lat="38.10224687279292" lon="15.84116381880278"><ele>1397.3999999999999</ele><time>2026-05-03T09:48:39Z</time></trkpt><trkpt lat="38.1022909517984" lon="15.841269514968248"><ele>1404.1999999999998</ele><time>2026-05-03T09:48:40Z</time></trkpt><trkpt lat="38.10231652901294" lon="15.841381231661988"><ele>1411.0</ele><time>2026-05-03T09:48:41Z</time></trkpt><trkpt lat="38.10237160541373" lon="15.841460159306749"><ele>1402.5</ele><time>2026-05-03T09:48:42Z</time></trkpt><trkpt lat="38.1024721966504" lon="15.84148864875119"><ele>1394.0</ele><time>2026-05-03T09:48:43Z</time></trkpt><trkpt lat="38.102582184407716" lon="15.84151883784505"><ele>1385.5</ele><time>2026-05-03T09:48:44Z</time></trkpt><trkpt lat="38.10272821125848" lon="15.841495804600482"><ele>1377.0</ele><time>2026-05-03T09:48:45Z</time></trkpt><trkpt lat="38.102852899906175" lon="15.841547886318985"><ele>1377.0</ele><time>2026-05-03T09:48:46Z</time></trkpt><trkpt lat="38.10295850753315" lon="15.841620123948386"><ele>1377.0</ele><time>2026-05-03T09:48:47Z</time></trkpt><trkpt lat="38.103065230877" lon="15.841672355534705"><ele>1377.0</ele><time>2026-05-03T09:48:48Z</time></trkpt><trkpt lat="38.10315377175332" lon="15.841752137166571"><ele>1377.0</ele><time>2026-05-03T09:48:49Z</time></trkpt><trkpt lat="38.10321619697461" lon="15.841848536015267"><ele>1377.0</ele><time>2026-05-03T09:48:50Z</time></trkpt><trkpt lat="38.10327720721544" lon="15.841939437588657"><ele>1379.1999999999998</ele><time>2026-05-03T09:48:51Z</time></trkpt><trkpt lat="38.103332265081654" lon="15.842040924989375"><ele>1381.4</ele><time>2026-05-03T09:48:52Z</time></trkpt><trkpt lat="38.10338702265196" lon="15.842133649033782"><ele>1383.6</ele><time>2026-05-03T09:48:53Z</time></trkpt><trkpt lat="38.103472567343566" lon="15.842168659260283"><ele>1385.8000000000002</ele><time>2026-05-03T09:48:54Z</time></trkpt><trkpt lat="38.10358764697286" lon="15.842175295579427"><ele>1388.0</ele><time>2026-05-03T09:48:55Z</time></trkpt><trkpt lat="38.10369382425202" lon="15.842201154317658"><ele>1388.0</ele><time>2026-05-03T09:48:56Z</time></trkpt><trkpt lat="38.10379500384016" lon="15.842247528794434"><ele>1388.0</ele><time>2026-05-03T09:48:57Z</time></trkpt><trkpt lat="38.10389409524913" lon="15.842302643509065"><ele>1388.0</ele><time>2026-05-03T09:48:58Z</time></trkpt><trkpt lat="38.10399277184525" lon="15.842357794489583"><ele>1388.0</ele><time>2026-05-03T09:48:59Z</time></trkpt><trkpt lat="38.10408888105212" lon="15.842455436538168"><ele>1388.0</ele><time>2026-05-03T09:49:00Z</time></trkpt><trkpt lat="38.10419667409362" lon="15.842572501846703"><ele>1388.5</ele><time>2026-05-03T09:49:01Z</time></trkpt><trkpt lat="38.104291581874406" lon="15.8426955015619"><ele>1389.0</ele><time>2026-05-03T09:49:02Z</time></trkpt><trkpt lat="38.104385406015474" lon="15.842810051119079"><ele>1389.5</ele><time>2026-05-03T09:49:03Z</time></trkpt><trkpt lat="38.10445985076097" lon="15.842934856589054"><ele>1390.0</ele><time>2026-05-03T09:49:04Z</time></trkpt><trkpt lat="38.10451703914261" lon="15.84304671200219"><ele>1390.0</ele><time>2026-05-03T09:49:05Z</time></trkpt><trkpt lat="38.10463057662" lon="15.84306577398131"><ele>1390.0</ele><time>2026-05-03T09:49:06Z</time></trkpt><trkpt lat="38.10471768545709" lon="15.843103814808725"><ele>1390.0</ele><time>2026-05-03T09:49:07Z</time></trkpt><trkpt lat="38.10480933953486" lon="15.843167726626922"><ele>1390.0</ele><time>2026-05-03T09:49:08Z</time></trkpt><trkpt lat="38.104889530230075" lon="15.843239117087355"><ele>1390.0</ele><time>2026-05-03T09:49:09Z</time></trkpt><trkpt lat="38.10493364738009" lon="15.843321934105322"><ele>1385.75</ele><time>2026-05-03T09:49:10Z</time></trkpt><trkpt lat="38.10499491943984" lon="15.843432477406273"><ele>1381.5</ele><time>2026-05-03T09:49:11Z</time></trkpt><trkpt lat="38.10503099442346" lon="15.843572183359342"><ele>1377.25</ele><time>2026-05-03T09:49:12Z</time></trkpt><trkpt lat="38.10507554865401" lon="15.843709242586968"><ele>1373.0</ele><time>2026-05-03T09:49:13Z</time></trkpt><trkpt lat="38.10512785538916" lon="15.843859289794919"><ele>1373.0</ele><time>2026-05-03T09:49:14Z</time></trkpt><trkpt lat="38.10517785092519" lon="15.843983401638445"><ele>1373.0</ele><time>2026-05-03T09:49:15Z</time></trkpt><trkpt lat="38.10526437499413" lon="15.844068373617601"><ele>1373.0</ele><time>2026-05-03T09:49:16Z</time></trkpt><trkpt lat="38.10533930922694" lon="15.844160462401952"><ele>1373.0</ele><time>2026-05-03T09:49:17Z</time></trkpt><trkpt lat="38.105393085789075" lon="15.844251672720498"><ele>1373.0</ele><time>2026-05-03T09:49:18Z</time></trkpt><trkpt lat="38.10544080941714" lon="15.844357689153115"><ele>1375.2</ele><time>2026-05-03T09:49:19Z</time></trkpt><trkpt lat="38.10545159368979" lon="15.844481797184043"><ele>1377.4</ele><time>2026-05-03T09:49:20Z</time></trkpt><trkpt lat="38.105448530348596" lon="15.844608967957559"><ele>1379.6000000000001</ele><time>2026-05-03T09:49:21Z</time></trkpt><trkpt lat="38.10543345108859" lon="15.844734397861174"><ele>1381.8000000000002</ele><time>2026-05-03T09:49:22Z</time></trkpt><trkpt lat="38.105430158346365" lon="15.84485046974164"><ele>1384.0</ele><time>2026-05-03T09:49:23Z</time></trkpt><trkpt lat="38.10542345000847" lon="15.844930907383553"><ele>1384.0</ele><time>2026-05-03T09:49:24Z</time></trkpt><trkpt lat="38.105483448171945" lon="15.845039034653958"><ele>1384.0</ele><time>2026-05-03T09:49:26Z</time></trkpt><trkpt lat="38.10554482159966" lon="15.845073572117766"><ele>1384.0</ele><time>2026-05-03T09:49:27Z</time></trkpt><trkpt lat="38.1056541972315" lon="15.845052408023433"><ele>1384.0</ele><time>2026-05-03T09:49:28Z</time></trkpt><trkpt lat="38.105784094578986" lon="15.845028832512973"><ele>1384.0</ele><time>2026-05-03T09:49:29Z</time></trkpt><trkpt lat="38.105894498486066" lon="15.845006462002514"><ele>1376.0</ele><time>2026-05-03T09:49:30Z</time></trkpt><trkpt lat="38.10602873653867" lon="15.845013210052167"><ele>1368.0</ele><time>2026-05-03T09:49:31Z</time></trkpt><trkpt lat="38.1061528387852" lon="15.845013149091844"><ele>1360.0</ele><time>2026-05-03T09:49:32Z</time></trkpt><trkpt lat="38.10629013595438" lon="15.844996476589781"><ele>1352.0</ele><time>2026-05-03T09:49:33Z</time></trkpt><trkpt lat="38.106406799721995" lon="15.844965479718555"><ele>1352.0</ele><time>2026-05-03T09:49:34Z</time></trkpt><trkpt lat="38.10650506148957" lon="15.844929174396317"><ele>1352.0</ele><time>2026-05-03T09:49:35Z</time></trkpt><trkpt lat="38.106619478377254" lon="15.844924930403856"><ele>1352.0</ele><time>2026-05-03T09:49:36Z</time></trkpt><trkpt lat="38.10669409525693" lon="15.844960371848789"><ele>1352.0</ele><time>2026-05-03T09:49:37Z</time></trkpt><trkpt lat="38.10679055215873" lon="15.844991397493473"><ele>1352.0</ele><time>2026-05-03T09:49:38Z</time></trkpt><trkpt lat="38.10688671476363" lon="15.845094613397091"><ele>1358.25</ele><time>2026-05-03T09:49:39Z</time></trkpt><trkpt lat="38.10698571483146" lon="15.845197639051422"><ele>1364.5</ele><time>2026-05-03T09:49:40Z</time></trkpt><trkpt lat="38.107080399908895" lon="15.845327511335562"><ele>1370.75</ele><time>2026-05-03T09:49:41Z</time></trkpt><trkpt lat="38.107169130137414" lon="15.845499690825157"><ele>1377.0</ele><time>2026-05-03T09:49:42Z</time></trkpt><trkpt lat="38.10724947778265" lon="15.845636766257087"><ele>1377.0</ele><time>2026-05-03T09:49:43Z</time></trkpt><trkpt lat="38.10733065963346" lon="15.845764866054457"><ele>1377.0</ele><time>2026-05-03T09:49:44Z</time></trkpt><trkpt lat="38.10740569488073" lon="15.84590686641392"><ele>1377.0</ele><time>2026-05-03T09:49:45Z</time></trkpt><trkpt lat="38.10742518251418" lon="15.846058444762429"><ele>1377.0</ele><time>2026-05-03T09:49:46Z</time></trkpt><trkpt lat="38.10744970763596" lon="15.846198876347117"><ele>1364.25</ele><time>2026-05-03T09:49:47Z</time></trkpt><trkpt lat="38.10743078408423" lon="15.84635661230722"><ele>1351.5</ele><time>2026-05-03T09:49:48Z</time></trkpt><trkpt lat="38.107447505008864" lon="15.846498480895182"><ele>1338.75</ele><time>2026-05-03T09:49:49Z</time></trkpt><trkpt lat="38.10746717729921" lon="15.846643535986855"><ele>1326.0</ele><time>2026-05-03T09:49:50Z</time></trkpt><trkpt lat="38.10746996587362" lon="15.846767115133643"><ele>1327.8</ele><time>2026-05-03T09:49:51Z</time></trkpt><trkpt lat="38.10745101444805" lon="15.846866312925195"><ele>1329.6</ele><time>2026-05-03T09:49:52Z</time></trkpt><trkpt lat="38.10742916815092" lon="15.846985751520803"><ele>1331.4</ele><time>2026-05-03T09:49:53Z</time></trkpt><trkpt lat="38.10738031696019" lon="15.847079666358983"><ele>1333.2</ele><time>2026-05-03T09:49:54Z</time></trkpt><trkpt lat="38.107334703166536" lon="15.847167482163684"><ele>1335.0</ele><time>2026-05-03T09:49:55Z</time></trkpt><trkpt lat="38.1070800898542" lon="15.84721421280525"><ele>1343.0</ele><time>2026-05-03T09:49:56Z</time></trkpt><trkpt lat="38.10703678766455" lon="15.847324237648305"><ele>1351.0</ele><time>2026-05-03T09:49:57Z</time></trkpt><trkpt lat="38.10699305512346" lon="15.847462295385208"><ele>1359.0</ele><time>2026-05-03T09:49:58Z</time></trkpt><trkpt lat="38.10695613770685" lon="15.847572617886996"><ele>1367.0</ele><time>2026-05-03T09:49:59Z</time></trkpt><trkpt lat="38.10701854973644" lon="15.847700704474818"><ele>1375.0</ele><time>2026-05-03T09:50:00Z</time></trkpt><trkpt lat="38.10700068190066" lon="15.847787594514719"><ele>1375.0</ele><time>2026-05-03T09:50:01Z</time></trkpt><trkpt lat="38.107039715662374" lon="15.84786313253381"><ele>1375.0</ele><time>2026-05-03T09:50:02Z</time></trkpt><trkpt lat="38.107125045277904" lon="15.847917246813195"><ele>1375.0</ele><time>2026-05-03T09:50:03Z</time></trkpt><trkpt lat="38.10724074518172" lon="15.84789718008733"><ele>1375.0</ele><time>2026-05-03T09:50:04Z</time></trkpt><trkpt lat="38.107308132678995" lon="15.847897570459391"><ele>1375.0</ele><time>2026-05-03T09:50:05Z</time></trkpt><trkpt lat="38.10745503564244" lon="15.847869442807127"><ele>1372.25</ele><time>2026-05-03T09:50:07Z</time></trkpt><trkpt lat="38.10754345021521" lon="15.847819280868038"><ele>1369.5</ele><time>2026-05-03T09:50:08Z</time></trkpt><trkpt lat="38.107640613321855" lon="15.847781048503741"><ele>1366.75</ele><time>2026-05-03T09:50:09Z</time></trkpt><trkpt lat="38.107768473220275" lon="15.847689260104465"><ele>1364.0</ele><time>2026-05-03T09:50:10Z</time></trkpt><trkpt lat="38.10791039776909" lon="15.847630378615309"><ele>1361.0</ele><time>2026-05-03T09:50:11Z</time></trkpt><trkpt lat="38.10805039587961" lon="15.847518397976797"><ele>1358.0</ele><time>2026-05-03T09:50:12Z</time></trkpt><trkpt lat="38.1081908731889" lon="15.847444043115598"><ele>1355.0</ele><time>2026-05-03T09:50:13Z</time></trkpt><trkpt lat="38.10829539776438" lon="15.847381313814186"><ele>1352.0</ele><time>2026-05-03T09:50:14Z</time></trkpt><trkpt lat="38.10838881909462" lon="15.84727284627827"><ele>1352.0</ele><time>2026-05-03T09:50:15Z</time></trkpt><trkpt lat="38.10845834412434" lon="15.84714683960645"><ele>1352.0</ele><time>2026-05-03T09:50:16Z</time></trkpt><trkpt lat="38.10854320923128" lon="15.8470373399212"><ele>1352.0</ele><time>2026-05-03T09:50:17Z</time></trkpt><trkpt lat="38.10864432188707" lon="15.846938568355855"><ele>1352.0</ele><time>2026-05-03T09:50:18Z</time></trkpt><trkpt lat="38.108761241547164" lon="15.84682296903185"><ele>1352.75</ele><time>2026-05-03T09:50:19Z</time></trkpt><trkpt lat="38.108887402150124" lon="15.846736238034195"><ele>1353.5</ele><time>2026-05-03T09:50:20Z</time></trkpt><trkpt lat="38.1090142819021" lon="15.846646723780323"><ele>1354.25</ele><time>2026-05-03T09:50:21Z</time></trkpt><trkpt lat="38.109123555280966" lon="15.846542803441947"><ele>1355.0</ele><time>2026-05-03T09:50:22Z</time></trkpt><trkpt lat="38.109239717921874" lon="15.846462210108266"><ele>1355.0</ele><time>2026-05-03T09:50:23Z</time></trkpt><trkpt lat="38.109359551686694" lon="15.846387872411004"><ele>1355.0</ele><time>2026-05-03T09:50:24Z</time></trkpt><trkpt lat="38.109393369463895" lon="15.84628417660841"><ele>1355.0</ele><time>2026-05-03T09:50:25Z</time></trkpt><trkpt lat="38.10947323257929" lon="15.846194542961536"><ele>1355.0</ele><time>2026-05-03T09:50:26Z</time></trkpt><trkpt lat="38.109514719877225" lon="15.84610835878762"><ele>1355.0</ele><time>2026-05-03T09:50:27Z</time></trkpt><trkpt lat="38.10951863161164" lon="15.846013119038123"><ele>1355.6</ele><time>2026-05-03T09:50:28Z</time></trkpt><trkpt lat="38.109527898988134" lon="15.845892348186554"><ele>1356.2</ele><time>2026-05-03T09:50:29Z</time></trkpt><trkpt lat="38.109599254348055" lon="15.845846103025293"><ele>1356.8000000000002</ele><time>2026-05-03T09:50:30Z</time></trkpt><trkpt lat="38.109758453747986" lon="15.845887955109156"><ele>1357.4</ele><time>2026-05-03T09:50:32Z</time></trkpt><trkpt lat="38.10984229588643" lon="15.845896035586485"><ele>1358.0</ele><time>2026-05-03T09:50:33Z</time></trkpt><trkpt lat="38.10993961419351" lon="15.845946062537049"><ele>1358.0</ele><time>2026-05-03T09:50:34Z</time></trkpt><trkpt lat="38.1100361633" lon="15.84598140608275"><ele>1358.0</ele><time>2026-05-03T09:50:35Z</time></trkpt><trkpt lat="38.110077080107864" lon="15.845914746774644"><ele>1358.0</ele><time>2026-05-03T09:50:36Z</time></trkpt><trkpt lat="38.11009630081274" lon="15.845810367673504"><ele>1358.0</ele><time>2026-05-03T09:50:37Z</time></trkpt><trkpt lat="38.11011929167367" lon="15.845678055350334"><ele>1358.0</ele><time>2026-05-03T09:50:38Z</time></trkpt><trkpt lat="38.110133594607376" lon="15.845516581378423"><ele>1358.0</ele><time>2026-05-03T09:50:39Z</time></trkpt><trkpt lat="38.110124852418714" lon="15.845355270423791"><ele>1358.0</ele><time>2026-05-03T09:50:40Z</time></trkpt><trkpt lat="38.110130517706224" lon="15.845206127393016"><ele>1358.0</ele><time>2026-05-03T09:50:41Z</time></trkpt><trkpt lat="38.110112329395285" lon="15.845070506937844"><ele>1358.0</ele><time>2026-05-03T09:50:42Z</time></trkpt><trkpt lat="38.1100844892342" lon="15.844915713988327"><ele>1359.0</ele><time>2026-05-03T09:50:43Z</time></trkpt><trkpt lat="38.11005150523483" lon="15.844787985301847"><ele>1360.0</ele><time>2026-05-03T09:50:44Z</time></trkpt><trkpt lat="38.10997114889808" lon="15.844664477759666"><ele>1361.0</ele><time>2026-05-03T09:50:45Z</time></trkpt><trkpt lat="38.10987603918796" lon="15.844565878383174"><ele>1362.0</ele><time>2026-05-03T09:50:46Z</time></trkpt><trkpt lat="38.109761331177786" lon="15.844479640365245"><ele>1364.0</ele><time>2026-05-03T09:50:47Z</time></trkpt><trkpt lat="38.109644717572884" lon="15.844373806671468"><ele>1366.0</ele><time>2026-05-03T09:50:48Z</time></trkpt><trkpt lat="38.109537791863396" lon="15.844267923650333"><ele>1368.0</ele><time>2026-05-03T09:50:49Z</time></trkpt><trkpt lat="38.10943191766318" lon="15.844184336792017"><ele>1370.0</ele><time>2026-05-03T09:50:50Z</time></trkpt><trkpt lat="38.109328301739716" lon="15.844117136262673"><ele>1370.0</ele><time>2026-05-03T09:50:51Z</time></trkpt><trkpt lat="38.10923203855837" lon="15.844031973046576"><ele>1370.0</ele><time>2026-05-03T09:50:52Z</time></trkpt><trkpt lat="38.10913607027406" lon="15.843935176208252"><ele>1370.0</ele><time>2026-05-03T09:50:53Z</time></trkpt><trkpt lat="38.10903646969821" lon="15.843841442656657"><ele>1370.0</ele><time>2026-05-03T09:50:54Z</time></trkpt><trkpt lat="38.10894417487952" lon="15.84374998941651"><ele>1364.2</ele><time>2026-05-03T09:50:55Z</time></trkpt><trkpt lat="38.108851229967605" lon="15.843674499211746"><ele>1358.4</ele><time>2026-05-03T09:50:56Z</time></trkpt><trkpt lat="38.10876113704103" lon="15.843604751648174"><ele>1352.6</ele><time>2026-05-03T09:50:57Z</time></trkpt><trkpt lat="38.10868063408808" lon="15.843529582921008"><ele>1346.8</ele><time>2026-05-03T09:50:58Z</time></trkpt><trkpt lat="38.108613469389304" lon="15.843449190377132"><ele>1341.0</ele><time>2026-05-03T09:50:59Z</time></trkpt><trkpt lat="38.10854591406313" lon="15.843354317745183"><ele>1341.0</ele><time>2026-05-03T09:51:00Z</time></trkpt><trkpt lat="38.108479927438594" lon="15.843246791455508"><ele>1341.0</ele><time>2026-05-03T09:51:01Z</time></trkpt><trkpt lat="38.10840099675181" lon="15.843131554138544"><ele>1341.0</ele><time>2026-05-03T09:51:02Z</time></trkpt><trkpt lat="38.108357163968385" lon="15.842978332090363"><ele>1341.0</ele><time>2026-05-03T09:51:03Z</time></trkpt><trkpt lat="38.10873527588873" lon="15.842612002156532"><ele>1348.0</ele><time>2026-05-03T09:51:04Z</time></trkpt><trkpt lat="38.10861329545571" lon="15.842432383107294"><ele>1355.0</ele><time>2026-05-03T09:51:05Z</time></trkpt><trkpt lat="38.10857212641214" lon="15.842223658934119"><ele>1362.0</ele><time>2026-05-03T09:51:06Z</time></trkpt><trkpt lat="38.108529682433556" lon="15.84206270459668"><ele>1362.0</ele><time>2026-05-03T09:51:07Z</time></trkpt><trkpt lat="38.108426663775816" lon="15.842040263235297"><ele>1362.0</ele><time>2026-05-03T09:51:08Z</time></trkpt><trkpt lat="38.10837251894427" lon="15.841982329986694"><ele>1362.0</ele><time>2026-05-03T09:51:09Z</time></trkpt><trkpt lat="38.10836770497703" lon="15.841872745233234"><ele>1362.0</ele><time>2026-05-03T09:51:10Z</time></trkpt><trkpt lat="38.10834209550077" lon="15.84173044195602"><ele>1362.0</ele><time>2026-05-03T09:51:11Z</time></trkpt><trkpt lat="38.108337497183385" lon="15.841595889803981"><ele>1365.0</ele><time>2026-05-03T09:51:12Z</time></trkpt><trkpt lat="38.1083491447986" lon="15.841487322461703"><ele>1368.0</ele><time>2026-05-03T09:51:13Z</time></trkpt><trkpt lat="38.10835970431579" lon="15.841372766076596"><ele>1371.0</ele><time>2026-05-03T09:51:14Z</time></trkpt><trkpt lat="38.10836381221904" lon="15.841258115340937"><ele>1374.0</ele><time>2026-05-03T09:51:15Z</time></trkpt><trkpt lat="38.10854023716819" lon="15.841282808818233"><ele>1377.0</ele><time>2026-05-03T09:51:17Z</time></trkpt><trkpt lat="38.10861719327047" lon="15.841358533982863"><ele>1377.0</ele><time>2026-05-03T09:51:18Z</time></trkpt><trkpt lat="38.10873253191597" lon="15.841380671641259"><ele>1377.0</ele><time>2026-05-03T09:51:19Z</time></trkpt><trkpt lat="38.10884827292143" lon="15.841445141002724"><ele>1377.0</ele><time>2026-05-03T09:51:20Z</time></trkpt><trkpt lat="38.108968140129434" lon="15.841487604640928"><ele>1377.0</ele><time>2026-05-03T09:51:21Z</time></trkpt><trkpt lat="38.10907782918708" lon="15.841528790085242"><ele>1379.6</ele><time>2026-05-03T09:51:22Z</time></trkpt><trkpt lat="38.10918082361384" lon="15.841560413639455"><ele>1382.1999999999998</ele><time>2026-05-03T09:51:23Z</time></trkpt><trkpt lat="38.10928221937741" lon="15.841596764524029"><ele>1384.8</ele><time>2026-05-03T09:51:24Z</time></trkpt><trkpt lat="38.109384537911566" lon="15.84162591123379"><ele>1387.4</ele><time>2026-05-03T09:51:25Z</time></trkpt><trkpt lat="38.109489571390604" lon="15.841655077026077"><ele>1390.0</ele><time>2026-05-03T09:51:26Z</time></trkpt><trkpt lat="38.10965442925905" lon="15.841666734104095"><ele>1390.0</ele><time>2026-05-03T09:51:27Z</time></trkpt><trkpt lat="38.10977814767958" lon="15.841694776606753"><ele>1390.0</ele><time>2026-05-03T09:51:28Z</time></trkpt><trkpt lat="38.109897083237385" lon="15.841686672809058"><ele>1390.0</ele><time>2026-05-03T09:51:29Z</time></trkpt><trkpt lat="38.110010019655306" lon="15.841670859541697"><ele>1390.0</ele><time>2026-05-03T09:51:30Z</time></trkpt><trkpt lat="38.110080608857565" lon="15.841585194917027"><ele>1390.5</ele><time>2026-05-03T09:51:31Z</time></trkpt><trkpt lat="38.11006766919701" lon="15.841304677909822"><ele>1391.0</ele><time>2026-05-03T09:51:32Z</time></trkpt><trkpt lat="38.109941878084385" lon="15.840923767010182"><ele>1391.0</ele><time>2026-05-03T09:51:33Z</time></trkpt><trkpt lat="38.10999148188518" lon="15.840794224478678"><ele>1391.0</ele><time>2026-05-03T09:51:34Z</time></trkpt><trkpt lat="38.11002405221017" lon="15.840653924517662"><ele>1391.0</ele><time>2026-05-03T09:51:35Z</time></trkpt><trkpt lat="38.110072206012376" lon="15.840527549427708"><ele>1391.0</ele><time>2026-05-03T09:51:36Z</time></trkpt><trkpt lat="38.11009870079835" lon="15.840422244591378"><ele>1391.0</ele><time>2026-05-03T09:51:37Z</time></trkpt><trkpt lat="38.110204285760005" lon="15.84042969938335"><ele>1391.0</ele><time>2026-05-03T09:51:38Z</time></trkpt><trkpt lat="38.11033421888777" lon="15.840515728486567"><ele>1391.0</ele><time>2026-05-03T09:51:39Z</time></trkpt><trkpt lat="38.110436083173646" lon="15.840540636211527"><ele>1391.0</ele><time>2026-05-03T09:51:40Z</time></trkpt><trkpt lat="38.110559121525725" lon="15.84059969807351"><ele>1391.0</ele><time>2026-05-03T09:51:41Z</time></trkpt><trkpt lat="38.11071787927023" lon="15.840731483998796"><ele>1389.6666666666667</ele><time>2026-05-03T09:51:42Z</time></trkpt><trkpt lat="38.11083905071341" lon="15.84083995831896"><ele>1388.3333333333333</ele><time>2026-05-03T09:51:43Z</time></trkpt><trkpt lat="38.1109655782893" lon="15.840980399913365"><ele>1387.0</ele><time>2026-05-03T09:51:44Z</time></trkpt><trkpt lat="38.11107612208614" lon="15.841124687589348"><ele>1393.5</ele><time>2026-05-03T09:51:45Z</time></trkpt><trkpt lat="38.111154186643226" lon="15.84126362144651"><ele>1400.0</ele><time>2026-05-03T09:51:46Z</time></trkpt><trkpt lat="38.11123997836182" lon="15.841391859632871"><ele>1406.5</ele><time>2026-05-03T09:51:47Z</time></trkpt><trkpt lat="38.111322798011045" lon="15.841509911671304"><ele>1413.0</ele><time>2026-05-03T09:51:48Z</time></trkpt><trkpt lat="38.111409317013965" lon="15.841626445483392"><ele>1413.0</ele><time>2026-05-03T09:51:49Z</time></trkpt><trkpt lat="38.11150749980542" lon="15.841739649778614"><ele>1413.0</ele><time>2026-05-03T09:51:50Z</time></trkpt><trkpt lat="38.111607664408375" lon="15.841850357573918"><ele>1413.0</ele><time>2026-05-03T09:51:51Z</time></trkpt><trkpt lat="38.11169861932438" lon="15.841964939794938"><ele>1413.0</ele><time>2026-05-03T09:51:52Z</time></trkpt><trkpt lat="38.11178968328034" lon="15.842068939090302"><ele>1412.6000000000001</ele><time>2026-05-03T09:51:53Z</time></trkpt><trkpt lat="38.11185710916168" lon="15.842174695255908"><ele>1412.2</ele><time>2026-05-03T09:51:54Z</time></trkpt><trkpt lat="38.11190428148832" lon="15.842294349039115"><ele>1411.8</ele><time>2026-05-03T09:51:55Z</time></trkpt><trkpt lat="38.111956682901265" lon="15.842422078290936"><ele>1411.4</ele><time>2026-05-03T09:51:56Z</time></trkpt><trkpt lat="38.112005817694495" lon="15.842556738900706"><ele>1411.0</ele><time>2026-05-03T09:51:57Z</time></trkpt><trkpt lat="38.11208202498938" lon="15.842616154142053"><ele>1413.6</ele><time>2026-05-03T09:51:58Z</time></trkpt><trkpt lat="38.112166785652725" lon="15.842695805956406"><ele>1416.1999999999998</ele><time>2026-05-03T09:51:59Z</time></trkpt><trkpt lat="38.11224868229228" lon="15.842786534176124"><ele>1418.8000000000002</ele><time>2026-05-03T09:52:00.018Z</time></trkpt><trkpt lat="38.11232648522253" lon="15.842884915225323"><ele>1421.4</ele><time>2026-05-03T09:52:01.019Z</time></trkpt><trkpt lat="38.11240654110523" lon="15.842978497376414"><ele>1424.0</ele><time>2026-05-03T09:52:02Z</time></trkpt><trkpt lat="38.112506307895416" lon="15.843083079423412"><ele>1424.0</ele><time>2026-05-03T09:52:03Z</time></trkpt><trkpt lat="38.11269974246465" lon="15.842940174573563"><ele>1424.0</ele><time>2026-05-03T09:52:04Z</time></trkpt><trkpt lat="38.113240566004606" lon="15.84270167207699"><ele>1422.0</ele><time>2026-05-03T09:52:07Z</time></trkpt><trkpt lat="38.1133653393449" lon="15.842678442359492"><ele>1420.0</ele><time>2026-05-03T09:52:08Z</time></trkpt><trkpt lat="38.11347365199128" lon="15.842698304658178"><ele>1418.0</ele><time>2026-05-03T09:52:09Z</time></trkpt><trkpt lat="38.11355304659411" lon="15.84279931888462"><ele>1416.0</ele><time>2026-05-03T09:52:10Z</time></trkpt><trkpt lat="38.11364353247461" lon="15.842859989361695"><ele>1416.0</ele><time>2026-05-03T09:52:11Z</time></trkpt><trkpt lat="38.1137366102485" lon="15.84289984147171"><ele>1416.0</ele><time>2026-05-03T09:52:12Z</time></trkpt><trkpt lat="38.113811163242445" lon="15.842951727843648"><ele>1416.0</ele><time>2026-05-03T09:52:13Z</time></trkpt><trkpt lat="38.11388587143132" lon="15.843001736967086"><ele>1416.0</ele><time>2026-05-03T09:52:14Z</time></trkpt><trkpt lat="38.114042227610696" lon="15.842847489813972"><ele>1413.1666666666667</ele><time>2026-05-03T09:52:16Z</time></trkpt><trkpt lat="38.11412834037645" lon="15.842849267158757"><ele>1410.3333333333333</ele><time>2026-05-03T09:52:17Z</time></trkpt><trkpt lat="38.114207091462454" lon="15.842860737587092"><ele>1407.5</ele><time>2026-05-03T09:52:18Z</time></trkpt><trkpt lat="38.11427381056219" lon="15.842861004018564"><ele>1404.6666666666665</ele><time>2026-05-03T09:52:19Z</time></trkpt><trkpt lat="38.114302002093375" lon="15.8429964240885"><ele>1401.8333333333333</ele><time>2026-05-03T09:52:20Z</time></trkpt><trkpt lat="38.11435629505351" lon="15.843087722586008"><ele>1399.0</ele><time>2026-05-03T09:52:21Z</time></trkpt><trkpt lat="38.11440311544706" lon="15.843210335025493"><ele>1399.0</ele><time>2026-05-03T09:52:22Z</time></trkpt><trkpt lat="38.1144729369047" lon="15.843304983835493"><ele>1399.0</ele><time>2026-05-03T09:52:23Z</time></trkpt><trkpt lat="38.11452405001972" lon="15.843385918101081"><ele>1399.0</ele><time>2026-05-03T09:52:24Z</time></trkpt><trkpt lat="38.11459764962909" lon="15.843444826999272"><ele>1399.0</ele><time>2026-05-03T09:52:26Z</time></trkpt><trkpt lat="38.114671131025794" lon="15.843514342400209"><ele>1399.0</ele><time>2026-05-03T09:52:28Z</time></trkpt><trkpt lat="38.114762288681156" lon="15.843489971958604"><ele>1399.0</ele><time>2026-05-03T09:52:30Z</time></trkpt><trkpt lat="38.11486143266887" lon="15.843383167393085"><ele>1399.0</ele><time>2026-05-03T09:52:31Z</time></trkpt><trkpt lat="38.11492029895536" lon="15.84331244607599"><ele>1399.0</ele><time>2026-05-03T09:52:32Z</time></trkpt><trkpt lat="38.11499459955761" lon="15.843257928456897"><ele>1399.0</ele><time>2026-05-03T09:52:33Z</time></trkpt><trkpt lat="38.11506631208507" lon="15.843188723621727"><ele>1399.0</ele><time>2026-05-03T09:52:34Z</time></trkpt><trkpt lat="38.115138362809326" lon="15.843114755365784"><ele>1396.2</ele><time>2026-05-03T09:52:35Z</time></trkpt><trkpt lat="38.11520945499109" lon="15.8430137254444"><ele>1393.4</ele><time>2026-05-03T09:52:36Z</time></trkpt><trkpt lat="38.11528144996166" lon="15.842933673286492"><ele>1390.6</ele><time>2026-05-03T09:52:37Z</time></trkpt><trkpt lat="38.115365006155336" lon="15.842876938568976"><ele>1387.8</ele><time>2026-05-03T09:52:38Z</time></trkpt><trkpt lat="38.115457473271015" lon="15.842850577582093"><ele>1385.0</ele><time>2026-05-03T09:52:39Z</time></trkpt><trkpt lat="38.115539530390485" lon="15.842841613914745"><ele>1385.0</ele><time>2026-05-03T09:52:40Z</time></trkpt><trkpt lat="38.11562146655937" lon="15.84286744896156"><ele>1385.0</ele><time>2026-05-03T09:52:41Z</time></trkpt><trkpt lat="38.11570719560823" lon="15.842910286120157"><ele>1385.0</ele><time>2026-05-03T09:52:42Z</time></trkpt><trkpt lat="38.115784623010875" lon="15.842989236554702"><ele>1385.0</ele><time>2026-05-03T09:52:43Z</time></trkpt><trkpt lat="38.11586137238307" lon="15.843070991952299"><ele>1385.0</ele><time>2026-05-03T09:52:44Z</time></trkpt><trkpt lat="38.11593537257263" lon="15.843139416243707"><ele>1387.25</ele><time>2026-05-03T09:52:45Z</time></trkpt><trkpt lat="38.11600965126043" lon="15.84319126148869"><ele>1389.5</ele><time>2026-05-03T09:52:46Z</time></trkpt><trkpt lat="38.11610036784016" lon="15.84322620508582"><ele>1391.75</ele><time>2026-05-03T09:52:47Z</time></trkpt><trkpt lat="38.11623577996217" lon="15.843220775740761"><ele>1394.0</ele><time>2026-05-03T09:52:48Z</time></trkpt><trkpt lat="38.11636862275444" lon="15.843169622566716"><ele>1394.0</ele><time>2026-05-03T09:52:49Z</time></trkpt><trkpt lat="38.11649436508349" lon="15.843147330091357"><ele>1394.0</ele><time>2026-05-03T09:52:50Z</time></trkpt><trkpt lat="38.116631005938046" lon="15.84312821590636"><ele>1394.0</ele><time>2026-05-03T09:52:51Z</time></trkpt><trkpt lat="38.1167561230497" lon="15.843112703311519"><ele>1394.0</ele><time>2026-05-03T09:52:52Z</time></trkpt><trkpt lat="38.11687117176505" lon="15.84314598526875"><ele>1389.5</ele><time>2026-05-03T09:52:54Z</time></trkpt><trkpt lat="38.116967736126355" lon="15.843198382347442"><ele>1385.0</ele><time>2026-05-03T09:52:55Z</time></trkpt><trkpt lat="38.11712613716863" lon="15.843282053133159"><ele>1380.5</ele><time>2026-05-03T09:52:56Z</time></trkpt><trkpt lat="38.11725521653832" lon="15.843364091622078"><ele>1376.0</ele><time>2026-05-03T09:52:57Z</time></trkpt><trkpt lat="38.11738267261313" lon="15.843435162282066"><ele>1375.3333333333335</ele><time>2026-05-03T09:52:58Z</time></trkpt><trkpt lat="38.11749181850278" lon="15.843506304777733"><ele>1374.6666666666667</ele><time>2026-05-03T09:52:59Z</time></trkpt><trkpt lat="38.11755364812767" lon="15.843484920256712"><ele>1374.0</ele><time>2026-05-03T09:53:00Z</time></trkpt><trkpt lat="38.11762013257596" lon="15.843479579978505"><ele>1373.3333333333333</ele><time>2026-05-03T09:53:01Z</time></trkpt><trkpt lat="38.11764667957374" lon="15.84338324193164"><ele>1372.6666666666665</ele><time>2026-05-03T09:53:03Z</time></trkpt><trkpt lat="38.11767357723266" lon="15.843306217283331"><ele>1372.0</ele><time>2026-05-03T09:53:04Z</time></trkpt><trkpt lat="38.11768080449449" lon="15.843182341745441"><ele>1372.0</ele><time>2026-05-03T09:53:05Z</time></trkpt><trkpt lat="38.11768021938368" lon="15.843070290299483"><ele>1372.0</ele><time>2026-05-03T09:53:06Z</time></trkpt><trkpt lat="38.117667157458385" lon="15.842942121486702"><ele>1372.0</ele><time>2026-05-03T09:53:07Z</time></trkpt><trkpt lat="38.11762990213422" lon="15.84281731238334"><ele>1372.0</ele><time>2026-05-03T09:53:08Z</time></trkpt><trkpt lat="38.11757814098377" lon="15.842692925761744"><ele>1372.0</ele><time>2026-05-03T09:53:09Z</time></trkpt><trkpt lat="38.117484098463216" lon="15.842596558540771"><ele>1372.3999999999999</ele><time>2026-05-03T09:53:10Z</time></trkpt><trkpt lat="38.11741261220737" lon="15.842495865876634"><ele>1372.8</ele><time>2026-05-03T09:53:11Z</time></trkpt><trkpt lat="38.117353136917735" lon="15.842405187039432"><ele>1373.2</ele><time>2026-05-03T09:53:12Z</time></trkpt><trkpt lat="38.11728615364854" lon="15.84231168121413"><ele>1373.6</ele><time>2026-05-03T09:53:13Z</time></trkpt><trkpt lat="38.11723275850634" lon="15.842210536587352"><ele>1374.0</ele><time>2026-05-03T09:53:14Z</time></trkpt><trkpt lat="38.117186133783065" lon="15.84208930880583"><ele>1375.75</ele><time>2026-05-03T09:53:15Z</time></trkpt><trkpt lat="38.117141101798744" lon="15.84194828861793"><ele>1377.5</ele><time>2026-05-03T09:53:16Z</time></trkpt><trkpt lat="38.1171007755832" lon="15.841815781775104"><ele>1379.25</ele><time>2026-05-03T09:53:17Z</time></trkpt><trkpt lat="38.117014268245036" lon="15.841693280390189"><ele>1381.0</ele><time>2026-05-03T09:53:18Z</time></trkpt><trkpt lat="38.116835731124326" lon="15.841714184136524"><ele>1381.0</ele><time>2026-05-03T09:53:19Z</time></trkpt><trkpt lat="38.116726399275066" lon="15.841652042610555"><ele>1381.0</ele><time>2026-05-03T09:53:20Z</time></trkpt><trkpt lat="38.11663160360284" lon="15.841579667078895"><ele>1381.0</ele><time>2026-05-03T09:53:21Z</time></trkpt><trkpt lat="38.1165198712136" lon="15.841510456214474"><ele>1381.0</ele><time>2026-05-03T09:53:22Z</time></trkpt><trkpt lat="38.11641736078879" lon="15.841457281641235"><ele>1374.75</ele><time>2026-05-03T09:53:23Z</time></trkpt><trkpt lat="38.116289278204235" lon="15.841435056360451"><ele>1368.5</ele><time>2026-05-03T09:53:24Z</time></trkpt><trkpt lat="38.11617454873602" lon="15.841357633937301"><ele>1362.25</ele><time>2026-05-03T09:53:25Z</time></trkpt><trkpt lat="38.116060854319976" lon="15.841270489435857"><ele>1356.0</ele><time>2026-05-03T09:53:26Z</time></trkpt><trkpt lat="38.115977849771085" lon="15.841177685456982"><ele>1356.0</ele><time>2026-05-03T09:53:27Z</time></trkpt><trkpt lat="38.11585547422386" lon="15.841098401137181"><ele>1356.0</ele><time>2026-05-03T09:53:28Z</time></trkpt><trkpt lat="38.11578846274375" lon="15.841007399794298"><ele>1356.0</ele><time>2026-05-03T09:53:29Z</time></trkpt><trkpt lat="38.11573918010898" lon="15.840911114600827"><ele>1356.0</ele><time>2026-05-03T09:53:30Z</time></trkpt><trkpt lat="38.115678840078395" lon="15.840799430618222"><ele>1356.0</ele><time>2026-05-03T09:53:31Z</time></trkpt><trkpt lat="38.11561737473099" lon="15.840644154176902"><ele>1352.75</ele><time>2026-05-03T09:53:32Z</time></trkpt><trkpt lat="38.11558304765441" lon="15.840459930708612"><ele>1349.5</ele><time>2026-05-03T09:53:33Z</time></trkpt><trkpt lat="38.11548557032893" lon="15.840312619583369"><ele>1346.25</ele><time>2026-05-03T09:53:34Z</time></trkpt><trkpt lat="38.11540280160842" lon="15.840173216631825"><ele>1343.0</ele><time>2026-05-03T09:53:35Z</time></trkpt><trkpt lat="38.11531312769325" lon="15.84003612833235"><ele>1349.75</ele><time>2026-05-03T09:53:36Z</time></trkpt><trkpt lat="38.11516595264176" lon="15.839897060795632"><ele>1356.5</ele><time>2026-05-03T09:53:37Z</time></trkpt><trkpt lat="38.11509467562138" lon="15.839753252957046"><ele>1363.25</ele><time>2026-05-03T09:53:38Z</time></trkpt><trkpt lat="38.1150256109807" lon="15.839617772000679"><ele>1370.0</ele><time>2026-05-03T09:53:39Z</time></trkpt><trkpt lat="38.1149863361581" lon="15.839476103464483"><ele>1370.0</ele><time>2026-05-03T09:53:40Z</time></trkpt><trkpt lat="38.11497027886565" lon="15.839369264906843"><ele>1370.0</ele><time>2026-05-03T09:53:41Z</time></trkpt><trkpt lat="38.11494602887324" lon="15.839266310542746"><ele>1370.0</ele><time>2026-05-03T09:53:42Z</time></trkpt><trkpt lat="38.11491190259881" lon="15.839149565608063"><ele>1370.0</ele><time>2026-05-03T09:53:43Z</time></trkpt><trkpt lat="38.11488915712336" lon="15.839008961147531"><ele>1370.0</ele><time>2026-05-03T09:53:44Z</time></trkpt><trkpt lat="38.11504563851928" lon="15.838878511348037"><ele>1373.75</ele><time>2026-05-03T09:53:45Z</time></trkpt><trkpt lat="38.11512601754813" lon="15.838798760235688"><ele>1377.5</ele><time>2026-05-03T09:53:46Z</time></trkpt><trkpt lat="38.115286523805395" lon="15.838746575554257"><ele>1381.25</ele><time>2026-05-03T09:53:47Z</time></trkpt><trkpt lat="38.11540149982661" lon="15.838653359935147"><ele>1385.0</ele><time>2026-05-03T09:53:48Z</time></trkpt><trkpt lat="38.115509676887946" lon="15.83853925863035"><ele>1388.25</ele><time>2026-05-03T09:53:49Z</time></trkpt><trkpt lat="38.11563165211522" lon="15.838434185408712"><ele>1391.5</ele><time>2026-05-03T09:53:50Z</time></trkpt><trkpt lat="38.11570320585604" lon="15.838265125765615"><ele>1394.75</ele><time>2026-05-03T09:53:51Z</time></trkpt><trkpt lat="38.11578745818417" lon="15.838128079862205"><ele>1398.0</ele><time>2026-05-03T09:53:52Z</time></trkpt><trkpt lat="38.115874385119355" lon="15.838000247069214"><ele>1398.0</ele><time>2026-05-03T09:53:53Z</time></trkpt><trkpt lat="38.11595659779672" lon="15.837876997661407"><ele>1398.0</ele><time>2026-05-03T09:53:54Z</time></trkpt><trkpt lat="38.11598074899371" lon="15.837781738044205"><ele>1398.0</ele><time>2026-05-03T09:53:55Z</time></trkpt><trkpt lat="38.11604760756646" lon="15.837685684799505"><ele>1398.0</ele><time>2026-05-03T09:53:56Z</time></trkpt><trkpt lat="38.116158437742584" lon="15.83768047200352"><ele>1398.0</ele><time>2026-05-03T09:53:57Z</time></trkpt><trkpt lat="38.11625253373208" lon="15.837620032765676"><ele>1393.75</ele><time>2026-05-03T09:53:58Z</time></trkpt><trkpt lat="38.11635394109589" lon="15.837561055639163"><ele>1389.5</ele><time>2026-05-03T09:53:59Z</time></trkpt><trkpt lat="38.116455680331406" lon="15.837505547691102"><ele>1385.25</ele><time>2026-05-03T09:54:00Z</time></trkpt><trkpt lat="38.11658037054673" lon="15.837466464175558"><ele>1381.0</ele><time>2026-05-03T09:54:01Z</time></trkpt><trkpt lat="38.11670371734382" lon="15.837448001652662"><ele>1381.0</ele><time>2026-05-03T09:54:02Z</time></trkpt><trkpt lat="38.116787209728024" lon="15.837424085482063"><ele>1381.0</ele><time>2026-05-03T09:54:03Z</time></trkpt><trkpt lat="38.11689300990916" lon="15.837537203895616"><ele>1381.0</ele><time>2026-05-03T09:54:04Z</time></trkpt><trkpt lat="38.11699620560245" lon="15.837477194051022"><ele>1381.0</ele><time>2026-05-03T09:54:05Z</time></trkpt><trkpt lat="38.117128226761906" lon="15.837405615020115"><ele>1381.0</ele><time>2026-05-03T09:54:06Z</time></trkpt><trkpt lat="38.1172028138196" lon="15.837264094092205"><ele>1381.0</ele><time>2026-05-03T09:54:07Z</time></trkpt><trkpt lat="38.11728342836438" lon="15.837176356241404"><ele>1381.0</ele><time>2026-05-03T09:54:08Z</time></trkpt><trkpt lat="38.11733067882639" lon="15.837041702209232"><ele>1381.0</ele><time>2026-05-03T09:54:09Z</time></trkpt><trkpt lat="38.11734888488185" lon="15.836868161049386"><ele>1381.5</ele><time>2026-05-03T09:54:10Z</time></trkpt><trkpt lat="38.117385184800696" lon="15.83673823929073"><ele>1382.0</ele><time>2026-05-03T09:54:11Z</time></trkpt><trkpt lat="38.11743704739349" lon="15.83664668852575"><ele>1382.5</ele><time>2026-05-03T09:54:12Z</time></trkpt><trkpt lat="38.117554885543626" lon="15.836580515300097"><ele>1383.0</ele><time>2026-05-03T09:54:13Z</time></trkpt><trkpt lat="38.117668679644545" lon="15.836464022459596"><ele>1383.0</ele><time>2026-05-03T09:54:14Z</time></trkpt><trkpt lat="38.11780712198132" lon="15.836368200954356"><ele>1383.0</ele><time>2026-05-03T09:54:15Z</time></trkpt><trkpt lat="38.117972380910466" lon="15.83627786889988"><ele>1383.0</ele><time>2026-05-03T09:54:16Z</time></trkpt><trkpt lat="38.118119219161066" lon="15.83616434610921"><ele>1381.3333333333333</ele><time>2026-05-03T09:54:17Z</time></trkpt><trkpt lat="38.11826916240623" lon="15.836055025646788"><ele>1379.6666666666665</ele><time>2026-05-03T09:54:18Z</time></trkpt><trkpt lat="38.11843697581035" lon="15.835973298088083"><ele>1378.0</ele><time>2026-05-03T09:54:19Z</time></trkpt><trkpt lat="38.11858540145968" lon="15.835866781126446"><ele>1378.0</ele><time>2026-05-03T09:54:20Z</time></trkpt><trkpt lat="38.118707126583196" lon="15.835762196172382"><ele>1378.0</ele><time>2026-05-03T09:54:21Z</time></trkpt><trkpt lat="38.11882621378744" lon="15.835647317933823"><ele>1378.0</ele><time>2026-05-03T09:54:22Z</time></trkpt><trkpt lat="38.118842968386026" lon="15.835412801034908"><ele>1378.0</ele><time>2026-05-03T09:54:23Z</time></trkpt><trkpt lat="38.11890768411669" lon="15.835267393980653"><ele>1378.0</ele><time>2026-05-03T09:54:24Z</time></trkpt><trkpt lat="38.11896542465507" lon="15.835156182939597"><ele>1378.0</ele><time>2026-05-03T09:54:25Z</time></trkpt><trkpt lat="38.11903589170848" lon="15.835056340812715"><ele>1378.0</ele><time>2026-05-03T09:54:26Z</time></trkpt><trkpt lat="38.11913427710643" lon="15.834971112849418"><ele>1379.0</ele><time>2026-05-03T09:54:27Z</time></trkpt><trkpt lat="38.11924257018882" lon="15.834953652927782"><ele>1380.0</ele><time>2026-05-03T09:54:28Z</time></trkpt><trkpt lat="38.119404933657826" lon="15.83496464232503"><ele>1381.0</ele><time>2026-05-03T09:54:29Z</time></trkpt><trkpt lat="38.11951282936749" lon="15.834919269560732"><ele>1382.0</ele><time>2026-05-03T09:54:30Z</time></trkpt><trkpt lat="38.11959244895642" lon="15.834925506701149"><ele>1382.0</ele><time>2026-05-03T09:54:31Z</time></trkpt><trkpt lat="38.11964205272379" lon="15.835011821842231"><ele>1382.0</ele><time>2026-05-03T09:54:32Z</time></trkpt><trkpt lat="38.11963647760099" lon="15.835143220973547"><ele>1382.0</ele><time>2026-05-03T09:54:33Z</time></trkpt><trkpt lat="38.11964915554837" lon="15.835222056562442"><ele>1382.0</ele><time>2026-05-03T09:54:34Z</time></trkpt><trkpt lat="38.11960967858055" lon="15.835327842205638"><ele>1382.0</ele><time>2026-05-03T09:54:35Z</time></trkpt><trkpt lat="38.11956731360052" lon="15.835438718268305"><ele>1382.0</ele><time>2026-05-03T09:54:36Z</time></trkpt><trkpt lat="38.11958085754904" lon="15.835582828575227"><ele>1387.75</ele><time>2026-05-03T09:54:37Z</time></trkpt><trkpt lat="38.1196049364095" lon="15.835721254867886"><ele>1393.5</ele><time>2026-05-03T09:54:38Z</time></trkpt><trkpt lat="38.119636529567615" lon="15.83585212010392"><ele>1399.25</ele><time>2026-05-03T09:54:39Z</time></trkpt><trkpt lat="38.11969896415113" lon="15.835971757055862"><ele>1405.0</ele><time>2026-05-03T09:54:40Z</time></trkpt><trkpt lat="38.11987946325133" lon="15.835973566255717"><ele>1405.25</ele><time>2026-05-03T09:54:41Z</time></trkpt><trkpt lat="38.119993317973154" lon="15.835999455511091"><ele>1405.5</ele><time>2026-05-03T09:54:42Z</time></trkpt><trkpt lat="38.12012370856343" lon="15.835998466206851"><ele>1405.75</ele><time>2026-05-03T09:54:43Z</time></trkpt><trkpt lat="38.12024922055135" lon="15.83596273111025"><ele>1406.0</ele><time>2026-05-03T09:54:44Z</time></trkpt><trkpt lat="38.12037027160283" lon="15.835954701148633"><ele>1414.0</ele><time>2026-05-03T09:54:45Z</time></trkpt><trkpt lat="38.12048777843787" lon="15.835977585733962"><ele>1422.0</ele><time>2026-05-03T09:54:46Z</time></trkpt><trkpt lat="38.12061509403604" lon="15.836010817772527"><ele>1430.0</ele><time>2026-05-03T09:54:47Z</time></trkpt><trkpt lat="38.12073786022631" lon="15.836032428024492"><ele>1438.0</ele><time>2026-05-03T09:54:48Z</time></trkpt><trkpt lat="38.12085415158442" lon="15.836028289944226"><ele>1440.0</ele><time>2026-05-03T09:54:49Z</time></trkpt><trkpt lat="38.12095639791357" lon="15.836008837382487"><ele>1442.0</ele><time>2026-05-03T09:54:50Z</time></trkpt><trkpt lat="38.12099567235881" lon="15.835856794895172"><ele>1444.0</ele><time>2026-05-03T09:54:51Z</time></trkpt><trkpt lat="38.12102599456779" lon="15.83571478744917"><ele>1446.0</ele><time>2026-05-03T09:54:52Z</time></trkpt><trkpt lat="38.12103433834158" lon="15.835558062307712"><ele>1436.25</ele><time>2026-05-03T09:54:53Z</time></trkpt><trkpt lat="38.12104524139909" lon="15.835387122235854"><ele>1426.5</ele><time>2026-05-03T09:54:54Z</time></trkpt><trkpt lat="38.12106236233555" lon="15.83522031331645"><ele>1416.75</ele><time>2026-05-03T09:54:55Z</time></trkpt><trkpt lat="38.121089874259255" lon="15.835063546283731"><ele>1407.0</ele><time>2026-05-03T09:54:56Z</time></trkpt><trkpt lat="38.121126862033506" lon="15.834917783427557"><ele>1403.25</ele><time>2026-05-03T09:54:57Z</time></trkpt><trkpt lat="38.12116542737662" lon="15.834769914201193"><ele>1399.5</ele><time>2026-05-03T09:54:58Z</time></trkpt><trkpt lat="38.12127315760199" lon="15.834649955706016"><ele>1395.75</ele><time>2026-05-03T09:54:59Z</time></trkpt><trkpt lat="38.12134554719147" lon="15.834504389155985"><ele>1392.0</ele><time>2026-05-03T09:55:00Z</time></trkpt><trkpt lat="38.12140003037571" lon="15.834343412538814"><ele>1389.75</ele><time>2026-05-03T09:55:01Z</time></trkpt><trkpt lat="38.1214448831339" lon="15.834181053155874"><ele>1387.5</ele><time>2026-05-03T09:55:02Z</time></trkpt><trkpt lat="38.12147628828215" lon="15.83402262764421"><ele>1385.25</ele><time>2026-05-03T09:55:03Z</time></trkpt><trkpt lat="38.12150273230002" lon="15.83387869836807"><ele>1383.0</ele><time>2026-05-03T09:55:04Z</time></trkpt><trkpt lat="38.12153832013376" lon="15.83373681869756"><ele>1386.75</ele><time>2026-05-03T09:55:05Z</time></trkpt><trkpt lat="38.12157647264937" lon="15.833598874376563"><ele>1390.5</ele><time>2026-05-03T09:55:06Z</time></trkpt><trkpt lat="38.12160089621334" lon="15.833447665067439"><ele>1394.25</ele><time>2026-05-03T09:55:07Z</time></trkpt><trkpt lat="38.12155278747545" lon="15.83326736908179"><ele>1398.0</ele><time>2026-05-03T09:55:08Z</time></trkpt><trkpt lat="38.12150967418634" lon="15.833169307396838"><ele>1398.0</ele><time>2026-05-03T09:55:09Z</time></trkpt><trkpt lat="38.12153253143202" lon="15.833048172795852"><ele>1398.0</ele><time>2026-05-03T09:55:10Z</time></trkpt><trkpt lat="38.12137428993012" lon="15.833044553791822"><ele>1398.0</ele><time>2026-05-03T09:55:11Z</time></trkpt><trkpt lat="38.12148310873202" lon="15.833032191524328"><ele>1398.0</ele><time>2026-05-03T09:55:12Z</time></trkpt><trkpt lat="38.121562827486315" lon="15.83300170495325"><ele>1398.0</ele><time>2026-05-03T09:55:13Z</time></trkpt><trkpt lat="38.121684424427194" lon="15.832999840363712"><ele>1403.0</ele><time>2026-05-03T09:55:14Z</time></trkpt><trkpt lat="38.12179951919791" lon="15.832987350559486"><ele>1408.0</ele><time>2026-05-03T09:55:15Z</time></trkpt><trkpt lat="38.12193442557679" lon="15.83301416515478"><ele>1413.0</ele><time>2026-05-03T09:55:16Z</time></trkpt><trkpt lat="38.12207092793778" lon="15.833028336746278"><ele>1418.0</ele><time>2026-05-03T09:55:17Z</time></trkpt><trkpt lat="38.122220568540165" lon="15.833052698089253"><ele>1418.0</ele><time>2026-05-03T09:55:18Z</time></trkpt><trkpt lat="38.122365134303784" lon="15.833088132671687"><ele>1418.0</ele><time>2026-05-03T09:55:19Z</time></trkpt><trkpt lat="38.122501363276385" lon="15.833110435712385"><ele>1418.0</ele><time>2026-05-03T09:55:20Z</time></trkpt><trkpt lat="38.12259796241595" lon="15.833178260420977"><ele>1418.0</ele><time>2026-05-03T09:55:21Z</time></trkpt><trkpt lat="38.12270092665076" lon="15.833244770097853"><ele>1417.5</ele><time>2026-05-03T09:55:22Z</time></trkpt><trkpt lat="38.12274949587354" lon="15.8333771566975"><ele>1417.0</ele><time>2026-05-03T09:55:23Z</time></trkpt><trkpt lat="38.122720681273606" lon="15.833592554474869"><ele>1416.5</ele><time>2026-05-03T09:55:24Z</time></trkpt><trkpt lat="38.12278432450644" lon="15.833733162943869"><ele>1416.0</ele><time>2026-05-03T09:55:25Z</time></trkpt><trkpt lat="38.12282849054802" lon="15.833871309977711"><ele>1415.1999999999998</ele><time>2026-05-03T09:55:26Z</time></trkpt><trkpt lat="38.122868822972144" lon="15.833978284465763"><ele>1414.3999999999999</ele><time>2026-05-03T09:55:27Z</time></trkpt><trkpt lat="38.12293083141636" lon="15.83408421207064"><ele>1413.6</ele><time>2026-05-03T09:55:28Z</time></trkpt><trkpt lat="38.12299699146799" lon="15.834163857456069"><ele>1412.8</ele><time>2026-05-03T09:55:29Z</time></trkpt><trkpt lat="38.123120118124326" lon="15.834165094933258"><ele>1412.0</ele><time>2026-05-03T09:55:30Z</time></trkpt><trkpt lat="38.1232457529251" lon="15.834164171330928"><ele>1412.0</ele><time>2026-05-03T09:55:31Z</time></trkpt><trkpt lat="38.1233234941276" lon="15.834129870055397"><ele>1412.0</ele><time>2026-05-03T09:55:32Z</time></trkpt><trkpt lat="38.12340178966573" lon="15.834134362410907"><ele>1412.0</ele><time>2026-05-03T09:55:33Z</time></trkpt><trkpt lat="38.12350866056683" lon="15.834104971229092"><ele>1412.0</ele><time>2026-05-03T09:55:34Z</time></trkpt><trkpt lat="38.12358625814107" lon="15.834144652917448"><ele>1412.0</ele><time>2026-05-03T09:55:35Z</time></trkpt><trkpt lat="38.12367525156813" lon="15.834253723564192"><ele>1417.5</ele><time>2026-05-03T09:55:36Z</time></trkpt><trkpt lat="38.12376685943862" lon="15.83435005421467"><ele>1423.0</ele><time>2026-05-03T09:55:37Z</time></trkpt><trkpt lat="38.12386210246408" lon="15.834460714847229"><ele>1428.5</ele><time>2026-05-03T09:55:38Z</time></trkpt><trkpt lat="38.123944433289836" lon="15.834609842233144"><ele>1434.0</ele><time>2026-05-03T09:55:39Z</time></trkpt><trkpt lat="38.12402520284593" lon="15.834740343707956"><ele>1430.0</ele><time>2026-05-03T09:55:40Z</time></trkpt><trkpt lat="38.12409912764095" lon="15.834854031533059"><ele>1426.0</ele><time>2026-05-03T09:55:41Z</time></trkpt><trkpt lat="38.124162787082426" lon="15.834934260455777"><ele>1422.0</ele><time>2026-05-03T09:55:42Z</time></trkpt><trkpt lat="38.124228570574836" lon="15.834986844444414"><ele>1418.0</ele><time>2026-05-03T09:55:43Z</time></trkpt><trkpt lat="38.12430717314903" lon="15.834964804552019"><ele>1414.0</ele><time>2026-05-03T09:55:44Z</time></trkpt><trkpt lat="38.124381574932535" lon="15.834926572155645"><ele>1410.0</ele><time>2026-05-03T09:55:45Z</time></trkpt><trkpt lat="38.12444579871868" lon="15.834841721366011"><ele>1410.0</ele><time>2026-05-03T09:55:46Z</time></trkpt><trkpt lat="38.12449544138381" lon="15.8347235540177"><ele>1410.0</ele><time>2026-05-03T09:55:47Z</time></trkpt><trkpt lat="38.12453542074565" lon="15.834580370334224"><ele>1410.0</ele><time>2026-05-03T09:55:48Z</time></trkpt><trkpt lat="38.12458597583243" lon="15.834443042661466"><ele>1410.0</ele><time>2026-05-03T09:55:49Z</time></trkpt><trkpt lat="38.12463624650217" lon="15.834301566122091"><ele>1407.2</ele><time>2026-05-03T09:55:50Z</time></trkpt><trkpt lat="38.12470414385486" lon="15.834187393855686"><ele>1404.4</ele><time>2026-05-03T09:55:51Z</time></trkpt><trkpt lat="38.12477756135904" lon="15.834107505826871"><ele>1401.6</ele><time>2026-05-03T09:55:52Z</time></trkpt><trkpt lat="38.12486212127803" lon="15.83406390223637"><ele>1398.8</ele><time>2026-05-03T09:55:53Z</time></trkpt><trkpt lat="38.124940801625954" lon="15.834015618194929"><ele>1396.0</ele><time>2026-05-03T09:55:54Z</time></trkpt><trkpt lat="38.12503807821458" lon="15.833989345701534"><ele>1396.0</ele><time>2026-05-03T09:55:55Z</time></trkpt><trkpt lat="38.12516665379801" lon="15.834004238928541"><ele>1396.0</ele><time>2026-05-03T09:55:56Z</time></trkpt><trkpt lat="38.125329708154666" lon="15.834063950266419"><ele>1396.0</ele><time>2026-05-03T09:55:57Z</time></trkpt><trkpt lat="38.12545068539597" lon="15.834131088551324"><ele>1396.0</ele><time>2026-05-03T09:55:58Z</time></trkpt><trkpt lat="38.12560832080053" lon="15.834190051040117"><ele>1396.0</ele><time>2026-05-03T09:55:59Z</time></trkpt><trkpt lat="38.12572357371069" lon="15.834243737538692"><ele>1396.0</ele><time>2026-05-03T09:56:00Z</time></trkpt><trkpt lat="38.12584119632731" lon="15.834307269890276"><ele>1396.0</ele><time>2026-05-03T09:56:01Z</time></trkpt><trkpt lat="38.12592167540066" lon="15.834417362987754"><ele>1396.0</ele><time>2026-05-03T09:56:02Z</time></trkpt><trkpt lat="38.126008623598274" lon="15.834497842869242"><ele>1398.5</ele><time>2026-05-03T09:56:03Z</time></trkpt><trkpt lat="38.126064464631554" lon="15.834621873051567"><ele>1401.0</ele><time>2026-05-03T09:56:04Z</time></trkpt><trkpt lat="38.12608752358081" lon="15.834799421670148"><ele>1403.5</ele><time>2026-05-03T09:56:05Z</time></trkpt><trkpt lat="38.12610818791846" lon="15.834985276263115"><ele>1406.0</ele><time>2026-05-03T09:56:06Z</time></trkpt><trkpt lat="38.126144501733584" lon="15.835118200942356"><ele>1406.0</ele><time>2026-05-03T09:56:07Z</time></trkpt><trkpt lat="38.12622067248484" lon="15.8352344989146"><ele>1406.0</ele><time>2026-05-03T09:56:08Z</time></trkpt><trkpt lat="38.12632250320379" lon="15.83536238584607"><ele>1406.0</ele><time>2026-05-03T09:56:09Z</time></trkpt><trkpt lat="38.126449772257395" lon="15.835473656039817"><ele>1406.0</ele><time>2026-05-03T09:56:10Z</time></trkpt><trkpt lat="38.126592851953774" lon="15.83557230496757"><ele>1406.0</ele><time>2026-05-03T09:56:11Z</time></trkpt><trkpt lat="38.1267328047152" lon="15.835646837716451"><ele>1406.0</ele><time>2026-05-03T09:56:12Z</time></trkpt><trkpt lat="38.12685376580109" lon="15.835764921421339"><ele>1406.0</ele><time>2026-05-03T09:56:13Z</time></trkpt><trkpt lat="38.1270301149046" lon="15.835814368182449"><ele>1406.0</ele><time>2026-05-03T09:56:14Z</time></trkpt><trkpt lat="38.12720859242826" lon="15.83590334176643"><ele>1406.0</ele><time>2026-05-03T09:56:15Z</time></trkpt><trkpt lat="38.12735655510052" lon="15.835958395586594"><ele>1406.0</ele><time>2026-05-03T09:56:16Z</time></trkpt><trkpt lat="38.12748654286285" lon="15.836024862984377"><ele>1406.25</ele><time>2026-05-03T09:56:17Z</time></trkpt><trkpt lat="38.12760180455814" lon="15.83609373797296"><ele>1406.5</ele><time>2026-05-03T09:56:18Z</time></trkpt><trkpt lat="38.12771671412056" lon="15.836144734023131"><ele>1406.75</ele><time>2026-05-03T09:56:19Z</time></trkpt><trkpt lat="38.12784437636842" lon="15.83619992725935"><ele>1407.0</ele><time>2026-05-03T09:56:20Z</time></trkpt><trkpt lat="38.12796762565287" lon="15.836240553630082"><ele>1407.0</ele><time>2026-05-03T09:56:21Z</time></trkpt><trkpt lat="38.12809365229377" lon="15.83626066852262"><ele>1407.0</ele><time>2026-05-03T09:56:22Z</time></trkpt><trkpt lat="38.12823656892483" lon="15.836220898060093"><ele>1407.0</ele><time>2026-05-03T09:56:23Z</time></trkpt><trkpt lat="38.12836529165195" lon="15.836203403085769"><ele>1407.0</ele><time>2026-05-03T09:56:24Z</time></trkpt><trkpt lat="38.12846449439629" lon="15.836181319057689"><ele>1403.1999999999998</ele><time>2026-05-03T09:56:25Z</time></trkpt><trkpt lat="38.128533109729034" lon="15.836205776432077"><ele>1399.4</ele><time>2026-05-03T09:56:26Z</time></trkpt><trkpt lat="38.128621986415226" lon="15.83623449217882"><ele>1395.6</ele><time>2026-05-03T09:56:27Z</time></trkpt><trkpt lat="38.128729872031904" lon="15.836284664140019"><ele>1391.8000000000002</ele><time>2026-05-03T09:56:28Z</time></trkpt><trkpt lat="38.12883527675855" lon="15.836343214010084"><ele>1388.0</ele><time>2026-05-03T09:56:29Z</time></trkpt><trkpt lat="38.12895075190938" lon="15.836410265745652"><ele>1388.0</ele><time>2026-05-03T09:56:30Z</time></trkpt><trkpt lat="38.129073556814596" lon="15.836485380296352"><ele>1388.0</ele><time>2026-05-03T09:56:31Z</time></trkpt><trkpt lat="38.12879509871196" lon="15.836786158577958"><ele>1392.5</ele><time>2026-05-03T09:56:32Z</time></trkpt><trkpt lat="38.12879526471836" lon="15.83694798020321"><ele>1397.0</ele><time>2026-05-03T09:56:33Z</time></trkpt><trkpt lat="38.12886567282876" lon="15.837089240102221"><ele>1401.5</ele><time>2026-05-03T09:56:34Z</time></trkpt><trkpt lat="38.12883518237001" lon="15.837233977115504"><ele>1406.0</ele><time>2026-05-03T09:56:35Z</time></trkpt><trkpt lat="38.12887638978124" lon="15.837370297195733"><ele>1406.0</ele><time>2026-05-03T09:56:36Z</time></trkpt><trkpt lat="38.12894578988284" lon="15.83750179564582"><ele>1406.0</ele><time>2026-05-03T09:56:37Z</time></trkpt><trkpt lat="38.12900458607365" lon="15.837646994458014"><ele>1406.0</ele><time>2026-05-03T09:56:38Z</time></trkpt><trkpt lat="38.129068935457106" lon="15.837732438783021"><ele>1406.0</ele><time>2026-05-03T09:56:39Z</time></trkpt><trkpt lat="38.12919837280387" lon="15.837820949619308"><ele>1401.0</ele><time>2026-05-03T09:56:40Z</time></trkpt><trkpt lat="38.129335193087904" lon="15.837919838062295"><ele>1396.0</ele><time>2026-05-03T09:56:41Z</time></trkpt><trkpt lat="38.12949118477765" lon="15.838022745356353"><ele>1391.0</ele><time>2026-05-03T09:56:42Z</time></trkpt><trkpt lat="38.12964804071519" lon="15.83810020552941"><ele>1391.0</ele><time>2026-05-03T09:56:43Z</time></trkpt><trkpt lat="38.12979731438664" lon="15.83805972512032"><ele>1391.0</ele><time>2026-05-03T09:56:44Z</time></trkpt><trkpt lat="38.12993381871913" lon="15.83806087943532"><ele>1391.0</ele><time>2026-05-03T09:56:45Z</time></trkpt><trkpt lat="38.13007652765057" lon="15.838043835816796"><ele>1391.0</ele><time>2026-05-03T09:56:46Z</time></trkpt><trkpt lat="38.13017387403574" lon="15.83794705433647"><ele>1393.0</ele><time>2026-05-03T09:56:47Z</time></trkpt><trkpt lat="38.13046226807008" lon="15.837667829572913"><ele>1395.0</ele><time>2026-05-03T09:56:48Z</time></trkpt><trkpt lat="38.130626414640005" lon="15.83763927486605"><ele>1385.5</ele><time>2026-05-03T09:56:49Z</time></trkpt><trkpt lat="38.130825985306295" lon="15.837587403520603"><ele>1376.0</ele><time>2026-05-03T09:56:50Z</time></trkpt><trkpt lat="38.130269299784906" lon="15.836011138412143"><ele>1372.6666666666667</ele><time>2026-05-03T09:56:51Z</time></trkpt><trkpt lat="38.13036151092656" lon="15.835817811609592"><ele>1369.3333333333333</ele><time>2026-05-03T09:56:52Z</time></trkpt><trkpt lat="38.130464129367084" lon="15.835636144730122"><ele>1366.0</ele><time>2026-05-03T09:56:53Z</time></trkpt><trkpt lat="38.13055308063204" lon="15.835566656396841"><ele>1366.0</ele><time>2026-05-03T09:56:54Z</time></trkpt><trkpt lat="38.13062336314991" lon="15.835489548204714"><ele>1366.0</ele><time>2026-05-03T09:56:55Z</time></trkpt><trkpt lat="38.1306936265354" lon="15.835435317858957"><ele>1366.0</ele><time>2026-05-03T09:56:56Z</time></trkpt><trkpt lat="38.13079176439707" lon="15.835460864418277"><ele>1366.0</ele><time>2026-05-03T09:56:57Z</time></trkpt><trkpt lat="38.13089425905759" lon="15.835543180603581"><ele>1366.0</ele><time>2026-05-03T09:56:58Z</time></trkpt><trkpt lat="38.13097705720443" lon="15.835621635527353"><ele>1369.5</ele><time>2026-05-03T09:56:59Z</time></trkpt><trkpt lat="38.131070074037574" lon="15.835732836077502"><ele>1373.0</ele><time>2026-05-03T09:57:00Z</time></trkpt><trkpt lat="38.13115764461979" lon="15.835834826440227"><ele>1376.5</ele><time>2026-05-03T09:57:01Z</time></trkpt><trkpt lat="38.13124847127947" lon="15.835927261792866"><ele>1380.0</ele><time>2026-05-03T09:57:02Z</time></trkpt><trkpt lat="38.1313358242469" lon="15.836029474026535"><ele>1384.4</ele><time>2026-05-03T09:57:03Z</time></trkpt><trkpt lat="38.13143696820844" lon="15.836108960601667"><ele>1388.8</ele><time>2026-05-03T09:57:04Z</time></trkpt><trkpt lat="38.13153040373894" lon="15.83616008873502"><ele>1393.1999999999998</ele><time>2026-05-03T09:57:05Z</time></trkpt><trkpt lat="38.131609173212176" lon="15.83615388002336"><ele>1397.6</ele><time>2026-05-03T09:57:06Z</time></trkpt><trkpt lat="38.13169723583627" lon="15.836091102034903"><ele>1402.0</ele><time>2026-05-03T09:57:07Z</time></trkpt><trkpt lat="38.13177534557325" lon="15.835982280863467"><ele>1397.0</ele><time>2026-05-03T09:57:08Z</time></trkpt><trkpt lat="38.13178931985845" lon="15.835835616605587"><ele>1392.0</ele><time>2026-05-03T09:57:09Z</time></trkpt><trkpt lat="38.131841115670895" lon="15.835713479053565"><ele>1387.0</ele><time>2026-05-03T09:57:10Z</time></trkpt><trkpt lat="38.131908781811916" lon="15.835561718334851"><ele>1382.0</ele><time>2026-05-03T09:57:11Z</time></trkpt><trkpt lat="38.13196279039858" lon="15.83544768458009"><ele>1382.0</ele><time>2026-05-03T09:57:12Z</time></trkpt><trkpt lat="38.132023704760506" lon="15.83535953174553"><ele>1382.0</ele><time>2026-05-03T09:57:13Z</time></trkpt><trkpt lat="38.13215825686408" lon="15.835336171083451"><ele>1382.0</ele><time>2026-05-03T09:57:14Z</time></trkpt><trkpt lat="38.13227620694368" lon="15.835449766628917"><ele>1382.0</ele><time>2026-05-03T09:57:15Z</time></trkpt><trkpt lat="38.13239336601373" lon="15.83545667352549"><ele>1382.75</ele><time>2026-05-03T09:57:16Z</time></trkpt><trkpt lat="38.13254353565627" lon="15.8354494833738"><ele>1383.5</ele><time>2026-05-03T09:57:17Z</time></trkpt><trkpt lat="38.13266463363269" lon="15.835464563277485"><ele>1384.25</ele><time>2026-05-03T09:57:18Z</time></trkpt><trkpt lat="38.1327652717916" lon="15.835521091452744"><ele>1385.0</ele><time>2026-05-03T09:57:19Z</time></trkpt><trkpt lat="38.13283558598856" lon="15.835582609547572"><ele>1385.0</ele><time>2026-05-03T09:57:20Z</time></trkpt><trkpt lat="38.132920546047295" lon="15.83562818357412"><ele>1385.0</ele><time>2026-05-03T09:57:21Z</time></trkpt><trkpt lat="38.13299490774211" lon="15.835721727868181"><ele>1385.0</ele><time>2026-05-03T09:57:22Z</time></trkpt><trkpt lat="38.13301032815912" lon="15.835994453663426"><ele>1385.0</ele><time>2026-05-03T09:57:23Z</time></trkpt><trkpt lat="38.133023461004306" lon="15.836146929599895"><ele>1389.5</ele><time>2026-05-03T09:57:24Z</time></trkpt><trkpt lat="38.13301026743233" lon="15.83630665010567"><ele>1394.0</ele><time>2026-05-03T09:57:25Z</time></trkpt><trkpt lat="38.1330473995263" lon="15.836449798658196"><ele>1398.5</ele><time>2026-05-03T09:57:26Z</time></trkpt><trkpt lat="38.13308833758318" lon="15.836603135555501"><ele>1403.0</ele><time>2026-05-03T09:57:27Z</time></trkpt><trkpt lat="38.133144720443724" lon="15.836756834763891"><ele>1406.5</ele><time>2026-05-03T09:57:28Z</time></trkpt><trkpt lat="38.13318468680966" lon="15.836893329699691"><ele>1410.0</ele><time>2026-05-03T09:57:29Z</time></trkpt><trkpt lat="38.13323511470357" lon="15.837055335444457"><ele>1413.5</ele><time>2026-05-03T09:57:30Z</time></trkpt><trkpt lat="38.13323496682629" lon="15.83721483650025"><ele>1417.0</ele><time>2026-05-03T09:57:31Z</time></trkpt><trkpt lat="38.13323605772943" lon="15.837340190571583"><ele>1413.6666666666665</ele><time>2026-05-03T09:57:32Z</time></trkpt><trkpt lat="38.133265024089795" lon="15.83743141531076"><ele>1410.3333333333333</ele><time>2026-05-03T09:57:33Z</time></trkpt><trkpt lat="38.13326854914912" lon="15.837548559925837"><ele>1407.0</ele><time>2026-05-03T09:57:34Z</time></trkpt><trkpt lat="38.13331070217244" lon="15.83764687608542"><ele>1403.6666666666667</ele><time>2026-05-03T09:57:35Z</time></trkpt><trkpt lat="38.13335089689347" lon="15.83775696508284"><ele>1400.3333333333335</ele><time>2026-05-03T09:57:36Z</time></trkpt><trkpt lat="38.13340541178693" lon="15.8378190376371"><ele>1397.0</ele><time>2026-05-03T09:57:37Z</time></trkpt><trkpt lat="38.133633905292854" lon="15.837751126149833"><ele>1397.0</ele><time>2026-05-03T09:57:38Z</time></trkpt><trkpt lat="38.13371380200224" lon="15.837651655296984"><ele>1397.0</ele><time>2026-05-03T09:57:39Z</time></trkpt><trkpt lat="38.133776551662976" lon="15.837638224392483"><ele>1397.0</ele><time>2026-05-03T09:57:40Z</time></trkpt><trkpt lat="38.13386534664016" lon="15.83761811187897"><ele>1397.0</ele><time>2026-05-03T09:57:41Z</time></trkpt><trkpt lat="38.13396584915439" lon="15.837582437182883"><ele>1397.0</ele><time>2026-05-03T09:57:42Z</time></trkpt><trkpt lat="38.13407831743328" lon="15.837517790722051"><ele>1396.0</ele><time>2026-05-03T09:57:43Z</time></trkpt><trkpt lat="38.13419043236025" lon="15.837439376989678"><ele>1395.0</ele><time>2026-05-03T09:57:44Z</time></trkpt><trkpt lat="38.13428295370192" lon="15.83736910382185"><ele>1394.0</ele><time>2026-05-03T09:57:45Z</time></trkpt><trkpt lat="38.1344071456499" lon="15.837294713524654"><ele>1393.0</ele><time>2026-05-03T09:57:46Z</time></trkpt><trkpt lat="38.134617615456605" lon="15.837170779597402"><ele>1393.0</ele><time>2026-05-03T09:57:47Z</time></trkpt><trkpt lat="38.13478113100547" lon="15.837087683890447"><ele>1393.0</ele><time>2026-05-03T09:57:48Z</time></trkpt><trkpt lat="38.13496018475486" lon="15.83700270980561"><ele>1393.0</ele><time>2026-05-03T09:57:49Z</time></trkpt><trkpt lat="38.13510804088304" lon="15.836930597816469"><ele>1394.6666666666665</ele><time>2026-05-03T09:57:50Z</time></trkpt><trkpt lat="38.13523613199455" lon="15.836874627880885"><ele>1396.3333333333333</ele><time>2026-05-03T09:57:51Z</time></trkpt><trkpt lat="38.13535858692102" lon="15.836824081090302"><ele>1398.0</ele><time>2026-05-03T09:57:52Z</time></trkpt><trkpt lat="38.13537181706873" lon="15.83653689300145"><ele>1398.0</ele><time>2026-05-03T09:57:53Z</time></trkpt><trkpt lat="38.13543126295175" lon="15.836364209524262"><ele>1398.0</ele><time>2026-05-03T09:57:54Z</time></trkpt><trkpt lat="38.135573185167125" lon="15.83630762736334"><ele>1398.0</ele><time>2026-05-03T09:57:55Z</time></trkpt><trkpt lat="38.13571752463182" lon="15.83625061798666"><ele>1398.0</ele><time>2026-05-03T09:57:56Z</time></trkpt><trkpt lat="38.13585008411662" lon="15.836165542953223"><ele>1394.25</ele><time>2026-05-03T09:57:57Z</time></trkpt><trkpt lat="38.13596458139338" lon="15.836076015212084"><ele>1390.5</ele><time>2026-05-03T09:57:58Z</time></trkpt><trkpt lat="38.1361421389016" lon="15.836027472165098"><ele>1386.75</ele><time>2026-05-03T09:57:59Z</time></trkpt><trkpt lat="38.136209937304535" lon="15.83600823651062"><ele>1383.0</ele><time>2026-05-03T09:58:00Z</time></trkpt><trkpt lat="38.136332700150376" lon="15.836107900382466"><ele>1383.0</ele><time>2026-05-03T09:58:01Z</time></trkpt><trkpt lat="38.136449521928945" lon="15.836127864769525"><ele>1383.0</ele><time>2026-05-03T09:58:02Z</time></trkpt><trkpt lat="38.13637807985784" lon="15.836784810199472"><ele>1383.0</ele><time>2026-05-03T09:58:06Z</time></trkpt><trkpt lat="38.13648335908724" lon="15.836812944721169"><ele>1383.0</ele><time>2026-05-03T09:58:07Z</time></trkpt><trkpt lat="38.13654735159525" lon="15.836648574820007"><ele>1383.0</ele><time>2026-05-03T09:58:08Z</time></trkpt><trkpt lat="38.13659031142118" lon="15.83658637555358"><ele>1383.0</ele><time>2026-05-03T09:58:09Z</time></trkpt><trkpt lat="38.136637590822275" lon="15.836513140828636"><ele>1383.0</ele><time>2026-05-03T09:58:10Z</time></trkpt><trkpt lat="38.13665834179962" lon="15.836348406509025"><ele>1384.0</ele><time>2026-05-03T09:58:11Z</time></trkpt><trkpt lat="38.13659786793923" lon="15.836134666634644"><ele>1385.0</ele><time>2026-05-03T09:58:12Z</time></trkpt><trkpt lat="38.136606595550816" lon="15.836002010980238"><ele>1386.0</ele><time>2026-05-03T09:58:13Z</time></trkpt><trkpt lat="38.136574823425235" lon="15.835756787272768"><ele>1384.25</ele><time>2026-05-03T09:58:14Z</time></trkpt><trkpt lat="38.13655311139086" lon="15.83555343753136"><ele>1382.5</ele><time>2026-05-03T09:58:15Z</time></trkpt><trkpt lat="38.13652803387787" lon="15.835401178849953"><ele>1380.75</ele><time>2026-05-03T09:58:16Z</time></trkpt><trkpt lat="38.1365359137637" lon="15.835266727663038"><ele>1379.0</ele><time>2026-05-03T09:58:17Z</time></trkpt><trkpt lat="38.13656539242827" lon="15.835126164056092"><ele>1377.5</ele><time>2026-05-03T09:58:18Z</time></trkpt><trkpt lat="38.13662721758147" lon="15.83497254438085"><ele>1376.0</ele><time>2026-05-03T09:58:19Z</time></trkpt><trkpt lat="38.13666238832154" lon="15.83483179856655"><ele>1374.5</ele><time>2026-05-03T09:58:20Z</time></trkpt><trkpt lat="38.136767227957954" lon="15.834789215906907"><ele>1373.0</ele><time>2026-05-03T09:58:21Z</time></trkpt><trkpt lat="38.136843014695906" lon="15.834722289451053"><ele>1373.0</ele><time>2026-05-03T09:58:22Z</time></trkpt><trkpt lat="38.13689956218062" lon="15.834631344428649"><ele>1373.0</ele><time>2026-05-03T09:58:23Z</time></trkpt><trkpt lat="38.136946985457215" lon="15.834540262372876"><ele>1373.0</ele><time>2026-05-03T09:58:24Z</time></trkpt><trkpt lat="38.13698535076427" lon="15.834739626660316"><ele>1373.0</ele><time>2026-05-03T09:58:25Z</time></trkpt><trkpt lat="38.13729715666907" lon="15.834773560406955"><ele>1373.5</ele><time>2026-05-03T09:58:27Z</time></trkpt><trkpt lat="38.137563591499266" lon="15.834787091037562"><ele>1374.0</ele><time>2026-05-03T09:58:28Z</time></trkpt><trkpt lat="38.13768042215264" lon="15.835068222560038"><ele>1390.0</ele><time>2026-05-03T09:58:30Z</time></trkpt><trkpt lat="38.13830024273263" lon="15.835878731847648"><ele>1390.0</ele><time>2026-05-03T09:58:31Z</time></trkpt><trkpt lat="38.13844834934739" lon="15.835946381379811"><ele>1390.0</ele><time>2026-05-03T09:58:32Z</time></trkpt><trkpt lat="38.13823406485521" lon="15.835145796986065"><ele>1387.5</ele><time>2026-05-03T09:58:35Z</time></trkpt><trkpt lat="38.13827350231484" lon="15.835049863212557"><ele>1385.0</ele><time>2026-05-03T09:58:36Z</time></trkpt><trkpt lat="38.13840464259858" lon="15.835027946716218"><ele>1382.5</ele><time>2026-05-03T09:58:37Z</time></trkpt><trkpt lat="38.13847675376312" lon="15.834860073539605"><ele>1380.0</ele><time>2026-05-03T09:58:38Z</time></trkpt><trkpt lat="38.13853123556256" lon="15.834592236917995"><ele>1380.0</ele><time>2026-05-03T09:58:39Z</time></trkpt><trkpt lat="38.13851441721752" lon="15.834397109488723"><ele>1380.0</ele><time>2026-05-03T09:58:40Z</time></trkpt><trkpt lat="38.13833571843261" lon="15.834371749711266"><ele>1380.0</ele><time>2026-05-03T09:58:41Z</time></trkpt><trkpt lat="38.13834188243081" lon="15.834243852468509"><ele>1380.0</ele><time>2026-05-03T09:58:42Z</time></trkpt><trkpt lat="38.138383715415316" lon="15.834124891892968"><ele>1377.75</ele><time>2026-05-03T09:58:43Z</time></trkpt><trkpt lat="38.13845162828968" lon="15.834022670240513"><ele>1375.5</ele><time>2026-05-03T09:58:44Z</time></trkpt><trkpt lat="38.1385184119291" lon="15.833945584268498"><ele>1373.25</ele><time>2026-05-03T09:58:45Z</time></trkpt><trkpt lat="38.13868328973211" lon="15.834053367740118"><ele>1371.0</ele><time>2026-05-03T09:58:46Z</time></trkpt><trkpt lat="38.1387940973093" lon="15.83408669966981"><ele>1371.0</ele><time>2026-05-03T09:58:47Z</time></trkpt><trkpt lat="38.1389150777901" lon="15.834141304102143"><ele>1371.0</ele><time>2026-05-03T09:58:48Z</time></trkpt><trkpt lat="38.13901135751966" lon="15.834161847329767"><ele>1371.0</ele><time>2026-05-03T09:58:49Z</time></trkpt><trkpt lat="38.13915683932948" lon="15.834140320473272"><ele>1371.0</ele><time>2026-05-03T09:58:50Z</time></trkpt><trkpt lat="38.13930405195344" lon="15.834106483571919"><ele>1372.0</ele><time>2026-05-03T09:58:51Z</time></trkpt><trkpt lat="38.13941662798267" lon="15.833907080780692"><ele>1373.0</ele><time>2026-05-03T09:58:52Z</time></trkpt><trkpt lat="38.139528202874" lon="15.833817969253088"><ele>1374.0</ele><time>2026-05-03T09:58:53Z</time></trkpt><trkpt lat="38.13964217289634" lon="15.833770354047955"><ele>1375.0</ele><time>2026-05-03T09:58:54Z</time></trkpt><trkpt lat="38.13974409788629" lon="15.833745765047862"><ele>1375.0</ele><time>2026-05-03T09:58:55Z</time></trkpt><trkpt lat="38.13983928224442" lon="15.833725958719448"><ele>1375.0</ele><time>2026-05-03T09:58:56Z</time></trkpt><trkpt lat="38.1399408522153" lon="15.833696177699569"><ele>1375.0</ele><time>2026-05-03T09:58:57Z</time></trkpt><trkpt lat="38.140054568912866" lon="15.833691490859199"><ele>1375.0</ele><time>2026-05-03T09:58:58Z</time></trkpt><trkpt lat="38.14017506156806" lon="15.833709991249625"><ele>1375.0</ele><time>2026-05-03T09:58:59Z</time></trkpt><trkpt lat="38.14029756623847" lon="15.833698893212071"><ele>1374.3333333333333</ele><time>2026-05-03T09:59:00Z</time></trkpt><trkpt lat="38.140407414973986" lon="15.833838158148364"><ele>1373.6666666666667</ele><time>2026-05-03T09:59:01Z</time></trkpt><trkpt lat="38.14045418320246" lon="15.834075449906168"><ele>1373.0</ele><time>2026-05-03T09:59:02Z</time></trkpt><trkpt lat="38.14051112408413" lon="15.834545079833573"><ele>1373.5</ele><time>2026-05-03T09:59:03Z</time></trkpt><trkpt lat="38.14057314067398" lon="15.834687728512488"><ele>1374.0</ele><time>2026-05-03T09:59:04Z</time></trkpt><trkpt lat="38.140653229459495" lon="15.83481096137336"><ele>1374.5</ele><time>2026-05-03T09:59:05Z</time></trkpt><trkpt lat="38.1407697215485" lon="15.834893657710754"><ele>1375.0</ele><time>2026-05-03T09:59:06Z</time></trkpt><trkpt lat="38.14087519964722" lon="15.834982415987612"><ele>1375.0</ele><time>2026-05-03T09:59:07Z</time></trkpt><trkpt lat="38.141077522655145" lon="15.834958274441785"><ele>1375.0</ele><time>2026-05-03T09:59:08Z</time></trkpt><trkpt lat="38.14109053233829" lon="15.83462024390058"><ele>1375.0</ele><time>2026-05-03T09:59:09Z</time></trkpt><trkpt lat="38.141246097881734" lon="15.834588749935197"><ele>1375.0</ele><time>2026-05-03T09:59:10Z</time></trkpt><trkpt lat="38.14139288178761" lon="15.834547149570597"><ele>1375.0</ele><time>2026-05-03T09:59:11Z</time></trkpt><trkpt lat="38.141533120088496" lon="15.834533224418719"><ele>1375.0</ele><time>2026-05-03T09:59:12Z</time></trkpt><trkpt lat="38.141651221394504" lon="15.834482911617025"><ele>1374.25</ele><time>2026-05-03T09:59:13Z</time></trkpt><trkpt lat="38.14178721877041" lon="15.834485632968994"><ele>1373.5</ele><time>2026-05-03T09:59:14Z</time></trkpt><trkpt lat="38.14192670810439" lon="15.834494731397786"><ele>1372.75</ele><time>2026-05-03T09:59:15Z</time></trkpt><trkpt lat="38.1420689929932" lon="15.834503995454863"><ele>1372.0</ele><time>2026-05-03T09:59:16Z</time></trkpt><trkpt lat="38.142280455762" lon="15.834392037118878"><ele>1372.0</ele><time>2026-05-03T09:59:18Z</time></trkpt><trkpt lat="38.14236323906557" lon="15.834447843373376"><ele>1372.0</ele><time>2026-05-03T09:59:19Z</time></trkpt><trkpt lat="38.14243929558769" lon="15.834555853031468"><ele>1372.0</ele><time>2026-05-03T09:59:20Z</time></trkpt><trkpt lat="38.142459959408804" lon="15.834709927887948"><ele>1372.0</ele><time>2026-05-03T09:59:21Z</time></trkpt><trkpt lat="38.14252553825465" lon="15.834821512535429"><ele>1372.0</ele><time>2026-05-03T09:59:22Z</time></trkpt><trkpt lat="38.14259751191897" lon="15.834921840462071"><ele>1369.25</ele><time>2026-05-03T09:59:23Z</time></trkpt><trkpt lat="38.142679487126095" lon="15.835027873481126"><ele>1366.5</ele><time>2026-05-03T09:59:24Z</time></trkpt><trkpt lat="38.14277971744503" lon="15.835111977265791"><ele>1363.75</ele><time>2026-05-03T09:59:25Z</time></trkpt><trkpt lat="38.14293593597939" lon="15.835098115325698"><ele>1361.0</ele><time>2026-05-03T09:59:26Z</time></trkpt><trkpt lat="38.143059523572596" lon="15.835058191047757"><ele>1361.0</ele><time>2026-05-03T09:59:27Z</time></trkpt><trkpt lat="38.14316789626852" lon="15.834885898093725"><ele>1361.0</ele><time>2026-05-03T09:59:28Z</time></trkpt><trkpt lat="38.14329986957074" lon="15.83490263299331"><ele>1361.0</ele><time>2026-05-03T09:59:29Z</time></trkpt><trkpt lat="38.14342748879205" lon="15.834916000717286"><ele>1361.0</ele><time>2026-05-03T09:59:30Z</time></trkpt><trkpt lat="38.143560688991236" lon="15.83494015783706"><ele>1361.6666666666667</ele><time>2026-05-03T09:59:31Z</time></trkpt><trkpt lat="38.14370794719957" lon="15.834973753341789"><ele>1362.3333333333333</ele><time>2026-05-03T09:59:32Z</time></trkpt><trkpt lat="38.143841596702444" lon="15.835019654729468"><ele>1363.0</ele><time>2026-05-03T09:59:33Z</time></trkpt><trkpt lat="38.14400391871572" lon="15.835113250787687"><ele>1365.0</ele><time>2026-05-03T09:59:34Z</time></trkpt><trkpt lat="38.144138903526475" lon="15.83516982799501"><ele>1367.0</ele><time>2026-05-03T09:59:35Z</time></trkpt><trkpt lat="38.14430585344659" lon="15.835233371876512"><ele>1369.0</ele><time>2026-05-03T09:59:36Z</time></trkpt><trkpt lat="38.14441479617613" lon="15.835235207003283"><ele>1371.0</ele><time>2026-05-03T09:59:37Z</time></trkpt><trkpt lat="38.14452239655753" lon="15.835303064981204"><ele>1371.0</ele><time>2026-05-03T09:59:38Z</time></trkpt><trkpt lat="38.14459861604334" lon="15.835359497352586"><ele>1371.0</ele><time>2026-05-03T09:59:39Z</time></trkpt><trkpt lat="38.14470354851701" lon="15.83541462452949"><ele>1371.0</ele><time>2026-05-03T09:59:40Z</time></trkpt><trkpt lat="38.14479090615685" lon="15.835501434377571"><ele>1371.0</ele><time>2026-05-03T09:59:41Z</time></trkpt><trkpt lat="38.14485762705193" lon="15.835600084399982"><ele>1371.0</ele><time>2026-05-03T09:59:42Z</time></trkpt><trkpt lat="38.14492938262334" lon="15.835690603759877"><ele>1366.8</ele><time>2026-05-03T09:59:43Z</time></trkpt><trkpt lat="38.145015150150385" lon="15.835771745554668"><ele>1362.6</ele><time>2026-05-03T09:59:44Z</time></trkpt><trkpt lat="38.1451060051241" lon="15.835856559709631"><ele>1358.4</ele><time>2026-05-03T09:59:45Z</time></trkpt><trkpt lat="38.145215865535505" lon="15.835888317695751"><ele>1354.2</ele><time>2026-05-03T09:59:46Z</time></trkpt><trkpt lat="38.14532883421134" lon="15.835893082462942"><ele>1350.0</ele><time>2026-05-03T09:59:47Z</time></trkpt><trkpt lat="38.14540885377087" lon="15.83580102005909"><ele>1350.0</ele><time>2026-05-03T09:59:48Z</time></trkpt><trkpt lat="38.1454279517506" lon="15.835645642202428"><ele>1350.0</ele><time>2026-05-03T09:59:49Z</time></trkpt><trkpt lat="38.145501458830914" lon="15.835534618791547"><ele>1350.0</ele><time>2026-05-03T09:59:50Z</time></trkpt><trkpt lat="38.14557491869786" lon="15.835404697208833"><ele>1350.0</ele><time>2026-05-03T09:59:51Z</time></trkpt><trkpt lat="38.145644469629595" lon="15.835231815023525"><ele>1350.75</ele><time>2026-05-03T09:59:52Z</time></trkpt><trkpt lat="38.14571769559281" lon="15.835106543134923"><ele>1351.5</ele><time>2026-05-03T09:59:53Z</time></trkpt><trkpt lat="38.1457871071463" lon="15.834974239495116"><ele>1352.25</ele><time>2026-05-03T09:59:54Z</time></trkpt><trkpt lat="38.14584383579896" lon="15.834819921732935"><ele>1353.0</ele><time>2026-05-03T09:59:55Z</time></trkpt><trkpt lat="38.14590989904115" lon="15.83470229265836"><ele>1353.0</ele><time>2026-05-03T09:59:56Z</time></trkpt><trkpt lat="38.14597105926181" lon="15.834603293021111"><ele>1353.0</ele><time>2026-05-03T09:59:57Z</time></trkpt><trkpt lat="38.14602447004687" lon="15.83455100919257"><ele>1353.0</ele><time>2026-05-03T09:59:58Z</time></trkpt><trkpt lat="38.14609320192404" lon="15.834505818287084"><ele>1353.0</ele><time>2026-05-03T09:59:59Z</time></trkpt><trkpt lat="38.14620179729624" lon="15.83446851690362"><ele>1353.0</ele><time>2026-05-03T10:00:00Z</time></trkpt><trkpt lat="38.14636531467242" lon="15.834317681621002"><ele>1354.25</ele><time>2026-05-03T10:00:01Z</time></trkpt><trkpt lat="38.14642673137078" lon="15.834110814795173"><ele>1355.5</ele><time>2026-05-03T10:00:03Z</time></trkpt><trkpt lat="38.14655504394968" lon="15.83405513246869"><ele>1356.75</ele><time>2026-05-03T10:00:04Z</time></trkpt><trkpt lat="38.1466695334103" lon="15.833983017983154"><ele>1358.0</ele><time>2026-05-03T10:00:05Z</time></trkpt><trkpt lat="38.14676661310341" lon="15.833827107856687"><ele>1358.0</ele><time>2026-05-03T10:00:06Z</time></trkpt><trkpt lat="38.146857055474875" lon="15.83369959755042"><ele>1358.0</ele><time>2026-05-03T10:00:07Z</time></trkpt><trkpt lat="38.14693279551362" lon="15.833580355574636"><ele>1358.0</ele><time>2026-05-03T10:00:08Z</time></trkpt><trkpt lat="38.146954034362" lon="15.833401192460009"><ele>1358.0</ele><time>2026-05-03T10:00:09Z</time></trkpt><trkpt lat="38.14697151353046" lon="15.833186863361197"><ele>1352.5</ele><time>2026-05-03T10:00:10Z</time></trkpt><trkpt lat="38.146987646618385" lon="15.832990685163148"><ele>1347.0</ele><time>2026-05-03T10:00:11Z</time></trkpt><trkpt lat="38.146955057169706" lon="15.832806473684855"><ele>1341.5</ele><time>2026-05-03T10:00:12Z</time></trkpt><trkpt lat="38.14698903062912" lon="15.832656444131988"><ele>1336.0</ele><time>2026-05-03T10:00:13Z</time></trkpt><trkpt lat="38.147033512489436" lon="15.832526697959484"><ele>1333.0</ele><time>2026-05-03T10:00:14Z</time></trkpt><trkpt lat="38.147107960545746" lon="15.832413082105985"><ele>1330.0</ele><time>2026-05-03T10:00:15Z</time></trkpt><trkpt lat="38.14724391942962" lon="15.832329494846876"><ele>1327.0</ele><time>2026-05-03T10:00:16Z</time></trkpt><trkpt lat="38.147340422846206" lon="15.832212652647522"><ele>1324.0</ele><time>2026-05-03T10:00:17Z</time></trkpt><trkpt lat="38.147445166849934" lon="15.832142121315968"><ele>1330.2</ele><time>2026-05-03T10:00:18Z</time></trkpt><trkpt lat="38.147545264159184" lon="15.83207411714424"><ele>1336.4</ele><time>2026-05-03T10:00:19Z</time></trkpt><trkpt lat="38.147642971491" lon="15.83201190900425"><ele>1342.6</ele><time>2026-05-03T10:00:20Z</time></trkpt><trkpt lat="38.14774809207976" lon="15.831980383666727"><ele>1348.8</ele><time>2026-05-03T10:00:21Z</time></trkpt><trkpt lat="38.14784584006285" lon="15.831961204863628"><ele>1355.0</ele><time>2026-05-03T10:00:22Z</time></trkpt><trkpt lat="38.147955364346664" lon="15.831978436945844"><ele>1355.0</ele><time>2026-05-03T10:00:23Z</time></trkpt><trkpt lat="38.14809438808393" lon="15.832032956913336"><ele>1355.0</ele><time>2026-05-03T10:00:24Z</time></trkpt><trkpt lat="38.14821666631537" lon="15.832067550217548"><ele>1355.0</ele><time>2026-05-03T10:00:25Z</time></trkpt><trkpt lat="38.14832184230169" lon="15.831957205629832"><ele>1355.0</ele><time>2026-05-03T10:00:26Z</time></trkpt><trkpt lat="38.14840797971959" lon="15.83184973288477"><ele>1353.5</ele><time>2026-05-03T10:00:27Z</time></trkpt><trkpt lat="38.14845377364956" lon="15.831664790207293"><ele>1352.0</ele><time>2026-05-03T10:00:28Z</time></trkpt><trkpt lat="38.14852287577423" lon="15.831531742873437"><ele>1350.5</ele><time>2026-05-03T10:00:29Z</time></trkpt><trkpt lat="38.148591221592554" lon="15.831412482948565"><ele>1349.0</ele><time>2026-05-03T10:00:30Z</time></trkpt><trkpt lat="38.148678157639715" lon="15.831352562041008"><ele>1349.0</ele><time>2026-05-03T10:00:31Z</time></trkpt><trkpt lat="38.1487877135576" lon="15.83134422081215"><ele>1349.0</ele><time>2026-05-03T10:00:32Z</time></trkpt><trkpt lat="38.14890903597858" lon="15.831343894876607"><ele>1349.0</ele><time>2026-05-03T10:00:33Z</time></trkpt><trkpt lat="38.14902579739162" lon="15.831353512855673"><ele>1349.0</ele><time>2026-05-03T10:00:34Z</time></trkpt><trkpt lat="38.14912885424131" lon="15.831386273237774"><ele>1349.8000000000002</ele><time>2026-05-03T10:00:35Z</time></trkpt><trkpt lat="38.149202782999154" lon="15.831442083105054"><ele>1350.6000000000001</ele><time>2026-05-03T10:00:36Z</time></trkpt><trkpt lat="38.14928054514659" lon="15.831512031838619"><ele>1351.4</ele><time>2026-05-03T10:00:37Z</time></trkpt><trkpt lat="38.149348617436985" lon="15.83165757378668"><ele>1352.2</ele><time>2026-05-03T10:00:38Z</time></trkpt><trkpt lat="38.14942434495634" lon="15.831768694373078"><ele>1353.0</ele><time>2026-05-03T10:00:39Z</time></trkpt><trkpt lat="38.149545689787196" lon="15.831873390181189"><ele>1353.0</ele><time>2026-05-03T10:00:40Z</time></trkpt><trkpt lat="38.14963719205856" lon="15.831964472848654"><ele>1353.0</ele><time>2026-05-03T10:00:41Z</time></trkpt><trkpt lat="38.149765416528005" lon="15.832014895254375"><ele>1353.0</ele><time>2026-05-03T10:00:42Z</time></trkpt><trkpt lat="38.1499389968951" lon="15.832049193293376"><ele>1353.0</ele><time>2026-05-03T10:00:43Z</time></trkpt><trkpt lat="38.15009398200827" lon="15.831993502533143"><ele>1353.25</ele><time>2026-05-03T10:00:44Z</time></trkpt><trkpt lat="38.15024280340404" lon="15.831911577154212"><ele>1353.5</ele><time>2026-05-03T10:00:45Z</time></trkpt><trkpt lat="38.150336509586495" lon="15.831796395615156"><ele>1353.75</ele><time>2026-05-03T10:00:46Z</time></trkpt><trkpt lat="38.15045916046019" lon="15.831687383930705"><ele>1354.0</ele><time>2026-05-03T10:00:47Z</time></trkpt><trkpt lat="38.15058345652494" lon="15.831609170985375"><ele>1352.6</ele><time>2026-05-03T10:00:48Z</time></trkpt><trkpt lat="38.15066455812346" lon="15.831599614906777"><ele>1351.2</ele><time>2026-05-03T10:00:49Z</time></trkpt><trkpt lat="38.15075964008083" lon="15.83163120106566"><ele>1349.8</ele><time>2026-05-03T10:00:50Z</time></trkpt><trkpt lat="38.15083178078153" lon="15.831688368762725"><ele>1348.3999999999999</ele><time>2026-05-03T10:00:51Z</time></trkpt><trkpt lat="38.15091501043751" lon="15.831787604996938"><ele>1347.0</ele><time>2026-05-03T10:00:52Z</time></trkpt><trkpt lat="38.15102462473907" lon="15.831866098006584"><ele>1347.0</ele><time>2026-05-03T10:00:53Z</time></trkpt><trkpt lat="38.151123877580375" lon="15.831912170277437"><ele>1347.0</ele><time>2026-05-03T10:00:54Z</time></trkpt><trkpt lat="38.15124236763516" lon="15.831931265460414"><ele>1347.0</ele><time>2026-05-03T10:00:55Z</time></trkpt><trkpt lat="38.15135581863424" lon="15.831928028914671"><ele>1347.0</ele><time>2026-05-03T10:00:56Z</time></trkpt><trkpt lat="38.15145074029449" lon="15.831884506277776"><ele>1347.0</ele><time>2026-05-03T10:00:57Z</time></trkpt><trkpt lat="38.151535733884906" lon="15.831772381123328"><ele>1347.6</ele><time>2026-05-03T10:00:58Z</time></trkpt><trkpt lat="38.15159364897196" lon="15.83170573945337"><ele>1348.1999999999998</ele><time>2026-05-03T10:00:59Z</time></trkpt><trkpt lat="38.15167319994843" lon="15.831686619123879"><ele>1348.8</ele><time>2026-05-03T10:01:00Z</time></trkpt><trkpt lat="38.151738814370745" lon="15.831688992368267"><ele>1349.4</ele><time>2026-05-03T10:01:01Z</time></trkpt><trkpt lat="38.151815273178315" lon="15.831694571363263"><ele>1350.0</ele><time>2026-05-03T10:01:02Z</time></trkpt><trkpt lat="38.15196939056723" lon="15.831740830177413"><ele>1350.0</ele><time>2026-05-03T10:01:03Z</time></trkpt><trkpt lat="38.1521154730716" lon="15.831782591801721"><ele>1350.0</ele><time>2026-05-03T10:01:04Z</time></trkpt><trkpt lat="38.15227017143868" lon="15.831828117979343"><ele>1350.0</ele><time>2026-05-03T10:01:05Z</time></trkpt><trkpt lat="38.15244712085317" lon="15.831859145918253"><ele>1353.0</ele><time>2026-05-03T10:01:06Z</time></trkpt><trkpt lat="38.15261350999549" lon="15.83190532621754"><ele>1356.0</ele><time>2026-05-03T10:01:07Z</time></trkpt><trkpt lat="38.15278644592669" lon="15.83197234831071"><ele>1359.0</ele><time>2026-05-03T10:01:08Z</time></trkpt><trkpt lat="38.15293234163755" lon="15.831995853205429"><ele>1359.0</ele><time>2026-05-03T10:01:09Z</time></trkpt><trkpt lat="38.15309293756616" lon="15.832049347462293"><ele>1359.0</ele><time>2026-05-03T10:01:10Z</time></trkpt><trkpt lat="38.15325855251182" lon="15.832094885121924"><ele>1359.0</ele><time>2026-05-03T10:01:11Z</time></trkpt><trkpt lat="38.153433460197746" lon="15.832146173085606"><ele>1356.3333333333333</ele><time>2026-05-03T10:01:12Z</time></trkpt><trkpt lat="38.153619868610335" lon="15.83220398878491"><ele>1353.6666666666665</ele><time>2026-05-03T10:01:13Z</time></trkpt><trkpt lat="38.15382984636209" lon="15.832282892257671"><ele>1351.0</ele><time>2026-05-03T10:01:14Z</time></trkpt><trkpt lat="38.154035053255186" lon="15.832343334568376"><ele>1352.0</ele><time>2026-05-03T10:01:15Z</time></trkpt><trkpt lat="38.15424546608099" lon="15.832407280507722"><ele>1353.0</ele><time>2026-05-03T10:01:16Z</time></trkpt><trkpt lat="38.15447621194019" lon="15.83247776862907"><ele>1353.0</ele><time>2026-05-03T10:01:17Z</time></trkpt><trkpt lat="38.15468782701732" lon="15.832533839238296"><ele>1353.0</ele><time>2026-05-03T10:01:18Z</time></trkpt><trkpt lat="38.154892672520546" lon="15.832583863794259"><ele>1353.0</ele><time>2026-05-03T10:01:19Z</time></trkpt><trkpt lat="38.15508542052507" lon="15.832654138937537"><ele>1355.3333333333333</ele><time>2026-05-03T10:01:20Z</time></trkpt><trkpt lat="38.1552662322156" lon="15.832735282793335"><ele>1357.6666666666665</ele><time>2026-05-03T10:01:21Z</time></trkpt><trkpt lat="38.15543893659635" lon="15.83282934393215"><ele>1360.0</ele><time>2026-05-03T10:01:22Z</time></trkpt><trkpt lat="38.15560471189552" lon="15.832929624673278"><ele>1359.0</ele><time>2026-05-03T10:01:23Z</time></trkpt><trkpt lat="38.155763542019606" lon="15.833036807826332"><ele>1358.0</ele><time>2026-05-03T10:01:24Z</time></trkpt><trkpt lat="38.15592666429574" lon="15.833112809797214"><ele>1357.0</ele><time>2026-05-03T10:01:25Z</time></trkpt><trkpt lat="38.156097860517946" lon="15.833148730078754"><ele>1357.0</ele><time>2026-05-03T10:01:26Z</time></trkpt><trkpt lat="38.15628438526693" lon="15.833159695643289"><ele>1357.0</ele><time>2026-05-03T10:01:27Z</time></trkpt><trkpt lat="38.15647017795779" lon="15.833167327519112"><ele>1357.0</ele><time>2026-05-03T10:01:28Z</time></trkpt><trkpt lat="38.15667705522167" lon="15.833179355607957"><ele>1356.6666666666665</ele><time>2026-05-03T10:01:29Z</time></trkpt><trkpt lat="38.15688496690665" lon="15.833210831498876"><ele>1356.3333333333333</ele><time>2026-05-03T10:01:30Z</time></trkpt><trkpt lat="38.15709419837791" lon="15.833237030387549"><ele>1356.0</ele><time>2026-05-03T10:01:31Z</time></trkpt><trkpt lat="38.157300398301274" lon="15.833267714519414"><ele>1355.3333333333333</ele><time>2026-05-03T10:01:32Z</time></trkpt><trkpt lat="38.15751126467922" lon="15.833291204464011"><ele>1354.6666666666665</ele><time>2026-05-03T10:01:33Z</time></trkpt><trkpt lat="38.15772568781834" lon="15.833313896830383"><ele>1354.0</ele><time>2026-05-03T10:01:34Z</time></trkpt><trkpt lat="38.15793876652212" lon="15.833331292464926"><ele>1354.0</ele><time>2026-05-03T10:01:35Z</time></trkpt><trkpt lat="38.15816078347042" lon="15.833344493122649"><ele>1354.0</ele><time>2026-05-03T10:01:36Z</time></trkpt><trkpt lat="38.15838271663888" lon="15.83335439741711"><ele>1354.0</ele><time>2026-05-03T10:01:37Z</time></trkpt><trkpt lat="38.158604098326734" lon="15.833368493142304"><ele>1352.5</ele><time>2026-05-03T10:01:38Z</time></trkpt><trkpt lat="38.15882959525281" lon="15.833381397815238"><ele>1351.0</ele><time>2026-05-03T10:01:39Z</time></trkpt><trkpt lat="38.159059950039435" lon="15.833394398017662"><ele>1350.3333333333333</ele><time>2026-05-03T10:01:40Z</time></trkpt><trkpt lat="38.15928553987925" lon="15.833406210841275"><ele>1349.6666666666667</ele><time>2026-05-03T10:01:41Z</time></trkpt><trkpt lat="38.159507373294204" lon="15.833419807174465"><ele>1349.0</ele><time>2026-05-03T10:01:42Z</time></trkpt><trkpt lat="38.159738908558914" lon="15.833427624137867"><ele>1347.3333333333335</ele><time>2026-05-03T10:01:43Z</time></trkpt><trkpt lat="38.15993313198207" lon="15.833441924217817"><ele>1345.6666666666667</ele><time>2026-05-03T10:01:44Z</time></trkpt><trkpt lat="38.16012912354808" lon="15.833452732921124"><ele>1344.0</ele><time>2026-05-03T10:01:45Z</time></trkpt><trkpt lat="38.160313083869056" lon="15.83345857160175"><ele>1344.0</ele><time>2026-05-03T10:01:46Z</time></trkpt><trkpt lat="38.1604709644325" lon="15.833463154917396"><ele>1344.0</ele><time>2026-05-03T10:01:47Z</time></trkpt><trkpt lat="38.160614590381755" lon="15.833471739899892"><ele>1344.0</ele><time>2026-05-03T10:01:48Z</time></trkpt><trkpt lat="38.1607180567645" lon="15.833478033096036"><ele>1344.0</ele><time>2026-05-03T10:01:49Z</time></trkpt><trkpt lat="38.16083100075937" lon="15.833487784220699"><ele>1345.25</ele><time>2026-05-03T10:01:50Z</time></trkpt><trkpt lat="38.16094762238527" lon="15.833498963741404"><ele>1346.5</ele><time>2026-05-03T10:01:51Z</time></trkpt><trkpt lat="38.161031725181665" lon="15.833586714363737"><ele>1347.75</ele><time>2026-05-03T10:01:52Z</time></trkpt><trkpt lat="38.161099761685904" lon="15.833689577192661"><ele>1349.0</ele><time>2026-05-03T10:01:53Z</time></trkpt><trkpt lat="38.16115303802161" lon="15.83383286762271"><ele>1349.0</ele><time>2026-05-03T10:01:54Z</time></trkpt><trkpt lat="38.1611864044873" lon="15.834014979584953"><ele>1349.0</ele><time>2026-05-03T10:01:55Z</time></trkpt><trkpt lat="38.16122853617709" lon="15.834187892044229"><ele>1349.0</ele><time>2026-05-03T10:01:56Z</time></trkpt><trkpt lat="38.16130343927162" lon="15.834367852656714"><ele>1349.0</ele><time>2026-05-03T10:01:57Z</time></trkpt><trkpt lat="38.16137906466728" lon="15.834502334828473"><ele>1347.75</ele><time>2026-05-03T10:01:58Z</time></trkpt><trkpt lat="38.16145822919256" lon="15.834665848280853"><ele>1346.5</ele><time>2026-05-03T10:01:59Z</time></trkpt><trkpt lat="38.16154645283495" lon="15.834790039849194"><ele>1345.25</ele><time>2026-05-03T10:02:00Z</time></trkpt><trkpt lat="38.16163268106437" lon="15.834918514036076"><ele>1344.0</ele><time>2026-05-03T10:02:01Z</time></trkpt><trkpt lat="38.16171445435862" lon="15.835040813733503"><ele>1343.5</ele><time>2026-05-03T10:02:02Z</time></trkpt><trkpt lat="38.161730346237135" lon="15.83518742300064"><ele>1343.0</ele><time>2026-05-03T10:02:03Z</time></trkpt><trkpt lat="38.16173535975891" lon="15.8353131473007"><ele>1342.5</ele><time>2026-05-03T10:02:04Z</time></trkpt><trkpt lat="38.16172496946673" lon="15.835474491529423"><ele>1342.0</ele><time>2026-05-03T10:02:05Z</time></trkpt><trkpt lat="38.161712663225174" lon="15.835642502609264"><ele>1342.0</ele><time>2026-05-03T10:02:06Z</time></trkpt><trkpt lat="38.161687715036074" lon="15.835803800889341"><ele>1342.0</ele><time>2026-05-03T10:02:07Z</time></trkpt><trkpt lat="38.16165849972266" lon="15.835942378025628"><ele>1342.0</ele><time>2026-05-03T10:02:08Z</time></trkpt><trkpt lat="38.16161833591431" lon="15.83609154572768"><ele>1342.0</ele><time>2026-05-03T10:02:09Z</time></trkpt><trkpt lat="38.16157078966115" lon="15.836244664885266"><ele>1343.0</ele><time>2026-05-03T10:02:10Z</time></trkpt><trkpt lat="38.16152497267548" lon="15.836368104395012"><ele>1344.0</ele><time>2026-05-03T10:02:11Z</time></trkpt><trkpt lat="38.16150494023222" lon="15.83650843380923"><ele>1345.0</ele><time>2026-05-03T10:02:12Z</time></trkpt><trkpt lat="38.16148096610971" lon="15.836619673799696"><ele>1346.0</ele><time>2026-05-03T10:02:13Z</time></trkpt><trkpt lat="38.16152418933336" lon="15.836768755082947"><ele>1347.0</ele><time>2026-05-03T10:02:15Z</time></trkpt><trkpt lat="38.16160684253617" lon="15.836816416127709"><ele>1347.0</ele><time>2026-05-03T10:02:16Z</time></trkpt><trkpt lat="38.161688736188246" lon="15.836827375269184"><ele>1347.0</ele><time>2026-05-03T10:02:17Z</time></trkpt><trkpt lat="38.161819459461704" lon="15.836811275232456"><ele>1347.0</ele><time>2026-05-03T10:02:18Z</time></trkpt><trkpt lat="38.1619471341999" lon="15.836762369431085"><ele>1347.0</ele><time>2026-05-03T10:02:19Z</time></trkpt><trkpt lat="38.16207241235174" lon="15.836714177251693"><ele>1345.25</ele><time>2026-05-03T10:02:20Z</time></trkpt><trkpt lat="38.16216433511912" lon="15.8366163655633"><ele>1343.5</ele><time>2026-05-03T10:02:21Z</time></trkpt><trkpt lat="38.16222685058357" lon="15.836455412722529"><ele>1341.75</ele><time>2026-05-03T10:02:22Z</time></trkpt><trkpt lat="38.16228584931486" lon="15.836289688825662"><ele>1340.0</ele><time>2026-05-03T10:02:23Z</time></trkpt><trkpt lat="38.16234650028219" lon="15.836140590970988"><ele>1338.5</ele><time>2026-05-03T10:02:24Z</time></trkpt><trkpt lat="38.16244201221809" lon="15.836042065486625"><ele>1337.0</ele><time>2026-05-03T10:02:25Z</time></trkpt><trkpt lat="38.16255904039598" lon="15.835934862429223"><ele>1335.5</ele><time>2026-05-03T10:02:26Z</time></trkpt><trkpt lat="38.16268844163271" lon="15.835806825351751"><ele>1334.0</ele><time>2026-05-03T10:02:27Z</time></trkpt><trkpt lat="38.1627917342417" lon="15.835621594974484"><ele>1332.0</ele><time>2026-05-03T10:02:28Z</time></trkpt><trkpt lat="38.16290055094042" lon="15.835445667313499"><ele>1330.0</ele><time>2026-05-03T10:02:29Z</time></trkpt><trkpt lat="38.1629904431883" lon="15.83526639875427"><ele>1328.0</ele><time>2026-05-03T10:02:30Z</time></trkpt><trkpt lat="38.16307021397078" lon="15.835105920819027"><ele>1328.75</ele><time>2026-05-03T10:02:31Z</time></trkpt><trkpt lat="38.16314885010787" lon="15.834959979817263"><ele>1329.5</ele><time>2026-05-03T10:02:32Z</time></trkpt><trkpt lat="38.163222145580484" lon="15.8348321261225"><ele>1330.25</ele><time>2026-05-03T10:02:33Z</time></trkpt><trkpt lat="38.16330576086729" lon="15.83471512246827"><ele>1331.0</ele><time>2026-05-03T10:02:34Z</time></trkpt><trkpt lat="38.1634116978802" lon="15.834625846992608"><ele>1331.0</ele><time>2026-05-03T10:02:35Z</time></trkpt><trkpt lat="38.16352952282708" lon="15.834533369357082"><ele>1331.0</ele><time>2026-05-03T10:02:36Z</time></trkpt><trkpt lat="38.163672308452426" lon="15.834487023056065"><ele>1331.0</ele><time>2026-05-03T10:02:37Z</time></trkpt><trkpt lat="38.16381954281047" lon="15.834441015383929"><ele>1331.0</ele><time>2026-05-03T10:02:38Z</time></trkpt><trkpt lat="38.163977199356964" lon="15.834397219348114"><ele>1329.5</ele><time>2026-05-03T10:02:39Z</time></trkpt><trkpt lat="38.16413045322314" lon="15.834339407718964"><ele>1328.0</ele><time>2026-05-03T10:02:40Z</time></trkpt><trkpt lat="38.164274579820585" lon="15.83430633359048"><ele>1326.5</ele><time>2026-05-03T10:02:41Z</time></trkpt><trkpt lat="38.164411632625026" lon="15.83427382656218"><ele>1325.0</ele><time>2026-05-03T10:02:42Z</time></trkpt><trkpt lat="38.16453333294471" lon="15.834246406317199"><ele>1325.0</ele><time>2026-05-03T10:02:43Z</time></trkpt><trkpt lat="38.16464478829022" lon="15.834238485024997"><ele>1325.0</ele><time>2026-05-03T10:02:44Z</time></trkpt><trkpt lat="38.16471981670137" lon="15.834275219336948"><ele>1325.0</ele><time>2026-05-03T10:02:45Z</time></trkpt><trkpt lat="38.16478639500674" lon="15.834349912276089"><ele>1325.0</ele><time>2026-05-03T10:02:46Z</time></trkpt><trkpt lat="38.164849911425044" lon="15.834454515408535"><ele>1325.0</ele><time>2026-05-03T10:02:47Z</time></trkpt><trkpt lat="38.1648555663701" lon="15.834570968499277"><ele>1327.0</ele><time>2026-05-03T10:02:48Z</time></trkpt><trkpt lat="38.164846879958205" lon="15.834740437714698"><ele>1329.0</ele><time>2026-05-03T10:02:49Z</time></trkpt><trkpt lat="38.16484888889998" lon="15.834888580529286"><ele>1331.0</ele><time>2026-05-03T10:02:50Z</time></trkpt><trkpt lat="38.16488455114439" lon="15.835018396385035"><ele>1333.0</ele><time>2026-05-03T10:02:51Z</time></trkpt><trkpt lat="38.16496516340311" lon="15.83509701085849"><ele>1333.0</ele><time>2026-05-03T10:02:52Z</time></trkpt><trkpt lat="38.1650469730044" lon="15.83514223234826"><ele>1333.0</ele><time>2026-05-03T10:02:53Z</time></trkpt><trkpt lat="38.165147013879164" lon="15.835128351090692"><ele>1333.0</ele><time>2026-05-03T10:02:54Z</time></trkpt><trkpt lat="38.165236130803116" lon="15.83506987076599"><ele>1333.0</ele><time>2026-05-03T10:02:55Z</time></trkpt><trkpt lat="38.16532189034871" lon="15.834975140676523"><ele>1333.0</ele><time>2026-05-03T10:02:56Z</time></trkpt><trkpt lat="38.16540695668575" lon="15.834856481538038"><ele>1333.0</ele><time>2026-05-03T10:02:57Z</time></trkpt><trkpt lat="38.16548242580793" lon="15.834702531133004"><ele>1333.0</ele><time>2026-05-03T10:02:58Z</time></trkpt><trkpt lat="38.16557710780044" lon="15.834572709454662"><ele>1333.0</ele><time>2026-05-03T10:02:59Z</time></trkpt><trkpt lat="38.16565937554261" lon="15.83446208566717"><ele>1333.0</ele><time>2026-05-03T10:03:00Z</time></trkpt><trkpt lat="38.165750509241924" lon="15.834399196659689"><ele>1331.8000000000002</ele><time>2026-05-03T10:03:01Z</time></trkpt><trkpt lat="38.16582955752489" lon="15.834358872739609"><ele>1330.6</ele><time>2026-05-03T10:03:02Z</time></trkpt><trkpt lat="38.165935897595766" lon="15.834353212684817"><ele>1329.4</ele><time>2026-05-03T10:03:03Z</time></trkpt><trkpt lat="38.16604345976284" lon="15.834375475432712"><ele>1328.1999999999998</ele><time>2026-05-03T10:03:04Z</time></trkpt><trkpt lat="38.166144038608124" lon="15.834459082959835"><ele>1327.0</ele><time>2026-05-03T10:03:05Z</time></trkpt><trkpt lat="38.16625416630008" lon="15.834538060049363"><ele>1327.0</ele><time>2026-05-03T10:03:06Z</time></trkpt><trkpt lat="38.16638612765705" lon="15.834621250767826"><ele>1327.0</ele><time>2026-05-03T10:03:07Z</time></trkpt><trkpt lat="38.16651733889099" lon="15.83474637944035"><ele>1327.0</ele><time>2026-05-03T10:03:08Z</time></trkpt><trkpt lat="38.1666442817974" lon="15.834844635326355"><ele>1325.25</ele><time>2026-05-03T10:03:09Z</time></trkpt><trkpt lat="38.16674664102379" lon="15.834946616802734"><ele>1323.5</ele><time>2026-05-03T10:03:10Z</time></trkpt><trkpt lat="38.16682892346403" lon="15.835053720585567"><ele>1321.75</ele><time>2026-05-03T10:03:11Z</time></trkpt><trkpt lat="38.16690222261676" lon="15.83515434473536"><ele>1320.0</ele><time>2026-05-03T10:03:12Z</time></trkpt><trkpt lat="38.16695247576062" lon="15.83526432555782"><ele>1320.0</ele><time>2026-05-03T10:03:13Z</time></trkpt><trkpt lat="38.16699977984775" lon="15.835353964709155"><ele>1320.0</ele><time>2026-05-03T10:03:14Z</time></trkpt><trkpt lat="38.16704988669721" lon="15.835455147691194"><ele>1320.0</ele><time>2026-05-03T10:03:15Z</time></trkpt><trkpt lat="38.16709281364384" lon="15.835553079590708"><ele>1320.0</ele><time>2026-05-03T10:03:16Z</time></trkpt><trkpt lat="38.16712931665483" lon="15.835671838311034"><ele>1320.0</ele><time>2026-05-03T10:03:17Z</time></trkpt><trkpt lat="38.16718189432112" lon="15.835784469198407"><ele>1320.0</ele><time>2026-05-03T10:03:18Z</time></trkpt><trkpt lat="38.16720657628874" lon="15.835891740471137"><ele>1320.0</ele><time>2026-05-03T10:03:19Z</time></trkpt><trkpt lat="38.16722226653448" lon="15.835983110820994"><ele>1320.0</ele><time>2026-05-03T10:03:20Z</time></trkpt><trkpt lat="38.16722115866625" lon="15.836063616564356"><ele>1320.0</ele><time>2026-05-03T10:03:21Z</time></trkpt><trkpt lat="38.167235314968536" lon="15.836151182429381"><ele>1320.0</ele><time>2026-05-03T10:03:23Z</time></trkpt><trkpt lat="38.16710784021132" lon="15.836201239457342"><ele>1320.0</ele><time>2026-05-03T10:03:24Z</time></trkpt><trkpt lat="38.16705420189564" lon="15.836256787369544"><ele>1320.25</ele><time>2026-05-03T10:03:26Z</time></trkpt><trkpt lat="38.16700025425532" lon="15.83632261242377"><ele>1320.5</ele><time>2026-05-03T10:03:30Z</time></trkpt><trkpt lat="38.1671354202141" lon="15.836569025331332"><ele>1320.75</ele><time>2026-05-03T10:03:52Z</time></trkpt><trkpt lat="38.16717715197946" lon="15.836683625611967"><ele>1321.0</ele><time>2026-05-03T10:03:54Z</time></trkpt><trkpt lat="38.167261725955186" lon="15.836707359309653"><ele>1321.0</ele><time>2026-05-03T10:03:56Z</time></trkpt><trkpt lat="38.1673519542977" lon="15.836712566629657"><ele>1321.0</ele><time>2026-05-03T10:03:58Z</time></trkpt><trkpt lat="38.16743852252827" lon="15.83671307118286"><ele>1318.0</ele><time>2026-05-03T10:04:00Z</time></trkpt><trkpt lat="38.167513565091724" lon="15.83669776806483"><ele>1318.0</ele><time>2026-05-03T10:04:03Z</time></trkpt><trkpt lat="38.16750667161415" lon="15.836586290203288"><ele>1318.0</ele><time>2026-05-03T10:04:06Z</time></trkpt></trkseg><trkseg><trkpt lat="38.16750132588988" lon="15.836563059155452"><ele>1318.0</ele><time>2026-05-03T10:49:31Z</time></trkpt><trkpt lat="38.16754818689473" lon="15.83662778584675"><ele>1318.0</ele><time>2026-05-03T10:51:26Z</time></trkpt><trkpt lat="38.167506496468555" lon="15.836562255151104"><ele>1318.0</ele><time>2026-05-03T10:51:47Z</time></trkpt><trkpt lat="38.167452015805246" lon="15.836486749795839"><ele>1318.0</ele><time>2026-05-03T10:51:54Z</time></trkpt><trkpt lat="38.167387885283816" lon="15.836425393547994"><ele>1318.0</ele><time>2026-05-03T10:51:55Z</time></trkpt><trkpt lat="38.16738290620058" lon="15.8362472095727"><ele>1318.0</ele><time>2026-05-03T10:51:56Z</time></trkpt><trkpt lat="38.16738469324258" lon="15.836112546965168"><ele>1318.0</ele><time>2026-05-03T10:51:57Z</time></trkpt><trkpt lat="38.16743372557658" lon="15.835974900343848"><ele>1318.0</ele><time>2026-05-03T10:51:58Z</time></trkpt><trkpt lat="38.167511539056704" lon="15.835889523370195"><ele>1318.0</ele><time>2026-05-03T10:51:59Z</time></trkpt><trkpt lat="38.16757216065358" lon="15.835798926862095"><ele>1318.0</ele><time>2026-05-03T10:52:00Z</time></trkpt><trkpt lat="38.16764946582678" lon="15.835704206346717"><ele>1318.0</ele><time>2026-05-03T10:52:01Z</time></trkpt><trkpt lat="38.167809748509285" lon="15.835734740578339"><ele>1317.6666666666665</ele><time>2026-05-03T10:52:02Z</time></trkpt><trkpt lat="38.16799917858613" lon="15.83562604358317"><ele>1317.3333333333333</ele><time>2026-05-03T10:52:03Z</time></trkpt><trkpt lat="38.16812785872074" lon="15.835536144947902"><ele>1317.0</ele><time>2026-05-03T10:52:04Z</time></trkpt><trkpt lat="38.16825229686049" lon="15.835375341661832"><ele>1315.5</ele><time>2026-05-03T10:52:05Z</time></trkpt><trkpt lat="38.16829429012876" lon="15.83531212706356"><ele>1314.0</ele><time>2026-05-03T10:52:06Z</time></trkpt><trkpt lat="38.168360497603715" lon="15.835157962120741"><ele>1312.5</ele><time>2026-05-03T10:52:07Z</time></trkpt><trkpt lat="38.168436438490154" lon="15.834970616114557"><ele>1311.0</ele><time>2026-05-03T10:52:08Z</time></trkpt><trkpt lat="38.168521095362955" lon="15.83475603360338"><ele>1311.0</ele><time>2026-05-03T10:52:09Z</time></trkpt><trkpt lat="38.16855669642797" lon="15.83457711908402"><ele>1311.0</ele><time>2026-05-03T10:52:10Z</time></trkpt><trkpt lat="38.16855705138867" lon="15.834371630555399"><ele>1311.0</ele><time>2026-05-03T10:52:11Z</time></trkpt><trkpt lat="38.16858071923932" lon="15.834182105367706"><ele>1310.3333333333333</ele><time>2026-05-03T10:52:12Z</time></trkpt><trkpt lat="38.16855433905417" lon="15.83402155510085"><ele>1309.6666666666665</ele><time>2026-05-03T10:52:13Z</time></trkpt><trkpt lat="38.1685019452487" lon="15.833825965885577"><ele>1309.0</ele><time>2026-05-03T10:52:14Z</time></trkpt><trkpt lat="38.168429961076" lon="15.833582663268551"><ele>1307.3333333333333</ele><time>2026-05-03T10:52:15Z</time></trkpt><trkpt lat="38.168371998104156" lon="15.833391875296831"><ele>1305.6666666666667</ele><time>2026-05-03T10:52:16Z</time></trkpt><trkpt lat="38.16832839516423" lon="15.833192598690387"><ele>1304.0</ele><time>2026-05-03T10:52:17Z</time></trkpt><trkpt lat="38.16828902598889" lon="15.83299820083615"><ele>1304.0</ele><time>2026-05-03T10:52:18Z</time></trkpt><trkpt lat="38.16824284721985" lon="15.832806180759523"><ele>1304.0</ele><time>2026-05-03T10:52:19Z</time></trkpt><trkpt lat="38.16819652649606" lon="15.832610012410385"><ele>1304.0</ele><time>2026-05-03T10:52:20Z</time></trkpt><trkpt lat="38.16815139494295" lon="15.832412495418636"><ele>1303.0</ele><time>2026-05-03T10:52:21Z</time></trkpt><trkpt lat="38.16810628339818" lon="15.832218473919218"><ele>1302.0</ele><time>2026-05-03T10:52:22Z</time></trkpt><trkpt lat="38.16804683854438" lon="15.832093546572947"><ele>1301.0</ele><time>2026-05-03T10:52:23Z</time></trkpt><trkpt lat="38.16792882401606" lon="15.831987455462842"><ele>1300.0</ele><time>2026-05-03T10:52:25Z</time></trkpt><trkpt lat="38.1678256295616" lon="15.831894079716102"><ele>1298.2</ele><time>2026-05-03T10:52:26Z</time></trkpt><trkpt lat="38.16772592511147" lon="15.831787911018802"><ele>1296.4</ele><time>2026-05-03T10:52:27Z</time></trkpt><trkpt lat="38.167628547568" lon="15.831727097291207"><ele>1294.6</ele><time>2026-05-03T10:52:28Z</time></trkpt><trkpt lat="38.16754273313711" lon="15.831642770652136"><ele>1292.8</ele><time>2026-05-03T10:52:29Z</time></trkpt><trkpt lat="38.167461031287715" lon="15.831578746184448"><ele>1291.0</ele><time>2026-05-03T10:52:30Z</time></trkpt><trkpt lat="38.16741986298235" lon="15.831483104995469"><ele>1291.0</ele><time>2026-05-03T10:52:31Z</time></trkpt><trkpt lat="38.16742652890033" lon="15.831381484329375"><ele>1291.0</ele><time>2026-05-03T10:52:32Z</time></trkpt><trkpt lat="38.16748672239196" lon="15.83126425612538"><ele>1291.0</ele><time>2026-05-03T10:52:33Z</time></trkpt><trkpt lat="38.16758111491902" lon="15.831183543225427"><ele>1291.0</ele><time>2026-05-03T10:52:34Z</time></trkpt><trkpt lat="38.16770025580172" lon="15.8311780300061"><ele>1291.0</ele><time>2026-05-03T10:52:35Z</time></trkpt><trkpt lat="38.16782275098004" lon="15.831162216563653"><ele>1291.0</ele><time>2026-05-03T10:52:36Z</time></trkpt><trkpt lat="38.167934575693245" lon="15.831092164444492"><ele>1291.0</ele><time>2026-05-03T10:52:37Z</time></trkpt><trkpt lat="38.16805891199792" lon="15.830991367933402"><ele>1291.0</ele><time>2026-05-03T10:52:38Z</time></trkpt><trkpt lat="38.16817711028811" lon="15.830843901960572"><ele>1291.0</ele><time>2026-05-03T10:52:39Z</time></trkpt><trkpt lat="38.16826882341175" lon="15.830659506193761"><ele>1286.0</ele><time>2026-05-03T10:52:40Z</time></trkpt><trkpt lat="38.168354107717285" lon="15.830488118290774"><ele>1281.0</ele><time>2026-05-03T10:52:41Z</time></trkpt><trkpt lat="38.16843850945163" lon="15.830320521172377"><ele>1276.0</ele><time>2026-05-03T10:52:42Z</time></trkpt><trkpt lat="38.16852470684588" lon="15.830168398855108"><ele>1274.0</ele><time>2026-05-03T10:52:43Z</time></trkpt><trkpt lat="38.16860128904844" lon="15.830013248464397"><ele>1272.0</ele><time>2026-05-03T10:52:44Z</time></trkpt><trkpt lat="38.16868887541067" lon="15.829869146604155"><ele>1270.0</ele><time>2026-05-03T10:52:45Z</time></trkpt><trkpt lat="38.16876624132363" lon="15.829722037139652"><ele>1268.0</ele><time>2026-05-03T10:52:46Z</time></trkpt><trkpt lat="38.168841616215055" lon="15.829578592124628"><ele>1268.0</ele><time>2026-05-03T10:52:47Z</time></trkpt><trkpt lat="38.16890653435849" lon="15.82944992142272"><ele>1268.0</ele><time>2026-05-03T10:52:48Z</time></trkpt><trkpt lat="38.168971944782456" lon="15.829327330618652"><ele>1268.0</ele><time>2026-05-03T10:52:49Z</time></trkpt><trkpt lat="38.16905773249275" lon="15.829234468042356"><ele>1268.0</ele><time>2026-05-03T10:52:50Z</time></trkpt><trkpt lat="38.16913928000425" lon="15.82919421312751"><ele>1268.0</ele><time>2026-05-03T10:52:51Z</time></trkpt><trkpt lat="38.16920516309225" lon="15.82921675927624"><ele>1268.2</ele><time>2026-05-03T10:52:52Z</time></trkpt><trkpt lat="38.169292218515125" lon="15.829181677453938"><ele>1268.4</ele><time>2026-05-03T10:52:53Z</time></trkpt><trkpt lat="38.1692893138929" lon="15.829290605899393"><ele>1268.6000000000001</ele><time>2026-05-03T10:52:54Z</time></trkpt><trkpt lat="38.16922783564794" lon="15.829349765773518"><ele>1268.8</ele><time>2026-05-03T10:52:55Z</time></trkpt><trkpt lat="38.16914523510742" lon="15.829428393825618"><ele>1269.0</ele><time>2026-05-03T10:52:56Z</time></trkpt><trkpt lat="38.169156462260894" lon="15.83001320359728"><ele>1269.0</ele><time>2026-05-03T10:52:57Z</time></trkpt><trkpt lat="38.16918937364685" lon="15.830102020956545"><ele>1269.0</ele><time>2026-05-03T10:52:58Z</time></trkpt><trkpt lat="38.1692755162007" lon="15.830124358676295"><ele>1269.0</ele><time>2026-05-03T10:52:59Z</time></trkpt><trkpt lat="38.169341278076374" lon="15.8301172996185"><ele>1269.0</ele><time>2026-05-03T10:53:00Z</time></trkpt><trkpt lat="38.16939796965371" lon="15.829939950577812"><ele>1269.0</ele><time>2026-05-03T10:53:01Z</time></trkpt><trkpt lat="38.16942913328301" lon="15.829798550394557"><ele>1269.0</ele><time>2026-05-03T10:53:02Z</time></trkpt><trkpt lat="38.16947665759175" lon="15.829638627024726"><ele>1269.0</ele><time>2026-05-03T10:53:03Z</time></trkpt><trkpt lat="38.169524342938644" lon="15.829467724671012"><ele>1269.0</ele><time>2026-05-03T10:53:04Z</time></trkpt><trkpt lat="38.16956601420273" lon="15.829294518967398"><ele>1269.0</ele><time>2026-05-03T10:53:05Z</time></trkpt><trkpt lat="38.16960475106227" lon="15.829142959120194"><ele>1269.25</ele><time>2026-05-03T10:53:06Z</time></trkpt><trkpt lat="38.169664974974744" lon="15.829018329482894"><ele>1269.5</ele><time>2026-05-03T10:53:07.001Z</time></trkpt><trkpt lat="38.16977383448193" lon="15.828921699276222"><ele>1269.75</ele><time>2026-05-03T10:53:08.001Z</time></trkpt><trkpt lat="38.169893425656284" lon="15.828846114998711"><ele>1270.0</ele><time>2026-05-03T10:53:09.001Z</time></trkpt><trkpt lat="38.170017714041236" lon="15.828780976617125"><ele>1266.4</ele><time>2026-05-03T10:53:10.001Z</time></trkpt><trkpt lat="38.17013636411091" lon="15.828725816653428"><ele>1262.8</ele><time>2026-05-03T10:53:11.001Z</time></trkpt><trkpt lat="38.170237994419125" lon="15.828679200900424"><ele>1259.2</ele><time>2026-05-03T10:53:12.001Z</time></trkpt><trkpt lat="38.17031433724293" lon="15.828570450893205"><ele>1255.6</ele><time>2026-05-03T10:53:14.001Z</time></trkpt><trkpt lat="38.170293863487785" lon="15.828464597620178"><ele>1252.0</ele><time>2026-05-03T10:53:15.001Z</time></trkpt><trkpt lat="38.17018434133528" lon="15.828398381398902"><ele>1252.0</ele><time>2026-05-03T10:53:16.001Z</time></trkpt><trkpt lat="38.17007742235708" lon="15.828431586256603"><ele>1252.0</ele><time>2026-05-03T10:53:17.001Z</time></trkpt><trkpt lat="38.16996883527612" lon="15.828479582486843"><ele>1252.0</ele><time>2026-05-03T10:53:18Z</time></trkpt><trkpt lat="38.16985396258434" lon="15.828504368659141"><ele>1252.0</ele><time>2026-05-03T10:53:19Z</time></trkpt><trkpt lat="38.169746291628115" lon="15.828496847726216"><ele>1252.0</ele><time>2026-05-03T10:53:20Z</time></trkpt><trkpt lat="38.169660807860325" lon="15.828494760682306"><ele>1250.8</ele><time>2026-05-03T10:53:21Z</time></trkpt><trkpt lat="38.16956114102685" lon="15.828418376210882"><ele>1249.6</ele><time>2026-05-03T10:53:23Z</time></trkpt><trkpt lat="38.16957466257007" lon="15.828298451088108"><ele>1248.3999999999999</ele><time>2026-05-03T10:53:24Z</time></trkpt><trkpt lat="38.16962876276911" lon="15.82823038957711"><ele>1247.2</ele><time>2026-05-03T10:53:25Z</time></trkpt><trkpt lat="38.16971898508136" lon="15.828238566873795"><ele>1246.0</ele><time>2026-05-03T10:53:26Z</time></trkpt><trkpt lat="38.169813861936106" lon="15.82822359623435"><ele>1243.25</ele><time>2026-05-03T10:53:27Z</time></trkpt><trkpt lat="38.16992301885025" lon="15.828191410680773"><ele>1240.5</ele><time>2026-05-03T10:53:28Z</time></trkpt><trkpt lat="38.17005361199865" lon="15.828148175092783"><ele>1237.75</ele><time>2026-05-03T10:53:29Z</time></trkpt><trkpt lat="38.170193003366364" lon="15.828118423966767"><ele>1235.0</ele><time>2026-05-03T10:53:30Z</time></trkpt><trkpt lat="38.17032725750347" lon="15.828075429131033"><ele>1235.0</ele><time>2026-05-03T10:53:31Z</time></trkpt><trkpt lat="38.170442314898644" lon="15.828044483252139"><ele>1235.0</ele><time>2026-05-03T10:53:32Z</time></trkpt><trkpt lat="38.170551413841295" lon="15.828005919903104"><ele>1235.0</ele><time>2026-05-03T10:53:33Z</time></trkpt><trkpt lat="38.170640845685746" lon="15.827969315167653"><ele>1235.0</ele><time>2026-05-03T10:53:34Z</time></trkpt><trkpt lat="38.17070456566895" lon="15.827897704556635"><ele>1235.0</ele><time>2026-05-03T10:53:35Z</time></trkpt><trkpt lat="38.17072862822394" lon="15.827805061688734"><ele>1233.2</ele><time>2026-05-03T10:53:36Z</time></trkpt><trkpt lat="38.17070032901278" lon="15.827675962760365"><ele>1231.4</ele><time>2026-05-03T10:53:37Z</time></trkpt><trkpt lat="38.17059094515649" lon="15.827590183558263"><ele>1229.6</ele><time>2026-05-03T10:53:38Z</time></trkpt><trkpt lat="38.17051514890699" lon="15.82751837174443"><ele>1227.8</ele><time>2026-05-03T10:53:39Z</time></trkpt><trkpt lat="38.17043711625885" lon="15.827424844203478"><ele>1226.0</ele><time>2026-05-03T10:53:40Z</time></trkpt><trkpt lat="38.170404889798824" lon="15.827275037663739"><ele>1223.5</ele><time>2026-05-03T10:53:41Z</time></trkpt><trkpt lat="38.170402201909624" lon="15.827112823727475"><ele>1221.0</ele><time>2026-05-03T10:53:42Z</time></trkpt><trkpt lat="38.17047952921354" lon="15.826975965503921"><ele>1218.5</ele><time>2026-05-03T10:53:43Z</time></trkpt><trkpt lat="38.170548189026746" lon="15.826791170875714"><ele>1216.0</ele><time>2026-05-03T10:53:44Z</time></trkpt><trkpt lat="38.170644482934584" lon="15.826621977449717"><ele>1216.0</ele><time>2026-05-03T10:53:45Z</time></trkpt><trkpt lat="38.170737091444224" lon="15.826439536976105"><ele>1216.0</ele><time>2026-05-03T10:53:46Z</time></trkpt><trkpt lat="38.17082212763656" lon="15.826249485134802"><ele>1216.0</ele><time>2026-05-03T10:53:47Z</time></trkpt><trkpt lat="38.17089622171831" lon="15.826068062137814"><ele>1214.0</ele><time>2026-05-03T10:53:48Z</time></trkpt><trkpt lat="38.17095400373364" lon="15.825874379540691"><ele>1212.0</ele><time>2026-05-03T10:53:49Z</time></trkpt><trkpt lat="38.1710050805856" lon="15.825663391743655"><ele>1210.0</ele><time>2026-05-03T10:53:50Z</time></trkpt><trkpt lat="38.17104802223287" lon="15.825440951197796"><ele>1210.0</ele><time>2026-05-03T10:53:51Z</time></trkpt><trkpt lat="38.17106013512242" lon="15.82521432168546"><ele>1210.0</ele><time>2026-05-03T10:53:52Z</time></trkpt><trkpt lat="38.17107417191822" lon="15.8249833197991"><ele>1210.0</ele><time>2026-05-03T10:53:53Z</time></trkpt><trkpt lat="38.17108638857057" lon="15.824736031525179"><ele>1206.3333333333333</ele><time>2026-05-03T10:53:54Z</time></trkpt><trkpt lat="38.17110130105099" lon="15.824455197678319"><ele>1202.6666666666667</ele><time>2026-05-03T10:53:55Z</time></trkpt><trkpt lat="38.17111874922174" lon="15.824168059653514"><ele>1199.0</ele><time>2026-05-03T10:53:56Z</time></trkpt><trkpt lat="38.17113817617767" lon="15.823909111236121"><ele>1195.6666666666667</ele><time>2026-05-03T10:53:57Z</time></trkpt><trkpt lat="38.1711619618708" lon="15.82366009906116"><ele>1192.3333333333333</ele><time>2026-05-03T10:53:58Z</time></trkpt><trkpt lat="38.171184453046735" lon="15.823477506527597"><ele>1189.0</ele><time>2026-05-03T10:53:59Z</time></trkpt><trkpt lat="38.17121243693203" lon="15.823281410062892"><ele>1184.6666666666665</ele><time>2026-05-03T10:54:00Z</time></trkpt><trkpt lat="38.17123078313316" lon="15.823043945243224"><ele>1180.3333333333333</ele><time>2026-05-03T10:54:01Z</time></trkpt><trkpt lat="38.171254387687206" lon="15.822790695888905"><ele>1176.0</ele><time>2026-05-03T10:54:02Z</time></trkpt><trkpt lat="38.17129997333903" lon="15.822550704492818"><ele>1169.6666666666667</ele><time>2026-05-03T10:54:03Z</time></trkpt><trkpt lat="38.1713500277526" lon="15.822306750877226"><ele>1163.3333333333335</ele><time>2026-05-03T10:54:04Z</time></trkpt><trkpt lat="38.17139454705259" lon="15.822076901290673"><ele>1157.0</ele><time>2026-05-03T10:54:05Z</time></trkpt><trkpt lat="38.171445468976394" lon="15.82185823479372"><ele>1151.0</ele><time>2026-05-03T10:54:06Z</time></trkpt><trkpt lat="38.171489493910705" lon="15.821634508419935"><ele>1145.0</ele><time>2026-05-03T10:54:07Z</time></trkpt><trkpt lat="38.17154169195501" lon="15.821411768797761"><ele>1139.0</ele><time>2026-05-03T10:54:08Z</time></trkpt><trkpt lat="38.17160003931203" lon="15.82120258753726"><ele>1148.3333333333335</ele><time>2026-05-03T10:54:09Z</time></trkpt><trkpt lat="38.17164703952407" lon="15.82098546801999"><ele>1157.6666666666667</ele><time>2026-05-03T10:54:10Z</time></trkpt><trkpt lat="38.17168696784834" lon="15.820787922169073"><ele>1167.0</ele><time>2026-05-03T10:54:11Z</time></trkpt><trkpt lat="38.17173153769798" lon="15.820612806570441"><ele>1167.0</ele><time>2026-05-03T10:54:12Z</time></trkpt><trkpt lat="38.17175699900294" lon="15.82047078110425"><ele>1167.0</ele><time>2026-05-03T10:54:13Z</time></trkpt><trkpt lat="38.171792243329094" lon="15.820362232638066"><ele>1167.0</ele><time>2026-05-03T10:54:14Z</time></trkpt><trkpt lat="38.1718151999149" lon="15.82026396110585"><ele>1167.0</ele><time>2026-05-03T10:54:15Z</time></trkpt><trkpt lat="38.17182395471945" lon="15.820169903754508"><ele>1167.0</ele><time>2026-05-03T10:54:16Z</time></trkpt><trkpt lat="38.171862644491945" lon="15.820063757526471"><ele>1167.0</ele><time>2026-05-03T10:54:17Z</time></trkpt><trkpt lat="38.171895960373114" lon="15.819930696924413"><ele>1167.0</ele><time>2026-05-03T10:54:18Z</time></trkpt><trkpt lat="38.17193616366489" lon="15.819786838125882"><ele>1167.0</ele><time>2026-05-03T10:54:19Z</time></trkpt><trkpt lat="38.1719743526732" lon="15.819621762556933"><ele>1167.0</ele><time>2026-05-03T10:54:20Z</time></trkpt><trkpt lat="38.1720144053675" lon="15.81943732886908"><ele>1168.0</ele><time>2026-05-03T10:54:21Z</time></trkpt><trkpt lat="38.17206155141139" lon="15.819225378885351"><ele>1169.0</ele><time>2026-05-03T10:54:22Z</time></trkpt><trkpt lat="38.172106100036295" lon="15.819021827649358"><ele>1170.0</ele><time>2026-05-03T10:54:23Z</time></trkpt><trkpt lat="38.17212803152352" lon="15.818798127606982"><ele>1170.0</ele><time>2026-05-03T10:54:24Z</time></trkpt><trkpt lat="38.17212075776123" lon="15.818569356029233"><ele>1170.0</ele><time>2026-05-03T10:54:25Z</time></trkpt><trkpt lat="38.17211423669968" lon="15.818345003933997"><ele>1170.0</ele><time>2026-05-03T10:54:26Z</time></trkpt><trkpt lat="38.17209246532378" lon="15.818123259002796"><ele>1170.3333333333333</ele><time>2026-05-03T10:54:27Z</time></trkpt><trkpt lat="38.172058987550216" lon="15.817911901969927"><ele>1170.6666666666665</ele><time>2026-05-03T10:54:28Z</time></trkpt><trkpt lat="38.17200147658237" lon="15.817727665940687"><ele>1171.0</ele><time>2026-05-03T10:54:29Z</time></trkpt><trkpt lat="38.17193346761191" lon="15.81753266268818"><ele>1169.3333333333333</ele><time>2026-05-03T10:54:30Z</time></trkpt><trkpt lat="38.17184125293253" lon="15.817340016972956"><ele>1167.6666666666667</ele><time>2026-05-03T10:54:31Z</time></trkpt><trkpt lat="38.17175335640176" lon="15.817149355892976"><ele>1166.0</ele><time>2026-05-03T10:54:32Z</time></trkpt><trkpt lat="38.17164744707556" lon="15.816976119792747"><ele>1166.0</ele><time>2026-05-03T10:54:33Z</time></trkpt><trkpt lat="38.17157293228382" lon="15.81679505010401"><ele>1166.0</ele><time>2026-05-03T10:54:34Z</time></trkpt><trkpt lat="38.17151042872143" lon="15.816631023813498"><ele>1166.0</ele><time>2026-05-03T10:54:35Z</time></trkpt><trkpt lat="38.17149839485003" lon="15.816448021891858"><ele>1166.0</ele><time>2026-05-03T10:54:36Z</time></trkpt><trkpt lat="38.17152875499184" lon="15.816277183629007"><ele>1166.0</ele><time>2026-05-03T10:54:37Z</time></trkpt><trkpt lat="38.17156143553065" lon="15.816034869496793"><ele>1166.0</ele><time>2026-05-03T10:54:38Z</time></trkpt><trkpt lat="38.17158948249808" lon="15.815801230746771"><ele>1166.0</ele><time>2026-05-03T10:54:39Z</time></trkpt><trkpt lat="38.17161154330546" lon="15.81556482864117"><ele>1164.0</ele><time>2026-05-03T10:54:40Z</time></trkpt><trkpt lat="38.17162073014535" lon="15.815297073425697"><ele>1162.0</ele><time>2026-05-03T10:54:41Z</time></trkpt><trkpt lat="38.1715852950938" lon="15.815057905110672"><ele>1160.0</ele><time>2026-05-03T10:54:42Z</time></trkpt><trkpt lat="38.17155526232492" lon="15.814844957394921"><ele>1156.25</ele><time>2026-05-03T10:54:43Z</time></trkpt><trkpt lat="38.17151979067486" lon="15.814657442853425"><ele>1152.5</ele><time>2026-05-03T10:54:44Z</time></trkpt><trkpt lat="38.17148599449947" lon="15.81450577806484"><ele>1148.75</ele><time>2026-05-03T10:54:45Z</time></trkpt><trkpt lat="38.17147913654985" lon="15.814355098473541"><ele>1145.0</ele><time>2026-05-03T10:54:46Z</time></trkpt><trkpt lat="38.17155328918544" lon="15.814206801037816"><ele>1145.0</ele><time>2026-05-03T10:54:47Z</time></trkpt><trkpt lat="38.1716219123594" lon="15.814098398556888"><ele>1145.0</ele><time>2026-05-03T10:54:48Z</time></trkpt><trkpt lat="38.17175073642526" lon="15.814005372667935"><ele>1145.0</ele><time>2026-05-03T10:54:49Z</time></trkpt><trkpt lat="38.171906099352505" lon="15.813957329809572"><ele>1145.0</ele><time>2026-05-03T10:54:50Z</time></trkpt><trkpt lat="38.172101189199054" lon="15.81391872488029"><ele>1145.0</ele><time>2026-05-03T10:54:51Z</time></trkpt><trkpt lat="38.17231030578398" lon="15.81385644965935"><ele>1145.0</ele><time>2026-05-03T10:54:52Z</time></trkpt><trkpt lat="38.17253053467766" lon="15.813790732159694"><ele>1145.0</ele><time>2026-05-03T10:54:53Z</time></trkpt><trkpt lat="38.172742328980405" lon="15.81371568310364"><ele>1145.0</ele><time>2026-05-03T10:54:54Z</time></trkpt><trkpt lat="38.172975320683804" lon="15.813651732331575"><ele>1145.0</ele><time>2026-05-03T10:54:55Z</time></trkpt><trkpt lat="38.17317965988118" lon="15.813610516663577"><ele>1145.0</ele><time>2026-05-03T10:54:56Z</time></trkpt><trkpt lat="38.17333975225498" lon="15.813540428450535"><ele>1137.6666666666667</ele><time>2026-05-03T10:54:57Z</time></trkpt><trkpt lat="38.17349233448624" lon="15.813415446139354"><ele>1130.3333333333333</ele><time>2026-05-03T10:54:58Z</time></trkpt><trkpt lat="38.17364711064489" lon="15.813323629161903"><ele>1123.0</ele><time>2026-05-03T10:54:59Z</time></trkpt><trkpt lat="38.173799965852645" lon="15.813146435741261"><ele>1123.0</ele><time>2026-05-03T10:55:00Z</time></trkpt><trkpt lat="38.17392220371877" lon="15.812908621969774"><ele>1123.0</ele><time>2026-05-03T10:55:01Z</time></trkpt><trkpt lat="38.17405649361757" lon="15.812695998086115"><ele>1123.0</ele><time>2026-05-03T10:55:02Z</time></trkpt><trkpt lat="38.174209162265036" lon="15.812529860794255"><ele>1121.0</ele><time>2026-05-03T10:55:03Z</time></trkpt><trkpt lat="38.17434060821212" lon="15.812362635413253"><ele>1119.0</ele><time>2026-05-03T10:55:04Z</time></trkpt><trkpt lat="38.17444669705779" lon="15.812221811022035"><ele>1117.0</ele><time>2026-05-03T10:55:05Z</time></trkpt><trkpt lat="38.17455128735491" lon="15.812101834809368"><ele>1117.0</ele><time>2026-05-03T10:55:06Z</time></trkpt><trkpt lat="38.17466470896083" lon="15.812024989573537"><ele>1117.0</ele><time>2026-05-03T10:55:07Z</time></trkpt><trkpt lat="38.1747873909526" lon="15.811963693365934"><ele>1117.0</ele><time>2026-05-03T10:55:08Z</time></trkpt><trkpt lat="38.17492959744553" lon="15.811890040237172"><ele>1117.0</ele><time>2026-05-03T10:55:09Z</time></trkpt><trkpt lat="38.175073591816044" lon="15.811821256112488"><ele>1115.4</ele><time>2026-05-03T10:55:10Z</time></trkpt><trkpt lat="38.17520152087623" lon="15.811759416250098"><ele>1113.8000000000002</ele><time>2026-05-03T10:55:11Z</time></trkpt><trkpt lat="38.175285031882865" lon="15.811712172764187"><ele>1112.2</ele><time>2026-05-03T10:55:12Z</time></trkpt><trkpt lat="38.175380085136055" lon="15.81165045802035"><ele>1110.6000000000001</ele><time>2026-05-03T10:55:13Z</time></trkpt><trkpt lat="38.17542955822731" lon="15.811561476889228"><ele>1109.0</ele><time>2026-05-03T10:55:14Z</time></trkpt><trkpt lat="38.17542671232656" lon="15.811282628882914"><ele>1109.0</ele><time>2026-05-03T10:55:15Z</time></trkpt><trkpt lat="38.175380592775284" lon="15.811082672209752"><ele>1109.0</ele><time>2026-05-03T10:55:16Z</time></trkpt><trkpt lat="38.17534139228932" lon="15.810875394158202"><ele>1109.0</ele><time>2026-05-03T10:55:17Z</time></trkpt><trkpt lat="38.17524918862943" lon="15.810554241654087"><ele>1105.0</ele><time>2026-05-03T10:55:18Z</time></trkpt><trkpt lat="38.17522593004467" lon="15.81030044792254"><ele>1101.0</ele><time>2026-05-03T10:55:19Z</time></trkpt><trkpt lat="38.17521778160889" lon="15.810046480968063"><ele>1097.0</ele><time>2026-05-03T10:55:20Z</time></trkpt><trkpt lat="38.17519012486073" lon="15.809824275905877"><ele>1096.6666666666667</ele><time>2026-05-03T10:55:21Z</time></trkpt><trkpt lat="38.17515365184113" lon="15.80960398156725"><ele>1096.3333333333333</ele><time>2026-05-03T10:55:22Z</time></trkpt><trkpt lat="38.17508125147617" lon="15.809377669250734"><ele>1096.0</ele><time>2026-05-03T10:55:23Z</time></trkpt><trkpt lat="38.17504950120367" lon="15.809245570727276"><ele>1096.0</ele><time>2026-05-03T10:55:24Z</time></trkpt><trkpt lat="38.17504154582872" lon="15.809069275641066"><ele>1096.0</ele><time>2026-05-03T10:55:25Z</time></trkpt><trkpt lat="38.17506747744509" lon="15.808898312449422"><ele>1096.0</ele><time>2026-05-03T10:55:26Z</time></trkpt><trkpt lat="38.175110422050615" lon="15.808618786734698"><ele>1094.0</ele><time>2026-05-03T10:55:27Z</time></trkpt><trkpt lat="38.17513759514612" lon="15.80833131984338"><ele>1092.0</ele><time>2026-05-03T10:55:28Z</time></trkpt><trkpt lat="38.17516519102189" lon="15.808073958787013"><ele>1090.0</ele><time>2026-05-03T10:55:29Z</time></trkpt><trkpt lat="38.17518270742758" lon="15.807823633957947"><ele>1088.6666666666665</ele><time>2026-05-03T10:55:30Z</time></trkpt><trkpt lat="38.17517934069913" lon="15.807593488640375"><ele>1087.3333333333333</ele><time>2026-05-03T10:55:31Z</time></trkpt><trkpt lat="38.17519616180743" lon="15.8073760821302"><ele>1086.0</ele><time>2026-05-03T10:55:32Z</time></trkpt><trkpt lat="38.17525497666964" lon="15.807173050568462"><ele>1086.0</ele><time>2026-05-03T10:55:33Z</time></trkpt><trkpt lat="38.17530627611686" lon="15.806972405702144"><ele>1086.0</ele><time>2026-05-03T10:55:34Z</time></trkpt><trkpt lat="38.175347151741185" lon="15.806764589836515"><ele>1086.0</ele><time>2026-05-03T10:55:35Z</time></trkpt><trkpt lat="38.17536234850871" lon="15.806534875388873"><ele>1084.0</ele><time>2026-05-03T10:55:36Z</time></trkpt><trkpt lat="38.17535300236402" lon="15.806288978000756"><ele>1082.0</ele><time>2026-05-03T10:55:37Z</time></trkpt><trkpt lat="38.17535722383839" lon="15.806053328668419"><ele>1080.0</ele><time>2026-05-03T10:55:38Z</time></trkpt><trkpt lat="38.175381472969434" lon="15.805844475317485"><ele>1076.0</ele><time>2026-05-03T10:55:39Z</time></trkpt><trkpt lat="38.17543167073161" lon="15.805635241249131"><ele>1072.0</ele><time>2026-05-03T10:55:40Z</time></trkpt><trkpt lat="38.17551417963016" lon="15.805427660412288"><ele>1068.0</ele><time>2026-05-03T10:55:41Z</time></trkpt><trkpt lat="38.17561705833226" lon="15.80520722669496"><ele>1072.6666666666667</ele><time>2026-05-03T10:55:42Z</time></trkpt><trkpt lat="38.17570331626892" lon="15.804955539443345"><ele>1077.3333333333335</ele><time>2026-05-03T10:55:43Z</time></trkpt><trkpt lat="38.17578535500451" lon="15.804695079327972"><ele>1082.0</ele><time>2026-05-03T10:55:44Z</time></trkpt><trkpt lat="38.17586376089204" lon="15.804429146224415"><ele>1075.6666666666667</ele><time>2026-05-03T10:55:45Z</time></trkpt><trkpt lat="38.175944565463034" lon="15.804173324892146"><ele>1069.3333333333333</ele><time>2026-05-03T10:55:46Z</time></trkpt><trkpt lat="38.17604104514919" lon="15.803910679510862"><ele>1063.0</ele><time>2026-05-03T10:55:47Z</time></trkpt><trkpt lat="38.176107185519086" lon="15.803697404119125"><ele>1058.6666666666665</ele><time>2026-05-03T10:55:48Z</time></trkpt><trkpt lat="38.17618304059363" lon="15.803477851593428"><ele>1054.3333333333333</ele><time>2026-05-03T10:55:49Z</time></trkpt><trkpt lat="38.176250983832" lon="15.803267502827529"><ele>1050.0</ele><time>2026-05-03T10:55:50Z</time></trkpt><trkpt lat="38.17630873276313" lon="15.803074461098731"><ele>1050.0</ele><time>2026-05-03T10:55:51Z</time></trkpt><trkpt lat="38.17634020878001" lon="15.802919437393003"><ele>1050.0</ele><time>2026-05-03T10:55:52Z</time></trkpt><trkpt lat="38.17633218692563" lon="15.802751884924946"><ele>1050.0</ele><time>2026-05-03T10:55:53Z</time></trkpt><trkpt lat="38.17628561512516" lon="15.80260539266296"><ele>1050.0</ele><time>2026-05-03T10:55:54Z</time></trkpt><trkpt lat="38.176162683408144" lon="15.802455978761433"><ele>1049.6666666666667</ele><time>2026-05-03T10:55:55Z</time></trkpt><trkpt lat="38.176021814689236" lon="15.802351535242497"><ele>1049.3333333333335</ele><time>2026-05-03T10:55:56Z</time></trkpt><trkpt lat="38.17588424143161" lon="15.802260700898312"><ele>1049.0</ele><time>2026-05-03T10:55:57Z</time></trkpt><trkpt lat="38.17578473082546" lon="15.80213685416184"><ele>1049.0</ele><time>2026-05-03T10:55:58Z</time></trkpt><trkpt lat="38.175761718896815" lon="15.801985711354002"><ele>1049.0</ele><time>2026-05-03T10:55:59Z</time></trkpt><trkpt lat="38.17573091313015" lon="15.801839508373124"><ele>1049.0</ele><time>2026-05-03T10:56:00Z</time></trkpt><trkpt lat="38.17569407794249" lon="15.801616425657482"><ele>1049.0</ele><time>2026-05-03T10:56:01Z</time></trkpt><trkpt lat="38.175700664562754" lon="15.801393528491333"><ele>1049.3333333333335</ele><time>2026-05-03T10:56:02Z</time></trkpt><trkpt lat="38.17572059430378" lon="15.801140218082432"><ele>1049.6666666666667</ele><time>2026-05-03T10:56:03Z</time></trkpt><trkpt lat="38.17574437037617" lon="15.800893835930461"><ele>1050.0</ele><time>2026-05-03T10:56:04Z</time></trkpt><trkpt lat="38.175753408301354" lon="15.800655217087163"><ele>1050.0</ele><time>2026-05-03T10:56:05Z</time></trkpt><trkpt lat="38.175762517622154" lon="15.800461372540619"><ele>1050.0</ele><time>2026-05-03T10:56:06Z</time></trkpt><trkpt lat="38.17576609952513" lon="15.800284946518914"><ele>1050.0</ele><time>2026-05-03T10:56:07Z</time></trkpt><trkpt lat="38.17574875895964" lon="15.800127649855503"><ele>1050.0</ele><time>2026-05-03T10:56:08Z</time></trkpt><trkpt lat="38.175725544067674" lon="15.800008450123292"><ele>1043.25</ele><time>2026-05-03T10:56:09Z</time></trkpt><trkpt lat="38.17565906871274" lon="15.799963182230927"><ele>1036.5</ele><time>2026-05-03T10:56:10Z</time></trkpt><trkpt lat="38.175553651649466" lon="15.79996229864446"><ele>1029.75</ele><time>2026-05-03T10:56:11Z</time></trkpt><trkpt lat="38.17543458693649" lon="15.800063733011347"><ele>1023.0</ele><time>2026-05-03T10:56:12Z</time></trkpt><trkpt lat="38.17536036443063" lon="15.800228857655842"><ele>1023.0</ele><time>2026-05-03T10:56:13Z</time></trkpt><trkpt lat="38.17529971572316" lon="15.800438197741693"><ele>1023.0</ele><time>2026-05-03T10:56:14Z</time></trkpt><trkpt lat="38.17522213574112" lon="15.80062701243765"><ele>1023.0</ele><time>2026-05-03T10:56:15Z</time></trkpt><trkpt lat="38.175145447676506" lon="15.800796186120031"><ele>1023.0</ele><time>2026-05-03T10:56:16Z</time></trkpt><trkpt lat="38.17513255790841" lon="15.800946833211563"><ele>1023.0</ele><time>2026-05-03T10:56:17Z</time></trkpt><trkpt lat="38.17511079267734" lon="15.801120682323504"><ele>1023.0</ele><time>2026-05-03T10:56:18Z</time></trkpt><trkpt lat="38.175197931301994" lon="15.801371220034659"><ele>1023.0</ele><time>2026-05-03T10:56:19Z</time></trkpt><trkpt lat="38.17522118447581" lon="15.801578255070698"><ele>1023.0</ele><time>2026-05-03T10:56:20Z</time></trkpt><trkpt lat="38.17522474577109" lon="15.801767870254196"><ele>1023.0</ele><time>2026-05-03T10:56:21Z</time></trkpt><trkpt lat="38.17520564054712" lon="15.80193742527367"><ele>1023.0</ele><time>2026-05-03T10:56:22Z</time></trkpt><trkpt lat="38.17517143381118" lon="15.802084895209482"><ele>1023.0</ele><time>2026-05-03T10:56:23Z</time></trkpt><trkpt lat="38.175123904579806" lon="15.802242669734705"><ele>1023.0</ele><time>2026-05-03T10:56:24Z</time></trkpt><trkpt lat="38.17504469784897" lon="15.802428782067063"><ele>1023.0</ele><time>2026-05-03T10:56:25Z</time></trkpt><trkpt lat="38.17495197625367" lon="15.802574085794637"><ele>1023.0</ele><time>2026-05-03T10:56:26Z</time></trkpt><trkpt lat="38.174874131051126" lon="15.802742530863071"><ele>1020.5999999999999</ele><time>2026-05-03T10:56:27Z</time></trkpt><trkpt lat="38.17478067107585" lon="15.80287691925228"><ele>1018.1999999999999</ele><time>2026-05-03T10:56:28Z</time></trkpt><trkpt lat="38.17471752904459" lon="15.802988804693955"><ele>1015.8</ele><time>2026-05-03T10:56:29Z</time></trkpt><trkpt lat="38.17464196171887" lon="15.803052845953756"><ele>1013.4</ele><time>2026-05-03T10:56:30Z</time></trkpt><trkpt lat="38.174556020624365" lon="15.803104981516436"><ele>1011.0</ele><time>2026-05-03T10:56:31Z</time></trkpt><trkpt lat="38.174440637858446" lon="15.803077758235759"><ele>1011.0</ele><time>2026-05-03T10:56:32Z</time></trkpt><trkpt lat="38.174335034661446" lon="15.803042985553848"><ele>1011.0</ele><time>2026-05-03T10:56:33Z</time></trkpt><trkpt lat="38.17426426736704" lon="15.802926741083615"><ele>1011.0</ele><time>2026-05-03T10:56:34Z</time></trkpt><trkpt lat="38.174217449916" lon="15.802775434586689"><ele>1011.0</ele><time>2026-05-03T10:56:35Z</time></trkpt><trkpt lat="38.174184660424736" lon="15.802643336363703"><ele>1010.25</ele><time>2026-05-03T10:56:36Z</time></trkpt><trkpt lat="38.17421793977522" lon="15.802526464069302"><ele>1009.5</ele><time>2026-05-03T10:56:37Z</time></trkpt><trkpt lat="38.174273143733316" lon="15.802407120410738"><ele>1008.75</ele><time>2026-05-03T10:56:38Z</time></trkpt><trkpt lat="38.174327177939695" lon="15.802265500533826"><ele>1008.0</ele><time>2026-05-03T10:56:39Z</time></trkpt><trkpt lat="38.17440975695965" lon="15.80211831095738"><ele>1008.0</ele><time>2026-05-03T10:56:40Z</time></trkpt><trkpt lat="38.174489633029964" lon="15.801909553147462"><ele>1008.0</ele><time>2026-05-03T10:56:41Z</time></trkpt><trkpt lat="38.174518491040125" lon="15.801693750252227"><ele>1008.0</ele><time>2026-05-03T10:56:42Z</time></trkpt><trkpt lat="38.17453925361157" lon="15.801469907716605"><ele>1006.0</ele><time>2026-05-03T10:56:43Z</time></trkpt><trkpt lat="38.17455906362566" lon="15.801218440934543"><ele>1004.0</ele><time>2026-05-03T10:56:44Z</time></trkpt><trkpt lat="38.17459261365831" lon="15.800956593859722"><ele>1002.0</ele><time>2026-05-03T10:56:45Z</time></trkpt><trkpt lat="38.1746150481115" lon="15.800673205684877"><ele>1000.0</ele><time>2026-05-03T10:56:46Z</time></trkpt><trkpt lat="38.17465973528235" lon="15.800399379320295"><ele>998.0</ele><time>2026-05-03T10:56:47Z</time></trkpt><trkpt lat="38.174683679842836" lon="15.800152196206328"><ele>996.0</ele><time>2026-05-03T10:56:48Z</time></trkpt><trkpt lat="38.17469582770525" lon="15.79998584426646"><ele>993.6666666666667</ele><time>2026-05-03T10:56:49Z</time></trkpt><trkpt lat="38.174683822253684" lon="15.799798452151473"><ele>991.3333333333334</ele><time>2026-05-03T10:56:50Z</time></trkpt><trkpt lat="38.17462446320911" lon="15.79956425440777"><ele>989.0</ele><time>2026-05-03T10:56:51Z</time></trkpt><trkpt lat="38.17456889659904" lon="15.799311027132239"><ele>986.6666666666667</ele><time>2026-05-03T10:56:52Z</time></trkpt><trkpt lat="38.17451784478305" lon="15.799073979642852"><ele>984.3333333333333</ele><time>2026-05-03T10:56:53Z</time></trkpt><trkpt lat="38.1744881362148" lon="15.798866165094227"><ele>982.0</ele><time>2026-05-03T10:56:54Z</time></trkpt><trkpt lat="38.17447938317304" lon="15.798666923388751"><ele>980.6666666666666</ele><time>2026-05-03T10:56:55Z</time></trkpt><trkpt lat="38.174498139470415" lon="15.79843561314232"><ele>979.3333333333333</ele><time>2026-05-03T10:56:56Z</time></trkpt><trkpt lat="38.17452196892229" lon="15.7981933003053"><ele>978.0</ele><time>2026-05-03T10:56:57Z</time></trkpt><trkpt lat="38.17454132206397" lon="15.797959018268624"><ele>978.0</ele><time>2026-05-03T10:56:58Z</time></trkpt><trkpt lat="38.17456166382968" lon="15.797744909484539"><ele>978.0</ele><time>2026-05-03T10:56:59Z</time></trkpt><trkpt lat="38.174564544009705" lon="15.79755487041882"><ele>978.0</ele><time>2026-05-03T10:57:00Z</time></trkpt><trkpt lat="38.17452576234092" lon="15.797368493778439"><ele>977.0</ele><time>2026-05-03T10:57:01Z</time></trkpt><trkpt lat="38.174443215292406" lon="15.797190656773616"><ele>976.0</ele><time>2026-05-03T10:57:02Z</time></trkpt><trkpt lat="38.17433057835241" lon="15.797031131648613"><ele>975.0</ele><time>2026-05-03T10:57:03Z</time></trkpt><trkpt lat="38.17420236945329" lon="15.796887904595746"><ele>974.25</ele><time>2026-05-03T10:57:04Z</time></trkpt><trkpt lat="38.17415593182968" lon="15.796725314388048"><ele>973.5</ele><time>2026-05-03T10:57:05Z</time></trkpt><trkpt lat="38.174157092765654" lon="15.79656949376632"><ele>972.75</ele><time>2026-05-03T10:57:06Z</time></trkpt><trkpt lat="38.17417079975891" lon="15.796350453925953"><ele>972.0</ele><time>2026-05-03T10:57:07Z</time></trkpt><trkpt lat="38.17418002820136" lon="15.796115529672683"><ele>971.6666666666667</ele><time>2026-05-03T10:57:08Z</time></trkpt><trkpt lat="38.174185158287415" lon="15.795864600749844"><ele>971.3333333333334</ele><time>2026-05-03T10:57:09Z</time></trkpt><trkpt lat="38.17419001762651" lon="15.795637116945555"><ele>971.0</ele><time>2026-05-03T10:57:10Z</time></trkpt><trkpt lat="38.17421681800655" lon="15.795464129235164"><ele>971.0</ele><time>2026-05-03T10:57:11Z</time></trkpt><trkpt lat="38.17424664448139" lon="15.795315679119124"><ele>970.9999999999999</ele><time>2026-05-03T10:57:12Z</time></trkpt><trkpt lat="38.17426658718389" lon="15.795202194883935"><ele>970.9999999999999</ele><time>2026-05-03T10:57:13Z</time></trkpt><trkpt lat="38.17422642416594" lon="15.795133950412145"><ele>971.0</ele><time>2026-05-03T10:57:14Z</time></trkpt><trkpt lat="38.174145284726904" lon="15.79508589495339"><ele>971.0</ele><time>2026-05-03T10:57:15Z</time></trkpt><trkpt lat="38.174045667078445" lon="15.795190017307288"><ele>963.75</ele><time>2026-05-03T10:57:16Z</time></trkpt><trkpt lat="38.17398243301447" lon="15.795285979746787"><ele>956.5</ele><time>2026-05-03T10:57:17Z</time></trkpt><trkpt lat="38.17394127821394" lon="15.795390733585885"><ele>949.25</ele><time>2026-05-03T10:57:18Z</time></trkpt><trkpt lat="38.173876077375596" lon="15.7955551625222"><ele>942.0</ele><time>2026-05-03T10:57:19Z</time></trkpt><trkpt lat="38.17380517312443" lon="15.795881326801622"><ele>942.6666666666667</ele><time>2026-05-03T10:57:20Z</time></trkpt><trkpt lat="38.173734288382484" lon="15.796161821153017"><ele>943.3333333333334</ele><time>2026-05-03T10:57:21Z</time></trkpt><trkpt lat="38.17366748556916" lon="15.796420821668422"><ele>944.0</ele><time>2026-05-03T10:57:22Z</time></trkpt><trkpt lat="38.17361190973763" lon="15.79664730885824"><ele>946.0</ele><time>2026-05-03T10:57:23Z</time></trkpt><trkpt lat="38.17355871804441" lon="15.796860614041304"><ele>948.0</ele><time>2026-05-03T10:57:24.001Z</time></trkpt><trkpt lat="38.1734839197655" lon="15.797061423150286"><ele>950.0</ele><time>2026-05-03T10:57:25.001Z</time></trkpt><trkpt lat="38.173359504665754" lon="15.797216712101685"><ele>950.0</ele><time>2026-05-03T10:57:26.001Z</time></trkpt><trkpt lat="38.17325155607858" lon="15.797396597895757"><ele>950.0</ele><time>2026-05-03T10:57:27.001Z</time></trkpt><trkpt lat="38.173125091703405" lon="15.79757682503296"><ele>950.0</ele><time>2026-05-03T10:57:28.001Z</time></trkpt><trkpt lat="38.17300762646295" lon="15.797741163274413"><ele>946.6</ele><time>2026-05-03T10:57:29.001Z</time></trkpt><trkpt lat="38.172922751458636" lon="15.797869418230988"><ele>943.2</ele><time>2026-05-03T10:57:30Z</time></trkpt><trkpt lat="38.17283757867299" lon="15.797945310157942"><ele>939.8</ele><time>2026-05-03T10:57:31Z</time></trkpt><trkpt lat="38.172729876900874" lon="15.79793509020649"><ele>936.4</ele><time>2026-05-03T10:57:33Z</time></trkpt><trkpt lat="38.17272322257123" lon="15.797848594029668"><ele>933.0</ele><time>2026-05-03T10:57:34Z</time></trkpt><trkpt lat="38.17277784685891" lon="15.797723829969769"><ele>929.6666666666667</ele><time>2026-05-03T10:57:35Z</time></trkpt><trkpt lat="38.17286318961387" lon="15.79758972229369"><ele>926.3333333333334</ele><time>2026-05-03T10:57:36Z</time></trkpt><trkpt lat="38.17296658980733" lon="15.797435563080716"><ele>923.0</ele><time>2026-05-03T10:57:37Z</time></trkpt><trkpt lat="38.17303740993782" lon="15.797253818115255"><ele>923.0</ele><time>2026-05-03T10:57:38Z</time></trkpt><trkpt lat="38.173093576585636" lon="15.796981700724121"><ele>923.0</ele><time>2026-05-03T10:57:39Z</time></trkpt><trkpt lat="38.17312956258552" lon="15.7967597340903"><ele>923.0</ele><time>2026-05-03T10:57:40Z</time></trkpt><trkpt lat="38.17315293780773" lon="15.796562110168836"><ele>920.3333333333334</ele><time>2026-05-03T10:57:41Z</time></trkpt><trkpt lat="38.17318293635314" lon="15.796373149176787"><ele>917.6666666666667</ele><time>2026-05-03T10:57:42Z</time></trkpt><trkpt lat="38.17310927850148" lon="15.796161952129276"><ele>915.0</ele><time>2026-05-03T10:57:43Z</time></trkpt><trkpt lat="38.173054614761206" lon="15.795956576591161"><ele>913.5</ele><time>2026-05-03T10:57:44Z</time></trkpt><trkpt lat="38.17302050144054" lon="15.795786523466214"><ele>912.0</ele><time>2026-05-03T10:57:45Z</time></trkpt><trkpt lat="38.17301714494851" lon="15.795629630101443"><ele>910.5</ele><time>2026-05-03T10:57:46Z</time></trkpt><trkpt lat="38.17308817384887" lon="15.795452791564383"><ele>909.0</ele><time>2026-05-03T10:57:47Z</time></trkpt><trkpt lat="38.17317776566567" lon="15.795241337591035"><ele>915.3333333333333</ele><time>2026-05-03T10:57:48Z</time></trkpt><trkpt lat="38.17324631001605" lon="15.79498613245646"><ele>921.6666666666666</ele><time>2026-05-03T10:57:49Z</time></trkpt><trkpt lat="38.17333776931122" lon="15.794726459034885"><ele>928.0</ele><time>2026-05-03T10:57:50Z</time></trkpt><trkpt lat="38.17344484019588" lon="15.794469959079532"><ele>922.3333333333333</ele><time>2026-05-03T10:57:51Z</time></trkpt><trkpt lat="38.17351902444578" lon="15.794221153024058"><ele>916.6666666666667</ele><time>2026-05-03T10:57:52Z</time></trkpt><trkpt lat="38.17360439384675" lon="15.793982242804116"><ele>911.0</ele><time>2026-05-03T10:57:53Z</time></trkpt><trkpt lat="38.1736792398961" lon="15.793767639100038"><ele>911.0</ele><time>2026-05-03T10:57:54Z</time></trkpt><trkpt lat="38.17376238329035" lon="15.793540653542504"><ele>911.0</ele><time>2026-05-03T10:57:55Z</time></trkpt><trkpt lat="38.17382832649453" lon="15.793338516485573"><ele>911.0</ele><time>2026-05-03T10:57:56Z</time></trkpt><trkpt lat="38.17388034196714" lon="15.793166338278567"><ele>909.75</ele><time>2026-05-03T10:57:57Z</time></trkpt><trkpt lat="38.173971578019994" lon="15.793026565004892"><ele>908.5</ele><time>2026-05-03T10:57:58Z</time></trkpt><trkpt lat="38.17409999042888" lon="15.792924312684562"><ele>907.25</ele><time>2026-05-03T10:57:59Z</time></trkpt><trkpt lat="38.174192341686094" lon="15.792793622040525"><ele>906.0</ele><time>2026-05-03T10:58:00Z</time></trkpt><trkpt lat="38.174289802450964" lon="15.792639198928171"><ele>906.0</ele><time>2026-05-03T10:58:01Z</time></trkpt><trkpt lat="38.17432787479393" lon="15.792406148451326"><ele>906.0</ele><time>2026-05-03T10:58:02Z</time></trkpt><trkpt lat="38.174344756651415" lon="15.79213529401069"><ele>906.0</ele><time>2026-05-03T10:58:03Z</time></trkpt><trkpt lat="38.174373090711086" lon="15.791896191105097"><ele>902.6666666666667</ele><time>2026-05-03T10:58:04Z</time></trkpt><trkpt lat="38.17440588253221" lon="15.791660082024913"><ele>899.3333333333334</ele><time>2026-05-03T10:58:05Z</time></trkpt><trkpt lat="38.17441628520878" lon="15.791436458653035"><ele>896.0</ele><time>2026-05-03T10:58:06Z</time></trkpt><trkpt lat="38.174462433651115" lon="15.791273068480468"><ele>896.0</ele><time>2026-05-03T10:58:07Z</time></trkpt><trkpt lat="38.17453460649122" lon="15.79116853425349"><ele>895.9999999999999</ele><time>2026-05-03T10:58:08Z</time></trkpt><trkpt lat="38.1746103627875" lon="15.791092292625192"><ele>895.9999999999999</ele><time>2026-05-03T10:58:09Z</time></trkpt><trkpt lat="38.17469136947509" lon="15.791023059802903"><ele>896.0</ele><time>2026-05-03T10:58:10Z</time></trkpt><trkpt lat="38.17476775918637" lon="15.79092287202348"><ele>896.0</ele><time>2026-05-03T10:58:11Z</time></trkpt><trkpt lat="38.17481776607567" lon="15.790762422852882"><ele>891.5</ele><time>2026-05-03T10:58:12Z</time></trkpt><trkpt lat="38.1748314537241" lon="15.790646942393147"><ele>887.0</ele><time>2026-05-03T10:58:13Z</time></trkpt><trkpt lat="38.174805196109865" lon="15.790439864355571"><ele>882.5</ele><time>2026-05-03T10:58:14Z</time></trkpt><trkpt lat="38.174803518797965" lon="15.790251789731448"><ele>878.0</ele><time>2026-05-03T10:58:15Z</time></trkpt><trkpt lat="38.17481238347263" lon="15.790077111827653"><ele>881.5</ele><time>2026-05-03T10:58:16Z</time></trkpt><trkpt lat="38.174863704295326" lon="15.78993528171766"><ele>885.0</ele><time>2026-05-03T10:58:17Z</time></trkpt><trkpt lat="38.17495119939206" lon="15.789787221628792"><ele>888.5</ele><time>2026-05-03T10:58:18Z</time></trkpt><trkpt lat="38.17504698200209" lon="15.789626008686643"><ele>892.0</ele><time>2026-05-03T10:58:19Z</time></trkpt><trkpt lat="38.17513493799729" lon="15.789484812431539"><ele>887.6666666666666</ele><time>2026-05-03T10:58:20Z</time></trkpt><trkpt lat="38.17517386796361" lon="15.789296298298925"><ele>883.3333333333333</ele><time>2026-05-03T10:58:21Z</time></trkpt><trkpt lat="38.17518213499591" lon="15.789058763063833"><ele>879.0</ele><time>2026-05-03T10:58:22Z</time></trkpt><trkpt lat="38.1752292198192" lon="15.788805434125331"><ele>879.0</ele><time>2026-05-03T10:58:23Z</time></trkpt><trkpt lat="38.175291385156946" lon="15.788545636217203"><ele>879.0</ele><time>2026-05-03T10:58:24Z</time></trkpt><trkpt lat="38.175362764464616" lon="15.788293530573227"><ele>879.0</ele><time>2026-05-03T10:58:25Z</time></trkpt><trkpt lat="38.17542092497187" lon="15.787973740615902"><ele>873.5</ele><time>2026-05-03T10:58:26Z</time></trkpt><trkpt lat="38.175488171186885" lon="15.787684499132512"><ele>868.0</ele><time>2026-05-03T10:58:27Z</time></trkpt><trkpt lat="38.17555955240958" lon="15.787428817993572"><ele>867.3333333333333</ele><time>2026-05-03T10:58:28Z</time></trkpt><trkpt lat="38.175630698049375" lon="15.787144276190437"><ele>866.6666666666667</ele><time>2026-05-03T10:58:29Z</time></trkpt><trkpt lat="38.175693571454424" lon="15.786920453428511"><ele>866.0</ele><time>2026-05-03T10:58:30Z</time></trkpt><trkpt lat="38.175752265586944" lon="15.78669152837178"><ele>866.0</ele><time>2026-05-03T10:58:31Z</time></trkpt><trkpt lat="38.175828597765715" lon="15.78650584981535"><ele>866.0</ele><time>2026-05-03T10:58:32Z</time></trkpt><trkpt lat="38.17589781019675" lon="15.786325252414152"><ele>866.0</ele><time>2026-05-03T10:58:33Z</time></trkpt><trkpt lat="38.17597814067437" lon="15.78617294096717"><ele>866.0</ele><time>2026-05-03T10:58:34Z</time></trkpt><trkpt lat="38.17604659953201" lon="15.78601867926465"><ele>865.9999999999999</ele><time>2026-05-03T10:58:35Z</time></trkpt><trkpt lat="38.17611070338142" lon="15.785911393049764"><ele>865.9999999999999</ele><time>2026-05-03T10:58:36Z</time></trkpt><trkpt lat="38.17616608412164" lon="15.785836728037776"><ele>866.0</ele><time>2026-05-03T10:58:37Z</time></trkpt><trkpt lat="38.17609074731847" lon="15.785721201897836"><ele>866.0</ele><time>2026-05-03T10:58:38Z</time></trkpt><trkpt lat="38.176012087049955" lon="15.785651847239526"><ele>863.3333333333334</ele><time>2026-05-03T10:58:39Z</time></trkpt><trkpt lat="38.17584127815759" lon="15.785682689922856"><ele>860.6666666666667</ele><time>2026-05-03T10:58:40Z</time></trkpt><trkpt lat="38.175701656157464" lon="15.785801257611645"><ele>858.0</ele><time>2026-05-03T10:58:41Z</time></trkpt><trkpt lat="38.17556669224201" lon="15.785928589322763"><ele>854.3333333333333</ele><time>2026-05-03T10:58:42Z</time></trkpt><trkpt lat="38.1754317609528" lon="15.786080946981102"><ele>850.6666666666666</ele><time>2026-05-03T10:58:43Z</time></trkpt><trkpt lat="38.17531122334681" lon="15.786267584573102"><ele>847.0</ele><time>2026-05-03T10:58:44Z</time></trkpt><trkpt lat="38.17517467395619" lon="15.786432723976311"><ele>847.0</ele><time>2026-05-03T10:58:45Z</time></trkpt><trkpt lat="38.17503889475627" lon="15.786610605330605"><ele>847.0</ele><time>2026-05-03T10:58:46Z</time></trkpt><trkpt lat="38.17490208838557" lon="15.786795557006023"><ele>847.0</ele><time>2026-05-03T10:58:47Z</time></trkpt><trkpt lat="38.17476813951768" lon="15.786987406022888"><ele>840.6666666666666</ele><time>2026-05-03T10:58:48Z</time></trkpt><trkpt lat="38.17465895558243" lon="15.78719797877996"><ele>834.3333333333333</ele><time>2026-05-03T10:58:49Z</time></trkpt><trkpt lat="38.17456267500802" lon="15.787417225582658"><ele>828.0</ele><time>2026-05-03T10:58:50Z</time></trkpt><trkpt lat="38.1744652671866" lon="15.787644761255194"><ele>831.3333333333333</ele><time>2026-05-03T10:58:51Z</time></trkpt><trkpt lat="38.17437980773126" lon="15.787882082549917"><ele>834.6666666666666</ele><time>2026-05-03T10:58:52Z</time></trkpt><trkpt lat="38.17428786938489" lon="15.788117189686654"><ele>838.0</ele><time>2026-05-03T10:58:53Z</time></trkpt><trkpt lat="38.17420771976963" lon="15.788334753383666"><ele>840.3333333333333</ele><time>2026-05-03T10:58:54Z</time></trkpt><trkpt lat="38.174093332302775" lon="15.788519978851637"><ele>842.6666666666667</ele><time>2026-05-03T10:58:55Z</time></trkpt><trkpt lat="38.173991069735095" lon="15.788699843622217"><ele>845.0</ele><time>2026-05-03T10:58:56Z</time></trkpt><trkpt lat="38.1738977134707" lon="15.788864043609006"><ele>843.25</ele><time>2026-05-03T10:58:57Z</time></trkpt><trkpt lat="38.17383487629891" lon="15.78903423254561"><ele>841.5</ele><time>2026-05-03T10:58:58Z</time></trkpt><trkpt lat="38.173773846953786" lon="15.789182216270406"><ele>839.75</ele><time>2026-05-03T10:58:59Z</time></trkpt><trkpt lat="38.17372343416387" lon="15.789350751210018"><ele>838.0</ele><time>2026-05-03T10:59:00Z</time></trkpt><trkpt lat="38.17368948894929" lon="15.789504497748549"><ele>838.0</ele><time>2026-05-03T10:59:01Z</time></trkpt><trkpt lat="38.17365941553876" lon="15.789637980300338"><ele>838.0</ele><time>2026-05-03T10:59:02Z</time></trkpt><trkpt lat="38.17363154513845" lon="15.78976651064566"><ele>838.0</ele><time>2026-05-03T10:59:03Z</time></trkpt><trkpt lat="38.173627774488416" lon="15.789888173655799"><ele>838.0</ele><time>2026-05-03T10:59:04Z</time></trkpt><trkpt lat="38.17360217335733" lon="15.789969677836424"><ele>838.0</ele><time>2026-05-03T10:59:05Z</time></trkpt><trkpt lat="38.173524922543244" lon="15.790001294460875"><ele>838.0</ele><time>2026-05-03T10:59:06Z</time></trkpt><trkpt lat="38.173439924518775" lon="15.78997028986833"><ele>838.0</ele><time>2026-05-03T10:59:07Z</time></trkpt><trkpt lat="38.1733855195243" lon="15.789879760956232"><ele>838.0</ele><time>2026-05-03T10:59:08Z</time></trkpt><trkpt lat="38.17329358020262" lon="15.789795356563788"><ele>838.0</ele><time>2026-05-03T10:59:09Z</time></trkpt><trkpt lat="38.17312106359598" lon="15.789740035762364"><ele>831.0</ele><time>2026-05-03T10:59:10Z</time></trkpt><trkpt lat="38.172967329615254" lon="15.789728631225667"><ele>824.0</ele><time>2026-05-03T10:59:11Z</time></trkpt><trkpt lat="38.1727990923149" lon="15.789775219782902"><ele>817.0</ele><time>2026-05-03T10:59:12Z</time></trkpt><trkpt lat="38.172649414043946" lon="15.78976463490396"><ele>817.0</ele><time>2026-05-03T10:59:13Z</time></trkpt><trkpt lat="38.172515435865336" lon="15.789759619507485"><ele>817.0</ele><time>2026-05-03T10:59:14Z</time></trkpt><trkpt lat="38.17238893044248" lon="15.789818954674647"><ele>817.0</ele><time>2026-05-03T10:59:15Z</time></trkpt><trkpt lat="38.17225699455895" lon="15.789903949379138"><ele>817.0</ele><time>2026-05-03T10:59:16Z</time></trkpt><trkpt lat="38.17211690320997" lon="15.789973285601937"><ele>815.25</ele><time>2026-05-03T10:59:17Z</time></trkpt><trkpt lat="38.171985147488655" lon="15.790026447570787"><ele>813.5</ele><time>2026-05-03T10:59:18Z</time></trkpt><trkpt lat="38.171880239338634" lon="15.790090439676934"><ele>811.75</ele><time>2026-05-03T10:59:19Z</time></trkpt><trkpt lat="38.171787574077634" lon="15.79018155200613"><ele>810.0</ele><time>2026-05-03T10:59:20Z</time></trkpt><trkpt lat="38.17170478651018" lon="15.790341256789427"><ele>810.0</ele><time>2026-05-03T10:59:21Z</time></trkpt><trkpt lat="38.1716940577155" lon="15.790478258206933"><ele>810.0</ele><time>2026-05-03T10:59:22Z</time></trkpt><trkpt lat="38.17162951280505" lon="15.790567932365"><ele>810.0</ele><time>2026-05-03T10:59:23Z</time></trkpt><trkpt lat="38.17158649456199" lon="15.790691627899161"><ele>810.0</ele><time>2026-05-03T10:59:24Z</time></trkpt><trkpt lat="38.17149367140646" lon="15.790740879569231"><ele>810.0</ele><time>2026-05-03T10:59:25Z</time></trkpt><trkpt lat="38.17140918856424" lon="15.790747744343737"><ele>805.5</ele><time>2026-05-03T10:59:26Z</time></trkpt><trkpt lat="38.17131756587539" lon="15.790784571599275"><ele>801.0</ele><time>2026-05-03T10:59:27Z</time></trkpt><trkpt lat="38.17122971086222" lon="15.790837411401784"><ele>796.5</ele><time>2026-05-03T10:59:28Z</time></trkpt><trkpt lat="38.17114448994435" lon="15.7908549942692"><ele>792.0</ele><time>2026-05-03T10:59:29Z</time></trkpt><trkpt lat="38.17105909175628" lon="15.790887928409942"><ele>787.5</ele><time>2026-05-03T10:59:30Z</time></trkpt><trkpt lat="38.170994881953064" lon="15.790924106745967"><ele>783.0</ele><time>2026-05-03T10:59:31.001Z</time></trkpt><trkpt lat="38.170927407445205" lon="15.790962088781992"><ele>783.0</ele><time>2026-05-03T10:59:32.001Z</time></trkpt><trkpt lat="38.17086582841895" lon="15.791005744051718"><ele>783.0</ele><time>2026-05-03T10:59:33.001Z</time></trkpt><trkpt lat="38.17080440421116" lon="15.791080796844517"><ele>783.0</ele><time>2026-05-03T10:59:34.001Z</time></trkpt><trkpt lat="38.17077178945664" lon="15.791190132863374"><ele>783.0</ele><time>2026-05-03T10:59:35.001Z</time></trkpt><trkpt lat="38.17075215650187" lon="15.791305263369729"><ele>783.0</ele><time>2026-05-03T10:59:36.001Z</time></trkpt><trkpt lat="38.17072688446779" lon="15.791408008221067"><ele>783.0</ele><time>2026-05-03T10:59:37.001Z</time></trkpt><trkpt lat="38.170669568197546" lon="15.791481095819499"><ele>783.0</ele><time>2026-05-03T10:59:38.001Z</time></trkpt><trkpt lat="38.170606649722636" lon="15.791584997005975"><ele>783.0</ele><time>2026-05-03T10:59:39.001Z</time></trkpt><trkpt lat="38.1705288702971" lon="15.791617563808117"><ele>783.0</ele><time>2026-05-03T10:59:40.001Z</time></trkpt><trkpt lat="38.17047365589889" lon="15.791708318307636"><ele>783.0</ele><time>2026-05-03T10:59:41.001Z</time></trkpt><trkpt lat="38.1704403296124" lon="15.791788811770967"><ele>783.0</ele><time>2026-05-03T10:59:42Z</time></trkpt><trkpt lat="38.170410088317006" lon="15.791867042232287"><ele>783.0</ele><time>2026-05-03T10:59:43Z</time></trkpt><trkpt lat="38.170359879561666" lon="15.791917138597093"><ele>783.0</ele><time>2026-05-03T10:59:44Z</time></trkpt><trkpt lat="38.170295966252084" lon="15.791958393374703"><ele>783.0</ele><time>2026-05-03T10:59:45Z</time></trkpt><trkpt lat="38.170210155130334" lon="15.791908509360088"><ele>783.0</ele><time>2026-05-03T10:59:46Z</time></trkpt><trkpt lat="38.17012203976145" lon="15.791853366115832"><ele>783.0</ele><time>2026-05-03T10:59:47Z</time></trkpt><trkpt lat="38.17000681053072" lon="15.791831238721217"><ele>783.0</ele><time>2026-05-03T10:59:48Z</time></trkpt><trkpt lat="38.16985494181386" lon="15.791851811273082"><ele>782.0</ele><time>2026-05-03T10:59:49Z</time></trkpt><trkpt lat="38.169687072143404" lon="15.791867247965673"><ele>781.0</ele><time>2026-05-03T10:59:50Z</time></trkpt><trkpt lat="38.16951968108338" lon="15.791903300741524"><ele>780.0</ele><time>2026-05-03T10:59:51Z</time></trkpt><trkpt lat="38.16936722887246" lon="15.791907324832266"><ele>780.0</ele><time>2026-05-03T10:59:52Z</time></trkpt><trkpt lat="38.169254956121286" lon="15.791933841811625"><ele>780.0</ele><time>2026-05-03T10:59:53Z</time></trkpt><trkpt lat="38.169170690318126" lon="15.79199647404893"><ele>780.0</ele><time>2026-05-03T10:59:54Z</time></trkpt><trkpt lat="38.169104659278716" lon="15.792088798240124"><ele>780.0</ele><time>2026-05-03T10:59:55Z</time></trkpt><trkpt lat="38.1690540526622" lon="15.79215307824708"><ele>780.0</ele><time>2026-05-03T10:59:56Z</time></trkpt><trkpt lat="38.16899929838536" lon="15.792111839550738"><ele>780.0</ele><time>2026-05-03T10:59:58Z</time></trkpt><trkpt lat="38.169012970197144" lon="15.791967050673266"><ele>780.0</ele><time>2026-05-03T10:59:59Z</time></trkpt><trkpt lat="38.16911928162489" lon="15.791857536995533"><ele>780.0</ele><time>2026-05-03T11:00:00Z</time></trkpt><trkpt lat="38.169185858525786" lon="15.791781739948055"><ele>780.0</ele><time>2026-05-03T11:00:01Z</time></trkpt><trkpt lat="38.16925600684075" lon="15.791771145518926"><ele>780.0</ele><time>2026-05-03T11:00:02Z</time></trkpt><trkpt lat="38.169320445502294" lon="15.791703366693131"><ele>780.0</ele><time>2026-05-03T11:00:04Z</time></trkpt><trkpt lat="38.16943394497325" lon="15.79166040189363"><ele>780.75</ele><time>2026-05-03T11:00:18Z</time></trkpt><trkpt lat="38.16954374772517" lon="15.791727998860921"><ele>781.5</ele><time>2026-05-03T11:00:19Z</time></trkpt><trkpt lat="38.169675501908145" lon="15.791738000485083"><ele>782.25</ele><time>2026-05-03T11:00:20Z</time></trkpt><trkpt lat="38.16977836147247" lon="15.791707709453807"><ele>783.0</ele><time>2026-05-03T11:00:21Z</time></trkpt><trkpt lat="38.169903194105515" lon="15.791696346365782"><ele>783.0</ele><time>2026-05-03T11:00:22Z</time></trkpt><trkpt lat="38.170005468658665" lon="15.791666239845814"><ele>783.0</ele><time>2026-05-03T11:00:23Z</time></trkpt><trkpt lat="38.17009168303353" lon="15.791527108148088"><ele>783.0</ele><time>2026-05-03T11:00:25Z</time></trkpt><trkpt lat="38.16998711932782" lon="15.79131754953391"><ele>783.0</ele><time>2026-05-03T11:00:26Z</time></trkpt><trkpt lat="38.16991611440233" lon="15.791215799036959"><ele>779.8</ele><time>2026-05-03T11:00:27Z</time></trkpt><trkpt lat="38.16977262475491" lon="15.791195719193414"><ele>776.5999999999999</ele><time>2026-05-03T11:00:28Z</time></trkpt><trkpt lat="38.16966294478045" lon="15.79115657096356"><ele>773.4000000000001</ele><time>2026-05-03T11:00:29Z</time></trkpt><trkpt lat="38.16959071222423" lon="15.791097196303921"><ele>770.2</ele><time>2026-05-03T11:00:30Z</time></trkpt><trkpt lat="38.169558257591646" lon="15.791019235691268"><ele>767.0</ele><time>2026-05-03T11:00:31Z</time></trkpt><trkpt lat="38.16953862823685" lon="15.7909356365901"><ele>766.8</ele><time>2026-05-03T11:00:32Z</time></trkpt><trkpt lat="38.16959240828124" lon="15.790826186082503"><ele>766.6</ele><time>2026-05-03T11:00:33Z</time></trkpt><trkpt lat="38.16965204905278" lon="15.790716033255306"><ele>766.4</ele><time>2026-05-03T11:00:34Z</time></trkpt><trkpt lat="38.16974315022413" lon="15.790670853115126"><ele>766.1999999999999</ele><time>2026-05-03T11:00:35Z</time></trkpt><trkpt lat="38.169837442257794" lon="15.790563044283735"><ele>766.0</ele><time>2026-05-03T11:00:36Z</time></trkpt><trkpt lat="38.16994835664189" lon="15.79047196198066"><ele>766.0</ele><time>2026-05-03T11:00:37Z</time></trkpt><trkpt lat="38.1700680884371" lon="15.790411828651422"><ele>766.0</ele><time>2026-05-03T11:00:38Z</time></trkpt><trkpt lat="38.17020067177513" lon="15.790340631266329"><ele>766.0</ele><time>2026-05-03T11:00:39Z</time></trkpt><trkpt lat="38.170329647127595" lon="15.790266549537106"><ele>766.0</ele><time>2026-05-03T11:00:40Z</time></trkpt><trkpt lat="38.17044988559039" lon="15.790176624596965"><ele>762.0</ele><time>2026-05-03T11:00:41Z</time></trkpt><trkpt lat="38.17055389360466" lon="15.790094505869916"><ele>758.0</ele><time>2026-05-03T11:00:42Z</time></trkpt><trkpt lat="38.17061441219708" lon="15.790001843794263"><ele>754.0</ele><time>2026-05-03T11:00:43Z</time></trkpt><trkpt lat="38.17052602448107" lon="15.789796256364204"><ele>750.0</ele><time>2026-05-03T11:00:45Z</time></trkpt><trkpt lat="38.170454061182355" lon="15.789659174046148"><ele>750.0</ele><time>2026-05-03T11:00:46Z</time></trkpt><trkpt lat="38.17036867765499" lon="15.789500001227063"><ele>750.0</ele><time>2026-05-03T11:00:47Z</time></trkpt><trkpt lat="38.17028464629165" lon="15.78931009404601"><ele>750.0</ele><time>2026-05-03T11:00:48Z</time></trkpt><trkpt lat="38.17020740657037" lon="15.789126155686166"><ele>748.6</ele><time>2026-05-03T11:00:49Z</time></trkpt><trkpt lat="38.17013272989826" lon="15.788964704621227"><ele>747.2</ele><time>2026-05-03T11:00:50Z</time></trkpt><trkpt lat="38.17007282298163" lon="15.788832957456224"><ele>745.8</ele><time>2026-05-03T11:00:51Z</time></trkpt><trkpt lat="38.170025237355894" lon="15.78873631768506"><ele>744.4</ele><time>2026-05-03T11:00:52Z</time></trkpt><trkpt lat="38.16996639226951" lon="15.788676281166703"><ele>743.0</ele><time>2026-05-03T11:00:53Z</time></trkpt><trkpt lat="38.16983067581075" lon="15.78876105791966"><ele>743.0</ele><time>2026-05-03T11:00:55Z</time></trkpt><trkpt lat="38.16979411108704" lon="15.78885420744308"><ele>743.0</ele><time>2026-05-03T11:00:56Z</time></trkpt><trkpt lat="38.1698437084621" lon="15.789002745685739"><ele>743.0</ele><time>2026-05-03T11:00:57Z</time></trkpt><trkpt lat="38.169944538504595" lon="15.789126208151448"><ele>743.0</ele><time>2026-05-03T11:00:58Z</time></trkpt><trkpt lat="38.17002190883978" lon="15.78926493550128"><ele>742.5</ele><time>2026-05-03T11:00:59Z</time></trkpt><trkpt lat="38.17006301290805" lon="15.789400500221701"><ele>742.0</ele><time>2026-05-03T11:01:00Z</time></trkpt><trkpt lat="38.170058173747066" lon="15.789523029638028"><ele>741.5</ele><time>2026-05-03T11:01:01Z</time></trkpt><trkpt lat="38.170022713570724" lon="15.789611393519097"><ele>741.0</ele><time>2026-05-03T11:01:02Z</time></trkpt><trkpt lat="38.16994871691313" lon="15.789627040461447"><ele>740.5</ele><time>2026-05-03T11:01:03Z</time></trkpt><trkpt lat="38.16993399342619" lon="15.789542040689154"><ele>740.0</ele><time>2026-05-03T11:01:04Z</time></trkpt><trkpt lat="38.16982370227756" lon="15.789462923511628"><ele>740.0</ele><time>2026-05-03T11:01:05Z</time></trkpt><trkpt lat="38.16974964661257" lon="15.789379783631228"><ele>740.0</ele><time>2026-05-03T11:01:06Z</time></trkpt><trkpt lat="38.169648979317785" lon="15.789295660958965"><ele>740.0</ele><time>2026-05-03T11:01:07Z</time></trkpt><trkpt lat="38.16956602002368" lon="15.789255648343875"><ele>740.0</ele><time>2026-05-03T11:01:08Z</time></trkpt><trkpt lat="38.16947183764525" lon="15.789256159452975"><ele>740.0</ele><time>2026-05-03T11:01:09Z</time></trkpt><trkpt lat="38.16940358654587" lon="15.789232112774293"><ele>740.0</ele><time>2026-05-03T11:01:10Z</time></trkpt><trkpt lat="38.169341242075554" lon="15.789202597585463"><ele>740.0</ele><time>2026-05-03T11:01:12Z</time></trkpt><trkpt lat="38.169275262512386" lon="15.789189658422686"><ele>740.0</ele><time>2026-05-03T11:01:14Z</time></trkpt><trkpt lat="38.16918791571918" lon="15.789181916388339"><ele>740.0</ele><time>2026-05-03T11:01:16Z</time></trkpt><trkpt lat="38.16914201483895" lon="15.789243009233944"><ele>740.0</ele><time>2026-05-03T11:01:17Z</time></trkpt><trkpt lat="38.169089617510366" lon="15.78935481298057"><ele>740.0</ele><time>2026-05-03T11:01:18Z</time></trkpt><trkpt lat="38.169047680875586" lon="15.78946149965775"><ele>736.75</ele><time>2026-05-03T11:01:19Z</time></trkpt><trkpt lat="38.16899579485172" lon="15.789519470921153"><ele>733.5</ele><time>2026-05-03T11:01:20Z</time></trkpt><trkpt lat="38.16892214341151" lon="15.789615396455412"><ele>730.25</ele><time>2026-05-03T11:01:21Z</time></trkpt><trkpt lat="38.168756285845596" lon="15.789689441325097"><ele>727.0</ele><time>2026-05-03T11:01:22Z</time></trkpt><trkpt lat="38.16860772491446" lon="15.789748439173284"><ele>727.0</ele><time>2026-05-03T11:01:23Z</time></trkpt><trkpt lat="38.168456694482344" lon="15.789816818476899"><ele>727.0</ele><time>2026-05-03T11:01:24Z</time></trkpt><trkpt lat="38.16831299683075" lon="15.789879855754288"><ele>727.0</ele><time>2026-05-03T11:01:25Z</time></trkpt><trkpt lat="38.168182957957086" lon="15.789947932519324"><ele>724.0</ele><time>2026-05-03T11:01:26Z</time></trkpt><trkpt lat="38.16805561826574" lon="15.789980427206096"><ele>721.0</ele><time>2026-05-03T11:01:27Z</time></trkpt><trkpt lat="38.16793079293685" lon="15.79001717273272"><ele>718.0</ele><time>2026-05-03T11:01:28Z</time></trkpt><trkpt lat="38.1677942571588" lon="15.790066253777136"><ele>715.0</ele><time>2026-05-03T11:01:29Z</time></trkpt><trkpt lat="38.167689683333705" lon="15.790090124151572"><ele>715.0</ele><time>2026-05-03T11:01:30Z</time></trkpt><trkpt lat="38.16757454650655" lon="15.790114249682324"><ele>715.0</ele><time>2026-05-03T11:01:31Z</time></trkpt><trkpt lat="38.16747333879911" lon="15.790139299247468"><ele>715.0</ele><time>2026-05-03T11:01:32Z</time></trkpt><trkpt lat="38.16738911762329" lon="15.79012762932546"><ele>715.0</ele><time>2026-05-03T11:01:33Z</time></trkpt><trkpt lat="38.167328887730896" lon="15.790083792417253"><ele>715.0</ele><time>2026-05-03T11:01:34Z</time></trkpt><trkpt lat="38.16730483995589" lon="15.790002192780669"><ele>715.0</ele><time>2026-05-03T11:01:35Z</time></trkpt><trkpt lat="38.167319793580226" lon="15.789893804086459"><ele>715.0</ele><time>2026-05-03T11:01:36Z</time></trkpt><trkpt lat="38.16738015887556" lon="15.789788337117203"><ele>715.0</ele><time>2026-05-03T11:01:37Z</time></trkpt><trkpt lat="38.16750011190738" lon="15.789747972888435"><ele>715.0</ele><time>2026-05-03T11:01:38Z</time></trkpt><trkpt lat="38.16763472142133" lon="15.789639322323964"><ele>715.0</ele><time>2026-05-03T11:01:39Z</time></trkpt><trkpt lat="38.16775672042809" lon="15.789531671084168"><ele>715.0</ele><time>2026-05-03T11:01:40Z</time></trkpt><trkpt lat="38.16788794847819" lon="15.789415876435731"><ele>715.0</ele><time>2026-05-03T11:01:41Z</time></trkpt><trkpt lat="38.168010470740285" lon="15.789306464843232"><ele>715.0</ele><time>2026-05-03T11:01:42Z</time></trkpt><trkpt lat="38.16815630294891" lon="15.789146731258953"><ele>714.25</ele><time>2026-05-03T11:01:43Z</time></trkpt><trkpt lat="38.16827669307275" lon="15.789018035126814"><ele>713.5</ele><time>2026-05-03T11:01:44Z</time></trkpt><trkpt lat="38.16837068302554" lon="15.788885635158621"><ele>712.75</ele><time>2026-05-03T11:01:45Z</time></trkpt><trkpt lat="38.168452712519176" lon="15.788767375383527"><ele>712.0</ele><time>2026-05-03T11:01:46Z</time></trkpt><trkpt lat="38.16853816971889" lon="15.788666313023914"><ele>712.0</ele><time>2026-05-03T11:01:47Z</time></trkpt><trkpt lat="38.16861774967156" lon="15.78863620312215"><ele>712.0</ele><time>2026-05-03T11:01:48Z</time></trkpt><trkpt lat="38.1687159204363" lon="15.788637824671687"><ele>712.0</ele><time>2026-05-03T11:01:49Z</time></trkpt><trkpt lat="38.1688334228589" lon="15.788664852144594"><ele>712.0</ele><time>2026-05-03T11:01:50Z</time></trkpt><trkpt lat="38.168986904358206" lon="15.788691709221789"><ele>715.25</ele><time>2026-05-03T11:01:51Z</time></trkpt><trkpt lat="38.1691008882504" lon="15.788647404901065"><ele>718.5</ele><time>2026-05-03T11:01:52Z</time></trkpt><trkpt lat="38.16919110322704" lon="15.788551549024197"><ele>721.75</ele><time>2026-05-03T11:01:53Z</time></trkpt><trkpt lat="38.16923204813853" lon="15.788387631407032"><ele>725.0</ele><time>2026-05-03T11:01:54Z</time></trkpt><trkpt lat="38.16931393082016" lon="15.788276151987024"><ele>718.5</ele><time>2026-05-03T11:01:55Z</time></trkpt><trkpt lat="38.16943299553343" lon="15.788197714437443"><ele>712.0</ele><time>2026-05-03T11:01:56Z</time></trkpt><trkpt lat="38.169575242938954" lon="15.788131994440077"><ele>705.5</ele><time>2026-05-03T11:01:57Z</time></trkpt><trkpt lat="38.16971011849421" lon="15.788054840638392"><ele>699.0</ele><time>2026-05-03T11:01:58Z</time></trkpt><trkpt lat="38.16983410756503" lon="15.787994812471222"><ele>697.0</ele><time>2026-05-03T11:01:59Z</time></trkpt><trkpt lat="38.16993831324221" lon="15.787933719967445"><ele>695.0</ele><time>2026-05-03T11:02:00Z</time></trkpt><trkpt lat="38.169976403472994" lon="15.78782247436825"><ele>693.0</ele><time>2026-05-03T11:02:01Z</time></trkpt><trkpt lat="38.16997237206808" lon="15.78770592236622"><ele>691.0</ele><time>2026-05-03T11:02:02Z</time></trkpt><trkpt lat="38.16985387017876" lon="15.787597911662795"><ele>689.0</ele><time>2026-05-03T11:02:03Z</time></trkpt><trkpt lat="38.16971268549245" lon="15.787546420496499"><ele>689.0</ele><time>2026-05-03T11:02:04Z</time></trkpt><trkpt lat="38.169548980104366" lon="15.787525142342421"><ele>689.0</ele><time>2026-05-03T11:02:05Z</time></trkpt><trkpt lat="38.16940943407134" lon="15.787504833888196"><ele>689.0</ele><time>2026-05-03T11:02:06Z</time></trkpt><trkpt lat="38.16929913449996" lon="15.787444529777355"><ele>689.0</ele><time>2026-05-03T11:02:07Z</time></trkpt><trkpt lat="38.16922196015989" lon="15.78730517193609"><ele>689.0</ele><time>2026-05-03T11:02:08Z</time></trkpt><trkpt lat="38.1691400108679" lon="15.787125634091092"><ele>689.0</ele><time>2026-05-03T11:02:09Z</time></trkpt><trkpt lat="38.16900630352411" lon="15.786905518060745"><ele>689.0</ele><time>2026-05-03T11:02:10Z</time></trkpt><trkpt lat="38.16888669907786" lon="15.786689078224203"><ele>680.6666666666666</ele><time>2026-05-03T11:02:11Z</time></trkpt><trkpt lat="38.16875388287804" lon="15.786498051112861"><ele>672.3333333333334</ele><time>2026-05-03T11:02:12Z</time></trkpt><trkpt lat="38.16861974707024" lon="15.786345258377956"><ele>664.0</ele><time>2026-05-03T11:02:13Z</time></trkpt><trkpt lat="38.16849650087079" lon="15.786210311500833"><ele>664.0</ele><time>2026-05-03T11:02:14Z</time></trkpt><trkpt lat="38.168411789760704" lon="15.786046151539159"><ele>664.0</ele><time>2026-05-03T11:02:15Z</time></trkpt><trkpt lat="38.1683470891311" lon="15.785869835578243"><ele>664.0</ele><time>2026-05-03T11:02:16Z</time></trkpt><trkpt lat="38.168297543352516" lon="15.785650916647135"><ele>665.0</ele><time>2026-05-03T11:02:17Z</time></trkpt><trkpt lat="38.168281456643236" lon="15.785463255717705"><ele>666.0</ele><time>2026-05-03T11:02:18Z</time></trkpt><trkpt lat="38.16828861846089" lon="15.785267356764452"><ele>667.0</ele><time>2026-05-03T11:02:19Z</time></trkpt><trkpt lat="38.16831342425975" lon="15.78507751060143"><ele>667.0</ele><time>2026-05-03T11:02:20Z</time></trkpt><trkpt lat="38.16834046752105" lon="15.784878709129476"><ele>667.0</ele><time>2026-05-03T11:02:21Z</time></trkpt><trkpt lat="38.16840254066879" lon="15.78474082485804"><ele>667.0</ele><time>2026-05-03T11:02:22Z</time></trkpt><trkpt lat="38.16848483719333" lon="15.784642311981392"><ele>667.0</ele><time>2026-05-03T11:02:23Z</time></trkpt><trkpt lat="38.16860032387073" lon="15.784576279114416"><ele>667.0</ele><time>2026-05-03T11:02:24Z</time></trkpt><trkpt lat="38.168729116159824" lon="15.78456203046314"><ele>667.0</ele><time>2026-05-03T11:02:25Z</time></trkpt><trkpt lat="38.16883567530522" lon="15.784517963939036"><ele>667.0</ele><time>2026-05-03T11:02:26Z</time></trkpt><trkpt lat="38.16892134288979" lon="15.784429701069238"><ele>667.0</ele><time>2026-05-03T11:02:27Z</time></trkpt><trkpt lat="38.16894655500495" lon="15.78429870066421"><ele>661.6666666666667</ele><time>2026-05-03T11:02:28Z</time></trkpt><trkpt lat="38.16893891230259" lon="15.784146800993138"><ele>656.3333333333334</ele><time>2026-05-03T11:02:29Z</time></trkpt><trkpt lat="38.16882143927506" lon="15.78399311092973"><ele>651.0</ele><time>2026-05-03T11:02:30Z</time></trkpt><trkpt lat="38.168712430737045" lon="15.783833290400123"><ele>651.0</ele><time>2026-05-03T11:02:31Z</time></trkpt><trkpt lat="38.16862193346702" lon="15.783664760968755"><ele>651.0</ele><time>2026-05-03T11:02:32Z</time></trkpt><trkpt lat="38.168542516515004" lon="15.78350178476562"><ele>651.0</ele><time>2026-05-03T11:02:33Z</time></trkpt><trkpt lat="38.16849481388025" lon="15.783304723476"><ele>652.3333333333334</ele><time>2026-05-03T11:02:34Z</time></trkpt><trkpt lat="38.16843525131812" lon="15.783091188331683"><ele>653.6666666666667</ele><time>2026-05-03T11:02:35Z</time></trkpt><trkpt lat="38.16837994287884" lon="15.782850733118758"><ele>655.0</ele><time>2026-05-03T11:02:36Z</time></trkpt><trkpt lat="38.16835223443929" lon="15.782621595353639"><ele>655.6666666666667</ele><time>2026-05-03T11:02:37Z</time></trkpt><trkpt lat="38.16831606623129" lon="15.782416361581639"><ele>656.3333333333334</ele><time>2026-05-03T11:02:38Z</time></trkpt><trkpt lat="38.16829484192261" lon="15.782214596216612"><ele>657.0</ele><time>2026-05-03T11:02:39Z</time></trkpt><trkpt lat="38.168308641311846" lon="15.782038240034979"><ele>657.0</ele><time>2026-05-03T11:02:40Z</time></trkpt><trkpt lat="38.16830931172737" lon="15.781897052933036"><ele>657.0</ele><time>2026-05-03T11:02:41Z</time></trkpt><trkpt lat="38.16829563239321" lon="15.781802956965802"><ele>657.0</ele><time>2026-05-03T11:02:43Z</time></trkpt><trkpt lat="38.168185631329884" lon="15.781803090828953"><ele>657.0</ele><time>2026-05-03T11:02:44Z</time></trkpt><trkpt lat="38.168094840604475" lon="15.781903631266799"><ele>657.0</ele><time>2026-05-03T11:02:45Z</time></trkpt><trkpt lat="38.1681290539205" lon="15.782073924971229"><ele>657.0</ele><time>2026-05-03T11:02:46Z</time></trkpt><trkpt lat="38.168178167508195" lon="15.782237802380362"><ele>657.0</ele><time>2026-05-03T11:02:47Z</time></trkpt><trkpt lat="38.16819951773943" lon="15.782441658963737"><ele>657.0</ele><time>2026-05-03T11:02:48Z</time></trkpt><trkpt lat="38.16820305506024" lon="15.782695623820194"><ele>656.3333333333334</ele><time>2026-05-03T11:02:49Z</time></trkpt><trkpt lat="38.16820464781094" lon="15.782951703027924"><ele>655.6666666666667</ele><time>2026-05-03T11:02:50Z</time></trkpt><trkpt lat="38.1682155308152" lon="15.783188406216562"><ele>655.0</ele><time>2026-05-03T11:02:51Z</time></trkpt><trkpt lat="38.168224670122314" lon="15.783408493506446"><ele>654.0</ele><time>2026-05-03T11:02:52Z</time></trkpt><trkpt lat="38.16823535697027" lon="15.783617633942882"><ele>653.0</ele><time>2026-05-03T11:02:53Z</time></trkpt><trkpt lat="38.16824304472929" lon="15.783804555684599"><ele>652.0</ele><time>2026-05-03T11:02:54Z</time></trkpt><trkpt lat="38.16824838700882" lon="15.783966196019051"><ele>651.0</ele><time>2026-05-03T11:02:55Z</time></trkpt><trkpt lat="38.16822722411794" lon="15.784116639330986"><ele>646.25</ele><time>2026-05-03T11:02:56Z</time></trkpt><trkpt lat="38.16814811244628" lon="15.784235419806457"><ele>641.5</ele><time>2026-05-03T11:02:57Z</time></trkpt><trkpt lat="38.16802427131884" lon="15.784291939260617"><ele>636.75</ele><time>2026-05-03T11:02:58Z</time></trkpt><trkpt lat="38.16787714388842" lon="15.784427293676336"><ele>632.0</ele><time>2026-05-03T11:02:59Z</time></trkpt><trkpt lat="38.16772994662929" lon="15.78453910919432"><ele>632.0</ele><time>2026-05-03T11:03:00Z</time></trkpt><trkpt lat="38.16761519341753" lon="15.784658280417023"><ele>632.0</ele><time>2026-05-03T11:03:01Z</time></trkpt><trkpt lat="38.16752606454147" lon="15.7847832512382"><ele>632.0</ele><time>2026-05-03T11:03:02Z</time></trkpt><trkpt lat="38.16746083469434" lon="15.784898624334772"><ele>632.0</ele><time>2026-05-03T11:03:03Z</time></trkpt><trkpt lat="38.1673488759201" lon="15.784955826904204"><ele>632.0</ele><time>2026-05-03T11:03:05Z</time></trkpt><trkpt lat="38.16729102861922" lon="15.784869367660942"><ele>632.0</ele><time>2026-05-03T11:03:06Z</time></trkpt><trkpt lat="38.167325244745435" lon="15.784751888160056"><ele>632.0</ele><time>2026-05-03T11:03:07Z</time></trkpt><trkpt lat="38.16740889950986" lon="15.784676243376541"><ele>632.0</ele><time>2026-05-03T11:03:08Z</time></trkpt><trkpt lat="38.16751269811535" lon="15.784613956591507"><ele>632.0</ele><time>2026-05-03T11:03:09Z</time></trkpt><trkpt lat="38.1676558002648" lon="15.784460997837577"><ele>630.3333333333333</ele><time>2026-05-03T11:03:10Z</time></trkpt><trkpt lat="38.16777766609452" lon="15.78430692492328"><ele>628.6666666666666</ele><time>2026-05-03T11:03:11Z</time></trkpt><trkpt lat="38.16786160251969" lon="15.784105128458163"><ele>627.0</ele><time>2026-05-03T11:03:12Z</time></trkpt><trkpt lat="38.16789834055983" lon="15.783939595824814"><ele>627.0</ele><time>2026-05-03T11:03:13Z</time></trkpt><trkpt lat="38.16791431085127" lon="15.78383059054875"><ele>627.0</ele><time>2026-05-03T11:03:14Z</time></trkpt><trkpt lat="38.167813864710325" lon="15.783729203766226"><ele>627.0</ele><time>2026-05-03T11:03:15Z</time></trkpt><trkpt lat="38.167699751803724" lon="15.783674152699422"><ele>627.0</ele><time>2026-05-03T11:03:16Z</time></trkpt><trkpt lat="38.16753665125304" lon="15.78366153484451"><ele>627.0</ele><time>2026-05-03T11:03:17Z</time></trkpt><trkpt lat="38.16740369666215" lon="15.78360985159717"><ele>627.0</ele><time>2026-05-03T11:03:18Z</time></trkpt><trkpt lat="38.167249789865444" lon="15.783533589484806"><ele>627.0</ele><time>2026-05-03T11:03:19Z</time></trkpt><trkpt lat="38.167090777839725" lon="15.783439283937765"><ele>623.0</ele><time>2026-05-03T11:03:20Z</time></trkpt><trkpt lat="38.16691767498192" lon="15.783299575262557"><ele>619.0</ele><time>2026-05-03T11:03:21Z</time></trkpt><trkpt lat="38.16681727293865" lon="15.783191132764536"><ele>615.0</ele><time>2026-05-03T11:03:22Z</time></trkpt><trkpt lat="38.166783491485155" lon="15.783100964667955"><ele>611.0</ele><time>2026-05-03T11:03:23Z</time></trkpt><trkpt lat="38.166780621367444" lon="15.783012060192608"><ele>611.0</ele><time>2026-05-03T11:03:24Z</time></trkpt><trkpt lat="38.16681180627022" lon="15.782848125905971"><ele>611.0</ele><time>2026-05-03T11:03:25Z</time></trkpt><trkpt lat="38.16681108326383" lon="15.782683279551009"><ele>611.0</ele><time>2026-05-03T11:03:26Z</time></trkpt><trkpt lat="38.16682428625696" lon="15.782398105669301"><ele>610.6666666666666</ele><time>2026-05-03T11:03:27Z</time></trkpt><trkpt lat="38.16682862226063" lon="15.78215934479973"><ele>610.3333333333334</ele><time>2026-05-03T11:03:28Z</time></trkpt><trkpt lat="38.16680603666173" lon="15.781954506965619"><ele>610.0</ele><time>2026-05-03T11:03:29Z</time></trkpt><trkpt lat="38.16680318428076" lon="15.781781395729515"><ele>610.0</ele><time>2026-05-03T11:03:30Z</time></trkpt><trkpt lat="38.16682413914363" lon="15.781591735498811"><ele>610.0</ele><time>2026-05-03T11:03:31Z</time></trkpt><trkpt lat="38.16686937801315" lon="15.781433900564538"><ele>610.0</ele><time>2026-05-03T11:03:32Z</time></trkpt><trkpt lat="38.16696164500726" lon="15.781285277674957"><ele>610.0</ele><time>2026-05-03T11:03:33Z</time></trkpt><trkpt lat="38.1670487867123" lon="15.781140341666378"><ele>610.0</ele><time>2026-05-03T11:03:34Z</time></trkpt><trkpt lat="38.167117541866865" lon="15.781023503022007"><ele>610.0</ele><time>2026-05-03T11:03:35Z</time></trkpt><trkpt lat="38.167167329721394" lon="15.780928643076477"><ele>610.0</ele><time>2026-05-03T11:03:36Z</time></trkpt><trkpt lat="38.16708284816958" lon="15.780731687963847"><ele>610.0</ele><time>2026-05-03T11:03:38Z</time></trkpt><trkpt lat="38.16697960138699" lon="15.780756022763526"><ele>610.0</ele><time>2026-05-03T11:03:39Z</time></trkpt><trkpt lat="38.166895984864034" lon="15.780892970709148"><ele>610.0</ele><time>2026-05-03T11:03:40Z</time></trkpt><trkpt lat="38.16679380547323" lon="15.781030658054942"><ele>610.0</ele><time>2026-05-03T11:03:41Z</time></trkpt><trkpt lat="38.16667905238434" lon="15.781192626304323"><ele>610.0</ele><time>2026-05-03T11:03:42Z</time></trkpt><trkpt lat="38.16657541902709" lon="15.781364279309999"><ele>610.0</ele><time>2026-05-03T11:03:43Z</time></trkpt><trkpt lat="38.16649603157666" lon="15.781537799775096"><ele>610.0</ele><time>2026-05-03T11:03:44Z</time></trkpt><trkpt lat="38.16644239536392" lon="15.781716269617732"><ele>601.3333333333334</ele><time>2026-05-03T11:03:45Z</time></trkpt><trkpt lat="38.16639516302554" lon="15.781936265113222"><ele>592.6666666666666</ele><time>2026-05-03T11:03:46Z</time></trkpt><trkpt lat="38.166375469565665" lon="15.782194536876084"><ele>584.0</ele><time>2026-05-03T11:03:47Z</time></trkpt><trkpt lat="38.16634721368394" lon="15.782434133391307"><ele>584.0</ele><time>2026-05-03T11:03:48Z</time></trkpt><trkpt lat="38.16632298584307" lon="15.782637566143716"><ele>584.0</ele><time>2026-05-03T11:03:49Z</time></trkpt><trkpt lat="38.166331154398186" lon="15.78277883074517"><ele>584.0</ele><time>2026-05-03T11:03:50Z</time></trkpt><trkpt lat="38.16632602313168" lon="15.782895905740174"><ele>584.0</ele><time>2026-05-03T11:03:51Z</time></trkpt><trkpt lat="38.166276494308086" lon="15.782968479211155"><ele>584.0</ele><time>2026-05-03T11:03:52Z</time></trkpt><trkpt lat="38.166211840160926" lon="15.782951154472856"><ele>584.0</ele><time>2026-05-03T11:03:53Z</time></trkpt><trkpt lat="38.16616704414753" lon="15.782806963179805"><ele>584.0</ele><time>2026-05-03T11:03:56Z</time></trkpt><trkpt lat="38.16618503906705" lon="15.782178614978912"><ele>584.0</ele><time>2026-05-03T11:03:57Z</time></trkpt><trkpt lat="38.166133006527104" lon="15.781910199813284"><ele>584.0</ele><time>2026-05-03T11:03:58Z</time></trkpt><trkpt lat="38.16611650868438" lon="15.781686881609264"><ele>584.0</ele><time>2026-05-03T11:03:59Z</time></trkpt><trkpt lat="38.1661131365615" lon="15.781481062862701"><ele>581.3333333333333</ele><time>2026-05-03T11:04:00Z</time></trkpt><trkpt lat="38.1661649018699" lon="15.7812645588403"><ele>578.6666666666666</ele><time>2026-05-03T11:04:01Z</time></trkpt><trkpt lat="38.16622245455831" lon="15.781031585236752"><ele>576.0</ele><time>2026-05-03T11:04:02Z</time></trkpt><trkpt lat="38.166285570707124" lon="15.780788457523965"><ele>572.6666666666666</ele><time>2026-05-03T11:04:03Z</time></trkpt><trkpt lat="38.1663426505424" lon="15.780538107701995"><ele>569.3333333333333</ele><time>2026-05-03T11:04:04Z</time></trkpt><trkpt lat="38.16638873252927" lon="15.780311843278563"><ele>566.0</ele><time>2026-05-03T11:04:05Z</time></trkpt><trkpt lat="38.16643611498978" lon="15.780134164092393"><ele>564.25</ele><time>2026-05-03T11:04:06Z</time></trkpt><trkpt lat="38.16646905704799" lon="15.780006501865177"><ele>562.5</ele><time>2026-05-03T11:04:07Z</time></trkpt><trkpt lat="38.16654562154011" lon="15.779912483869253"><ele>560.75</ele><time>2026-05-03T11:04:08Z</time></trkpt><trkpt lat="38.1666466208011" lon="15.77982627319529"><ele>559.0</ele><time>2026-05-03T11:04:09Z</time></trkpt><trkpt lat="38.16675561662026" lon="15.779714106040172"><ele>564.2</ele><time>2026-05-03T11:04:10Z</time></trkpt><trkpt lat="38.16685966922891" lon="15.779644534535612"><ele>569.4</ele><time>2026-05-03T11:04:11Z</time></trkpt><trkpt lat="38.16696641244738" lon="15.779597855935785"><ele>574.6</ele><time>2026-05-03T11:04:12Z</time></trkpt><trkpt lat="38.167054164589146" lon="15.779647987214672"><ele>579.8</ele><time>2026-05-03T11:04:13Z</time></trkpt><trkpt lat="38.167154562577174" lon="15.779689104340347"><ele>585.0</ele><time>2026-05-03T11:04:14Z</time></trkpt><trkpt lat="38.16726948245345" lon="15.779798790066248"><ele>586.6</ele><time>2026-05-03T11:04:15Z</time></trkpt><trkpt lat="38.167381269678465" lon="15.779854826497225"><ele>588.2</ele><time>2026-05-03T11:04:16Z</time></trkpt><trkpt lat="38.1674541234749" lon="15.779867465450689"><ele>589.8</ele><time>2026-05-03T11:04:17Z</time></trkpt><trkpt lat="38.16753742528075" lon="15.779800836826652"><ele>591.4</ele><time>2026-05-03T11:04:19Z</time></trkpt><trkpt lat="38.167608694157444" lon="15.779723352627258"><ele>593.0</ele><time>2026-05-03T11:04:20Z</time></trkpt><trkpt lat="38.167679350288914" lon="15.779589555272539"><ele>593.0</ele><time>2026-05-03T11:04:22Z</time></trkpt><trkpt lat="38.16767352705993" lon="15.779483192518168"><ele>593.0</ele><time>2026-05-03T11:04:23Z</time></trkpt><trkpt lat="38.167610189889444" lon="15.779316709815323"><ele>593.0</ele><time>2026-05-03T11:04:24Z</time></trkpt><trkpt lat="38.167528908293164" lon="15.779156904199779"><ele>593.0</ele><time>2026-05-03T11:04:25Z</time></trkpt><trkpt lat="38.167385562324654" lon="15.779049358016954"><ele>586.75</ele><time>2026-05-03T11:04:26Z</time></trkpt><trkpt lat="38.167263159802545" lon="15.778926285723282"><ele>580.5</ele><time>2026-05-03T11:04:27Z</time></trkpt><trkpt lat="38.16718196334474" lon="15.778787510858965"><ele>574.25</ele><time>2026-05-03T11:04:28Z</time></trkpt><trkpt lat="38.16710440588896" lon="15.778626407460015"><ele>568.0</ele><time>2026-05-03T11:04:29Z</time></trkpt><trkpt lat="38.167025936077245" lon="15.77846354909923"><ele>565.75</ele><time>2026-05-03T11:04:30Z</time></trkpt><trkpt lat="38.166954523536276" lon="15.778291591713742"><ele>563.5</ele><time>2026-05-03T11:04:31Z</time></trkpt><trkpt lat="38.16689744784478" lon="15.778128647722053"><ele>561.25</ele><time>2026-05-03T11:04:32Z</time></trkpt><trkpt lat="38.16686346989841" lon="15.777991596744242"><ele>559.0</ele><time>2026-05-03T11:04:33Z</time></trkpt><trkpt lat="38.16686259314865" lon="15.777871759083194"><ele>559.0</ele><time>2026-05-03T11:04:34Z</time></trkpt><trkpt lat="38.166900805892084" lon="15.777761073765317"><ele>559.0</ele><time>2026-05-03T11:04:35Z</time></trkpt><trkpt lat="38.166967849243036" lon="15.77765642425317"><ele>559.0</ele><time>2026-05-03T11:04:36Z</time></trkpt><trkpt lat="38.16703296924047" lon="15.777540170655522"><ele>559.0</ele><time>2026-05-03T11:04:37Z</time></trkpt><trkpt lat="38.167100784456885" lon="15.777423068153398"><ele>559.0</ele><time>2026-05-03T11:04:38Z</time></trkpt><trkpt lat="38.16716752284356" lon="15.77731023373286"><ele>557.6</ele><time>2026-05-03T11:04:39Z</time></trkpt><trkpt lat="38.1672355006188" lon="15.777209641651497"><ele>556.2</ele><time>2026-05-03T11:04:40Z</time></trkpt><trkpt lat="38.16731446781562" lon="15.777141988199734"><ele>554.8000000000001</ele><time>2026-05-03T11:04:41Z</time></trkpt><trkpt lat="38.16739097483068" lon="15.777106408894834"><ele>553.4</ele><time>2026-05-03T11:04:42Z</time></trkpt><trkpt lat="38.1674889475608" lon="15.777069579419596"><ele>552.0</ele><time>2026-05-03T11:04:43Z</time></trkpt><trkpt lat="38.16759271737101" lon="15.777040768436382"><ele>558.25</ele><time>2026-05-03T11:04:44Z</time></trkpt><trkpt lat="38.1676956401333" lon="15.777012896298114"><ele>564.5</ele><time>2026-05-03T11:04:45Z</time></trkpt><trkpt lat="38.16779127189829" lon="15.777013844033776"><ele>570.75</ele><time>2026-05-03T11:04:46Z</time></trkpt><trkpt lat="38.167911360694035" lon="15.777045048514278"><ele>577.0</ele><time>2026-05-03T11:04:47Z</time></trkpt><trkpt lat="38.168043710200976" lon="15.777130645705485"><ele>577.0</ele><time>2026-05-03T11:04:48Z</time></trkpt><trkpt lat="38.16818356004893" lon="15.77717010233143"><ele>577.0</ele><time>2026-05-03T11:04:49Z</time></trkpt><trkpt lat="38.168299869501304" lon="15.777214260942095"><ele>577.0</ele><time>2026-05-03T11:04:50Z</time></trkpt><trkpt lat="38.16840102313894" lon="15.777224721591935"><ele>577.0</ele><time>2026-05-03T11:04:51Z</time></trkpt><trkpt lat="38.168469146987775" lon="15.777206925113864"><ele>577.0</ele><time>2026-05-03T11:04:52Z</time></trkpt><trkpt lat="38.16854010928984" lon="15.777135701800942"><ele>575.8000000000001</ele><time>2026-05-03T11:04:53Z</time></trkpt><trkpt lat="38.16859452496783" lon="15.777015863272037"><ele>574.6</ele><time>2026-05-03T11:04:54Z</time></trkpt><trkpt lat="38.168609347929916" lon="15.776874321512542"><ele>573.4000000000001</ele><time>2026-05-03T11:04:55Z</time></trkpt><trkpt lat="38.16856487499535" lon="15.776738978289796"><ele>572.2</ele><time>2026-05-03T11:04:56Z</time></trkpt><trkpt lat="38.168487361905754" lon="15.776636429176124"><ele>571.0</ele><time>2026-05-03T11:04:57Z</time></trkpt><trkpt lat="38.16842259187379" lon="15.776515552832315"><ele>571.0</ele><time>2026-05-03T11:04:58Z</time></trkpt><trkpt lat="38.16835029329865" lon="15.776389679123627"><ele>571.0</ele><time>2026-05-03T11:04:59Z</time></trkpt><trkpt lat="38.168272206061175" lon="15.776262338170813"><ele>571.0</ele><time>2026-05-03T11:05:00Z</time></trkpt><trkpt lat="38.16817946460457" lon="15.776141941851424"><ele>571.0</ele><time>2026-05-03T11:05:01Z</time></trkpt><trkpt lat="38.16807897023484" lon="15.776029580282469"><ele>566.0</ele><time>2026-05-03T11:05:02Z</time></trkpt><trkpt lat="38.16798564821213" lon="15.775945373215297"><ele>561.0</ele><time>2026-05-03T11:05:03Z</time></trkpt><trkpt lat="38.167922562916765" lon="15.775835896878226"><ele>556.0</ele><time>2026-05-03T11:05:04Z</time></trkpt><trkpt lat="38.167862517084004" lon="15.775752725782434"><ele>551.0</ele><time>2026-05-03T11:05:05Z</time></trkpt><trkpt lat="38.16783052880561" lon="15.775648824433354"><ele>546.0</ele><time>2026-05-03T11:05:06Z</time></trkpt><trkpt lat="38.167831383667554" lon="15.775529780719342"><ele>546.0</ele><time>2026-05-03T11:05:07Z</time></trkpt><trkpt lat="38.16786100502429" lon="15.775403974387654"><ele>546.0</ele><time>2026-05-03T11:05:08Z</time></trkpt><trkpt lat="38.16789627363567" lon="15.775277399190463"><ele>546.0</ele><time>2026-05-03T11:05:09Z</time></trkpt><trkpt lat="38.16795061364484" lon="15.77515820028751"><ele>546.0</ele><time>2026-05-03T11:05:10Z</time></trkpt><trkpt lat="38.16800382571443" lon="15.775053343509382"><ele>546.0</ele><time>2026-05-03T11:05:11Z</time></trkpt><trkpt lat="38.16806355461298" lon="15.77500403875639"><ele>550.25</ele><time>2026-05-03T11:05:12Z</time></trkpt><trkpt lat="38.168206711498044" lon="15.774981766487118"><ele>554.5</ele><time>2026-05-03T11:05:14Z</time></trkpt><trkpt lat="38.16834325345336" lon="15.774994397066385"><ele>558.75</ele><time>2026-05-03T11:05:16Z</time></trkpt><trkpt lat="38.16842877127587" lon="15.775004542936744"><ele>563.0</ele><time>2026-05-03T11:05:17Z</time></trkpt><trkpt lat="38.16852101505228" lon="15.775014879299178"><ele>563.0</ele><time>2026-05-03T11:05:18Z</time></trkpt><trkpt lat="38.168605797066455" lon="15.775016575017537"><ele>563.0</ele><time>2026-05-03T11:05:19Z</time></trkpt><trkpt lat="38.16870583509413" lon="15.77503362268082"><ele>563.0</ele><time>2026-05-03T11:05:20Z</time></trkpt><trkpt lat="38.16880951459056" lon="15.775060172935929"><ele>563.0</ele><time>2026-05-03T11:05:21Z</time></trkpt><trkpt lat="38.16891471385141" lon="15.775082479904174"><ele>563.0</ele><time>2026-05-03T11:05:22Z</time></trkpt><trkpt lat="38.1690220887733" lon="15.77512245810883"><ele>565.1666666666666</ele><time>2026-05-03T11:05:23Z</time></trkpt><trkpt lat="38.16912946152166" lon="15.77516139241773"><ele>567.3333333333333</ele><time>2026-05-03T11:05:24Z</time></trkpt><trkpt lat="38.16921279308755" lon="15.775176479607588"><ele>569.5</ele><time>2026-05-03T11:05:25Z</time></trkpt><trkpt lat="38.169273256667665" lon="15.775139434190402"><ele>571.6666666666666</ele><time>2026-05-03T11:05:26Z</time></trkpt><trkpt lat="38.16932938971989" lon="15.775084405079486"><ele>573.8333333333334</ele><time>2026-05-03T11:05:27Z</time></trkpt><trkpt lat="38.16934927704869" lon="15.774970837590333"><ele>576.0</ele><time>2026-05-03T11:05:28Z</time></trkpt><trkpt lat="38.16933496532691" lon="15.774891678351393"><ele>576.0</ele><time>2026-05-03T11:05:29Z</time></trkpt><trkpt lat="38.169270445448184" lon="15.774761226830988"><ele>576.0</ele><time>2026-05-03T11:05:30Z</time></trkpt><trkpt lat="38.169171525358905" lon="15.77470544954391"><ele>576.0</ele><time>2026-05-03T11:05:31Z</time></trkpt><trkpt lat="38.169090288943785" lon="15.774657053523423"><ele>576.0</ele><time>2026-05-03T11:05:32Z</time></trkpt><trkpt lat="38.16902805043683" lon="15.774567262022018"><ele>576.0</ele><time>2026-05-03T11:05:33Z</time></trkpt><trkpt lat="38.168982069996105" lon="15.774454685476531"><ele>569.0</ele><time>2026-05-03T11:05:34Z</time></trkpt><trkpt lat="38.16891619423911" lon="15.774340871863958"><ele>562.0</ele><time>2026-05-03T11:05:35Z</time></trkpt><trkpt lat="38.16883436883634" lon="15.774240422513067"><ele>555.0</ele><time>2026-05-03T11:05:36Z</time></trkpt><trkpt lat="38.16873114317043" lon="15.77417973662596"><ele>548.0</ele><time>2026-05-03T11:05:37Z</time></trkpt><trkpt lat="38.16861853600697" lon="15.774140694990912"><ele>548.0</ele><time>2026-05-03T11:05:38Z</time></trkpt><trkpt lat="38.168509324245576" lon="15.774097563312493"><ele>548.0</ele><time>2026-05-03T11:05:39Z</time></trkpt><trkpt lat="38.168418016786255" lon="15.77406100011724"><ele>548.0</ele><time>2026-05-03T11:05:40Z</time></trkpt><trkpt lat="38.168355610338175" lon="15.773965561835276"><ele>548.0</ele><time>2026-05-03T11:05:41Z</time></trkpt><trkpt lat="38.16836378239157" lon="15.773854513247798"><ele>548.0</ele><time>2026-05-03T11:05:42Z</time></trkpt><trkpt lat="38.168374048978045" lon="15.773726829299752"><ele>548.0</ele><time>2026-05-03T11:05:44Z</time></trkpt><trkpt lat="38.16836367503334" lon="15.773643292738953"><ele>548.0</ele><time>2026-05-03T11:05:45Z</time></trkpt><trkpt lat="38.168237188113594" lon="15.773576653851956"><ele>548.0</ele><time>2026-05-03T11:05:46Z</time></trkpt><trkpt lat="38.16829170490247" lon="15.773452245924858"><ele>548.0</ele><time>2026-05-03T11:05:47Z</time></trkpt><trkpt lat="38.1683540814796" lon="15.773303805397664"><ele>548.0</ele><time>2026-05-03T11:05:48Z</time></trkpt><trkpt lat="38.1684290185016" lon="15.773139359679858"><ele>548.0</ele><time>2026-05-03T11:05:49Z</time></trkpt><trkpt lat="38.16853236433821" lon="15.772990326871783"><ele>548.0</ele><time>2026-05-03T11:05:50Z</time></trkpt><trkpt lat="38.16861773433829" lon="15.772828819566826"><ele>548.0</ele><time>2026-05-03T11:05:51Z</time></trkpt><trkpt lat="38.16873539326978" lon="15.77263697250614"><ele>551.6666666666666</ele><time>2026-05-03T11:05:52Z</time></trkpt><trkpt lat="38.16886156051726" lon="15.772489749766155"><ele>555.3333333333334</ele><time>2026-05-03T11:05:53Z</time></trkpt><trkpt lat="38.16900423566639" lon="15.772378247635201"><ele>559.0</ele><time>2026-05-03T11:05:54Z</time></trkpt><trkpt lat="38.169134882300916" lon="15.772272976376632"><ele>559.0</ele><time>2026-05-03T11:05:55Z</time></trkpt><trkpt lat="38.169250145723446" lon="15.772157035490995"><ele>559.0</ele><time>2026-05-03T11:05:56Z</time></trkpt><trkpt lat="38.16927254696047" lon="15.771964691911043"><ele>559.0</ele><time>2026-05-03T11:05:57Z</time></trkpt><trkpt lat="38.16931185535301" lon="15.771804585034538"><ele>559.0</ele><time>2026-05-03T11:05:58Z</time></trkpt><trkpt lat="38.16934644202188" lon="15.77164108081684"><ele>555.6</ele><time>2026-05-03T11:05:59Z</time></trkpt><trkpt lat="38.169376676971886" lon="15.771499595465617"><ele>552.2</ele><time>2026-05-03T11:06:00Z</time></trkpt><trkpt lat="38.169431828820585" lon="15.7714026925203"><ele>548.8000000000001</ele><time>2026-05-03T11:06:01Z</time></trkpt><trkpt lat="38.16946222045808" lon="15.77127462181953"><ele>545.4</ele><time>2026-05-03T11:06:02Z</time></trkpt><trkpt lat="38.16948827653832" lon="15.771162374999381"><ele>542.0</ele><time>2026-05-03T11:06:03Z</time></trkpt><trkpt lat="38.1694801043926" lon="15.770993801895916"><ele>538.75</ele><time>2026-05-03T11:06:04Z</time></trkpt><trkpt lat="38.16950976316742" lon="15.770820879120075"><ele>535.5</ele><time>2026-05-03T11:06:05Z</time></trkpt><trkpt lat="38.16950487151133" lon="15.770636520533591"><ele>532.25</ele><time>2026-05-03T11:06:06Z</time></trkpt><trkpt lat="38.169466117915015" lon="15.770433063677213"><ele>529.0</ele><time>2026-05-03T11:06:07Z</time></trkpt><trkpt lat="38.169386119180636" lon="15.77022654090976"><ele>527.6666666666667</ele><time>2026-05-03T11:06:08Z</time></trkpt><trkpt lat="38.16928613639817" lon="15.770020077357541"><ele>526.3333333333334</ele><time>2026-05-03T11:06:09Z</time></trkpt><trkpt lat="38.169207517849" lon="15.769813432728563"><ele>525.0</ele><time>2026-05-03T11:06:10Z</time></trkpt><trkpt lat="38.16916338794851" lon="15.769591189302732"><ele>522.3333333333334</ele><time>2026-05-03T11:06:11Z</time></trkpt><trkpt lat="38.16917347660764" lon="15.769348560491265"><ele>519.6666666666667</ele><time>2026-05-03T11:06:12Z</time></trkpt><trkpt lat="38.16925023942271" lon="15.769118161839147"><ele>517.0</ele><time>2026-05-03T11:06:13Z</time></trkpt><trkpt lat="38.16933653073858" lon="15.76890533666844"><ele>517.0</ele><time>2026-05-03T11:06:14Z</time></trkpt><trkpt lat="38.16943260296321" lon="15.768680536608366"><ele>517.0</ele><time>2026-05-03T11:06:15Z</time></trkpt><trkpt lat="38.16950949032246" lon="15.76843928809757"><ele>517.0</ele><time>2026-05-03T11:06:16Z</time></trkpt><trkpt lat="38.16957981984477" lon="15.76821232137722"><ele>512.6666666666667</ele><time>2026-05-03T11:06:17Z</time></trkpt><trkpt lat="38.16960101926261" lon="15.767975293471174"><ele>508.33333333333337</ele><time>2026-05-03T11:06:18Z</time></trkpt><trkpt lat="38.169591253553214" lon="15.767741139805702"><ele>504.0</ele><time>2026-05-03T11:06:19Z</time></trkpt><trkpt lat="38.16954286020987" lon="15.767512109549845"><ele>501.0</ele><time>2026-05-03T11:06:20Z</time></trkpt><trkpt lat="38.16946771408444" lon="15.767294438943738"><ele>498.0</ele><time>2026-05-03T11:06:21Z</time></trkpt><trkpt lat="38.169377611798566" lon="15.767121411313799"><ele>495.0</ele><time>2026-05-03T11:06:22Z</time></trkpt><trkpt lat="38.16928460007518" lon="15.76691355691338"><ele>495.0</ele><time>2026-05-03T11:06:23Z</time></trkpt><trkpt lat="38.169196695367724" lon="15.766727441408758"><ele>495.0</ele><time>2026-05-03T11:06:24Z</time></trkpt><trkpt lat="38.169131657698934" lon="15.76653709846767"><ele>495.0</ele><time>2026-05-03T11:06:25Z</time></trkpt><trkpt lat="38.169047717027" lon="15.766367333590042"><ele>492.0</ele><time>2026-05-03T11:06:26Z</time></trkpt><trkpt lat="38.16896017020869" lon="15.766219893006946"><ele>489.0</ele><time>2026-05-03T11:06:27Z</time></trkpt><trkpt lat="38.16886042664213" lon="15.766099428322407"><ele>486.0</ele><time>2026-05-03T11:06:28Z</time></trkpt><trkpt lat="38.16875560613645" lon="15.765999435326895"><ele>483.0</ele><time>2026-05-03T11:06:29Z</time></trkpt><trkpt lat="38.16862386709352" lon="15.765933862231634"><ele>481.33333333333337</ele><time>2026-05-03T11:06:30Z</time></trkpt><trkpt lat="38.168473974669446" lon="15.765880691212894"><ele>479.6666666666667</ele><time>2026-05-03T11:06:31Z</time></trkpt><trkpt lat="38.16832010551108" lon="15.7658128363753"><ele>478.0</ele><time>2026-05-03T11:06:32Z</time></trkpt><trkpt lat="38.16818183481486" lon="15.765707022791322"><ele>475.33333333333337</ele><time>2026-05-03T11:06:33Z</time></trkpt><trkpt lat="38.16808369114132" lon="15.76553395360963"><ele>472.66666666666663</ele><time>2026-05-03T11:06:34Z</time></trkpt><trkpt lat="38.16800992285545" lon="15.765327034121581"><ele>470.0</ele><time>2026-05-03T11:06:35Z</time></trkpt><trkpt lat="38.167928937645904" lon="15.76510566012715"><ele>467.3333333333333</ele><time>2026-05-03T11:06:36Z</time></trkpt><trkpt lat="38.167837825445424" lon="15.764908049603973"><ele>464.66666666666663</ele><time>2026-05-03T11:06:37Z</time></trkpt><trkpt lat="38.16774312182241" lon="15.764741075647386"><ele>462.0</ele><time>2026-05-03T11:06:38Z</time></trkpt><trkpt lat="38.16761187629637" lon="15.764627682655727"><ele>462.0</ele><time>2026-05-03T11:06:39Z</time></trkpt><trkpt lat="38.1674535575989" lon="15.764563495683797"><ele>462.0</ele><time>2026-05-03T11:06:40Z</time></trkpt><trkpt lat="38.16729424413347" lon="15.764545612567888"><ele>462.0</ele><time>2026-05-03T11:06:41Z</time></trkpt><trkpt lat="38.167127190014746" lon="15.764546879227309"><ele>463.33333333333337</ele><time>2026-05-03T11:06:42Z</time></trkpt><trkpt lat="38.16695984106296" lon="15.764555696867305"><ele>464.6666666666667</ele><time>2026-05-03T11:06:43Z</time></trkpt><trkpt lat="38.16679805031435" lon="15.764557713999766"><ele>466.0</ele><time>2026-05-03T11:06:44Z</time></trkpt><trkpt lat="38.16664092043185" lon="15.764552583645745"><ele>466.25</ele><time>2026-05-03T11:06:45Z</time></trkpt><trkpt lat="38.16649245585688" lon="15.764539242340764"><ele>466.5</ele><time>2026-05-03T11:06:46Z</time></trkpt><trkpt lat="38.16634684620967" lon="15.764500340781721"><ele>466.75</ele><time>2026-05-03T11:06:47Z</time></trkpt><trkpt lat="38.1662121480259" lon="15.764425505608987"><ele>467.0</ele><time>2026-05-03T11:06:48Z</time></trkpt><trkpt lat="38.166094821885245" lon="15.764309906089816"><ele>467.0</ele><time>2026-05-03T11:06:49Z</time></trkpt><trkpt lat="38.16602785644444" lon="15.764136076945988"><ele>467.0</ele><time>2026-05-03T11:06:50Z</time></trkpt><trkpt lat="38.16596649521181" lon="15.763950317440093"><ele>467.0</ele><time>2026-05-03T11:06:51Z</time></trkpt><trkpt lat="38.165913303796145" lon="15.763761069165664"><ele>467.0</ele><time>2026-05-03T11:06:52Z</time></trkpt><trkpt lat="38.16590183104222" lon="15.7635707925786"><ele>467.0</ele><time>2026-05-03T11:06:53Z</time></trkpt><trkpt lat="38.16594756722144" lon="15.763404015360571"><ele>467.0</ele><time>2026-05-03T11:06:54Z</time></trkpt><trkpt lat="38.16593116106655" lon="15.763247526651554"><ele>467.0</ele><time>2026-05-03T11:06:55Z</time></trkpt><trkpt lat="38.16589413082591" lon="15.76309428161067"><ele>461.0</ele><time>2026-05-03T11:06:56Z</time></trkpt><trkpt lat="38.165833850430275" lon="15.762929212514525"><ele>455.0</ele><time>2026-05-03T11:06:57Z</time></trkpt><trkpt lat="38.16579155467905" lon="15.762740847330969"><ele>449.0</ele><time>2026-05-03T11:06:58Z</time></trkpt><trkpt lat="38.16576599711876" lon="15.762521052479938"><ele>446.3333333333333</ele><time>2026-05-03T11:06:59Z</time></trkpt><trkpt lat="38.165747259660556" lon="15.76227606349425"><ele>443.66666666666663</ele><time>2026-05-03T11:07:00Z</time></trkpt><trkpt lat="38.16572253380155" lon="15.762015842796279"><ele>441.0</ele><time>2026-05-03T11:07:01Z</time></trkpt><trkpt lat="38.165687609978114" lon="15.761740393136675"><ele>454.5</ele><time>2026-05-03T11:07:02Z</time></trkpt><trkpt lat="38.165658893623664" lon="15.761456328973708"><ele>468.0</ele><time>2026-05-03T11:07:03Z</time></trkpt><trkpt lat="38.16562870058398" lon="15.76115578185787"><ele>465.0</ele><time>2026-05-03T11:07:04Z</time></trkpt><trkpt lat="38.16560015569599" lon="15.760850433952319"><ele>462.0</ele><time>2026-05-03T11:07:05Z</time></trkpt><trkpt lat="38.165560251950936" lon="15.760530474829956"><ele>462.0</ele><time>2026-05-03T11:07:06Z</time></trkpt><trkpt lat="38.16552973603404" lon="15.760218539046482"><ele>462.0</ele><time>2026-05-03T11:07:07Z</time></trkpt><trkpt lat="38.1654932458004" lon="15.759880698438703"><ele>461.0</ele><time>2026-05-03T11:07:08Z</time></trkpt><trkpt lat="38.165456615356256" lon="15.759550238927805"><ele>460.0</ele><time>2026-05-03T11:07:09Z</time></trkpt><trkpt lat="38.16543275181209" lon="15.75923146263216"><ele>457.0</ele><time>2026-05-03T11:07:10Z</time></trkpt><trkpt lat="38.16542074560859" lon="15.758910429873742"><ele>454.0</ele><time>2026-05-03T11:07:11Z</time></trkpt><trkpt lat="38.16543219238557" lon="15.75859491592666"><ele>449.5</ele><time>2026-05-03T11:07:12Z</time></trkpt><trkpt lat="38.16545827087068" lon="15.758270938402262"><ele>445.0</ele><time>2026-05-03T11:07:13Z</time></trkpt><trkpt lat="38.165504874467146" lon="15.757943857135043"><ele>439.5</ele><time>2026-05-03T11:07:14Z</time></trkpt><trkpt lat="38.16556878174671" lon="15.757618802073308"><ele>434.0</ele><time>2026-05-03T11:07:15Z</time></trkpt><trkpt lat="38.16564781380415" lon="15.757298338390532"><ele>426.5</ele><time>2026-05-03T11:07:16Z</time></trkpt><trkpt lat="38.16573316589712" lon="15.756980286035944"><ele>419.0</ele><time>2026-05-03T11:07:17Z</time></trkpt><trkpt lat="38.165812494363934" lon="15.756657152133108"><ele>417.0</ele><time>2026-05-03T11:07:18Z</time></trkpt><trkpt lat="38.16588933686288" lon="15.75632983364738"><ele>415.0</ele><time>2026-05-03T11:07:19Z</time></trkpt><trkpt lat="38.16596489120395" lon="15.756009943804841"><ele>411.0</ele><time>2026-05-03T11:07:20Z</time></trkpt><trkpt lat="38.16605645712193" lon="15.755688377362587"><ele>407.0</ele><time>2026-05-03T11:07:21Z</time></trkpt><trkpt lat="38.166113429723474" lon="15.755363618425475"><ele>408.0</ele><time>2026-05-03T11:07:22Z</time></trkpt><trkpt lat="38.166166735155514" lon="15.755054900103701"><ele>409.0</ele><time>2026-05-03T11:07:23Z</time></trkpt><trkpt lat="38.166188729589706" lon="15.754745757963803"><ele>409.0</ele><time>2026-05-03T11:07:24Z</time></trkpt><trkpt lat="38.16618822444613" lon="15.75445049779987"><ele>409.0</ele><time>2026-05-03T11:07:25Z</time></trkpt><trkpt lat="38.166191626201" lon="15.75416314742531"><ele>416.0</ele><time>2026-05-03T11:07:26Z</time></trkpt><trkpt lat="38.166206300892426" lon="15.753863070289206"><ele>423.0</ele><time>2026-05-03T11:07:27Z</time></trkpt><trkpt lat="38.16625428388844" lon="15.753576995908086"><ele>424.5</ele><time>2026-05-03T11:07:28Z</time></trkpt><trkpt lat="38.16634170320186" lon="15.753282556149843"><ele>426.0</ele><time>2026-05-03T11:07:29Z</time></trkpt><trkpt lat="38.166459363055694" lon="15.752993786100252"><ele>420.5</ele><time>2026-05-03T11:07:30Z</time></trkpt><trkpt lat="38.166592755803144" lon="15.75271498906642"><ele>415.0</ele><time>2026-05-03T11:07:31Z</time></trkpt><trkpt lat="38.16671801893706" lon="15.752441094274849"><ele>406.0</ele><time>2026-05-03T11:07:32Z</time></trkpt><trkpt lat="38.166819409645434" lon="15.75215052558327"><ele>397.0</ele><time>2026-05-03T11:07:33Z</time></trkpt><trkpt lat="38.16689356260057" lon="15.751837019715586"><ele>393.0</ele><time>2026-05-03T11:07:34Z</time></trkpt><trkpt lat="38.166943206876354" lon="15.751509312436928"><ele>389.0</ele><time>2026-05-03T11:07:35Z</time></trkpt><trkpt lat="38.166982527450436" lon="15.751175157329927"><ele>391.0</ele><time>2026-05-03T11:07:36Z</time></trkpt><trkpt lat="38.167000418307914" lon="15.750826719534874"><ele>393.0</ele><time>2026-05-03T11:07:37Z</time></trkpt><trkpt lat="38.16700729600867" lon="15.750468728574821"><ele>389.0</ele><time>2026-05-03T11:07:38Z</time></trkpt><trkpt lat="38.16704089957494" lon="15.750112489323621"><ele>385.0</ele><time>2026-05-03T11:07:39Z</time></trkpt><trkpt lat="38.16706713867574" lon="15.74974766053773"><ele>381.0</ele><time>2026-05-03T11:07:40Z</time></trkpt><trkpt lat="38.16709443552956" lon="15.749374863124363"><ele>377.0</ele><time>2026-05-03T11:07:41Z</time></trkpt><trkpt lat="38.16711678771839" lon="15.749005717559504"><ele>377.0</ele><time>2026-05-03T11:07:42Z</time></trkpt><trkpt lat="38.16712148654908" lon="15.748627680700755"><ele>377.0</ele><time>2026-05-03T11:07:43Z</time></trkpt><trkpt lat="38.167140813283844" lon="15.748249606571713"><ele>379.0</ele><time>2026-05-03T11:07:44Z</time></trkpt><trkpt lat="38.16716400126843" lon="15.747875119235138"><ele>381.0</ele><time>2026-05-03T11:07:45Z</time></trkpt><trkpt lat="38.167188292178636" lon="15.747535358277961"><ele>384.0</ele><time>2026-05-03T11:07:46Z</time></trkpt><trkpt lat="38.16721118181334" lon="15.747226620069641"><ele>387.0</ele><time>2026-05-03T11:07:47Z</time></trkpt><trkpt lat="38.16722499568609" lon="15.746912709410925"><ele>385.5</ele><time>2026-05-03T11:07:48Z</time></trkpt><trkpt lat="38.167241722569166" lon="15.746598165300188"><ele>384.0</ele><time>2026-05-03T11:07:49Z</time></trkpt><trkpt lat="38.16725903492647" lon="15.74629752098247"><ele>381.0</ele><time>2026-05-03T11:07:50Z</time></trkpt><trkpt lat="38.16729930389813" lon="15.74600070198998"><ele>378.0</ele><time>2026-05-03T11:07:51Z</time></trkpt><trkpt lat="38.167341217134414" lon="15.745705956024311"><ele>375.0</ele><time>2026-05-03T11:07:52Z</time></trkpt><trkpt lat="38.167402245186494" lon="15.745401711170022"><ele>372.0</ele><time>2026-05-03T11:07:53Z</time></trkpt><trkpt lat="38.16749520249692" lon="15.74510383033791"><ele>370.5</ele><time>2026-05-03T11:07:54Z</time></trkpt><trkpt lat="38.16761534238611" lon="15.744813028457838"><ele>369.0</ele><time>2026-05-03T11:07:55Z</time></trkpt><trkpt lat="38.16774480497249" lon="15.744525960556105"><ele>372.0</ele><time>2026-05-03T11:07:56Z</time></trkpt><trkpt lat="38.167898838623074" lon="15.744250695939542"><ele>375.0</ele><time>2026-05-03T11:07:57Z</time></trkpt><trkpt lat="38.16805736276382" lon="15.743965981151991"><ele>364.5</ele><time>2026-05-03T11:07:58Z</time></trkpt><trkpt lat="38.168200370818084" lon="15.743686993669893"><ele>354.0</ele><time>2026-05-03T11:07:59Z</time></trkpt><trkpt lat="38.16832722418099" lon="15.74341663242051"><ele>354.0</ele><time>2026-05-03T11:08:00Z</time></trkpt><trkpt lat="38.168453753733736" lon="15.743150607797839"><ele>354.0</ele><time>2026-05-03T11:08:01Z</time></trkpt><trkpt lat="38.16856800784537" lon="15.74287434173228"><ele>349.0</ele><time>2026-05-03T11:08:02Z</time></trkpt><trkpt lat="38.16866148425915" lon="15.742579437982597"><ele>344.0</ele><time>2026-05-03T11:08:03Z</time></trkpt><trkpt lat="38.16872257730073" lon="15.742268974042224"><ele>344.0</ele><time>2026-05-03T11:08:04Z</time></trkpt><trkpt lat="38.16876816391643" lon="15.741957558870316"><ele>344.0</ele><time>2026-05-03T11:08:05Z</time></trkpt><trkpt lat="38.168790491913384" lon="15.741624355456679"><ele>341.5</ele><time>2026-05-03T11:08:06Z</time></trkpt><trkpt lat="38.168783021946176" lon="15.74129335093885"><ele>339.0</ele><time>2026-05-03T11:08:07Z</time></trkpt><trkpt lat="38.168746524944225" lon="15.740960387942087"><ele>339.0</ele><time>2026-05-03T11:08:08Z</time></trkpt><trkpt lat="38.168697313115665" lon="15.74061294277669"><ele>339.0</ele><time>2026-05-03T11:08:09Z</time></trkpt><trkpt lat="38.16865618978922" lon="15.740269957991401"><ele>334.0</ele><time>2026-05-03T11:08:10Z</time></trkpt><trkpt lat="38.168617659737336" lon="15.739908549221413"><ele>329.0</ele><time>2026-05-03T11:08:11Z</time></trkpt><trkpt lat="38.16857881151373" lon="15.73955647817539"><ele>325.0</ele><time>2026-05-03T11:08:12Z</time></trkpt><trkpt lat="38.168541583829644" lon="15.739198949257062"><ele>321.0</ele><time>2026-05-03T11:08:13Z</time></trkpt><trkpt lat="38.16850012346335" lon="15.738832047748508"><ele>321.0</ele><time>2026-05-03T11:08:14Z</time></trkpt><trkpt lat="38.1684577335467" lon="15.738465914584715"><ele>321.0</ele><time>2026-05-03T11:08:15Z</time></trkpt><trkpt lat="38.16841524671622" lon="15.738098429629634"><ele>321.0</ele><time>2026-05-03T11:08:16Z</time></trkpt><trkpt lat="38.16837350701795" lon="15.737737263834529"><ele>321.0</ele><time>2026-05-03T11:08:17Z</time></trkpt><trkpt lat="38.168331333126744" lon="15.737379141278321"><ele>322.0</ele><time>2026-05-03T11:08:18Z</time></trkpt><trkpt lat="38.16828736182298" lon="15.737023980235252"><ele>323.0</ele><time>2026-05-03T11:08:19Z</time></trkpt><trkpt lat="38.16824806463886" lon="15.736687668937599"><ele>324.0</ele><time>2026-05-03T11:08:20Z</time></trkpt><trkpt lat="38.168212441632996" lon="15.73637005416414"><ele>325.0</ele><time>2026-05-03T11:08:21Z</time></trkpt><trkpt lat="38.16818593513639" lon="15.736060087737604"><ele>327.5</ele><time>2026-05-03T11:08:22Z</time></trkpt><trkpt lat="38.16818342168865" lon="15.735750498087935"><ele>330.0</ele><time>2026-05-03T11:08:23Z</time></trkpt><trkpt lat="38.16821431516348" lon="15.73543856424727"><ele>319.0</ele><time>2026-05-03T11:08:24Z</time></trkpt><trkpt lat="38.168281046655274" lon="15.735129369782367"><ele>308.0</ele><time>2026-05-03T11:08:25Z</time></trkpt><trkpt lat="38.1683942311464" lon="15.734834813234595"><ele>308.0</ele><time>2026-05-03T11:08:26Z</time></trkpt><trkpt lat="38.16854638547928" lon="15.734563867746163"><ele>308.0</ele><time>2026-05-03T11:08:27Z</time></trkpt><trkpt lat="38.168716099044204" lon="15.734313322085102"><ele>307.0</ele><time>2026-05-03T11:08:28Z</time></trkpt><trkpt lat="38.16888691506828" lon="15.734059694773196"><ele>306.0</ele><time>2026-05-03T11:08:29Z</time></trkpt><trkpt lat="38.16905370425785" lon="15.733815516992117"><ele>306.0</ele><time>2026-05-03T11:08:30Z</time></trkpt><trkpt lat="38.169200187240165" lon="15.733583762360109"><ele>306.0</ele><time>2026-05-03T11:08:31Z</time></trkpt><trkpt lat="38.16932423693972" lon="15.73333616940218"><ele>302.5</ele><time>2026-05-03T11:08:32Z</time></trkpt><trkpt lat="38.16941017596149" lon="15.733068504393021"><ele>299.0</ele><time>2026-05-03T11:08:33Z</time></trkpt><trkpt lat="38.169451897983706" lon="15.732779507797163"><ele>300.0</ele><time>2026-05-03T11:08:34Z</time></trkpt><trkpt lat="38.16943219426373" lon="15.732470441767674"><ele>301.0</ele><time>2026-05-03T11:08:35Z</time></trkpt><trkpt lat="38.169377017413034" lon="15.73216532166547"><ele>300.0</ele><time>2026-05-03T11:08:36Z</time></trkpt><trkpt lat="38.16930555570848" lon="15.731867931003233"><ele>299.0</ele><time>2026-05-03T11:08:37Z</time></trkpt><trkpt lat="38.16925039526235" lon="15.731577961584492"><ele>299.0</ele><time>2026-05-03T11:08:38Z</time></trkpt><trkpt lat="38.169214497883935" lon="15.731309646395278"><ele>299.0</ele><time>2026-05-03T11:08:39Z</time></trkpt><trkpt lat="38.16920863522832" lon="15.73104235286735"><ele>299.0</ele><time>2026-05-03T11:08:40Z</time></trkpt><trkpt lat="38.16923988316017" lon="15.730748475627397"><ele>294.5</ele><time>2026-05-03T11:08:41Z</time></trkpt><trkpt lat="38.1693181897705" lon="15.730446949818509"><ele>290.0</ele><time>2026-05-03T11:08:42Z</time></trkpt><trkpt lat="38.16942230518092" lon="15.730142074461419"><ele>287.5</ele><time>2026-05-03T11:08:43Z</time></trkpt><trkpt lat="38.16953338606849" lon="15.729828152005545"><ele>285.0</ele><time>2026-05-03T11:08:44Z</time></trkpt><trkpt lat="38.16963953187452" lon="15.729509105763462"><ele>283.0</ele><time>2026-05-03T11:08:45Z</time></trkpt><trkpt lat="38.16974391765448" lon="15.729184414513854"><ele>281.0</ele><time>2026-05-03T11:08:46Z</time></trkpt><trkpt lat="38.169847937884285" lon="15.728865800011828"><ele>283.5</ele><time>2026-05-03T11:08:47Z</time></trkpt><trkpt lat="38.169948445684234" lon="15.728545026383001"><ele>286.0</ele><time>2026-05-03T11:08:48Z</time></trkpt><trkpt lat="38.1700484556905" lon="15.728244412303141"><ele>286.0</ele><time>2026-05-03T11:08:49Z</time></trkpt><trkpt lat="38.17014311628761" lon="15.727964122127661"><ele>286.0</ele><time>2026-05-03T11:08:50Z</time></trkpt><trkpt lat="38.170249616318415" lon="15.727711326666308"><ele>281.5</ele><time>2026-05-03T11:08:51Z</time></trkpt><trkpt lat="38.170384717625105" lon="15.727485463364191"><ele>277.0</ele><time>2026-05-03T11:08:52Z</time></trkpt><trkpt lat="38.170562033114095" lon="15.727290330317475"><ele>281.5</ele><time>2026-05-03T11:08:53Z</time></trkpt><trkpt lat="38.17077514608924" lon="15.72713532296257"><ele>286.0</ele><time>2026-05-03T11:08:54Z</time></trkpt><trkpt lat="38.170986648069096" lon="15.726970430806226"><ele>281.0</ele><time>2026-05-03T11:08:55Z</time></trkpt><trkpt lat="38.17119281257992" lon="15.72679988029229"><ele>276.0</ele><time>2026-05-03T11:08:56Z</time></trkpt><trkpt lat="38.17138233360363" lon="15.72659561740695"><ele>281.0</ele><time>2026-05-03T11:08:57Z</time></trkpt><trkpt lat="38.1715558168652" lon="15.726358935282263"><ele>286.0</ele><time>2026-05-03T11:08:58Z</time></trkpt><trkpt lat="38.17172407930027" lon="15.72610639188951"><ele>279.5</ele><time>2026-05-03T11:08:59Z</time></trkpt><trkpt lat="38.171891257843235" lon="15.72584069517865"><ele>273.0</ele><time>2026-05-03T11:09:00Z</time></trkpt><trkpt lat="38.17206217156565" lon="15.725564717485334"><ele>273.0</ele><time>2026-05-03T11:09:01Z</time></trkpt><trkpt lat="38.17223878246923" lon="15.725282371349314"><ele>273.0</ele><time>2026-05-03T11:09:02Z</time></trkpt><trkpt lat="38.172416637557276" lon="15.724998969194871"><ele>270.5</ele><time>2026-05-03T11:09:03Z</time></trkpt><trkpt lat="38.172602509443315" lon="15.724715874441603"><ele>268.0</ele><time>2026-05-03T11:09:04Z</time></trkpt><trkpt lat="38.17278581437181" lon="15.724431703757594"><ele>263.5</ele><time>2026-05-03T11:09:05Z</time></trkpt><trkpt lat="38.172965905313724" lon="15.724151845102337"><ele>259.0</ele><time>2026-05-03T11:09:06Z</time></trkpt><trkpt lat="38.17314137901519" lon="15.723876128123827"><ele>259.5</ele><time>2026-05-03T11:09:07Z</time></trkpt><trkpt lat="38.17331064864716" lon="15.72360602448735"><ele>260.0</ele><time>2026-05-03T11:09:08Z</time></trkpt><trkpt lat="38.173470160021694" lon="15.723338375433503"><ele>260.0</ele><time>2026-05-03T11:09:09Z</time></trkpt><trkpt lat="38.17361487285349" lon="15.723070449626807"><ele>260.0</ele><time>2026-05-03T11:09:10Z</time></trkpt><trkpt lat="38.173743631641955" lon="15.722793798660074"><ele>259.0</ele><time>2026-05-03T11:09:11Z</time></trkpt><trkpt lat="38.173853578739546" lon="15.722509890968487"><ele>258.0</ele><time>2026-05-03T11:09:12Z</time></trkpt><trkpt lat="38.17393818270502" lon="15.722215315051562"><ele>258.0</ele><time>2026-05-03T11:09:13Z</time></trkpt><trkpt lat="38.17399659398283" lon="15.721913017425944"><ele>258.0</ele><time>2026-05-03T11:09:14Z</time></trkpt><trkpt lat="38.17402545355605" lon="15.721612458357145"><ele>258.3333333333333</ele><time>2026-05-03T11:09:15Z</time></trkpt><trkpt lat="38.17402941040448" lon="15.721322445079872"><ele>258.66666666666663</ele><time>2026-05-03T11:09:16Z</time></trkpt><trkpt lat="38.17403170891539" lon="15.72106147844868"><ele>259.0</ele><time>2026-05-03T11:09:17Z</time></trkpt><trkpt lat="38.174049628565555" lon="15.720830821041211"><ele>256.3333333333333</ele><time>2026-05-03T11:09:18Z</time></trkpt><trkpt lat="38.174099329744" lon="15.720616715554307"><ele>253.66666666666669</ele><time>2026-05-03T11:09:19Z</time></trkpt><trkpt lat="38.17416279958152" lon="15.720418378158707"><ele>251.0</ele><time>2026-05-03T11:09:20Z</time></trkpt><trkpt lat="38.17424279307144" lon="15.720237669622106"><ele>248.75</ele><time>2026-05-03T11:09:21Z</time></trkpt><trkpt lat="38.17433595063386" lon="15.72008811638009"><ele>246.5</ele><time>2026-05-03T11:09:22Z</time></trkpt><trkpt lat="38.17443202469478" lon="15.719978909637629"><ele>244.25</ele><time>2026-05-03T11:09:23Z</time></trkpt><trkpt lat="38.17452049767214" lon="15.71989957369645"><ele>242.0</ele><time>2026-05-03T11:09:24Z</time></trkpt><trkpt lat="38.174602948573614" lon="15.71984604363988"><ele>242.00000000000003</ele><time>2026-05-03T11:09:25Z</time></trkpt><trkpt lat="38.17469285531489" lon="15.719831200705285"><ele>242.0</ele><time>2026-05-03T11:09:26Z</time></trkpt><trkpt lat="38.17478101920293" lon="15.719810222694619"><ele>242.0</ele><time>2026-05-03T11:09:27Z</time></trkpt><trkpt lat="38.17483856663277" lon="15.719756008587009"><ele>242.0</ele><time>2026-05-03T11:09:28Z</time></trkpt><trkpt lat="38.17487436602899" lon="15.719667317084161"><ele>242.00000000000003</ele><time>2026-05-03T11:09:29Z</time></trkpt><trkpt lat="38.17489054080654" lon="15.719547473540807"><ele>242.0</ele><time>2026-05-03T11:09:30Z</time></trkpt><trkpt lat="38.1748843036032" lon="15.719403491343032"><ele>243.75</ele><time>2026-05-03T11:09:31Z</time></trkpt><trkpt lat="38.174848179966446" lon="15.719250344138057"><ele>245.5</ele><time>2026-05-03T11:09:32Z</time></trkpt><trkpt lat="38.17483018797205" lon="15.719068914097708"><ele>247.25</ele><time>2026-05-03T11:09:33Z</time></trkpt><trkpt lat="38.17486333084493" lon="15.718871102304908"><ele>249.0</ele><time>2026-05-03T11:09:34Z</time></trkpt><trkpt lat="38.17486151201682" lon="15.718663075717002"><ele>245.66666666666669</ele><time>2026-05-03T11:09:35Z</time></trkpt><trkpt lat="38.17487068398511" lon="15.718433744485848"><ele>242.33333333333334</ele><time>2026-05-03T11:09:36Z</time></trkpt><trkpt lat="38.17489125278379" lon="15.718183819071033"><ele>239.0</ele><time>2026-05-03T11:09:37Z</time></trkpt><trkpt lat="38.17494463118631" lon="15.717938782707154"><ele>241.66666666666669</ele><time>2026-05-03T11:09:38Z</time></trkpt><trkpt lat="38.17500198259795" lon="15.71768885887307"><ele>244.33333333333331</ele><time>2026-05-03T11:09:39Z</time></trkpt><trkpt lat="38.17507197180695" lon="15.71740999005766"><ele>247.0</ele><time>2026-05-03T11:09:40Z</time></trkpt><trkpt lat="38.175176898120085" lon="15.717136268922031"><ele>254.5</ele><time>2026-05-03T11:09:41Z</time></trkpt><trkpt lat="38.175301469086634" lon="15.716865767856092"><ele>262.0</ele><time>2026-05-03T11:09:42Z</time></trkpt><trkpt lat="38.17543838317922" lon="15.716600140056052"><ele>262.0</ele><time>2026-05-03T11:09:43Z</time></trkpt><trkpt lat="38.17556781600975" lon="15.716316163192227"><ele>262.0</ele><time>2026-05-03T11:09:44Z</time></trkpt><trkpt lat="38.17567120140403" lon="15.716012617769866"><ele>252.0</ele><time>2026-05-03T11:09:45Z</time></trkpt><trkpt lat="38.17575747981205" lon="15.715694045959038"><ele>242.0</ele><time>2026-05-03T11:09:46Z</time></trkpt><trkpt lat="38.175859086432105" lon="15.715395941682177"><ele>243.0</ele><time>2026-05-03T11:09:47Z</time></trkpt><trkpt lat="38.17596142567427" lon="15.715108129357217"><ele>244.0</ele><time>2026-05-03T11:09:48Z</time></trkpt><trkpt lat="38.176049278152384" lon="15.714799964028535"><ele>244.0</ele><time>2026-05-03T11:09:49.022Z</time></trkpt><trkpt lat="38.17618902932287" lon="15.714500428143948"><ele>244.0</ele><time>2026-05-03T11:09:50.019Z</time></trkpt><trkpt lat="38.176290481427664" lon="15.714203875919152"><ele>240.0</ele><time>2026-05-03T11:09:51Z</time></trkpt><trkpt lat="38.17648617566182" lon="15.713939017942412"><ele>236.0</ele><time>2026-05-03T11:09:52Z</time></trkpt><trkpt lat="38.176691134089744" lon="15.713713832200238"><ele>232.5</ele><time>2026-05-03T11:09:53Z</time></trkpt><trkpt lat="38.176902272138356" lon="15.713513571659547"><ele>229.0</ele><time>2026-05-03T11:09:54Z</time></trkpt><trkpt lat="38.17714197033997" lon="15.713340519574055"><ele>222.0</ele><time>2026-05-03T11:09:55Z</time></trkpt><trkpt lat="38.17738378640311" lon="15.713175532737038"><ele>215.0</ele><time>2026-05-03T11:09:56Z</time></trkpt><trkpt lat="38.177607795226464" lon="15.713007722104773"><ele>215.0</ele><time>2026-05-03T11:09:57Z</time></trkpt><trkpt lat="38.177820041729305" lon="15.712840184485161"><ele>215.0</ele><time>2026-05-03T11:09:58Z</time></trkpt><trkpt lat="38.17802109302793" lon="15.712671257733122"><ele>212.0</ele><time>2026-05-03T11:09:59Z</time></trkpt><trkpt lat="38.17821198804175" lon="15.712471325144723"><ele>209.0</ele><time>2026-05-03T11:10:00Z</time></trkpt><trkpt lat="38.178396027759085" lon="15.71222677585333"><ele>209.0</ele><time>2026-05-03T11:10:01Z</time></trkpt><trkpt lat="38.17857062618779" lon="15.71196460805432"><ele>209.0</ele><time>2026-05-03T11:10:02Z</time></trkpt><trkpt lat="38.17874092701496" lon="15.711676629684739"><ele>208.5</ele><time>2026-05-03T11:10:03Z</time></trkpt><trkpt lat="38.1789080702235" lon="15.71139010248035"><ele>208.0</ele><time>2026-05-03T11:10:04Z</time></trkpt><trkpt lat="38.179080070344014" lon="15.711102232990658"><ele>204.0</ele><time>2026-05-03T11:10:05Z</time></trkpt><trkpt lat="38.17926095872931" lon="15.710813440459031"><ele>200.0</ele><time>2026-05-03T11:10:06Z</time></trkpt><trkpt lat="38.179444164180005" lon="15.710525417836562"><ele>200.0</ele><time>2026-05-03T11:10:07Z</time></trkpt><trkpt lat="38.17962455684443" lon="15.710243404936637"><ele>200.0</ele><time>2026-05-03T11:10:08Z</time></trkpt><trkpt lat="38.17979788899179" lon="15.709969265829812"><ele>199.0</ele><time>2026-05-03T11:10:09Z</time></trkpt><trkpt lat="38.17995605523804" lon="15.709701595957064"><ele>198.0</ele><time>2026-05-03T11:10:10Z</time></trkpt><trkpt lat="38.180102172011146" lon="15.709432000425073"><ele>203.0</ele><time>2026-05-03T11:10:11Z</time></trkpt><trkpt lat="38.18023414390803" lon="15.70914144160116"><ele>208.0</ele><time>2026-05-03T11:10:12Z</time></trkpt><trkpt lat="38.18033927973439" lon="15.708834934542685"><ele>207.0</ele><time>2026-05-03T11:10:13Z</time></trkpt><trkpt lat="38.180422728354" lon="15.708514122705635"><ele>206.0</ele><time>2026-05-03T11:10:14Z</time></trkpt><trkpt lat="38.180494486352345" lon="15.708183671575014"><ele>206.0</ele><time>2026-05-03T11:10:15Z</time></trkpt><trkpt lat="38.18056307245419" lon="15.70784011705379"><ele>206.0</ele><time>2026-05-03T11:10:16Z</time></trkpt><trkpt lat="38.1806382892142" lon="15.707493025833887"><ele>197.0</ele><time>2026-05-03T11:10:17Z</time></trkpt><trkpt lat="38.18072213017523" lon="15.70714506826295"><ele>188.0</ele><time>2026-05-03T11:10:18Z</time></trkpt><trkpt lat="38.18081192655228" lon="15.706796421800043"><ele>188.0</ele><time>2026-05-03T11:10:19Z</time></trkpt><trkpt lat="38.18090786579583" lon="15.706436794926814"><ele>188.0</ele><time>2026-05-03T11:10:20Z</time></trkpt><trkpt lat="38.181027957280186" lon="15.706107564044075"><ele>191.0</ele><time>2026-05-03T11:10:21Z</time></trkpt><trkpt lat="38.18115751864052" lon="15.705765741679725"><ele>194.0</ele><time>2026-05-03T11:10:22Z</time></trkpt><trkpt lat="38.18128897508007" lon="15.705417491728916"><ele>187.5</ele><time>2026-05-03T11:10:23Z</time></trkpt><trkpt lat="38.181427426313206" lon="15.70506833302376"><ele>181.0</ele><time>2026-05-03T11:10:24Z</time></trkpt><trkpt lat="38.181568057159986" lon="15.704726818495987"><ele>187.5</ele><time>2026-05-03T11:10:25Z</time></trkpt><trkpt lat="38.18172406178353" lon="15.704383085376252"><ele>194.0</ele><time>2026-05-03T11:10:26Z</time></trkpt><trkpt lat="38.181890413939165" lon="15.704059214353276"><ele>194.0</ele><time>2026-05-03T11:10:27Z</time></trkpt><trkpt lat="38.18206619742356" lon="15.703738637042976"><ele>194.0</ele><time>2026-05-03T11:10:28Z</time></trkpt><trkpt lat="38.182224577075644" lon="15.703429165376239"><ele>187.5</ele><time>2026-05-03T11:10:29Z</time></trkpt><trkpt lat="38.18241016084171" lon="15.703141506635555"><ele>181.0</ele><time>2026-05-03T11:10:30Z</time></trkpt><trkpt lat="38.1825980552106" lon="15.702845183535452"><ele>181.0</ele><time>2026-05-03T11:10:31Z</time></trkpt><trkpt lat="38.18278115745644" lon="15.702548792158055"><ele>181.0</ele><time>2026-05-03T11:10:32Z</time></trkpt><trkpt lat="38.18298940409855" lon="15.702227770127486"><ele>181.0</ele><time>2026-05-03T11:10:33Z</time></trkpt><trkpt lat="38.183155844195234" lon="15.7019187620413"><ele>181.0</ele><time>2026-05-03T11:10:34Z</time></trkpt><trkpt lat="38.18330554285566" lon="15.701591447002343"><ele>175.0</ele><time>2026-05-03T11:10:35Z</time></trkpt><trkpt lat="38.183436673692945" lon="15.701257720522566"><ele>169.0</ele><time>2026-05-03T11:10:36Z</time></trkpt><trkpt lat="38.18355973552054" lon="15.70092763953315"><ele>169.0</ele><time>2026-05-03T11:10:37Z</time></trkpt><trkpt lat="38.18368632591919" lon="15.700597956041564"><ele>169.0</ele><time>2026-05-03T11:10:38Z</time></trkpt><trkpt lat="38.18381486409979" lon="15.700269872906539"><ele>169.0</ele><time>2026-05-03T11:10:39Z</time></trkpt><trkpt lat="38.183951274341794" lon="15.699934839975109"><ele>169.0</ele><time>2026-05-03T11:10:40Z</time></trkpt><trkpt lat="38.184085600278294" lon="15.699595491768104"><ele>168.5</ele><time>2026-05-03T11:10:41Z</time></trkpt><trkpt lat="38.1842191513736" lon="15.699257149925103"><ele>168.0</ele><time>2026-05-03T11:10:42Z</time></trkpt><trkpt lat="38.184351186398914" lon="15.69891786198231"><ele>171.5</ele><time>2026-05-03T11:10:43Z</time></trkpt><trkpt lat="38.18448140085286" lon="15.698581895142647"><ele>175.0</ele><time>2026-05-03T11:10:44Z</time></trkpt><trkpt lat="38.18460366788628" lon="15.698239318009506"><ele>175.0</ele><time>2026-05-03T11:10:45Z</time></trkpt><trkpt lat="38.184733441491375" lon="15.69790633913756"><ele>175.0</ele><time>2026-05-03T11:10:46Z</time></trkpt><trkpt lat="38.1848672795689" lon="15.697579451447366"><ele>166.5</ele><time>2026-05-03T11:10:47Z</time></trkpt><trkpt lat="38.184997499088006" lon="15.697257931454818"><ele>158.0</ele><time>2026-05-03T11:10:48Z</time></trkpt><trkpt lat="38.185130367497806" lon="15.696943750480262"><ele>162.5</ele><time>2026-05-03T11:10:49Z</time></trkpt><trkpt lat="38.1852633010911" lon="15.696628313700694"><ele>167.0</ele><time>2026-05-03T11:10:50Z</time></trkpt><trkpt lat="38.185389628329595" lon="15.696310208647335"><ele>174.0</ele><time>2026-05-03T11:10:51Z</time></trkpt><trkpt lat="38.18551419414301" lon="15.695986146189908"><ele>181.0</ele><time>2026-05-03T11:10:52Z</time></trkpt><trkpt lat="38.18563437134256" lon="15.695664143826452"><ele>166.0</ele><time>2026-05-03T11:10:53Z</time></trkpt><trkpt lat="38.18575339871499" lon="15.69532605441203"><ele>151.0</ele><time>2026-05-03T11:10:54Z</time></trkpt><trkpt lat="38.18584943154828" lon="15.694981256737028"><ele>150.5</ele><time>2026-05-03T11:10:55Z</time></trkpt><trkpt lat="38.18592887713816" lon="15.69462678727883"><ele>150.0</ele><time>2026-05-03T11:10:56Z</time></trkpt><trkpt lat="38.18598822461664" lon="15.694267668660093"><ele>147.5</ele><time>2026-05-03T11:10:57Z</time></trkpt><trkpt lat="38.18603192482828" lon="15.693879275793012"><ele>145.0</ele><time>2026-05-03T11:10:58Z</time></trkpt><trkpt lat="38.18603869854194" lon="15.693517247109291"><ele>145.0</ele><time>2026-05-03T11:10:59Z</time></trkpt><trkpt lat="38.186042410361125" lon="15.693140302046682"><ele>145.0</ele><time>2026-05-03T11:11:00Z</time></trkpt><trkpt lat="38.18603028855741" lon="15.6927600469537"><ele>144.5</ele><time>2026-05-03T11:11:01Z</time></trkpt><trkpt lat="38.18599729439765" lon="15.692383767386408"><ele>144.0</ele><time>2026-05-03T11:11:02Z</time></trkpt><trkpt lat="38.18595387088541" lon="15.692008562107095"><ele>142.0</ele><time>2026-05-03T11:11:03Z</time></trkpt><trkpt lat="38.185910722351146" lon="15.691629407521257"><ele>140.0</ele><time>2026-05-03T11:11:04Z</time></trkpt><trkpt lat="38.185869367419635" lon="15.691242147350204"><ele>139.0</ele><time>2026-05-03T11:11:05Z</time></trkpt><trkpt lat="38.18584088461331" lon="15.690855012068694"><ele>138.0</ele><time>2026-05-03T11:11:06Z</time></trkpt><trkpt lat="38.18580336487015" lon="15.690487861512539"><ele>138.0</ele><time>2026-05-03T11:11:07Z</time></trkpt><trkpt lat="38.185771131249375" lon="15.690125950985394"><ele>138.0</ele><time>2026-05-03T11:11:08Z</time></trkpt><trkpt lat="38.18574486206427" lon="15.689765852374867"><ele>137.0</ele><time>2026-05-03T11:11:09Z</time></trkpt><trkpt lat="38.18573453878192" lon="15.689404965019548"><ele>136.0</ele><time>2026-05-03T11:11:10Z</time></trkpt><trkpt lat="38.185757144886445" lon="15.689023211809792"><ele>136.0</ele><time>2026-05-03T11:11:11Z</time></trkpt><trkpt lat="38.18578610921182" lon="15.688655743416188"><ele>136.0</ele><time>2026-05-03T11:11:12Z</time></trkpt><trkpt lat="38.18581546495812" lon="15.68830792249614"><ele>134.5</ele><time>2026-05-03T11:11:13Z</time></trkpt><trkpt lat="38.1858394308971" lon="15.687907987481267"><ele>133.0</ele><time>2026-05-03T11:11:14Z</time></trkpt><trkpt lat="38.18586898162676" lon="15.687525892922375"><ele>133.0</ele><time>2026-05-03T11:11:15Z</time></trkpt><trkpt lat="38.18589155219454" lon="15.687149640918065"><ele>133.0</ele><time>2026-05-03T11:11:16Z</time></trkpt><trkpt lat="38.18590862296289" lon="15.686770680234297"><ele>131.0</ele><time>2026-05-03T11:11:17Z</time></trkpt><trkpt lat="38.185909343369076" lon="15.686382851730023"><ele>129.0</ele><time>2026-05-03T11:11:18Z</time></trkpt><trkpt lat="38.18589618562419" lon="15.685987756302763"><ele>127.5</ele><time>2026-05-03T11:11:19Z</time></trkpt><trkpt lat="38.1858853381488" lon="15.6855914210774"><ele>126.0</ele><time>2026-05-03T11:11:20Z</time></trkpt><trkpt lat="38.18587502305914" lon="15.685195244632089"><ele>124.5</ele><time>2026-05-03T11:11:21Z</time></trkpt><trkpt lat="38.18586772311723" lon="15.684800910571832"><ele>123.0</ele><time>2026-05-03T11:11:22Z</time></trkpt><trkpt lat="38.18585631959669" lon="15.684401649304467"><ele>122.5</ele><time>2026-05-03T11:11:23Z</time></trkpt><trkpt lat="38.18584581839102" lon="15.684008449398414"><ele>122.0</ele><time>2026-05-03T11:11:24Z</time></trkpt><trkpt lat="38.18583490850381" lon="15.683604169752574"><ele>121.0</ele><time>2026-05-03T11:11:25Z</time></trkpt><trkpt lat="38.185824264951535" lon="15.683215155031276"><ele>120.0</ele><time>2026-05-03T11:11:26Z</time></trkpt><trkpt lat="38.18581806303433" lon="15.682833015814893"><ele>118.5</ele><time>2026-05-03T11:11:27Z</time></trkpt><trkpt lat="38.18580761411734" lon="15.682451348074014"><ele>117.0</ele><time>2026-05-03T11:11:28Z</time></trkpt><trkpt lat="38.18580104413877" lon="15.682079451821563"><ele>116.0</ele><time>2026-05-03T11:11:29Z</time></trkpt><trkpt lat="38.18579276240925" lon="15.681705234364365"><ele>115.0</ele><time>2026-05-03T11:11:30Z</time></trkpt><trkpt lat="38.1857814930962" lon="15.681324898015236"><ele>115.0</ele><time>2026-05-03T11:11:31Z</time></trkpt><trkpt lat="38.18576740588775" lon="15.680960840516804"><ele>115.0</ele><time>2026-05-03T11:11:32Z</time></trkpt><trkpt lat="38.18576180315926" lon="15.680550235375286"><ele>115.0</ele><time>2026-05-03T11:11:33Z</time></trkpt><trkpt lat="38.18575627603701" lon="15.680154471119028"><ele>115.0</ele><time>2026-05-03T11:11:34Z</time></trkpt><trkpt lat="38.18574826243887" lon="15.679746176829386"><ele>113.5</ele><time>2026-05-03T11:11:35Z</time></trkpt><trkpt lat="38.18574420893774" lon="15.679395405503461"><ele>112.0</ele><time>2026-05-03T11:11:36Z</time></trkpt><trkpt lat="38.18573779441553" lon="15.67901896023578"><ele>112.0</ele><time>2026-05-03T11:11:37Z</time></trkpt><trkpt lat="38.18572182355702" lon="15.678650293098645"><ele>112.0</ele><time>2026-05-03T11:11:38Z</time></trkpt><trkpt lat="38.18570446442507" lon="15.67828985824849"><ele>109.5</ele><time>2026-05-03T11:11:39Z</time></trkpt><trkpt lat="38.1856912900998" lon="15.677887184105503"><ele>107.0</ele><time>2026-05-03T11:11:40Z</time></trkpt><trkpt lat="38.185665263318576" lon="15.677497497043907"><ele>106.5</ele><time>2026-05-03T11:11:41Z</time></trkpt><trkpt lat="38.18561118489055" lon="15.677125851336292"><ele>106.0</ele><time>2026-05-03T11:11:42Z</time></trkpt><trkpt lat="38.185537077149384" lon="15.67674243968651"><ele>104.5</ele><time>2026-05-03T11:11:43Z</time></trkpt><trkpt lat="38.18544359338945" lon="15.67636149450857"><ele>103.0</ele><time>2026-05-03T11:11:44Z</time></trkpt><trkpt lat="38.18532550195496" lon="15.675990839516368"><ele>102.0</ele><time>2026-05-03T11:11:45Z</time></trkpt><trkpt lat="38.185191002920305" lon="15.67562631802371"><ele>101.0</ele><time>2026-05-03T11:11:46Z</time></trkpt><trkpt lat="38.185039168423486" lon="15.675266628759857"><ele>100.0</ele><time>2026-05-03T11:11:47Z</time></trkpt><trkpt lat="38.18487647553991" lon="15.674916514068572"><ele>99.0</ele><time>2026-05-03T11:11:48Z</time></trkpt><trkpt lat="38.184691009833074" lon="15.674571034026474"><ele>96.5</ele><time>2026-05-03T11:11:49Z</time></trkpt><trkpt lat="38.18450417140573" lon="15.67422572555445"><ele>94.0</ele><time>2026-05-03T11:11:50Z</time></trkpt><trkpt lat="38.18431610539102" lon="15.673883284634787"><ele>93.5</ele><time>2026-05-03T11:11:51Z</time></trkpt><trkpt lat="38.18413187601885" lon="15.67353911309143"><ele>93.0</ele><time>2026-05-03T11:11:52Z</time></trkpt><trkpt lat="38.18395409916874" lon="15.673178711014058"><ele>92.5</ele><time>2026-05-03T11:11:53Z</time></trkpt><trkpt lat="38.183767158235874" lon="15.67282773483645"><ele>92.0</ele><time>2026-05-03T11:11:54Z</time></trkpt><trkpt lat="38.18358100780826" lon="15.672472741068"><ele>91.5</ele><time>2026-05-03T11:11:55Z</time></trkpt><trkpt lat="38.18338366103327" lon="15.67213077667968"><ele>91.0</ele><time>2026-05-03T11:11:56Z</time></trkpt><trkpt lat="38.18320913763394" lon="15.671791523535076"><ele>89.0</ele><time>2026-05-03T11:11:57Z</time></trkpt><trkpt lat="38.183043867807434" lon="15.671448304119972"><ele>87.0</ele><time>2026-05-03T11:11:58Z</time></trkpt><trkpt lat="38.18287455483783" lon="15.671126888119135"><ele>87.0</ele><time>2026-05-03T11:11:59Z</time></trkpt><trkpt lat="38.18272573270413" lon="15.670844458991724"><ele>87.0</ele><time>2026-05-03T11:12:00Z</time></trkpt><trkpt lat="38.18258975569277" lon="15.670587889620318"><ele>87.0</ele><time>2026-05-03T11:12:01Z</time></trkpt><trkpt lat="38.18248011019151" lon="15.670381391268682"><ele>87.0</ele><time>2026-05-03T11:12:02Z</time></trkpt><trkpt lat="38.1823732019089" lon="15.670177570365171"><ele>87.0</ele><time>2026-05-03T11:12:03Z</time></trkpt><trkpt lat="38.18227961501308" lon="15.670009282804317"><ele>85.66666666666667</ele><time>2026-05-03T11:12:04Z</time></trkpt><trkpt lat="38.182208964095196" lon="15.669820537947356"><ele>84.33333333333334</ele><time>2026-05-03T11:12:05Z</time></trkpt><trkpt lat="38.1821411772998" lon="15.669639559999409"><ele>83.0</ele><time>2026-05-03T11:12:06Z</time></trkpt><trkpt lat="38.18207302783548" lon="15.66947222037551"><ele>82.66666666666667</ele><time>2026-05-03T11:12:07Z</time></trkpt><trkpt lat="38.181987436017984" lon="15.669299527357941"><ele>82.33333333333333</ele><time>2026-05-03T11:12:08Z</time></trkpt><trkpt lat="38.181874942270845" lon="15.669097142679139"><ele>82.0</ele><time>2026-05-03T11:12:09Z</time></trkpt><trkpt lat="38.18175184236967" lon="15.668872219869383"><ele>82.0</ele><time>2026-05-03T11:12:10Z</time></trkpt><trkpt lat="38.18160093903809" lon="15.668621872875132"><ele>82.0</ele><time>2026-05-03T11:12:11Z</time></trkpt><trkpt lat="38.18146887830187" lon="15.668333110142244"><ele>80.0</ele><time>2026-05-03T11:12:12Z</time></trkpt><trkpt lat="38.18131148113673" lon="15.668015082057675"><ele>78.0</ele><time>2026-05-03T11:12:13Z</time></trkpt><trkpt lat="38.18113945519392" lon="15.6676914117822"><ele>77.0</ele><time>2026-05-03T11:12:14Z</time></trkpt><trkpt lat="38.18097414134995" lon="15.667336200969721"><ele>76.0</ele><time>2026-05-03T11:12:15Z</time></trkpt><trkpt lat="38.18078423194291" lon="15.666988821062342"><ele>74.5</ele><time>2026-05-03T11:12:16Z</time></trkpt><trkpt lat="38.1806015670536" lon="15.66661601655143"><ele>73.0</ele><time>2026-05-03T11:12:17Z</time></trkpt><trkpt lat="38.18041200108495" lon="15.666243031993991"><ele>73.5</ele><time>2026-05-03T11:12:18Z</time></trkpt><trkpt lat="38.18024574590057" lon="15.665868943785108"><ele>74.0</ele><time>2026-05-03T11:12:19Z</time></trkpt><trkpt lat="38.18006969720788" lon="15.665513776760656"><ele>72.0</ele><time>2026-05-03T11:12:20Z</time></trkpt><trkpt lat="38.179899729299" lon="15.6651728673269"><ele>70.0</ele><time>2026-05-03T11:12:21Z</time></trkpt><trkpt lat="38.17974313387854" lon="15.66485928445607"><ele>69.0</ele><time>2026-05-03T11:12:22Z</time></trkpt><trkpt lat="38.17958871409204" lon="15.664546577404709"><ele>68.0</ele><time>2026-05-03T11:12:23Z</time></trkpt><trkpt lat="38.17942974741778" lon="15.664234088014977"><ele>68.0</ele><time>2026-05-03T11:12:24Z</time></trkpt><trkpt lat="38.179255644167455" lon="15.663941428865312"><ele>68.0</ele><time>2026-05-03T11:12:25Z</time></trkpt><trkpt lat="38.17909908467913" lon="15.663645511931287"><ele>68.0</ele><time>2026-05-03T11:12:26Z</time></trkpt><trkpt lat="38.17894196640663" lon="15.663346577455902"><ele>68.0</ele><time>2026-05-03T11:12:27Z</time></trkpt><trkpt lat="38.178764384315066" lon="15.663050685518838"><ele>66.5</ele><time>2026-05-03T11:12:28Z</time></trkpt><trkpt lat="38.178579229316796" lon="15.662755799910348"><ele>65.0</ele><time>2026-05-03T11:12:29Z</time></trkpt><trkpt lat="38.17838747009974" lon="15.662457701749661"><ele>65.0</ele><time>2026-05-03T11:12:30Z</time></trkpt><trkpt lat="38.1781859602184" lon="15.662156741806513"><ele>65.0</ele><time>2026-05-03T11:12:31Z</time></trkpt><trkpt lat="38.177961619610194" lon="15.661853841118608"><ele>61.5</ele><time>2026-05-03T11:12:32Z</time></trkpt><trkpt lat="38.17776217239706" lon="15.66155547939904"><ele>58.0</ele><time>2026-05-03T11:12:33Z</time></trkpt><trkpt lat="38.17756182534861" lon="15.66123191808572"><ele>57.0</ele><time>2026-05-03T11:12:34Z</time></trkpt><trkpt lat="38.1773501969448" lon="15.660917391136817"><ele>56.0</ele><time>2026-05-03T11:12:35Z</time></trkpt><trkpt lat="38.177122497733215" lon="15.660611224731078"><ele>56.0</ele><time>2026-05-03T11:12:36Z</time></trkpt><trkpt lat="38.17691097848392" lon="15.660291987573842"><ele>56.0</ele><time>2026-05-03T11:12:37Z</time></trkpt><trkpt lat="38.17671226514279" lon="15.659965656362331"><ele>53.0</ele><time>2026-05-03T11:12:38Z</time></trkpt><trkpt lat="38.176511774683895" lon="15.65966669821989"><ele>50.0</ele><time>2026-05-03T11:12:39Z</time></trkpt><trkpt lat="38.176310474386796" lon="15.65939996976864"><ele>50.0</ele><time>2026-05-03T11:12:40Z</time></trkpt><trkpt lat="38.176130595319016" lon="15.65912684049165"><ele>50.0</ele><time>2026-05-03T11:12:41Z</time></trkpt><trkpt lat="38.17595158178374" lon="15.658857901960099"><ele>49.5</ele><time>2026-05-03T11:12:42Z</time></trkpt><trkpt lat="38.1757772476874" lon="15.658605789412519"><ele>49.0</ele><time>2026-05-03T11:12:43Z</time></trkpt><trkpt lat="38.17561923064326" lon="15.658353726990308"><ele>48.0</ele><time>2026-05-03T11:12:44Z</time></trkpt><trkpt lat="38.17542853997048" lon="15.658134680693923"><ele>47.0</ele><time>2026-05-03T11:12:45Z</time></trkpt><trkpt lat="38.175242544340215" lon="15.657954098382676"><ele>46.5</ele><time>2026-05-03T11:12:46Z</time></trkpt><trkpt lat="38.17504307226816" lon="15.657752630281289"><ele>46.0</ele><time>2026-05-03T11:12:47Z</time></trkpt><trkpt lat="38.174857358745584" lon="15.65756473154912"><ele>44.5</ele><time>2026-05-03T11:12:48Z</time></trkpt><trkpt lat="38.17466682284713" lon="15.657390659128543"><ele>43.0</ele><time>2026-05-03T11:12:49Z</time></trkpt><trkpt lat="38.1743909972754" lon="15.657350129890222"><ele>43.0</ele><time>2026-05-03T11:12:50Z</time></trkpt><trkpt lat="38.174150766097604" lon="15.657258510062565"><ele>43.0</ele><time>2026-05-03T11:12:51Z</time></trkpt><trkpt lat="38.17391109766412" lon="15.657180398309647"><ele>42.5</ele><time>2026-05-03T11:12:52Z</time></trkpt><trkpt lat="38.17367825462238" lon="15.657095136289758"><ele>42.0</ele><time>2026-05-03T11:12:53Z</time></trkpt><trkpt lat="38.17344654434874" lon="15.657022923482282"><ele>41.0</ele><time>2026-05-03T11:12:54Z</time></trkpt><trkpt lat="38.173229765455936" lon="15.656950764036589"><ele>40.0</ele><time>2026-05-03T11:12:55Z</time></trkpt><trkpt lat="38.173023237752815" lon="15.65687841659198"><ele>39.0</ele><time>2026-05-03T11:12:56Z</time></trkpt><trkpt lat="38.172818512262474" lon="15.656807145816309"><ele>38.333333333333336</ele><time>2026-05-03T11:12:57Z</time></trkpt><trkpt lat="38.17262156228866" lon="15.656734750512399"><ele>37.66666666666667</ele><time>2026-05-03T11:12:58Z</time></trkpt><trkpt lat="38.17243661157592" lon="15.656665453919171"><ele>37.0</ele><time>2026-05-03T11:12:59Z</time></trkpt><trkpt lat="38.17226534193894" lon="15.656590388276786"><ele>36.333333333333336</ele><time>2026-05-03T11:13:00Z</time></trkpt><trkpt lat="38.172106287503844" lon="15.65650245682033"><ele>35.666666666666664</ele><time>2026-05-03T11:13:01Z</time></trkpt><trkpt lat="38.17195679797562" lon="15.656391789821042"><ele>35.0</ele><time>2026-05-03T11:13:02Z</time></trkpt><trkpt lat="38.17182580411681" lon="15.656266243305588"><ele>35.0</ele><time>2026-05-03T11:13:03Z</time></trkpt><trkpt lat="38.17170445801337" lon="15.656124134870293"><ele>35.0</ele><time>2026-05-03T11:13:04Z</time></trkpt><trkpt lat="38.17159496645119" lon="15.655973713050127"><ele>35.0</ele><time>2026-05-03T11:13:05Z</time></trkpt><trkpt lat="38.17149423809434" lon="15.655807049491264"><ele>35.0</ele><time>2026-05-03T11:13:06Z</time></trkpt><trkpt lat="38.17140684635359" lon="15.655620166957238"><ele>35.0</ele><time>2026-05-03T11:13:07Z</time></trkpt><trkpt lat="38.171323282891706" lon="15.655417787256697"><ele>35.0</ele><time>2026-05-03T11:13:08Z</time></trkpt><trkpt lat="38.171256012751044" lon="15.655201463110526"><ele>34.0</ele><time>2026-05-03T11:13:09Z</time></trkpt><trkpt lat="38.17119821548771" lon="15.654977030638914"><ele>33.0</ele><time>2026-05-03T11:13:10Z</time></trkpt><trkpt lat="38.17114774314906" lon="15.654773219646176"><ele>32.0</ele><time>2026-05-03T11:13:11Z</time></trkpt><trkpt lat="38.17108958393925" lon="15.65452849252061"><ele>31.0</ele><time>2026-05-03T11:13:12Z</time></trkpt><trkpt lat="38.171014018410744" lon="15.654272177155589"><ele>30.0</ele><time>2026-05-03T11:13:13Z</time></trkpt><trkpt lat="38.17095367169303" lon="15.654036687411141"><ele>29.0</ele><time>2026-05-03T11:13:14Z</time></trkpt><trkpt lat="38.17089221964685" lon="15.65381475983954"><ele>28.666666666666664</ele><time>2026-05-03T11:13:15Z</time></trkpt><trkpt lat="38.17083706677145" lon="15.653592184981813"><ele>28.333333333333336</ele><time>2026-05-03T11:13:16Z</time></trkpt><trkpt lat="38.17078197506773" lon="15.653388392636042"><ele>28.0</ele><time>2026-05-03T11:13:17Z</time></trkpt><trkpt lat="38.170726073331714" lon="15.65318938659072"><ele>27.75</ele><time>2026-05-03T11:13:18Z</time></trkpt><trkpt lat="38.17068092796755" lon="15.65298426457616"><ele>27.5</ele><time>2026-05-03T11:13:19Z</time></trkpt><trkpt lat="38.17067634407994" lon="15.65281354645076"><ele>27.25</ele><time>2026-05-03T11:13:20Z</time></trkpt><trkpt lat="38.17067904801545" lon="15.65262906394226"><ele>27.0</ele><time>2026-05-03T11:13:21Z</time></trkpt><trkpt lat="38.17068616383047" lon="15.652466231344285"><ele>26.8</ele><time>2026-05-03T11:13:22Z</time></trkpt><trkpt lat="38.170699385590616" lon="15.652321986992144"><ele>26.6</ele><time>2026-05-03T11:13:23Z</time></trkpt><trkpt lat="38.17072691256419" lon="15.652206060963993"><ele>26.400000000000002</ele><time>2026-05-03T11:13:24Z</time></trkpt><trkpt lat="38.17075907582545" lon="15.652088826995083"><ele>26.200000000000003</ele><time>2026-05-03T11:13:25Z</time></trkpt><trkpt lat="38.17080167506193" lon="15.65200662676165"><ele>26.0</ele><time>2026-05-03T11:13:26Z</time></trkpt><trkpt lat="38.17088148310828" lon="15.651935801698906"><ele>25.833333333333332</ele><time>2026-05-03T11:13:27Z</time></trkpt><trkpt lat="38.17095742525991" lon="15.651858422416572"><ele>25.666666666666664</ele><time>2026-05-03T11:13:29Z</time></trkpt><trkpt lat="38.17099063243842" lon="15.651772659820438"><ele>25.5</ele><time>2026-05-03T11:13:30Z</time></trkpt><trkpt lat="38.17102263545706" lon="15.651677800430031"><ele>25.333333333333336</ele><time>2026-05-03T11:13:31Z</time></trkpt><trkpt lat="38.17103979176017" lon="15.651588798629676"><ele>25.166666666666668</ele><time>2026-05-03T11:13:32Z</time></trkpt><trkpt lat="38.171032074018" lon="15.651476836581413"><ele>25.0</ele><time>2026-05-03T11:13:33Z</time></trkpt><trkpt lat="38.170996784095095" lon="15.651373806590072"><ele>25.000000000000004</ele><time>2026-05-03T11:13:34Z</time></trkpt><trkpt lat="38.170941942826666" lon="15.651295469600848"><ele>25.0</ele><time>2026-05-03T11:13:35Z</time></trkpt><trkpt lat="38.17087341092776" lon="15.6512405816265"><ele>25.0</ele><time>2026-05-03T11:13:36Z</time></trkpt><trkpt lat="38.170800204701884" lon="15.6512064145177"><ele>25.0</ele><time>2026-05-03T11:13:37Z</time></trkpt><trkpt lat="38.17073298962287" lon="15.651194383349099"><ele>25.0</ele><time>2026-05-03T11:13:38Z</time></trkpt><trkpt lat="38.170668760572305" lon="15.651201448910543"><ele>25.000000000000004</ele><time>2026-05-03T11:13:39Z</time></trkpt><trkpt lat="38.17060571028756" lon="15.65122397828196"><ele>25.0</ele><time>2026-05-03T11:13:40Z</time></trkpt><trkpt lat="38.17052694910629" lon="15.651265188150514"><ele>24.666666666666668</ele><time>2026-05-03T11:13:41Z</time></trkpt><trkpt lat="38.170462333913726" lon="15.651289360651493"><ele>24.333333333333336</ele><time>2026-05-03T11:13:42Z</time></trkpt><trkpt lat="38.17037757575104" lon="15.651337921003305"><ele>24.0</ele><time>2026-05-03T11:13:43Z</time></trkpt><trkpt lat="38.17030349613708" lon="15.651391127136383"><ele>23.666666666666668</ele><time>2026-05-03T11:13:44Z</time></trkpt><trkpt lat="38.17022540018547" lon="15.651441870356779"><ele>23.333333333333336</ele><time>2026-05-03T11:13:45Z</time></trkpt><trkpt lat="38.17014450316945" lon="15.651493086756416"><ele>23.0</ele><time>2026-05-03T11:13:46Z</time></trkpt><trkpt lat="38.1700832913887" lon="15.651559297631291"><ele>23.0</ele><time>2026-05-03T11:13:47Z</time></trkpt><trkpt lat="38.16997027564021" lon="15.651594669280291"><ele>23.0</ele><time>2026-05-03T11:13:48Z</time></trkpt><trkpt lat="38.16988217626389" lon="15.651642012399606"><ele>23.0</ele><time>2026-05-03T11:13:49Z</time></trkpt><trkpt lat="38.16979948583659" lon="15.651681601374214"><ele>23.0</ele><time>2026-05-03T11:13:50Z</time></trkpt><trkpt lat="38.16973990373488" lon="15.651714889332782"><ele>23.0</ele><time>2026-05-03T11:13:51Z</time></trkpt><trkpt lat="38.169614337032364" lon="15.65178178734563"><ele>23.2</ele><time>2026-05-03T11:13:53Z</time></trkpt><trkpt lat="38.16952715443949" lon="15.651813135042385"><ele>23.4</ele><time>2026-05-03T11:13:54Z</time></trkpt><trkpt lat="38.16944290278862" lon="15.65185816852103"><ele>23.599999999999998</ele><time>2026-05-03T11:13:55Z</time></trkpt><trkpt lat="38.16935917190344" lon="15.651911502762564"><ele>23.799999999999997</ele><time>2026-05-03T11:13:56Z</time></trkpt><trkpt lat="38.16927293476575" lon="15.651968037899431"><ele>24.0</ele><time>2026-05-03T11:13:57Z</time></trkpt><trkpt lat="38.16917997572663" lon="15.65202513443027"><ele>24.0</ele><time>2026-05-03T11:13:58Z</time></trkpt><trkpt lat="38.169100132017974" lon="15.652090952481172"><ele>24.0</ele><time>2026-05-03T11:13:59Z</time></trkpt><trkpt lat="38.16902342079259" lon="15.652152114709946"><ele>24.0</ele><time>2026-05-03T11:14:00Z</time></trkpt><trkpt lat="38.16895626015327" lon="15.65219395777073"><ele>24.0</ele><time>2026-05-03T11:14:01Z</time></trkpt><trkpt lat="38.16889803585469" lon="15.652226523999081"><ele>24.0</ele><time>2026-05-03T11:14:02Z</time></trkpt><trkpt lat="38.168824040928094" lon="15.65228430871843"><ele>24.0</ele><time>2026-05-03T11:14:03Z</time></trkpt><trkpt lat="38.16877336941119" lon="15.652337008752678"><ele>24.0</ele><time>2026-05-03T11:14:04Z</time></trkpt><trkpt lat="38.168718087730575" lon="15.652395939687935"><ele>24.0</ele><time>2026-05-03T11:14:05Z</time></trkpt><trkpt lat="38.168656569412605" lon="15.652439922312446"><ele>24.0</ele><time>2026-05-03T11:14:06Z</time></trkpt><trkpt lat="38.168562257467045" lon="15.65254460791833"><ele>24.0</ele><time>2026-05-03T11:14:08Z</time></trkpt><trkpt lat="38.16850968279428" lon="15.652591580286378"><ele>24.0</ele><time>2026-05-03T11:14:09Z</time></trkpt><trkpt lat="38.16845571509234" lon="15.652635961506752"><ele>24.0</ele><time>2026-05-03T11:14:10Z</time></trkpt><trkpt lat="38.16839901290558" lon="15.65267580050795"><ele>23.999999999999996</ele><time>2026-05-03T11:14:11Z</time></trkpt><trkpt lat="38.1683355728242" lon="15.65270583596538"><ele>24.0</ele><time>2026-05-03T11:14:12Z</time></trkpt><trkpt lat="38.16826579998898" lon="15.652731441454245"><ele>24.0</ele><time>2026-05-03T11:14:13Z</time></trkpt><trkpt lat="38.16819677233538" lon="15.652762043099958"><ele>24.0</ele><time>2026-05-03T11:14:14Z</time></trkpt><trkpt lat="38.1681341052591" lon="15.652802841934315"><ele>24.0</ele><time>2026-05-03T11:14:15Z</time></trkpt><trkpt lat="38.16806556540641" lon="15.652829278671053"><ele>23.999999999999996</ele><time>2026-05-03T11:14:16Z</time></trkpt><trkpt lat="38.16799339817429" lon="15.652858780405422"><ele>24.0</ele><time>2026-05-03T11:14:17Z</time></trkpt><trkpt lat="38.16791651710254" lon="15.652887261655446"><ele>24.166666666666668</ele><time>2026-05-03T11:14:17.999Z</time></trkpt><trkpt lat="38.16784453722136" lon="15.652912868239852"><ele>24.333333333333336</ele><time>2026-05-03T11:14:18.999Z</time></trkpt><trkpt lat="38.1677656950111" lon="15.652929151826962"><ele>24.5</ele><time>2026-05-03T11:14:19.999Z</time></trkpt><trkpt lat="38.16768931141373" lon="15.65294811651332"><ele>24.666666666666668</ele><time>2026-05-03T11:14:20.999Z</time></trkpt><trkpt lat="38.16761831112862" lon="15.652975958870957"><ele>24.833333333333336</ele><time>2026-05-03T11:14:21.999Z</time></trkpt><trkpt lat="38.1675424978558" lon="15.65300461775676"><ele>25.0</ele><time>2026-05-03T11:14:22.999Z</time></trkpt><trkpt lat="38.167469346980624" lon="15.653016913854653"><ele>25.000000000000004</ele><time>2026-05-03T11:14:23.999Z</time></trkpt><trkpt lat="38.1674006028864" lon="15.653038360952477"><ele>25.0</ele><time>2026-05-03T11:14:24.999Z</time></trkpt><trkpt lat="38.16729637790131" lon="15.653053772026443"><ele>25.0</ele><time>2026-05-03T11:14:25.999Z</time></trkpt><trkpt lat="38.167211745367915" lon="15.653072071029007"><ele>25.0</ele><time>2026-05-03T11:14:26.999Z</time></trkpt><trkpt lat="38.167125422946434" lon="15.65309763033113"><ele>25.000000000000004</ele><time>2026-05-03T11:14:27.999Z</time></trkpt><trkpt lat="38.16704256671121" lon="15.653122147833011"><ele>25.0</ele><time>2026-05-03T11:14:28.999Z</time></trkpt><trkpt lat="38.16694668647507" lon="15.653138685947162"><ele>25.0</ele><time>2026-05-03T11:14:29.999Z</time></trkpt><trkpt lat="38.166863308322405" lon="15.653188303939778"><ele>25.0</ele><time>2026-05-03T11:14:30.999Z</time></trkpt><trkpt lat="38.166768672976694" lon="15.653216148145546"><ele>25.0</ele><time>2026-05-03T11:14:31.999Z</time></trkpt><trkpt lat="38.16667620433024" lon="15.653249232087997"><ele>25.0</ele><time>2026-05-03T11:14:32.999Z</time></trkpt><trkpt lat="38.1665730342026" lon="15.653282132815358"><ele>25.0</ele><time>2026-05-03T11:14:33.999Z</time></trkpt><trkpt lat="38.166457250860695" lon="15.653295676087465"><ele>24.0</ele><time>2026-05-03T11:14:35Z</time></trkpt><trkpt lat="38.16637562541284" lon="15.653320484506459"><ele>23.0</ele><time>2026-05-03T11:14:36Z</time></trkpt><trkpt lat="38.16627266246904" lon="15.653339824963549"><ele>22.0</ele><time>2026-05-03T11:14:37Z</time></trkpt><trkpt lat="38.16617999160826" lon="15.653416326800944"><ele>21.0</ele><time>2026-05-03T11:14:38Z</time></trkpt><trkpt lat="38.166099007365894" lon="15.653430977236736"><ele>20.0</ele><time>2026-05-03T11:14:39Z</time></trkpt><trkpt lat="38.16601010885622" lon="15.653450204167852"><ele>20.0</ele><time>2026-05-03T11:14:40Z</time></trkpt><trkpt lat="38.16592592663237" lon="15.653477813745573"><ele>20.0</ele><time>2026-05-03T11:14:41Z</time></trkpt><trkpt lat="38.16583010330266" lon="15.653518978959529"><ele>20.0</ele><time>2026-05-03T11:14:42Z</time></trkpt><trkpt lat="38.16573289189572" lon="15.6535645829564"><ele>20.0</ele><time>2026-05-03T11:14:43Z</time></trkpt><trkpt lat="38.16563115547585" lon="15.653616867463883"><ele>20.0</ele><time>2026-05-03T11:14:44Z</time></trkpt><trkpt lat="38.165521589536056" lon="15.653662884745327"><ele>20.2</ele><time>2026-05-03T11:14:45Z</time></trkpt><trkpt lat="38.16541148430227" lon="15.653744684448034"><ele>20.4</ele><time>2026-05-03T11:14:46Z</time></trkpt><trkpt lat="38.165293011048675" lon="15.653771192150503"><ele>20.6</ele><time>2026-05-03T11:14:47Z</time></trkpt><trkpt lat="38.16520185568032" lon="15.653801652681905"><ele>20.8</ele><time>2026-05-03T11:14:48Z</time></trkpt><trkpt lat="38.1651054292919" lon="15.653828935292228"><ele>21.0</ele><time>2026-05-03T11:14:49Z</time></trkpt><trkpt lat="38.165001461360085" lon="15.65387754402903"><ele>21.0</ele><time>2026-05-03T11:14:50Z</time></trkpt><trkpt lat="38.16489202901758" lon="15.653925781032562"><ele>21.0</ele><time>2026-05-03T11:14:51Z</time></trkpt><trkpt lat="38.16477416307085" lon="15.65396806472273"><ele>21.0</ele><time>2026-05-03T11:14:52Z</time></trkpt><trkpt lat="38.16466147643713" lon="15.653991281008922"><ele>21.0</ele><time>2026-05-03T11:14:53Z</time></trkpt><trkpt lat="38.16455507778424" lon="15.654037313071122"><ele>20.400000000000002</ele><time>2026-05-03T11:14:54Z</time></trkpt><trkpt lat="38.16445481609635" lon="15.65408072170331"><ele>19.8</ele><time>2026-05-03T11:14:55Z</time></trkpt><trkpt lat="38.164353115288584" lon="15.654121088816796"><ele>19.200000000000003</ele><time>2026-05-03T11:14:56Z</time></trkpt><trkpt lat="38.164259772725785" lon="15.654165815877228"><ele>18.6</ele><time>2026-05-03T11:14:57Z</time></trkpt><trkpt lat="38.16416765803656" lon="15.654211926388083"><ele>18.0</ele><time>2026-05-03T11:14:58Z</time></trkpt><trkpt lat="38.164066446219415" lon="15.65426975121791"><ele>18.0</ele><time>2026-05-03T11:14:59Z</time></trkpt><trkpt lat="38.16395384517105" lon="15.654311813959534"><ele>18.0</ele><time>2026-05-03T11:15:00Z</time></trkpt><trkpt lat="38.163845423637724" lon="15.65436076230751"><ele>18.0</ele><time>2026-05-03T11:15:01Z</time></trkpt><trkpt lat="38.16374014859095" lon="15.654416569857437"><ele>18.0</ele><time>2026-05-03T11:15:02Z</time></trkpt><trkpt lat="38.16363907853456" lon="15.654458718678903"><ele>18.0</ele><time>2026-05-03T11:15:03Z</time></trkpt><trkpt lat="38.1635437808686" lon="15.654501607046797"><ele>18.0</ele><time>2026-05-03T11:15:04Z</time></trkpt><trkpt lat="38.16345959678091" lon="15.65452949760414"><ele>18.0</ele><time>2026-05-03T11:15:05Z</time></trkpt><trkpt lat="38.16337284174888" lon="15.654561764603844"><ele>18.0</ele><time>2026-05-03T11:15:06Z</time></trkpt><trkpt lat="38.16329304539046" lon="15.654607678252974"><ele>18.0</ele><time>2026-05-03T11:15:07Z</time></trkpt><trkpt lat="38.16319853490228" lon="15.654649562939834"><ele>17.6</ele><time>2026-05-03T11:15:08Z</time></trkpt><trkpt lat="38.16311358851415" lon="15.654661862802378"><ele>17.200000000000003</ele><time>2026-05-03T11:15:09Z</time></trkpt><trkpt lat="38.163027674855975" lon="15.654689197398646"><ele>16.8</ele><time>2026-05-03T11:15:10Z</time></trkpt><trkpt lat="38.1629320439557" lon="15.654732196299474"><ele>16.400000000000002</ele><time>2026-05-03T11:15:11Z</time></trkpt><trkpt lat="38.162857478933084" lon="15.65479524786152"><ele>16.0</ele><time>2026-05-03T11:15:12Z</time></trkpt><trkpt lat="38.162770657476386" lon="15.654833511202476"><ele>16.0</ele><time>2026-05-03T11:15:13Z</time></trkpt><trkpt lat="38.16266913350105" lon="15.654881266513657"><ele>16.0</ele><time>2026-05-03T11:15:14Z</time></trkpt><trkpt lat="38.16257503817716" lon="15.654915279854695"><ele>16.0</ele><time>2026-05-03T11:15:15Z</time></trkpt><trkpt lat="38.16245979752591" lon="15.654943786965282"><ele>16.0</ele><time>2026-05-03T11:15:16Z</time></trkpt><trkpt lat="38.16235269680152" lon="15.65498742295793"><ele>16.0</ele><time>2026-05-03T11:15:17Z</time></trkpt><trkpt lat="38.16224770090442" lon="15.655020929993091"><ele>16.0</ele><time>2026-05-03T11:15:18Z</time></trkpt><trkpt lat="38.16213489032949" lon="15.65505552391439"><ele>16.0</ele><time>2026-05-03T11:15:19Z</time></trkpt><trkpt lat="38.16202096819897" lon="15.655091259803697"><ele>16.0</ele><time>2026-05-03T11:15:20Z</time></trkpt><trkpt lat="38.16190901028972" lon="15.65513226801998"><ele>16.0</ele><time>2026-05-03T11:15:21Z</time></trkpt><trkpt lat="38.1617912348026" lon="15.655167209226065"><ele>16.0</ele><time>2026-05-03T11:15:22Z</time></trkpt><trkpt lat="38.16167786319441" lon="15.655206418869678"><ele>16.0</ele><time>2026-05-03T11:15:23Z</time></trkpt><trkpt lat="38.16155815766108" lon="15.655245917197215"><ele>16.0</ele><time>2026-05-03T11:15:24Z</time></trkpt><trkpt lat="38.16144994932018" lon="15.655267889379665"><ele>16.0</ele><time>2026-05-03T11:15:25Z</time></trkpt><trkpt lat="38.16131389680511" lon="15.655312835960332"><ele>16.75</ele><time>2026-05-03T11:15:26Z</time></trkpt><trkpt lat="38.16118060440436" lon="15.655345414879946"><ele>17.5</ele><time>2026-05-03T11:15:27Z</time></trkpt><trkpt lat="38.1610562824956" lon="15.655371973763739"><ele>18.25</ele><time>2026-05-03T11:15:28Z</time></trkpt><trkpt lat="38.1609385421021" lon="15.655406091705444"><ele>19.0</ele><time>2026-05-03T11:15:29Z</time></trkpt><trkpt lat="38.1608077794393" lon="15.655437982343733"><ele>19.0</ele><time>2026-05-03T11:15:30Z</time></trkpt><trkpt lat="38.16067589006981" lon="15.655472918954525"><ele>19.0</ele><time>2026-05-03T11:15:31Z</time></trkpt><trkpt lat="38.1605483760792" lon="15.655496023943076"><ele>19.0</ele><time>2026-05-03T11:15:32Z</time></trkpt><trkpt lat="38.16042463124854" lon="15.655525853942828"><ele>19.0</ele><time>2026-05-03T11:15:33Z</time></trkpt><trkpt lat="38.160290184590046" lon="15.655572271476874"><ele>19.0</ele><time>2026-05-03T11:15:34Z</time></trkpt><trkpt lat="38.16017601760851" lon="15.655616309540084"><ele>19.0</ele><time>2026-05-03T11:15:35Z</time></trkpt><trkpt lat="38.16006633660707" lon="15.655641979077245"><ele>19.0</ele><time>2026-05-03T11:15:36Z</time></trkpt><trkpt lat="38.15993830952283" lon="15.655668436246147"><ele>19.0</ele><time>2026-05-03T11:15:37Z</time></trkpt><trkpt lat="38.15982312722731" lon="15.655725295343576"><ele>19.0</ele><time>2026-05-03T11:15:38Z</time></trkpt><trkpt lat="38.159707240473985" lon="15.655746997141373"><ele>19.0</ele><time>2026-05-03T11:15:39Z</time></trkpt><trkpt lat="38.15959052516869" lon="15.655789347267753"><ele>19.0</ele><time>2026-05-03T11:15:40Z</time></trkpt><trkpt lat="38.15948399537164" lon="15.655828337548424"><ele>19.0</ele><time>2026-05-03T11:15:41Z</time></trkpt><trkpt lat="38.159371441448314" lon="15.65587374784698"><ele>19.0</ele><time>2026-05-03T11:15:42Z</time></trkpt><trkpt lat="38.159264866961074" lon="15.655929921668335"><ele>19.0</ele><time>2026-05-03T11:15:43Z</time></trkpt><trkpt lat="38.15913912825129" lon="15.655974862482497"><ele>19.0</ele><time>2026-05-03T11:15:44Z</time></trkpt><trkpt lat="38.15901579516897" lon="15.656028232655647"><ele>19.0</ele><time>2026-05-03T11:15:45Z</time></trkpt><trkpt lat="38.15890236312856" lon="15.656077074155268"><ele>19.75</ele><time>2026-05-03T11:15:46Z</time></trkpt><trkpt lat="38.158786853255855" lon="15.656126646700931"><ele>20.5</ele><time>2026-05-03T11:15:47Z</time></trkpt><trkpt lat="38.158670379374385" lon="15.656174424421112"><ele>21.25</ele><time>2026-05-03T11:15:48Z</time></trkpt><trkpt lat="38.158549060786875" lon="15.656225116253017"><ele>22.0</ele><time>2026-05-03T11:15:49Z</time></trkpt><trkpt lat="38.158427440616435" lon="15.656269990739967"><ele>22.0</ele><time>2026-05-03T11:15:50Z</time></trkpt><trkpt lat="38.15831514464097" lon="15.656336097367626"><ele>22.0</ele><time>2026-05-03T11:15:51Z</time></trkpt><trkpt lat="38.15819157502699" lon="15.656400520798869"><ele>22.0</ele><time>2026-05-03T11:15:52Z</time></trkpt><trkpt lat="38.15806592403132" lon="15.65644561480622"><ele>22.0</ele><time>2026-05-03T11:15:53Z</time></trkpt><trkpt lat="38.1579456887912" lon="15.65650293499805"><ele>22.75</ele><time>2026-05-03T11:15:54Z</time></trkpt><trkpt lat="38.15782615374647" lon="15.656560516529801"><ele>23.5</ele><time>2026-05-03T11:15:55Z</time></trkpt><trkpt lat="38.157705235011086" lon="15.656615371379072"><ele>24.25</ele><time>2026-05-03T11:15:56Z</time></trkpt><trkpt lat="38.15759430453559" lon="15.656668530878918"><ele>25.0</ele><time>2026-05-03T11:15:57Z</time></trkpt><trkpt lat="38.15745233925868" lon="15.656725613570636"><ele>23.75</ele><time>2026-05-03T11:15:58Z</time></trkpt><trkpt lat="38.157317121181045" lon="15.656769081100535"><ele>22.5</ele><time>2026-05-03T11:15:59Z</time></trkpt><trkpt lat="38.15717415068285" lon="15.656796775750516"><ele>21.25</ele><time>2026-05-03T11:16:00Z</time></trkpt><trkpt lat="38.157045133176396" lon="15.656866911947157"><ele>20.0</ele><time>2026-05-03T11:16:01Z</time></trkpt><trkpt lat="38.15691391872763" lon="15.656932742595664"><ele>20.0</ele><time>2026-05-03T11:16:02Z</time></trkpt><trkpt lat="38.156798120563714" lon="15.657012459573533"><ele>20.0</ele><time>2026-05-03T11:16:03Z</time></trkpt><trkpt lat="38.156665042180606" lon="15.657064030409387"><ele>20.0</ele><time>2026-05-03T11:16:04Z</time></trkpt><trkpt lat="38.15653740484448" lon="15.657125750319349"><ele>20.0</ele><time>2026-05-03T11:16:05Z</time></trkpt><trkpt lat="38.156410091332035" lon="15.657204118715361"><ele>19.25</ele><time>2026-05-03T11:16:06Z</time></trkpt><trkpt lat="38.15627767858512" lon="15.657251778942571"><ele>18.5</ele><time>2026-05-03T11:16:07Z</time></trkpt><trkpt lat="38.15614534343321" lon="15.657306867347629"><ele>17.75</ele><time>2026-05-03T11:16:08Z</time></trkpt><trkpt lat="38.15600887476284" lon="15.657363289010412"><ele>17.0</ele><time>2026-05-03T11:16:09Z</time></trkpt><trkpt lat="38.15587832051767" lon="15.657423473659259"><ele>17.0</ele><time>2026-05-03T11:16:10Z</time></trkpt><trkpt lat="38.15574900057882" lon="15.657481224671738"><ele>17.0</ele><time>2026-05-03T11:16:11Z</time></trkpt><trkpt lat="38.15562861910564" lon="15.657550356505197"><ele>17.0</ele><time>2026-05-03T11:16:12Z</time></trkpt><trkpt lat="38.15550536256833" lon="15.657629096795711"><ele>17.0</ele><time>2026-05-03T11:16:13Z</time></trkpt><trkpt lat="38.15541106191712" lon="15.657719233805167"><ele>17.6</ele><time>2026-05-03T11:16:14Z</time></trkpt><trkpt lat="38.155336325986156" lon="15.657828483397852"><ele>18.2</ele><time>2026-05-03T11:16:15Z</time></trkpt><trkpt lat="38.15522118599132" lon="15.657882487412255"><ele>18.8</ele><time>2026-05-03T11:16:16Z</time></trkpt><trkpt lat="38.15517280181551" lon="15.657970463862139"><ele>19.4</ele><time>2026-05-03T11:16:17Z</time></trkpt><trkpt lat="38.155106485322925" lon="15.658050061417192"><ele>20.0</ele><time>2026-05-03T11:16:18Z</time></trkpt><trkpt lat="38.15503756699924" lon="15.658127575152356"><ele>20.0</ele><time>2026-05-03T11:16:19Z</time></trkpt><trkpt lat="38.15497454228805" lon="15.658208763185803"><ele>20.0</ele><time>2026-05-03T11:16:20Z</time></trkpt><trkpt lat="38.154916624348346" lon="15.658284068063713"><ele>20.0</ele><time>2026-05-03T11:16:21Z</time></trkpt><trkpt lat="38.15482722279869" lon="15.658355253638666"><ele>20.0</ele><time>2026-05-03T11:16:22Z</time></trkpt><trkpt lat="38.15478002825323" lon="15.658426963612563"><ele>20.0</ele><time>2026-05-03T11:16:23Z</time></trkpt><trkpt lat="38.15470731515988" lon="15.658508463911573"><ele>20.0</ele><time>2026-05-03T11:16:23.999Z</time></trkpt><trkpt lat="38.15462419082961" lon="15.658598809909519"><ele>20.25</ele><time>2026-05-03T11:16:24.999Z</time></trkpt><trkpt lat="38.15451745604584" lon="15.658692705684832"><ele>20.5</ele><time>2026-05-03T11:16:25.999Z</time></trkpt><trkpt lat="38.15444254098268" lon="15.658787603476844"><ele>20.75</ele><time>2026-05-03T11:16:26.999Z</time></trkpt><trkpt lat="38.15434426730707" lon="15.658887024592838"><ele>21.0</ele><time>2026-05-03T11:16:27.999Z</time></trkpt><trkpt lat="38.15425819847184" lon="15.658992154663036"><ele>21.0</ele><time>2026-05-03T11:16:28.999Z</time></trkpt><trkpt lat="38.15416495797236" lon="15.659083765812197"><ele>21.0</ele><time>2026-05-03T11:16:29.999Z</time></trkpt><trkpt lat="38.15407969391421" lon="15.659184208128247"><ele>21.0</ele><time>2026-05-03T11:16:30.999Z</time></trkpt><trkpt lat="38.15398680571883" lon="15.659287230851806"><ele>21.0</ele><time>2026-05-03T11:16:31.999Z</time></trkpt><trkpt lat="38.15389447392325" lon="15.659391198057422"><ele>21.25</ele><time>2026-05-03T11:16:32.999Z</time></trkpt><trkpt lat="38.15379928914432" lon="15.65950063943108"><ele>21.5</ele><time>2026-05-03T11:16:33.999Z</time></trkpt><trkpt lat="38.15370812829439" lon="15.65960177697635"><ele>21.75</ele><time>2026-05-03T11:16:34.999Z</time></trkpt><trkpt lat="38.15362137610488" lon="15.659715470523409"><ele>22.0</ele><time>2026-05-03T11:16:35.999Z</time></trkpt><trkpt lat="38.15352717149456" lon="15.6598118997807"><ele>22.0</ele><time>2026-05-03T11:16:36.999Z</time></trkpt><trkpt lat="38.153419079806504" lon="15.65990609851931"><ele>22.0</ele><time>2026-05-03T11:16:37.999Z</time></trkpt><trkpt lat="38.15330691077454" lon="15.660000060416131"><ele>22.0</ele><time>2026-05-03T11:16:38.999Z</time></trkpt><trkpt lat="38.153215078955235" lon="15.660094707697244"><ele>22.0</ele><time>2026-05-03T11:16:39.999Z</time></trkpt><trkpt lat="38.15312757829295" lon="15.660200573010288"><ele>21.75</ele><time>2026-05-03T11:16:40.999Z</time></trkpt><trkpt lat="38.15304181853792" lon="15.660294710874608"><ele>21.5</ele><time>2026-05-03T11:16:41.999Z</time></trkpt><trkpt lat="38.152950143882286" lon="15.660408099559007"><ele>21.25</ele><time>2026-05-03T11:16:42.999Z</time></trkpt><trkpt lat="38.15286804852338" lon="15.660483723340292"><ele>21.0</ele><time>2026-05-03T11:16:43.999Z</time></trkpt><trkpt lat="38.15277241242471" lon="15.660566946580662"><ele>21.0</ele><time>2026-05-03T11:16:44.999Z</time></trkpt><trkpt lat="38.15267583512141" lon="15.660655819378666"><ele>21.0</ele><time>2026-05-03T11:16:46Z</time></trkpt><trkpt lat="38.15258705173411" lon="15.660748844836538"><ele>21.0</ele><time>2026-05-03T11:16:47Z</time></trkpt><trkpt lat="38.15251023743499" lon="15.660847365375837"><ele>21.0</ele><time>2026-05-03T11:16:48Z</time></trkpt><trkpt lat="38.152430041019706" lon="15.660941532947216"><ele>21.8</ele><time>2026-05-03T11:16:49Z</time></trkpt><trkpt lat="38.15235370445379" lon="15.661033102629395"><ele>22.6</ele><time>2026-05-03T11:16:50Z</time></trkpt><trkpt lat="38.152263835566565" lon="15.661112272923786"><ele>23.4</ele><time>2026-05-03T11:16:51Z</time></trkpt><trkpt lat="38.15218104747953" lon="15.661177350089133"><ele>24.2</ele><time>2026-05-03T11:16:52Z</time></trkpt><trkpt lat="38.152088135400234" lon="15.661234315495054"><ele>25.0</ele><time>2026-05-03T11:16:53Z</time></trkpt><trkpt lat="38.151986036770914" lon="15.661214681431652"><ele>25.6</ele><time>2026-05-03T11:16:54Z</time></trkpt><trkpt lat="38.151874655045965" lon="15.66120906142877"><ele>26.2</ele><time>2026-05-03T11:16:55Z</time></trkpt><trkpt lat="38.15176485819901" lon="15.661202996299318"><ele>26.799999999999997</ele><time>2026-05-03T11:16:56Z</time></trkpt><trkpt lat="38.151669405783196" lon="15.661173634232489"><ele>27.4</ele><time>2026-05-03T11:16:57Z</time></trkpt><trkpt lat="38.15157137530769" lon="15.66114552585221"><ele>28.0</ele><time>2026-05-03T11:16:58Z</time></trkpt><trkpt lat="38.15144479939277" lon="15.66111051758136"><ele>28.0</ele><time>2026-05-03T11:16:59Z</time></trkpt><trkpt lat="38.151330003903276" lon="15.661075704191843"><ele>28.0</ele><time>2026-05-03T11:17:00Z</time></trkpt><trkpt lat="38.151216609189376" lon="15.66105102724383"><ele>28.0</ele><time>2026-05-03T11:17:01Z</time></trkpt><trkpt lat="38.15111449296875" lon="15.661033619090997"><ele>28.0</ele><time>2026-05-03T11:17:02Z</time></trkpt><trkpt lat="38.15099185814252" lon="15.660991690708595"><ele>28.0</ele><time>2026-05-03T11:17:03Z</time></trkpt><trkpt lat="38.150881915952255" lon="15.660966530695832"><ele>28.0</ele><time>2026-05-03T11:17:04Z</time></trkpt><trkpt lat="38.150767428770244" lon="15.660944436563897"><ele>28.0</ele><time>2026-05-03T11:17:05Z</time></trkpt><trkpt lat="38.15065598186094" lon="15.660942211945708"><ele>28.0</ele><time>2026-05-03T11:17:06Z</time></trkpt><trkpt lat="38.15053936019768" lon="15.660907771666375"><ele>28.5</ele><time>2026-05-03T11:17:07Z</time></trkpt><trkpt lat="38.15042450250017" lon="15.660873365912636"><ele>29.0</ele><time>2026-05-03T11:17:08Z</time></trkpt><trkpt lat="38.15030582878979" lon="15.660840732558109"><ele>29.5</ele><time>2026-05-03T11:17:09Z</time></trkpt><trkpt lat="38.15018192075582" lon="15.660802313834255"><ele>30.0</ele><time>2026-05-03T11:17:10Z</time></trkpt><trkpt lat="38.150083708025015" lon="15.66077255708194"><ele>30.0</ele><time>2026-05-03T11:17:11Z</time></trkpt><trkpt lat="38.14996375078529" lon="15.660753948571376"><ele>30.0</ele><time>2026-05-03T11:17:12Z</time></trkpt><trkpt lat="38.14984240757643" lon="15.660725861629041"><ele>30.0</ele><time>2026-05-03T11:17:13Z</time></trkpt><trkpt lat="38.14972097703978" lon="15.66070000045563"><ele>30.0</ele><time>2026-05-03T11:17:14Z</time></trkpt><trkpt lat="38.14960180229077" lon="15.660666611906924"><ele>31.5</ele><time>2026-05-03T11:17:15Z</time></trkpt><trkpt lat="38.14947727423032" lon="15.660633399707974"><ele>33.0</ele><time>2026-05-03T11:17:16Z</time></trkpt><trkpt lat="38.14935277871425" lon="15.66060227076014"><ele>34.5</ele><time>2026-05-03T11:17:17Z</time></trkpt><trkpt lat="38.149236605791835" lon="15.66056646357755"><ele>36.0</ele><time>2026-05-03T11:17:18Z</time></trkpt><trkpt lat="38.14912795824315" lon="15.660536735007177"><ele>36.2</ele><time>2026-05-03T11:17:19Z</time></trkpt><trkpt lat="38.14902488758458" lon="15.660485827828623"><ele>36.400000000000006</ele><time>2026-05-03T11:17:20Z</time></trkpt><trkpt lat="38.14891420851113" lon="15.660472135866943"><ele>36.6</ele><time>2026-05-03T11:17:21Z</time></trkpt><trkpt lat="38.14882072681939" lon="15.660448468475561"><ele>36.800000000000004</ele><time>2026-05-03T11:17:22Z</time></trkpt><trkpt lat="38.148736100027776" lon="15.660411618136997"><ele>37.0</ele><time>2026-05-03T11:17:23Z</time></trkpt><trkpt lat="38.14864763359672" lon="15.660397625134284"><ele>37.0</ele><time>2026-05-03T11:17:24Z</time></trkpt><trkpt lat="38.14858384064551" lon="15.660375044155717"><ele>37.0</ele><time>2026-05-03T11:17:25Z</time></trkpt><trkpt lat="38.148507653945565" lon="15.660371280876841"><ele>37.0</ele><time>2026-05-03T11:17:26Z</time></trkpt><trkpt lat="38.148439787188096" lon="15.660357877466353"><ele>37.0</ele><time>2026-05-03T11:17:27Z</time></trkpt><trkpt lat="38.148380251860736" lon="15.660327370270533"><ele>37.0</ele><time>2026-05-03T11:17:28Z</time></trkpt><trkpt lat="38.14838794961489" lon="15.660239207299233"><ele>37.0</ele><time>2026-05-03T11:17:30Z</time></trkpt><trkpt lat="38.14844296757677" lon="15.660124729463957"><ele>35.2</ele><time>2026-05-03T11:17:31Z</time></trkpt><trkpt lat="38.14845726053131" lon="15.660030244794171"><ele>33.400000000000006</ele><time>2026-05-03T11:17:32Z</time></trkpt><trkpt lat="38.148476489090015" lon="15.65991115170678"><ele>31.599999999999998</ele><time>2026-05-03T11:17:33Z</time></trkpt><trkpt lat="38.14850172142632" lon="15.659754677445362"><ele>29.799999999999997</ele><time>2026-05-03T11:17:34Z</time></trkpt><trkpt lat="38.148516305322154" lon="15.659652862584903"><ele>28.0</ele><time>2026-05-03T11:17:35Z</time></trkpt><trkpt lat="38.148533759550375" lon="15.65955001824559"><ele>26.799999999999997</ele><time>2026-05-03T11:17:36Z</time></trkpt><trkpt lat="38.14855842485777" lon="15.65944333529292"><ele>25.599999999999998</ele><time>2026-05-03T11:17:37Z</time></trkpt><trkpt lat="38.14859679459734" lon="15.659339816390803"><ele>24.4</ele><time>2026-05-03T11:17:38Z</time></trkpt><trkpt lat="38.148677358525944" lon="15.659269157405053"><ele>23.200000000000003</ele><time>2026-05-03T11:17:39Z</time></trkpt><trkpt lat="38.14875506505263" lon="15.659189943440905"><ele>22.0</ele><time>2026-05-03T11:17:40Z</time></trkpt><trkpt lat="38.14883975368391" lon="15.65910039113014"><ele>22.0</ele><time>2026-05-03T11:17:41Z</time></trkpt><trkpt lat="38.14891577330737" lon="15.658999311080475"><ele>22.0</ele><time>2026-05-03T11:17:42Z</time></trkpt><trkpt lat="38.14899933635017" lon="15.658915927693325"><ele>22.0</ele><time>2026-05-03T11:17:43Z</time></trkpt><trkpt lat="38.14907647493621" lon="15.65883254155148"><ele>22.0</ele><time>2026-05-03T11:17:44Z</time></trkpt><trkpt lat="38.14913728022028" lon="15.658744899711852"><ele>22.0</ele><time>2026-05-03T11:17:45Z</time></trkpt><trkpt lat="38.14918113559362" lon="15.65863550014522"><ele>21.400000000000002</ele><time>2026-05-03T11:17:46Z</time></trkpt><trkpt lat="38.14920437093029" lon="15.658518083447229"><ele>20.8</ele><time>2026-05-03T11:17:47Z</time></trkpt><trkpt lat="38.149218468417814" lon="15.658381799893078"><ele>20.2</ele><time>2026-05-03T11:17:48Z</time></trkpt><trkpt lat="38.14922551117758" lon="15.658269047424739"><ele>19.6</ele><time>2026-05-03T11:17:49Z</time></trkpt><trkpt lat="38.149267935411764" lon="15.658108271966379"><ele>19.0</ele><time>2026-05-03T11:17:50Z</time></trkpt><trkpt lat="38.14927811708729" lon="15.65798061023683"><ele>19.0</ele><time>2026-05-03T11:17:51Z</time></trkpt><trkpt lat="38.14931110733412" lon="15.657838399458155"><ele>19.0</ele><time>2026-05-03T11:17:52Z</time></trkpt><trkpt lat="38.149337854114236" lon="15.65770483905995"><ele>19.0</ele><time>2026-05-03T11:17:53Z</time></trkpt><trkpt lat="38.14936763855401" lon="15.657568592643244"><ele>19.0</ele><time>2026-05-03T11:17:54Z</time></trkpt><trkpt lat="38.149395955721474" lon="15.657440336957517"><ele>19.0</ele><time>2026-05-03T11:17:55Z</time></trkpt><trkpt lat="38.149437769992744" lon="15.657325362321746"><ele>18.833333333333332</ele><time>2026-05-03T11:17:56Z</time></trkpt><trkpt lat="38.149465821399566" lon="15.657218434214483"><ele>18.666666666666664</ele><time>2026-05-03T11:17:57Z</time></trkpt><trkpt lat="38.14950171795816" lon="15.65712392448223"><ele>18.5</ele><time>2026-05-03T11:18:02Z</time></trkpt><trkpt lat="38.14956510073407" lon="15.657003093290426"><ele>18.333333333333332</ele><time>2026-05-03T11:18:04Z</time></trkpt><trkpt lat="38.14960066378363" lon="15.656922795519463"><ele>18.166666666666668</ele><time>2026-05-03T11:18:05Z</time></trkpt><trkpt lat="38.1496435079376" lon="15.65682805816865"><ele>18.0</ele><time>2026-05-03T11:18:06Z</time></trkpt><trkpt lat="38.14968415096513" lon="15.656727621766747"><ele>16.6</ele><time>2026-05-03T11:18:07Z</time></trkpt><trkpt lat="38.14971383006928" lon="15.656620266246037"><ele>15.200000000000001</ele><time>2026-05-03T11:18:08Z</time></trkpt><trkpt lat="38.14970632494047" lon="15.656495594004845"><ele>13.8</ele><time>2026-05-03T11:18:09Z</time></trkpt><trkpt lat="38.149640093833504" lon="15.656409207870082"><ele>12.4</ele><time>2026-05-03T11:18:10Z</time></trkpt><trkpt lat="38.14955852324872" lon="15.656336481272069"><ele>11.0</ele><time>2026-05-03T11:18:11Z</time></trkpt><trkpt lat="38.149443851703126" lon="15.656286093233035"><ele>11.0</ele><time>2026-05-03T11:18:12Z</time></trkpt><trkpt lat="38.14932585116714" lon="15.656239850338943"><ele>11.0</ele><time>2026-05-03T11:18:13Z</time></trkpt><trkpt lat="38.1491896606513" lon="15.656163542677781"><ele>11.0</ele><time>2026-05-03T11:18:14Z</time></trkpt><trkpt lat="38.149056724541275" lon="15.656081902208381"><ele>11.0</ele><time>2026-05-03T11:18:15Z</time></trkpt><trkpt lat="38.148917360912115" lon="15.655998649611902"><ele>10.0</ele><time>2026-05-03T11:18:16Z</time></trkpt><trkpt lat="38.14876818379817" lon="15.65591224164005"><ele>9.0</ele><time>2026-05-03T11:18:17Z</time></trkpt><trkpt lat="38.14861508984597" lon="15.655817439280057"><ele>8.0</ele><time>2026-05-03T11:18:18Z</time></trkpt><trkpt lat="38.1484560792722" lon="15.655713745490976"><ele>8.0</ele><time>2026-05-03T11:18:19Z</time></trkpt><trkpt lat="38.14829155407741" lon="15.655611366793593"><ele>8.0</ele><time>2026-05-03T11:18:20Z</time></trkpt><trkpt lat="38.148137017471946" lon="15.655489499410345"><ele>8.0</ele><time>2026-05-03T11:18:21Z</time></trkpt><trkpt lat="38.147983573418365" lon="15.655388703441975"><ele>8.333333333333332</ele><time>2026-05-03T11:18:22Z</time></trkpt><trkpt lat="38.147839905122375" lon="15.65529432913478"><ele>8.666666666666666</ele><time>2026-05-03T11:18:23Z</time></trkpt><trkpt lat="38.147703694361354" lon="15.655200956578378"><ele>9.0</ele><time>2026-05-03T11:18:24Z</time></trkpt><trkpt lat="38.14756717916071" lon="15.65511028090322"><ele>9.0</ele><time>2026-05-03T11:18:25Z</time></trkpt><trkpt lat="38.14744590408222" lon="15.655044233538018"><ele>9.0</ele><time>2026-05-03T11:18:26Z</time></trkpt><trkpt lat="38.147332990174036" lon="15.65498074946783"><ele>9.0</ele><time>2026-05-03T11:18:27Z</time></trkpt><trkpt lat="38.147213608652855" lon="15.654919790245474"><ele>9.0</ele><time>2026-05-03T11:18:28Z</time></trkpt><trkpt lat="38.14709791859275" lon="15.65487687667072"><ele>9.75</ele><time>2026-05-03T11:18:29Z</time></trkpt><trkpt lat="38.146975510358345" lon="15.654837868256319"><ele>10.5</ele><time>2026-05-03T11:18:29.999Z</time></trkpt><trkpt lat="38.14685198786288" lon="15.654795886390438"><ele>11.25</ele><time>2026-05-03T11:18:30.999Z</time></trkpt><trkpt lat="38.14672277033109" lon="15.654758709530915"><ele>12.0</ele><time>2026-05-03T11:18:31.999Z</time></trkpt><trkpt lat="38.146597294932825" lon="15.654735400081059"><ele>12.25</ele><time>2026-05-03T11:18:32.999Z</time></trkpt><trkpt lat="38.14648631232337" lon="15.654696504454616"><ele>12.5</ele><time>2026-05-03T11:18:33.999Z</time></trkpt><trkpt lat="38.146363616566255" lon="15.654680380096599"><ele>12.75</ele><time>2026-05-03T11:18:34.999Z</time></trkpt><trkpt lat="38.14623398107321" lon="15.654650622008674"><ele>13.0</ele><time>2026-05-03T11:18:35.999Z</time></trkpt><trkpt lat="38.14611196598886" lon="15.654627393371134"><ele>13.0</ele><time>2026-05-03T11:18:36.999Z</time></trkpt><trkpt lat="38.14598849991282" lon="15.654613496118271"><ele>13.0</ele><time>2026-05-03T11:18:37.999Z</time></trkpt><trkpt lat="38.14586034799211" lon="15.654613259977676"><ele>13.0</ele><time>2026-05-03T11:18:38.999Z</time></trkpt><trkpt lat="38.14573190540312" lon="15.654630377047164"><ele>13.0</ele><time>2026-05-03T11:18:39.999Z</time></trkpt><trkpt lat="38.14560457998324" lon="15.654644420874968"><ele>13.0</ele><time>2026-05-03T11:18:40.999Z</time></trkpt><trkpt lat="38.14546909973596" lon="15.654666500050421"><ele>13.0</ele><time>2026-05-03T11:18:41.999Z</time></trkpt><trkpt lat="38.145341366797986" lon="15.654694469014487"><ele>13.0</ele><time>2026-05-03T11:18:42.999Z</time></trkpt><trkpt lat="38.14520835273983" lon="15.654692197659463"><ele>13.0</ele><time>2026-05-03T11:18:43.999Z</time></trkpt><trkpt lat="38.14508444841014" lon="15.65472338805819"><ele>13.0</ele><time>2026-05-03T11:18:44.999Z</time></trkpt><trkpt lat="38.1449408139014" lon="15.654757588348177"><ele>13.0</ele><time>2026-05-03T11:18:45.999Z</time></trkpt><trkpt lat="38.14479582455074" lon="15.654793754259181"><ele>13.0</ele><time>2026-05-03T11:18:46.999Z</time></trkpt><trkpt lat="38.14466176705548" lon="15.654848641215665"><ele>13.0</ele><time>2026-05-03T11:18:47.999Z</time></trkpt><trkpt lat="38.14453141102396" lon="15.65490746910197"><ele>12.5</ele><time>2026-05-03T11:18:48.999Z</time></trkpt><trkpt lat="38.144403611529036" lon="15.654968291632855"><ele>12.0</ele><time>2026-05-03T11:18:49.999Z</time></trkpt><trkpt lat="38.1442761553622" lon="15.6550316555949"><ele>11.5</ele><time>2026-05-03T11:18:50.999Z</time></trkpt><trkpt lat="38.144157265590216" lon="15.65510355500972"><ele>11.0</ele><time>2026-05-03T11:18:51.999Z</time></trkpt><trkpt lat="38.144035508591735" lon="15.655177666288859"><ele>11.0</ele><time>2026-05-03T11:18:53Z</time></trkpt><trkpt lat="38.14391825779557" lon="15.655255362783532"><ele>11.0</ele><time>2026-05-03T11:18:54Z</time></trkpt><trkpt lat="38.14379900692854" lon="15.6553372818057"><ele>11.0</ele><time>2026-05-03T11:18:55Z</time></trkpt><trkpt lat="38.1436868284644" lon="15.655418122379468"><ele>11.0</ele><time>2026-05-03T11:18:56Z</time></trkpt><trkpt lat="38.143586050237566" lon="15.65548894128644"><ele>11.75</ele><time>2026-05-03T11:18:57Z</time></trkpt><trkpt lat="38.143482402646676" lon="15.655563048998149"><ele>12.5</ele><time>2026-05-03T11:18:58Z</time></trkpt><trkpt lat="38.14337627543181" lon="15.65564667438834"><ele>13.25</ele><time>2026-05-03T11:18:59Z</time></trkpt><trkpt lat="38.14326009892615" lon="15.655727711412574"><ele>14.0</ele><time>2026-05-03T11:19:00Z</time></trkpt><trkpt lat="38.14314413972361" lon="15.655815095242868"><ele>14.0</ele><time>2026-05-03T11:19:01Z</time></trkpt><trkpt lat="38.143032490895905" lon="15.655895061959205"><ele>13.999999999999998</ele><time>2026-05-03T11:19:02Z</time></trkpt><trkpt lat="38.142935002757106" lon="15.655965272184966"><ele>13.999999999999998</ele><time>2026-05-03T11:19:03Z</time></trkpt><trkpt lat="38.1428437595335" lon="15.656022174725669"><ele>14.0</ele><time>2026-05-03T11:19:04Z</time></trkpt><trkpt lat="38.14277467669714" lon="15.656071260786964"><ele>14.0</ele><time>2026-05-03T11:19:05Z</time></trkpt><trkpt lat="38.1427182191435" lon="15.656120688916182"><ele>14.000000000000002</ele><time>2026-05-03T11:19:06Z</time></trkpt><trkpt lat="38.142620727474764" lon="15.656145461421243"><ele>14.0</ele><time>2026-05-03T11:19:08Z</time></trkpt><trkpt lat="38.14256557677748" lon="15.656026490503425"><ele>14.0</ele><time>2026-05-03T11:19:10Z</time></trkpt><trkpt lat="38.14252978107408" lon="15.655946287474283"><ele>14.0</ele><time>2026-05-03T11:19:11Z</time></trkpt><trkpt lat="38.14248996659498" lon="15.655857633124949"><ele>14.000000000000002</ele><time>2026-05-03T11:19:12Z</time></trkpt><trkpt lat="38.142451290208335" lon="15.655771512874784"><ele>14.0</ele><time>2026-05-03T11:19:13Z</time></trkpt><trkpt lat="38.14241892466158" lon="15.655688122254896"><ele>13.833333333333334</ele><time>2026-05-03T11:19:14Z</time></trkpt><trkpt lat="38.142377166744275" lon="15.65561152036199"><ele>13.666666666666668</ele><time>2026-05-03T11:19:15Z</time></trkpt><trkpt lat="38.14234434018552" lon="15.655540234673914"><ele>13.5</ele><time>2026-05-03T11:19:16Z</time></trkpt><trkpt lat="38.14231207838009" lon="15.655463421722065"><ele>13.333333333333332</ele><time>2026-05-03T11:19:17Z</time></trkpt><trkpt lat="38.14227644637614" lon="15.655380492225035"><ele>13.166666666666666</ele><time>2026-05-03T11:19:18Z</time></trkpt><trkpt lat="38.14222436910674" lon="15.655263471152168"><ele>13.0</ele><time>2026-05-03T11:19:20Z</time></trkpt><trkpt lat="38.14219169830446" lon="15.655191040127097"><ele>12.499999999999998</ele><time>2026-05-03T11:19:22Z</time></trkpt><trkpt lat="38.142160289848746" lon="15.655119331673754"><ele>12.0</ele><time>2026-05-03T11:19:24Z</time></trkpt><trkpt lat="38.14212698757176" lon="15.65504377515572"><ele>11.5</ele><time>2026-05-03T11:19:26Z</time></trkpt><trkpt lat="38.14208545516702" lon="15.65494806686428"><ele>11.0</ele><time>2026-05-03T11:19:28Z</time></trkpt><trkpt lat="38.142058948905564" lon="15.65487407356423"><ele>10.5</ele><time>2026-05-03T11:19:30Z</time></trkpt><trkpt lat="38.142031179383615" lon="15.654796016864179"><ele>10.0</ele><time>2026-05-03T11:19:33Z</time></trkpt><trkpt lat="38.14190265835776" lon="15.654804659710363"><ele>10.0</ele><time>2026-05-03T11:19:38Z</time></trkpt><trkpt lat="38.141852481561074" lon="15.654871847005904"><ele>10.0</ele><time>2026-05-03T11:19:39Z</time></trkpt><trkpt lat="38.141802334264476" lon="15.6549312932735"><ele>10.0</ele><time>2026-05-03T11:19:40Z</time></trkpt><trkpt lat="38.14174241333919" lon="15.654994391177153"><ele>10.0</ele><time>2026-05-03T11:19:41Z</time></trkpt><trkpt lat="38.14166994142254" lon="15.65506580168738"><ele>10.0</ele><time>2026-05-03T11:19:42Z</time></trkpt><trkpt lat="38.141582208554574" lon="15.655138653474104"><ele>10.0</ele><time>2026-05-03T11:19:43Z</time></trkpt><trkpt lat="38.14149437641698" lon="15.655207543130386"><ele>9.75</ele><time>2026-05-03T11:19:44Z</time></trkpt><trkpt lat="38.14139953945956" lon="15.655285514420619"><ele>9.5</ele><time>2026-05-03T11:19:45Z</time></trkpt><trkpt lat="38.14129882580482" lon="15.655366512849104"><ele>9.25</ele><time>2026-05-03T11:19:46Z</time></trkpt><trkpt lat="38.1411921762506" lon="15.65545468207988"><ele>9.0</ele><time>2026-05-03T11:19:47Z</time></trkpt><trkpt lat="38.14107843203338" lon="15.655544270506832"><ele>9.0</ele><time>2026-05-03T11:19:48Z</time></trkpt><trkpt lat="38.14095853840549" lon="15.655633707861409"><ele>9.0</ele><time>2026-05-03T11:19:49Z</time></trkpt><trkpt lat="38.14083280956763" lon="15.655716313035251"><ele>9.0</ele><time>2026-05-03T11:19:50Z</time></trkpt><trkpt lat="38.14070852341255" lon="15.65580505980953"><ele>9.0</ele><time>2026-05-03T11:19:51Z</time></trkpt><trkpt lat="38.140560736532144" lon="15.655895719567749"><ele>10.0</ele><time>2026-05-03T11:19:52Z</time></trkpt><trkpt lat="38.14043157984778" lon="15.655987219831234"><ele>11.0</ele><time>2026-05-03T11:19:53Z</time></trkpt><trkpt lat="38.1402806941207" lon="15.656085813674837"><ele>12.0</ele><time>2026-05-03T11:19:54Z</time></trkpt><trkpt lat="38.14015800086546" lon="15.656166474220012"><ele>12.0</ele><time>2026-05-03T11:19:55Z</time></trkpt><trkpt lat="38.140030020701914" lon="15.656249502410924"><ele>12.0</ele><time>2026-05-03T11:19:56Z</time></trkpt><trkpt lat="38.13990390153752" lon="15.65633033533907"><ele>12.0</ele><time>2026-05-03T11:19:57Z</time></trkpt><trkpt lat="38.13977808945168" lon="15.656405545699847"><ele>12.0</ele><time>2026-05-03T11:19:58Z</time></trkpt><trkpt lat="38.139651464758465" lon="15.656477328427234"><ele>11.0</ele><time>2026-05-03T11:19:59Z</time></trkpt><trkpt lat="38.139533599492374" lon="15.656545773312933"><ele>10.0</ele><time>2026-05-03T11:20:00Z</time></trkpt><trkpt lat="38.139396937036594" lon="15.65659107778776"><ele>9.0</ele><time>2026-05-03T11:20:01Z</time></trkpt><trkpt lat="38.13925150703919" lon="15.6566492588454"><ele>8.0</ele><time>2026-05-03T11:20:02Z</time></trkpt><trkpt lat="38.139116729341936" lon="15.656696267858711"><ele>7.25</ele><time>2026-05-03T11:20:03Z</time></trkpt><trkpt lat="38.138976466534174" lon="15.656737551948511"><ele>6.5</ele><time>2026-05-03T11:20:04Z</time></trkpt><trkpt lat="38.138841357918544" lon="15.656781192782931"><ele>5.75</ele><time>2026-05-03T11:20:05Z</time></trkpt><trkpt lat="38.138711271441196" lon="15.656825506012165"><ele>5.0</ele><time>2026-05-03T11:20:06Z</time></trkpt><trkpt lat="38.13858714715802" lon="15.656869652308803"><ele>5.0</ele><time>2026-05-03T11:20:07Z</time></trkpt><trkpt lat="38.1384649564747" lon="15.656903804193455"><ele>5.0</ele><time>2026-05-03T11:20:08Z</time></trkpt><trkpt lat="38.13834819369448" lon="15.656939400995144"><ele>5.0</ele><time>2026-05-03T11:20:09Z</time></trkpt><trkpt lat="38.13823945337669" lon="15.656983142361504"><ele>5.0</ele><time>2026-05-03T11:20:10Z</time></trkpt><trkpt lat="38.13812785575736" lon="15.65702403748792"><ele>7.0</ele><time>2026-05-03T11:20:11Z</time></trkpt><trkpt lat="38.138016567306124" lon="15.657051878075052"><ele>9.0</ele><time>2026-05-03T11:20:12Z</time></trkpt><trkpt lat="38.1379098418406" lon="15.657078394593148"><ele>11.0</ele><time>2026-05-03T11:20:13Z</time></trkpt><trkpt lat="38.13780468494051" lon="15.657116234714012"><ele>13.0</ele><time>2026-05-03T11:20:14Z</time></trkpt><trkpt lat="38.137705691908465" lon="15.657145722409188"><ele>15.0</ele><time>2026-05-03T11:20:15Z</time></trkpt><trkpt lat="38.137602127338326" lon="15.65718453077025"><ele>15.0</ele><time>2026-05-03T11:20:16Z</time></trkpt><trkpt lat="38.137499350216174" lon="15.65722177120698"><ele>15.0</ele><time>2026-05-03T11:20:17Z</time></trkpt><trkpt lat="38.137396037722255" lon="15.657261854139227"><ele>15.0</ele><time>2026-05-03T11:20:18Z</time></trkpt><trkpt lat="38.13728367973449" lon="15.657270390958383"><ele>15.0</ele><time>2026-05-03T11:20:19Z</time></trkpt><trkpt lat="38.13717506472019" lon="15.657296620054394"><ele>15.0</ele><time>2026-05-03T11:20:20Z</time></trkpt><trkpt lat="38.13706152552095" lon="15.657324048567817"><ele>14.8</ele><time>2026-05-03T11:20:21Z</time></trkpt><trkpt lat="38.13695844951082" lon="15.657354773900778"><ele>14.6</ele><time>2026-05-03T11:20:22Z</time></trkpt><trkpt lat="38.13685353337436" lon="15.65738183808034"><ele>14.399999999999999</ele><time>2026-05-03T11:20:23Z</time></trkpt><trkpt lat="38.1367456613263" lon="15.657375555127476"><ele>14.2</ele><time>2026-05-03T11:20:24Z</time></trkpt><trkpt lat="38.13663166929491" lon="15.657333723907163"><ele>14.0</ele><time>2026-05-03T11:20:25Z</time></trkpt><trkpt lat="38.136532021119265" lon="15.657298887643442"><ele>14.0</ele><time>2026-05-03T11:20:26Z</time></trkpt><trkpt lat="38.13642312434043" lon="15.657266822044457"><ele>14.0</ele><time>2026-05-03T11:20:27Z</time></trkpt><trkpt lat="38.136314370170766" lon="15.657241003871333"><ele>14.0</ele><time>2026-05-03T11:20:28Z</time></trkpt><trkpt lat="38.13619662000468" lon="15.657199151753805"><ele>14.0</ele><time>2026-05-03T11:20:29Z</time></trkpt><trkpt lat="38.136077500554734" lon="15.657161291867384"><ele>14.0</ele><time>2026-05-03T11:20:30Z</time></trkpt><trkpt lat="38.13595166939536" lon="15.657120935794806"><ele>14.0</ele><time>2026-05-03T11:20:31Z</time></trkpt><trkpt lat="38.13583000248177" lon="15.657083817766505"><ele>14.0</ele><time>2026-05-03T11:20:32Z</time></trkpt><trkpt lat="38.1357150905677" lon="15.657051635279881"><ele>14.0</ele><time>2026-05-03T11:20:33.001Z</time></trkpt><trkpt lat="38.1355932885581" lon="15.657010484451833"><ele>14.5</ele><time>2026-05-03T11:20:34.001Z</time></trkpt><trkpt lat="38.1354755564881" lon="15.656972610972195"><ele>15.0</ele><time>2026-05-03T11:20:35.001Z</time></trkpt><trkpt lat="38.13533949387381" lon="15.656941982345666"><ele>15.5</ele><time>2026-05-03T11:20:35.999Z</time></trkpt><trkpt lat="38.135218753249525" lon="15.656894401061283"><ele>16.0</ele><time>2026-05-03T11:20:36.999Z</time></trkpt><trkpt lat="38.13509704939212" lon="15.656844651062638"><ele>15.0</ele><time>2026-05-03T11:20:37.999Z</time></trkpt><trkpt lat="38.13497227080568" lon="15.656789661972283"><ele>14.0</ele><time>2026-05-03T11:20:38.999Z</time></trkpt><trkpt lat="38.13485381506448" lon="15.656740222647736"><ele>13.0</ele><time>2026-05-03T11:20:39.999Z</time></trkpt><trkpt lat="38.134732919991514" lon="15.656678499545936"><ele>12.0</ele><time>2026-05-03T11:20:40.999Z</time></trkpt><trkpt lat="38.13461783476258" lon="15.656591413347591"><ele>12.0</ele><time>2026-05-03T11:20:41.999Z</time></trkpt><trkpt lat="38.134503807943474" lon="15.6565500094667"><ele>12.0</ele><time>2026-05-03T11:20:42.999Z</time></trkpt><trkpt lat="38.1343858990085" lon="15.656489696251882"><ele>12.0</ele><time>2026-05-03T11:20:43.999Z</time></trkpt><trkpt lat="38.134268784620225" lon="15.656424276560145"><ele>12.0</ele><time>2026-05-03T11:20:44.999Z</time></trkpt><trkpt lat="38.13415338485427" lon="15.656363047865709"><ele>11.75</ele><time>2026-05-03T11:20:45.999Z</time></trkpt><trkpt lat="38.134044621707396" lon="15.656288267646726"><ele>11.5</ele><time>2026-05-03T11:20:46.999Z</time></trkpt><trkpt lat="38.133932789715146" lon="15.65622616124345"><ele>11.25</ele><time>2026-05-03T11:20:47.999Z</time></trkpt><trkpt lat="38.133823889748385" lon="15.65616387806301"><ele>11.0</ele><time>2026-05-03T11:20:48.999Z</time></trkpt><trkpt lat="38.133716995166715" lon="15.656099408719069"><ele>11.0</ele><time>2026-05-03T11:20:49.999Z</time></trkpt><trkpt lat="38.13361439649291" lon="15.656032555445377"><ele>11.0</ele><time>2026-05-03T11:20:50.999Z</time></trkpt><trkpt lat="38.1335098894265" lon="15.655971750688959"><ele>11.0</ele><time>2026-05-03T11:20:51.999Z</time></trkpt><trkpt lat="38.13341492955844" lon="15.655909460073884"><ele>11.0</ele><time>2026-05-03T11:20:52.999Z</time></trkpt><trkpt lat="38.13333074366771" lon="15.655839505729125"><ele>11.0</ele><time>2026-05-03T11:20:54Z</time></trkpt><trkpt lat="38.13328139514832" lon="15.655738488327243"><ele>11.0</ele><time>2026-05-03T11:20:55Z</time></trkpt><trkpt lat="38.13327038323595" lon="15.655624837950604"><ele>11.0</ele><time>2026-05-03T11:20:56Z</time></trkpt><trkpt lat="38.133239849468445" lon="15.65551153272367"><ele>11.0</ele><time>2026-05-03T11:20:57Z</time></trkpt><trkpt lat="38.13318046001612" lon="15.65540244577758"><ele>11.0</ele><time>2026-05-03T11:20:58Z</time></trkpt><trkpt lat="38.13306619275259" lon="15.655334372130417"><ele>11.0</ele><time>2026-05-03T11:20:59Z</time></trkpt><trkpt lat="38.13296463042036" lon="15.65531517499273"><ele>10.428571428571429</ele><time>2026-05-03T11:21:00Z</time></trkpt><trkpt lat="38.13288783818968" lon="15.655287856277864"><ele>9.857142857142858</ele><time>2026-05-03T11:21:01Z</time></trkpt><trkpt lat="38.13283213369841" lon="15.655248830545966"><ele>9.285714285714285</ele><time>2026-05-03T11:21:02Z</time></trkpt><trkpt lat="38.13276145896459" lon="15.655205056993669"><ele>8.714285714285715</ele><time>2026-05-03T11:21:07Z</time></trkpt><trkpt lat="38.1326971110936" lon="15.655184059931795"><ele>8.142857142857142</ele><time>2026-05-03T11:21:12Z</time></trkpt><trkpt lat="38.1326309849073" lon="15.655163213319922"><ele>7.571428571428571</ele><time>2026-05-03T11:21:13Z</time></trkpt><trkpt lat="38.13256353390063" lon="15.655108272499831"><ele>7.0</ele><time>2026-05-03T11:21:14Z</time></trkpt><trkpt lat="38.132489658851625" lon="15.655060186861663"><ele>7.0</ele><time>2026-05-03T11:21:15Z</time></trkpt><trkpt lat="38.13241390762278" lon="15.655052066460483"><ele>6.999999999999999</ele><time>2026-05-03T11:21:16Z</time></trkpt><trkpt lat="38.132343951913036" lon="15.655046213479634"><ele>6.999999999999999</ele><time>2026-05-03T11:21:17Z</time></trkpt><trkpt lat="38.132270734457315" lon="15.654953703561645"><ele>7.0</ele><time>2026-05-03T11:21:18Z</time></trkpt><trkpt lat="38.13220533130946" lon="15.654859440200724"><ele>7.0</ele><time>2026-05-03T11:21:19Z</time></trkpt><trkpt lat="38.13212684898826" lon="15.654763030995051"><ele>8.25</ele><time>2026-05-03T11:21:20Z</time></trkpt><trkpt lat="38.13201754622627" lon="15.654701870529728"><ele>9.5</ele><time>2026-05-03T11:21:21Z</time></trkpt><trkpt lat="38.1319326975285" lon="15.654607725686562"><ele>10.75</ele><time>2026-05-03T11:21:22Z</time></trkpt><trkpt lat="38.131814401745395" lon="15.654508923433218"><ele>12.0</ele><time>2026-05-03T11:21:23Z</time></trkpt><trkpt lat="38.13170274603046" lon="15.654457870930006"><ele>12.0</ele><time>2026-05-03T11:21:24Z</time></trkpt><trkpt lat="38.13158734847125" lon="15.654429291279696"><ele>12.0</ele><time>2026-05-03T11:21:25Z</time></trkpt><trkpt lat="38.13146810062898" lon="15.654398005817866"><ele>12.0</ele><time>2026-05-03T11:21:26Z</time></trkpt><trkpt lat="38.131348318730204" lon="15.654367191421393"><ele>12.0</ele><time>2026-05-03T11:21:27Z</time></trkpt><trkpt lat="38.1312262624828" lon="15.654331605185638"><ele>12.0</ele><time>2026-05-03T11:21:28Z</time></trkpt><trkpt lat="38.131103700539555" lon="15.654290379575462"><ele>12.0</ele><time>2026-05-03T11:21:29Z</time></trkpt><trkpt lat="38.130974426533314" lon="15.654245361845422"><ele>12.0</ele><time>2026-05-03T11:21:30Z</time></trkpt><trkpt lat="38.13083954931229" lon="15.654187704129416"><ele>12.0</ele><time>2026-05-03T11:21:31Z</time></trkpt><trkpt lat="38.13071022908639" lon="15.654112497773385"><ele>16.0</ele><time>2026-05-03T11:21:32Z</time></trkpt><trkpt lat="38.13057378762919" lon="15.654006167729984"><ele>20.0</ele><time>2026-05-03T11:21:33Z</time></trkpt><trkpt lat="38.13043986450684" lon="15.653892657471479"><ele>24.0</ele><time>2026-05-03T11:21:34Z</time></trkpt><trkpt lat="38.13029492578633" lon="15.65372651347972"><ele>20.666666666666668</ele><time>2026-05-03T11:21:35Z</time></trkpt><trkpt lat="38.13013053350494" lon="15.65357036256873"><ele>17.333333333333336</ele><time>2026-05-03T11:21:36Z</time></trkpt><trkpt lat="38.129944106533536" lon="15.65341824303544"><ele>14.0</ele><time>2026-05-03T11:21:37Z</time></trkpt><trkpt lat="38.12976336119185" lon="15.65325032490167"><ele>14.0</ele><time>2026-05-03T11:21:38Z</time></trkpt><trkpt lat="38.12956534261042" lon="15.653098374110671"><ele>14.0</ele><time>2026-05-03T11:21:39Z</time></trkpt><trkpt lat="38.1293353582822" lon="15.65296124318199"><ele>14.0</ele><time>2026-05-03T11:21:40Z</time></trkpt><trkpt lat="38.12909405060039" lon="15.652848462648288"><ele>14.0</ele><time>2026-05-03T11:21:41Z</time></trkpt><trkpt lat="38.12883645379768" lon="15.652754564781873"><ele>11.5</ele><time>2026-05-03T11:21:42Z</time></trkpt><trkpt lat="38.12855934992466" lon="15.652686223436104"><ele>9.0</ele><time>2026-05-03T11:21:43Z</time></trkpt><trkpt lat="38.128276514508336" lon="15.652653313704645"><ele>8.0</ele><time>2026-05-03T11:21:44Z</time></trkpt><trkpt lat="38.1279732950913" lon="15.652661536021332"><ele>7.0</ele><time>2026-05-03T11:21:45Z</time></trkpt><trkpt lat="38.12768575560695" lon="15.652690425085718"><ele>7.5</ele><time>2026-05-03T11:21:46Z</time></trkpt><trkpt lat="38.127388117450124" lon="15.65272765752758"><ele>8.0</ele><time>2026-05-03T11:21:47Z</time></trkpt><trkpt lat="38.12708116805145" lon="15.65276898233146"><ele>8.0</ele><time>2026-05-03T11:21:48Z</time></trkpt><trkpt lat="38.12678205323398" lon="15.652776826434692"><ele>8.0</ele><time>2026-05-03T11:21:49Z</time></trkpt><trkpt lat="38.12648582441661" lon="15.652807337322546"><ele>14.0</ele><time>2026-05-03T11:21:50Z</time></trkpt><trkpt lat="38.12613528873652" lon="15.652859942430469"><ele>20.0</ele><time>2026-05-03T11:21:51Z</time></trkpt><trkpt lat="38.125822709074974" lon="15.652893865480758"><ele>19.5</ele><time>2026-05-03T11:21:52Z</time></trkpt><trkpt lat="38.125510295247885" lon="15.65292498343085"><ele>19.0</ele><time>2026-05-03T11:21:53Z</time></trkpt><trkpt lat="38.12520407019805" lon="15.652931756906055"><ele>19.0</ele><time>2026-05-03T11:21:54Z</time></trkpt><trkpt lat="38.12490437353429" lon="15.65295378615808"><ele>19.0</ele><time>2026-05-03T11:21:55Z</time></trkpt><trkpt lat="38.12460552618141" lon="15.652968952055607"><ele>20.0</ele><time>2026-05-03T11:21:56Z</time></trkpt><trkpt lat="38.12429515660304" lon="15.652976665495348"><ele>21.0</ele><time>2026-05-03T11:21:57Z</time></trkpt><trkpt lat="38.12399087723081" lon="15.652983793014945"><ele>21.5</ele><time>2026-05-03T11:21:58Z</time></trkpt><trkpt lat="38.123702427679795" lon="15.652988098385435"><ele>22.0</ele><time>2026-05-03T11:21:59Z</time></trkpt><trkpt lat="38.12341335390128" lon="15.652987182527559"><ele>23.0</ele><time>2026-05-03T11:22:00Z</time></trkpt><trkpt lat="38.123127014998154" lon="15.65298094143754"><ele>24.0</ele><time>2026-05-03T11:22:01Z</time></trkpt><trkpt lat="38.12283611343407" lon="15.652943589475045"><ele>24.0</ele><time>2026-05-03T11:22:02Z</time></trkpt><trkpt lat="38.12255144340445" lon="15.652867221595503"><ele>24.0</ele><time>2026-05-03T11:22:03Z</time></trkpt><trkpt lat="38.122257625191146" lon="15.652757453186856"><ele>21.0</ele><time>2026-05-03T11:22:04Z</time></trkpt><trkpt lat="38.12198885519984" lon="15.652579682694157"><ele>18.0</ele><time>2026-05-03T11:22:05Z</time></trkpt><trkpt lat="38.121717226243" lon="15.652369948574302"><ele>19.0</ele><time>2026-05-03T11:22:06Z</time></trkpt><trkpt lat="38.12146600295715" lon="15.652120257977135"><ele>20.0</ele><time>2026-05-03T11:22:07.001Z</time></trkpt><trkpt lat="38.12123168421017" lon="15.651844321895094"><ele>20.0</ele><time>2026-05-03T11:22:08.001Z</time></trkpt><trkpt lat="38.12098479804009" lon="15.651563440684956"><ele>20.0</ele><time>2026-05-03T11:22:09.001Z</time></trkpt><trkpt lat="38.120764334217654" lon="15.651277512071594"><ele>23.0</ele><time>2026-05-03T11:22:10.001Z</time></trkpt><trkpt lat="38.12056821672747" lon="15.651025444341135"><ele>26.0</ele><time>2026-05-03T11:22:11.001Z</time></trkpt><trkpt lat="38.12038229045563" lon="15.650796718729598"><ele>26.0</ele><time>2026-05-03T11:22:12.001Z</time></trkpt><trkpt lat="38.120233560863504" lon="15.65057624508581"><ele>26.0</ele><time>2026-05-03T11:22:13.001Z</time></trkpt><trkpt lat="38.120093268988356" lon="15.650382895544997"><ele>26.0</ele><time>2026-05-03T11:22:14.001Z</time></trkpt><trkpt lat="38.11996923117278" lon="15.650205776061187"><ele>23.25</ele><time>2026-05-03T11:22:15.001Z</time></trkpt><trkpt lat="38.11983913860768" lon="15.650072774395685"><ele>20.5</ele><time>2026-05-03T11:22:16.001Z</time></trkpt><trkpt lat="38.119742161202765" lon="15.649921611580316"><ele>17.75</ele><time>2026-05-03T11:22:17.001Z</time></trkpt><trkpt lat="38.11964035976263" lon="15.649845180855483"><ele>15.0</ele><time>2026-05-03T11:22:18.001Z</time></trkpt><trkpt lat="38.119554845362565" lon="15.649754568033686"><ele>15.0</ele><time>2026-05-03T11:22:19.001Z</time></trkpt><trkpt lat="38.119443312067396" lon="15.649723880560906"><ele>15.0</ele><time>2026-05-03T11:22:20.001Z</time></trkpt><trkpt lat="38.11933541613485" lon="15.649694251657893"><ele>15.0</ele><time>2026-05-03T11:22:21.001Z</time></trkpt><trkpt lat="38.119237149972456" lon="15.649677676891866"><ele>15.0</ele><time>2026-05-03T11:22:22.001Z</time></trkpt><trkpt lat="38.11914764523095" lon="15.64967683093544"><ele>15.0</ele><time>2026-05-03T11:22:23.001Z</time></trkpt><trkpt lat="38.11904447165955" lon="15.649665266102588"><ele>14.8</ele><time>2026-05-03T11:22:24.001Z</time></trkpt><trkpt lat="38.11895223737138" lon="15.649691175449792"><ele>14.6</ele><time>2026-05-03T11:22:25.001Z</time></trkpt><trkpt lat="38.11885294469722" lon="15.649721927991317"><ele>14.399999999999999</ele><time>2026-05-03T11:22:26.001Z</time></trkpt><trkpt lat="38.11875145252318" lon="15.64974661056107"><ele>14.2</ele><time>2026-05-03T11:22:27.001Z</time></trkpt><trkpt lat="38.118651314995304" lon="15.649769514194766"><ele>14.0</ele><time>2026-05-03T11:22:28.001Z</time></trkpt><trkpt lat="38.118541096991855" lon="15.649785529838304"><ele>14.0</ele><time>2026-05-03T11:22:29.001Z</time></trkpt><trkpt lat="38.11844327494595" lon="15.649770748261629"><ele>13.999999999999998</ele><time>2026-05-03T11:22:30.001Z</time></trkpt><trkpt lat="38.118342811089384" lon="15.64978551547186"><ele>13.999999999999998</ele><time>2026-05-03T11:22:31.001Z</time></trkpt><trkpt lat="38.11823641093916" lon="15.649800810993602"><ele>14.0</ele><time>2026-05-03T11:22:32.001Z</time></trkpt><trkpt lat="38.11812151886513" lon="15.649813187086096"><ele>14.0</ele><time>2026-05-03T11:22:33.001Z</time></trkpt><trkpt lat="38.11800893207512" lon="15.64981523633937"><ele>14.0</ele><time>2026-05-03T11:22:34.001Z</time></trkpt><trkpt lat="38.11789305522379" lon="15.649829469445823"><ele>13.999999999999998</ele><time>2026-05-03T11:22:35.001Z</time></trkpt><trkpt lat="38.11777836868225" lon="15.649850342610703"><ele>13.999999999999998</ele><time>2026-05-03T11:22:36.001Z</time></trkpt><trkpt lat="38.1176710499574" lon="15.649857865518175"><ele>14.0</ele><time>2026-05-03T11:22:37.001Z</time></trkpt><trkpt lat="38.11756819854831" lon="15.649879068614416"><ele>14.0</ele><time>2026-05-03T11:22:38.001Z</time></trkpt><trkpt lat="38.117473333928764" lon="15.649895229421581"><ele>13.833333333333334</ele><time>2026-05-03T11:22:39.001Z</time></trkpt><trkpt lat="38.11740176133344" lon="15.649912951586206"><ele>13.666666666666668</ele><time>2026-05-03T11:22:40.001Z</time></trkpt><trkpt lat="38.11732602863376" lon="15.649918521579888"><ele>13.5</ele><time>2026-05-03T11:22:41.001Z</time></trkpt><trkpt lat="38.11724502191461" lon="15.649925180158684"><ele>13.333333333333332</ele><time>2026-05-03T11:22:41.999Z</time></trkpt><trkpt lat="38.11717070605788" lon="15.649931794957494"><ele>13.166666666666666</ele><time>2026-05-03T11:22:42.999Z</time></trkpt><trkpt lat="38.11708811183294" lon="15.649941494718286"><ele>13.0</ele><time>2026-05-03T11:22:43.999Z</time></trkpt><trkpt lat="38.11701926469493" lon="15.649963076203482"><ele>13.0</ele><time>2026-05-03T11:22:44.999Z</time></trkpt><trkpt lat="38.11695684734949" lon="15.649987835233604"><ele>13.0</ele><time>2026-05-03T11:22:45.999Z</time></trkpt><trkpt lat="38.11682689917377" lon="15.650003076027998"><ele>13.0</ele><time>2026-05-03T11:22:47.999Z</time></trkpt><trkpt lat="38.11676241034087" lon="15.650006158122133"><ele>13.0</ele><time>2026-05-03T11:22:48.999Z</time></trkpt><trkpt lat="38.11669919387382" lon="15.650015136665443"><ele>13.0</ele><time>2026-05-03T11:22:49.999Z</time></trkpt><trkpt lat="38.116573796694205" lon="15.650034653121045"><ele>12.666666666666666</ele><time>2026-05-03T11:22:51.999Z</time></trkpt><trkpt lat="38.1165021944814" lon="15.650044951303128"><ele>12.333333333333332</ele><time>2026-05-03T11:22:52.999Z</time></trkpt><trkpt lat="38.11642802749906" lon="15.650049991971185"><ele>12.0</ele><time>2026-05-03T11:22:54Z</time></trkpt><trkpt lat="38.11635295856868" lon="15.650057841027099"><ele>11.666666666666666</ele><time>2026-05-03T11:22:55Z</time></trkpt><trkpt lat="38.116232218118995" lon="15.650086060581955"><ele>11.333333333333332</ele><time>2026-05-03T11:22:57Z</time></trkpt><trkpt lat="38.1161509883686" lon="15.650083922575645"><ele>11.0</ele><time>2026-05-03T11:22:58Z</time></trkpt><trkpt lat="38.11608179473346" lon="15.650091735921688"><ele>11.0</ele><time>2026-05-03T11:22:59Z</time></trkpt><trkpt lat="38.11601830144989" lon="15.650102482119314"><ele>11.0</ele><time>2026-05-03T11:23:00Z</time></trkpt><trkpt lat="38.11591549165503" lon="15.65011884692947"><ele>11.0</ele><time>2026-05-03T11:23:02Z</time></trkpt><trkpt lat="38.11582931110776" lon="15.650134356829707"><ele>11.0</ele><time>2026-05-03T11:23:04Z</time></trkpt><trkpt lat="38.11573195324581" lon="15.650152717510608"><ele>11.0</ele><time>2026-05-03T11:23:06Z</time></trkpt><trkpt lat="38.11562533072823" lon="15.65017537457678"><ele>11.200000000000001</ele><time>2026-05-03T11:23:08Z</time></trkpt><trkpt lat="38.115501090124" lon="15.650182039741983"><ele>11.4</ele><time>2026-05-03T11:23:10Z</time></trkpt><trkpt lat="38.1154306069008" lon="15.650184294807934"><ele>11.6</ele><time>2026-05-03T11:23:11Z</time></trkpt><trkpt lat="38.11536652031752" lon="15.650223467982876"><ele>11.8</ele><time>2026-05-03T11:23:12Z</time></trkpt><trkpt lat="38.11530211439738" lon="15.650216116074446"><ele>12.0</ele><time>2026-05-03T11:23:13Z</time></trkpt><trkpt lat="38.115176317950166" lon="15.65023024406041"><ele>12.0</ele><time>2026-05-03T11:23:15Z</time></trkpt><trkpt lat="38.11506078029962" lon="15.650241716305498"><ele>12.0</ele><time>2026-05-03T11:23:17Z</time></trkpt><trkpt lat="38.114965659707856" lon="15.650251268270694"><ele>12.0</ele><time>2026-05-03T11:23:19Z</time></trkpt><trkpt lat="38.11486381809159" lon="15.650251183846034"><ele>12.0</ele><time>2026-05-03T11:23:21Z</time></trkpt><trkpt lat="38.11476365200467" lon="15.650233307989364"><ele>12.0</ele><time>2026-05-03T11:23:23Z</time></trkpt><trkpt lat="38.11466417179732" lon="15.650201891410958"><ele>13.2</ele><time>2026-05-03T11:23:25Z</time></trkpt><trkpt lat="38.11455836563309" lon="15.650227319411224"><ele>14.399999999999999</ele><time>2026-05-03T11:23:27Z</time></trkpt><trkpt lat="38.11449413500949" lon="15.650153497247484"><ele>15.600000000000001</ele><time>2026-05-03T11:23:28Z</time></trkpt><trkpt lat="38.11441175950398" lon="15.650059212268042"><ele>16.8</ele><time>2026-05-03T11:23:30Z</time></trkpt><trkpt lat="38.11430356754424" lon="15.64997456188589"><ele>18.0</ele><time>2026-05-03T11:23:32Z</time></trkpt><trkpt lat="38.11424136434774" lon="15.649926337951005"><ele>18.0</ele><time>2026-05-03T11:23:33Z</time></trkpt><trkpt lat="38.11418626450074" lon="15.64986376960932"><ele>18.0</ele><time>2026-05-03T11:23:34Z</time></trkpt><trkpt lat="38.114137133495156" lon="15.649786038056678"><ele>18.0</ele><time>2026-05-03T11:23:35Z</time></trkpt><trkpt lat="38.114090647552196" lon="15.649705271254279"><ele>18.0</ele><time>2026-05-03T11:23:36Z</time></trkpt><trkpt lat="38.11404441172946" lon="15.64964268594501"><ele>18.0</ele><time>2026-05-03T11:23:37Z</time></trkpt><trkpt lat="38.113979766724206" lon="15.64955719097299"><ele>18.0</ele><time>2026-05-03T11:23:38Z</time></trkpt><trkpt lat="38.11392123923614" lon="15.649483923723407"><ele>18.666666666666668</ele><time>2026-05-03T11:23:39Z</time></trkpt><trkpt lat="38.11386301504878" lon="15.649412088909932"><ele>19.333333333333332</ele><time>2026-05-03T11:23:40Z</time></trkpt><trkpt lat="38.11380525107406" lon="15.649337454834416"><ele>20.0</ele><time>2026-05-03T11:23:41Z</time></trkpt><trkpt lat="38.11375532237957" lon="15.649259513344616"><ele>20.666666666666664</ele><time>2026-05-03T11:23:42Z</time></trkpt><trkpt lat="38.11371401702355" lon="15.6491641442904"><ele>21.333333333333332</ele><time>2026-05-03T11:23:43Z</time></trkpt><trkpt lat="38.11365998164812" lon="15.649087804497709"><ele>22.0</ele><time>2026-05-03T11:23:44Z</time></trkpt><trkpt lat="38.11360695384856" lon="15.649015291794683"><ele>22.0</ele><time>2026-05-03T11:23:45Z</time></trkpt><trkpt lat="38.11356036804556" lon="15.648951252820675"><ele>22.0</ele><time>2026-05-03T11:23:46Z</time></trkpt><trkpt lat="38.11351831083705" lon="15.64889075925934"><ele>22.0</ele><time>2026-05-03T11:23:47Z</time></trkpt><trkpt lat="38.113474993795315" lon="15.648829719582457"><ele>22.0</ele><time>2026-05-03T11:23:48Z</time></trkpt><trkpt lat="38.11342982198041" lon="15.648761851005688"><ele>22.0</ele><time>2026-05-03T11:23:49Z</time></trkpt><trkpt lat="38.11338570214858" lon="15.648692083478139"><ele>22.0</ele><time>2026-05-03T11:23:50Z</time></trkpt><trkpt lat="38.11333864750426" lon="15.648623161307238"><ele>22.0</ele><time>2026-05-03T11:23:51Z</time></trkpt><trkpt lat="38.11329398877997" lon="15.648556819535726"><ele>22.0</ele><time>2026-05-03T11:23:52Z</time></trkpt><trkpt lat="38.11324904227777" lon="15.648477559268976"><ele>22.0</ele><time>2026-05-03T11:23:53Z</time></trkpt><trkpt lat="38.113196434594784" lon="15.648402711967469"><ele>22.0</ele><time>2026-05-03T11:23:54Z</time></trkpt><trkpt lat="38.11315118187415" lon="15.648346044780876"><ele>22.0</ele><time>2026-05-03T11:23:55Z</time></trkpt><trkpt lat="38.113111724117026" lon="15.648266870473282"><ele>22.0</ele><time>2026-05-03T11:23:56Z</time></trkpt><trkpt lat="38.11305746113559" lon="15.648203902037501"><ele>22.0</ele><time>2026-05-03T11:23:57Z</time></trkpt><trkpt lat="38.11301251388552" lon="15.648144847457601"><ele>22.0</ele><time>2026-05-03T11:23:58Z</time></trkpt><trkpt lat="38.112969990106095" lon="15.648079846533363"><ele>22.0</ele><time>2026-05-03T11:23:59.001Z</time></trkpt><trkpt lat="38.112903765950335" lon="15.64796082353345"><ele>22.0</ele><time>2026-05-03T11:24:01.001Z</time></trkpt><trkpt lat="38.1128465722925" lon="15.647847731893949"><ele>22.0</ele><time>2026-05-03T11:24:03.001Z</time></trkpt><trkpt lat="38.112758379413236" lon="15.647758040181108"><ele>22.0</ele><time>2026-05-03T11:24:05.001Z</time></trkpt><trkpt lat="38.11269136641249" lon="15.64764764382591"><ele>22.0</ele><time>2026-05-03T11:24:07.001Z</time></trkpt><trkpt lat="38.112617283845275" lon="15.647528195899637"><ele>21.6</ele><time>2026-05-03T11:24:09.001Z</time></trkpt><trkpt lat="38.112535512722125" lon="15.647418007480448"><ele>21.200000000000003</ele><time>2026-05-03T11:24:11.001Z</time></trkpt><trkpt lat="38.11245788563378" lon="15.6473000484624"><ele>20.8</ele><time>2026-05-03T11:24:13.001Z</time></trkpt><trkpt lat="38.11238250322995" lon="15.647193669073223"><ele>20.4</ele><time>2026-05-03T11:24:15.001Z</time></trkpt><trkpt lat="38.11232600279856" lon="15.64712385945484"><ele>20.0</ele><time>2026-05-03T11:24:17.001Z</time></trkpt><trkpt lat="38.11218313556562" lon="15.647166431675588"><ele>20.0</ele><time>2026-05-03T11:24:21.001Z</time></trkpt><trkpt lat="38.11227372165898" lon="15.647261183103303"><ele>20.0</ele><time>2026-05-03T11:24:22.001Z</time></trkpt><trkpt lat="38.11230224209283" lon="15.64735019768004"><ele>20.0</ele><time>2026-05-03T11:24:24.001Z</time></trkpt><trkpt lat="38.11236558618683" lon="15.647427773089445"><ele>20.0</ele><time>2026-05-03T11:24:27.001Z</time></trkpt><trkpt lat="38.112411829928334" lon="15.6475131163891"><ele>20.0</ele><time>2026-05-03T11:24:30.001Z</time></trkpt><trkpt lat="38.11245734159732" lon="15.647603119442772"><ele>20.0</ele><time>2026-05-03T11:24:32.001Z</time></trkpt><trkpt lat="38.11247838298305" lon="15.647688169529632"><ele>20.4</ele><time>2026-05-03T11:24:34.001Z</time></trkpt><trkpt lat="38.11245832627344" lon="15.647808617664673"><ele>20.8</ele><time>2026-05-03T11:24:36.001Z</time></trkpt><trkpt lat="38.112527585024324" lon="15.647966519561406"><ele>21.200000000000003</ele><time>2026-05-03T11:24:38.001Z</time></trkpt><trkpt lat="38.112583829310715" lon="15.648052847422862"><ele>21.6</ele><time>2026-05-03T11:24:39.001Z</time></trkpt><trkpt lat="38.112640675956065" lon="15.648140756744759"><ele>22.0</ele><time>2026-05-03T11:24:40.001Z</time></trkpt><trkpt lat="38.11269938884966" lon="15.648228163004303"><ele>22.0</ele><time>2026-05-03T11:24:41.001Z</time></trkpt><trkpt lat="38.11274814694909" lon="15.648308521022798"><ele>22.0</ele><time>2026-05-03T11:24:42.001Z</time></trkpt><trkpt lat="38.11281160668765" lon="15.648382159520896"><ele>22.0</ele><time>2026-05-03T11:24:43.001Z</time></trkpt><trkpt lat="38.11287629551014" lon="15.64846044704747"><ele>22.0</ele><time>2026-05-03T11:24:44.001Z</time></trkpt><trkpt lat="38.11292216957426" lon="15.648554917048337"><ele>22.0</ele><time>2026-05-03T11:24:45.001Z</time></trkpt><trkpt lat="38.11296234327608" lon="15.648637321613652"><ele>22.0</ele><time>2026-05-03T11:24:46.001Z</time></trkpt><trkpt lat="38.113015002983616" lon="15.64871594839363"><ele>22.0</ele><time>2026-05-03T11:24:47.001Z</time></trkpt><trkpt lat="38.11306098279647" lon="15.648778819564823"><ele>22.0</ele><time>2026-05-03T11:24:47.999Z</time></trkpt><trkpt lat="38.113100639886426" lon="15.648841425044383"><ele>22.0</ele><time>2026-05-03T11:24:48.999Z</time></trkpt><trkpt lat="38.11325405043484" lon="15.648731615063022"><ele>22.0</ele><time>2026-05-03T11:24:52.999Z</time></trkpt><trkpt lat="38.11328344326042" lon="15.648636394297261"><ele>22.0</ele><time>2026-05-03T11:24:58.999Z</time></trkpt><trkpt lat="38.113258667559165" lon="15.648532334057382"><ele>22.0</ele><time>2026-05-03T11:25:02Z</time></trkpt><trkpt lat="38.113207585922574" lon="15.648456438016199"><ele>22.0</ele><time>2026-05-03T11:25:04Z</time></trkpt><trkpt lat="38.11313753045601" lon="15.648369908907503"><ele>22.0</ele><time>2026-05-03T11:25:06Z</time></trkpt><trkpt lat="38.11307643618096" lon="15.64827600379211"><ele>22.0</ele><time>2026-05-03T11:25:08Z</time></trkpt><trkpt lat="38.113011696764914" lon="15.648173214002968"><ele>22.0</ele><time>2026-05-03T11:25:10Z</time></trkpt><trkpt lat="38.112940415480764" lon="15.648061828738665"><ele>22.0</ele><time>2026-05-03T11:25:12Z</time></trkpt><trkpt lat="38.112860222173566" lon="15.647939153650732"><ele>22.0</ele><time>2026-05-03T11:25:14Z</time></trkpt><trkpt lat="38.11281358880664" lon="15.647876900190713"><ele>22.0</ele><time>2026-05-03T11:25:15Z</time></trkpt><trkpt lat="38.11277138369265" lon="15.647808493789022"><ele>22.0</ele><time>2026-05-03T11:25:16Z</time></trkpt><trkpt lat="38.11271963191555" lon="15.647740077824631"><ele>22.0</ele><time>2026-05-03T11:25:17Z</time></trkpt><trkpt lat="38.112685762344526" lon="15.647661079503044"><ele>22.0</ele><time>2026-05-03T11:25:18Z</time></trkpt><trkpt lat="38.1126342661772" lon="15.647579255602052"><ele>21.666666666666664</ele><time>2026-05-03T11:25:19Z</time></trkpt><trkpt lat="38.11258388761038" lon="15.6474999967523"><ele>21.333333333333332</ele><time>2026-05-03T11:25:20Z</time></trkpt><trkpt lat="38.1125406906961" lon="15.647431000014985"><ele>21.0</ele><time>2026-05-03T11:25:21Z</time></trkpt><trkpt lat="38.112459718044995" lon="15.647301781791942"><ele>20.666666666666668</ele><time>2026-05-03T11:25:23Z</time></trkpt><trkpt lat="38.112415556604155" lon="15.647229803359984"><ele>20.333333333333336</ele><time>2026-05-03T11:25:24Z</time></trkpt><trkpt lat="38.112371569287305" lon="15.64715651303704"><ele>20.0</ele><time>2026-05-03T11:25:25Z</time></trkpt><trkpt lat="38.11232233773377" lon="15.647090173156117"><ele>20.0</ele><time>2026-05-03T11:25:26Z</time></trkpt><trkpt lat="38.112258387522544" lon="15.647022580877268"><ele>20.0</ele><time>2026-05-03T11:25:27Z</time></trkpt><trkpt lat="38.112202825001276" lon="15.646940411005945"><ele>20.0</ele><time>2026-05-03T11:25:28Z</time></trkpt><trkpt lat="38.112147892310574" lon="15.64687110447358"><ele>20.0</ele><time>2026-05-03T11:25:29Z</time></trkpt><trkpt lat="38.11209145282252" lon="15.646786379008269"><ele>20.0</ele><time>2026-05-03T11:25:30Z</time></trkpt><trkpt lat="38.11204355322558" lon="15.646688758359161"><ele>20.0</ele><time>2026-05-03T11:25:31Z</time></trkpt><trkpt lat="38.111985659876105" lon="15.646598307869866"><ele>19.2</ele><time>2026-05-03T11:25:32Z</time></trkpt><trkpt lat="38.11193020931376" lon="15.64650928490205"><ele>18.4</ele><time>2026-05-03T11:25:33Z</time></trkpt><trkpt lat="38.11186480207076" lon="15.646417223926823"><ele>17.6</ele><time>2026-05-03T11:25:34Z</time></trkpt><trkpt lat="38.111801351450886" lon="15.646318552766589"><ele>16.8</ele><time>2026-05-03T11:25:35Z</time></trkpt><trkpt lat="38.11173748640342" lon="15.646212940213669"><ele>16.0</ele><time>2026-05-03T11:25:36Z</time></trkpt><trkpt lat="38.11166979342961" lon="15.646112864651522"><ele>16.333333333333332</ele><time>2026-05-03T11:25:37Z</time></trkpt><trkpt lat="38.111606743421774" lon="15.646014204752202"><ele>16.666666666666664</ele><time>2026-05-03T11:25:38Z</time></trkpt><trkpt lat="38.11156946282076" lon="15.645936663896522"><ele>17.0</ele><time>2026-05-03T11:25:39Z</time></trkpt><trkpt lat="38.11150204029078" lon="15.645858755530297"><ele>17.333333333333332</ele><time>2026-05-03T11:25:40Z</time></trkpt><trkpt lat="38.111457074293774" lon="15.645793904182387"><ele>17.666666666666668</ele><time>2026-05-03T11:25:41Z</time></trkpt><trkpt lat="38.11142131486688" lon="15.645721103926295"><ele>18.0</ele><time>2026-05-03T11:25:42Z</time></trkpt><trkpt lat="38.11135059292798" lon="15.645592407140187"><ele>18.0</ele><time>2026-05-03T11:25:44Z</time></trkpt><trkpt lat="38.111308194536385" lon="15.645529405302337"><ele>18.0</ele><time>2026-05-03T11:25:45Z</time></trkpt><trkpt lat="38.11125059042054" lon="15.645452290702211"><ele>18.0</ele><time>2026-05-03T11:25:47Z</time></trkpt><trkpt lat="38.111198410485294" lon="15.645382340198385"><ele>18.0</ele><time>2026-05-03T11:25:49Z</time></trkpt><trkpt lat="38.11114896540044" lon="15.645316452059138"><ele>18.0</ele><time>2026-05-03T11:25:53Z</time></trkpt><trkpt lat="38.1110954152359" lon="15.645233999825283"><ele>18.0</ele><time>2026-05-03T11:25:55.001Z</time></trkpt><trkpt lat="38.1110457999468" lon="15.645166163579399"><ele>17.0</ele><time>2026-05-03T11:25:57.001Z</time></trkpt><trkpt lat="38.111002891325825" lon="15.645100795839765"><ele>16.0</ele><time>2026-05-03T11:25:59.001Z</time></trkpt><trkpt lat="38.110956194444924" lon="15.645018402722634"><ele>15.0</ele><time>2026-05-03T11:26:01.001Z</time></trkpt><trkpt lat="38.11093295379499" lon="15.644939470460251"><ele>14.0</ele><time>2026-05-03T11:26:05.001Z</time></trkpt><trkpt lat="38.11086513437084" lon="15.644865816777145"><ele>13.0</ele><time>2026-05-03T11:26:08.001Z</time></trkpt><trkpt lat="38.11080574319145" lon="15.644792961096526"><ele>12.0</ele><time>2026-05-03T11:26:10.001Z</time></trkpt><trkpt lat="38.11075124492539" lon="15.6447410929178"><ele>11.999999999999998</ele><time>2026-05-03T11:26:13.001Z</time></trkpt><trkpt lat="38.1107966100406" lon="15.64467635484791"><ele>12.0</ele><time>2026-05-03T11:28:28.001Z</time></trkpt><trkpt lat="38.11086688818257" lon="15.644662496218437"><ele>12.0</ele><time>2026-05-03T11:28:36.001Z</time></trkpt><trkpt lat="38.11093492416854" lon="15.644684851700898"><ele>12.0</ele><time>2026-05-03T11:28:44.001Z</time></trkpt><trkpt lat="38.11097182472546" lon="15.644755856143352"><ele>12.0</ele><time>2026-05-03T11:28:52.001Z</time></trkpt><trkpt lat="38.11102170846497" lon="15.644828496867369"><ele>11.999999999999998</ele><time>2026-05-03T11:29:00.001Z</time></trkpt><trkpt lat="38.11107163356009" lon="15.644896466440642"><ele>12.0</ele><time>2026-05-03T11:29:08.001Z</time></trkpt><trkpt lat="38.11113272706972" lon="15.644946686643939"><ele>11.999999999999998</ele><time>2026-05-03T11:29:16.001Z</time></trkpt><trkpt lat="38.111117564063086" lon="15.644860519468292"><ele>12.0</ele><time>2026-05-03T11:29:27.001Z</time></trkpt><trkpt lat="38.11118151956866" lon="15.64481903305124"><ele>12.0</ele><time>2026-05-03T11:29:37.001Z</time></trkpt><trkpt lat="38.111247021714206" lon="15.64480219378774"><ele>12.0</ele><time>2026-05-03T11:29:44.001Z</time></trkpt><trkpt lat="38.11130699984827" lon="15.644759061600888"><ele>12.0</ele><time>2026-05-03T11:29:52.001Z</time></trkpt><trkpt lat="38.11136016501066" lon="15.644712148095433"><ele>11.999999999999998</ele><time>2026-05-03T11:30:00.001Z</time></trkpt><trkpt lat="38.11141762219636" lon="15.644666221394782"><ele>12.0</ele><time>2026-05-03T11:30:18.001Z</time></trkpt><trkpt lat="38.11135702401619" lon="15.644619500755073"><ele>11.999999999999998</ele><time>2026-05-03T11:30:50.001Z</time></trkpt><trkpt lat="38.111292874305555" lon="15.644646276471331"><ele>12.0</ele><time>2026-05-03T11:32:24.001Z</time></trkpt><trkpt lat="38.11123803813202" lon="15.644700195119702"><ele>12.0</ele><time>2026-05-03T11:32:32.001Z</time></trkpt><trkpt lat="38.11117385311352" lon="15.64473249410124"><ele>12.0</ele><time>2026-05-03T11:32:40.001Z</time></trkpt><trkpt lat="38.111091311266165" lon="15.644741331979294"><ele>12.0</ele><time>2026-05-03T11:33:14.001Z</time></trkpt><trkpt lat="38.1110934979172" lon="15.644821728314458"><ele>11.999999999999998</ele><time>2026-05-03T11:33:22.001Z</time></trkpt><trkpt lat="38.111119481667814" lon="15.644905749389935"><ele>12.0</ele><time>2026-05-03T11:33:30.001Z</time></trkpt><trkpt lat="38.11111032266262" lon="15.644989060379304"><ele>11.999999999999998</ele><time>2026-05-03T11:33:38.001Z</time></trkpt><trkpt lat="38.111056411784546" lon="15.645050725046332"><ele>12.0</ele><time>2026-05-03T11:33:44.001Z</time></trkpt><trkpt lat="38.11099222442441" lon="15.64502558637962"><ele>12.0</ele><time>2026-05-03T11:33:53.001Z</time></trkpt><trkpt lat="38.111000149112826" lon="15.644933425384044"><ele>12.0</ele><time>2026-05-03T11:33:59.001Z</time></trkpt><trkpt lat="38.11099888957789" lon="15.644843246130662"><ele>12.0</ele><time>2026-05-03T11:34:06.001Z</time></trkpt><trkpt lat="38.11096789713253" lon="15.64476766043062"><ele>11.999999999999998</ele><time>2026-05-03T11:34:13.001Z</time></trkpt><trkpt lat="38.11090187296853" lon="15.644708167105179"><ele>12.0</ele><time>2026-05-03T11:34:23.001Z</time></trkpt><trkpt lat="38.110860137185355" lon="15.64462995734756"><ele>11.999999999999998</ele><time>2026-05-03T11:34:31.001Z</time></trkpt><trkpt lat="38.110804559443594" lon="15.644570535987153"><ele>12.0</ele><time>2026-05-03T11:34:44.001Z</time></trkpt><trkpt lat="38.1107592060757" lon="15.644513433846699"><ele>12.0</ele><time>2026-05-03T11:34:53.001Z</time></trkpt><trkpt lat="38.11071037293647" lon="15.644462624772657"><ele>12.0</ele><time>2026-05-03T11:35:02.001Z</time></trkpt><trkpt lat="38.1106848888175" lon="15.644370730162953"><ele>12.0</ele><time>2026-05-03T11:35:10.001Z</time></trkpt><trkpt lat="38.110655777929445" lon="15.644280766716333"><ele>11.999999999999998</ele><time>2026-05-03T11:35:18.001Z</time></trkpt><trkpt lat="38.11059491517578" lon="15.644238272676356"><ele>12.0</ele><time>2026-05-03T11:35:28.001Z</time></trkpt><trkpt lat="38.11058136295616" lon="15.64414299430185"><ele>12.285714285714285</ele><time>2026-05-03T11:35:37.001Z</time></trkpt><trkpt lat="38.11051146723613" lon="15.644149491213835"><ele>12.571428571428571</ele><time>2026-05-03T11:35:44.001Z</time></trkpt><trkpt lat="38.11048318907595" lon="15.644076107338286"><ele>12.857142857142858</ele><time>2026-05-03T11:35:54.001Z</time></trkpt><trkpt lat="38.11044407792544" lon="15.644012570425891"><ele>13.142857142857142</ele><time>2026-05-03T11:36:01.001Z</time></trkpt><trkpt lat="38.1104254972146" lon="15.643922482683053"><ele>13.428571428571429</ele><time>2026-05-03T11:36:09.001Z</time></trkpt><trkpt lat="38.1103689002614" lon="15.643876637345318"><ele>13.714285714285714</ele><time>2026-05-03T11:36:19.001Z</time></trkpt><trkpt lat="38.11030589396388" lon="15.6438570496379"><ele>14.0</ele><time>2026-05-03T11:36:26.001Z</time></trkpt><trkpt lat="38.1102645098522" lon="15.643795607416886"><ele>14.0</ele><time>2026-05-03T11:36:33.001Z</time></trkpt><trkpt lat="38.11023038868969" lon="15.643728188449773"><ele>14.0</ele><time>2026-05-03T11:36:43.001Z</time></trkpt><trkpt lat="38.11019191378663" lon="15.643659741765687"><ele>14.0</ele><time>2026-05-03T11:36:51.001Z</time></trkpt><trkpt lat="38.1101516735146" lon="15.643589859653728"><ele>14.0</ele><time>2026-05-03T11:37:00.001Z</time></trkpt><trkpt lat="38.11013118274086" lon="15.643503905973953"><ele>14.0</ele><time>2026-05-03T11:37:08.001Z</time></trkpt><trkpt lat="38.11007081760295" lon="15.643467581838285"><ele>14.0</ele><time>2026-05-03T11:37:16.001Z</time></trkpt><trkpt lat="38.11003530607944" lon="15.643393758184605"><ele>14.0</ele><time>2026-05-03T11:37:24.001Z</time></trkpt><trkpt lat="38.10998446514123" lon="15.643316210180975"><ele>14.142857142857142</ele><time>2026-05-03T11:37:33.001Z</time></trkpt><trkpt lat="38.10992575891309" lon="15.643261101014795"><ele>14.285714285714285</ele><time>2026-05-03T11:37:42.001Z</time></trkpt><trkpt lat="38.109891690588135" lon="15.643187997734492"><ele>14.428571428571429</ele><time>2026-05-03T11:37:50Z</time></trkpt><trkpt lat="38.10984683778758" lon="15.643129335617791"><ele>14.571428571428571</ele><time>2026-05-03T11:37:58Z</time></trkpt><trkpt lat="38.109835219447106" lon="15.643042848519631"><ele>14.714285714285714</ele><time>2026-05-03T11:38:06Z</time></trkpt><trkpt lat="38.10981802086277" lon="15.642953064944773"><ele>14.857142857142858</ele><time>2026-05-03T11:38:12Z</time></trkpt><trkpt lat="38.10975086225557" lon="15.642957025135933"><ele>15.0</ele><time>2026-05-03T11:38:17.001Z</time></trkpt><trkpt lat="38.10969006168995" lon="15.642906431935254"><ele>15.0</ele><time>2026-05-03T11:38:26.001Z</time></trkpt><trkpt lat="38.10962531988724" lon="15.642875975808282"><ele>15.0</ele><time>2026-05-03T11:38:34.001Z</time></trkpt><trkpt lat="38.10957765932171" lon="15.642821543038298"><ele>15.0</ele><time>2026-05-03T11:38:42.001Z</time></trkpt><trkpt lat="38.10957181813163" lon="15.642725141222073"><ele>15.0</ele><time>2026-05-03T11:38:48.001Z</time></trkpt><trkpt lat="38.109536663607685" lon="15.642628159853533"><ele>15.0</ele><time>2026-05-03T11:38:56.001Z</time></trkpt><trkpt lat="38.10947367218557" lon="15.642610602898003"><ele>15.0</ele><time>2026-05-03T11:39:06.001Z</time></trkpt><trkpt lat="38.10944684516918" lon="15.642536782639377"><ele>15.0</ele><time>2026-05-03T11:39:16.001Z</time></trkpt><trkpt lat="38.109428002870885" lon="15.642457187889066"><ele>15.0</ele><time>2026-05-03T11:39:23.001Z</time></trkpt><trkpt lat="38.10937776038286" lon="15.64240590703847"><ele>15.0</ele><time>2026-05-03T11:39:31Z</time></trkpt><trkpt lat="38.10931713952582" lon="15.642356571431154"><ele>15.0</ele><time>2026-05-03T11:39:42Z</time></trkpt><trkpt lat="38.10926775241503" lon="15.642285126391585"><ele>15.0</ele><time>2026-05-03T11:39:49Z</time></trkpt><trkpt lat="38.10923274029751" lon="15.642218237215808"><ele>15.0</ele><time>2026-05-03T11:39:56Z</time></trkpt><trkpt lat="38.109198274062905" lon="15.64214951147763"><ele>15.0</ele><time>2026-05-03T11:40:06Z</time></trkpt><trkpt lat="38.109160849289296" lon="15.642082934030903"><ele>15.0</ele><time>2026-05-03T11:40:14Z</time></trkpt><trkpt lat="38.10912208450661" lon="15.642005300430366"><ele>15.0</ele><time>2026-05-03T11:40:22Z</time></trkpt><trkpt lat="38.109200844011745" lon="15.642034375439897"><ele>15.0</ele><time>2026-05-03T11:40:50Z</time></trkpt><trkpt lat="38.10922778191176" lon="15.642111003274891"><ele>15.0</ele><time>2026-05-03T11:40:57.001Z</time></trkpt><trkpt lat="38.10928509008401" lon="15.642198405996815"><ele>15.0</ele><time>2026-05-03T11:41:05.001Z</time></trkpt><trkpt lat="38.10932346282411" lon="15.642262387947026"><ele>15.0</ele><time>2026-05-03T11:41:15.001Z</time></trkpt><trkpt lat="38.109371782190614" lon="15.642319094641492"><ele>15.0</ele><time>2026-05-03T11:41:21.001Z</time></trkpt><trkpt lat="38.10940252645125" lon="15.642396477975923"><ele>15.0</ele><time>2026-05-03T11:41:30.001Z</time></trkpt><trkpt lat="38.10944400632971" lon="15.642459192277915"><ele>15.0</ele><time>2026-05-03T11:41:38Z</time></trkpt><trkpt lat="38.10947426099268" lon="15.642535924831696"><ele>15.0</ele><time>2026-05-03T11:41:46Z</time></trkpt><trkpt lat="38.109522048695354" lon="15.642605585286915"><ele>15.0</ele><time>2026-05-03T11:41:52Z</time></trkpt><trkpt lat="38.109561491356025" lon="15.642672491736269"><ele>15.0</ele><time>2026-05-03T11:42:00Z</time></trkpt><trkpt lat="38.109603500287335" lon="15.642741696504515"><ele>15.0</ele><time>2026-05-03T11:42:09Z</time></trkpt><trkpt lat="38.10966092429003" lon="15.642808193622052"><ele>15.0</ele><time>2026-05-03T11:42:16Z</time></trkpt><trkpt lat="38.10971303368067" lon="15.642859146215198"><ele>15.0</ele><time>2026-05-03T11:42:23Z</time></trkpt><trkpt lat="38.109754718698106" lon="15.642919619299112"><ele>15.0</ele><time>2026-05-03T11:42:30Z</time></trkpt><trkpt lat="38.109797685812985" lon="15.642979314796301"><ele>15.0</ele><time>2026-05-03T11:42:38Z</time></trkpt><trkpt lat="38.109826618565506" lon="15.643060548947343"><ele>15.0</ele><time>2026-05-03T11:42:46Z</time></trkpt><trkpt lat="38.10988227421939" lon="15.64310486671171"><ele>15.0</ele><time>2026-05-03T11:43:02Z</time></trkpt><trkpt lat="38.10990074565984" lon="15.643182641213556"><ele>15.0</ele><time>2026-05-03T11:43:08Z</time></trkpt><trkpt lat="38.10994347945496" lon="15.64325071719978"><ele>15.0</ele><time>2026-05-03T11:43:15Z</time></trkpt><trkpt lat="38.10999815875079" lon="15.64329711187624"><ele>15.0</ele><time>2026-05-03T11:43:22Z</time></trkpt><trkpt lat="38.11003867495177" lon="15.643359072340184"><ele>14.857142857142858</ele><time>2026-05-03T11:43:31Z</time></trkpt><trkpt lat="38.1100786005486" lon="15.64343701247473"><ele>14.714285714285714</ele><time>2026-05-03T11:43:38.001Z</time></trkpt><trkpt lat="38.11011169386254" lon="15.643518248881339"><ele>14.571428571428571</ele><time>2026-05-03T11:43:46Z</time></trkpt><trkpt lat="38.110159826789044" lon="15.643571496223798"><ele>14.428571428571429</ele><time>2026-05-03T11:43:53Z</time></trkpt><trkpt lat="38.11019552718987" lon="15.643641597597181"><ele>14.285714285714285</ele><time>2026-05-03T11:44:00Z</time></trkpt><trkpt lat="38.11025250266535" lon="15.643692892457924"><ele>14.142857142857142</ele><time>2026-05-03T11:44:07Z</time></trkpt><trkpt lat="38.11028961341375" lon="15.643763329363159"><ele>14.0</ele><time>2026-05-03T11:44:14Z</time></trkpt><trkpt lat="38.110333104779066" lon="15.643838132338614"><ele>14.0</ele><time>2026-05-03T11:44:25Z</time></trkpt><trkpt lat="38.11037547705726" lon="15.643900423478978"><ele>14.0</ele><time>2026-05-03T11:44:33Z</time></trkpt><trkpt lat="38.110428940176085" lon="15.64394945545081"><ele>14.0</ele><time>2026-05-03T11:44:39Z</time></trkpt><trkpt lat="38.11046726401503" lon="15.644015694280482"><ele>14.0</ele><time>2026-05-03T11:44:46Z</time></trkpt><trkpt lat="38.110503446640145" lon="15.644096537894509"><ele>14.0</ele><time>2026-05-03T11:44:57Z</time></trkpt><trkpt lat="38.11055232836156" lon="15.644160147334366"><ele>14.0</ele><time>2026-05-03T11:45:02Z</time></trkpt><trkpt lat="38.11060043889401" lon="15.64422173510076"><ele>14.0</ele><time>2026-05-03T11:45:09Z</time></trkpt><trkpt lat="38.11064643740472" lon="15.64428923813764"><ele>14.0</ele><time>2026-05-03T11:45:18Z</time></trkpt><trkpt lat="38.11069447446038" lon="15.644372742440163"><ele>14.0</ele><time>2026-05-03T11:45:29.001Z</time></trkpt><trkpt lat="38.110742082889985" lon="15.64443568319529"><ele>14.0</ele><time>2026-05-03T11:45:35.001Z</time></trkpt><trkpt lat="38.110766796721656" lon="15.644516701139686"><ele>14.0</ele><time>2026-05-03T11:45:43.001Z</time></trkpt><trkpt lat="38.11080422258848" lon="15.64459465282674"><ele>14.0</ele><time>2026-05-03T11:45:54Z</time></trkpt><trkpt lat="38.11082411004236" lon="15.64467692754521"><ele>14.0</ele><time>2026-05-03T11:46:02Z</time></trkpt><trkpt lat="38.11076148649584" lon="15.644721900464877"><ele>14.0</ele><time>2026-05-03T11:46:11Z</time></trkpt><trkpt lat="38.11072814018209" lon="15.644797624608131"><ele>14.714285714285715</ele><time>2026-05-03T11:46:18Z</time></trkpt><trkpt lat="38.11066622618455" lon="15.64481922566413"><ele>15.428571428571429</ele><time>2026-05-03T11:46:37Z</time></trkpt><trkpt lat="38.11060234957776" lon="15.64483179537437"><ele>16.142857142857142</ele><time>2026-05-03T11:46:43Z</time></trkpt><trkpt lat="38.11054018407476" lon="15.644887615481743"><ele>16.857142857142858</ele><time>2026-05-03T11:46:53Z</time></trkpt><trkpt lat="38.110496544098154" lon="15.644958874197782"><ele>17.571428571428573</ele><time>2026-05-03T11:47:03Z</time></trkpt><trkpt lat="38.11043576182827" lon="15.64500036701868"><ele>18.285714285714285</ele><time>2026-05-03T11:47:10Z</time></trkpt><trkpt lat="38.11038341974715" lon="15.645051453084383"><ele>19.0</ele><time>2026-05-03T11:47:15Z</time></trkpt><trkpt lat="38.11030487364238" lon="15.645061053879079"><ele>19.0</ele><time>2026-05-03T11:47:21Z</time></trkpt><trkpt lat="38.110223008926816" lon="15.64505502967969"><ele>19.0</ele><time>2026-05-03T11:47:24Z</time></trkpt><trkpt lat="38.110202645063644" lon="15.645135928692337"><ele>19.0</ele><time>2026-05-03T11:47:32Z</time></trkpt><trkpt lat="38.11024022585568" lon="15.645206334575159"><ele>19.0</ele><time>2026-05-03T11:47:34Z</time></trkpt><trkpt lat="38.11021925559924" lon="15.645290926493676"><ele>19.0</ele><time>2026-05-03T11:47:41.001Z</time></trkpt><trkpt lat="38.11022006087384" lon="15.645376186837401"><ele>19.0</ele><time>2026-05-03T11:47:47.001Z</time></trkpt><trkpt lat="38.11016804790278" lon="15.645443327092527"><ele>19.0</ele><time>2026-05-03T11:47:58Z</time></trkpt><trkpt lat="38.1101064962604" lon="15.645462833978012"><ele>19.428571428571427</ele><time>2026-05-03T11:48:06Z</time></trkpt><trkpt lat="38.11006275201543" lon="15.645524202410893"><ele>19.857142857142858</ele><time>2026-05-03T11:48:15Z</time></trkpt><trkpt lat="38.11004094616691" lon="15.645606446245147"><ele>20.285714285714285</ele><time>2026-05-03T11:48:21Z</time></trkpt><trkpt lat="38.10999502222146" lon="15.645664012834052"><ele>20.714285714285715</ele><time>2026-05-03T11:48:27Z</time></trkpt><trkpt lat="38.10994738450215" lon="15.64574568516397"><ele>21.142857142857142</ele><time>2026-05-03T11:48:38Z</time></trkpt><trkpt lat="38.10988912289524" lon="15.645778120429894"><ele>21.571428571428573</ele><time>2026-05-03T11:48:45Z</time></trkpt><trkpt lat="38.10984351666474" lon="15.645846990024092"><ele>22.0</ele><time>2026-05-03T11:48:50Z</time></trkpt><trkpt lat="38.10987574845005" lon="15.645926027338213"><ele>22.0</ele><time>2026-05-03T11:48:59Z</time></trkpt><trkpt lat="38.10993981887022" lon="15.645957814325087"><ele>22.0</ele><time>2026-05-03T11:49:05Z</time></trkpt><trkpt lat="38.109991034742535" lon="15.646015805596091"><ele>22.0</ele><time>2026-05-03T11:49:12Z</time></trkpt><trkpt lat="38.11003713020355" lon="15.646072235986944"><ele>22.0</ele><time>2026-05-03T11:49:17Z</time></trkpt><trkpt lat="38.110091946014194" lon="15.646117687024832"><ele>22.0</ele><time>2026-05-03T11:49:22Z</time></trkpt><trkpt lat="38.11015014228882" lon="15.646170041341383"><ele>22.0</ele><time>2026-05-03T11:49:30Z</time></trkpt><trkpt lat="38.11020638996865" lon="15.646226939128333"><ele>22.0</ele><time>2026-05-03T11:49:38Z</time></trkpt><trkpt lat="38.11024605389534" lon="15.646300722499968"><ele>22.42857142857143</ele><time>2026-05-03T11:49:46.001Z</time></trkpt><trkpt lat="38.110297603250515" lon="15.646357927389346"><ele>22.857142857142858</ele><time>2026-05-03T11:49:54.001Z</time></trkpt><trkpt lat="38.1103571147503" lon="15.646390172129813"><ele>23.285714285714285</ele><time>2026-05-03T11:50:04Z</time></trkpt><trkpt lat="38.1103829748212" lon="15.646479111349402"><ele>23.714285714285715</ele><time>2026-05-03T11:50:12Z</time></trkpt><trkpt lat="38.11043779712587" lon="15.646525256578233"><ele>24.142857142857142</ele><time>2026-05-03T11:50:21Z</time></trkpt><trkpt lat="38.110475158071104" lon="15.646595745267792"><ele>24.571428571428573</ele><time>2026-05-03T11:50:29Z</time></trkpt><trkpt lat="38.11052305932888" lon="15.646655457292612"><ele>25.0</ele><time>2026-05-03T11:50:37Z</time></trkpt><trkpt lat="38.11058878963215" lon="15.646683429019971"><ele>25.000000000000004</ele><time>2026-05-03T11:50:43Z</time></trkpt><trkpt lat="38.11064886232473" lon="15.646730076188039"><ele>25.0</ele><time>2026-05-03T11:52:27Z</time></trkpt><trkpt lat="38.11069667818672" lon="15.64678417195914"><ele>25.0</ele><time>2026-05-03T11:52:35Z</time></trkpt><trkpt lat="38.11073715559794" lon="15.646855458525518"><ele>25.0</ele><time>2026-05-03T11:53:03Z</time></trkpt><trkpt lat="38.11068924944249" lon="15.646794494865974"><ele>25.0</ele><time>2026-05-03T11:53:25Z</time></trkpt><trkpt lat="38.11063103588311" lon="15.646745907370615"><ele>25.000000000000004</ele><time>2026-05-03T11:53:30Z</time></trkpt><trkpt lat="38.11058301705433" lon="15.646687555065615"><ele>25.0</ele><time>2026-05-03T11:53:42.001Z</time></trkpt><trkpt lat="38.11051825422923" lon="15.646639459114722"><ele>25.000000000000004</ele><time>2026-05-03T11:53:49.001Z</time></trkpt><trkpt lat="38.11046283435798" lon="15.646600827664159"><ele>25.0</ele><time>2026-05-03T11:53:56.001Z</time></trkpt><trkpt lat="38.11041020645335" lon="15.646544606469574"><ele>25.0</ele><time>2026-05-03T11:54:05.001Z</time></trkpt><trkpt lat="38.11035964753337" lon="15.646489678183967"><ele>25.0</ele><time>2026-05-03T11:54:13Z</time></trkpt><trkpt lat="38.110293973144934" lon="15.64645162010785"><ele>25.0</ele><time>2026-05-03T11:54:20Z</time></trkpt><trkpt lat="38.110240701008756" lon="15.646397017134051"><ele>25.000000000000004</ele><time>2026-05-03T11:54:29Z</time></trkpt><trkpt lat="38.110217979122275" lon="15.646318022399592"><ele>25.0</ele><time>2026-05-03T11:54:36Z</time></trkpt><trkpt lat="38.11015582465137" lon="15.646284945564169"><ele>25.000000000000004</ele><time>2026-05-03T11:54:45Z</time></trkpt><trkpt lat="38.11009870441277" lon="15.646250762682461"><ele>25.0</ele><time>2026-05-03T11:54:52Z</time></trkpt><trkpt lat="38.11004530637086" lon="15.646194600964911"><ele>25.0</ele><time>2026-05-03T11:55:00Z</time></trkpt><trkpt lat="38.11000429772561" lon="15.646129422081863"><ele>25.0</ele><time>2026-05-03T11:55:07Z</time></trkpt><trkpt lat="38.10995277749721" lon="15.646073856563294"><ele>25.0</ele><time>2026-05-03T11:55:15Z</time></trkpt><trkpt lat="38.109899856750346" lon="15.646010311934203"><ele>25.000000000000004</ele><time>2026-05-03T11:55:23Z</time></trkpt><trkpt lat="38.109851299582395" lon="15.645942819771415"><ele>25.0</ele><time>2026-05-03T11:55:30Z</time></trkpt><trkpt lat="38.10981644893616" lon="15.645876139546658"><ele>25.000000000000004</ele><time>2026-05-03T11:55:36Z</time></trkpt><trkpt lat="38.109781378643696" lon="15.645799612196223"><ele>25.0</ele><time>2026-05-03T11:55:44Z</time></trkpt><trkpt lat="38.109758298623156" lon="15.645721342682021"><ele>25.0</ele><time>2026-05-03T11:55:53.001Z</time></trkpt><trkpt lat="38.109761664842004" lon="15.64563372826191"><ele>25.0</ele><time>2026-05-03T11:56:31Z</time></trkpt><trkpt lat="38.10980924890551" lon="15.645699222707773"><ele>25.0</ele><time>2026-05-03T11:56:50Z</time></trkpt><trkpt lat="38.109848032644166" lon="15.645763443661117"><ele>25.000000000000004</ele><time>2026-05-03T12:06:53Z</time></trkpt><trkpt lat="38.10988525849108" lon="15.645697841339075"><ele>25.0</ele><time>2026-05-03T12:07:04Z</time></trkpt><trkpt lat="38.1099016747674" lon="15.645610438305168"><ele>24.571428571428573</ele><time>2026-05-03T12:07:11Z</time></trkpt><trkpt lat="38.10995983825967" lon="15.64556255061821"><ele>24.142857142857142</ele><time>2026-05-03T12:07:19Z</time></trkpt><trkpt lat="38.11000804576088" lon="15.645506721956005"><ele>23.714285714285715</ele><time>2026-05-03T12:07:26Z</time></trkpt><trkpt lat="38.11005987012686" lon="15.645461167995649"><ele>23.285714285714285</ele><time>2026-05-03T12:07:31Z</time></trkpt><trkpt lat="38.11011391694071" lon="15.645409410676276"><ele>22.857142857142858</ele><time>2026-05-03T12:07:38Z</time></trkpt><trkpt lat="38.11016021889127" lon="15.645350018516277"><ele>22.42857142857143</ele><time>2026-05-03T12:07:44Z</time></trkpt><trkpt lat="38.110177657771864" lon="15.645272476299127"><ele>22.0</ele><time>2026-05-03T12:07:52Z</time></trkpt><trkpt lat="38.11022954036" lon="15.645215231128955"><ele>21.571428571428573</ele><time>2026-05-03T12:07:57Z</time></trkpt><trkpt lat="38.11029636932097" lon="15.64518967522804"><ele>21.142857142857142</ele><time>2026-05-03T12:08:06Z</time></trkpt><trkpt lat="38.11034084435037" lon="15.645131238248954"><ele>20.714285714285715</ele><time>2026-05-03T12:08:13Z</time></trkpt><trkpt lat="38.11039250690411" lon="15.64504967267233"><ele>20.285714285714285</ele><time>2026-05-03T12:08:21Z</time></trkpt><trkpt lat="38.11044822532261" lon="15.645000334926785"><ele>19.857142857142858</ele><time>2026-05-03T12:08:29Z</time></trkpt><trkpt lat="38.11047506997958" lon="15.644911129272886"><ele>19.428571428571427</ele><time>2026-05-03T12:08:36Z</time></trkpt><trkpt lat="38.11053487807138" lon="15.644885955782327"><ele>19.0</ele><time>2026-05-03T12:08:42Z</time></trkpt><trkpt lat="38.110587377308946" lon="15.644837068003596"><ele>19.0</ele><time>2026-05-03T12:08:52Z</time></trkpt><trkpt lat="38.110640014435816" lon="15.64478907232374"><ele>19.0</ele><time>2026-05-03T12:08:57Z</time></trkpt><trkpt lat="38.11070122515115" lon="15.644766951311928"><ele>19.0</ele><time>2026-05-03T12:09:04Z</time></trkpt><trkpt lat="38.11072891701142" lon="15.644684512029508"><ele>19.0</ele><time>2026-05-03T12:12:21Z</time></trkpt><trkpt lat="38.11066153399778" lon="15.644578694500057"><ele>19.0</ele><time>2026-05-03T12:12:23Z</time></trkpt><trkpt lat="38.1105815745656" lon="15.644453151522669"><ele>19.0</ele><time>2026-05-03T12:12:25Z</time></trkpt><trkpt lat="38.11054008283065" lon="15.64437457841762"><ele>18.166666666666664</ele><time>2026-05-03T12:12:26Z</time></trkpt><trkpt lat="38.110483489410875" lon="15.644295050877968"><ele>17.333333333333332</ele><time>2026-05-03T12:12:27Z</time></trkpt><trkpt lat="38.110417711962484" lon="15.644218998875026"><ele>16.5</ele><time>2026-05-03T12:12:28Z</time></trkpt><trkpt lat="38.11036176931817" lon="15.644129541037879"><ele>15.666666666666668</ele><time>2026-05-03T12:12:29Z</time></trkpt><trkpt lat="38.110302170503275" lon="15.644041326328008"><ele>14.833333333333334</ele><time>2026-05-03T12:12:30Z</time></trkpt><trkpt lat="38.110242626796975" lon="15.643950255156"><ele>14.0</ele><time>2026-05-03T12:12:31Z</time></trkpt><trkpt lat="38.110180730300755" lon="15.643859545226887"><ele>14.0</ele><time>2026-05-03T12:12:32Z</time></trkpt><trkpt lat="38.11011714955964" lon="15.643765439936534"><ele>13.999999999999998</ele><time>2026-05-03T12:12:33Z</time></trkpt><trkpt lat="38.11005555880505" lon="15.643669271793968"><ele>13.999999999999998</ele><time>2026-05-03T12:12:34Z</time></trkpt><trkpt lat="38.10999641227425" lon="15.643571222372639"><ele>14.0</ele><time>2026-05-03T12:12:35Z</time></trkpt><trkpt lat="38.109922146940164" lon="15.643474284705901"><ele>14.0</ele><time>2026-05-03T12:12:36Z</time></trkpt><trkpt lat="38.10986829257889" lon="15.643378476167038"><ele>14.2</ele><time>2026-05-03T12:12:37Z</time></trkpt><trkpt lat="38.10981029289479" lon="15.643273330584272"><ele>14.399999999999999</ele><time>2026-05-03T12:12:38Z</time></trkpt><trkpt lat="38.109745226939815" lon="15.64317858717984"><ele>14.6</ele><time>2026-05-03T12:12:39Z</time></trkpt><trkpt lat="38.10967414993975" lon="15.643080627232727"><ele>14.8</ele><time>2026-05-03T12:12:40Z</time></trkpt><trkpt lat="38.10960973144846" lon="15.642970948774268"><ele>15.0</ele><time>2026-05-03T12:12:41Z</time></trkpt><trkpt lat="38.10954181080727" lon="15.642884996046284"><ele>15.0</ele><time>2026-05-03T12:12:42Z</time></trkpt><trkpt lat="38.109477324085454" lon="15.642792477499896"><ele>15.0</ele><time>2026-05-03T12:12:43Z</time></trkpt><trkpt lat="38.10940681677099" lon="15.64270528679191"><ele>15.0</ele><time>2026-05-03T12:12:44Z</time></trkpt><trkpt lat="38.1093498015231" lon="15.642603169009922"><ele>15.0</ele><time>2026-05-03T12:12:45Z</time></trkpt><trkpt lat="38.10928290664205" lon="15.64250241431454"><ele>15.0</ele><time>2026-05-03T12:12:46Z</time></trkpt><trkpt lat="38.1092193928319" lon="15.642403853978278"><ele>15.0</ele><time>2026-05-03T12:12:47Z</time></trkpt><trkpt lat="38.10915279538874" lon="15.642306366815252"><ele>15.0</ele><time>2026-05-03T12:12:48Z</time></trkpt><trkpt lat="38.10909378163257" lon="15.642207426267603"><ele>15.0</ele><time>2026-05-03T12:12:49Z</time></trkpt><trkpt lat="38.109027259130066" lon="15.642098740685569"><ele>15.0</ele><time>2026-05-03T12:12:50Z</time></trkpt><trkpt lat="38.10895413983261" lon="15.641991646956702"><ele>15.0</ele><time>2026-05-03T12:12:51Z</time></trkpt><trkpt lat="38.1088688623073" lon="15.641865732389688"><ele>13.75</ele><time>2026-05-03T12:12:52Z</time></trkpt><trkpt lat="38.108785869217606" lon="15.641741326397986"><ele>12.5</ele><time>2026-05-03T12:12:53Z</time></trkpt><trkpt lat="38.10870372334508" lon="15.641617842119942"><ele>11.25</ele><time>2026-05-03T12:12:54Z</time></trkpt><trkpt lat="38.10862024644816" lon="15.641502018946216"><ele>10.0</ele><time>2026-05-03T12:12:55Z</time></trkpt><trkpt lat="38.10853842616307" lon="15.641381124053579"><ele>10.0</ele><time>2026-05-03T12:12:56Z</time></trkpt><trkpt lat="38.10845934263153" lon="15.641258045838333"><ele>10.0</ele><time>2026-05-03T12:12:57Z</time></trkpt><trkpt lat="38.10838008849782" lon="15.641126621808386"><ele>10.0</ele><time>2026-05-03T12:12:58Z</time></trkpt><trkpt lat="38.10829802963781" lon="15.641004088617604"><ele>10.0</ele><time>2026-05-03T12:12:59Z</time></trkpt><trkpt lat="38.10821545438816" lon="15.640878364752545"><ele>10.25</ele><time>2026-05-03T12:13:00Z</time></trkpt><trkpt lat="38.10812935650256" lon="15.640754205044114"><ele>10.5</ele><time>2026-05-03T12:13:01Z</time></trkpt><trkpt lat="38.10803785870537" lon="15.640622783477918"><ele>10.75</ele><time>2026-05-03T12:13:02Z</time></trkpt><trkpt lat="38.107963019787945" lon="15.640512347991672"><ele>11.0</ele><time>2026-05-03T12:13:03Z</time></trkpt><trkpt lat="38.10788522664285" lon="15.640392277271818"><ele>10.75</ele><time>2026-05-03T12:13:04Z</time></trkpt><trkpt lat="38.1078120279013" lon="15.640274197782535"><ele>10.5</ele><time>2026-05-03T12:13:05Z</time></trkpt><trkpt lat="38.10772600031613" lon="15.64016803497065"><ele>10.25</ele><time>2026-05-03T12:13:06Z</time></trkpt><trkpt lat="38.10764332014269" lon="15.640042886798692"><ele>10.0</ele><time>2026-05-03T12:13:07Z</time></trkpt><trkpt lat="38.107543319372404" lon="15.639895034924235"><ele>10.0</ele><time>2026-05-03T12:13:08Z</time></trkpt><trkpt lat="38.10743213299572" lon="15.639742205100621"><ele>10.0</ele><time>2026-05-03T12:13:09Z</time></trkpt><trkpt lat="38.10733271970123" lon="15.639573091874155"><ele>10.0</ele><time>2026-05-03T12:13:10Z</time></trkpt><trkpt lat="38.10721865067056" lon="15.639409581064317"><ele>10.333333333333334</ele><time>2026-05-03T12:13:11Z</time></trkpt><trkpt lat="38.10709034586942" lon="15.639254499731353"><ele>10.666666666666666</ele><time>2026-05-03T12:13:12Z</time></trkpt><trkpt lat="38.10696094387704" lon="15.639103197952492"><ele>11.0</ele><time>2026-05-03T12:13:13Z</time></trkpt><trkpt lat="38.106832767591925" lon="15.638958158101854"><ele>11.0</ele><time>2026-05-03T12:13:14Z</time></trkpt><trkpt lat="38.10670694610559" lon="15.638826483604785"><ele>11.0</ele><time>2026-05-03T12:13:15Z</time></trkpt><trkpt lat="38.106582971232584" lon="15.638721479359964"><ele>11.0</ele><time>2026-05-03T12:13:16Z</time></trkpt><trkpt lat="38.1064721284027" lon="15.638672928770283"><ele>11.0</ele><time>2026-05-03T12:13:17Z</time></trkpt><trkpt lat="38.10638438369124" lon="15.638646826578835"><ele>10.75</ele><time>2026-05-03T12:13:18Z</time></trkpt><trkpt lat="38.106272887856456" lon="15.638580967987433"><ele>10.5</ele><time>2026-05-03T12:13:19Z</time></trkpt><trkpt lat="38.10613621961535" lon="15.638532043817243"><ele>10.25</ele><time>2026-05-03T12:13:20Z</time></trkpt><trkpt lat="38.10599369890527" lon="15.638451067673916"><ele>10.0</ele><time>2026-05-03T12:13:21Z</time></trkpt><trkpt lat="38.10584025332223" lon="15.638372264074016"><ele>10.333333333333334</ele><time>2026-05-03T12:13:22Z</time></trkpt><trkpt lat="38.10569670768488" lon="15.638299051064102"><ele>10.666666666666666</ele><time>2026-05-03T12:13:23Z</time></trkpt><trkpt lat="38.10553911801744" lon="15.63820934796519"><ele>11.0</ele><time>2026-05-03T12:13:24Z</time></trkpt><trkpt lat="38.10539377469885" lon="15.638116726201675"><ele>11.0</ele><time>2026-05-03T12:13:25Z</time></trkpt><trkpt lat="38.10524108002032" lon="15.638006293211053"><ele>11.0</ele><time>2026-05-03T12:13:26Z</time></trkpt><trkpt lat="38.105097733746696" lon="15.63790239714322"><ele>11.0</ele><time>2026-05-03T12:13:27Z</time></trkpt><trkpt lat="38.10496623970826" lon="15.637789691845086"><ele>12.0</ele><time>2026-05-03T12:13:28Z</time></trkpt><trkpt lat="38.10486154756235" lon="15.63767805793317"><ele>13.0</ele><time>2026-05-03T12:13:29Z</time></trkpt><trkpt lat="38.104748971586844" lon="15.637580976359565"><ele>14.0</ele><time>2026-05-03T12:13:30Z</time></trkpt><trkpt lat="38.10461886734794" lon="15.637517955253907"><ele>15.0</ele><time>2026-05-03T12:13:31Z</time></trkpt><trkpt lat="38.10448546362875" lon="15.637451686256513"><ele>15.0</ele><time>2026-05-03T12:13:32Z</time></trkpt><trkpt lat="38.104375667396326" lon="15.637361005781255"><ele>15.0</ele><time>2026-05-03T12:13:33Z</time></trkpt><trkpt lat="38.10425682734417" lon="15.637242096817266"><ele>15.0</ele><time>2026-05-03T12:13:34Z</time></trkpt><trkpt lat="38.10414847951837" lon="15.637112943194097"><ele>15.0</ele><time>2026-05-03T12:13:35Z</time></trkpt><trkpt lat="38.10403923342904" lon="15.636994765659614"><ele>14.0</ele><time>2026-05-03T12:13:36Z</time></trkpt><trkpt lat="38.103931200451186" lon="15.636877359831095"><ele>13.0</ele><time>2026-05-03T12:13:37Z</time></trkpt><trkpt lat="38.10381801209249" lon="15.636774754545408"><ele>12.0</ele><time>2026-05-03T12:13:38Z</time></trkpt><trkpt lat="38.10370237940896" lon="15.636672269588875"><ele>11.0</ele><time>2026-05-03T12:13:39Z</time></trkpt><trkpt lat="38.103585974680406" lon="15.636555408486847"><ele>11.0</ele><time>2026-05-03T12:13:40Z</time></trkpt><trkpt lat="38.103474178421486" lon="15.636429267386124"><ele>11.0</ele><time>2026-05-03T12:13:41Z</time></trkpt><trkpt lat="38.10337181633776" lon="15.63630794986383"><ele>11.0</ele><time>2026-05-03T12:13:42Z</time></trkpt><trkpt lat="38.103265881197345" lon="15.636184529556573"><ele>11.0</ele><time>2026-05-03T12:13:43Z</time></trkpt><trkpt lat="38.10316663015524" lon="15.636069084836256"><ele>11.25</ele><time>2026-05-03T12:13:44Z</time></trkpt><trkpt lat="38.10307290812001" lon="15.63595890114314"><ele>11.5</ele><time>2026-05-03T12:13:45Z</time></trkpt><trkpt lat="38.10297769680261" lon="15.63584177953568"><ele>11.75</ele><time>2026-05-03T12:13:46Z</time></trkpt><trkpt lat="38.10287418128115" lon="15.635733111964235"><ele>12.0</ele><time>2026-05-03T12:13:47Z</time></trkpt><trkpt lat="38.10277232631011" lon="15.635613429053317"><ele>12.0</ele><time>2026-05-03T12:13:48Z</time></trkpt><trkpt lat="38.10267466012056" lon="15.635496452683157"><ele>12.0</ele><time>2026-05-03T12:13:49Z</time></trkpt><trkpt lat="38.10257882730049" lon="15.635382702918214"><ele>12.0</ele><time>2026-05-03T12:13:50Z</time></trkpt><trkpt lat="38.10249478170285" lon="15.635266819915804"><ele>12.0</ele><time>2026-05-03T12:13:51Z</time></trkpt><trkpt lat="38.102420077382064" lon="15.63517183921777"><ele>12.2</ele><time>2026-05-03T12:13:52Z</time></trkpt><trkpt lat="38.102337114161" lon="15.635099495768134"><ele>12.399999999999999</ele><time>2026-05-03T12:13:53Z</time></trkpt><trkpt lat="38.10228002575362" lon="15.634996355511984"><ele>12.600000000000001</ele><time>2026-05-03T12:13:54Z</time></trkpt><trkpt lat="38.10221037675025" lon="15.634909530188308"><ele>12.8</ele><time>2026-05-03T12:13:55Z</time></trkpt><trkpt lat="38.102136767999816" lon="15.634830354076726"><ele>13.0</ele><time>2026-05-03T12:13:56Z</time></trkpt><trkpt lat="38.102067371206765" lon="15.634752060958816"><ele>12.999999999999998</ele><time>2026-05-03T12:13:57Z</time></trkpt><trkpt lat="38.1020041612169" lon="15.634682908777704"><ele>13.0</ele><time>2026-05-03T12:13:58Z</time></trkpt><trkpt lat="38.101938483457744" lon="15.634644753006643"><ele>13.0</ele><time>2026-05-03T12:13:59Z</time></trkpt><trkpt lat="38.10187197714862" lon="15.634638559280896"><ele>13.0</ele><time>2026-05-03T12:14:00Z</time></trkpt><trkpt lat="38.10178870810101" lon="15.634747516583108"><ele>12.999999999999998</ele><time>2026-05-03T12:14:01Z</time></trkpt><trkpt lat="38.10170412285843" lon="15.634823538807298"><ele>13.0</ele><time>2026-05-03T12:14:02Z</time></trkpt><trkpt lat="38.10162103977074" lon="15.634883710037165"><ele>12.200000000000001</ele><time>2026-05-03T12:14:03Z</time></trkpt><trkpt lat="38.10154117117377" lon="15.63494848221407"><ele>11.4</ele><time>2026-05-03T12:14:04Z</time></trkpt><trkpt lat="38.10147175887187" lon="15.63500284148277"><ele>10.600000000000001</ele><time>2026-05-03T12:14:05Z</time></trkpt><trkpt lat="38.10139611445567" lon="15.635021170640064"><ele>9.8</ele><time>2026-05-03T12:14:06Z</time></trkpt><trkpt lat="38.101330755163616" lon="15.635047848131281"><ele>9.0</ele><time>2026-05-03T12:14:07Z</time></trkpt><trkpt lat="38.10128959791913" lon="15.635271498669377"><ele>9.8</ele><time>2026-05-03T12:14:09Z</time></trkpt><trkpt lat="38.10126717758009" lon="15.635362694865526"><ele>10.600000000000001</ele><time>2026-05-03T12:14:10Z</time></trkpt><trkpt lat="38.101233945619846" lon="15.635447847017133"><ele>11.4</ele><time>2026-05-03T12:14:11Z</time></trkpt><trkpt lat="38.10120965053858" lon="15.63561072667805"><ele>12.200000000000001</ele><time>2026-05-03T12:14:13Z</time></trkpt><trkpt lat="38.10120176416024" lon="15.635724311409204"><ele>13.0</ele><time>2026-05-03T12:14:14Z</time></trkpt><trkpt lat="38.101185083343985" lon="15.635849211904109"><ele>13.0</ele><time>2026-05-03T12:14:15Z</time></trkpt><trkpt lat="38.101158904577424" lon="15.635983785016222"><ele>13.0</ele><time>2026-05-03T12:14:16Z</time></trkpt><trkpt lat="38.10112789096152" lon="15.636134086295755"><ele>13.0</ele><time>2026-05-03T12:14:17Z</time></trkpt><trkpt lat="38.10110218705954" lon="15.636288080296266"><ele>13.0</ele><time>2026-05-03T12:14:18Z</time></trkpt><trkpt lat="38.101080403004495" lon="15.63643704371853"><ele>14.0</ele><time>2026-05-03T12:14:19Z</time></trkpt><trkpt lat="38.10106262556652" lon="15.636594358029807"><ele>15.0</ele><time>2026-05-03T12:14:20Z</time></trkpt><trkpt lat="38.10104248068101" lon="15.63675081250048"><ele>16.0</ele><time>2026-05-03T12:14:21Z</time></trkpt><trkpt lat="38.10103607214447" lon="15.636915161306659"><ele>17.0</ele><time>2026-05-03T12:14:22Z</time></trkpt><trkpt lat="38.10101604134636" lon="15.63707306345484"><ele>17.0</ele><time>2026-05-03T12:14:23Z</time></trkpt><trkpt lat="38.10101589549733" lon="15.637239514611478"><ele>17.0</ele><time>2026-05-03T12:14:24Z</time></trkpt><trkpt lat="38.101003494096034" lon="15.637398255911382"><ele>17.0</ele><time>2026-05-03T12:14:25Z</time></trkpt><trkpt lat="38.10099671639815" lon="15.63756182534903"><ele>17.0</ele><time>2026-05-03T12:14:26Z</time></trkpt><trkpt lat="38.100991899911726" lon="15.637726559333332"><ele>16.75</ele><time>2026-05-03T12:14:27Z</time></trkpt><trkpt lat="38.10098415937591" lon="15.637891863492888"><ele>16.5</ele><time>2026-05-03T12:14:28Z</time></trkpt><trkpt lat="38.10097779543626" lon="15.638053969011139"><ele>16.25</ele><time>2026-05-03T12:14:29Z</time></trkpt><trkpt lat="38.1009743548808" lon="15.638211696727751"><ele>16.0</ele><time>2026-05-03T12:14:30Z</time></trkpt><trkpt lat="38.10097371813283" lon="15.638367582632272"><ele>16.0</ele><time>2026-05-03T12:14:31Z</time></trkpt><trkpt lat="38.1010000841588" lon="15.63852705897306"><ele>16.0</ele><time>2026-05-03T12:14:32Z</time></trkpt><trkpt lat="38.101013552032214" lon="15.638682869667049"><ele>16.0</ele><time>2026-05-03T12:14:33Z</time></trkpt><trkpt lat="38.10102632778955" lon="15.63884069990264"><ele>16.0</ele><time>2026-05-03T12:14:34Z</time></trkpt><trkpt lat="38.10103769480122" lon="15.638999909971227"><ele>16.5</ele><time>2026-05-03T12:14:35Z</time></trkpt><trkpt lat="38.10103336833739" lon="15.639152408189144"><ele>17.0</ele><time>2026-05-03T12:14:36Z</time></trkpt><trkpt lat="38.10104552872753" lon="15.639306406549423"><ele>17.5</ele><time>2026-05-03T12:14:37Z</time></trkpt><trkpt lat="38.10106248772622" lon="15.639472643225842"><ele>18.0</ele><time>2026-05-03T12:14:38Z</time></trkpt><trkpt lat="38.10107467051375" lon="15.639643588426207"><ele>18.5</ele><time>2026-05-03T12:14:39Z</time></trkpt><trkpt lat="38.1011004884867" lon="15.639797052688271"><ele>19.0</ele><time>2026-05-03T12:14:40Z</time></trkpt><trkpt lat="38.10110138838384" lon="15.63998107956492"><ele>19.5</ele><time>2026-05-03T12:14:41Z</time></trkpt><trkpt lat="38.101135174065504" lon="15.64015880869337"><ele>20.0</ele><time>2026-05-03T12:14:42Z</time></trkpt><trkpt lat="38.101153166171066" lon="15.6403178669705"><ele>20.25</ele><time>2026-05-03T12:14:43Z</time></trkpt><trkpt lat="38.10117401487842" lon="15.640450939432856"><ele>20.5</ele><time>2026-05-03T12:14:44Z</time></trkpt><trkpt lat="38.10116837563643" lon="15.640596202968016"><ele>20.75</ele><time>2026-05-03T12:14:45Z</time></trkpt><trkpt lat="38.10119491577787" lon="15.640784820655831"><ele>21.0</ele><time>2026-05-03T12:14:46Z</time></trkpt><trkpt lat="38.10120540218206" lon="15.640960583474383"><ele>21.0</ele><time>2026-05-03T12:14:47Z</time></trkpt><trkpt lat="38.10121302561402" lon="15.641124748136747"><ele>21.0</ele><time>2026-05-03T12:14:48Z</time></trkpt><trkpt lat="38.10122368997118" lon="15.641271937303857"><ele>21.0</ele><time>2026-05-03T12:14:49Z</time></trkpt><trkpt lat="38.10125084379333" lon="15.641405666554402"><ele>21.0</ele><time>2026-05-03T12:14:50Z</time></trkpt><trkpt lat="38.10126172119002" lon="15.641527323522958"><ele>21.666666666666668</ele><time>2026-05-03T12:14:51Z</time></trkpt><trkpt lat="38.101271233530305" lon="15.641633713136297"><ele>22.333333333333336</ele><time>2026-05-03T12:14:52Z</time></trkpt><trkpt lat="38.1012796574464" lon="15.641727929706665"><ele>23.0</ele><time>2026-05-03T12:14:53Z</time></trkpt><trkpt lat="38.10128827189912" lon="15.641824276805208"><ele>23.666666666666668</ele><time>2026-05-03T12:14:54Z</time></trkpt><trkpt lat="38.10129692902555" lon="15.641943498031381"><ele>24.333333333333336</ele><time>2026-05-03T12:14:55Z</time></trkpt><trkpt lat="38.101316677280884" lon="15.642082049440416"><ele>25.0</ele><time>2026-05-03T12:14:56Z</time></trkpt><trkpt lat="38.10132567644625" lon="15.642240499033447"><ele>26.5</ele><time>2026-05-03T12:14:57Z</time></trkpt><trkpt lat="38.10134838511797" lon="15.642401273879194"><ele>28.0</ele><time>2026-05-03T12:14:58Z</time></trkpt><trkpt lat="38.10134844488879" lon="15.64257566362167"><ele>29.5</ele><time>2026-05-03T12:14:59Z</time></trkpt><trkpt lat="38.101360108982355" lon="15.642757909409982"><ele>31.0</ele><time>2026-05-03T12:15:00Z</time></trkpt><trkpt lat="38.101376244770236" lon="15.642934939935886"><ele>32.333333333333336</ele><time>2026-05-03T12:15:01Z</time></trkpt><trkpt lat="38.1014047865649" lon="15.64310573099079"><ele>33.666666666666664</ele><time>2026-05-03T12:15:02Z</time></trkpt><trkpt lat="38.10142370532733" lon="15.643312327734536"><ele>35.0</ele><time>2026-05-03T12:15:03Z</time></trkpt><trkpt lat="38.10144245025001" lon="15.643517025914186"><ele>35.33333333333333</ele><time>2026-05-03T12:15:04Z</time></trkpt><trkpt lat="38.10144717956564" lon="15.643727480847065"><ele>35.666666666666664</ele><time>2026-05-03T12:15:05Z</time></trkpt><trkpt lat="38.10146495439226" lon="15.643937975831369"><ele>36.0</ele><time>2026-05-03T12:15:06Z</time></trkpt><trkpt lat="38.101484794721976" lon="15.644137647924715"><ele>36.0</ele><time>2026-05-03T12:15:07Z</time></trkpt><trkpt lat="38.10151841781363" lon="15.6443466068964"><ele>36.0</ele><time>2026-05-03T12:15:08Z</time></trkpt><trkpt lat="38.10153586195922" lon="15.644537479148141"><ele>36.0</ele><time>2026-05-03T12:15:09Z</time></trkpt><trkpt lat="38.10155266769778" lon="15.644740386504196"><ele>35.0</ele><time>2026-05-03T12:15:10Z</time></trkpt><trkpt lat="38.101564484665346" lon="15.644949245218983"><ele>34.0</ele><time>2026-05-03T12:15:11Z</time></trkpt><trkpt lat="38.10155403402466" lon="15.645190761403288"><ele>33.0</ele><time>2026-05-03T12:15:11.999Z</time></trkpt><trkpt lat="38.101564074423734" lon="15.64540113395373"><ele>33.0</ele><time>2026-05-03T12:15:12.999Z</time></trkpt><trkpt lat="38.10155714050084" lon="15.645621527546936"><ele>33.0</ele><time>2026-05-03T12:15:13.999Z</time></trkpt><trkpt lat="38.10155063708243" lon="15.645847345307796"><ele>33.0</ele><time>2026-05-03T12:15:14.999Z</time></trkpt><trkpt lat="38.101528230978126" lon="15.646075725005288"><ele>34.666666666666664</ele><time>2026-05-03T12:15:15.999Z</time></trkpt><trkpt lat="38.10152523430365" lon="15.646304733205259"><ele>36.33333333333333</ele><time>2026-05-03T12:15:16.999Z</time></trkpt><trkpt lat="38.101521394898775" lon="15.646528983663195"><ele>38.0</ele><time>2026-05-03T12:15:17.999Z</time></trkpt><trkpt lat="38.10151192631656" lon="15.646749000555975"><ele>37.0</ele><time>2026-05-03T12:15:18.999Z</time></trkpt><trkpt lat="38.10149749003881" lon="15.646969846715082"><ele>36.0</ele><time>2026-05-03T12:15:19.999Z</time></trkpt><trkpt lat="38.10147792663515" lon="15.647191491470082"><ele>35.0</ele><time>2026-05-03T12:15:20.999Z</time></trkpt><trkpt lat="38.10145129955967" lon="15.647421285481327"><ele>35.0</ele><time>2026-05-03T12:15:21.999Z</time></trkpt><trkpt lat="38.101422907962046" lon="15.647651689558748"><ele>35.0</ele><time>2026-05-03T12:15:22.999Z</time></trkpt><trkpt lat="38.10139972321568" lon="15.6478745010847"><ele>35.0</ele><time>2026-05-03T12:15:23.999Z</time></trkpt><trkpt lat="38.10137558632602" lon="15.64810236356781"><ele>36.33333333333333</ele><time>2026-05-03T12:15:24.999Z</time></trkpt><trkpt lat="38.10136598468994" lon="15.648353319638133"><ele>37.666666666666664</ele><time>2026-05-03T12:15:25.999Z</time></trkpt><trkpt lat="38.101328677575836" lon="15.648602915466443"><ele>39.0</ele><time>2026-05-03T12:15:26.999Z</time></trkpt><trkpt lat="38.10130162842756" lon="15.648855387435246"><ele>40.0</ele><time>2026-05-03T12:15:27.999Z</time></trkpt><trkpt lat="38.10127477243384" lon="15.649100018868024"><ele>41.0</ele><time>2026-05-03T12:15:28.999Z</time></trkpt><trkpt lat="38.10125022330118" lon="15.649353072850616"><ele>42.0</ele><time>2026-05-03T12:15:29.999Z</time></trkpt><trkpt lat="38.10123460056426" lon="15.64961165214691"><ele>42.0</ele><time>2026-05-03T12:15:30.999Z</time></trkpt><trkpt lat="38.10120799080343" lon="15.649858479274782"><ele>42.0</ele><time>2026-05-03T12:15:31.999Z</time></trkpt><trkpt lat="38.10116726938837" lon="15.650109016149544"><ele>42.0</ele><time>2026-05-03T12:15:32.999Z</time></trkpt><trkpt lat="38.10114148095095" lon="15.650365113463485"><ele>41.666666666666664</ele><time>2026-05-03T12:15:33.999Z</time></trkpt><trkpt lat="38.10113163935616" lon="15.650627689816924"><ele>41.33333333333333</ele><time>2026-05-03T12:15:34.999Z</time></trkpt><trkpt lat="38.101105088531895" lon="15.650890798805554"><ele>41.0</ele><time>2026-05-03T12:15:35.999Z</time></trkpt><trkpt lat="38.10107472432196" lon="15.651153637612476"><ele>42.0</ele><time>2026-05-03T12:15:36.999Z</time></trkpt><trkpt lat="38.10103155304911" lon="15.651416517354747"><ele>43.0</ele><time>2026-05-03T12:15:37.999Z</time></trkpt><trkpt lat="38.10098630316397" lon="15.651677846822098"><ele>44.0</ele><time>2026-05-03T12:15:38.999Z</time></trkpt><trkpt lat="38.10093992067867" lon="15.651939763400616"><ele>44.33333333333333</ele><time>2026-05-03T12:15:39.999Z</time></trkpt><trkpt lat="38.100893037426545" lon="15.652192429385693"><ele>44.666666666666664</ele><time>2026-05-03T12:15:40.999Z</time></trkpt><trkpt lat="38.100845244049516" lon="15.652450000528983"><ele>45.0</ele><time>2026-05-03T12:15:41.999Z</time></trkpt><trkpt lat="38.10079974492454" lon="15.652705981041931"><ele>45.333333333333336</ele><time>2026-05-03T12:15:42.999Z</time></trkpt><trkpt lat="38.1007527550129" lon="15.652964464574564"><ele>45.66666666666667</ele><time>2026-05-03T12:15:43.999Z</time></trkpt><trkpt lat="38.10069040237" lon="15.653214583559052"><ele>46.0</ele><time>2026-05-03T12:15:44.999Z</time></trkpt><trkpt lat="38.10064582673044" lon="15.65346904186716"><ele>47.0</ele><time>2026-05-03T12:15:45.999Z</time></trkpt><trkpt lat="38.10059988845484" lon="15.653730445367392"><ele>48.0</ele><time>2026-05-03T12:15:46.999Z</time></trkpt><trkpt lat="38.100553122754256" lon="15.65398872407221"><ele>49.0</ele><time>2026-05-03T12:15:47.999Z</time></trkpt><trkpt lat="38.100507376224606" lon="15.654239028683346"><ele>50.0</ele><time>2026-05-03T12:15:48.999Z</time></trkpt><trkpt lat="38.1004618186263" lon="15.654496147166642"><ele>51.0</ele><time>2026-05-03T12:15:50Z</time></trkpt><trkpt lat="38.1004112497362" lon="15.654752753797311"><ele>52.0</ele><time>2026-05-03T12:15:51Z</time></trkpt><trkpt lat="38.10037814986961" lon="15.655018133070447"><ele>52.0</ele><time>2026-05-03T12:15:52Z</time></trkpt><trkpt lat="38.10033076522384" lon="15.655277650740489"><ele>52.0</ele><time>2026-05-03T12:15:53Z</time></trkpt><trkpt lat="38.10028748719232" lon="15.655530042742306"><ele>52.0</ele><time>2026-05-03T12:15:54Z</time></trkpt><trkpt lat="38.10024380988342" lon="15.655782773510767"><ele>54.0</ele><time>2026-05-03T12:15:55Z</time></trkpt><trkpt lat="38.10016611882654" lon="15.656027868563845"><ele>56.0</ele><time>2026-05-03T12:15:56Z</time></trkpt><trkpt lat="38.10011492181459" lon="15.65628318768825"><ele>58.0</ele><time>2026-05-03T12:15:57Z</time></trkpt><trkpt lat="38.10006081866042" lon="15.656525675853215"><ele>59.33333333333333</ele><time>2026-05-03T12:15:58Z</time></trkpt><trkpt lat="38.100013057092575" lon="15.65676487899173"><ele>60.66666666666667</ele><time>2026-05-03T12:15:59Z</time></trkpt><trkpt lat="38.09996662091315" lon="15.656999005188286"><ele>62.0</ele><time>2026-05-03T12:16:00Z</time></trkpt><trkpt lat="38.09991725628055" lon="15.657248278119308"><ele>61.333333333333336</ele><time>2026-05-03T12:16:01Z</time></trkpt><trkpt lat="38.099868507909335" lon="15.657493775544575"><ele>60.66666666666667</ele><time>2026-05-03T12:16:02Z</time></trkpt><trkpt lat="38.09982681990825" lon="15.65773552663313"><ele>60.0</ele><time>2026-05-03T12:16:03Z</time></trkpt><trkpt lat="38.099804073895584" lon="15.657974107963172"><ele>62.66666666666667</ele><time>2026-05-03T12:16:04Z</time></trkpt><trkpt lat="38.099812754498394" lon="15.658210607320155"><ele>65.33333333333334</ele><time>2026-05-03T12:16:05Z</time></trkpt><trkpt lat="38.09983208355997" lon="15.658443719996708"><ele>68.0</ele><time>2026-05-03T12:16:06Z</time></trkpt><trkpt lat="38.09986392579589" lon="15.658658341853013"><ele>69.75</ele><time>2026-05-03T12:16:07Z</time></trkpt><trkpt lat="38.0998882752845" lon="15.658848073811713"><ele>71.5</ele><time>2026-05-03T12:16:08Z</time></trkpt><trkpt lat="38.09989076846695" lon="15.659019981603574"><ele>73.25</ele><time>2026-05-03T12:16:09Z</time></trkpt><trkpt lat="38.099863915938776" lon="15.659178551430557"><ele>75.0</ele><time>2026-05-03T12:16:10Z</time></trkpt><trkpt lat="38.09979561705402" lon="15.659305258116474"><ele>75.0</ele><time>2026-05-03T12:16:11Z</time></trkpt><trkpt lat="38.09969722260994" lon="15.659407276914253"><ele>75.0</ele><time>2026-05-03T12:16:12Z</time></trkpt><trkpt lat="38.09957217818435" lon="15.659448534191844"><ele>75.0</ele><time>2026-05-03T12:16:13Z</time></trkpt><trkpt lat="38.099433471151485" lon="15.65949081238147"><ele>75.0</ele><time>2026-05-03T12:16:14Z</time></trkpt><trkpt lat="38.099293608108084" lon="15.65949440015968"><ele>76.25</ele><time>2026-05-03T12:16:15Z</time></trkpt><trkpt lat="38.09915029475254" lon="15.65950450752615"><ele>77.5</ele><time>2026-05-03T12:16:16Z</time></trkpt><trkpt lat="38.09900470554157" lon="15.659513050348878"><ele>78.75</ele><time>2026-05-03T12:16:17Z</time></trkpt><trkpt lat="38.09884752905954" lon="15.659522054726473"><ele>80.0</ele><time>2026-05-03T12:16:18Z</time></trkpt><trkpt lat="38.0986923460039" lon="15.659518895007821"><ele>82.33333333333334</ele><time>2026-05-03T12:16:19Z</time></trkpt><trkpt lat="38.09850529625482" lon="15.659497635074777"><ele>84.66666666666667</ele><time>2026-05-03T12:16:20Z</time></trkpt><trkpt lat="38.0983241287151" lon="15.65948309805089"><ele>87.0</ele><time>2026-05-03T12:16:21Z</time></trkpt><trkpt lat="38.0980928965566" lon="15.65946743800554"><ele>87.0</ele><time>2026-05-03T12:16:22Z</time></trkpt><trkpt lat="38.09785490193444" lon="15.659434873609786"><ele>87.0</ele><time>2026-05-03T12:16:23Z</time></trkpt><trkpt lat="38.09760331605714" lon="15.659379927591873"><ele>91.5</ele><time>2026-05-03T12:16:24Z</time></trkpt><trkpt lat="38.09732877207884" lon="15.659293464307705"><ele>96.0</ele><time>2026-05-03T12:16:25Z</time></trkpt><trkpt lat="38.09704440902767" lon="15.659212131341738"><ele>96.0</ele><time>2026-05-03T12:16:26Z</time></trkpt><trkpt lat="38.096739921787396" lon="15.659134089708445"><ele>96.0</ele><time>2026-05-03T12:16:27Z</time></trkpt><trkpt lat="38.096410495932915" lon="15.659057371518742"><ele>97.5</ele><time>2026-05-03T12:16:28Z</time></trkpt><trkpt lat="38.09607944278288" lon="15.659006664193301"><ele>99.0</ele><time>2026-05-03T12:16:29Z</time></trkpt><trkpt lat="38.09575384821816" lon="15.658966768786895"><ele>100.5</ele><time>2026-05-03T12:16:30Z</time></trkpt><trkpt lat="38.09542652718473" lon="15.658935634468218"><ele>102.0</ele><time>2026-05-03T12:16:31Z</time></trkpt><trkpt lat="38.095085937405024" lon="15.65893509294094"><ele>101.0</ele><time>2026-05-03T12:16:32Z</time></trkpt><trkpt lat="38.094739084391456" lon="15.658976844147825"><ele>100.0</ele><time>2026-05-03T12:16:33Z</time></trkpt><trkpt lat="38.09439065169679" lon="15.659043696910388"><ele>99.5</ele><time>2026-05-03T12:16:34Z</time></trkpt><trkpt lat="38.09403729063761" lon="15.65914492318961"><ele>99.0</ele><time>2026-05-03T12:16:35Z</time></trkpt><trkpt lat="38.09368808538319" lon="15.65926094846559"><ele>99.0</ele><time>2026-05-03T12:16:36Z</time></trkpt><trkpt lat="38.093353340363535" lon="15.659393839852282"><ele>99.0</ele><time>2026-05-03T12:16:37Z</time></trkpt><trkpt lat="38.093038469024094" lon="15.659506208838845"><ele>98.5</ele><time>2026-05-03T12:16:38Z</time></trkpt><trkpt lat="38.09272686677176" lon="15.65960433419292"><ele>98.0</ele><time>2026-05-03T12:16:39Z</time></trkpt><trkpt lat="38.09243153657338" lon="15.659698816889502"><ele>96.5</ele><time>2026-05-03T12:16:40Z</time></trkpt><trkpt lat="38.09214461607811" lon="15.659806751564192"><ele>95.0</ele><time>2026-05-03T12:16:41Z</time></trkpt><trkpt lat="38.0918582512314" lon="15.659936322745727"><ele>89.0</ele><time>2026-05-03T12:16:42Z</time></trkpt><trkpt lat="38.091581090131356" lon="15.660079974319114"><ele>83.0</ele><time>2026-05-03T12:16:43Z</time></trkpt><trkpt lat="38.09129843431321" lon="15.66022961389925"><ele>83.0</ele><time>2026-05-03T12:16:44Z</time></trkpt><trkpt lat="38.091019513082905" lon="15.660397936969828"><ele>83.0</ele><time>2026-05-03T12:16:45Z</time></trkpt><trkpt lat="38.090750080511704" lon="15.660566551719565"><ele>80.5</ele><time>2026-05-03T12:16:46Z</time></trkpt><trkpt lat="38.09048666538001" lon="15.660741595151187"><ele>78.0</ele><time>2026-05-03T12:16:47Z</time></trkpt><trkpt lat="38.09022797953292" lon="15.660918283863872"><ele>78.0</ele><time>2026-05-03T12:16:48Z</time></trkpt><trkpt lat="38.08995676113537" lon="15.661099492070077"><ele>78.0</ele><time>2026-05-03T12:16:49Z</time></trkpt><trkpt lat="38.08966392838337" lon="15.661275559128265"><ele>78.0</ele><time>2026-05-03T12:16:50Z</time></trkpt><trkpt lat="38.08936245522107" lon="15.661451775472752"><ele>78.0</ele><time>2026-05-03T12:16:51Z</time></trkpt><trkpt lat="38.08905733666603" lon="15.661637020554181"><ele>75.0</ele><time>2026-05-03T12:16:52Z</time></trkpt><trkpt lat="38.08874908278893" lon="15.661832177022381"><ele>72.0</ele><time>2026-05-03T12:16:53Z</time></trkpt><trkpt lat="38.088426130653325" lon="15.66203341654361"><ele>71.0</ele><time>2026-05-03T12:16:54Z</time></trkpt><trkpt lat="38.08810599370612" lon="15.662235124254773"><ele>70.0</ele><time>2026-05-03T12:16:55Z</time></trkpt><trkpt lat="38.08778534139336" lon="15.662437710946927"><ele>70.0</ele><time>2026-05-03T12:16:56Z</time></trkpt><trkpt lat="38.08746286922557" lon="15.66264287364927"><ele>70.0</ele><time>2026-05-03T12:16:57Z</time></trkpt><trkpt lat="38.08714046091242" lon="15.66284886873751"><ele>70.5</ele><time>2026-05-03T12:16:58Z</time></trkpt><trkpt lat="38.08681887850815" lon="15.663053908281029"><ele>71.0</ele><time>2026-05-03T12:16:59Z</time></trkpt><trkpt lat="38.0864949359413" lon="15.66326012443093"><ele>71.5</ele><time>2026-05-03T12:17:00Z</time></trkpt><trkpt lat="38.08618058590581" lon="15.663461701825392"><ele>72.0</ele><time>2026-05-03T12:17:01Z</time></trkpt><trkpt lat="38.08586460747254" lon="15.663661709974882"><ele>76.5</ele><time>2026-05-03T12:17:02Z</time></trkpt><trkpt lat="38.085551920979064" lon="15.663846675137519"><ele>81.0</ele><time>2026-05-03T12:17:03Z</time></trkpt><trkpt lat="38.08523165573441" lon="15.663995869881433"><ele>79.5</ele><time>2026-05-03T12:17:04Z</time></trkpt><trkpt lat="38.08489939988324" lon="15.664115508666262"><ele>78.0</ele><time>2026-05-03T12:17:05Z</time></trkpt><trkpt lat="38.08457490938729" lon="15.664214972618293"><ele>78.0</ele><time>2026-05-03T12:17:06Z</time></trkpt><trkpt lat="38.08424291515271" lon="15.664260950924671"><ele>78.0</ele><time>2026-05-03T12:17:07Z</time></trkpt><trkpt lat="38.08390316083194" lon="15.664311494747542"><ele>76.5</ele><time>2026-05-03T12:17:08Z</time></trkpt><trkpt lat="38.0835735109082" lon="15.664333191227744"><ele>75.0</ele><time>2026-05-03T12:17:09Z</time></trkpt><trkpt lat="38.08323613385107" lon="15.664308741665462"><ele>73.0</ele><time>2026-05-03T12:17:10Z</time></trkpt><trkpt lat="38.08291010037213" lon="15.66431827999952"><ele>71.0</ele><time>2026-05-03T12:17:11Z</time></trkpt><trkpt lat="38.08259353909789" lon="15.664323789754446"><ele>70.5</ele><time>2026-05-03T12:17:12Z</time></trkpt><trkpt lat="38.08226274341034" lon="15.664336290921105"><ele>70.0</ele><time>2026-05-03T12:17:13Z</time></trkpt><trkpt lat="38.0819473914931" lon="15.66434284667755"><ele>70.0</ele><time>2026-05-03T12:17:14Z</time></trkpt><trkpt lat="38.08164414679061" lon="15.664358534871822"><ele>70.0</ele><time>2026-05-03T12:17:15Z</time></trkpt><trkpt lat="38.08134481245673" lon="15.66437722934949"><ele>69.5</ele><time>2026-05-03T12:17:16Z</time></trkpt><trkpt lat="38.081054847056926" lon="15.664391041259744"><ele>69.0</ele><time>2026-05-03T12:17:17Z</time></trkpt><trkpt lat="38.08075013943707" lon="15.664408561682485"><ele>67.0</ele><time>2026-05-03T12:17:17.999Z</time></trkpt><trkpt lat="38.08046627485213" lon="15.664408309466939"><ele>65.0</ele><time>2026-05-03T12:17:18.999Z</time></trkpt><trkpt lat="38.080189105875704" lon="15.664429403522579"><ele>63.5</ele><time>2026-05-03T12:17:19.999Z</time></trkpt><trkpt lat="38.079847726826884" lon="15.664459966186344"><ele>62.0</ele><time>2026-05-03T12:17:20.999Z</time></trkpt><trkpt lat="38.07955382435307" lon="15.664463536628059"><ele>62.0</ele><time>2026-05-03T12:17:21.999Z</time></trkpt><trkpt lat="38.07922719491948" lon="15.664490433033075"><ele>62.0</ele><time>2026-05-03T12:17:22.999Z</time></trkpt><trkpt lat="38.078906270157134" lon="15.664484139088774"><ele>63.0</ele><time>2026-05-03T12:17:23.999Z</time></trkpt><trkpt lat="38.0785785813509" lon="15.66449049686621"><ele>64.0</ele><time>2026-05-03T12:17:24.999Z</time></trkpt><trkpt lat="38.07824194632239" lon="15.664496852993228"><ele>61.5</ele><time>2026-05-03T12:17:25.999Z</time></trkpt><trkpt lat="38.07791002308921" lon="15.664510699598056"><ele>59.0</ele><time>2026-05-03T12:17:26.999Z</time></trkpt><trkpt lat="38.07758672763158" lon="15.664516817724289"><ele>54.5</ele><time>2026-05-03T12:17:27.999Z</time></trkpt><trkpt lat="38.07725827004092" lon="15.664523445816755"><ele>50.0</ele><time>2026-05-03T12:17:28.999Z</time></trkpt><trkpt lat="38.07692181091614" lon="15.664527637441848"><ele>51.0</ele><time>2026-05-03T12:17:29.999Z</time></trkpt><trkpt lat="38.076583244103695" lon="15.6644829495423"><ele>52.0</ele><time>2026-05-03T12:17:30.999Z</time></trkpt><trkpt lat="38.07624912016386" lon="15.664441872408311"><ele>52.0</ele><time>2026-05-03T12:17:31.999Z</time></trkpt><trkpt lat="38.07592269319222" lon="15.66438588000473"><ele>52.0</ele><time>2026-05-03T12:17:32.999Z</time></trkpt><trkpt lat="38.07557646369108" lon="15.66430246588565"><ele>47.0</ele><time>2026-05-03T12:17:33.999Z</time></trkpt><trkpt lat="38.07524272396584" lon="15.66420833376543"><ele>42.0</ele><time>2026-05-03T12:17:34.999Z</time></trkpt><trkpt lat="38.07490541457964" lon="15.664090584454916"><ele>39.0</ele><time>2026-05-03T12:17:35.999Z</time></trkpt><trkpt lat="38.07456263445019" lon="15.66395954578863"><ele>36.0</ele><time>2026-05-03T12:17:36.999Z</time></trkpt><trkpt lat="38.074214517294536" lon="15.663830261024735"><ele>36.0</ele><time>2026-05-03T12:17:37.999Z</time></trkpt><trkpt lat="38.07387437212391" lon="15.663709852172408"><ele>36.0</ele><time>2026-05-03T12:17:38.999Z</time></trkpt><trkpt lat="38.07353169390004" lon="15.663594395683106"><ele>34.5</ele><time>2026-05-03T12:17:39.999Z</time></trkpt><trkpt lat="38.07320705987507" lon="15.663493454162646"><ele>33.0</ele><time>2026-05-03T12:17:40.999Z</time></trkpt><trkpt lat="38.07288243675038" lon="15.66339861344523"><ele>33.0</ele><time>2026-05-03T12:17:41.999Z</time></trkpt><trkpt lat="38.072585011301115" lon="15.66331631825785"><ele>33.0</ele><time>2026-05-03T12:17:42.999Z</time></trkpt><trkpt lat="38.07226599264424" lon="15.663262707336717"><ele>33.0</ele><time>2026-05-03T12:17:43.999Z</time></trkpt><trkpt lat="38.071951309329584" lon="15.663234239711693"><ele>33.0</ele><time>2026-05-03T12:17:44.999Z</time></trkpt><trkpt lat="38.07165176143716" lon="15.663229272251632"><ele>34.5</ele><time>2026-05-03T12:17:45.999Z</time></trkpt><trkpt lat="38.071348762316966" lon="15.663228012911524"><ele>36.0</ele><time>2026-05-03T12:17:46.999Z</time></trkpt><trkpt lat="38.07105506141364" lon="15.663234492338603"><ele>36.0</ele><time>2026-05-03T12:17:48Z</time></trkpt><trkpt lat="38.070754592544056" lon="15.66323670365584"><ele>36.0</ele><time>2026-05-03T12:17:49Z</time></trkpt><trkpt lat="38.07045260354488" lon="15.66323997201481"><ele>36.0</ele><time>2026-05-03T12:17:50Z</time></trkpt><trkpt lat="38.07014062497484" lon="15.663241309638018"><ele>36.0</ele><time>2026-05-03T12:17:51Z</time></trkpt><trkpt lat="38.06982487175731" lon="15.663228483959886"><ele>36.5</ele><time>2026-05-03T12:17:52Z</time></trkpt><trkpt lat="38.06951379102546" lon="15.66321177797056"><ele>37.0</ele><time>2026-05-03T12:17:53Z</time></trkpt><trkpt lat="38.069208564194945" lon="15.663185459206737"><ele>37.5</ele><time>2026-05-03T12:17:54Z</time></trkpt><trkpt lat="38.068915323008554" lon="15.663155165167982"><ele>38.0</ele><time>2026-05-03T12:17:55Z</time></trkpt><trkpt lat="38.06863626601483" lon="15.663123709708938"><ele>38.0</ele><time>2026-05-03T12:17:56Z</time></trkpt><trkpt lat="38.06835964185247" lon="15.663091828121756"><ele>38.0</ele><time>2026-05-03T12:17:57Z</time></trkpt><trkpt lat="38.06808317019587" lon="15.663056214461927"><ele>39.5</ele><time>2026-05-03T12:17:58Z</time></trkpt><trkpt lat="38.06780470787162" lon="15.663021272321947"><ele>41.0</ele><time>2026-05-03T12:17:59Z</time></trkpt><trkpt lat="38.06752299346822" lon="15.662984912629001"><ele>41.5</ele><time>2026-05-03T12:18:00Z</time></trkpt><trkpt lat="38.067240907519356" lon="15.662948825345504"><ele>42.0</ele><time>2026-05-03T12:18:01Z</time></trkpt><trkpt lat="38.06696552150258" lon="15.662906651809113"><ele>42.0</ele><time>2026-05-03T12:18:02Z</time></trkpt><trkpt lat="38.06668606353808" lon="15.662868948435962"><ele>42.0</ele><time>2026-05-03T12:18:03Z</time></trkpt><trkpt lat="38.06640766451843" lon="15.662832336339156"><ele>42.5</ele><time>2026-05-03T12:18:04Z</time></trkpt><trkpt lat="38.06612083686958" lon="15.662794296387933"><ele>43.0</ele><time>2026-05-03T12:18:05Z</time></trkpt><trkpt lat="38.065831991356674" lon="15.662758809812876"><ele>41.5</ele><time>2026-05-03T12:18:06Z</time></trkpt><trkpt lat="38.065549611105276" lon="15.662725122927855"><ele>40.0</ele><time>2026-05-03T12:18:07Z</time></trkpt><trkpt lat="38.06526844585565" lon="15.662690265687946"><ele>40.0</ele><time>2026-05-03T12:18:08Z</time></trkpt><trkpt lat="38.06497490844967" lon="15.662657497506869"><ele>40.0</ele><time>2026-05-03T12:18:09Z</time></trkpt><trkpt lat="38.064681058930134" lon="15.662627760287114"><ele>40.5</ele><time>2026-05-03T12:18:10Z</time></trkpt><trkpt lat="38.06438399057822" lon="15.662597128206873"><ele>41.0</ele><time>2026-05-03T12:18:11Z</time></trkpt><trkpt lat="38.064088846839375" lon="15.662564878920337"><ele>39.5</ele><time>2026-05-03T12:18:12Z</time></trkpt><trkpt lat="38.06379462777852" lon="15.662521894380614"><ele>38.0</ele><time>2026-05-03T12:18:13Z</time></trkpt><trkpt lat="38.06349303977402" lon="15.662488305592317"><ele>40.0</ele><time>2026-05-03T12:18:14Z</time></trkpt><trkpt lat="38.06321235717069" lon="15.662447162712237"><ele>42.0</ele><time>2026-05-03T12:18:15Z</time></trkpt><trkpt lat="38.06292473688935" lon="15.66241790229604"><ele>42.0</ele><time>2026-05-03T12:18:16Z</time></trkpt><trkpt lat="38.06263063210023" lon="15.662389630971045"><ele>42.0</ele><time>2026-05-03T12:18:17Z</time></trkpt><trkpt lat="38.06234648094707" lon="15.66234884503297"><ele>43.0</ele><time>2026-05-03T12:18:18Z</time></trkpt><trkpt lat="38.062067246613964" lon="15.66229123219595"><ele>44.0</ele><time>2026-05-03T12:18:19Z</time></trkpt><trkpt lat="38.06180695455933" lon="15.662217983554005"><ele>46.5</ele><time>2026-05-03T12:18:20Z</time></trkpt><trkpt lat="38.06155141889423" lon="15.66213017438327"><ele>49.0</ele><time>2026-05-03T12:18:21Z</time></trkpt><trkpt lat="38.06128456805237" lon="15.662035085398681"><ele>46.0</ele><time>2026-05-03T12:18:22Z</time></trkpt><trkpt lat="38.061016507957135" lon="15.661932453234913"><ele>43.0</ele><time>2026-05-03T12:18:23Z</time></trkpt><trkpt lat="38.0607579385632" lon="15.661806658178024"><ele>43.0</ele><time>2026-05-03T12:18:24Z</time></trkpt><trkpt lat="38.06050062465963" lon="15.661691730641014"><ele>43.0</ele><time>2026-05-03T12:18:25Z</time></trkpt><trkpt lat="38.06018626925747" lon="15.661577062746476"><ele>43.0</ele><time>2026-05-03T12:18:26Z</time></trkpt><trkpt lat="38.05989678876647" lon="15.661456308553504"><ele>43.0</ele><time>2026-05-03T12:18:27Z</time></trkpt><trkpt lat="38.05960544813056" lon="15.661335584013537"><ele>43.0</ele><time>2026-05-03T12:18:28Z</time></trkpt><trkpt lat="38.05931916197711" lon="15.661216178326868"><ele>43.0</ele><time>2026-05-03T12:18:29Z</time></trkpt><trkpt lat="38.058974663150735" lon="15.661063260333366"><ele>40.5</ele><time>2026-05-03T12:18:30Z</time></trkpt><trkpt lat="38.05859749527313" lon="15.660872140222946"><ele>38.0</ele><time>2026-05-03T12:18:31Z</time></trkpt><trkpt lat="38.058260926751785" lon="15.66070600402764"><ele>38.0</ele><time>2026-05-03T12:18:32Z</time></trkpt><trkpt lat="38.05791718585246" lon="15.660520557005793"><ele>38.0</ele><time>2026-05-03T12:18:33Z</time></trkpt><trkpt lat="38.05756314426002" lon="15.660319161348093"><ele>36.5</ele><time>2026-05-03T12:18:34Z</time></trkpt><trkpt lat="38.057210426551634" lon="15.660117129141048"><ele>35.0</ele><time>2026-05-03T12:18:35Z</time></trkpt><trkpt lat="38.05685490424015" lon="15.659909916997341"><ele>36.5</ele><time>2026-05-03T12:18:36.02Z</time></trkpt><trkpt lat="38.05650487663093" lon="15.659707559331949"><ele>38.0</ele><time>2026-05-03T12:18:37.018Z</time></trkpt><trkpt lat="38.05614514737041" lon="15.65949988081072"><ele>34.0</ele><time>2026-05-03T12:18:38Z</time></trkpt><trkpt lat="38.05571458160074" lon="15.659254019588381"><ele>34.0</ele><time>2026-05-03T12:18:39Z</time></trkpt><trkpt lat="38.05538776673966" lon="15.659075630278846"><ele>34.0</ele><time>2026-05-03T12:18:40Z</time></trkpt><trkpt lat="38.055056715277935" lon="15.658870969051266"><ele>34.5</ele><time>2026-05-03T12:18:41Z</time></trkpt><trkpt lat="38.05470769647725" lon="15.658664150897797"><ele>35.0</ele><time>2026-05-03T12:18:42Z</time></trkpt><trkpt lat="38.05437710553311" lon="15.65849122834405"><ele>34.5</ele><time>2026-05-03T12:18:43Z</time></trkpt><trkpt lat="38.05403986097509" lon="15.658298720386746"><ele>34.0</ele><time>2026-05-03T12:18:44Z</time></trkpt><trkpt lat="38.05369404497182" lon="15.658099967344919"><ele>34.0</ele><time>2026-05-03T12:18:45Z</time></trkpt><trkpt lat="38.053349613023705" lon="15.657900422781962"><ele>34.0</ele><time>2026-05-03T12:18:46Z</time></trkpt><trkpt lat="38.05304211950511" lon="15.657722001150377"><ele>32.5</ele><time>2026-05-03T12:18:47Z</time></trkpt><trkpt lat="38.05279462529788" lon="15.657576648137976"><ele>31.0</ele><time>2026-05-03T12:18:48Z</time></trkpt><trkpt lat="38.052490196741374" lon="15.65738931270677"><ele>31.5</ele><time>2026-05-03T12:18:49Z</time></trkpt><trkpt lat="38.052199236117865" lon="15.657204517055517"><ele>32.0</ele><time>2026-05-03T12:18:50Z</time></trkpt><trkpt lat="38.05191936581944" lon="15.657016903049671"><ele>30.5</ele><time>2026-05-03T12:18:51Z</time></trkpt><trkpt lat="38.05165024400814" lon="15.656818759909472"><ele>29.0</ele><time>2026-05-03T12:18:52Z</time></trkpt><trkpt lat="38.051385461772185" lon="15.656627600234597"><ele>29.0</ele><time>2026-05-03T12:18:53Z</time></trkpt><trkpt lat="38.05112108183101" lon="15.656445202354469"><ele>29.0</ele><time>2026-05-03T12:18:54Z</time></trkpt><trkpt lat="38.05084070525474" lon="15.656270528977457"><ele>28.5</ele><time>2026-05-03T12:18:55Z</time></trkpt><trkpt lat="38.050569062727135" lon="15.656123452485298"><ele>28.0</ele><time>2026-05-03T12:18:56Z</time></trkpt><trkpt lat="38.050290781758356" lon="15.656015038682531"><ele>26.5</ele><time>2026-05-03T12:18:57Z</time></trkpt><trkpt lat="38.05000362615563" lon="15.655914197553834"><ele>25.0</ele><time>2026-05-03T12:18:58.001Z</time></trkpt><trkpt lat="38.04970233423264" lon="15.655826353571143"><ele>23.5</ele><time>2026-05-03T12:18:59.001Z</time></trkpt><trkpt lat="38.04939897662513" lon="15.655754229933757"><ele>22.0</ele><time>2026-05-03T12:19:00.001Z</time></trkpt><trkpt lat="38.04909975234094" lon="15.655708116298722"><ele>20.5</ele><time>2026-05-03T12:19:01.001Z</time></trkpt><trkpt lat="38.04879383722495" lon="15.655676188924488"><ele>19.0</ele><time>2026-05-03T12:19:02.001Z</time></trkpt><trkpt lat="38.048478362044705" lon="15.655673033986524"><ele>18.5</ele><time>2026-05-03T12:19:03.001Z</time></trkpt><trkpt lat="38.048176192907064" lon="15.655691619164582"><ele>18.0</ele><time>2026-05-03T12:19:04.001Z</time></trkpt><trkpt lat="38.047880748649554" lon="15.65573775222086"><ele>18.0</ele><time>2026-05-03T12:19:05.001Z</time></trkpt><trkpt lat="38.04758749635237" lon="15.655795098540457"><ele>18.0</ele><time>2026-05-03T12:19:06.001Z</time></trkpt><trkpt lat="38.04728990533254" lon="15.655868616082973"><ele>17.0</ele><time>2026-05-03T12:19:07.001Z</time></trkpt><trkpt lat="38.04697956777069" lon="15.65596198018031"><ele>16.0</ele><time>2026-05-03T12:19:08.001Z</time></trkpt><trkpt lat="38.04664338409103" lon="15.656026013961574"><ele>16.0</ele><time>2026-05-03T12:19:09.001Z</time></trkpt><trkpt lat="38.0462969858647" lon="15.656079344031607"><ele>16.0</ele><time>2026-05-03T12:19:10.001Z</time></trkpt><trkpt lat="38.045954504312576" lon="15.656146147103948"><ele>15.0</ele><time>2026-05-03T12:19:11.001Z</time></trkpt><trkpt lat="38.04563788964209" lon="15.656236762348431"><ele>14.0</ele><time>2026-05-03T12:19:12.001Z</time></trkpt><trkpt lat="38.04532805779605" lon="15.656353121721331"><ele>14.0</ele><time>2026-05-03T12:19:13.001Z</time></trkpt><trkpt lat="38.045022276964" lon="15.656495221242428"><ele>14.0</ele><time>2026-05-03T12:19:14.001Z</time></trkpt><trkpt lat="38.044728904561616" lon="15.656658520933592"><ele>13.5</ele><time>2026-05-03T12:19:15.001Z</time></trkpt><trkpt lat="38.04441600336426" lon="15.656821763047521"><ele>13.0</ele><time>2026-05-03T12:19:16.001Z</time></trkpt><trkpt lat="38.04412364718796" lon="15.656983824458544"><ele>13.0</ele><time>2026-05-03T12:19:17.001Z</time></trkpt><trkpt lat="38.043850647633434" lon="15.657148380252567"><ele>13.0</ele><time>2026-05-03T12:19:18.001Z</time></trkpt><trkpt lat="38.04356753089081" lon="15.657294020741391"><ele>11.0</ele><time>2026-05-03T12:19:19.001Z</time></trkpt><trkpt lat="38.043283852310964" lon="15.65744557345916"><ele>9.0</ele><time>2026-05-03T12:19:20.001Z</time></trkpt><trkpt lat="38.04300556198163" lon="15.657603023742828"><ele>9.0</ele><time>2026-05-03T12:19:21.001Z</time></trkpt><trkpt lat="38.04272225902186" lon="15.657759935501849"><ele>9.0</ele><time>2026-05-03T12:19:22.001Z</time></trkpt><trkpt lat="38.042439547743825" lon="15.657915887523204"><ele>10.0</ele><time>2026-05-03T12:19:23.001Z</time></trkpt><trkpt lat="38.04215699328311" lon="15.6580760943638"><ele>11.0</ele><time>2026-05-03T12:19:23.999Z</time></trkpt><trkpt lat="38.0418691070281" lon="15.65823856690181"><ele>10.0</ele><time>2026-05-03T12:19:24.999Z</time></trkpt><trkpt lat="38.041571396757035" lon="15.658398626929209"><ele>9.0</ele><time>2026-05-03T12:19:25.999Z</time></trkpt><trkpt lat="38.04127803738266" lon="15.658557976569538"><ele>11.5</ele><time>2026-05-03T12:19:26.999Z</time></trkpt><trkpt lat="38.04097838844295" lon="15.658719462868286"><ele>14.0</ele><time>2026-05-03T12:19:27.999Z</time></trkpt><trkpt lat="38.04069086686521" lon="15.65887728728034"><ele>14.0</ele><time>2026-05-03T12:19:28.999Z</time></trkpt><trkpt lat="38.040410521807516" lon="15.65902792766438"><ele>14.0</ele><time>2026-05-03T12:19:29.999Z</time></trkpt><trkpt lat="38.04014337559924" lon="15.659173731486531"><ele>12.5</ele><time>2026-05-03T12:19:30.999Z</time></trkpt><trkpt lat="38.0398871806174" lon="15.659320150058631"><ele>11.0</ele><time>2026-05-03T12:19:31.999Z</time></trkpt><trkpt lat="38.03963550678525" lon="15.659452789554102"><ele>15.0</ele><time>2026-05-03T12:19:32.999Z</time></trkpt><trkpt lat="38.03939362845275" lon="15.659555930246498"><ele>19.0</ele><time>2026-05-03T12:19:33.999Z</time></trkpt><trkpt lat="38.03914077799198" lon="15.659645240554006"><ele>18.5</ele><time>2026-05-03T12:19:34.999Z</time></trkpt><trkpt lat="38.03889854682968" lon="15.659693617746823"><ele>18.0</ele><time>2026-05-03T12:19:35.999Z</time></trkpt><trkpt lat="38.038678093705975" lon="15.659752514590016"><ele>18.0</ele><time>2026-05-03T12:19:36.999Z</time></trkpt><trkpt lat="38.038487815744375" lon="15.659743338344176"><ele>18.0</ele><time>2026-05-03T12:19:37.999Z</time></trkpt><trkpt lat="38.0382223811717" lon="15.659751934359104"><ele>16.5</ele><time>2026-05-03T12:19:38.999Z</time></trkpt><trkpt lat="38.03794613615146" lon="15.659696156154853"><ele>15.0</ele><time>2026-05-03T12:19:39.999Z</time></trkpt><trkpt lat="38.037667573331" lon="15.659631620647696"><ele>14.0</ele><time>2026-05-03T12:19:41Z</time></trkpt><trkpt lat="38.03738681769655" lon="15.659537645376792"><ele>13.0</ele><time>2026-05-03T12:19:42Z</time></trkpt><trkpt lat="38.037107293818885" lon="15.659419011394425"><ele>12.0</ele><time>2026-05-03T12:19:43Z</time></trkpt><trkpt lat="38.036812946242044" lon="15.659295324628575"><ele>11.0</ele><time>2026-05-03T12:19:44Z</time></trkpt><trkpt lat="38.036521222976106" lon="15.659179708734879"><ele>11.0</ele><time>2026-05-03T12:19:45Z</time></trkpt><trkpt lat="38.03623238911327" lon="15.659067172194282"><ele>11.0</ele><time>2026-05-03T12:19:46Z</time></trkpt><trkpt lat="38.03594327696715" lon="15.65895546850138"><ele>12.0</ele><time>2026-05-03T12:19:47Z</time></trkpt><trkpt lat="38.03566134780366" lon="15.658845031938103"><ele>13.0</ele><time>2026-05-03T12:19:48Z</time></trkpt><trkpt lat="38.0353844944645" lon="15.658733945154736"><ele>12.5</ele><time>2026-05-03T12:19:49Z</time></trkpt><trkpt lat="38.03509767267438" lon="15.65861649375373"><ele>12.0</ele><time>2026-05-03T12:19:50Z</time></trkpt><trkpt lat="38.034805164690255" lon="15.658511700747017"><ele>12.0</ele><time>2026-05-03T12:19:51Z</time></trkpt><trkpt lat="38.034516580236165" lon="15.658397058722393"><ele>12.0</ele><time>2026-05-03T12:19:52Z</time></trkpt><trkpt lat="38.03423159680483" lon="15.658287977162283"><ele>11.5</ele><time>2026-05-03T12:19:53Z</time></trkpt><trkpt lat="38.033941412115745" lon="15.658178239455214"><ele>11.0</ele><time>2026-05-03T12:19:54Z</time></trkpt><trkpt lat="38.03364722353665" lon="15.658070328470844"><ele>11.0</ele><time>2026-05-03T12:19:55Z</time></trkpt><trkpt lat="38.033357233366004" lon="15.657936745555416"><ele>11.0</ele><time>2026-05-03T12:19:56Z</time></trkpt><trkpt lat="38.0330633437469" lon="15.657813996859375"><ele>12.0</ele><time>2026-05-03T12:19:57Z</time></trkpt><trkpt lat="38.03276559391062" lon="15.657701868094566"><ele>13.0</ele><time>2026-05-03T12:19:58Z</time></trkpt><trkpt lat="38.03246703841849" lon="15.65758345555861"><ele>13.5</ele><time>2026-05-03T12:19:59Z</time></trkpt><trkpt lat="38.03216819369791" lon="15.65746609629304"><ele>14.0</ele><time>2026-05-03T12:20:00Z</time></trkpt><trkpt lat="38.03187131784166" lon="15.65734539733717"><ele>14.5</ele><time>2026-05-03T12:20:01Z</time></trkpt><trkpt lat="38.03156975491297" lon="15.657229522488722"><ele>15.0</ele><time>2026-05-03T12:20:02Z</time></trkpt><trkpt lat="38.03127008524037" lon="15.65710858933612"><ele>15.0</ele><time>2026-05-03T12:20:03Z</time></trkpt><trkpt lat="38.030974707842965" lon="15.656988626044788"><ele>15.0</ele><time>2026-05-03T12:20:04Z</time></trkpt><trkpt lat="38.03068835987877" lon="15.656873689799221"><ele>13.0</ele><time>2026-05-03T12:20:05Z</time></trkpt><trkpt lat="38.03043209393079" lon="15.656767298294874"><ele>11.0</ele><time>2026-05-03T12:20:06Z</time></trkpt><trkpt lat="38.03019037219057" lon="15.656662760705528"><ele>12.5</ele><time>2026-05-03T12:20:07Z</time></trkpt><trkpt lat="38.02994683846024" lon="15.656565021349593"><ele>14.0</ele><time>2026-05-03T12:20:08Z</time></trkpt><trkpt lat="38.02968943305753" lon="15.65646997829435"><ele>14.0</ele><time>2026-05-03T12:20:09Z</time></trkpt><trkpt lat="38.02943086733626" lon="15.656370526941647"><ele>14.0</ele><time>2026-05-03T12:20:10Z</time></trkpt><trkpt lat="38.02917127525321" lon="15.656268372439083"><ele>13.5</ele><time>2026-05-03T12:20:11Z</time></trkpt><trkpt lat="38.02890645594698" lon="15.656166150505134"><ele>13.0</ele><time>2026-05-03T12:20:12Z</time></trkpt><trkpt lat="38.028641222263445" lon="15.656044952055595"><ele>13.0</ele><time>2026-05-03T12:20:13Z</time></trkpt><trkpt lat="38.028370047171954" lon="15.655938224043604"><ele>13.0</ele><time>2026-05-03T12:20:14Z</time></trkpt><trkpt lat="38.02809628218479" lon="15.655831452941065"><ele>14.0</ele><time>2026-05-03T12:20:15Z</time></trkpt><trkpt lat="38.02781950201951" lon="15.65572534906654"><ele>15.0</ele><time>2026-05-03T12:20:16Z</time></trkpt><trkpt lat="38.02756850901617" lon="15.655630038804922"><ele>15.5</ele><time>2026-05-03T12:20:17Z</time></trkpt><trkpt lat="38.027314520083685" lon="15.655533589338921"><ele>16.0</ele><time>2026-05-03T12:20:18Z</time></trkpt><trkpt lat="38.02707807062508" lon="15.655444055988532"><ele>16.0</ele><time>2026-05-03T12:20:19Z</time></trkpt><trkpt lat="38.02685815491232" lon="15.655362342867939"><ele>16.0</ele><time>2026-05-03T12:20:20Z</time></trkpt><trkpt lat="38.02662234964416" lon="15.655275079445797"><ele>15.0</ele><time>2026-05-03T12:20:21Z</time></trkpt><trkpt lat="38.02640783226724" lon="15.655197486156"><ele>14.0</ele><time>2026-05-03T12:20:22Z</time></trkpt><trkpt lat="38.026195576836464" lon="15.655145345330181"><ele>13.0</ele><time>2026-05-03T12:20:23Z</time></trkpt><trkpt lat="38.025999186778826" lon="15.655069423311911"><ele>13.0</ele><time>2026-05-03T12:20:24Z</time></trkpt><trkpt lat="38.02581284832999" lon="15.65499755736415"><ele>13.0</ele><time>2026-05-03T12:20:25Z</time></trkpt><trkpt lat="38.02563513816222" lon="15.65492843714227"><ele>13.0</ele><time>2026-05-03T12:20:26Z</time></trkpt><trkpt lat="38.0254528668224" lon="15.654856920128482"><ele>13.0</ele><time>2026-05-03T12:20:27Z</time></trkpt><trkpt lat="38.025286933726655" lon="15.654776494522409"><ele>13.0</ele><time>2026-05-03T12:20:28Z</time></trkpt><trkpt lat="38.025126921070196" lon="15.654713776359955"><ele>13.0</ele><time>2026-05-03T12:20:29Z</time></trkpt><trkpt lat="38.02498604072405" lon="15.654652943759352"><ele>13.2</ele><time>2026-05-03T12:20:30Z</time></trkpt><trkpt lat="38.024866153257285" lon="15.65459784183638"><ele>13.4</ele><time>2026-05-03T12:20:31Z</time></trkpt><trkpt lat="38.024774300525614" lon="15.654550145132687"><ele>13.599999999999998</ele><time>2026-05-03T12:20:32Z</time></trkpt><trkpt lat="38.02468240143103" lon="15.65449775911626"><ele>13.799999999999999</ele><time>2026-05-03T12:20:33Z</time></trkpt><trkpt lat="38.024625852964505" lon="15.65445927913095"><ele>14.0</ele><time>2026-05-03T12:20:34Z</time></trkpt><trkpt lat="38.02453695446048" lon="15.654401528960639"><ele>14.0</ele><time>2026-05-03T12:20:36Z</time></trkpt><trkpt lat="38.024469076485275" lon="15.654357434130787"><ele>13.999999999999998</ele><time>2026-05-03T12:20:45.001Z</time></trkpt><trkpt lat="38.02437023723761" lon="15.654271467772613"><ele>13.999999999999998</ele><time>2026-05-03T12:20:47.001Z</time></trkpt><trkpt lat="38.02431217900526" lon="15.654201266596079"><ele>14.0</ele><time>2026-05-03T12:20:48.001Z</time></trkpt><trkpt lat="38.02424237884651" lon="15.654126039915548"><ele>14.0</ele><time>2026-05-03T12:20:49.001Z</time></trkpt><trkpt lat="38.02415282134358" lon="15.65403658343094"><ele>14.5</ele><time>2026-05-03T12:20:50.001Z</time></trkpt><trkpt lat="38.024066435141286" lon="15.653941915055036"><ele>15.0</ele><time>2026-05-03T12:20:51.001Z</time></trkpt><trkpt lat="38.0239815943382" lon="15.653828824599128"><ele>15.5</ele><time>2026-05-03T12:20:52.001Z</time></trkpt><trkpt lat="38.0238845345508" lon="15.6537013438132"><ele>16.0</ele><time>2026-05-03T12:20:53.001Z</time></trkpt><trkpt lat="38.02378671168824" lon="15.653566019743879"><ele>16.0</ele><time>2026-05-03T12:20:54.001Z</time></trkpt><trkpt lat="38.0236814388493" lon="15.653425397918477"><ele>16.0</ele><time>2026-05-03T12:20:55.001Z</time></trkpt><trkpt lat="38.02357647959784" lon="15.653270319421532"><ele>16.0</ele><time>2026-05-03T12:20:56.001Z</time></trkpt><trkpt lat="38.02347049271212" lon="15.653110478688381"><ele>16.0</ele><time>2026-05-03T12:20:57.001Z</time></trkpt><trkpt lat="38.023357676744624" lon="15.652936269333553"><ele>16.0</ele><time>2026-05-03T12:20:58.001Z</time></trkpt><trkpt lat="38.02324430897006" lon="15.65276158209138"><ele>16.0</ele><time>2026-05-03T12:20:59.001Z</time></trkpt><trkpt lat="38.02312625465253" lon="15.652577138442435"><ele>17.0</ele><time>2026-05-03T12:21:00.001Z</time></trkpt><trkpt lat="38.02300923865035" lon="15.652373074105101"><ele>18.0</ele><time>2026-05-03T12:21:01.001Z</time></trkpt><trkpt lat="38.02287911150779" lon="15.65218876946515"><ele>19.0</ele><time>2026-05-03T12:21:02.001Z</time></trkpt><trkpt lat="38.02274912572439" lon="15.651990627754136"><ele>18.333333333333332</ele><time>2026-05-03T12:21:03.001Z</time></trkpt><trkpt lat="38.02261626758441" lon="15.651789382372504"><ele>17.666666666666668</ele><time>2026-05-03T12:21:04.001Z</time></trkpt><trkpt lat="38.02249040725939" lon="15.651595285232798"><ele>17.0</ele><time>2026-05-03T12:21:05.001Z</time></trkpt><trkpt lat="38.02236850772715" lon="15.651407628907364"><ele>19.666666666666668</ele><time>2026-05-03T12:21:06.001Z</time></trkpt><trkpt lat="38.02224210591162" lon="15.651215817116972"><ele>22.333333333333336</ele><time>2026-05-03T12:21:07.001Z</time></trkpt><trkpt lat="38.02213584877721" lon="15.651043802448095"><ele>25.0</ele><time>2026-05-03T12:21:08.001Z</time></trkpt><trkpt lat="38.02202012919664" lon="15.650871162804044"><ele>25.0</ele><time>2026-05-03T12:21:09.001Z</time></trkpt><trkpt lat="38.02191612896715" lon="15.650710968257597"><ele>25.0</ele><time>2026-05-03T12:21:10.001Z</time></trkpt><trkpt lat="38.02181697659845" lon="15.650546906525937"><ele>25.0</ele><time>2026-05-03T12:21:11.001Z</time></trkpt><trkpt lat="38.02171955274366" lon="15.650396738971391"><ele>24.25</ele><time>2026-05-03T12:21:12.001Z</time></trkpt><trkpt lat="38.02164196867295" lon="15.65024146945916"><ele>23.5</ele><time>2026-05-03T12:21:13.001Z</time></trkpt><trkpt lat="38.021546734628586" lon="15.650100698224378"><ele>22.75</ele><time>2026-05-03T12:21:14.001Z</time></trkpt><trkpt lat="38.021461022980105" lon="15.649965611366365"><ele>22.0</ele><time>2026-05-03T12:21:15.001Z</time></trkpt><trkpt lat="38.021381068250584" lon="15.649821063971446"><ele>22.0</ele><time>2026-05-03T12:21:16.001Z</time></trkpt><trkpt lat="38.02130002091957" lon="15.649679312990717"><ele>22.0</ele><time>2026-05-03T12:21:17.001Z</time></trkpt><trkpt lat="38.02128306632483" lon="15.649593410787993"><ele>22.0</ele><time>2026-05-03T12:21:18.001Z</time></trkpt><trkpt lat="38.02129858674749" lon="15.649480863226056"><ele>22.0</ele><time>2026-05-03T12:21:19.001Z</time></trkpt><trkpt lat="38.021311164865544" lon="15.649372868028868"><ele>22.0</ele><time>2026-05-03T12:21:20.001Z</time></trkpt><trkpt lat="38.02127978890095" lon="15.64926035945407"><ele>21.75</ele><time>2026-05-03T12:21:21.001Z</time></trkpt><trkpt lat="38.0211959026629" lon="15.649177438260244"><ele>21.5</ele><time>2026-05-03T12:21:22.001Z</time></trkpt><trkpt lat="38.02106956581687" lon="15.649139368625137"><ele>21.25</ele><time>2026-05-03T12:21:23.001Z</time></trkpt><trkpt lat="38.020944790436296" lon="15.649110265464735"><ele>21.0</ele><time>2026-05-03T12:21:24.001Z</time></trkpt><trkpt lat="38.020842181615215" lon="15.649051466021701"><ele>21.666666666666668</ele><time>2026-05-03T12:21:25.001Z</time></trkpt><trkpt lat="38.02073526560097" lon="15.648871349800064"><ele>22.333333333333336</ele><time>2026-05-03T12:21:26.001Z</time></trkpt><trkpt lat="38.020620729404236" lon="15.648687460238808"><ele>23.0</ele><time>2026-05-03T12:21:27.001Z</time></trkpt><trkpt lat="38.020500122591386" lon="15.64849588847069"><ele>21.666666666666668</ele><time>2026-05-03T12:21:28.001Z</time></trkpt><trkpt lat="38.020389211736905" lon="15.648301019233536"><ele>20.333333333333332</ele><time>2026-05-03T12:21:29.001Z</time></trkpt><trkpt lat="38.0202444883228" lon="15.648091521402932"><ele>19.0</ele><time>2026-05-03T12:21:30Z</time></trkpt><trkpt lat="38.020105143439835" lon="15.647871719142062"><ele>18.5</ele><time>2026-05-03T12:21:31Z</time></trkpt><trkpt lat="38.01995198650191" lon="15.647641721409387"><ele>18.0</ele><time>2026-05-03T12:21:32Z</time></trkpt><trkpt lat="38.01979820606306" lon="15.647409342010963"><ele>18.0</ele><time>2026-05-03T12:21:33Z</time></trkpt><trkpt lat="38.01963926869204" lon="15.647164677807671"><ele>18.0</ele><time>2026-05-03T12:21:34Z</time></trkpt><trkpt lat="38.01947721977829" lon="15.646913383694503"><ele>17.5</ele><time>2026-05-03T12:21:35Z</time></trkpt><trkpt lat="38.01931104070792" lon="15.646650137349656"><ele>17.0</ele><time>2026-05-03T12:21:36Z</time></trkpt><trkpt lat="38.019148209672025" lon="15.646387204542844"><ele>19.0</ele><time>2026-05-03T12:21:37Z</time></trkpt><trkpt lat="38.01898869080087" lon="15.646122502955423"><ele>21.0</ele><time>2026-05-03T12:21:38Z</time></trkpt><trkpt lat="38.01883936497406" lon="15.64585435195452"><ele>21.0</ele><time>2026-05-03T12:21:39Z</time></trkpt><trkpt lat="38.018698185241355" lon="15.645566866764687"><ele>21.0</ele><time>2026-05-03T12:21:40Z</time></trkpt><trkpt lat="38.01858276961742" lon="15.645280499694847"><ele>21.5</ele><time>2026-05-03T12:21:41Z</time></trkpt><trkpt lat="38.01843607057933" lon="15.645022623348316"><ele>22.0</ele><time>2026-05-03T12:21:42Z</time></trkpt><trkpt lat="38.01832879604361" lon="15.644703523888651"><ele>21.5</ele><time>2026-05-03T12:21:43Z</time></trkpt><trkpt lat="38.01821993258593" lon="15.64438054229053"><ele>21.0</ele><time>2026-05-03T12:21:44Z</time></trkpt><trkpt lat="38.018114085956775" lon="15.644065875854468"><ele>21.0</ele><time>2026-05-03T12:21:45Z</time></trkpt><trkpt lat="38.01800647108743" lon="15.643760245143566"><ele>21.0</ele><time>2026-05-03T12:21:46Z</time></trkpt><trkpt lat="38.01793213503231" lon="15.643436397223972"><ele>18.0</ele><time>2026-05-03T12:21:47Z</time></trkpt><trkpt lat="38.0178140871235" lon="15.643147142273188"><ele>15.0</ele><time>2026-05-03T12:21:48Z</time></trkpt><trkpt lat="38.01772259688175" lon="15.642835375576894"><ele>13.5</ele><time>2026-05-03T12:21:49Z</time></trkpt><trkpt lat="38.01760547881338" lon="15.642536330041098"><ele>12.0</ele><time>2026-05-03T12:21:50Z</time></trkpt><trkpt lat="38.01750080798237" lon="15.64223384446375"><ele>14.5</ele><time>2026-05-03T12:21:51Z</time></trkpt><trkpt lat="38.01739047252443" lon="15.641927621516292"><ele>17.0</ele><time>2026-05-03T12:21:52Z</time></trkpt><trkpt lat="38.017284027934885" lon="15.641621237278251"><ele>17.0</ele><time>2026-05-03T12:21:53Z</time></trkpt><trkpt lat="38.01717974036952" lon="15.641317761928475"><ele>17.0</ele><time>2026-05-03T12:21:54Z</time></trkpt><trkpt lat="38.017078505151716" lon="15.641015683847353"><ele>16.0</ele><time>2026-05-03T12:21:55Z</time></trkpt><trkpt lat="38.01697897020764" lon="15.640719826200963"><ele>15.0</ele><time>2026-05-03T12:21:56Z</time></trkpt><trkpt lat="38.01687892761305" lon="15.640431583245652"><ele>12.0</ele><time>2026-05-03T12:21:57Z</time></trkpt><trkpt lat="38.01677420182871" lon="15.640148625190996"><ele>9.0</ele><time>2026-05-03T12:21:58Z</time></trkpt><trkpt lat="38.01666559234875" lon="15.639871253123177"><ele>13.5</ele><time>2026-05-03T12:21:59Z</time></trkpt><trkpt lat="38.01654726258779" lon="15.639605524483915"><ele>18.0</ele><time>2026-05-03T12:22:00Z</time></trkpt><trkpt lat="38.01640874452071" lon="15.639347052015124"><ele>18.0</ele><time>2026-05-03T12:22:01Z</time></trkpt><trkpt lat="38.01624944211099" lon="15.639112977526096"><ele>18.0</ele><time>2026-05-03T12:22:02Z</time></trkpt><trkpt lat="38.01607704035531" lon="15.638908701741"><ele>18.0</ele><time>2026-05-03T12:22:03Z</time></trkpt><trkpt lat="38.015901826562" lon="15.638750855345133"><ele>18.0</ele><time>2026-05-03T12:22:04Z</time></trkpt><trkpt lat="38.01573759429431" lon="15.638613059938816"><ele>18.0</ele><time>2026-05-03T12:22:05Z</time></trkpt><trkpt lat="38.0155957761756" lon="15.63850142932175"><ele>17.75</ele><time>2026-05-03T12:22:06Z</time></trkpt><trkpt lat="38.01547779583951" lon="15.638399076784378"><ele>17.5</ele><time>2026-05-03T12:22:07Z</time></trkpt><trkpt lat="38.01537717763698" lon="15.6382801750414"><ele>17.25</ele><time>2026-05-03T12:22:08Z</time></trkpt><trkpt lat="38.01531887213179" lon="15.638148333886036"><ele>17.0</ele><time>2026-05-03T12:22:09Z</time></trkpt><trkpt lat="38.015247485192404" lon="15.63805604411275"><ele>17.0</ele><time>2026-05-03T12:22:10Z</time></trkpt><trkpt lat="38.015148231499886" lon="15.638038750886901"><ele>17.0</ele><time>2026-05-03T12:22:11Z</time></trkpt><trkpt lat="38.015036653378964" lon="15.638107378670856"><ele>17.0</ele><time>2026-05-03T12:22:12Z</time></trkpt><trkpt lat="38.01492350284624" lon="15.638239270231187"><ele>17.0</ele><time>2026-05-03T12:22:13Z</time></trkpt><trkpt lat="38.014806298475925" lon="15.638302496646"><ele>17.666666666666668</ele><time>2026-05-03T12:22:14Z</time></trkpt><trkpt lat="38.01462023162811" lon="15.638349601931276"><ele>18.333333333333332</ele><time>2026-05-03T12:22:15Z</time></trkpt><trkpt lat="38.014395282382885" lon="15.638394302268933"><ele>19.0</ele><time>2026-05-03T12:22:16Z</time></trkpt><trkpt lat="38.01417609703427" lon="15.638448409580832"><ele>17.5</ele><time>2026-05-03T12:22:17Z</time></trkpt><trkpt lat="38.01394734202201" lon="15.638504757221709"><ele>16.0</ele><time>2026-05-03T12:22:18Z</time></trkpt><trkpt lat="38.01371943451894" lon="15.638580443187985"><ele>16.0</ele><time>2026-05-03T12:22:19Z</time></trkpt><trkpt lat="38.01347686522723" lon="15.638664765694264"><ele>16.0</ele><time>2026-05-03T12:22:20Z</time></trkpt><trkpt lat="38.0132219903962" lon="15.63874803321151"><ele>16.0</ele><time>2026-05-03T12:22:21Z</time></trkpt><trkpt lat="38.01296956128966" lon="15.638829019625872"><ele>16.0</ele><time>2026-05-03T12:22:22Z</time></trkpt><trkpt lat="38.01270506443738" lon="15.638914138749351"><ele>17.0</ele><time>2026-05-03T12:22:23.001Z</time></trkpt><trkpt lat="38.01243328515938" lon="15.63900842497322"><ele>18.0</ele><time>2026-05-03T12:22:24.001Z</time></trkpt><trkpt lat="38.01215454962153" lon="15.639101162848934"><ele>18.0</ele><time>2026-05-03T12:22:25.001Z</time></trkpt><trkpt lat="38.01187434050132" lon="15.639199927240126"><ele>18.0</ele><time>2026-05-03T12:22:26.001Z</time></trkpt><trkpt lat="38.01158713263695" lon="15.63929847696115"><ele>18.5</ele><time>2026-05-03T12:22:27.001Z</time></trkpt><trkpt lat="38.011297283034935" lon="15.63940006294575"><ele>19.0</ele><time>2026-05-03T12:22:28.001Z</time></trkpt><trkpt lat="38.01100646631768" lon="15.639501552377443"><ele>23.5</ele><time>2026-05-03T12:22:29.001Z</time></trkpt><trkpt lat="38.0107024284427" lon="15.639587442992909"><ele>28.0</ele><time>2026-05-03T12:22:30.001Z</time></trkpt><trkpt lat="38.01041218905292" lon="15.639691606899609"><ele>28.0</ele><time>2026-05-03T12:22:31.001Z</time></trkpt><trkpt lat="38.01011562744368" lon="15.639791765721254"><ele>28.0</ele><time>2026-05-03T12:22:32.001Z</time></trkpt><trkpt lat="38.00980640387348" lon="15.639898623602686"><ele>26.0</ele><time>2026-05-03T12:22:33.001Z</time></trkpt><trkpt lat="38.00953800960817" lon="15.63997857928113"><ele>24.0</ele><time>2026-05-03T12:22:34.001Z</time></trkpt><trkpt lat="38.009263048361895" lon="15.640074636541199"><ele>20.5</ele><time>2026-05-03T12:22:35.001Z</time></trkpt><trkpt lat="38.008972179472636" lon="15.640178735795097"><ele>17.0</ele><time>2026-05-03T12:22:36.001Z</time></trkpt><trkpt lat="38.00868519484551" lon="15.640282776874134"><ele>20.5</ele><time>2026-05-03T12:22:37.001Z</time></trkpt><trkpt lat="38.00839627379494" lon="15.6403814469446"><ele>24.0</ele><time>2026-05-03T12:22:38.001Z</time></trkpt><trkpt lat="38.00811010582911" lon="15.640478331093686"><ele>24.0</ele><time>2026-05-03T12:22:39.001Z</time></trkpt><trkpt lat="38.00781445523955" lon="15.64056477382106"><ele>24.0</ele><time>2026-05-03T12:22:40.001Z</time></trkpt><trkpt lat="38.00753802167633" lon="15.640674816320447"><ele>22.5</ele><time>2026-05-03T12:22:41.001Z</time></trkpt><trkpt lat="38.00726005491709" lon="15.640771268078524"><ele>21.0</ele><time>2026-05-03T12:22:42.001Z</time></trkpt><trkpt lat="38.00698782776496" lon="15.640876867057527"><ele>21.0</ele><time>2026-05-03T12:22:43.001Z</time></trkpt><trkpt lat="38.00669840033248" lon="15.640968642544468"><ele>21.0</ele><time>2026-05-03T12:22:44.001Z</time></trkpt><trkpt lat="38.00641471456533" lon="15.641067372148678"><ele>25.5</ele><time>2026-05-03T12:22:45.001Z</time></trkpt><trkpt lat="38.00612794791305" lon="15.641173150603734"><ele>30.0</ele><time>2026-05-03T12:22:46.001Z</time></trkpt><trkpt lat="38.005849021913754" lon="15.641280172271317"><ele>28.0</ele><time>2026-05-03T12:22:47.001Z</time></trkpt><trkpt lat="38.00555713474225" lon="15.641380887683578"><ele>26.0</ele><time>2026-05-03T12:22:48.001Z</time></trkpt><trkpt lat="38.00527597671721" lon="15.641485251629991"><ele>26.0</ele><time>2026-05-03T12:22:49.001Z</time></trkpt><trkpt lat="38.00499187443038" lon="15.641584121445442"><ele>26.0</ele><time>2026-05-03T12:22:50.001Z</time></trkpt><trkpt lat="38.00469282971761" lon="15.641684354632755"><ele>26.0</ele><time>2026-05-03T12:22:51.001Z</time></trkpt><trkpt lat="38.004398933705865" lon="15.641782524336113"><ele>26.0</ele><time>2026-05-03T12:22:52.001Z</time></trkpt><trkpt lat="38.00411038859534" lon="15.641883938737237"><ele>29.0</ele><time>2026-05-03T12:22:53.001Z</time></trkpt><trkpt lat="38.00381617006461" lon="15.641982234754314"><ele>32.0</ele><time>2026-05-03T12:22:54.001Z</time></trkpt><trkpt lat="38.003517652105614" lon="15.64207893862675"><ele>28.0</ele><time>2026-05-03T12:22:55.001Z</time></trkpt><trkpt lat="38.00322634889856" lon="15.642153129666996"><ele>24.0</ele><time>2026-05-03T12:22:56.001Z</time></trkpt><trkpt lat="38.002945793042535" lon="15.64226355611085"><ele>24.0</ele><time>2026-05-03T12:22:57.001Z</time></trkpt><trkpt lat="38.002643992883684" lon="15.642366892362237"><ele>24.0</ele><time>2026-05-03T12:22:58.001Z</time></trkpt><trkpt lat="38.00234137351406" lon="15.64247032270097"><ele>22.0</ele><time>2026-05-03T12:22:59.001Z</time></trkpt><trkpt lat="38.002049716664885" lon="15.642563647436559"><ele>20.0</ele><time>2026-05-03T12:23:00.001Z</time></trkpt><trkpt lat="38.00175163119363" lon="15.642659067459956"><ele>20.5</ele><time>2026-05-03T12:23:01.001Z</time></trkpt><trkpt lat="38.00145959154667" lon="15.642752460613801"><ele>21.0</ele><time>2026-05-03T12:23:02.001Z</time></trkpt><trkpt lat="38.001167994309284" lon="15.642849079942376"><ele>21.0</ele><time>2026-05-03T12:23:03.001Z</time></trkpt><trkpt lat="38.00087736944943" lon="15.642952877531126"><ele>21.0</ele><time>2026-05-03T12:23:04.001Z</time></trkpt><trkpt lat="38.00059041828819" lon="15.643053847151736"><ele>20.0</ele><time>2026-05-03T12:23:05.001Z</time></trkpt><trkpt lat="38.00030491521422" lon="15.643156711038694"><ele>19.0</ele><time>2026-05-03T12:23:06.001Z</time></trkpt><trkpt lat="38.000017641789576" lon="15.643263731485513"><ele>19.0</ele><time>2026-05-03T12:23:07.001Z</time></trkpt><trkpt lat="37.99973919623033" lon="15.64338518425453"><ele>19.0</ele><time>2026-05-03T12:23:08.001Z</time></trkpt><trkpt lat="37.99946035786438" lon="15.64353356102604"><ele>21.5</ele><time>2026-05-03T12:23:09.001Z</time></trkpt><trkpt lat="37.99919683285935" lon="15.643686982373293"><ele>24.0</ele><time>2026-05-03T12:23:10.001Z</time></trkpt><trkpt lat="37.99893034253707" lon="15.643860964773557"><ele>24.0</ele><time>2026-05-03T12:23:11.001Z</time></trkpt><trkpt lat="37.99866558024571" lon="15.644040034952322"><ele>24.0</ele><time>2026-05-03T12:23:12.001Z</time></trkpt><trkpt lat="37.9983983980816" lon="15.64422051635516"><ele>24.0</ele><time>2026-05-03T12:23:13.001Z</time></trkpt><trkpt lat="37.99813170086101" lon="15.6444064146999"><ele>24.0</ele><time>2026-05-03T12:23:14.001Z</time></trkpt><trkpt lat="37.997864662414486" lon="15.644593788450539"><ele>24.0</ele><time>2026-05-03T12:23:15.001Z</time></trkpt><trkpt lat="37.997595379920924" lon="15.644780558304879"><ele>24.0</ele><time>2026-05-03T12:23:16.001Z</time></trkpt><trkpt lat="37.997332140201394" lon="15.644963174141285"><ele>23.5</ele><time>2026-05-03T12:23:17.001Z</time></trkpt><trkpt lat="37.997065122929584" lon="15.645144576244402"><ele>23.0</ele><time>2026-05-03T12:23:18.001Z</time></trkpt><trkpt lat="37.99679969925741" lon="15.645326166914849"><ele>21.0</ele><time>2026-05-03T12:23:19.001Z</time></trkpt><trkpt lat="37.996535659242454" lon="15.645512657336239"><ele>19.0</ele><time>2026-05-03T12:23:20.001Z</time></trkpt><trkpt lat="37.99626894631947" lon="15.645695194436573"><ele>19.0</ele><time>2026-05-03T12:23:21.001Z</time></trkpt><trkpt lat="37.9960026507485" lon="15.64588265611428"><ele>19.0</ele><time>2026-05-03T12:23:22.001Z</time></trkpt><trkpt lat="37.99573758621245" lon="15.646068789182161"><ele>19.5</ele><time>2026-05-03T12:23:23.001Z</time></trkpt><trkpt lat="37.99546780934144" lon="15.646253744969728"><ele>20.0</ele><time>2026-05-03T12:23:24.001Z</time></trkpt><trkpt lat="37.995201088508885" lon="15.646436204852048"><ele>18.5</ele><time>2026-05-03T12:23:25.001Z</time></trkpt><trkpt lat="37.99492787478304" lon="15.646616397771794"><ele>17.0</ele><time>2026-05-03T12:23:26.001Z</time></trkpt><trkpt lat="37.99465965697662" lon="15.6468009618786"><ele>19.5</ele><time>2026-05-03T12:23:27.001Z</time></trkpt><trkpt lat="37.99438429777322" lon="15.64698629816642"><ele>22.0</ele><time>2026-05-03T12:23:28.001Z</time></trkpt><trkpt lat="37.99411925232825" lon="15.647167904963332"><ele>22.0</ele><time>2026-05-03T12:23:29.001Z</time></trkpt><trkpt lat="37.99385977621654" lon="15.647357184290962"><ele>22.0</ele><time>2026-05-03T12:23:30.001Z</time></trkpt><trkpt lat="37.99359391200399" lon="15.647547317252819"><ele>21.5</ele><time>2026-05-03T12:23:31.002Z</time></trkpt><trkpt lat="37.993326455810795" lon="15.647732148879458"><ele>21.0</ele><time>2026-05-03T12:23:32.002Z</time></trkpt><trkpt lat="37.99305707906779" lon="15.647917024749074"><ele>24.0</ele><time>2026-05-03T12:23:33.002Z</time></trkpt><trkpt lat="37.99279206475033" lon="15.648104653652391"><ele>27.0</ele><time>2026-05-03T12:23:34.002Z</time></trkpt><trkpt lat="37.99252775131777" lon="15.648289674609009"><ele>25.5</ele><time>2026-05-03T12:23:35.002Z</time></trkpt><trkpt lat="37.99226698185834" lon="15.648463154271633"><ele>24.0</ele><time>2026-05-03T12:23:36.001Z</time></trkpt><trkpt lat="37.99199184734343" lon="15.648655530819969"><ele>25.0</ele><time>2026-05-03T12:23:37.001Z</time></trkpt><trkpt lat="37.99171829080604" lon="15.648845911038514"><ele>26.0</ele><time>2026-05-03T12:23:38.001Z</time></trkpt><trkpt lat="37.991457829732845" lon="15.649027030527737"><ele>26.0</ele><time>2026-05-03T12:23:39.001Z</time></trkpt><trkpt lat="37.99120167336621" lon="15.649238681276943"><ele>26.0</ele><time>2026-05-03T12:23:40.001Z</time></trkpt><trkpt lat="37.99093503214183" lon="15.649426452463754"><ele>26.0</ele><time>2026-05-03T12:23:41.001Z</time></trkpt><trkpt lat="37.99066699407211" lon="15.649604472861858"><ele>26.0</ele><time>2026-05-03T12:23:42.001Z</time></trkpt><trkpt lat="37.99039455282283" lon="15.649772426316023"><ele>26.0</ele><time>2026-05-03T12:23:43.001Z</time></trkpt><trkpt lat="37.99012494470698" lon="15.649943285287314"><ele>26.0</ele><time>2026-05-03T12:23:44.001Z</time></trkpt><trkpt lat="37.98985898644599" lon="15.650121455669817"><ele>24.0</ele><time>2026-05-03T12:23:45.001Z</time></trkpt><trkpt lat="37.989596111430345" lon="15.650306123159961"><ele>22.0</ele><time>2026-05-03T12:23:46.001Z</time></trkpt><trkpt lat="37.98933693436722" lon="15.650487270313569"><ele>19.5</ele><time>2026-05-03T12:23:47.001Z</time></trkpt><trkpt lat="37.98907247860056" lon="15.650670809751992"><ele>17.0</ele><time>2026-05-03T12:23:48.001Z</time></trkpt><trkpt lat="37.98881435245309" lon="15.650857611515566"><ele>17.0</ele><time>2026-05-03T12:23:49.001Z</time></trkpt><trkpt lat="37.98854614572425" lon="15.651046169436755"><ele>17.0</ele><time>2026-05-03T12:23:50.001Z</time></trkpt><trkpt lat="37.98828152217753" lon="15.651214351077956"><ele>18.5</ele><time>2026-05-03T12:23:51.001Z</time></trkpt><trkpt lat="37.988033180584104" lon="15.651398929216368"><ele>20.0</ele><time>2026-05-03T12:23:52.001Z</time></trkpt><trkpt lat="37.98776729788886" lon="15.651592126099146"><ele>16.5</ele><time>2026-05-03T12:23:53.001Z</time></trkpt><trkpt lat="37.987503021372305" lon="15.651748183777116"><ele>13.0</ele><time>2026-05-03T12:23:54.001Z</time></trkpt><trkpt lat="37.98724517429179" lon="15.651929098589575"><ele>15.5</ele><time>2026-05-03T12:23:55.001Z</time></trkpt><trkpt lat="37.98698505874438" lon="15.652101703629205"><ele>18.0</ele><time>2026-05-03T12:23:56.001Z</time></trkpt><trkpt lat="37.986731435717" lon="15.652280874248534"><ele>16.0</ele><time>2026-05-03T12:23:57.001Z</time></trkpt><trkpt lat="37.98648450965225" lon="15.652471309037914"><ele>14.0</ele><time>2026-05-03T12:23:58.001Z</time></trkpt><trkpt lat="37.98625316329745" lon="15.652673090778492"><ele>14.0</ele><time>2026-05-03T12:23:59.001Z</time></trkpt><trkpt lat="37.98604153372823" lon="15.652884824550657"><ele>14.0</ele><time>2026-05-03T12:24:00.001Z</time></trkpt><trkpt lat="37.98584334107054" lon="15.653084628168642"><ele>14.0</ele><time>2026-05-03T12:24:01.001Z</time></trkpt><trkpt lat="37.98565319776058" lon="15.6532683763812"><ele>14.0</ele><time>2026-05-03T12:24:02.001Z</time></trkpt><trkpt lat="37.98546339344636" lon="15.653443731637745"><ele>14.0</ele><time>2026-05-03T12:24:03.001Z</time></trkpt><trkpt lat="37.9852943866411" lon="15.653612222515967"><ele>14.0</ele><time>2026-05-03T12:24:04.001Z</time></trkpt><trkpt lat="37.98512302359968" lon="15.653772109343883"><ele>14.0</ele><time>2026-05-03T12:24:05.001Z</time></trkpt><trkpt lat="37.98495795811298" lon="15.653922502749088"><ele>14.0</ele><time>2026-05-03T12:24:06.001Z</time></trkpt><trkpt lat="37.98479870461194" lon="15.654062866788676"><ele>14.0</ele><time>2026-05-03T12:24:07.001Z</time></trkpt><trkpt lat="37.98464094834922" lon="15.654175084707266"><ele>14.0</ele><time>2026-05-03T12:24:08.001Z</time></trkpt><trkpt lat="37.98447066160715" lon="15.654275909624127"><ele>14.0</ele><time>2026-05-03T12:24:09.001Z</time></trkpt><trkpt lat="37.984317194776935" lon="15.654384917623997"><ele>14.0</ele><time>2026-05-03T12:24:10.001Z</time></trkpt><trkpt lat="37.98414695183928" lon="15.65450399418648"><ele>14.0</ele><time>2026-05-03T12:24:11.001Z</time></trkpt><trkpt lat="37.983968244777074" lon="15.654624471278847"><ele>15.0</ele><time>2026-05-03T12:24:12.001Z</time></trkpt><trkpt lat="37.983788086278516" lon="15.654754527044481"><ele>16.0</ele><time>2026-05-03T12:24:13.001Z</time></trkpt><trkpt lat="37.98360571504465" lon="15.65489481436333"><ele>17.0</ele><time>2026-05-03T12:24:14.001Z</time></trkpt><trkpt lat="37.98342137911089" lon="15.655013050027218"><ele>16.666666666666668</ele><time>2026-05-03T12:24:15.001Z</time></trkpt><trkpt lat="37.98325157523201" lon="15.655138773562294"><ele>16.333333333333332</ele><time>2026-05-03T12:24:16.001Z</time></trkpt><trkpt lat="37.983108727934216" lon="15.655295551753216"><ele>16.0</ele><time>2026-05-03T12:24:17.001Z</time></trkpt><trkpt lat="37.98297415917803" lon="15.655435405129051"><ele>16.0</ele><time>2026-05-03T12:24:18.001Z</time></trkpt><trkpt lat="37.98285519934977" lon="15.655581594819614"><ele>16.0</ele><time>2026-05-03T12:24:19.001Z</time></trkpt><trkpt lat="37.98273481428679" lon="15.65570684174565"><ele>16.0</ele><time>2026-05-03T12:24:20.001Z</time></trkpt><trkpt lat="37.982616751191436" lon="15.655823205744943"><ele>16.0</ele><time>2026-05-03T12:24:21.001Z</time></trkpt><trkpt lat="37.98250345008629" lon="15.655930019916548"><ele>16.0</ele><time>2026-05-03T12:24:22.001Z</time></trkpt><trkpt lat="37.98238977814353" lon="15.656025045991365"><ele>16.0</ele><time>2026-05-03T12:24:23.001Z</time></trkpt><trkpt lat="37.982276249121966" lon="15.65610316882763"><ele>16.0</ele><time>2026-05-03T12:24:24.001Z</time></trkpt><trkpt lat="37.982151526150915" lon="15.65617455282076"><ele>16.0</ele><time>2026-05-03T12:24:25.001Z</time></trkpt><trkpt lat="37.98204645287575" lon="15.65629335161313"><ele>16.0</ele><time>2026-05-03T12:24:26.001Z</time></trkpt><trkpt lat="37.98195613633827" lon="15.656464285373259"><ele>16.0</ele><time>2026-05-03T12:24:27.001Z</time></trkpt><trkpt lat="37.98184950086225" lon="15.656631162919249"><ele>16.0</ele><time>2026-05-03T12:24:28.001Z</time></trkpt><trkpt lat="37.981718147398446" lon="15.65678508172224"><ele>16.0</ele><time>2026-05-03T12:24:29.001Z</time></trkpt><trkpt lat="37.98157139368932" lon="15.656952943664692"><ele>16.0</ele><time>2026-05-03T12:24:30.001Z</time></trkpt><trkpt lat="37.98141771875037" lon="15.657118476452919"><ele>15.666666666666666</ele><time>2026-05-03T12:24:31.001Z</time></trkpt><trkpt lat="37.981262352949535" lon="15.65728978269202"><ele>15.333333333333332</ele><time>2026-05-03T12:24:32.001Z</time></trkpt><trkpt lat="37.98109466372664" lon="15.657464526665146"><ele>15.0</ele><time>2026-05-03T12:24:33.001Z</time></trkpt><trkpt lat="37.98092114364928" lon="15.657632720406605"><ele>14.666666666666668</ele><time>2026-05-03T12:24:34.001Z</time></trkpt><trkpt lat="37.98073465617485" lon="15.657801708565732"><ele>14.333333333333334</ele><time>2026-05-03T12:24:35.001Z</time></trkpt><trkpt lat="37.980557929929475" lon="15.657965098643961"><ele>14.0</ele><time>2026-05-03T12:24:36.001Z</time></trkpt><trkpt lat="37.98038805339328" lon="15.658202065286261"><ele>14.0</ele><time>2026-05-03T12:24:37.001Z</time></trkpt><trkpt lat="37.980225319049374" lon="15.658431702153438"><ele>14.0</ele><time>2026-05-03T12:24:38.001Z</time></trkpt><trkpt lat="37.980066319878794" lon="15.658671884997627"><ele>12.0</ele><time>2026-05-03T12:24:39.001Z</time></trkpt><trkpt lat="37.979913609870394" lon="15.65891698937378"><ele>10.0</ele><time>2026-05-03T12:24:40.001Z</time></trkpt><trkpt lat="37.97975889791389" lon="15.659168573554666"><ele>10.0</ele><time>2026-05-03T12:24:41.001Z</time></trkpt><trkpt lat="37.97959793784127" lon="15.659404762428109"><ele>10.0</ele><time>2026-05-03T12:24:42.001Z</time></trkpt><trkpt lat="37.97944191918154" lon="15.65964647250882"><ele>11.0</ele><time>2026-05-03T12:24:43.001Z</time></trkpt><trkpt lat="37.97924678320039" lon="15.659860461077521"><ele>12.0</ele><time>2026-05-03T12:24:44.001Z</time></trkpt><trkpt lat="37.97903975767655" lon="15.66005189447087"><ele>12.5</ele><time>2026-05-03T12:24:45.001Z</time></trkpt><trkpt lat="37.97882475063864" lon="15.660238242903239"><ele>13.0</ele><time>2026-05-03T12:24:46.001Z</time></trkpt><trkpt lat="37.97858985360326" lon="15.660389263934182"><ele>13.0</ele><time>2026-05-03T12:24:47.001Z</time></trkpt><trkpt lat="37.97835654138214" lon="15.660549725907188"><ele>13.0</ele><time>2026-05-03T12:24:48.001Z</time></trkpt><trkpt lat="37.97812315871788" lon="15.660695436777482"><ele>13.0</ele><time>2026-05-03T12:24:49.001Z</time></trkpt><trkpt lat="37.9778871965689" lon="15.66084270638997"><ele>13.0</ele><time>2026-05-03T12:24:50.001Z</time></trkpt><trkpt lat="37.97764903775931" lon="15.660990771681378"><ele>13.5</ele><time>2026-05-03T12:24:51.001Z</time></trkpt><trkpt lat="37.97742188315683" lon="15.661143287559387"><ele>14.0</ele><time>2026-05-03T12:24:52.001Z</time></trkpt><trkpt lat="37.97720507662243" lon="15.661283076528063"><ele>14.0</ele><time>2026-05-03T12:24:53.001Z</time></trkpt><trkpt lat="37.97700300413812" lon="15.661421166278933"><ele>14.0</ele><time>2026-05-03T12:24:54.001Z</time></trkpt><trkpt lat="37.9768027408337" lon="15.661548881536314"><ele>14.0</ele><time>2026-05-03T12:24:55.001Z</time></trkpt><trkpt lat="37.97661564508028" lon="15.661670899758008"><ele>14.0</ele><time>2026-05-03T12:24:56.001Z</time></trkpt><trkpt lat="37.97643689883529" lon="15.661789846629983"><ele>14.0</ele><time>2026-05-03T12:24:57.001Z</time></trkpt><trkpt lat="37.97626873887218" lon="15.66190794898166"><ele>14.333333333333334</ele><time>2026-05-03T12:24:58.001Z</time></trkpt><trkpt lat="37.976111828760764" lon="15.662011094627776"><ele>14.666666666666668</ele><time>2026-05-03T12:24:59.001Z</time></trkpt><trkpt lat="37.97595888900183" lon="15.66210275017142"><ele>15.0</ele><time>2026-05-03T12:25:00.001Z</time></trkpt><trkpt lat="37.975815933370484" lon="15.662177013303708"><ele>15.0</ele><time>2026-05-03T12:25:01.001Z</time></trkpt><trkpt lat="37.975676023965775" lon="15.662232835362905"><ele>15.0</ele><time>2026-05-03T12:25:02.001Z</time></trkpt><trkpt lat="37.97555098867152" lon="15.662240434342577"><ele>15.0</ele><time>2026-05-03T12:25:03.001Z</time></trkpt><trkpt lat="37.975436430024864" lon="15.662192788633156"><ele>15.0</ele><time>2026-05-03T12:25:04.001Z</time></trkpt><trkpt lat="37.975338075725176" lon="15.662112750261057"><ele>15.0</ele><time>2026-05-03T12:25:05.001Z</time></trkpt><trkpt lat="37.97523225313848" lon="15.662087488871945"><ele>15.0</ele><time>2026-05-03T12:25:06.001Z</time></trkpt><trkpt lat="37.97513973792922" lon="15.662176643869552"><ele>15.0</ele><time>2026-05-03T12:25:07.001Z</time></trkpt><trkpt lat="37.97504877795883" lon="15.662298693281885"><ele>15.0</ele><time>2026-05-03T12:25:08.001Z</time></trkpt><trkpt lat="37.97493617155545" lon="15.6623905626737"><ele>15.0</ele><time>2026-05-03T12:25:09.001Z</time></trkpt><trkpt lat="37.974786989699155" lon="15.662400758407443"><ele>15.0</ele><time>2026-05-03T12:25:10.001Z</time></trkpt><trkpt lat="37.97462367388115" lon="15.662443891468753"><ele>15.0</ele><time>2026-05-03T12:25:11.001Z</time></trkpt><trkpt lat="37.97445056918389" lon="15.662465979568948"><ele>15.0</ele><time>2026-05-03T12:25:12.001Z</time></trkpt><trkpt lat="37.9742717654327" lon="15.66250197546174"><ele>15.0</ele><time>2026-05-03T12:25:13.001Z</time></trkpt><trkpt lat="37.97407976131604" lon="15.662555877001708"><ele>15.0</ele><time>2026-05-03T12:25:14.001Z</time></trkpt><trkpt lat="37.973886162180314" lon="15.662628735296444"><ele>14.666666666666668</ele><time>2026-05-03T12:25:15.001Z</time></trkpt><trkpt lat="37.973686216494876" lon="15.662722647058258"><ele>14.333333333333334</ele><time>2026-05-03T12:25:16.002Z</time></trkpt><trkpt lat="37.97349036862853" lon="15.662846777348761"><ele>14.0</ele><time>2026-05-03T12:25:17.002Z</time></trkpt><trkpt lat="37.97329848527229" lon="15.662994144168211"><ele>14.0</ele><time>2026-05-03T12:25:18.002Z</time></trkpt><trkpt lat="37.97311517733764" lon="15.663180376712289"><ele>14.0</ele><time>2026-05-03T12:25:19.002Z</time></trkpt><trkpt lat="37.972931283740735" lon="15.663366663404867"><ele>14.0</ele><time>2026-05-03T12:25:20.002Z</time></trkpt><trkpt lat="37.97274510347808" lon="15.663568346262773"><ele>14.0</ele><time>2026-05-03T12:25:21.002Z</time></trkpt><trkpt lat="37.97256043401033" lon="15.663774781043417"><ele>12.5</ele><time>2026-05-03T12:25:22.002Z</time></trkpt><trkpt lat="37.97237562732763" lon="15.663988436421052"><ele>11.0</ele><time>2026-05-03T12:25:23.002Z</time></trkpt><trkpt lat="37.97218999124954" lon="15.664199434574398"><ele>11.0</ele><time>2026-05-03T12:25:24.002Z</time></trkpt><trkpt lat="37.9720022334141" lon="15.664410018850267"><ele>11.0</ele><time>2026-05-03T12:25:25.002Z</time></trkpt><trkpt lat="37.97181189667538" lon="15.664623179802557"><ele>12.5</ele><time>2026-05-03T12:25:26.002Z</time></trkpt><trkpt lat="37.971619929307145" lon="15.66483745095471"><ele>14.0</ele><time>2026-05-03T12:25:27.002Z</time></trkpt><trkpt lat="37.97142822132595" lon="15.665054662148721"><ele>14.0</ele><time>2026-05-03T12:25:28.002Z</time></trkpt><trkpt lat="37.97124587382551" lon="15.665263665455916"><ele>14.0</ele><time>2026-05-03T12:25:29.002Z</time></trkpt><trkpt lat="37.97105770396214" lon="15.665488675884632"><ele>14.0</ele><time>2026-05-03T12:25:30.002Z</time></trkpt><trkpt lat="37.97086224767276" lon="15.66569055663158"><ele>14.0</ele><time>2026-05-03T12:25:31.002Z</time></trkpt><trkpt lat="37.9706582946469" lon="15.665923686364769"><ele>16.0</ele><time>2026-05-03T12:25:32.002Z</time></trkpt><trkpt lat="37.97047146392031" lon="15.666142297045708"><ele>18.0</ele><time>2026-05-03T12:25:33.002Z</time></trkpt><trkpt lat="37.97028011599026" lon="15.66634910626076"><ele>18.0</ele><time>2026-05-03T12:25:34.002Z</time></trkpt><trkpt lat="37.970089847595304" lon="15.666563629725482"><ele>18.0</ele><time>2026-05-03T12:25:35.002Z</time></trkpt><trkpt lat="37.969901694010176" lon="15.666783672730485"><ele>16.5</ele><time>2026-05-03T12:25:36.002Z</time></trkpt><trkpt lat="37.96970471098138" lon="15.666994600486817"><ele>15.0</ele><time>2026-05-03T12:25:37.002Z</time></trkpt><trkpt lat="37.96952500723204" lon="15.667212914637064"><ele>15.0</ele><time>2026-05-03T12:25:38.002Z</time></trkpt><trkpt lat="37.969339892570844" lon="15.66742415330565"><ele>15.0</ele><time>2026-05-03T12:25:39.002Z</time></trkpt><trkpt lat="37.96915341429796" lon="15.667641051784544"><ele>16.5</ele><time>2026-05-03T12:25:40.002Z</time></trkpt><trkpt lat="37.96897502496056" lon="15.667848531150668"><ele>18.0</ele><time>2026-05-03T12:25:41.002Z</time></trkpt><trkpt lat="37.968787181998884" lon="15.668054785377159"><ele>18.0</ele><time>2026-05-03T12:25:42.001Z</time></trkpt><trkpt lat="37.96860425853723" lon="15.668261887081101"><ele>18.0</ele><time>2026-05-03T12:25:43.001Z</time></trkpt><trkpt lat="37.96842096496997" lon="15.668477903492326"><ele>18.0</ele><time>2026-05-03T12:25:44.001Z</time></trkpt><trkpt lat="37.968235063262775" lon="15.668684590155125"><ele>18.0</ele><time>2026-05-03T12:25:45.001Z</time></trkpt><trkpt lat="37.968057607592826" lon="15.668878048613232"><ele>18.0</ele><time>2026-05-03T12:25:46.001Z</time></trkpt><trkpt lat="37.967853812772546" lon="15.66907893626023"><ele>18.0</ele><time>2026-05-03T12:25:47.001Z</time></trkpt><trkpt lat="37.96765564355764" lon="15.669257736791003"><ele>18.5</ele><time>2026-05-03T12:25:48.001Z</time></trkpt><trkpt lat="37.967443612796416" lon="15.669440975683363"><ele>19.0</ele><time>2026-05-03T12:25:49.001Z</time></trkpt><trkpt lat="37.96723452989497" lon="15.669619768517364"><ele>19.0</ele><time>2026-05-03T12:25:50.001Z</time></trkpt><trkpt lat="37.96701004296762" lon="15.66977573421556"><ele>19.0</ele><time>2026-05-03T12:25:51.001Z</time></trkpt><trkpt lat="37.96678653133867" lon="15.669933827828755"><ele>16.0</ele><time>2026-05-03T12:25:52.001Z</time></trkpt><trkpt lat="37.96655947465507" lon="15.670088882648617"><ele>13.0</ele><time>2026-05-03T12:25:53.001Z</time></trkpt><trkpt lat="37.966328061385276" lon="15.670243077624935"><ele>12.5</ele><time>2026-05-03T12:25:54.001Z</time></trkpt><trkpt lat="37.966094553941495" lon="15.670407438569386"><ele>12.0</ele><time>2026-05-03T12:25:55Z</time></trkpt><trkpt lat="37.96585537950463" lon="15.6705863695832"><ele>12.0</ele><time>2026-05-03T12:25:56Z</time></trkpt><trkpt lat="37.96563308547556" lon="15.670730967277688"><ele>12.0</ele><time>2026-05-03T12:25:57Z</time></trkpt><trkpt lat="37.96540162522608" lon="15.670892502994388"><ele>12.0</ele><time>2026-05-03T12:25:58Z</time></trkpt><trkpt lat="37.96517249287875" lon="15.67104951779501"><ele>12.0</ele><time>2026-05-03T12:25:59Z</time></trkpt><trkpt lat="37.964941941274354" lon="15.671213384917879"><ele>13.5</ele><time>2026-05-03T12:26:00Z</time></trkpt><trkpt lat="37.964722437476695" lon="15.671378506810749"><ele>15.0</ele><time>2026-05-03T12:26:01Z</time></trkpt><trkpt lat="37.96449071001957" lon="15.671539342161436"><ele>15.0</ele><time>2026-05-03T12:26:02Z</time></trkpt><trkpt lat="37.96426300572147" lon="15.671694440879707"><ele>15.0</ele><time>2026-05-03T12:26:03Z</time></trkpt><trkpt lat="37.964027695668356" lon="15.671848032919657"><ele>14.5</ele><time>2026-05-03T12:26:04Z</time></trkpt><trkpt lat="37.963790993490534" lon="15.671990724362534"><ele>14.0</ele><time>2026-05-03T12:26:05Z</time></trkpt><trkpt lat="37.96357019764271" lon="15.672159138282431"><ele>13.5</ele><time>2026-05-03T12:26:06.001Z</time></trkpt><trkpt lat="37.96334409913883" lon="15.67231384835309"><ele>13.0</ele><time>2026-05-03T12:26:07.001Z</time></trkpt><trkpt lat="37.9631151979893" lon="15.672473569686193"><ele>13.0</ele><time>2026-05-03T12:26:08.001Z</time></trkpt><trkpt lat="37.96289051610163" lon="15.672629668459441"><ele>13.0</ele><time>2026-05-03T12:26:09.001Z</time></trkpt><trkpt lat="37.9626649518217" lon="15.672781945969943"><ele>14.0</ele><time>2026-05-03T12:26:10.001Z</time></trkpt><trkpt lat="37.96243942323885" lon="15.67293347320393"><ele>15.0</ele><time>2026-05-03T12:26:11.001Z</time></trkpt><trkpt lat="37.96221405242024" lon="15.673079077856073"><ele>15.0</ele><time>2026-05-03T12:26:12.001Z</time></trkpt><trkpt lat="37.96198564338015" lon="15.673214066700819"><ele>15.0</ele><time>2026-05-03T12:26:13.001Z</time></trkpt><trkpt lat="37.96176316083953" lon="15.673332163437092"><ele>15.0</ele><time>2026-05-03T12:26:14.001Z</time></trkpt><trkpt lat="37.96152580828616" lon="15.673464227629257"><ele>15.0</ele><time>2026-05-03T12:26:15.001Z</time></trkpt><trkpt lat="37.96129760256012" lon="15.673596602616493"><ele>16.0</ele><time>2026-05-03T12:26:16.001Z</time></trkpt><trkpt lat="37.961070706201916" lon="15.673742020647545"><ele>17.0</ele><time>2026-05-03T12:26:17.001Z</time></trkpt><trkpt lat="37.96084717477109" lon="15.673877912112994"><ele>17.0</ele><time>2026-05-03T12:26:18.001Z</time></trkpt><trkpt lat="37.960615230459595" lon="15.674018332688044"><ele>17.0</ele><time>2026-05-03T12:26:19.001Z</time></trkpt><trkpt lat="37.96038707786029" lon="15.674156531213864"><ele>17.0</ele><time>2026-05-03T12:26:20.001Z</time></trkpt><trkpt lat="37.96016185473799" lon="15.67429487803685"><ele>17.0</ele><time>2026-05-03T12:26:21.001Z</time></trkpt><trkpt lat="37.95993306893606" lon="15.674445693675011"><ele>19.0</ele><time>2026-05-03T12:26:22.001Z</time></trkpt><trkpt lat="37.95971323129169" lon="15.67459311794845"><ele>21.0</ele><time>2026-05-03T12:26:23.001Z</time></trkpt><trkpt lat="37.959486433750364" lon="15.67475363421887"><ele>21.0</ele><time>2026-05-03T12:26:24.001Z</time></trkpt><trkpt lat="37.959263202094604" lon="15.67491222883384"><ele>21.0</ele><time>2026-05-03T12:26:25.001Z</time></trkpt><trkpt lat="37.959039531910946" lon="15.675075261293347"><ele>22.5</ele><time>2026-05-03T12:26:26.001Z</time></trkpt><trkpt lat="37.958816883068586" lon="15.67524625806677"><ele>24.0</ele><time>2026-05-03T12:26:27.001Z</time></trkpt><trkpt lat="37.95860445704758" lon="15.67542585528043"><ele>24.0</ele><time>2026-05-03T12:26:28.001Z</time></trkpt><trkpt lat="37.958388164244475" lon="15.675604611719438"><ele>24.0</ele><time>2026-05-03T12:26:29.001Z</time></trkpt><trkpt lat="37.95816448884647" lon="15.675781832714282"><ele>21.0</ele><time>2026-05-03T12:26:30.001Z</time></trkpt><trkpt lat="37.95794488490758" lon="15.675958510120719"><ele>18.0</ele><time>2026-05-03T12:26:31.001Z</time></trkpt><trkpt lat="37.95773020167816" lon="15.676136343792066"><ele>19.0</ele><time>2026-05-03T12:26:32.001Z</time></trkpt><trkpt lat="37.95751166190323" lon="15.676322815384689"><ele>20.0</ele><time>2026-05-03T12:26:33.001Z</time></trkpt><trkpt lat="37.95729354581369" lon="15.67650362949356"><ele>20.0</ele><time>2026-05-03T12:26:34.001Z</time></trkpt><trkpt lat="37.957082219987356" lon="15.676679252581645"><ele>20.0</ele><time>2026-05-03T12:26:35.001Z</time></trkpt><trkpt lat="37.95686416218189" lon="15.676856776992405"><ele>23.5</ele><time>2026-05-03T12:26:36.001Z</time></trkpt><trkpt lat="37.95665127035759" lon="15.67703444018347"><ele>27.0</ele><time>2026-05-03T12:26:37.001Z</time></trkpt><trkpt lat="37.9564356055287" lon="15.677221633597211"><ele>27.0</ele><time>2026-05-03T12:26:38.001Z</time></trkpt><trkpt lat="37.95623179038274" lon="15.67736950317366"><ele>27.0</ele><time>2026-05-03T12:26:39.001Z</time></trkpt><trkpt lat="37.95602151174058" lon="15.677501080558564"><ele>27.0</ele><time>2026-05-03T12:26:40.001Z</time></trkpt><trkpt lat="37.955805282532005" lon="15.67761336169307"><ele>27.0</ele><time>2026-05-03T12:26:41.001Z</time></trkpt><trkpt lat="37.95559857872495" lon="15.677685027979367"><ele>27.0</ele><time>2026-05-03T12:26:42.001Z</time></trkpt><trkpt lat="37.955391409016386" lon="15.677734269667923"><ele>27.0</ele><time>2026-05-03T12:26:43.001Z</time></trkpt><trkpt lat="37.95517638785667" lon="15.677728367275792"><ele>27.0</ele><time>2026-05-03T12:26:44.001Z</time></trkpt><trkpt lat="37.954979433545155" lon="15.677791325739785"><ele>27.0</ele><time>2026-05-03T12:26:45.001Z</time></trkpt><trkpt lat="37.95479325415674" lon="15.677925453051385"><ele>33.666666666666664</ele><time>2026-05-03T12:26:46.001Z</time></trkpt><trkpt lat="37.95462790758746" lon="15.678098434993313"><ele>40.33333333333333</ele><time>2026-05-03T12:26:47.001Z</time></trkpt><trkpt lat="37.95447292572712" lon="15.678296980214025"><ele>47.0</ele><time>2026-05-03T12:26:48.001Z</time></trkpt><trkpt lat="37.95431641613694" lon="15.678489290962425"><ele>47.33333333333333</ele><time>2026-05-03T12:26:49.001Z</time></trkpt><trkpt lat="37.95415779682846" lon="15.678681571906678"><ele>47.666666666666664</ele><time>2026-05-03T12:26:50.001Z</time></trkpt><trkpt lat="37.95403059382893" lon="15.678915840343365"><ele>48.0</ele><time>2026-05-03T12:26:51.001Z</time></trkpt><trkpt lat="37.95393642079079" lon="15.679170317021828"><ele>48.0</ele><time>2026-05-03T12:26:52.001Z</time></trkpt><trkpt lat="37.95385820197111" lon="15.67943333331369"><ele>48.0</ele><time>2026-05-03T12:26:53.001Z</time></trkpt><trkpt lat="37.95377224110844" lon="15.679680944782355"><ele>48.0</ele><time>2026-05-03T12:26:54.001Z</time></trkpt><trkpt lat="37.95368629340857" lon="15.679907915653837"><ele>54.33333333333333</ele><time>2026-05-03T12:26:55.001Z</time></trkpt><trkpt lat="37.953622089339305" lon="15.68014553759548"><ele>60.666666666666664</ele><time>2026-05-03T12:26:56.001Z</time></trkpt><trkpt lat="37.95357154291846" lon="15.680382167718193"><ele>67.0</ele><time>2026-05-03T12:26:57.001Z</time></trkpt><trkpt lat="37.95353458430506" lon="15.680627609963217"><ele>67.66666666666666</ele><time>2026-05-03T12:26:58.001Z</time></trkpt><trkpt lat="37.95354717614305" lon="15.680875017611816"><ele>68.33333333333333</ele><time>2026-05-03T12:26:59.001Z</time></trkpt><trkpt lat="37.95359365889744" lon="15.681120918010796"><ele>69.0</ele><time>2026-05-03T12:27:00.001Z</time></trkpt><trkpt lat="37.953623566191425" lon="15.681345499698299"><ele>67.33333333333333</ele><time>2026-05-03T12:27:01.001Z</time></trkpt><trkpt lat="37.95362262216218" lon="15.681573997280006"><ele>65.66666666666666</ele><time>2026-05-03T12:27:02.001Z</time></trkpt><trkpt lat="37.95358259125691" lon="15.681780988815165"><ele>64.0</ele><time>2026-05-03T12:27:03.001Z</time></trkpt><trkpt lat="37.953396209340205" lon="15.682002016710822"><ele>55.666666666666664</ele><time>2026-05-03T12:27:04.001Z</time></trkpt><trkpt lat="37.953254695770035" lon="15.682217281828857"><ele>47.33333333333333</ele><time>2026-05-03T12:27:05.001Z</time></trkpt><trkpt lat="37.95313394962515" lon="15.682445931156957"><ele>39.0</ele><time>2026-05-03T12:27:06.001Z</time></trkpt><trkpt lat="37.95302457722319" lon="15.68269333649127"><ele>42.0</ele><time>2026-05-03T12:27:07.001Z</time></trkpt><trkpt lat="37.95289481603786" lon="15.682925022873702"><ele>45.0</ele><time>2026-05-03T12:27:08.001Z</time></trkpt><trkpt lat="37.95277187886575" lon="15.683161645195144"><ele>48.0</ele><time>2026-05-03T12:27:09.001Z</time></trkpt><trkpt lat="37.95265162706681" lon="15.683406296488265"><ele>40.0</ele><time>2026-05-03T12:27:10.001Z</time></trkpt><trkpt lat="37.952530311100816" lon="15.683645225317468"><ele>32.0</ele><time>2026-05-03T12:27:11.001Z</time></trkpt><trkpt lat="37.95241694857406" lon="15.683893434105274"><ele>32.0</ele><time>2026-05-03T12:27:12.001Z</time></trkpt><trkpt lat="37.95231850752607" lon="15.684161903115363"><ele>32.0</ele><time>2026-05-03T12:27:13.001Z</time></trkpt><trkpt lat="37.95223446214087" lon="15.684457225555327"><ele>36.0</ele><time>2026-05-03T12:27:14.001Z</time></trkpt><trkpt lat="37.95223040391196" lon="15.684737598702325"><ele>40.0</ele><time>2026-05-03T12:27:15.001Z</time></trkpt><trkpt lat="37.95219075328952" lon="15.685008003956302"><ele>44.0</ele><time>2026-05-03T12:27:16.001Z</time></trkpt><trkpt lat="37.95215051316496" lon="15.685294234804331"><ele>45.5</ele><time>2026-05-03T12:27:17.014Z</time></trkpt><trkpt lat="37.95211598149074" lon="15.68559229948336"><ele>47.0</ele><time>2026-05-03T12:27:18.021Z</time></trkpt><trkpt lat="37.9520868629214" lon="15.68590538132832"><ele>39.5</ele><time>2026-05-03T12:27:19.02Z</time></trkpt><trkpt lat="37.95205841067299" lon="15.686211160227057"><ele>32.0</ele><time>2026-05-03T12:27:20.001Z</time></trkpt><trkpt lat="37.952346495280686" lon="15.686716557943654"><ele>27.0</ele><time>2026-05-03T12:27:21.001Z</time></trkpt><trkpt lat="37.952348923270506" lon="15.687067177663263"><ele>22.0</ele><time>2026-05-03T12:27:22.001Z</time></trkpt><trkpt lat="37.95235908744087" lon="15.687406251157798"><ele>22.0</ele><time>2026-05-03T12:27:23.001Z</time></trkpt><trkpt lat="37.95237463786891" lon="15.687753325171876"><ele>22.0</ele><time>2026-05-03T12:27:24.001Z</time></trkpt><trkpt lat="37.95239108666337" lon="15.688101739512247"><ele>20.5</ele><time>2026-05-03T12:27:25.001Z</time></trkpt><trkpt lat="37.952404096654504" lon="15.68845978227663"><ele>19.0</ele><time>2026-05-03T12:27:26.001Z</time></trkpt><trkpt lat="37.952407703491716" lon="15.688811360951691"><ele>16.0</ele><time>2026-05-03T12:27:27.001Z</time></trkpt><trkpt lat="37.95240265596247" lon="15.689167777052731"><ele>13.0</ele><time>2026-05-03T12:27:28.001Z</time></trkpt><trkpt lat="37.95237704345379" lon="15.689521025296646"><ele>12.0</ele><time>2026-05-03T12:27:29.001Z</time></trkpt><trkpt lat="37.952327717278926" lon="15.689871856261377"><ele>11.0</ele><time>2026-05-03T12:27:30.001Z</time></trkpt><trkpt lat="37.95224975959562" lon="15.690214445584118"><ele>11.0</ele><time>2026-05-03T12:27:31.001Z</time></trkpt><trkpt lat="37.95214929892717" lon="15.690551931469601"><ele>11.0</ele><time>2026-05-03T12:27:32.001Z</time></trkpt><trkpt lat="37.95204517445559" lon="15.690870098696665"><ele>13.5</ele><time>2026-05-03T12:27:33.001Z</time></trkpt><trkpt lat="37.95192018048195" lon="15.691188337949399"><ele>16.0</ele><time>2026-05-03T12:27:34.001Z</time></trkpt><trkpt lat="37.951810049414235" lon="15.691507768013233"><ele>13.5</ele><time>2026-05-03T12:27:35.001Z</time></trkpt><trkpt lat="37.95170453615658" lon="15.691820553355157"><ele>11.0</ele><time>2026-05-03T12:27:36.001Z</time></trkpt><trkpt lat="37.95160857071301" lon="15.692134994458508"><ele>11.0</ele><time>2026-05-03T12:27:37.001Z</time></trkpt><trkpt lat="37.95150949122856" lon="15.692450893647862"><ele>11.0</ele><time>2026-05-03T12:27:38.001Z</time></trkpt><trkpt lat="37.951411620592424" lon="15.692761591678654"><ele>10.0</ele><time>2026-05-03T12:27:39.001Z</time></trkpt><trkpt lat="37.95130822954473" lon="15.693073605911959"><ele>9.0</ele><time>2026-05-03T12:27:40.001Z</time></trkpt><trkpt lat="37.95120837600539" lon="15.6933842331238"><ele>8.5</ele><time>2026-05-03T12:27:41.001Z</time></trkpt><trkpt lat="37.9511059865797" lon="15.693701615777968"><ele>8.0</ele><time>2026-05-03T12:27:42.001Z</time></trkpt><trkpt lat="37.95100607479332" lon="15.694011376980693"><ele>8.0</ele><time>2026-05-03T12:27:43.001Z</time></trkpt><trkpt lat="37.950906056235986" lon="15.694328771215421"><ele>8.0</ele><time>2026-05-03T12:27:44.001Z</time></trkpt><trkpt lat="37.9508034131551" lon="15.694634385682031"><ele>7.5</ele><time>2026-05-03T12:27:45.001Z</time></trkpt><trkpt lat="37.95069633382693" lon="15.694941744766355"><ele>7.0</ele><time>2026-05-03T12:27:46.001Z</time></trkpt><trkpt lat="37.95059312036865" lon="15.69524510542615"><ele>8.5</ele><time>2026-05-03T12:27:47.002Z</time></trkpt><trkpt lat="37.950492218161195" lon="15.695547291607136"><ele>10.0</ele><time>2026-05-03T12:27:48Z</time></trkpt><trkpt lat="37.95037756493054" lon="15.69583894680229"><ele>11.0</ele><time>2026-05-03T12:27:49Z</time></trkpt><trkpt lat="37.950242332822434" lon="15.696122985196434"><ele>12.0</ele><time>2026-05-03T12:27:50Z</time></trkpt><trkpt lat="37.950089944744526" lon="15.69639269857507"><ele>10.5</ele><time>2026-05-03T12:27:51Z</time></trkpt><trkpt lat="37.949932127822386" lon="15.696659338580428"><ele>9.0</ele><time>2026-05-03T12:27:52Z</time></trkpt><trkpt lat="37.9497562011238" lon="15.696916460965534"><ele>9.0</ele><time>2026-05-03T12:27:53Z</time></trkpt><trkpt lat="37.94956707736473" lon="15.697147718080602"><ele>9.0</ele><time>2026-05-03T12:27:54Z</time></trkpt><trkpt lat="37.949381258599814" lon="15.697370107041639"><ele>9.0</ele><time>2026-05-03T12:27:55Z</time></trkpt><trkpt lat="37.94920480217583" lon="15.69758680645856"><ele>9.0</ele><time>2026-05-03T12:27:56Z</time></trkpt><trkpt lat="37.949028107966335" lon="15.697817086839352"><ele>9.0</ele><time>2026-05-03T12:27:57Z</time></trkpt><trkpt lat="37.948843699715106" lon="15.698053089810825"><ele>9.0</ele><time>2026-05-03T12:27:58Z</time></trkpt><trkpt lat="37.948664604884456" lon="15.698283846739736"><ele>9.0</ele><time>2026-05-03T12:27:59Z</time></trkpt><trkpt lat="37.94848496034996" lon="15.698513085933046"><ele>9.0</ele><time>2026-05-03T12:28:00Z</time></trkpt><trkpt lat="37.94830283592686" lon="15.698740545951752"><ele>8.0</ele><time>2026-05-03T12:28:01Z</time></trkpt><trkpt lat="37.9481144242819" lon="15.698966453230774"><ele>7.0</ele><time>2026-05-03T12:28:02Z</time></trkpt><trkpt lat="37.947928014888745" lon="15.699196501948864"><ele>8.5</ele><time>2026-05-03T12:28:03Z</time></trkpt><trkpt lat="37.9477465725605" lon="15.699424105813959"><ele>10.0</ele><time>2026-05-03T12:28:04Z</time></trkpt><trkpt lat="37.947562252538" lon="15.699654642217821"><ele>9.5</ele><time>2026-05-03T12:28:05Z</time></trkpt><trkpt lat="37.94738006779861" lon="15.699889152150913"><ele>9.0</ele><time>2026-05-03T12:28:06Z</time></trkpt><trkpt lat="37.94719512957085" lon="15.700124703339087"><ele>12.0</ele><time>2026-05-03T12:28:07Z</time></trkpt><trkpt lat="37.94701462715918" lon="15.700359533466107"><ele>15.0</ele><time>2026-05-03T12:28:08Z</time></trkpt><trkpt lat="37.94683586581902" lon="15.700602895956354"><ele>13.0</ele><time>2026-05-03T12:28:09Z</time></trkpt><trkpt lat="37.94665741645212" lon="15.7008434264136"><ele>11.0</ele><time>2026-05-03T12:28:10Z</time></trkpt><trkpt lat="37.94647925360974" lon="15.701081845529593"><ele>13.0</ele><time>2026-05-03T12:28:11Z</time></trkpt><trkpt lat="37.946294623650196" lon="15.701320104477483"><ele>15.0</ele><time>2026-05-03T12:28:12Z</time></trkpt><trkpt lat="37.94611713927709" lon="15.701564595545099"><ele>15.0</ele><time>2026-05-03T12:28:13Z</time></trkpt><trkpt lat="37.94593766540345" lon="15.701799611948115"><ele>15.0</ele><time>2026-05-03T12:28:14Z</time></trkpt><trkpt lat="37.9457605333599" lon="15.702040192929992"><ele>15.5</ele><time>2026-05-03T12:28:15Z</time></trkpt><trkpt lat="37.94558821329331" lon="15.70227622546637"><ele>16.0</ele><time>2026-05-03T12:28:16Z</time></trkpt><trkpt lat="37.94542591731955" lon="15.70250627699786"><ele>16.0</ele><time>2026-05-03T12:28:17Z</time></trkpt><trkpt lat="37.945279808492856" lon="15.702707267951915"><ele>16.0</ele><time>2026-05-03T12:28:18Z</time></trkpt><trkpt lat="37.94513221343385" lon="15.702905841719037"><ele>16.0</ele><time>2026-05-03T12:28:19Z</time></trkpt><trkpt lat="37.945002243597656" lon="15.70306073867543"><ele>16.0</ele><time>2026-05-03T12:28:20Z</time></trkpt><trkpt lat="37.94488595004332" lon="15.703188532443896"><ele>16.0</ele><time>2026-05-03T12:28:21Z</time></trkpt><trkpt lat="37.944802187891895" lon="15.703299491003284"><ele>16.0</ele><time>2026-05-03T12:28:22Z</time></trkpt><trkpt lat="37.944709229015565" lon="15.703434518666082"><ele>16.0</ele><time>2026-05-03T12:28:23Z</time></trkpt><trkpt lat="37.94461103521398" lon="15.703537414129462"><ele>17.25</ele><time>2026-05-03T12:28:24Z</time></trkpt><trkpt lat="37.944515046257536" lon="15.703638789825295"><ele>18.5</ele><time>2026-05-03T12:28:25Z</time></trkpt><trkpt lat="37.94442273879535" lon="15.703741645748554"><ele>19.75</ele><time>2026-05-03T12:28:26Z</time></trkpt><trkpt lat="37.94434196320773" lon="15.703840416689168"><ele>21.0</ele><time>2026-05-03T12:28:27Z</time></trkpt><trkpt lat="37.94426896021004" lon="15.703932512799238"><ele>19.75</ele><time>2026-05-03T12:28:28Z</time></trkpt><trkpt lat="37.94420312262649" lon="15.704024643356629"><ele>18.5</ele><time>2026-05-03T12:28:29Z</time></trkpt><trkpt lat="37.94414338963608" lon="15.704139751471564"><ele>17.25</ele><time>2026-05-03T12:28:30Z</time></trkpt><trkpt lat="37.94407711993116" lon="15.704273911289343"><ele>16.0</ele><time>2026-05-03T12:28:31Z</time></trkpt><trkpt lat="37.94399111247137" lon="15.70441377479853"><ele>15.333333333333332</ele><time>2026-05-03T12:28:32Z</time></trkpt><trkpt lat="37.94388448454784" lon="15.704565861499074"><ele>14.666666666666668</ele><time>2026-05-03T12:28:33Z</time></trkpt><trkpt lat="37.94375967789881" lon="15.704718273567346"><ele>14.0</ele><time>2026-05-03T12:28:34Z</time></trkpt><trkpt lat="37.94362846880803" lon="15.704881806712498"><ele>14.0</ele><time>2026-05-03T12:28:35.001Z</time></trkpt><trkpt lat="37.943477595147556" lon="15.70507119839365"><ele>14.0</ele><time>2026-05-03T12:28:36.001Z</time></trkpt><trkpt lat="37.9433198086156" lon="15.70526885571255"><ele>14.0</ele><time>2026-05-03T12:28:37.001Z</time></trkpt><trkpt lat="37.94315834385872" lon="15.70546556597725"><ele>12.5</ele><time>2026-05-03T12:28:38.001Z</time></trkpt><trkpt lat="37.9429873218383" lon="15.70567611739755"><ele>11.0</ele><time>2026-05-03T12:28:39.001Z</time></trkpt><trkpt lat="37.942812532730436" lon="15.705891998065857"><ele>11.5</ele><time>2026-05-03T12:28:40.001Z</time></trkpt><trkpt lat="37.94262912895699" lon="15.706116460549683"><ele>12.0</ele><time>2026-05-03T12:28:41.001Z</time></trkpt><trkpt lat="37.942436052570585" lon="15.706342086699637"><ele>12.0</ele><time>2026-05-03T12:28:42.001Z</time></trkpt><trkpt lat="37.94224008892533" lon="15.706575185205601"><ele>12.0</ele><time>2026-05-03T12:28:43.001Z</time></trkpt><trkpt lat="37.94203857653053" lon="15.706814108273594"><ele>12.0</ele><time>2026-05-03T12:28:44.001Z</time></trkpt><trkpt lat="37.94183661463225" lon="15.707055113523932"><ele>12.0</ele><time>2026-05-03T12:28:45.001Z</time></trkpt><trkpt lat="37.94163622730867" lon="15.707299239147837"><ele>12.0</ele><time>2026-05-03T12:28:46.001Z</time></trkpt><trkpt lat="37.94143848147664" lon="15.707538404202827"><ele>12.0</ele><time>2026-05-03T12:28:47.001Z</time></trkpt><trkpt lat="37.94123610981617" lon="15.707789414130023"><ele>11.5</ele><time>2026-05-03T12:28:48.001Z</time></trkpt><trkpt lat="37.94103200563815" lon="15.708031827980136"><ele>11.0</ele><time>2026-05-03T12:28:49.001Z</time></trkpt><trkpt lat="37.94083348109539" lon="15.708281922977248"><ele>10.5</ele><time>2026-05-03T12:28:50.001Z</time></trkpt><trkpt lat="37.940645848155285" lon="15.708542600019328"><ele>10.0</ele><time>2026-05-03T12:28:51.001Z</time></trkpt><trkpt lat="37.94047555475658" lon="15.708831645733888"><ele>10.0</ele><time>2026-05-03T12:28:52.001Z</time></trkpt><trkpt lat="37.94033194953815" lon="15.709142638131091"><ele>10.0</ele><time>2026-05-03T12:28:53.001Z</time></trkpt><trkpt lat="37.94020771804349" lon="15.70946312383894"><ele>11.0</ele><time>2026-05-03T12:28:54.001Z</time></trkpt><trkpt lat="37.94011556893456" lon="15.709804056893123"><ele>12.0</ele><time>2026-05-03T12:28:55.001Z</time></trkpt><trkpt lat="37.94002368152831" lon="15.71013939539039"><ele>12.0</ele><time>2026-05-03T12:28:56.001Z</time></trkpt><trkpt lat="37.939922114623215" lon="15.710472433630667"><ele>12.0</ele><time>2026-05-03T12:28:57.001Z</time></trkpt><trkpt lat="37.939817383406144" lon="15.71079895585397"><ele>12.5</ele><time>2026-05-03T12:28:58.001Z</time></trkpt><trkpt lat="37.939711251847456" lon="15.711118768039828"><ele>13.0</ele><time>2026-05-03T12:28:59.001Z</time></trkpt><trkpt lat="37.939619255935256" lon="15.711428944821941"><ele>13.0</ele><time>2026-05-03T12:29:00.001Z</time></trkpt><trkpt lat="37.93952342459913" lon="15.711732533952146"><ele>13.0</ele><time>2026-05-03T12:29:01.001Z</time></trkpt><trkpt lat="37.93942850774384" lon="15.712032801040438"><ele>15.0</ele><time>2026-05-03T12:29:02.001Z</time></trkpt><trkpt lat="37.93933148065687" lon="15.712333660914966"><ele>17.0</ele><time>2026-05-03T12:29:03.001Z</time></trkpt><trkpt lat="37.93923550354487" lon="15.71263599437352"><ele>16.0</ele><time>2026-05-03T12:29:04.001Z</time></trkpt><trkpt lat="37.93914221593028" lon="15.71293738821082"><ele>15.0</ele><time>2026-05-03T12:29:05.001Z</time></trkpt><trkpt lat="37.939047118976276" lon="15.713242420741187"><ele>15.0</ele><time>2026-05-03T12:29:06.001Z</time></trkpt><trkpt lat="37.938951058181985" lon="15.713544020697178"><ele>15.0</ele><time>2026-05-03T12:29:07.001Z</time></trkpt><trkpt lat="37.93885797573162" lon="15.713853928378429"><ele>14.0</ele><time>2026-05-03T12:29:08.001Z</time></trkpt><trkpt lat="37.938768676458544" lon="15.714159817699583"><ele>13.0</ele><time>2026-05-03T12:29:09.001Z</time></trkpt><trkpt lat="37.938672445072996" lon="15.714454159188705"><ele>12.0</ele><time>2026-05-03T12:29:10.001Z</time></trkpt><trkpt lat="37.93857987652868" lon="15.71475503743712"><ele>11.0</ele><time>2026-05-03T12:29:11.001Z</time></trkpt><trkpt lat="37.93848695675081" lon="15.715056058538915"><ele>11.5</ele><time>2026-05-03T12:29:12.001Z</time></trkpt><trkpt lat="37.93838992182213" lon="15.715355026925794"><ele>12.0</ele><time>2026-05-03T12:29:13.001Z</time></trkpt><trkpt lat="37.938291940303124" lon="15.715650962347665"><ele>11.0</ele><time>2026-05-03T12:29:14.001Z</time></trkpt><trkpt lat="37.938196456024514" lon="15.715951534493492"><ele>10.0</ele><time>2026-05-03T12:29:15.001Z</time></trkpt><trkpt lat="37.93811208031923" lon="15.716260487738408"><ele>9.5</ele><time>2026-05-03T12:29:16.001Z</time></trkpt><trkpt lat="37.93805553322381" lon="15.716591186539995"><ele>9.0</ele><time>2026-05-03T12:29:17.001Z</time></trkpt><trkpt lat="37.937990472355295" lon="15.716922282391764"><ele>7.5</ele><time>2026-05-03T12:29:18.001Z</time></trkpt><trkpt lat="37.93792560370133" lon="15.717253372358014"><ele>6.0</ele><time>2026-05-03T12:29:19.001Z</time></trkpt><trkpt lat="37.937945928750004" lon="15.717614987663346"><ele>5.5</ele><time>2026-05-03T12:29:20.001Z</time></trkpt><trkpt lat="37.93790473744483" lon="15.717962242446289"><ele>5.0</ele><time>2026-05-03T12:29:21.001Z</time></trkpt><trkpt lat="37.93786501368099" lon="15.718301890993681"><ele>6.0</ele><time>2026-05-03T12:29:22.001Z</time></trkpt><trkpt lat="37.9378220394237" lon="15.718647424877675"><ele>7.0</ele><time>2026-05-03T12:29:23.001Z</time></trkpt><trkpt lat="37.93777768829071" lon="15.718983695468557"><ele>7.0</ele><time>2026-05-03T12:29:24.001Z</time></trkpt><trkpt lat="37.93773226012907" lon="15.719324538646445"><ele>7.0</ele><time>2026-05-03T12:29:25.001Z</time></trkpt><trkpt lat="37.93769142348854" lon="15.719664126491075"><ele>7.0</ele><time>2026-05-03T12:29:26.001Z</time></trkpt><trkpt lat="37.93764411839064" lon="15.720007176487425"><ele>7.0</ele><time>2026-05-03T12:29:27.001Z</time></trkpt><trkpt lat="37.93761367300463" lon="15.720342853439261"><ele>6.5</ele><time>2026-05-03T12:29:28.001Z</time></trkpt><trkpt lat="37.93757721672149" lon="15.7206738674167"><ele>6.0</ele><time>2026-05-03T12:29:29.001Z</time></trkpt><trkpt lat="37.937537858742935" lon="15.72100278370638"><ele>6.5</ele><time>2026-05-03T12:29:30.001Z</time></trkpt><trkpt lat="37.93749684207072" lon="15.72132957984165"><ele>7.0</ele><time>2026-05-03T12:29:31.001Z</time></trkpt><trkpt lat="37.937458127928274" lon="15.72165222687091"><ele>7.0</ele><time>2026-05-03T12:29:32.001Z</time></trkpt><trkpt lat="37.937417676648124" lon="15.721971523242757"><ele>7.0</ele><time>2026-05-03T12:29:33.001Z</time></trkpt><trkpt lat="37.937377428558584" lon="15.722286881987314"><ele>7.0</ele><time>2026-05-03T12:29:34.001Z</time></trkpt><trkpt lat="37.937338276237604" lon="15.722589166000475"><ele>7.0</ele><time>2026-05-03T12:29:35.001Z</time></trkpt><trkpt lat="37.937280342488414" lon="15.722884362074955"><ele>8.0</ele><time>2026-05-03T12:29:36.001Z</time></trkpt><trkpt lat="37.9372064597255" lon="15.723168712763007"><ele>9.0</ele><time>2026-05-03T12:29:37.001Z</time></trkpt><trkpt lat="37.93711696889511" lon="15.72344379473633"><ele>10.0</ele><time>2026-05-03T12:29:38.001Z</time></trkpt><trkpt lat="37.93700788986151" lon="15.72371239740202"><ele>11.0</ele><time>2026-05-03T12:29:39.001Z</time></trkpt><trkpt lat="37.93689139924073" lon="15.723980118632058"><ele>11.0</ele><time>2026-05-03T12:29:40.001Z</time></trkpt><trkpt lat="37.936769173783816" lon="15.724247271165744"><ele>11.0</ele><time>2026-05-03T12:29:41.001Z</time></trkpt><trkpt lat="37.93664374233348" lon="15.724524542083891"><ele>10.5</ele><time>2026-05-03T12:29:42.001Z</time></trkpt><trkpt lat="37.936523290403244" lon="15.724805553934472"><ele>10.0</ele><time>2026-05-03T12:29:43.001Z</time></trkpt><trkpt lat="37.93640540611631" lon="15.725090299989823"><ele>11.5</ele><time>2026-05-03T12:29:44.001Z</time></trkpt><trkpt lat="37.93628312154258" lon="15.725379741866474"><ele>13.0</ele><time>2026-05-03T12:29:45.001Z</time></trkpt><trkpt lat="37.936162118882294" lon="15.725665573771028"><ele>13.0</ele><time>2026-05-03T12:29:46.001Z</time></trkpt><trkpt lat="37.936037225778286" lon="15.72595368878091"><ele>13.0</ele><time>2026-05-03T12:29:47.001Z</time></trkpt><trkpt lat="37.93591290823775" lon="15.726244470014393"><ele>12.5</ele><time>2026-05-03T12:29:48.001Z</time></trkpt><trkpt lat="37.93578678511912" lon="15.726541047012718"><ele>12.0</ele><time>2026-05-03T12:29:49.001Z</time></trkpt><trkpt lat="37.935667313887436" lon="15.726834200036379"><ele>13.0</ele><time>2026-05-03T12:29:50.001Z</time></trkpt><trkpt lat="37.935543382871714" lon="15.727126347246104"><ele>14.0</ele><time>2026-05-03T12:29:51.001Z</time></trkpt><trkpt lat="37.93542137398935" lon="15.727417399512374"><ele>14.0</ele><time>2026-05-03T12:29:52.001Z</time></trkpt><trkpt lat="37.93530225552115" lon="15.727707978813749"><ele>14.0</ele><time>2026-05-03T12:29:53.001Z</time></trkpt><trkpt lat="37.935184085448725" lon="15.728001205869194"><ele>15.0</ele><time>2026-05-03T12:29:54Z</time></trkpt><trkpt lat="37.935060394108596" lon="15.728294712964402"><ele>16.0</ele><time>2026-05-03T12:29:55Z</time></trkpt><trkpt lat="37.93493867471431" lon="15.728579904304963"><ele>16.5</ele><time>2026-05-03T12:29:56Z</time></trkpt><trkpt lat="37.934821958060766" lon="15.728872246226384"><ele>17.0</ele><time>2026-05-03T12:29:57Z</time></trkpt><trkpt lat="37.934709669782805" lon="15.729166825849452"><ele>18.0</ele><time>2026-05-03T12:29:58Z</time></trkpt><trkpt lat="37.93460028562501" lon="15.729461079373799"><ele>19.0</ele><time>2026-05-03T12:29:59Z</time></trkpt><trkpt lat="37.93451089742498" lon="15.729757021167657"><ele>19.0</ele><time>2026-05-03T12:30:00Z</time></trkpt><trkpt lat="37.93442078868239" lon="15.730051305833197"><ele>19.0</ele><time>2026-05-03T12:30:01Z</time></trkpt><trkpt lat="37.93434521537943" lon="15.730357853858141"><ele>19.0</ele><time>2026-05-03T12:30:02Z</time></trkpt><trkpt lat="37.934271156233265" lon="15.73066271702469"><ele>19.0</ele><time>2026-05-03T12:30:03Z</time></trkpt><trkpt lat="37.93420374302799" lon="15.730973992561681"><ele>21.5</ele><time>2026-05-03T12:30:04Z</time></trkpt><trkpt lat="37.93413324074264" lon="15.731278142713455"><ele>24.0</ele><time>2026-05-03T12:30:05Z</time></trkpt><trkpt lat="37.934059917108335" lon="15.731582255826593"><ele>24.0</ele><time>2026-05-03T12:30:06Z</time></trkpt><trkpt lat="37.93398563772811" lon="15.73188899690586"><ele>24.0</ele><time>2026-05-03T12:30:07Z</time></trkpt><trkpt lat="37.93391837732894" lon="15.732195993084837"><ele>25.5</ele><time>2026-05-03T12:30:08Z</time></trkpt><trkpt lat="37.933851711730014" lon="15.732506138368517"><ele>27.0</ele><time>2026-05-03T12:30:09Z</time></trkpt><trkpt lat="37.93377770196568" lon="15.732814727088176"><ele>28.5</ele><time>2026-05-03T12:30:10Z</time></trkpt><trkpt lat="37.933701134033996" lon="15.733128072899818"><ele>30.0</ele><time>2026-05-03T12:30:11Z</time></trkpt><trkpt lat="37.93362654514763" lon="15.733438548243246"><ele>34.0</ele><time>2026-05-03T12:30:12Z</time></trkpt><trkpt lat="37.933556258344154" lon="15.733777583198977"><ele>38.0</ele><time>2026-05-03T12:30:13Z</time></trkpt><trkpt lat="37.93348386446507" lon="15.734078529568706"><ele>39.0</ele><time>2026-05-03T12:30:14Z</time></trkpt><trkpt lat="37.933414625067975" lon="15.73439497585726"><ele>40.0</ele><time>2026-05-03T12:30:15Z</time></trkpt><trkpt lat="37.93334008537577" lon="15.734713122535963"><ele>36.5</ele><time>2026-05-03T12:30:16Z</time></trkpt><trkpt lat="37.93326374268438" lon="15.735032331278495"><ele>33.0</ele><time>2026-05-03T12:30:17Z</time></trkpt><trkpt lat="37.93318303475365" lon="15.735360159594013"><ele>33.0</ele><time>2026-05-03T12:30:18Z</time></trkpt><trkpt lat="37.933116601195465" lon="15.735681605136834"><ele>33.0</ele><time>2026-05-03T12:30:19Z</time></trkpt><trkpt lat="37.93304274168751" lon="15.736007691846723"><ele>36.0</ele><time>2026-05-03T12:30:20Z</time></trkpt><trkpt lat="37.93296513643811" lon="15.736332497322287"><ele>39.0</ele><time>2026-05-03T12:30:21Z</time></trkpt><trkpt lat="37.93288897164833" lon="15.736658352473428"><ele>39.5</ele><time>2026-05-03T12:30:22Z</time></trkpt><trkpt lat="37.93281594257591" lon="15.73698970978968"><ele>40.0</ele><time>2026-05-03T12:30:23Z</time></trkpt><trkpt lat="37.93273785226562" lon="15.737321159236215"><ele>40.0</ele><time>2026-05-03T12:30:24Z</time></trkpt><trkpt lat="37.9326603229827" lon="15.737658442614945"><ele>40.0</ele><time>2026-05-03T12:30:25Z</time></trkpt><trkpt lat="37.93258371257644" lon="15.73799198057763"><ele>35.5</ele><time>2026-05-03T12:30:26Z</time></trkpt><trkpt lat="37.93250732336068" lon="15.738327519889975"><ele>31.0</ele><time>2026-05-03T12:30:27Z</time></trkpt><trkpt lat="37.93243148476346" lon="15.738661427361274"><ele>31.0</ele><time>2026-05-03T12:30:28Z</time></trkpt><trkpt lat="37.93235304851147" lon="15.73899858110577"><ele>31.0</ele><time>2026-05-03T12:30:29Z</time></trkpt><trkpt lat="37.93227642715326" lon="15.739326045232778"><ele>31.0</ele><time>2026-05-03T12:30:30Z</time></trkpt><trkpt lat="37.932197560172625" lon="15.739657682556206"><ele>31.0</ele><time>2026-05-03T12:30:31Z</time></trkpt><trkpt lat="37.932122910898556" lon="15.739987047133107"><ele>31.5</ele><time>2026-05-03T12:30:32Z</time></trkpt><trkpt lat="37.9320418268224" lon="15.7403183694819"><ele>32.0</ele><time>2026-05-03T12:30:33Z</time></trkpt><trkpt lat="37.931965528472624" lon="15.74064905422822"><ele>32.0</ele><time>2026-05-03T12:30:34Z</time></trkpt><trkpt lat="37.93189068064498" lon="15.740977831472769"><ele>32.0</ele><time>2026-05-03T12:30:35Z</time></trkpt><trkpt lat="37.93181639519247" lon="15.741306347055488"><ele>31.5</ele><time>2026-05-03T12:30:36Z</time></trkpt><trkpt lat="37.931739122425704" lon="15.74163195203237"><ele>31.0</ele><time>2026-05-03T12:30:37Z</time></trkpt><trkpt lat="37.93166567736756" lon="15.74196156712768"><ele>31.0</ele><time>2026-05-03T12:30:38Z</time></trkpt><trkpt lat="37.93159174359481" lon="15.742286022349974"><ele>31.0</ele><time>2026-05-03T12:30:39Z</time></trkpt><trkpt lat="37.931516004447616" lon="15.742613622246267"><ele>30.5</ele><time>2026-05-03T12:30:40Z</time></trkpt><trkpt lat="37.93144473667972" lon="15.742937411368377"><ele>30.0</ele><time>2026-05-03T12:30:41Z</time></trkpt><trkpt lat="37.931372885338476" lon="15.74326172080726"><ele>28.5</ele><time>2026-05-03T12:30:42Z</time></trkpt><trkpt lat="37.93129487320217" lon="15.743586417586377"><ele>27.0</ele><time>2026-05-03T12:30:43Z</time></trkpt><trkpt lat="37.93121910507848" lon="15.743910056533354"><ele>27.0</ele><time>2026-05-03T12:30:44Z</time></trkpt><trkpt lat="37.931144553668474" lon="15.744234155379786"><ele>27.0</ele><time>2026-05-03T12:30:45Z</time></trkpt><trkpt lat="37.93106859082887" lon="15.74455104455744"><ele>27.0</ele><time>2026-05-03T12:30:46Z</time></trkpt><trkpt lat="37.930993001004154" lon="15.744858286144096"><ele>27.0</ele><time>2026-05-03T12:30:47Z</time></trkpt><trkpt lat="37.93091749392212" lon="15.745189857663465"><ele>28.5</ele><time>2026-05-03T12:30:48Z</time></trkpt><trkpt lat="37.930840210308034" lon="15.745513772547069"><ele>30.0</ele><time>2026-05-03T12:30:49Z</time></trkpt><trkpt lat="37.930764851722884" lon="15.745831856856622"><ele>30.0</ele><time>2026-05-03T12:30:50Z</time></trkpt><trkpt lat="37.93068992134241" lon="15.746152037498868"><ele>30.0</ele><time>2026-05-03T12:30:51Z</time></trkpt><trkpt lat="37.93061571418634" lon="15.746467843279818"><ele>30.0</ele><time>2026-05-03T12:30:52Z</time></trkpt><trkpt lat="37.93054973558483" lon="15.746781320638798"><ele>30.0</ele><time>2026-05-03T12:30:53Z</time></trkpt><trkpt lat="37.93047418341073" lon="15.747103252890367"><ele>30.5</ele><time>2026-05-03T12:30:54Z</time></trkpt><trkpt lat="37.930398653213565" lon="15.74742265281157"><ele>31.0</ele><time>2026-05-03T12:30:55.001Z</time></trkpt><trkpt lat="37.930324054861195" lon="15.747736362004364"><ele>32.5</ele><time>2026-05-03T12:30:56.001Z</time></trkpt><trkpt lat="37.93025859942076" lon="15.748038656456306"><ele>34.0</ele><time>2026-05-03T12:30:57.001Z</time></trkpt><trkpt lat="37.93018449376865" lon="15.748365679770961"><ele>34.5</ele><time>2026-05-03T12:30:58.001Z</time></trkpt><trkpt lat="37.930113901045104" lon="15.748680752915043"><ele>35.0</ele><time>2026-05-03T12:30:59.001Z</time></trkpt><trkpt lat="37.93004378794676" lon="15.748996142600408"><ele>33.0</ele><time>2026-05-03T12:31:00.001Z</time></trkpt><trkpt lat="37.92996754599719" lon="15.749309822871593"><ele>31.0</ele><time>2026-05-03T12:31:01.001Z</time></trkpt><trkpt lat="37.929889805454536" lon="15.749622693202268"><ele>31.0</ele><time>2026-05-03T12:31:02.001Z</time></trkpt><trkpt lat="37.92981152342162" lon="15.74993459418783"><ele>31.0</ele><time>2026-05-03T12:31:03.001Z</time></trkpt><trkpt lat="37.929722141344406" lon="15.750233016651602"><ele>31.5</ele><time>2026-05-03T12:31:04.001Z</time></trkpt><trkpt lat="37.929622071046865" lon="15.750540613615758"><ele>32.0</ele><time>2026-05-03T12:31:05.001Z</time></trkpt><trkpt lat="37.92952071657394" lon="15.750837490087108"><ele>33.0</ele><time>2026-05-03T12:31:06.001Z</time></trkpt><trkpt lat="37.929414164095796" lon="15.751129169818652"><ele>34.0</ele><time>2026-05-03T12:31:07.001Z</time></trkpt><trkpt lat="37.92930119341767" lon="15.751421160360847"><ele>35.0</ele><time>2026-05-03T12:31:08.001Z</time></trkpt><trkpt lat="37.92918022115796" lon="15.751708519929867"><ele>36.0</ele><time>2026-05-03T12:31:09.001Z</time></trkpt><trkpt lat="37.92905580333563" lon="15.751994035612508"><ele>36.0</ele><time>2026-05-03T12:31:10.001Z</time></trkpt><trkpt lat="37.92893268747798" lon="15.752280612977858"><ele>36.0</ele><time>2026-05-03T12:31:11.001Z</time></trkpt><trkpt lat="37.92880584629899" lon="15.75256685350336"><ele>38.5</ele><time>2026-05-03T12:31:12.001Z</time></trkpt><trkpt lat="37.92867956712198" lon="15.752858424106064"><ele>41.0</ele><time>2026-05-03T12:31:13.001Z</time></trkpt><trkpt lat="37.92855760410305" lon="15.753150658649059"><ele>41.0</ele><time>2026-05-03T12:31:14.001Z</time></trkpt><trkpt lat="37.928436878642806" lon="15.753447293798603"><ele>41.0</ele><time>2026-05-03T12:31:15.001Z</time></trkpt><trkpt lat="37.928314766502105" lon="15.75373839862756"><ele>37.5</ele><time>2026-05-03T12:31:16.001Z</time></trkpt><trkpt lat="37.92819184766432" lon="15.754012931076085"><ele>34.0</ele><time>2026-05-03T12:31:17.001Z</time></trkpt><trkpt lat="37.92806967942826" lon="15.754325793219545"><ele>35.0</ele><time>2026-05-03T12:31:18.001Z</time></trkpt><trkpt lat="37.92794798754635" lon="15.754623353571192"><ele>36.0</ele><time>2026-05-03T12:31:19.001Z</time></trkpt><trkpt lat="37.92782888008987" lon="15.754913472473012"><ele>36.0</ele><time>2026-05-03T12:31:20.001Z</time></trkpt><trkpt lat="37.927715090531805" lon="15.755184050823177"><ele>36.0</ele><time>2026-05-03T12:31:21.001Z</time></trkpt><trkpt lat="37.927610078622685" lon="15.755465837971531"><ele>35.0</ele><time>2026-05-03T12:31:22.001Z</time></trkpt><trkpt lat="37.92746769505905" lon="15.755775299264373"><ele>34.0</ele><time>2026-05-03T12:31:23.001Z</time></trkpt><trkpt lat="37.92734384975012" lon="15.756056307856541"><ele>34.0</ele><time>2026-05-03T12:31:24.001Z</time></trkpt><trkpt lat="37.927215645481404" lon="15.756355882007396"><ele>34.0</ele><time>2026-05-03T12:31:25.001Z</time></trkpt><trkpt lat="37.927067471621704" lon="15.756613761448467"><ele>35.0</ele><time>2026-05-03T12:31:26.001Z</time></trkpt><trkpt lat="37.92691801863749" lon="15.75687927443029"><ele>36.0</ele><time>2026-05-03T12:31:27.001Z</time></trkpt><trkpt lat="37.92677159675294" lon="15.757147499464361"><ele>34.5</ele><time>2026-05-03T12:31:28.001Z</time></trkpt><trkpt lat="37.9266268649487" lon="15.757423510456883"><ele>33.0</ele><time>2026-05-03T12:31:29.001Z</time></trkpt><trkpt lat="37.926484011330956" lon="15.757696610635863"><ele>34.0</ele><time>2026-05-03T12:31:30.001Z</time></trkpt><trkpt lat="37.92633697183141" lon="15.75796428136693"><ele>35.0</ele><time>2026-05-03T12:31:31.001Z</time></trkpt><trkpt lat="37.926186919717374" lon="15.758232378110618"><ele>35.0</ele><time>2026-05-03T12:31:32.001Z</time></trkpt><trkpt lat="37.926044293175075" lon="15.758515492575855"><ele>35.0</ele><time>2026-05-03T12:31:33.001Z</time></trkpt><trkpt lat="37.92589880806226" lon="15.7587879632364"><ele>33.5</ele><time>2026-05-03T12:31:34.001Z</time></trkpt><trkpt lat="37.9257513545509" lon="15.759064737685401"><ele>32.0</ele><time>2026-05-03T12:31:35.001Z</time></trkpt><trkpt lat="37.92560967790802" lon="15.759352760400358"><ele>32.5</ele><time>2026-05-03T12:31:36.001Z</time></trkpt><trkpt lat="37.925458764417485" lon="15.759631108123275"><ele>33.0</ele><time>2026-05-03T12:31:37.001Z</time></trkpt><trkpt lat="37.92529931300268" lon="15.759907815957787"><ele>33.0</ele><time>2026-05-03T12:31:38.001Z</time></trkpt><trkpt lat="37.92514057201506" lon="15.760185451728399"><ele>33.0</ele><time>2026-05-03T12:31:39.001Z</time></trkpt><trkpt lat="37.92498608202438" lon="15.760460730218428"><ele>31.5</ele><time>2026-05-03T12:31:40.001Z</time></trkpt><trkpt lat="37.92483764857245" lon="15.760750842060542"><ele>30.0</ele><time>2026-05-03T12:31:41.001Z</time></trkpt><trkpt lat="37.92468181351594" lon="15.761039271288771"><ele>28.0</ele><time>2026-05-03T12:31:42.001Z</time></trkpt><trkpt lat="37.92453097011647" lon="15.761321560884511"><ele>26.0</ele><time>2026-05-03T12:31:43.001Z</time></trkpt><trkpt lat="37.92438642673817" lon="15.761610772425325"><ele>29.0</ele><time>2026-05-03T12:31:44.001Z</time></trkpt><trkpt lat="37.92422784583503" lon="15.761896073522605"><ele>32.0</ele><time>2026-05-03T12:31:45.001Z</time></trkpt><trkpt lat="37.92407622768391" lon="15.76217520895931"><ele>32.0</ele><time>2026-05-03T12:31:46.001Z</time></trkpt><trkpt lat="37.92392580642991" lon="15.762448622548618"><ele>32.0</ele><time>2026-05-03T12:31:47.001Z</time></trkpt><trkpt lat="37.923777915772774" lon="15.762728073632902"><ele>36.0</ele><time>2026-05-03T12:31:48.001Z</time></trkpt><trkpt lat="37.923635419098424" lon="15.763007256149187"><ele>40.0</ele><time>2026-05-03T12:31:49.001Z</time></trkpt><trkpt lat="37.92350117164225" lon="15.763298341205354"><ele>36.0</ele><time>2026-05-03T12:31:50.001Z</time></trkpt><trkpt lat="37.92338533246527" lon="15.763599280589867"><ele>32.0</ele><time>2026-05-03T12:31:51.001Z</time></trkpt><trkpt lat="37.92329486110174" lon="15.763918488657767"><ele>32.0</ele><time>2026-05-03T12:31:52.001Z</time></trkpt><trkpt lat="37.92320708066987" lon="15.764237901849805"><ele>32.0</ele><time>2026-05-03T12:31:53.001Z</time></trkpt><trkpt lat="37.9230918487674" lon="15.764547934627515"><ele>32.5</ele><time>2026-05-03T12:31:54.001Z</time></trkpt><trkpt lat="37.92300740688202" lon="15.764879099796447"><ele>33.0</ele><time>2026-05-03T12:31:55.001Z</time></trkpt><trkpt lat="37.922919694587804" lon="15.765208780760938"><ele>34.5</ele><time>2026-05-03T12:31:56.001Z</time></trkpt><trkpt lat="37.92283274097536" lon="15.765537753481995"><ele>36.0</ele><time>2026-05-03T12:31:57.001Z</time></trkpt><trkpt lat="37.92273833512516" lon="15.765864011955737"><ele>38.0</ele><time>2026-05-03T12:31:58.001Z</time></trkpt><trkpt lat="37.92264841360776" lon="15.766191296111515"><ele>40.0</ele><time>2026-05-03T12:31:59.001Z</time></trkpt><trkpt lat="37.92255669922376" lon="15.76650993061911"><ele>36.5</ele><time>2026-05-03T12:32:00Z</time></trkpt><trkpt lat="37.9224658473676" lon="15.766825073824972"><ele>33.0</ele><time>2026-05-03T12:32:01Z</time></trkpt><trkpt lat="37.9223815710122" lon="15.76714314940936"><ele>33.0</ele><time>2026-05-03T12:32:02Z</time></trkpt><trkpt lat="37.92230758931461" lon="15.767464149208731"><ele>33.0</ele><time>2026-05-03T12:32:03Z</time></trkpt><trkpt lat="37.92228310026616" lon="15.76781499780099"><ele>34.0</ele><time>2026-05-03T12:32:04Z</time></trkpt><trkpt lat="37.92226932903623" lon="15.768161494882094"><ele>35.0</ele><time>2026-05-03T12:32:05Z</time></trkpt><trkpt lat="37.92227653725263" lon="15.768501563666403"><ele>31.0</ele><time>2026-05-03T12:32:06Z</time></trkpt><trkpt lat="37.922305006623446" lon="15.768848661404302"><ele>27.0</ele><time>2026-05-03T12:32:07Z</time></trkpt><trkpt lat="37.922338515342865" lon="15.769189400468608"><ele>24.5</ele><time>2026-05-03T12:32:08Z</time></trkpt><trkpt lat="37.92236160347805" lon="15.769538713012166"><ele>22.0</ele><time>2026-05-03T12:32:09Z</time></trkpt><trkpt lat="37.92236871587714" lon="15.769889951411606"><ele>21.5</ele><time>2026-05-03T12:32:10Z</time></trkpt><trkpt lat="37.92239398685053" lon="15.770272196181544"><ele>21.0</ele><time>2026-05-03T12:32:11Z</time></trkpt><trkpt lat="37.92242468620108" lon="15.770579965098246"><ele>21.0</ele><time>2026-05-03T12:32:12Z</time></trkpt><trkpt lat="37.922450399166564" lon="15.77091594195498"><ele>21.0</ele><time>2026-05-03T12:32:13Z</time></trkpt><trkpt lat="37.92247138241827" lon="15.771256565287798"><ele>23.0</ele><time>2026-05-03T12:32:14Z</time></trkpt><trkpt lat="37.92249291703151" lon="15.771591911900842"><ele>25.0</ele><time>2026-05-03T12:32:15Z</time></trkpt><trkpt lat="37.92250737745411" lon="15.771924152030321"><ele>27.0</ele><time>2026-05-03T12:32:16Z</time></trkpt><trkpt lat="37.92250622287168" lon="15.772256306789231"><ele>29.0</ele><time>2026-05-03T12:32:17Z</time></trkpt><trkpt lat="37.92248134893109" lon="15.772583528485068"><ele>29.5</ele><time>2026-05-03T12:32:18Z</time></trkpt><trkpt lat="37.922453084691824" lon="15.772915146905182"><ele>30.0</ele><time>2026-05-03T12:32:19Z</time></trkpt><trkpt lat="37.92242271916583" lon="15.773244729258215"><ele>31.0</ele><time>2026-05-03T12:32:20Z</time></trkpt><trkpt lat="37.9223947804714" lon="15.773586684758257"><ele>32.0</ele><time>2026-05-03T12:32:21Z</time></trkpt><trkpt lat="37.92236427933555" lon="15.773907620297456"><ele>32.0</ele><time>2026-05-03T12:32:22Z</time></trkpt><trkpt lat="37.922333573982954" lon="15.774240569682052"><ele>32.0</ele><time>2026-05-03T12:32:23Z</time></trkpt><trkpt lat="37.92233089582441" lon="15.774574728576788"><ele>31.5</ele><time>2026-05-03T12:32:24Z</time></trkpt><trkpt lat="37.92235152143906" lon="15.774903673254627"><ele>31.0</ele><time>2026-05-03T12:32:25Z</time></trkpt><trkpt lat="37.922393398370666" lon="15.775228050912496"><ele>31.0</ele><time>2026-05-03T12:32:26Z</time></trkpt><trkpt lat="37.92245753006779" lon="15.775551350263596"><ele>31.0</ele><time>2026-05-03T12:32:27Z</time></trkpt><trkpt lat="37.92254365931791" lon="15.77586725895395"><ele>30.5</ele><time>2026-05-03T12:32:28Z</time></trkpt><trkpt lat="37.922653694959656" lon="15.776182887462246"><ele>30.0</ele><time>2026-05-03T12:32:29Z</time></trkpt><trkpt lat="37.92278741225661" lon="15.776458900437085"><ele>30.0</ele><time>2026-05-03T12:32:30Z</time></trkpt><trkpt lat="37.92292868455709" lon="15.776727349773621"><ele>30.0</ele><time>2026-05-03T12:32:31Z</time></trkpt><trkpt lat="37.923063601642255" lon="15.77697251919546"><ele>30.333333333333336</ele><time>2026-05-03T12:32:32Z</time></trkpt><trkpt lat="37.923192827715404" lon="15.777206112977352"><ele>30.666666666666668</ele><time>2026-05-03T12:32:33Z</time></trkpt><trkpt lat="37.92331305357369" lon="15.777426251589379"><ele>31.0</ele><time>2026-05-03T12:32:34Z</time></trkpt><trkpt lat="37.923421887484274" lon="15.777628672149532"><ele>34.333333333333336</ele><time>2026-05-03T12:32:35Z</time></trkpt><trkpt lat="37.9235221421258" lon="15.777823856597683"><ele>37.666666666666664</ele><time>2026-05-03T12:32:36Z</time></trkpt><trkpt lat="37.92361095612806" lon="15.778000877111612"><ele>41.0</ele><time>2026-05-03T12:32:37Z</time></trkpt><trkpt lat="37.923709629719944" lon="15.778173803725638"><ele>41.0</ele><time>2026-05-03T12:32:38Z</time></trkpt><trkpt lat="37.923789926830146" lon="15.778337133891254"><ele>41.0</ele><time>2026-05-03T12:32:39Z</time></trkpt><trkpt lat="37.923864183522504" lon="15.778495061687607"><ele>41.0</ele><time>2026-05-03T12:32:40Z</time></trkpt><trkpt lat="37.92392947204686" lon="15.778642222594158"><ele>41.0</ele><time>2026-05-03T12:32:41Z</time></trkpt><trkpt lat="37.92399242282348" lon="15.77878308841842"><ele>40.0</ele><time>2026-05-03T12:32:42Z</time></trkpt><trkpt lat="37.92405528391036" lon="15.778921164826668"><ele>39.0</ele><time>2026-05-03T12:32:43Z</time></trkpt><trkpt lat="37.924113881630255" lon="15.779072888219746"><ele>38.0</ele><time>2026-05-03T12:32:44Z</time></trkpt><trkpt lat="37.92416744044094" lon="15.779235283224006"><ele>37.0</ele><time>2026-05-03T12:32:45Z</time></trkpt><trkpt lat="37.92421749115963" lon="15.779410782385375"><ele>36.75</ele><time>2026-05-03T12:32:46Z</time></trkpt><trkpt lat="37.92425879262879" lon="15.779584589528149"><ele>36.5</ele><time>2026-05-03T12:32:47Z</time></trkpt><trkpt lat="37.9242954471542" lon="15.779756846046508"><ele>36.25</ele><time>2026-05-03T12:32:48Z</time></trkpt><trkpt lat="37.924326540019145" lon="15.779928563773549"><ele>36.0</ele><time>2026-05-03T12:32:49Z</time></trkpt><trkpt lat="37.92435378317315" lon="15.780099608208467"><ele>36.5</ele><time>2026-05-03T12:32:50Z</time></trkpt><trkpt lat="37.924373553244756" lon="15.780244097030167"><ele>37.0</ele><time>2026-05-03T12:32:51Z</time></trkpt><trkpt lat="37.92438268305952" lon="15.780408545821164"><ele>37.5</ele><time>2026-05-03T12:32:52Z</time></trkpt><trkpt lat="37.924384804925865" lon="15.780558024367018"><ele>38.0</ele><time>2026-05-03T12:32:53Z</time></trkpt><trkpt lat="37.92437211126059" lon="15.78068728928379"><ele>38.0</ele><time>2026-05-03T12:32:54Z</time></trkpt><trkpt lat="37.924344945805295" lon="15.780797913217441"><ele>38.0</ele><time>2026-05-03T12:32:55Z</time></trkpt><trkpt lat="37.92431760621568" lon="15.780901847645483"><ele>38.0</ele><time>2026-05-03T12:32:56Z</time></trkpt><trkpt lat="37.924300729717025" lon="15.781008117528263"><ele>38.0</ele><time>2026-05-03T12:32:57Z</time></trkpt><trkpt lat="37.92429120779172" lon="15.781112438828147"><ele>38.0</ele><time>2026-05-03T12:32:58Z</time></trkpt><trkpt lat="37.92429101802646" lon="15.781215213571839"><ele>38.0</ele><time>2026-05-03T12:32:59Z</time></trkpt><trkpt lat="37.924293450771025" lon="15.781324796611816"><ele>40.75</ele><time>2026-05-03T12:33:00Z</time></trkpt><trkpt lat="37.92429794164536" lon="15.781459892162063"><ele>43.5</ele><time>2026-05-03T12:33:01Z</time></trkpt><trkpt lat="37.92427089308253" lon="15.781603701628262"><ele>46.25</ele><time>2026-05-03T12:33:02Z</time></trkpt><trkpt lat="37.92423862591889" lon="15.781758857332788"><ele>49.0</ele><time>2026-05-03T12:33:03Z</time></trkpt><trkpt lat="37.924208418082344" lon="15.781933860467705"><ele>51.666666666666664</ele><time>2026-05-03T12:33:04Z</time></trkpt><trkpt lat="37.92417686334218" lon="15.782121123505599"><ele>54.33333333333333</ele><time>2026-05-03T12:33:05Z</time></trkpt><trkpt lat="37.92414061549678" lon="15.782323178952026"><ele>57.0</ele><time>2026-05-03T12:33:06Z</time></trkpt><trkpt lat="37.924096568573525" lon="15.782554404529405"><ele>62.0</ele><time>2026-05-03T12:33:07Z</time></trkpt><trkpt lat="37.924035028960624" lon="15.782776987954234"><ele>67.0</ele><time>2026-05-03T12:33:08Z</time></trkpt><trkpt lat="37.92398671484674" lon="15.782996255908781"><ele>72.0</ele><time>2026-05-03T12:33:09Z</time></trkpt><trkpt lat="37.92393852622296" lon="15.783221533652652"><ele>72.0</ele><time>2026-05-03T12:33:10.014Z</time></trkpt><trkpt lat="37.92389177626243" lon="15.783447604708577"><ele>72.0</ele><time>2026-05-03T12:33:11.018Z</time></trkpt><trkpt lat="37.923846284213624" lon="15.783671389463123"><ele>72.0</ele><time>2026-05-03T12:33:12.016Z</time></trkpt><trkpt lat="37.92379742530794" lon="15.783895074717714"><ele>81.0</ele><time>2026-05-03T12:33:13.014Z</time></trkpt><trkpt lat="37.92374695669583" lon="15.784123579946504"><ele>90.0</ele><time>2026-05-03T12:33:14.016Z</time></trkpt><trkpt lat="37.923637966949705" lon="15.784902082275035"><ele>86.66666666666667</ele><time>2026-05-03T12:33:17.434Z</time></trkpt><trkpt lat="37.92359363609636" lon="15.785126616656264"><ele>83.33333333333334</ele><time>2026-05-03T12:33:18.435Z</time></trkpt><trkpt lat="37.92354983723969" lon="15.78535099074258"><ele>80.0</ele><time>2026-05-03T12:33:19.434Z</time></trkpt><trkpt lat="37.923505014542215" lon="15.785575472572617"><ele>80.0</ele><time>2026-05-03T12:33:20.435Z</time></trkpt><trkpt lat="37.9234602291922" lon="15.785799767358412"><ele>80.0</ele><time>2026-05-03T12:33:21.435Z</time></trkpt><trkpt lat="37.92341559054684" lon="15.786023327415393"><ele>80.0</ele><time>2026-05-03T12:33:22.432Z</time></trkpt><trkpt lat="37.92337066843229" lon="15.786248307147787"><ele>61.5</ele><time>2026-05-03T12:33:23.435Z</time></trkpt><trkpt lat="37.92332594935632" lon="15.78647260870224"><ele>43.0</ele><time>2026-05-03T12:33:24.435Z</time></trkpt><trkpt lat="37.92288992557481" lon="15.787976793959539"><ele>34.5</ele><time>2026-05-03T12:33:25.001Z</time></trkpt><trkpt lat="37.92274891563718" lon="15.788272628223112"><ele>26.0</ele><time>2026-05-03T12:33:26.001Z</time></trkpt><trkpt lat="37.92262861081312" lon="15.78859007444765"><ele>23.5</ele><time>2026-05-03T12:33:27.001Z</time></trkpt><trkpt lat="37.92250924298854" lon="15.788903867568063"><ele>21.0</ele><time>2026-05-03T12:33:28.001Z</time></trkpt><trkpt lat="37.92237988799085" lon="15.78920764705542"><ele>21.0</ele><time>2026-05-03T12:33:29.001Z</time></trkpt><trkpt lat="37.9222563113662" lon="15.789520654624095"><ele>21.0</ele><time>2026-05-03T12:33:30.001Z</time></trkpt><trkpt lat="37.922133398038426" lon="15.789834612163949"><ele>21.0</ele><time>2026-05-03T12:33:31.001Z</time></trkpt><trkpt lat="37.92201606275072" lon="15.79014842682334"><ele>21.0</ele><time>2026-05-03T12:33:32.001Z</time></trkpt><trkpt lat="37.92188860787523" lon="15.790459863456501"><ele>20.0</ele><time>2026-05-03T12:33:33.001Z</time></trkpt><trkpt lat="37.921759691699215" lon="15.790770719207474"><ele>19.0</ele><time>2026-05-03T12:33:34.001Z</time></trkpt><trkpt lat="37.921631407709924" lon="15.791078527494602"><ele>18.0</ele><time>2026-05-03T12:33:35.001Z</time></trkpt><trkpt lat="37.92151062995699" lon="15.791381748636617"><ele>17.0</ele><time>2026-05-03T12:33:36.001Z</time></trkpt><trkpt lat="37.92138506088988" lon="15.791689374457876"><ele>21.5</ele><time>2026-05-03T12:33:37.001Z</time></trkpt><trkpt lat="37.92126012584731" lon="15.791994842066632"><ele>26.0</ele><time>2026-05-03T12:33:38.001Z</time></trkpt><trkpt lat="37.921117336504466" lon="15.792308834642077"><ele>26.0</ele><time>2026-05-03T12:33:39.001Z</time></trkpt><trkpt lat="37.920993174924654" lon="15.792617143167089"><ele>26.0</ele><time>2026-05-03T12:33:40.001Z</time></trkpt><trkpt lat="37.920871528762945" lon="15.792923104348757"><ele>27.5</ele><time>2026-05-03T12:33:41.001Z</time></trkpt><trkpt lat="37.920749480525714" lon="15.793234157101084"><ele>29.0</ele><time>2026-05-03T12:33:42.001Z</time></trkpt><trkpt lat="37.92063801811526" lon="15.793546320659125"><ele>29.0</ele><time>2026-05-03T12:33:43.001Z</time></trkpt><trkpt lat="37.92054646466899" lon="15.793875827488911"><ele>29.0</ele><time>2026-05-03T12:33:44.001Z</time></trkpt><trkpt lat="37.92048078346655" lon="15.794206489421022"><ele>29.0</ele><time>2026-05-03T12:33:45.001Z</time></trkpt><trkpt lat="37.92043993434279" lon="15.794541166622443"><ele>29.0</ele><time>2026-05-03T12:33:46.001Z</time></trkpt><trkpt lat="37.92042717279757" lon="15.79488120727217"><ele>29.5</ele><time>2026-05-03T12:33:47.001Z</time></trkpt><trkpt lat="37.92043460080287" lon="15.795221957893053"><ele>30.0</ele><time>2026-05-03T12:33:48.001Z</time></trkpt><trkpt lat="37.92045728127199" lon="15.79555636029403"><ele>30.0</ele><time>2026-05-03T12:33:49.001Z</time></trkpt><trkpt lat="37.920486277242475" lon="15.795897944634744"><ele>30.0</ele><time>2026-05-03T12:33:50.001Z</time></trkpt><trkpt lat="37.92051160151014" lon="15.796231109882028"><ele>27.5</ele><time>2026-05-03T12:33:51.001Z</time></trkpt><trkpt lat="37.92053052370245" lon="15.796575167229786"><ele>25.0</ele><time>2026-05-03T12:33:52.001Z</time></trkpt><trkpt lat="37.92054532340749" lon="15.796915791214985"><ele>23.0</ele><time>2026-05-03T12:33:53.001Z</time></trkpt><trkpt lat="37.92056318562199" lon="15.797258614439706"><ele>21.0</ele><time>2026-05-03T12:33:54.001Z</time></trkpt><trkpt lat="37.92058137310243" lon="15.797603317134202"><ele>20.0</ele><time>2026-05-03T12:33:55.001Z</time></trkpt><trkpt lat="37.92059657755985" lon="15.797951937001828"><ele>19.0</ele><time>2026-05-03T12:33:56.001Z</time></trkpt><trkpt lat="37.92061588652819" lon="15.798294078369322"><ele>18.5</ele><time>2026-05-03T12:33:57.001Z</time></trkpt><trkpt lat="37.92063814627749" lon="15.798636987927406"><ele>18.0</ele><time>2026-05-03T12:33:58.001Z</time></trkpt><trkpt lat="37.920650706836135" lon="15.79896795887841"><ele>18.0</ele><time>2026-05-03T12:33:59.001Z</time></trkpt><trkpt lat="37.92067125110216" lon="15.799317888173647"><ele>18.0</ele><time>2026-05-03T12:34:00.001Z</time></trkpt><trkpt lat="37.92069161989279" lon="15.799657311324701"><ele>18.0</ele><time>2026-05-03T12:34:01.001Z</time></trkpt><trkpt lat="37.92070971133016" lon="15.799998760582124"><ele>18.0</ele><time>2026-05-03T12:34:02.001Z</time></trkpt><trkpt lat="37.92072638769161" lon="15.800344157731654"><ele>18.0</ele><time>2026-05-03T12:34:03.001Z</time></trkpt><trkpt lat="37.92074414626412" lon="15.800684600286553"><ele>18.0</ele><time>2026-05-03T12:34:04.001Z</time></trkpt><trkpt lat="37.92075911974368" lon="15.80100745643589"><ele>17.0</ele><time>2026-05-03T12:34:05.001Z</time></trkpt><trkpt lat="37.92076960152124" lon="15.80131348246307"><ele>16.0</ele><time>2026-05-03T12:34:05.999Z</time></trkpt><trkpt lat="37.92077122853523" lon="15.801595112335468"><ele>15.333333333333332</ele><time>2026-05-03T12:34:06.999Z</time></trkpt><trkpt lat="37.92077505868376" lon="15.80186505860855"><ele>14.666666666666668</ele><time>2026-05-03T12:34:08Z</time></trkpt><trkpt lat="37.92077758398568" lon="15.802114146079976"><ele>14.0</ele><time>2026-05-03T12:34:08.999Z</time></trkpt><trkpt lat="37.92077999630665" lon="15.8023330427423"><ele>14.0</ele><time>2026-05-03T12:34:10Z</time></trkpt><trkpt lat="37.92078483572609" lon="15.802553294795944"><ele>14.0</ele><time>2026-05-03T12:34:11Z</time></trkpt><trkpt lat="37.92078136042499" lon="15.802743306217645"><ele>14.0</ele><time>2026-05-03T12:34:12Z</time></trkpt><trkpt lat="37.92076265312175" lon="15.802913086728145"><ele>13.799999999999999</ele><time>2026-05-03T12:34:13Z</time></trkpt><trkpt lat="37.920722614847755" lon="15.803043095531637"><ele>13.599999999999998</ele><time>2026-05-03T12:34:14Z</time></trkpt><trkpt lat="37.920699844503986" lon="15.803161190026234"><ele>13.4</ele><time>2026-05-03T12:34:15Z</time></trkpt><trkpt lat="37.920724732043645" lon="15.803284403571451"><ele>13.2</ele><time>2026-05-03T12:34:16Z</time></trkpt><trkpt lat="37.92081680358933" lon="15.803363009677796"><ele>13.0</ele><time>2026-05-03T12:34:17Z</time></trkpt><trkpt lat="37.92079744494261" lon="15.803583680277812"><ele>11.333333333333332</ele><time>2026-05-03T12:34:18Z</time></trkpt><trkpt lat="37.92080092518179" lon="15.803765987975595"><ele>9.666666666666666</ele><time>2026-05-03T12:34:19Z</time></trkpt><trkpt lat="37.92080423479906" lon="15.80397075666686"><ele>8.0</ele><time>2026-05-03T12:34:20Z</time></trkpt><trkpt lat="37.92080473963513" lon="15.804196276030545"><ele>8.333333333333332</ele><time>2026-05-03T12:34:21Z</time></trkpt><trkpt lat="37.92080506061546" lon="15.804435872990044"><ele>8.666666666666666</ele><time>2026-05-03T12:34:22Z</time></trkpt><trkpt lat="37.920807034871416" lon="15.804700814417034"><ele>9.0</ele><time>2026-05-03T12:34:23Z</time></trkpt><trkpt lat="37.9208089039932" lon="15.804972415015337"><ele>9.5</ele><time>2026-05-03T12:34:24Z</time></trkpt><trkpt lat="37.920812128222984" lon="15.805260379866569"><ele>10.0</ele><time>2026-05-03T12:34:25Z</time></trkpt><trkpt lat="37.92081322836871" lon="15.805554349093192"><ele>10.0</ele><time>2026-05-03T12:34:26Z</time></trkpt><trkpt lat="37.920814719995235" lon="15.805846796576251"><ele>10.0</ele><time>2026-05-03T12:34:27Z</time></trkpt><trkpt lat="37.92081748286548" lon="15.806140247987264"><ele>10.5</ele><time>2026-05-03T12:34:28Z</time></trkpt><trkpt lat="37.920825554918785" lon="15.806427193686725"><ele>11.0</ele><time>2026-05-03T12:34:29Z</time></trkpt><trkpt lat="37.92083091105413" lon="15.80673054828778"><ele>12.0</ele><time>2026-05-03T12:34:30Z</time></trkpt><trkpt lat="37.920819553050116" lon="15.80703911823676"><ele>13.0</ele><time>2026-05-03T12:34:31Z</time></trkpt><trkpt lat="37.9208023176969" lon="15.807351284365804"><ele>12.5</ele><time>2026-05-03T12:34:32Z</time></trkpt><trkpt lat="37.920791236127194" lon="15.807672125114875"><ele>12.0</ele><time>2026-05-03T12:34:33Z</time></trkpt><trkpt lat="37.92078497761726" lon="15.807994404608259"><ele>12.0</ele><time>2026-05-03T12:34:34Z</time></trkpt><trkpt lat="37.920783758837295" lon="15.808319241814319"><ele>12.0</ele><time>2026-05-03T12:34:35Z</time></trkpt><trkpt lat="37.92077988403866" lon="15.808658538702879"><ele>11.5</ele><time>2026-05-03T12:34:36Z</time></trkpt><trkpt lat="37.92077638799119" lon="15.808999256281137"><ele>11.0</ele><time>2026-05-03T12:34:37Z</time></trkpt><trkpt lat="37.92077591563547" lon="15.809340551054982"><ele>10.5</ele><time>2026-05-03T12:34:38Z</time></trkpt><trkpt lat="37.920770691567995" lon="15.809681290689426"><ele>10.0</ele><time>2026-05-03T12:34:39Z</time></trkpt><trkpt lat="37.92076512443415" lon="15.810017088212751"><ele>9.5</ele><time>2026-05-03T12:34:40Z</time></trkpt><trkpt lat="37.920758783750244" lon="15.81035169189132"><ele>9.0</ele><time>2026-05-03T12:34:41Z</time></trkpt><trkpt lat="37.92075016383069" lon="15.81068331851071"><ele>9.5</ele><time>2026-05-03T12:34:42Z</time></trkpt><trkpt lat="37.92074869594543" lon="15.811012323304913"><ele>10.0</ele><time>2026-05-03T12:34:43Z</time></trkpt><trkpt lat="37.920743856241174" lon="15.811351514944048"><ele>10.0</ele><time>2026-05-03T12:34:44Z</time></trkpt><trkpt lat="37.920750102604124" lon="15.81166769920216"><ele>10.0</ele><time>2026-05-03T12:34:45Z</time></trkpt><trkpt lat="37.920745886246834" lon="15.812017224551733"><ele>10.5</ele><time>2026-05-03T12:34:46Z</time></trkpt><trkpt lat="37.92074459641331" lon="15.812349178803494"><ele>11.0</ele><time>2026-05-03T12:34:47Z</time></trkpt><trkpt lat="37.92074141928575" lon="15.81268596813729"><ele>11.0</ele><time>2026-05-03T12:34:48Z</time></trkpt><trkpt lat="37.92073372422355" lon="15.813018379582827"><ele>11.0</ele><time>2026-05-03T12:34:49Z</time></trkpt><trkpt lat="37.92072270516085" lon="15.813357222403187"><ele>11.0</ele><time>2026-05-03T12:34:50Z</time></trkpt><trkpt lat="37.92070686913051" lon="15.813691099316237"><ele>11.0</ele><time>2026-05-03T12:34:51Z</time></trkpt><trkpt lat="37.92068943168593" lon="15.8140264532698"><ele>10.5</ele><time>2026-05-03T12:34:52Z</time></trkpt><trkpt lat="37.920674558012344" lon="15.814359762845429"><ele>10.0</ele><time>2026-05-03T12:34:53Z</time></trkpt><trkpt lat="37.92066329023045" lon="15.814695998150889"><ele>10.0</ele><time>2026-05-03T12:34:54Z</time></trkpt><trkpt lat="37.920652162427544" lon="15.815028399327707"><ele>10.0</ele><time>2026-05-03T12:34:55Z</time></trkpt><trkpt lat="37.92064546984952" lon="15.815361106070826"><ele>12.5</ele><time>2026-05-03T12:34:56Z</time></trkpt><trkpt lat="37.92063536400912" lon="15.815690836220794"><ele>15.0</ele><time>2026-05-03T12:34:57Z</time></trkpt><trkpt lat="37.9206195449188" lon="15.816022975928902"><ele>19.5</ele><time>2026-05-03T12:34:58Z</time></trkpt><trkpt lat="37.920603606471296" lon="15.816356508937005"><ele>24.0</ele><time>2026-05-03T12:34:59Z</time></trkpt><trkpt lat="37.92059116050223" lon="15.816693127404797"><ele>21.0</ele><time>2026-05-03T12:35:00Z</time></trkpt><trkpt lat="37.92057299893543" lon="15.817018523444286"><ele>18.0</ele><time>2026-05-03T12:35:01Z</time></trkpt><trkpt lat="37.92055349098226" lon="15.817346071802245"><ele>19.0</ele><time>2026-05-03T12:35:02Z</time></trkpt><trkpt lat="37.9205390686138" lon="15.817688494335648"><ele>20.0</ele><time>2026-05-03T12:35:03Z</time></trkpt><trkpt lat="37.920516292712044" lon="15.818021835274337"><ele>20.0</ele><time>2026-05-03T12:35:04Z</time></trkpt><trkpt lat="37.92049764223384" lon="15.818355239233842"><ele>20.0</ele><time>2026-05-03T12:35:05Z</time></trkpt><trkpt lat="37.92048221509299" lon="15.818688265255693"><ele>26.0</ele><time>2026-05-03T12:35:06Z</time></trkpt><trkpt lat="37.92046896118431" lon="15.819021583496058"><ele>32.0</ele><time>2026-05-03T12:35:07Z</time></trkpt><trkpt lat="37.920455027443914" lon="15.81936012383203"><ele>34.0</ele><time>2026-05-03T12:35:08Z</time></trkpt><trkpt lat="37.92043552543324" lon="15.819697947261547"><ele>36.0</ele><time>2026-05-03T12:35:09Z</time></trkpt><trkpt lat="37.9204194041784" lon="15.820038796982656"><ele>37.5</ele><time>2026-05-03T12:35:10Z</time></trkpt><trkpt lat="37.92040449641455" lon="15.820373226133297"><ele>39.0</ele><time>2026-05-03T12:35:11Z</time></trkpt><trkpt lat="37.92039018445478" lon="15.820708051677219"><ele>37.0</ele><time>2026-05-03T12:35:12Z</time></trkpt><trkpt lat="37.920379517384006" lon="15.821042218445248"><ele>35.0</ele><time>2026-05-03T12:35:13Z</time></trkpt><trkpt lat="37.92037346231779" lon="15.82137676613181"><ele>35.0</ele><time>2026-05-03T12:35:14Z</time></trkpt><trkpt lat="37.92037869057159" lon="15.82170773033635"><ele>35.0</ele><time>2026-05-03T12:35:15Z</time></trkpt><trkpt lat="37.920389638286544" lon="15.82203766630182"><ele>28.0</ele><time>2026-05-03T12:35:16Z</time></trkpt><trkpt lat="37.920412226202075" lon="15.822371657750868"><ele>21.0</ele><time>2026-05-03T12:35:17Z</time></trkpt><trkpt lat="37.92042996276408" lon="15.822703547857659"><ele>19.0</ele><time>2026-05-03T12:35:18Z</time></trkpt><trkpt lat="37.92045372543522" lon="15.823036881942079"><ele>17.0</ele><time>2026-05-03T12:35:19Z</time></trkpt><trkpt lat="37.92048339266333" lon="15.823353649736015"><ele>18.5</ele><time>2026-05-03T12:35:20Z</time></trkpt><trkpt lat="37.92053549355864" lon="15.823677291999172"><ele>20.0</ele><time>2026-05-03T12:35:21Z</time></trkpt><trkpt lat="37.92061479974213" lon="15.823988787429172"><ele>20.0</ele><time>2026-05-03T12:35:22.001Z</time></trkpt><trkpt lat="37.92071981826272" lon="15.824290894003928"><ele>20.0</ele><time>2026-05-03T12:35:23.001Z</time></trkpt><trkpt lat="37.920840595383076" lon="15.824588053606043"><ele>26.0</ele><time>2026-05-03T12:35:24.001Z</time></trkpt><trkpt lat="37.920968832549555" lon="15.824882399641561"><ele>32.0</ele><time>2026-05-03T12:35:25.001Z</time></trkpt><trkpt lat="37.92110514209454" lon="15.825170171049308"><ele>32.0</ele><time>2026-05-03T12:35:26.001Z</time></trkpt><trkpt lat="37.921243064958205" lon="15.825451854401607"><ele>32.0</ele><time>2026-05-03T12:35:27.001Z</time></trkpt><trkpt lat="37.92137567081386" lon="15.825735239061029"><ele>27.5</ele><time>2026-05-03T12:35:28.001Z</time></trkpt><trkpt lat="37.921502558060006" lon="15.826026221594557"><ele>23.0</ele><time>2026-05-03T12:35:29.001Z</time></trkpt><trkpt lat="37.921624769069325" lon="15.82632296887338"><ele>28.0</ele><time>2026-05-03T12:35:30.001Z</time></trkpt><trkpt lat="37.92173893457384" lon="15.826626927970043"><ele>33.0</ele><time>2026-05-03T12:35:31.001Z</time></trkpt><trkpt lat="37.92183660963396" lon="15.826940520700838"><ele>33.0</ele><time>2026-05-03T12:35:32.001Z</time></trkpt><trkpt lat="37.92191129118482" lon="15.827262171989922"><ele>33.0</ele><time>2026-05-03T12:35:33.001Z</time></trkpt><trkpt lat="37.92197855174356" lon="15.827581512183874"><ele>30.0</ele><time>2026-05-03T12:35:34.001Z</time></trkpt><trkpt lat="37.922015935237155" lon="15.827907449847507"><ele>27.0</ele><time>2026-05-03T12:35:35.001Z</time></trkpt><trkpt lat="37.92201365889891" lon="15.828244961900348"><ele>28.5</ele><time>2026-05-03T12:35:36.001Z</time></trkpt><trkpt lat="37.92201951678917" lon="15.828576952771748"><ele>30.0</ele><time>2026-05-03T12:35:37.001Z</time></trkpt><trkpt lat="37.92202165016349" lon="15.828912107173675"><ele>30.0</ele><time>2026-05-03T12:35:38.001Z</time></trkpt><trkpt lat="37.92202545903653" lon="15.829253455325047"><ele>30.0</ele><time>2026-05-03T12:35:39.001Z</time></trkpt><trkpt lat="37.92203338803206" lon="15.829593107114903"><ele>31.5</ele><time>2026-05-03T12:35:40.001Z</time></trkpt><trkpt lat="37.92204266166668" lon="15.829933752279453"><ele>33.0</ele><time>2026-05-03T12:35:41.001Z</time></trkpt><trkpt lat="37.92205343368843" lon="15.830276202854005"><ele>34.0</ele><time>2026-05-03T12:35:42.001Z</time></trkpt><trkpt lat="37.922062554427484" lon="15.830614355364808"><ele>35.0</ele><time>2026-05-03T12:35:43.001Z</time></trkpt><trkpt lat="37.92206570410714" lon="15.83094775540807"><ele>37.0</ele><time>2026-05-03T12:35:44.001Z</time></trkpt><trkpt lat="37.92207172584615" lon="15.831276562996926"><ele>39.0</ele><time>2026-05-03T12:35:45.001Z</time></trkpt><trkpt lat="37.92208734255933" lon="15.831606708694364"><ele>38.0</ele><time>2026-05-03T12:35:46.001Z</time></trkpt><trkpt lat="37.922115651977045" lon="15.831935686792283"><ele>37.0</ele><time>2026-05-03T12:35:47.001Z</time></trkpt><trkpt lat="37.92215879176909" lon="15.832262236181096"><ele>37.0</ele><time>2026-05-03T12:35:48.001Z</time></trkpt><trkpt lat="37.92223225332354" lon="15.832594993319562"><ele>37.0</ele><time>2026-05-03T12:35:49.001Z</time></trkpt><trkpt lat="37.92231823423353" lon="15.832905690354202"><ele>33.0</ele><time>2026-05-03T12:35:50.001Z</time></trkpt><trkpt lat="37.922409450955705" lon="15.833216540259182"><ele>29.0</ele><time>2026-05-03T12:35:51.001Z</time></trkpt><trkpt lat="37.9225084840137" lon="15.833528206437922"><ele>31.5</ele><time>2026-05-03T12:35:52.001Z</time></trkpt><trkpt lat="37.9226052722569" lon="15.833831219842528"><ele>34.0</ele><time>2026-05-03T12:35:53.001Z</time></trkpt><trkpt lat="37.92270390486611" lon="15.834150616591257"><ele>32.0</ele><time>2026-05-03T12:35:54.001Z</time></trkpt><trkpt lat="37.92278434585997" lon="15.834471917183665"><ele>30.0</ele><time>2026-05-03T12:35:55.001Z</time></trkpt><trkpt lat="37.922840931884934" lon="15.834795553985835"><ele>30.0</ele><time>2026-05-03T12:35:56.001Z</time></trkpt><trkpt lat="37.9228842392826" lon="15.835125510842328"><ele>30.0</ele><time>2026-05-03T12:35:57.001Z</time></trkpt><trkpt lat="37.922900677776994" lon="15.835457996234982"><ele>27.0</ele><time>2026-05-03T12:35:58.001Z</time></trkpt><trkpt lat="37.92289648849774" lon="15.835793879552408"><ele>24.0</ele><time>2026-05-03T12:35:59.001Z</time></trkpt><trkpt lat="37.92288186629926" lon="15.836131065799783"><ele>22.0</ele><time>2026-05-03T12:36:00.001Z</time></trkpt><trkpt lat="37.92286142256553" lon="15.836461482530387"><ele>20.0</ele><time>2026-05-03T12:36:01.001Z</time></trkpt><trkpt lat="37.922849541639515" lon="15.836798920979577"><ele>17.5</ele><time>2026-05-03T12:36:02.001Z</time></trkpt><trkpt lat="37.92284478149499" lon="15.837134594261148"><ele>15.0</ele><time>2026-05-03T12:36:03.001Z</time></trkpt><trkpt lat="37.92284368360759" lon="15.837466694801487"><ele>14.5</ele><time>2026-05-03T12:36:04.001Z</time></trkpt><trkpt lat="37.92283936837435" lon="15.837800069385588"><ele>14.0</ele><time>2026-05-03T12:36:05.001Z</time></trkpt><trkpt lat="37.922831437635935" lon="15.838139170573356"><ele>13.5</ele><time>2026-05-03T12:36:06.001Z</time></trkpt><trkpt lat="37.92281986651836" lon="15.838474327659751"><ele>13.0</ele><time>2026-05-03T12:36:07.001Z</time></trkpt><trkpt lat="37.922804984677086" lon="15.838809815367672"><ele>13.0</ele><time>2026-05-03T12:36:08.001Z</time></trkpt><trkpt lat="37.922802237161484" lon="15.839146371931891"><ele>13.0</ele><time>2026-05-03T12:36:09.001Z</time></trkpt><trkpt lat="37.92279536593742" lon="15.83948036729393"><ele>13.0</ele><time>2026-05-03T12:36:10.001Z</time></trkpt><trkpt lat="37.92278881768779" lon="15.839814484906409"><ele>13.0</ele><time>2026-05-03T12:36:11.001Z</time></trkpt><trkpt lat="37.92278096895439" lon="15.840149854684988"><ele>18.0</ele><time>2026-05-03T12:36:11.999Z</time></trkpt><trkpt lat="37.92278125895066" lon="15.840485011088054"><ele>23.0</ele><time>2026-05-03T12:36:12.999Z</time></trkpt><trkpt lat="37.92279681694373" lon="15.840819563541338"><ele>23.0</ele><time>2026-05-03T12:36:13.999Z</time></trkpt><trkpt lat="37.9228281502714" lon="15.841152502299723"><ele>23.0</ele><time>2026-05-03T12:36:14.999Z</time></trkpt><trkpt lat="37.922873252857606" lon="15.841481977561978"><ele>22.5</ele><time>2026-05-03T12:36:15.999Z</time></trkpt><trkpt lat="37.922929556022154" lon="15.841807412978532"><ele>22.0</ele><time>2026-05-03T12:36:16.999Z</time></trkpt><trkpt lat="37.922994405458624" lon="15.842131727658742"><ele>22.0</ele><time>2026-05-03T12:36:18Z</time></trkpt><trkpt lat="37.923067816665025" lon="15.842436200870718"><ele>22.0</ele><time>2026-05-03T12:36:19Z</time></trkpt><trkpt lat="37.92312133583055" lon="15.84276735175508"><ele>19.5</ele><time>2026-05-03T12:36:20Z</time></trkpt><trkpt lat="37.92317680821378" lon="15.843093928656224"><ele>17.0</ele><time>2026-05-03T12:36:21Z</time></trkpt><trkpt lat="37.92323153355248" lon="15.843420340388166"><ele>17.0</ele><time>2026-05-03T12:36:22Z</time></trkpt><trkpt lat="37.92328600971977" lon="15.843748117449433"><ele>17.0</ele><time>2026-05-03T12:36:23Z</time></trkpt><trkpt lat="37.92333593527782" lon="15.844082044377163"><ele>19.0</ele><time>2026-05-03T12:36:24Z</time></trkpt><trkpt lat="37.92336838499926" lon="15.844417178788996"><ele>21.0</ele><time>2026-05-03T12:36:25Z</time></trkpt><trkpt lat="37.92339101856715" lon="15.844751050022746"><ele>28.5</ele><time>2026-05-03T12:36:26Z</time></trkpt><trkpt lat="37.92340865705981" lon="15.845086263047708"><ele>36.0</ele><time>2026-05-03T12:36:27Z</time></trkpt><trkpt lat="37.92343122590018" lon="15.845424082866051"><ele>39.0</ele><time>2026-05-03T12:36:28Z</time></trkpt><trkpt lat="37.92346145534879" lon="15.845757059416274"><ele>42.0</ele><time>2026-05-03T12:36:29Z</time></trkpt><trkpt lat="37.92349052502129" lon="15.846084361208318"><ele>42.0</ele><time>2026-05-03T12:36:30Z</time></trkpt><trkpt lat="37.92352008961467" lon="15.84641263601428"><ele>42.0</ele><time>2026-05-03T12:36:31Z</time></trkpt><trkpt lat="37.92356128231716" lon="15.846737576116869"><ele>36.5</ele><time>2026-05-03T12:36:32Z</time></trkpt><trkpt lat="37.923610207795456" lon="15.847074034977751"><ele>31.0</ele><time>2026-05-03T12:36:33Z</time></trkpt><trkpt lat="37.92367817549159" lon="15.847395345231249"><ele>29.0</ele><time>2026-05-03T12:36:34Z</time></trkpt><trkpt lat="37.92374231483284" lon="15.847718619668516"><ele>27.0</ele><time>2026-05-03T12:36:35Z</time></trkpt><trkpt lat="37.9237988097295" lon="15.84804299049877"><ele>27.0</ele><time>2026-05-03T12:36:36Z</time></trkpt><trkpt lat="37.92385339739272" lon="15.84837250592888"><ele>27.0</ele><time>2026-05-03T12:36:37Z</time></trkpt><trkpt lat="37.92391053855614" lon="15.848695896983282"><ele>24.5</ele><time>2026-05-03T12:36:38Z</time></trkpt><trkpt lat="37.923973694696606" lon="15.849023032512045"><ele>22.0</ele><time>2026-05-03T12:36:39Z</time></trkpt><trkpt lat="37.92404399695366" lon="15.84934619436392"><ele>20.0</ele><time>2026-05-03T12:36:40Z</time></trkpt><trkpt lat="37.92410197737463" lon="15.849661025622131"><ele>18.0</ele><time>2026-05-03T12:36:41Z</time></trkpt><trkpt lat="37.924170502141976" lon="15.849988098321964"><ele>22.0</ele><time>2026-05-03T12:36:42Z</time></trkpt><trkpt lat="37.924235338018214" lon="15.850313182133434"><ele>26.0</ele><time>2026-05-03T12:36:43Z</time></trkpt><trkpt lat="37.92429958938205" lon="15.85064159146278"><ele>25.0</ele><time>2026-05-03T12:36:44Z</time></trkpt><trkpt lat="37.9243742983481" lon="15.850958685698165"><ele>24.0</ele><time>2026-05-03T12:36:45Z</time></trkpt><trkpt lat="37.924444019683385" lon="15.851283180797438"><ele>24.0</ele><time>2026-05-03T12:36:46Z</time></trkpt><trkpt lat="37.92453391789164" lon="15.851596595803013"><ele>24.0</ele><time>2026-05-03T12:36:47Z</time></trkpt><trkpt lat="37.92464057029747" lon="15.851904849003336"><ele>21.0</ele><time>2026-05-03T12:36:48Z</time></trkpt><trkpt lat="37.92476770685036" lon="15.852189852384264"><ele>18.0</ele><time>2026-05-03T12:36:49Z</time></trkpt><trkpt lat="37.92491501236477" lon="15.85246211478445"><ele>21.0</ele><time>2026-05-03T12:36:50Z</time></trkpt><trkpt lat="37.92507639388433" lon="15.852723957865852"><ele>24.0</ele><time>2026-05-03T12:36:51Z</time></trkpt><trkpt lat="37.925243877508635" lon="15.852983431559622"><ele>24.0</ele><time>2026-05-03T12:36:52Z</time></trkpt><trkpt lat="37.925416281079656" lon="15.853239982784897"><ele>24.0</ele><time>2026-05-03T12:36:53Z</time></trkpt><trkpt lat="37.925585189837086" lon="15.853504707007021"><ele>25.0</ele><time>2026-05-03T12:36:54Z</time></trkpt><trkpt lat="37.92574735174699" lon="15.853770350472606"><ele>26.0</ele><time>2026-05-03T12:36:55Z</time></trkpt><trkpt lat="37.92591059676714" lon="15.854036970687835"><ele>25.0</ele><time>2026-05-03T12:36:56Z</time></trkpt><trkpt lat="37.92607473136329" lon="15.854298053658509"><ele>24.0</ele><time>2026-05-03T12:36:57Z</time></trkpt><trkpt lat="37.92624237767783" lon="15.85455361996891"><ele>24.0</ele><time>2026-05-03T12:36:58Z</time></trkpt><trkpt lat="37.92641058570896" lon="15.854813317936237"><ele>24.0</ele><time>2026-05-03T12:36:59Z</time></trkpt><trkpt lat="37.92657772274749" lon="15.855073638012804"><ele>26.0</ele><time>2026-05-03T12:37:00Z</time></trkpt><trkpt lat="37.92674150934893" lon="15.855337110456052"><ele>28.0</ele><time>2026-05-03T12:37:01Z</time></trkpt><trkpt lat="37.926904924430026" lon="15.855598884476226"><ele>28.0</ele><time>2026-05-03T12:37:02Z</time></trkpt><trkpt lat="37.927067078364395" lon="15.85586084667621"><ele>28.0</ele><time>2026-05-03T12:37:03Z</time></trkpt><trkpt lat="37.92722643120152" lon="15.856134142908262"><ele>26.0</ele><time>2026-05-03T12:37:04Z</time></trkpt><trkpt lat="37.92737137924666" lon="15.856418955681393"><ele>24.0</ele><time>2026-05-03T12:37:05Z</time></trkpt><trkpt lat="37.92750263119716" lon="15.856715539448205"><ele>22.5</ele><time>2026-05-03T12:37:06Z</time></trkpt><trkpt lat="37.92762868505406" lon="15.857020419953926"><ele>21.0</ele><time>2026-05-03T12:37:07Z</time></trkpt><trkpt lat="37.927726805801925" lon="15.857318834038821"><ele>20.5</ele><time>2026-05-03T12:37:08Z</time></trkpt><trkpt lat="37.92778961195406" lon="15.857650509321694"><ele>20.0</ele><time>2026-05-03T12:37:09Z</time></trkpt><trkpt lat="37.92786136688355" lon="15.85798391448807"><ele>20.0</ele><time>2026-05-03T12:37:10Z</time></trkpt><trkpt lat="37.92791204562844" lon="15.85830649132713"><ele>20.0</ele><time>2026-05-03T12:37:11Z</time></trkpt><trkpt lat="37.92796889302153" lon="15.858635852268309"><ele>19.5</ele><time>2026-05-03T12:37:12Z</time></trkpt><trkpt lat="37.92803356632309" lon="15.85895970000999"><ele>19.0</ele><time>2026-05-03T12:37:13Z</time></trkpt><trkpt lat="37.92810670248481" lon="15.859275927329731"><ele>17.0</ele><time>2026-05-03T12:37:14Z</time></trkpt><trkpt lat="37.92817950913602" lon="15.859592210336038"><ele>15.0</ele><time>2026-05-03T12:37:15Z</time></trkpt><trkpt lat="37.92824722255497" lon="15.859917249260477"><ele>13.5</ele><time>2026-05-03T12:37:16Z</time></trkpt><trkpt lat="37.928314770822865" lon="15.86023976077701"><ele>12.0</ele><time>2026-05-03T12:37:17Z</time></trkpt><trkpt lat="37.92838393944153" lon="15.860561946453222"><ele>12.5</ele><time>2026-05-03T12:37:18Z</time></trkpt><trkpt lat="37.92845031905974" lon="15.86088521889394"><ele>13.0</ele><time>2026-05-03T12:37:19.001Z</time></trkpt><trkpt lat="37.92851420501288" lon="15.861214801914453"><ele>13.0</ele><time>2026-05-03T12:37:20.001Z</time></trkpt><trkpt lat="37.92858356284987" lon="15.861537115789766"><ele>13.0</ele><time>2026-05-03T12:37:21.001Z</time></trkpt><trkpt lat="37.92864884904711" lon="15.861861250374634"><ele>14.5</ele><time>2026-05-03T12:37:22.001Z</time></trkpt><trkpt lat="37.92871633764457" lon="15.862183519540231"><ele>16.0</ele><time>2026-05-03T12:37:23.001Z</time></trkpt><trkpt lat="37.928782664336104" lon="15.862503986925045"><ele>16.0</ele><time>2026-05-03T12:37:24.001Z</time></trkpt><trkpt lat="37.928847195276056" lon="15.86283087797379"><ele>16.0</ele><time>2026-05-03T12:37:25.001Z</time></trkpt><trkpt lat="37.92891038703201" lon="15.863151874582213"><ele>16.0</ele><time>2026-05-03T12:37:26.001Z</time></trkpt><trkpt lat="37.92897884902187" lon="15.863472708309793"><ele>16.0</ele><time>2026-05-03T12:37:27.001Z</time></trkpt><trkpt lat="37.929049043651034" lon="15.863792410198972"><ele>16.0</ele><time>2026-05-03T12:37:28.001Z</time></trkpt><trkpt lat="37.92911761691068" lon="15.864113699679766"><ele>16.0</ele><time>2026-05-03T12:37:29.001Z</time></trkpt><trkpt lat="37.92918764334181" lon="15.864436653706775"><ele>17.0</ele><time>2026-05-03T12:37:30.001Z</time></trkpt><trkpt lat="37.929255104942676" lon="15.864758807095527"><ele>18.0</ele><time>2026-05-03T12:37:31.001Z</time></trkpt><trkpt lat="37.929318152415945" lon="15.865080759538111"><ele>17.5</ele><time>2026-05-03T12:37:32.001Z</time></trkpt><trkpt lat="37.92938973136916" lon="15.865404419304578"><ele>17.0</ele><time>2026-05-03T12:37:33.001Z</time></trkpt><trkpt lat="37.92945599040479" lon="15.865726435259052"><ele>17.5</ele><time>2026-05-03T12:37:34.001Z</time></trkpt><trkpt lat="37.92952103583338" lon="15.866046054762702"><ele>18.0</ele><time>2026-05-03T12:37:35.001Z</time></trkpt><trkpt lat="37.929588436647975" lon="15.866366593261288"><ele>18.0</ele><time>2026-05-03T12:37:36.001Z</time></trkpt><trkpt lat="37.9296566343519" lon="15.86669257948"><ele>18.0</ele><time>2026-05-03T12:37:37.001Z</time></trkpt><trkpt lat="37.92972556306744" lon="15.867012673141113"><ele>18.5</ele><time>2026-05-03T12:37:38.001Z</time></trkpt><trkpt lat="37.92979073821034" lon="15.867340202943897"><ele>19.0</ele><time>2026-05-03T12:37:39.001Z</time></trkpt><trkpt lat="37.92986080473508" lon="15.86766558935635"><ele>19.0</ele><time>2026-05-03T12:37:40.001Z</time></trkpt><trkpt lat="37.92993313507823" lon="15.867993910455528"><ele>19.0</ele><time>2026-05-03T12:37:41.001Z</time></trkpt><trkpt lat="37.92999988760565" lon="15.868321760478265"><ele>17.5</ele><time>2026-05-03T12:37:42.001Z</time></trkpt><trkpt lat="37.930054748794824" lon="15.868654458842709"><ele>16.0</ele><time>2026-05-03T12:37:43.001Z</time></trkpt><trkpt lat="37.93008230169671" lon="15.868983902556185"><ele>15.0</ele><time>2026-05-03T12:37:44.001Z</time></trkpt><trkpt lat="37.93008053533136" lon="15.869321054586825"><ele>14.0</ele><time>2026-05-03T12:37:45.001Z</time></trkpt><trkpt lat="37.93007053057877" lon="15.86965273527804"><ele>14.0</ele><time>2026-05-03T12:37:46.001Z</time></trkpt><trkpt lat="37.93004912584447" lon="15.869983680663603"><ele>14.0</ele><time>2026-05-03T12:37:47.001Z</time></trkpt><trkpt lat="37.93002021646127" lon="15.870320946343453"><ele>14.0</ele><time>2026-05-03T12:37:48.001Z</time></trkpt><trkpt lat="37.929991631803944" lon="15.870650290283573"><ele>14.0</ele><time>2026-05-03T12:37:49.001Z</time></trkpt><trkpt lat="37.92996670040133" lon="15.870988791641876"><ele>13.5</ele><time>2026-05-03T12:37:50.001Z</time></trkpt><trkpt lat="37.9299430536193" lon="15.871322050281638"><ele>13.0</ele><time>2026-05-03T12:37:51.001Z</time></trkpt><trkpt lat="37.92991522881238" lon="15.871659440966633"><ele>12.5</ele><time>2026-05-03T12:37:52.001Z</time></trkpt><trkpt lat="37.929889305683176" lon="15.871995264501516"><ele>12.0</ele><time>2026-05-03T12:37:53.001Z</time></trkpt><trkpt lat="37.929863302466266" lon="15.872327156439095"><ele>12.0</ele><time>2026-05-03T12:37:54.001Z</time></trkpt><trkpt lat="37.92983746068844" lon="15.872657115728412"><ele>12.0</ele><time>2026-05-03T12:37:55.001Z</time></trkpt><trkpt lat="37.929813426448185" lon="15.872991411425794"><ele>12.0</ele><time>2026-05-03T12:37:56.001Z</time></trkpt><trkpt lat="37.92978904205437" lon="15.87332548682862"><ele>12.0</ele><time>2026-05-03T12:37:57.001Z</time></trkpt><trkpt lat="37.92976278639337" lon="15.873659218619407"><ele>11.0</ele><time>2026-05-03T12:37:58.001Z</time></trkpt><trkpt lat="37.92973694201221" lon="15.873991091684148"><ele>10.0</ele><time>2026-05-03T12:37:59.001Z</time></trkpt><trkpt lat="37.9297085201948" lon="15.874320386616441"><ele>10.0</ele><time>2026-05-03T12:38:00.001Z</time></trkpt><trkpt lat="37.92968897529619" lon="15.874644446375013"><ele>10.0</ele><time>2026-05-03T12:38:01.001Z</time></trkpt><trkpt lat="37.929661053976815" lon="15.874978265785101"><ele>9.5</ele><time>2026-05-03T12:38:02.001Z</time></trkpt><trkpt lat="37.92963133733311" lon="15.875321198995856"><ele>9.0</ele><time>2026-05-03T12:38:03.001Z</time></trkpt><trkpt lat="37.92960573884808" lon="15.875656737234516"><ele>8.0</ele><time>2026-05-03T12:38:04.001Z</time></trkpt><trkpt lat="37.9295803882798" lon="15.875992269479651"><ele>7.0</ele><time>2026-05-03T12:38:05.001Z</time></trkpt><trkpt lat="37.929551705321266" lon="15.876329179444907"><ele>7.0</ele><time>2026-05-03T12:38:06.001Z</time></trkpt><trkpt lat="37.929520438406456" lon="15.876664577432617"><ele>7.0</ele><time>2026-05-03T12:38:07.001Z</time></trkpt><trkpt lat="37.92949867096168" lon="15.876992921321929"><ele>7.25</ele><time>2026-05-03T12:38:08.001Z</time></trkpt><trkpt lat="37.92948479827303" lon="15.877198651091184"><ele>7.5</ele><time>2026-05-03T12:38:09.001Z</time></trkpt><trkpt lat="37.929473372082626" lon="15.877366539225747"><ele>7.75</ele><time>2026-05-03T12:38:10.001Z</time></trkpt><trkpt lat="37.92943749706465" lon="15.877440478216124"><ele>8.0</ele><time>2026-05-03T12:38:17.001Z</time></trkpt><trkpt lat="37.92942390829221" lon="15.877565055030404"><ele>8.25</ele><time>2026-05-03T12:38:20Z</time></trkpt><trkpt lat="37.929423747042755" lon="15.877750129555876"><ele>8.5</ele><time>2026-05-03T12:38:22Z</time></trkpt><trkpt lat="37.92940662224501" lon="15.877880653059195"><ele>8.75</ele><time>2026-05-03T12:38:23Z</time></trkpt><trkpt lat="37.929401467675866" lon="15.878028147074751"><ele>9.0</ele><time>2026-05-03T12:38:24Z</time></trkpt><trkpt lat="37.929395603636955" lon="15.878213535380661"><ele>9.0</ele><time>2026-05-03T12:38:25Z</time></trkpt><trkpt lat="37.929386575159626" lon="15.878407362440608"><ele>9.0</ele><time>2026-05-03T12:38:26Z</time></trkpt><trkpt lat="37.92936790080182" lon="15.87862062619899"><ele>9.0</ele><time>2026-05-03T12:38:27Z</time></trkpt><trkpt lat="37.92934767772472" lon="15.878839148051167"><ele>9.0</ele><time>2026-05-03T12:38:28Z</time></trkpt><trkpt lat="37.929327895031754" lon="15.879074780568235"><ele>9.0</ele><time>2026-05-03T12:38:29Z</time></trkpt><trkpt lat="37.929306817801816" lon="15.879321106029574"><ele>9.0</ele><time>2026-05-03T12:38:30Z</time></trkpt><trkpt lat="37.92927640356085" lon="15.879573761951903"><ele>9.0</ele><time>2026-05-03T12:38:31Z</time></trkpt><trkpt lat="37.92924236257136" lon="15.879833538746187"><ele>9.0</ele><time>2026-05-03T12:38:32Z</time></trkpt><trkpt lat="37.92920453615141" lon="15.880096097906048"><ele>9.0</ele><time>2026-05-03T12:38:33Z</time></trkpt><trkpt lat="37.92916916558634" lon="15.880363078026482"><ele>8.333333333333334</ele><time>2026-05-03T12:38:34Z</time></trkpt><trkpt lat="37.92913229986293" lon="15.880621293288835"><ele>7.666666666666667</ele><time>2026-05-03T12:38:35Z</time></trkpt><trkpt lat="37.929095773301455" lon="15.88089267839438"><ele>7.0</ele><time>2026-05-03T12:38:36Z</time></trkpt><trkpt lat="37.92905518449805" lon="15.881145123105664"><ele>7.0</ele><time>2026-05-03T12:38:37Z</time></trkpt><trkpt lat="37.929020933619555" lon="15.881403160101485"><ele>7.0</ele><time>2026-05-03T12:38:38Z</time></trkpt><trkpt lat="37.928995183556594" lon="15.881668590111557"><ele>7.0</ele><time>2026-05-03T12:38:39Z</time></trkpt><trkpt lat="37.928980070171576" lon="15.881940010578328"><ele>7.0</ele><time>2026-05-03T12:38:40Z</time></trkpt><trkpt lat="37.928969913720024" lon="15.882215449920919"><ele>7.0</ele><time>2026-05-03T12:38:41Z</time></trkpt><trkpt lat="37.928973088730515" lon="15.8824941895282"><ele>7.0</ele><time>2026-05-03T12:38:42Z</time></trkpt><trkpt lat="37.9289824767526" lon="15.882775347435782"><ele>7.333333333333334</ele><time>2026-05-03T12:38:43Z</time></trkpt><trkpt lat="37.928984921102725" lon="15.883052068661247"><ele>7.666666666666666</ele><time>2026-05-03T12:38:44Z</time></trkpt><trkpt lat="37.928981877059336" lon="15.883334235008562"><ele>8.0</ele><time>2026-05-03T12:38:45Z</time></trkpt><trkpt lat="37.92898382500527" lon="15.88361204175949"><ele>8.5</ele><time>2026-05-03T12:38:46Z</time></trkpt><trkpt lat="37.92899847513832" lon="15.883894092914632"><ele>9.0</ele><time>2026-05-03T12:38:47Z</time></trkpt><trkpt lat="37.92898334648569" lon="15.884187624815265"><ele>9.5</ele><time>2026-05-03T12:38:48Z</time></trkpt><trkpt lat="37.92897960957535" lon="15.884476950835428"><ele>10.0</ele><time>2026-05-03T12:38:49Z</time></trkpt><trkpt lat="37.92897946257967" lon="15.884771917365814"><ele>10.0</ele><time>2026-05-03T12:38:50Z</time></trkpt><trkpt lat="37.92897286534905" lon="15.885065274826616"><ele>10.0</ele><time>2026-05-03T12:38:51Z</time></trkpt><trkpt lat="37.92896560210362" lon="15.88536465219775"><ele>10.0</ele><time>2026-05-03T12:38:52Z</time></trkpt><trkpt lat="37.92895977170824" lon="15.8856664870879"><ele>10.0</ele><time>2026-05-03T12:38:53Z</time></trkpt><trkpt lat="37.92894887556311" lon="15.88596799615876"><ele>9.5</ele><time>2026-05-03T12:38:54Z</time></trkpt><trkpt lat="37.92893719129622" lon="15.886269045417341"><ele>9.0</ele><time>2026-05-03T12:38:55Z</time></trkpt><trkpt lat="37.92891701408973" lon="15.88656233657331"><ele>8.5</ele><time>2026-05-03T12:38:56Z</time></trkpt><trkpt lat="37.928897412232466" lon="15.88685891157985"><ele>8.0</ele><time>2026-05-03T12:38:57Z</time></trkpt><trkpt lat="37.928869315732705" lon="15.887181051977587"><ele>8.0</ele><time>2026-05-03T12:38:58Z</time></trkpt><trkpt lat="37.92886549227641" lon="15.887456213092007"><ele>8.0</ele><time>2026-05-03T12:38:59Z</time></trkpt><trkpt lat="37.92884978039812" lon="15.88775145006637"><ele>7.0</ele><time>2026-05-03T12:39:00Z</time></trkpt><trkpt lat="37.92882516327214" lon="15.88805386599203"><ele>6.0</ele><time>2026-05-03T12:39:01Z</time></trkpt><trkpt lat="37.928804096731646" lon="15.88834876084361"><ele>5.5</ele><time>2026-05-03T12:39:02Z</time></trkpt><trkpt lat="37.928786382315835" lon="15.888645974880617"><ele>5.0</ele><time>2026-05-03T12:39:03Z</time></trkpt><trkpt lat="37.92877181844485" lon="15.88895061200956"><ele>5.0</ele><time>2026-05-03T12:39:04Z</time></trkpt><trkpt lat="37.92874603901178" lon="15.889246614876676"><ele>5.0</ele><time>2026-05-03T12:39:05Z</time></trkpt><trkpt lat="37.92872542110177" lon="15.88954189609715"><ele>6.5</ele><time>2026-05-03T12:39:06Z</time></trkpt><trkpt lat="37.92870362085104" lon="15.889840223228669"><ele>8.0</ele><time>2026-05-03T12:39:07Z</time></trkpt><trkpt lat="37.92868405295866" lon="15.890141191511272"><ele>8.5</ele><time>2026-05-03T12:39:08Z</time></trkpt><trkpt lat="37.92866196158858" lon="15.890440083516491"><ele>9.0</ele><time>2026-05-03T12:39:09Z</time></trkpt><trkpt lat="37.928631655257576" lon="15.890740626102113"><ele>9.0</ele><time>2026-05-03T12:39:10Z</time></trkpt><trkpt lat="37.92860336421281" lon="15.891039625982787"><ele>9.0</ele><time>2026-05-03T12:39:11Z</time></trkpt><trkpt lat="37.92857668868531" lon="15.89134202302854"><ele>9.0</ele><time>2026-05-03T12:39:12Z</time></trkpt><trkpt lat="37.92854090048437" lon="15.891634388030194"><ele>9.0</ele><time>2026-05-03T12:39:13Z</time></trkpt><trkpt lat="37.92849061441708" lon="15.891923810425379"><ele>8.5</ele><time>2026-05-03T12:39:14Z</time></trkpt><trkpt lat="37.92844194853536" lon="15.89219970009984"><ele>8.0</ele><time>2026-05-03T12:39:15Z</time></trkpt><trkpt lat="37.928410061310146" lon="15.892506754314612"><ele>8.0</ele><time>2026-05-03T12:39:16Z</time></trkpt><trkpt lat="37.928374513619445" lon="15.892803367562646"><ele>8.0</ele><time>2026-05-03T12:39:17Z</time></trkpt><trkpt lat="37.92834056177126" lon="15.893100076129866"><ele>8.0</ele><time>2026-05-03T12:39:18Z</time></trkpt><trkpt lat="37.928307271957266" lon="15.893405053094057"><ele>8.0</ele><time>2026-05-03T12:39:19.001Z</time></trkpt><trkpt lat="37.9282838250672" lon="15.89370323293788"><ele>7.5</ele><time>2026-05-03T12:39:20.001Z</time></trkpt><trkpt lat="37.928271832787715" lon="15.893998670972117"><ele>7.0</ele><time>2026-05-03T12:39:21.001Z</time></trkpt><trkpt lat="37.92826287430783" lon="15.894296344081647"><ele>6.5</ele><time>2026-05-03T12:39:22.001Z</time></trkpt><trkpt lat="37.92824210895301" lon="15.894615520464539"><ele>6.0</ele><time>2026-05-03T12:39:23.001Z</time></trkpt><trkpt lat="37.92824503070863" lon="15.894906367076143"><ele>7.0</ele><time>2026-05-03T12:39:24.001Z</time></trkpt><trkpt lat="37.928240673279284" lon="15.895207957283597"><ele>8.0</ele><time>2026-05-03T12:39:25.001Z</time></trkpt><trkpt lat="37.92823211418589" lon="15.895507721266883"><ele>8.0</ele><time>2026-05-03T12:39:26.001Z</time></trkpt><trkpt lat="37.92822256543973" lon="15.89580773716371"><ele>8.0</ele><time>2026-05-03T12:39:27.001Z</time></trkpt><trkpt lat="37.92821594610333" lon="15.896109936622429"><ele>8.0</ele><time>2026-05-03T12:39:28.001Z</time></trkpt><trkpt lat="37.92821084044888" lon="15.896407788639488"><ele>8.0</ele><time>2026-05-03T12:39:29.001Z</time></trkpt><trkpt lat="37.92820119922707" lon="15.89671446244856"><ele>8.0</ele><time>2026-05-03T12:39:30.001Z</time></trkpt><trkpt lat="37.92820872173911" lon="15.897020742439107"><ele>8.0</ele><time>2026-05-03T12:39:31.001Z</time></trkpt><trkpt lat="37.92820744136138" lon="15.897310612496815"><ele>8.5</ele><time>2026-05-03T12:39:32.001Z</time></trkpt><trkpt lat="37.92821408611628" lon="15.897612089272876"><ele>9.0</ele><time>2026-05-03T12:39:33.001Z</time></trkpt><trkpt lat="37.92821889231259" lon="15.897910002600554"><ele>9.0</ele><time>2026-05-03T12:39:34.001Z</time></trkpt><trkpt lat="37.92822213499971" lon="15.89820934446841"><ele>9.0</ele><time>2026-05-03T12:39:35.001Z</time></trkpt><trkpt lat="37.92822258914218" lon="15.898510786024609"><ele>9.5</ele><time>2026-05-03T12:39:36.001Z</time></trkpt><trkpt lat="37.92822286626771" lon="15.898808947419298"><ele>10.0</ele><time>2026-05-03T12:39:37.001Z</time></trkpt><trkpt lat="37.928226806918566" lon="15.899108875529182"><ele>10.0</ele><time>2026-05-03T12:39:38.001Z</time></trkpt><trkpt lat="37.92822386165425" lon="15.899412309408449"><ele>10.0</ele><time>2026-05-03T12:39:39.001Z</time></trkpt><trkpt lat="37.928224263196775" lon="15.899716900667704"><ele>10.0</ele><time>2026-05-03T12:39:40.001Z</time></trkpt><trkpt lat="37.92822463827937" lon="15.900013354796648"><ele>10.0</ele><time>2026-05-03T12:39:41.001Z</time></trkpt><trkpt lat="37.92822630860869" lon="15.900293119944093"><ele>10.0</ele><time>2026-05-03T12:39:42.001Z</time></trkpt><trkpt lat="37.92822781067323" lon="15.90058903467415"><ele>10.0</ele><time>2026-05-03T12:39:43.001Z</time></trkpt><trkpt lat="37.92824487935392" lon="15.900913852241754"><ele>10.0</ele><time>2026-05-03T12:39:44.001Z</time></trkpt><trkpt lat="37.92824533419925" lon="15.901205693676992"><ele>10.0</ele><time>2026-05-03T12:39:45.001Z</time></trkpt><trkpt lat="37.928254989841534" lon="15.901506047123751"><ele>10.0</ele><time>2026-05-03T12:39:46.001Z</time></trkpt><trkpt lat="37.928268727935624" lon="15.90180936781283"><ele>10.0</ele><time>2026-05-03T12:39:47.001Z</time></trkpt><trkpt lat="37.92827947987962" lon="15.902113233611026"><ele>10.0</ele><time>2026-05-03T12:39:48.001Z</time></trkpt><trkpt lat="37.928300237757504" lon="15.90240958890945"><ele>10.0</ele><time>2026-05-03T12:39:49.001Z</time></trkpt><trkpt lat="37.92831057239275" lon="15.902681641930702"><ele>10.0</ele><time>2026-05-03T12:39:50.001Z</time></trkpt><trkpt lat="37.92831757080502" lon="15.902939858139622"><ele>9.666666666666668</ele><time>2026-05-03T12:39:51.001Z</time></trkpt><trkpt lat="37.928328583898804" lon="15.903186033405213"><ele>9.333333333333334</ele><time>2026-05-03T12:39:52.001Z</time></trkpt><trkpt lat="37.9283351551368" lon="15.903418002748573"><ele>9.0</ele><time>2026-05-03T12:39:53.001Z</time></trkpt><trkpt lat="37.928349944965554" lon="15.903647666315395"><ele>8.666666666666666</ele><time>2026-05-03T12:39:54.001Z</time></trkpt><trkpt lat="37.92838429133436" lon="15.903872742540358"><ele>8.333333333333332</ele><time>2026-05-03T12:39:55.001Z</time></trkpt><trkpt lat="37.928442062741" lon="15.904091986723198"><ele>8.0</ele><time>2026-05-03T12:39:56.001Z</time></trkpt><trkpt lat="37.92851415075927" lon="15.904307027613138"><ele>9.666666666666666</ele><time>2026-05-03T12:39:57.001Z</time></trkpt><trkpt lat="37.92858529337896" lon="15.904519319722931"><ele>11.333333333333332</ele><time>2026-05-03T12:39:58.001Z</time></trkpt><trkpt lat="37.928646358464896" lon="15.904752686752731"><ele>13.0</ele><time>2026-05-03T12:39:59.001Z</time></trkpt><trkpt lat="37.92870655321322" lon="15.904965035663501"><ele>12.333333333333332</ele><time>2026-05-03T12:40:00.001Z</time></trkpt><trkpt lat="37.92875308326665" lon="15.905195108093487"><ele>11.666666666666666</ele><time>2026-05-03T12:40:01.001Z</time></trkpt><trkpt lat="37.92877578891389" lon="15.905426043044246"><ele>11.0</ele><time>2026-05-03T12:40:02.001Z</time></trkpt><trkpt lat="37.92880474593415" lon="15.905656647124156"><ele>11.0</ele><time>2026-05-03T12:40:03.001Z</time></trkpt><trkpt lat="37.928834422332045" lon="15.905890970953479"><ele>11.0</ele><time>2026-05-03T12:40:04.001Z</time></trkpt><trkpt lat="37.92886907000849" lon="15.906125660688506"><ele>11.0</ele><time>2026-05-03T12:40:05.001Z</time></trkpt><trkpt lat="37.92890232714456" lon="15.906364417514832"><ele>11.0</ele><time>2026-05-03T12:40:06.001Z</time></trkpt><trkpt lat="37.92892664410327" lon="15.90657881291687"><ele>11.0</ele><time>2026-05-03T12:40:07.001Z</time></trkpt><trkpt lat="37.928965938492745" lon="15.906799315715208"><ele>11.0</ele><time>2026-05-03T12:40:08.001Z</time></trkpt><trkpt lat="37.92899460906564" lon="15.907015861465998"><ele>11.0</ele><time>2026-05-03T12:40:09.001Z</time></trkpt><trkpt lat="37.92902103233631" lon="15.907222136666292"><ele>11.0</ele><time>2026-05-03T12:40:10.001Z</time></trkpt><trkpt lat="37.929047535348026" lon="15.907425699225515"><ele>11.0</ele><time>2026-05-03T12:40:11.001Z</time></trkpt><trkpt lat="37.929069607976274" lon="15.907618021000298"><ele>10.5</ele><time>2026-05-03T12:40:12.001Z</time></trkpt><trkpt lat="37.92910146220608" lon="15.907768172709721"><ele>10.0</ele><time>2026-05-03T12:40:13.001Z</time></trkpt><trkpt lat="37.929135472835874" lon="15.907929480751525"><ele>9.5</ele><time>2026-05-03T12:40:14.001Z</time></trkpt><trkpt lat="37.92917428429218" lon="15.908098071081337"><ele>9.0</ele><time>2026-05-03T12:40:15.001Z</time></trkpt><trkpt lat="37.92919947178538" lon="15.90827021988976"><ele>9.0</ele><time>2026-05-03T12:40:16.001Z</time></trkpt><trkpt lat="37.929232396280376" lon="15.908475133457216"><ele>9.0</ele><time>2026-05-03T12:40:17.001Z</time></trkpt><trkpt lat="37.92923471732648" lon="15.908675781440227"><ele>9.0</ele><time>2026-05-03T12:40:18.001Z</time></trkpt><trkpt lat="37.929235614115456" lon="15.908878518650297"><ele>9.0</ele><time>2026-05-03T12:40:19.001Z</time></trkpt><trkpt lat="37.92924578878426" lon="15.909088182121653"><ele>9.0</ele><time>2026-05-03T12:40:20.001Z</time></trkpt><trkpt lat="37.92926904244293" lon="15.909307003370591"><ele>9.0</ele><time>2026-05-03T12:40:21.001Z</time></trkpt><trkpt lat="37.92928110761145" lon="15.90952791207715"><ele>9.0</ele><time>2026-05-03T12:40:22.001Z</time></trkpt><trkpt lat="37.9292924009417" lon="15.909749874764394"><ele>9.0</ele><time>2026-05-03T12:40:23.001Z</time></trkpt><trkpt lat="37.92931082559685" lon="15.909971095870738"><ele>9.0</ele><time>2026-05-03T12:40:24Z</time></trkpt><trkpt lat="37.929325154840676" lon="15.910189287930491"><ele>10.0</ele><time>2026-05-03T12:40:25Z</time></trkpt><trkpt lat="37.92934193234813" lon="15.910404516082938"><ele>11.0</ele><time>2026-05-03T12:40:26Z</time></trkpt><trkpt lat="37.92937284565561" lon="15.910619498832743"><ele>12.0</ele><time>2026-05-03T12:40:27Z</time></trkpt><trkpt lat="37.92941317021997" lon="15.910833733996112"><ele>12.333333333333332</ele><time>2026-05-03T12:40:28Z</time></trkpt><trkpt lat="37.92945540563831" lon="15.911059716083491"><ele>12.666666666666666</ele><time>2026-05-03T12:40:29Z</time></trkpt><trkpt lat="37.92945593861795" lon="15.911296641967152"><ele>13.0</ele><time>2026-05-03T12:40:30Z</time></trkpt><trkpt lat="37.92951293032721" lon="15.911497642645468"><ele>13.0</ele><time>2026-05-03T12:40:31Z</time></trkpt><trkpt lat="37.92955932281363" lon="15.91172045497893"><ele>13.0</ele><time>2026-05-03T12:40:32Z</time></trkpt><trkpt lat="37.92962762683147" lon="15.911943546206576"><ele>13.0</ele><time>2026-05-03T12:40:33Z</time></trkpt><trkpt lat="37.929649690530475" lon="15.912145012136467"><ele>13.333333333333332</ele><time>2026-05-03T12:40:34Z</time></trkpt><trkpt lat="37.92969484816218" lon="15.912354661505711"><ele>13.666666666666668</ele><time>2026-05-03T12:40:35Z</time></trkpt><trkpt lat="37.92971430043121" lon="15.912567814294801"><ele>14.0</ele><time>2026-05-03T12:40:36Z</time></trkpt><trkpt lat="37.92975696973687" lon="15.912789314632377"><ele>13.333333333333334</ele><time>2026-05-03T12:40:37Z</time></trkpt><trkpt lat="37.92979245485039" lon="15.912996777979185"><ele>12.666666666666668</ele><time>2026-05-03T12:40:38Z</time></trkpt><trkpt lat="37.929834837544426" lon="15.913199551677488"><ele>12.0</ele><time>2026-05-03T12:40:39Z</time></trkpt><trkpt lat="37.92986780477243" lon="15.913392610703214"><ele>11.75</ele><time>2026-05-03T12:40:40Z</time></trkpt><trkpt lat="37.92989787179479" lon="15.913569463735415"><ele>11.5</ele><time>2026-05-03T12:40:41Z</time></trkpt><trkpt lat="37.929932739987045" lon="15.913739112743835"><ele>11.25</ele><time>2026-05-03T12:40:42Z</time></trkpt><trkpt lat="37.929960719190106" lon="15.913887238596946"><ele>11.0</ele><time>2026-05-03T12:40:43Z</time></trkpt><trkpt lat="37.929974677568076" lon="15.914038366305249"><ele>11.0</ele><time>2026-05-03T12:40:44Z</time></trkpt><trkpt lat="37.92998160502947" lon="15.914188428396766"><ele>11.0</ele><time>2026-05-03T12:40:45Z</time></trkpt><trkpt lat="37.93002214985713" lon="15.914312819836942"><ele>11.0</ele><time>2026-05-03T12:40:46Z</time></trkpt><trkpt lat="37.93004677333574" lon="15.91444766606958"><ele>11.0</ele><time>2026-05-03T12:40:47Z</time></trkpt><trkpt lat="37.930066135036306" lon="15.914590531225578"><ele>11.0</ele><time>2026-05-03T12:40:48Z</time></trkpt><trkpt lat="37.93008924982589" lon="15.914742644480661"><ele>11.0</ele><time>2026-05-03T12:40:49Z</time></trkpt><trkpt lat="37.93011911300162" lon="15.91489804449139"><ele>11.0</ele><time>2026-05-03T12:40:50Z</time></trkpt><trkpt lat="37.93013404961679" lon="15.915064563639149"><ele>11.0</ele><time>2026-05-03T12:40:51Z</time></trkpt><trkpt lat="37.93016544134111" lon="15.91524686176982"><ele>11.0</ele><time>2026-05-03T12:40:52Z</time></trkpt><trkpt lat="37.93019006394625" lon="15.915418518289936"><ele>11.0</ele><time>2026-05-03T12:40:53Z</time></trkpt><trkpt lat="37.93021185901349" lon="15.915602786880926"><ele>11.0</ele><time>2026-05-03T12:40:54Z</time></trkpt><trkpt lat="37.93024419028651" lon="15.915797176264501"><ele>11.0</ele><time>2026-05-03T12:40:55Z</time></trkpt><trkpt lat="37.93025408270696" lon="15.915999662121576"><ele>11.0</ele><time>2026-05-03T12:40:56Z</time></trkpt><trkpt lat="37.93027933454301" lon="15.916224029004393"><ele>11.0</ele><time>2026-05-03T12:40:57Z</time></trkpt><trkpt lat="37.930312024023664" lon="15.91643654938227"><ele>11.0</ele><time>2026-05-03T12:40:58Z</time></trkpt><trkpt lat="37.93032717215485" lon="15.916661091833062"><ele>11.0</ele><time>2026-05-03T12:40:59Z</time></trkpt><trkpt lat="37.9303443059129" lon="15.916883570289468"><ele>11.0</ele><time>2026-05-03T12:41:00Z</time></trkpt><trkpt lat="37.930356721405595" lon="15.91709757170449"><ele>11.0</ele><time>2026-05-03T12:41:01Z</time></trkpt><trkpt lat="37.93036621323821" lon="15.917311534267885"><ele>11.0</ele><time>2026-05-03T12:41:02Z</time></trkpt><trkpt lat="37.930376373689484" lon="15.917535631596342"><ele>11.0</ele><time>2026-05-03T12:41:03Z</time></trkpt><trkpt lat="37.93039807522089" lon="15.917757436690536"><ele>11.0</ele><time>2026-05-03T12:41:04Z</time></trkpt><trkpt lat="37.93038623010356" lon="15.917978908055547"><ele>11.0</ele><time>2026-05-03T12:41:05Z</time></trkpt><trkpt lat="37.930400851054735" lon="15.918185685345923"><ele>11.0</ele><time>2026-05-03T12:41:06Z</time></trkpt><trkpt lat="37.93041796568849" lon="15.918416435894295"><ele>11.0</ele><time>2026-05-03T12:41:07Z</time></trkpt><trkpt lat="37.93044716856394" lon="15.918625448463446"><ele>11.666666666666666</ele><time>2026-05-03T12:41:08.001Z</time></trkpt><trkpt lat="37.93045084327034" lon="15.918831290218018"><ele>12.333333333333332</ele><time>2026-05-03T12:41:09.001Z</time></trkpt><trkpt lat="37.93046113412724" lon="15.919067770299552"><ele>13.0</ele><time>2026-05-03T12:41:10.001Z</time></trkpt><trkpt lat="37.93046501140966" lon="15.919292569907448"><ele>13.0</ele><time>2026-05-03T12:41:11.001Z</time></trkpt><trkpt lat="37.930476104486694" lon="15.919512132243637"><ele>13.0</ele><time>2026-05-03T12:41:12.001Z</time></trkpt><trkpt lat="37.930484615240886" lon="15.919733894062311"><ele>13.0</ele><time>2026-05-03T12:41:13.001Z</time></trkpt><trkpt lat="37.93048575855727" lon="15.919955119528126"><ele>12.666666666666666</ele><time>2026-05-03T12:41:14.001Z</time></trkpt><trkpt lat="37.93049636809368" lon="15.920167187336213"><ele>12.333333333333332</ele><time>2026-05-03T12:41:15.001Z</time></trkpt><trkpt lat="37.93051776946505" lon="15.920397495787727"><ele>12.0</ele><time>2026-05-03T12:41:16.001Z</time></trkpt><trkpt lat="37.93053760047033" lon="15.92061850432207"><ele>12.0</ele><time>2026-05-03T12:41:17.001Z</time></trkpt><trkpt lat="37.93054494067732" lon="15.920843274997557"><ele>12.0</ele><time>2026-05-03T12:41:18.001Z</time></trkpt><trkpt lat="37.93056009405329" lon="15.921069817869721"><ele>12.0</ele><time>2026-05-03T12:41:19.001Z</time></trkpt><trkpt lat="37.93056782887907" lon="15.921297232927374"><ele>12.0</ele><time>2026-05-03T12:41:20.001Z</time></trkpt><trkpt lat="37.93058925437492" lon="15.921524220462684"><ele>12.0</ele><time>2026-05-03T12:41:21.001Z</time></trkpt><trkpt lat="37.93060049813782" lon="15.921749857979293"><ele>12.0</ele><time>2026-05-03T12:41:22.001Z</time></trkpt><trkpt lat="37.930608006399176" lon="15.921971830697716"><ele>13.0</ele><time>2026-05-03T12:41:23.001Z</time></trkpt><trkpt lat="37.93061953460072" lon="15.922180646725229"><ele>14.0</ele><time>2026-05-03T12:41:24.001Z</time></trkpt><trkpt lat="37.93063775522946" lon="15.922378787921527"><ele>15.0</ele><time>2026-05-03T12:41:25.001Z</time></trkpt><trkpt lat="37.93064452221969" lon="15.922557105095773"><ele>14.75</ele><time>2026-05-03T12:41:26.001Z</time></trkpt><trkpt lat="37.93064660358192" lon="15.922726255667047"><ele>14.5</ele><time>2026-05-03T12:41:27.001Z</time></trkpt><trkpt lat="37.93064694539812" lon="15.922880709625565"><ele>14.25</ele><time>2026-05-03T12:41:28.001Z</time></trkpt><trkpt lat="37.930648707691475" lon="15.923065090412388"><ele>14.0</ele><time>2026-05-03T12:41:29.001Z</time></trkpt><trkpt lat="37.930654855014104" lon="15.92320410623773"><ele>14.0</ele><time>2026-05-03T12:41:30.001Z</time></trkpt><trkpt lat="37.93065293382078" lon="15.923383757726997"><ele>14.0</ele><time>2026-05-03T12:41:31.001Z</time></trkpt><trkpt lat="37.93063898734345" lon="15.923568703199262"><ele>14.0</ele><time>2026-05-03T12:41:32.001Z</time></trkpt><trkpt lat="37.93061704289707" lon="15.92375897603273"><ele>14.0</ele><time>2026-05-03T12:41:33.001Z</time></trkpt><trkpt lat="37.93059405577744" lon="15.923945052983074"><ele>14.666666666666668</ele><time>2026-05-03T12:41:34.001Z</time></trkpt><trkpt lat="37.930545476041175" lon="15.924143169685987"><ele>15.333333333333332</ele><time>2026-05-03T12:41:35.001Z</time></trkpt><trkpt lat="37.93051207116524" lon="15.92432754183505"><ele>16.0</ele><time>2026-05-03T12:41:36.001Z</time></trkpt><trkpt lat="37.930483572361986" lon="15.924498277237786"><ele>16.25</ele><time>2026-05-03T12:41:37.001Z</time></trkpt><trkpt lat="37.93045940878283" lon="15.924670156219554"><ele>16.5</ele><time>2026-05-03T12:41:38.001Z</time></trkpt><trkpt lat="37.930435542216586" lon="15.924836627090881"><ele>16.75</ele><time>2026-05-03T12:41:39.001Z</time></trkpt><trkpt lat="37.930399732676705" lon="15.92500199813498"><ele>17.0</ele><time>2026-05-03T12:41:40.001Z</time></trkpt><trkpt lat="37.930384448907795" lon="15.925152430715768"><ele>16.2</ele><time>2026-05-03T12:41:41.001Z</time></trkpt><trkpt lat="37.930367293059525" lon="15.925300898200272"><ele>15.399999999999999</ele><time>2026-05-03T12:41:42.001Z</time></trkpt><trkpt lat="37.930345455980586" lon="15.925430759020692"><ele>14.600000000000001</ele><time>2026-05-03T12:41:43.001Z</time></trkpt><trkpt lat="37.93032938582082" lon="15.925557656009975"><ele>13.8</ele><time>2026-05-03T12:41:44.001Z</time></trkpt><trkpt lat="37.93028027646573" lon="15.925663541697471"><ele>13.0</ele><time>2026-05-03T12:41:45.001Z</time></trkpt><trkpt lat="37.93021658442596" lon="15.925743716707478"><ele>12.999999999999998</ele><time>2026-05-03T12:41:46.001Z</time></trkpt><trkpt lat="37.930132572255005" lon="15.92579790314947"><ele>13.0</ele><time>2026-05-03T12:41:47.001Z</time></trkpt><trkpt lat="37.93007719156353" lon="15.92584729052378"><ele>13.0</ele><time>2026-05-03T12:41:48.001Z</time></trkpt><trkpt lat="37.9300195861143" lon="15.925929589827557"><ele>13.0</ele><time>2026-05-03T12:41:49.001Z</time></trkpt><trkpt lat="37.92998256716642" lon="15.926030469062768"><ele>12.999999999999998</ele><time>2026-05-03T12:41:50.001Z</time></trkpt><trkpt lat="37.929965304903575" lon="15.92614952986154"><ele>13.0</ele><time>2026-05-03T12:41:51.001Z</time></trkpt><trkpt lat="37.929962004004025" lon="15.92627802249816"><ele>11.5</ele><time>2026-05-03T12:41:52.001Z</time></trkpt><trkpt lat="37.92993762386982" lon="15.926423423113457"><ele>10.0</ele><time>2026-05-03T12:41:53.001Z</time></trkpt><trkpt lat="37.929913295155934" lon="15.926585941761296"><ele>8.5</ele><time>2026-05-03T12:41:54.001Z</time></trkpt><trkpt lat="37.92988322238472" lon="15.92677297758589"><ele>7.0</ele><time>2026-05-03T12:41:55.001Z</time></trkpt><trkpt lat="37.92985099563596" lon="15.926952763519747"><ele>7.0</ele><time>2026-05-03T12:41:56.001Z</time></trkpt><trkpt lat="37.929809897246166" lon="15.92716544225118"><ele>7.0</ele><time>2026-05-03T12:41:57.001Z</time></trkpt><trkpt lat="37.92977396846827" lon="15.927386237212927"><ele>7.0</ele><time>2026-05-03T12:41:58.001Z</time></trkpt><trkpt lat="37.92973359626278" lon="15.927605262453358"><ele>7.666666666666667</ele><time>2026-05-03T12:41:59.001Z</time></trkpt><trkpt lat="37.929704867612124" lon="15.927808815535089"><ele>8.333333333333334</ele><time>2026-05-03T12:42:00.001Z</time></trkpt><trkpt lat="37.92967671707306" lon="15.928037783158551"><ele>9.0</ele><time>2026-05-03T12:42:01.001Z</time></trkpt><trkpt lat="37.929645385106674" lon="15.928273395410878"><ele>9.333333333333334</ele><time>2026-05-03T12:42:02.001Z</time></trkpt><trkpt lat="37.92961335532407" lon="15.928503411360154"><ele>9.666666666666668</ele><time>2026-05-03T12:42:03.001Z</time></trkpt><trkpt lat="37.92958319962808" lon="15.928742850833874"><ele>10.0</ele><time>2026-05-03T12:42:04.001Z</time></trkpt><trkpt lat="37.9295514546405" lon="15.92897143950138"><ele>10.0</ele><time>2026-05-03T12:42:05.001Z</time></trkpt><trkpt lat="37.929520186372976" lon="15.929176923386413"><ele>10.0</ele><time>2026-05-03T12:42:06.001Z</time></trkpt><trkpt lat="37.92949205234627" lon="15.92937291925634"><ele>10.0</ele><time>2026-05-03T12:42:07.001Z</time></trkpt><trkpt lat="37.92946194812352" lon="15.929557556624879"><ele>10.333333333333334</ele><time>2026-05-03T12:42:08.001Z</time></trkpt><trkpt lat="37.92942929930333" lon="15.92975309879397"><ele>10.666666666666666</ele><time>2026-05-03T12:42:09.001Z</time></trkpt><trkpt lat="37.92940925392051" lon="15.92996947214188"><ele>11.0</ele><time>2026-05-03T12:42:10.001Z</time></trkpt><trkpt lat="37.929372233135275" lon="15.930168460125525"><ele>12.666666666666666</ele><time>2026-05-03T12:42:11.001Z</time></trkpt><trkpt lat="37.9293403720685" lon="15.930365535209049"><ele>14.333333333333332</ele><time>2026-05-03T12:42:12.001Z</time></trkpt><trkpt lat="37.92930454998642" lon="15.930568926567112"><ele>16.0</ele><time>2026-05-03T12:42:13.001Z</time></trkpt><trkpt lat="37.92927330735913" lon="15.930778423678198"><ele>15.0</ele><time>2026-05-03T12:42:14.001Z</time></trkpt><trkpt lat="37.929211126450134" lon="15.930971297485394"><ele>14.0</ele><time>2026-05-03T12:42:15.001Z</time></trkpt><trkpt lat="37.92914726118721" lon="15.931173470907016"><ele>13.0</ele><time>2026-05-03T12:42:16.001Z</time></trkpt><trkpt lat="37.929095226589325" lon="15.9313266923568"><ele>13.0</ele><time>2026-05-03T12:42:17.002Z</time></trkpt><trkpt lat="37.92902126518174" lon="15.931517500948775"><ele>13.0</ele><time>2026-05-03T12:42:18.002Z</time></trkpt><trkpt lat="37.92897488587488" lon="15.931677413477383"><ele>13.0</ele><time>2026-05-03T12:42:19.002Z</time></trkpt><trkpt lat="37.928915780123106" lon="15.931828061160171"><ele>13.0</ele><time>2026-05-03T12:42:20.002Z</time></trkpt><trkpt lat="37.92886120397299" lon="15.931964933734635"><ele>15.25</ele><time>2026-05-03T12:42:21.002Z</time></trkpt><trkpt lat="37.92881715187589" lon="15.932107037165277"><ele>17.5</ele><time>2026-05-03T12:42:22.002Z</time></trkpt><trkpt lat="37.92879942435476" lon="15.932251863525796"><ele>19.75</ele><time>2026-05-03T12:42:23.002Z</time></trkpt><trkpt lat="37.928828115385045" lon="15.932413889437395"><ele>22.0</ele><time>2026-05-03T12:42:24.002Z</time></trkpt><trkpt lat="37.92885949060365" lon="15.932555994214246"><ele>23.6</ele><time>2026-05-03T12:42:25.002Z</time></trkpt><trkpt lat="37.92887083068108" lon="15.9326942826158"><ele>25.200000000000003</ele><time>2026-05-03T12:42:26.002Z</time></trkpt><trkpt lat="37.92886851388669" lon="15.932813290197243"><ele>26.8</ele><time>2026-05-03T12:42:27.002Z</time></trkpt><trkpt lat="37.92884871265997" lon="15.932926224767904"><ele>28.4</ele><time>2026-05-03T12:42:28.002Z</time></trkpt><trkpt lat="37.92880113721914" lon="15.933036052921668"><ele>30.0</ele><time>2026-05-03T12:42:29.002Z</time></trkpt><trkpt lat="37.92874429965046" lon="15.933145189971807"><ele>30.0</ele><time>2026-05-03T12:42:30.001Z</time></trkpt><trkpt lat="37.92866938561371" lon="15.933260489629658"><ele>30.0</ele><time>2026-05-03T12:42:31Z</time></trkpt><trkpt lat="37.92859745015222" lon="15.933407236728666"><ele>30.0</ele><time>2026-05-03T12:42:32.001Z</time></trkpt><trkpt lat="37.928527364520406" lon="15.933580280448215"><ele>30.0</ele><time>2026-05-03T12:42:33Z</time></trkpt><trkpt lat="37.928421969215975" lon="15.933751196453168"><ele>30.333333333333336</ele><time>2026-05-03T12:42:34Z</time></trkpt><trkpt lat="37.92828160605891" lon="15.933903585315315"><ele>30.666666666666668</ele><time>2026-05-03T12:42:35Z</time></trkpt><trkpt lat="37.928151643993615" lon="15.934067468935767"><ele>31.0</ele><time>2026-05-03T12:42:36Z</time></trkpt><trkpt lat="37.928041140629546" lon="15.934251900015509"><ele>47.333333333333336</ele><time>2026-05-03T12:42:37Z</time></trkpt><trkpt lat="37.92791546360103" lon="15.934406774836754"><ele>63.66666666666667</ele><time>2026-05-03T12:42:38Z</time></trkpt><trkpt lat="37.92779280327579" lon="15.93455740283064"><ele>80.0</ele><time>2026-05-03T12:42:39Z</time></trkpt><trkpt lat="37.92767531744911" lon="15.934685190624789"><ele>80.0</ele><time>2026-05-03T12:42:40Z</time></trkpt><trkpt lat="37.927578306850044" lon="15.934808613446117"><ele>80.0</ele><time>2026-05-03T12:42:41Z</time></trkpt><trkpt lat="37.92746064833379" lon="15.934888021864198"><ele>80.0</ele><time>2026-05-03T12:42:42Z</time></trkpt><trkpt lat="37.927334809784206" lon="15.934926412476734"><ele>80.0</ele><time>2026-05-03T12:42:43Z</time></trkpt><trkpt lat="37.92723883110324" lon="15.935018581112304"><ele>74.25</ele><time>2026-05-03T12:42:44Z</time></trkpt><trkpt lat="37.92716999634737" lon="15.93514572317557"><ele>68.5</ele><time>2026-05-03T12:42:45Z</time></trkpt><trkpt lat="37.927096129554606" lon="15.93529114454875"><ele>62.75</ele><time>2026-05-03T12:42:46Z</time></trkpt><trkpt lat="37.927007071851136" lon="15.935437036258948"><ele>57.0</ele><time>2026-05-03T12:42:47Z</time></trkpt><trkpt lat="37.92690189426634" lon="15.935559704605405"><ele>57.0</ele><time>2026-05-03T12:42:48Z</time></trkpt><trkpt lat="37.92676882495405" lon="15.935623803420988"><ele>57.0</ele><time>2026-05-03T12:42:49Z</time></trkpt><trkpt lat="37.926614407193036" lon="15.935665732371353"><ele>57.0</ele><time>2026-05-03T12:42:50Z</time></trkpt><trkpt lat="37.92645624941749" lon="15.935724882973416"><ele>49.75</ele><time>2026-05-03T12:42:51Z</time></trkpt><trkpt lat="37.9263090691608" lon="15.935779074817372"><ele>42.5</ele><time>2026-05-03T12:42:52Z</time></trkpt><trkpt lat="37.92616583480744" lon="15.935832993404247"><ele>35.25</ele><time>2026-05-03T12:42:53Z</time></trkpt><trkpt lat="37.92603632718353" lon="15.93590335028314"><ele>28.0</ele><time>2026-05-03T12:42:54Z</time></trkpt><trkpt lat="37.925903298998044" lon="15.93595435421914"><ele>26.799999999999997</ele><time>2026-05-03T12:42:55Z</time></trkpt><trkpt lat="37.925782532633356" lon="15.935994515527897"><ele>25.599999999999998</ele><time>2026-05-03T12:42:56Z</time></trkpt><trkpt lat="37.92567657744591" lon="15.936033418629187"><ele>24.4</ele><time>2026-05-03T12:42:57Z</time></trkpt><trkpt lat="37.92558167234557" lon="15.936055496553076"><ele>23.200000000000003</ele><time>2026-05-03T12:42:58Z</time></trkpt><trkpt lat="37.92550472883486" lon="15.936096255454903"><ele>22.0</ele><time>2026-05-03T12:42:59Z</time></trkpt><trkpt lat="37.925451781088995" lon="15.936160689604128"><ele>22.0</ele><time>2026-05-03T12:43:00Z</time></trkpt><trkpt lat="37.925428394248236" lon="15.936265865441733"><ele>22.0</ele><time>2026-05-03T12:43:01Z</time></trkpt><trkpt lat="37.92541015969444" lon="15.936378982252377"><ele>22.0</ele><time>2026-05-03T12:43:02Z</time></trkpt><trkpt lat="37.92542608335784" lon="15.9365103781669"><ele>22.0</ele><time>2026-05-03T12:43:03.001Z</time></trkpt><trkpt lat="37.9254445503884" lon="15.936626073226428"><ele>22.0</ele><time>2026-05-03T12:43:04.001Z</time></trkpt><trkpt lat="37.92553254482393" lon="15.936725844306439"><ele>21.0</ele><time>2026-05-03T12:43:05.001Z</time></trkpt><trkpt lat="37.92563273333673" lon="15.936768818990497"><ele>20.0</ele><time>2026-05-03T12:43:06.001Z</time></trkpt><trkpt lat="37.92573614934714" lon="15.936776993192725"><ele>19.0</ele><time>2026-05-03T12:43:07.001Z</time></trkpt><trkpt lat="37.92583853586189" lon="15.936777822107192"><ele>18.0</ele><time>2026-05-03T12:43:08.001Z</time></trkpt><trkpt lat="37.92595051446796" lon="15.936771466030597"><ele>17.0</ele><time>2026-05-03T12:43:09.001Z</time></trkpt><trkpt lat="37.9260625040399" lon="15.936760080193423"><ele>19.75</ele><time>2026-05-03T12:43:10.001Z</time></trkpt><trkpt lat="37.926173692718535" lon="15.936721084161134"><ele>22.5</ele><time>2026-05-03T12:43:11.001Z</time></trkpt><trkpt lat="37.92627948293398" lon="15.936657891964524"><ele>25.25</ele><time>2026-05-03T12:43:12.001Z</time></trkpt><trkpt lat="37.9263801959703" lon="15.936591867891527"><ele>28.0</ele><time>2026-05-03T12:43:13.001Z</time></trkpt><trkpt lat="37.92647620053083" lon="15.93653492631942"><ele>28.0</ele><time>2026-05-03T12:43:14.001Z</time></trkpt><trkpt lat="37.92656590306199" lon="15.936492080461933"><ele>27.999999999999996</ele><time>2026-05-03T12:43:15.001Z</time></trkpt><trkpt lat="37.92666939538377" lon="15.936497460963103"><ele>27.999999999999996</ele><time>2026-05-03T12:43:16.001Z</time></trkpt><trkpt lat="37.92674940746425" lon="15.936558889990357"><ele>28.0</ele><time>2026-05-03T12:43:17.001Z</time></trkpt><trkpt lat="37.92678636941874" lon="15.936664342245676"><ele>28.0</ele><time>2026-05-03T12:43:18.001Z</time></trkpt><trkpt lat="37.92676309653636" lon="15.936782303459957"><ele>31.5</ele><time>2026-05-03T12:43:19.001Z</time></trkpt><trkpt lat="37.92668827059303" lon="15.936876124802312"><ele>35.0</ele><time>2026-05-03T12:43:20.001Z</time></trkpt><trkpt lat="37.926569958565885" lon="15.936932654642444"><ele>38.5</ele><time>2026-05-03T12:43:21.001Z</time></trkpt><trkpt lat="37.92648117493308" lon="15.93703382261634"><ele>42.0</ele><time>2026-05-03T12:43:22.001Z</time></trkpt><trkpt lat="37.92637850356073" lon="15.93713231747025"><ele>42.0</ele><time>2026-05-03T12:43:23.001Z</time></trkpt><trkpt lat="37.92624844130761" lon="15.93721471012986"><ele>42.0</ele><time>2026-05-03T12:43:24.001Z</time></trkpt><trkpt lat="37.92609477963453" lon="15.937252048000467"><ele>42.0</ele><time>2026-05-03T12:43:25.001Z</time></trkpt><trkpt lat="37.925954959099606" lon="15.93731057305526"><ele>42.0</ele><time>2026-05-03T12:43:26.001Z</time></trkpt><trkpt lat="37.92581424450958" lon="15.93734883459737"><ele>37.0</ele><time>2026-05-03T12:43:27.001Z</time></trkpt><trkpt lat="37.92570340526379" lon="15.937445817722487"><ele>32.0</ele><time>2026-05-03T12:43:28.001Z</time></trkpt><trkpt lat="37.92560702785753" lon="15.937583090312996"><ele>27.0</ele><time>2026-05-03T12:43:29.001Z</time></trkpt><trkpt lat="37.9255352813598" lon="15.937733617424882"><ele>22.0</ele><time>2026-05-03T12:43:30.001Z</time></trkpt><trkpt lat="37.92544444523541" lon="15.937883272739928"><ele>22.0</ele><time>2026-05-03T12:43:31.001Z</time></trkpt><trkpt lat="37.92537532746272" lon="15.938053219041512"><ele>22.0</ele><time>2026-05-03T12:43:32.001Z</time></trkpt><trkpt lat="37.92531263097724" lon="15.938235365412064"><ele>22.0</ele><time>2026-05-03T12:43:33.001Z</time></trkpt><trkpt lat="37.925283255328694" lon="15.938484538622935"><ele>25.666666666666664</ele><time>2026-05-03T12:43:34.001Z</time></trkpt><trkpt lat="37.92523307013382" lon="15.938709768445955"><ele>29.333333333333332</ele><time>2026-05-03T12:43:35.001Z</time></trkpt><trkpt lat="37.925209091988634" lon="15.938963031133937"><ele>33.0</ele><time>2026-05-03T12:43:36.001Z</time></trkpt><trkpt lat="37.92518894367346" lon="15.939205284018145"><ele>34.0</ele><time>2026-05-03T12:43:37.001Z</time></trkpt><trkpt lat="37.9251840885705" lon="15.939439028293437"><ele>35.0</ele><time>2026-05-03T12:43:38.001Z</time></trkpt><trkpt lat="37.92521411797629" lon="15.939648042163649"><ele>36.0</ele><time>2026-05-03T12:43:39.001Z</time></trkpt><trkpt lat="37.92525798138039" lon="15.939874210676086"><ele>32.666666666666664</ele><time>2026-05-03T12:43:40.001Z</time></trkpt><trkpt lat="37.92530661216115" lon="15.940092777064493"><ele>29.333333333333332</ele><time>2026-05-03T12:43:41.001Z</time></trkpt><trkpt lat="37.92535209335497" lon="15.940329636064838"><ele>26.0</ele><time>2026-05-03T12:43:42.001Z</time></trkpt><trkpt lat="37.92539137620061" lon="15.940567943615195"><ele>26.0</ele><time>2026-05-03T12:43:43.001Z</time></trkpt><trkpt lat="37.925435866261" lon="15.940808602301082"><ele>26.0</ele><time>2026-05-03T12:43:44.001Z</time></trkpt><trkpt lat="37.925471236513566" lon="15.94106035184676"><ele>26.0</ele><time>2026-05-03T12:43:45.001Z</time></trkpt><trkpt lat="37.92550842940192" lon="15.941305075985836"><ele>22.666666666666664</ele><time>2026-05-03T12:43:46.001Z</time></trkpt><trkpt lat="37.92554863849199" lon="15.941542826230483"><ele>19.333333333333332</ele><time>2026-05-03T12:43:47.001Z</time></trkpt><trkpt lat="37.925592079886265" lon="15.941775007896076"><ele>16.0</ele><time>2026-05-03T12:43:48.001Z</time></trkpt><trkpt lat="37.92561301388398" lon="15.941984380857425"><ele>16.0</ele><time>2026-05-03T12:43:49.001Z</time></trkpt><trkpt lat="37.925618343169326" lon="15.942200869340672"><ele>16.0</ele><time>2026-05-03T12:43:50.001Z</time></trkpt><trkpt lat="37.9255524693087" lon="15.942392105959213"><ele>16.0</ele><time>2026-05-03T12:43:51.001Z</time></trkpt><trkpt lat="37.925489154373295" lon="15.942600928940035"><ele>18.666666666666664</ele><time>2026-05-03T12:43:52.001Z</time></trkpt><trkpt lat="37.92540341395818" lon="15.942851038047966"><ele>21.333333333333332</ele><time>2026-05-03T12:43:53.001Z</time></trkpt><trkpt lat="37.92533397107162" lon="15.943083584983624"><ele>24.0</ele><time>2026-05-03T12:43:54.001Z</time></trkpt><trkpt lat="37.92523605982614" lon="15.943283042138834"><ele>26.0</ele><time>2026-05-03T12:43:55.001Z</time></trkpt><trkpt lat="37.92511741872214" lon="15.943508338079386"><ele>28.0</ele><time>2026-05-03T12:43:56.001Z</time></trkpt><trkpt lat="37.92499940928345" lon="15.9437129766157"><ele>30.0</ele><time>2026-05-03T12:43:57.001Z</time></trkpt><trkpt lat="37.92491548860776" lon="15.943946788250567"><ele>24.0</ele><time>2026-05-03T12:43:58.001Z</time></trkpt><trkpt lat="37.92487849168426" lon="15.944196021263894"><ele>18.0</ele><time>2026-05-03T12:43:59.001Z</time></trkpt><trkpt lat="37.924858441307656" lon="15.944461500454857"><ele>12.0</ele><time>2026-05-03T12:44:00.001Z</time></trkpt><trkpt lat="37.92483125711003" lon="15.94472838653823"><ele>12.0</ele><time>2026-05-03T12:44:01.001Z</time></trkpt><trkpt lat="37.92480128114903" lon="15.944991043862673"><ele>12.0</ele><time>2026-05-03T12:44:02.001Z</time></trkpt><trkpt lat="37.92477764381229" lon="15.945255743062969"><ele>12.0</ele><time>2026-05-03T12:44:03.001Z</time></trkpt><trkpt lat="37.924753743790276" lon="15.945525639668539"><ele>12.0</ele><time>2026-05-03T12:44:04.001Z</time></trkpt><trkpt lat="37.9247265986956" lon="15.945791059863355"><ele>12.0</ele><time>2026-05-03T12:44:05.001Z</time></trkpt><trkpt lat="37.92469769364384" lon="15.946063601179107"><ele>12.0</ele><time>2026-05-03T12:44:06.001Z</time></trkpt><trkpt lat="37.92466877426334" lon="15.946336152672293"><ele>12.666666666666668</ele><time>2026-05-03T12:44:07.001Z</time></trkpt><trkpt lat="37.924634233508364" lon="15.946596342132876"><ele>13.333333333333334</ele><time>2026-05-03T12:44:08.001Z</time></trkpt><trkpt lat="37.92460323550867" lon="15.94686765461848"><ele>14.0</ele><time>2026-05-03T12:44:09.001Z</time></trkpt><trkpt lat="37.92457264650707" lon="15.947143409576572"><ele>13.666666666666668</ele><time>2026-05-03T12:44:10.001Z</time></trkpt><trkpt lat="37.9245491676756" lon="15.947413013553463"><ele>13.333333333333332</ele><time>2026-05-03T12:44:11.001Z</time></trkpt><trkpt lat="37.92452867283505" lon="15.94768284260244"><ele>13.0</ele><time>2026-05-03T12:44:12.001Z</time></trkpt><trkpt lat="37.924504135852864" lon="15.947960642917632"><ele>13.0</ele><time>2026-05-03T12:44:13.001Z</time></trkpt><trkpt lat="37.92448543175303" lon="15.948236795368775"><ele>13.0</ele><time>2026-05-03T12:44:14.001Z</time></trkpt><trkpt lat="37.92445559501988" lon="15.948515601730616"><ele>13.0</ele><time>2026-05-03T12:44:15.001Z</time></trkpt><trkpt lat="37.924423392249935" lon="15.948793405884395"><ele>11.0</ele><time>2026-05-03T12:44:16.001Z</time></trkpt><trkpt lat="37.92438638323698" lon="15.94907533423809"><ele>9.0</ele><time>2026-05-03T12:44:17.001Z</time></trkpt><trkpt lat="37.9243268527326" lon="15.949360845599578"><ele>8.5</ele><time>2026-05-03T12:44:18.001Z</time></trkpt><trkpt lat="37.92426177145679" lon="15.949631884936254"><ele>8.0</ele><time>2026-05-03T12:44:19.001Z</time></trkpt><trkpt lat="37.92417247589754" lon="15.94990342500465"><ele>7.5</ele><time>2026-05-03T12:44:20.001Z</time></trkpt><trkpt lat="37.92407518827901" lon="15.950175981206772"><ele>7.0</ele><time>2026-05-03T12:44:21.002Z</time></trkpt><trkpt lat="37.9239850456204" lon="15.950450638835143"><ele>7.0</ele><time>2026-05-03T12:44:22.002Z</time></trkpt><trkpt lat="37.92389563196449" lon="15.950727802467783"><ele>7.0</ele><time>2026-05-03T12:44:23.002Z</time></trkpt><trkpt lat="37.923787676689635" lon="15.951004041005124"><ele>8.0</ele><time>2026-05-03T12:44:24.002Z</time></trkpt><trkpt lat="37.92368864707956" lon="15.95128075588683"><ele>9.0</ele><time>2026-05-03T12:44:25.002Z</time></trkpt><trkpt lat="37.92359471229054" lon="15.951564129703746"><ele>9.0</ele><time>2026-05-03T12:44:26.002Z</time></trkpt><trkpt lat="37.92349791905544" lon="15.951845924159674"><ele>9.0</ele><time>2026-05-03T12:44:27.002Z</time></trkpt><trkpt lat="37.92339920467224" lon="15.95213138627879"><ele>8.5</ele><time>2026-05-03T12:44:28.002Z</time></trkpt><trkpt lat="37.9233003813872" lon="15.952419186910387"><ele>8.0</ele><time>2026-05-03T12:44:29.002Z</time></trkpt><trkpt lat="37.92320415685641" lon="15.952706769488417"><ele>8.0</ele><time>2026-05-03T12:44:30.002Z</time></trkpt><trkpt lat="37.923120223759916" lon="15.952995002485602"><ele>8.0</ele><time>2026-05-03T12:44:31.002Z</time></trkpt><trkpt lat="37.92305911092108" lon="15.953294577434134"><ele>8.5</ele><time>2026-05-03T12:44:32.002Z</time></trkpt><trkpt lat="37.923004036318176" lon="15.953596305050423"><ele>9.0</ele><time>2026-05-03T12:44:33.002Z</time></trkpt><trkpt lat="37.922925246890586" lon="15.953873326032541"><ele>9.0</ele><time>2026-05-03T12:44:34.002Z</time></trkpt><trkpt lat="37.922820263529196" lon="15.954148466956484"><ele>9.0</ele><time>2026-05-03T12:44:35.002Z</time></trkpt><trkpt lat="37.92269799327163" lon="15.954410888588203"><ele>8.5</ele><time>2026-05-03T12:44:36Z</time></trkpt><trkpt lat="37.922570937101774" lon="15.954668434563315"><ele>8.0</ele><time>2026-05-03T12:44:37Z</time></trkpt><trkpt lat="37.92245801276432" lon="15.954927848809762"><ele>8.5</ele><time>2026-05-03T12:44:38Z</time></trkpt><trkpt lat="37.9223473631756" lon="15.955189188629284"><ele>9.0</ele><time>2026-05-03T12:44:39Z</time></trkpt><trkpt lat="37.92223458155998" lon="15.955447323186789"><ele>9.0</ele><time>2026-05-03T12:44:40Z</time></trkpt><trkpt lat="37.922106193172965" lon="15.955698344374078"><ele>9.0</ele><time>2026-05-03T12:44:41Z</time></trkpt><trkpt lat="37.92198926803246" lon="15.95595942507969"><ele>8.5</ele><time>2026-05-03T12:44:42Z</time></trkpt><trkpt lat="37.921883724260844" lon="15.956223166461022"><ele>8.0</ele><time>2026-05-03T12:44:43Z</time></trkpt><trkpt lat="37.92178297152817" lon="15.956488927231002"><ele>7.0</ele><time>2026-05-03T12:44:44Z</time></trkpt><trkpt lat="37.92167729484338" lon="15.95675129058625"><ele>6.0</ele><time>2026-05-03T12:44:45Z</time></trkpt><trkpt lat="37.921578514203794" lon="15.95701231198868"><ele>6.0</ele><time>2026-05-03T12:44:46Z</time></trkpt><trkpt lat="37.921480226724725" lon="15.957269256384974"><ele>6.0</ele><time>2026-05-03T12:44:47Z</time></trkpt><trkpt lat="37.92138711212911" lon="15.957511102609251"><ele>6.0</ele><time>2026-05-03T12:44:48Z</time></trkpt><trkpt lat="37.921297411007565" lon="15.957741216793726"><ele>6.666666666666666</ele><time>2026-05-03T12:44:49Z</time></trkpt><trkpt lat="37.92121194951799" lon="15.957960289884086"><ele>7.333333333333333</ele><time>2026-05-03T12:44:50Z</time></trkpt><trkpt lat="37.92113106114732" lon="15.95816708604859"><ele>8.0</ele><time>2026-05-03T12:44:51Z</time></trkpt><trkpt lat="37.9210531031541" lon="15.958368978816583"><ele>7.75</ele><time>2026-05-03T12:44:52Z</time></trkpt><trkpt lat="37.92098322181019" lon="15.958554393413836"><ele>7.5</ele><time>2026-05-03T12:44:53Z</time></trkpt><trkpt lat="37.920921206568664" lon="15.958716046104165"><ele>7.25</ele><time>2026-05-03T12:44:54Z</time></trkpt><trkpt lat="37.92085707234306" lon="15.958873842800134"><ele>7.0</ele><time>2026-05-03T12:44:55Z</time></trkpt><trkpt lat="37.920793103518164" lon="15.959028321954008"><ele>7.0</ele><time>2026-05-03T12:44:56Z</time></trkpt><trkpt lat="37.92073942413763" lon="15.95916517560464"><ele>6.999999999999999</ele><time>2026-05-03T12:44:57Z</time></trkpt><trkpt lat="37.920702614985444" lon="15.959298168103482"><ele>6.999999999999999</ele><time>2026-05-03T12:44:58Z</time></trkpt><trkpt lat="37.92068995984208" lon="15.959427928480462"><ele>7.0</ele><time>2026-05-03T12:44:59Z</time></trkpt><trkpt lat="37.92070849500327" lon="15.959550439163193"><ele>7.0</ele><time>2026-05-03T12:45:00Z</time></trkpt><trkpt lat="37.9208103742792" lon="15.959653365475212"><ele>7.25</ele><time>2026-05-03T12:45:01Z</time></trkpt><trkpt lat="37.920892394256754" lon="15.959760097909154"><ele>7.5</ele><time>2026-05-03T12:45:02Z</time></trkpt><trkpt lat="37.920958538595585" lon="15.959859511378095"><ele>7.75</ele><time>2026-05-03T12:45:03Z</time></trkpt><trkpt lat="37.921053410673814" lon="15.960027495184148"><ele>8.0</ele><time>2026-05-03T12:45:04Z</time></trkpt><trkpt lat="37.921164903640246" lon="15.9601631315693"><ele>10.25</ele><time>2026-05-03T12:45:05Z</time></trkpt><trkpt lat="37.921234817448976" lon="15.960305327938533"><ele>12.5</ele><time>2026-05-03T12:45:06Z</time></trkpt><trkpt lat="37.921275484885406" lon="15.96043913661769"><ele>14.75</ele><time>2026-05-03T12:45:07Z</time></trkpt><trkpt lat="37.921285777275955" lon="15.960591650301017"><ele>17.0</ele><time>2026-05-03T12:45:08Z</time></trkpt><trkpt lat="37.921249673039135" lon="15.960750324360466"><ele>15.666666666666668</ele><time>2026-05-03T12:45:09Z</time></trkpt><trkpt lat="37.92115460073836" lon="15.96090361420361"><ele>14.333333333333332</ele><time>2026-05-03T12:45:10Z</time></trkpt><trkpt lat="37.92103066464062" lon="15.961022095273679"><ele>13.0</ele><time>2026-05-03T12:45:11Z</time></trkpt><trkpt lat="37.92089066161615" lon="15.961135198925506"><ele>13.0</ele><time>2026-05-03T12:45:12Z</time></trkpt><trkpt lat="37.920744892665006" lon="15.96126535403076"><ele>13.0</ele><time>2026-05-03T12:45:13Z</time></trkpt><trkpt lat="37.92060511143243" lon="15.961403339545592"><ele>13.0</ele><time>2026-05-03T12:45:14Z</time></trkpt><trkpt lat="37.92047043431593" lon="15.9615676955183"><ele>16.0</ele><time>2026-05-03T12:45:15Z</time></trkpt><trkpt lat="37.92034831861637" lon="15.961745730224052"><ele>19.0</ele><time>2026-05-03T12:45:16Z</time></trkpt><trkpt lat="37.920238405579646" lon="15.961931565803628"><ele>22.0</ele><time>2026-05-03T12:45:17Z</time></trkpt><trkpt lat="37.92012521361643" lon="15.962117605403485"><ele>18.0</ele><time>2026-05-03T12:45:18.019Z</time></trkpt><trkpt lat="37.92001562383792" lon="15.962299082343295"><ele>14.0</ele><time>2026-05-03T12:45:19.018Z</time></trkpt><trkpt lat="37.91991400470339" lon="15.96248162718978"><ele>10.0</ele><time>2026-05-03T12:45:20.017Z</time></trkpt><trkpt lat="37.91982229432636" lon="15.962675928250404"><ele>10.0</ele><time>2026-05-03T12:45:21.014Z</time></trkpt><trkpt lat="37.91971538015147" lon="15.962942384733811"><ele>10.0</ele><time>2026-05-03T12:45:22.02Z</time></trkpt><trkpt lat="37.91964054626817" lon="15.963186103536868"><ele>10.0</ele><time>2026-05-03T12:45:23.019Z</time></trkpt><trkpt lat="37.91957909184759" lon="15.963433624633875"><ele>13.0</ele><time>2026-05-03T12:45:24.015Z</time></trkpt><trkpt lat="37.91947402156957" lon="15.96365662183481"><ele>16.0</ele><time>2026-05-03T12:45:25.02Z</time></trkpt><trkpt lat="37.91937221549604" lon="15.963869226185578"><ele>19.0</ele><time>2026-05-03T12:45:26.001Z</time></trkpt><trkpt lat="37.919277227287424" lon="15.964071820091652"><ele>13.333333333333332</ele><time>2026-05-03T12:45:27.02Z</time></trkpt><trkpt lat="37.91917887386527" lon="15.96426344794282"><ele>7.666666666666666</ele><time>2026-05-03T12:45:28.02Z</time></trkpt><trkpt lat="37.91908892357472" lon="15.96444668327534"><ele>2.0</ele><time>2026-05-03T12:45:29.001Z</time></trkpt><trkpt lat="37.91897142959054" lon="15.964701539144208"><ele>2.0</ele><time>2026-05-03T12:45:30.019Z</time></trkpt><trkpt lat="37.918868315537" lon="15.964914012907403"><ele>2.0</ele><time>2026-05-03T12:45:31.021Z</time></trkpt><trkpt lat="37.9187507417196" lon="15.965135209790498"><ele>2.0</ele><time>2026-05-03T12:45:32.021Z</time></trkpt><trkpt lat="37.91864335680055" lon="15.9653518802452"><ele>3.5</ele><time>2026-05-03T12:45:33.02Z</time></trkpt><trkpt lat="37.918524734515266" lon="15.965584259622874"><ele>5.0</ele><time>2026-05-03T12:45:34.02Z</time></trkpt><trkpt lat="37.91844877151188" lon="15.965862006857545"><ele>20.0</ele><time>2026-05-03T12:45:35.019Z</time></trkpt><trkpt lat="37.9194905428429" lon="15.966881057240071"><ele>20.0</ele><time>2026-05-03T12:45:36.02Z</time></trkpt><trkpt lat="37.91999377267549" lon="15.96752212829808"><ele>18.0</ele><time>2026-05-03T12:45:37.02Z</time></trkpt><trkpt lat="37.92015379674327" lon="15.967848313962861"><ele>16.0</ele><time>2026-05-03T12:45:38.001Z</time></trkpt><trkpt lat="37.9199201623571" lon="15.968171670063494"><ele>17.0</ele><time>2026-05-03T12:45:39.001Z</time></trkpt><trkpt lat="37.919916019541866" lon="15.968484326121425"><ele>18.0</ele><time>2026-05-03T12:45:40.001Z</time></trkpt><trkpt lat="37.91994993580856" lon="15.968771599574197"><ele>18.0</ele><time>2026-05-03T12:45:41.001Z</time></trkpt><trkpt lat="37.91998406178815" lon="15.969068811787084"><ele>18.0</ele><time>2026-05-03T12:45:42.001Z</time></trkpt><trkpt lat="37.92001507941009" lon="15.969371441168127"><ele>15.5</ele><time>2026-05-03T12:45:43.001Z</time></trkpt><trkpt lat="37.92004903360642" lon="15.969664319230953"><ele>13.0</ele><time>2026-05-03T12:45:44.001Z</time></trkpt><trkpt lat="37.92009249095767" lon="15.969957686428774"><ele>27.0</ele><time>2026-05-03T12:45:45.001Z</time></trkpt><trkpt lat="37.92013262885643" lon="15.970252008510785"><ele>41.0</ele><time>2026-05-03T12:45:46.001Z</time></trkpt><trkpt lat="37.92017586049445" lon="15.970538605958884"><ele>41.0</ele><time>2026-05-03T12:45:47.001Z</time></trkpt><trkpt lat="37.92021241817777" lon="15.970828879875674"><ele>41.0</ele><time>2026-05-03T12:45:48.001Z</time></trkpt><trkpt lat="37.92024972446084" lon="15.971115870050339"><ele>35.5</ele><time>2026-05-03T12:45:49.001Z</time></trkpt><trkpt lat="37.92028385180426" lon="15.971403444351013"><ele>30.0</ele><time>2026-05-03T12:45:50.001Z</time></trkpt><trkpt lat="37.92030754123645" lon="15.9716920164135"><ele>30.0</ele><time>2026-05-03T12:45:51.001Z</time></trkpt><trkpt lat="37.92032397983866" lon="15.971986447461916"><ele>30.0</ele><time>2026-05-03T12:45:52.001Z</time></trkpt><trkpt lat="37.92033739248273" lon="15.972278363057365"><ele>33.0</ele><time>2026-05-03T12:45:53.001Z</time></trkpt><trkpt lat="37.92035068583525" lon="15.972571784409336"><ele>36.0</ele><time>2026-05-03T12:45:54.001Z</time></trkpt><trkpt lat="37.92035930708086" lon="15.97286532621774"><ele>36.0</ele><time>2026-05-03T12:45:55.001Z</time></trkpt><trkpt lat="37.92034929120678" lon="15.973157776131139"><ele>36.0</ele><time>2026-05-03T12:45:56.001Z</time></trkpt><trkpt lat="37.92031953296973" lon="15.97345657271002"><ele>41.0</ele><time>2026-05-03T12:45:57.001Z</time></trkpt><trkpt lat="37.92028077969317" lon="15.973753134405904"><ele>46.0</ele><time>2026-05-03T12:45:58.001Z</time></trkpt><trkpt lat="37.92024918183058" lon="15.9740535680851"><ele>49.5</ele><time>2026-05-03T12:45:59.001Z</time></trkpt><trkpt lat="37.92021259342988" lon="15.974359837520298"><ele>53.0</ele><time>2026-05-03T12:46:00.001Z</time></trkpt><trkpt lat="37.920174955398515" lon="15.974664449962631"><ele>53.0</ele><time>2026-05-03T12:46:01.001Z</time></trkpt><trkpt lat="37.92013273645445" lon="15.974974258037266"><ele>53.0</ele><time>2026-05-03T12:46:02.001Z</time></trkpt><trkpt lat="37.92009256823403" lon="15.975265828192653"><ele>42.333333333333336</ele><time>2026-05-03T12:46:03.001Z</time></trkpt><trkpt lat="37.9200649708961" lon="15.975537195265789"><ele>31.666666666666668</ele><time>2026-05-03T12:46:04.001Z</time></trkpt><trkpt lat="37.92002968451743" lon="15.97580159455417"><ele>21.0</ele><time>2026-05-03T12:46:05.001Z</time></trkpt><trkpt lat="37.919975687017526" lon="15.976065722395468"><ele>21.0</ele><time>2026-05-03T12:46:06.001Z</time></trkpt><trkpt lat="37.91989695712399" lon="15.976330363087056"><ele>21.0</ele><time>2026-05-03T12:46:07.001Z</time></trkpt><trkpt lat="37.9198152138887" lon="15.976587177241166"><ele>21.0</ele><time>2026-05-03T12:46:08.001Z</time></trkpt><trkpt lat="37.919738658955715" lon="15.976844267913624"><ele>24.5</ele><time>2026-05-03T12:46:09.001Z</time></trkpt><trkpt lat="37.91966343082233" lon="15.977109053153464"><ele>28.0</ele><time>2026-05-03T12:46:10.001Z</time></trkpt><trkpt lat="37.919602546296666" lon="15.977403082764022"><ele>27.0</ele><time>2026-05-03T12:46:11.001Z</time></trkpt><trkpt lat="37.91954408533847" lon="15.977684954024475"><ele>26.0</ele><time>2026-05-03T12:46:12.001Z</time></trkpt><trkpt lat="37.919525970031756" lon="15.97795812293435"><ele>25.0</ele><time>2026-05-03T12:46:13.001Z</time></trkpt><trkpt lat="37.91950210575605" lon="15.978258698906364"><ele>23.0</ele><time>2026-05-03T12:46:14.001Z</time></trkpt><trkpt lat="37.919472235538606" lon="15.978521816665959"><ele>21.0</ele><time>2026-05-03T12:46:15.001Z</time></trkpt><trkpt lat="37.91946491627038" lon="15.978781407808349"><ele>19.0</ele><time>2026-05-03T12:46:16.001Z</time></trkpt><trkpt lat="37.919443145763914" lon="15.978984935032209"><ele>19.0</ele><time>2026-05-03T12:46:17.001Z</time></trkpt><trkpt lat="37.91940809542089" lon="15.979120557966052"><ele>19.0</ele><time>2026-05-03T12:46:18.001Z</time></trkpt><trkpt lat="37.919410589795895" lon="15.979301013155325"><ele>19.0</ele><time>2026-05-03T12:46:19.001Z</time></trkpt><trkpt lat="37.919411704273344" lon="15.979446018016505"><ele>19.0</ele><time>2026-05-03T12:46:20.001Z</time></trkpt><trkpt lat="37.91940321239803" lon="15.979565061206214"><ele>18.2</ele><time>2026-05-03T12:46:21.001Z</time></trkpt><trkpt lat="37.91940043565289" lon="15.979647166073157"><ele>17.4</ele><time>2026-05-03T12:46:22.001Z</time></trkpt><trkpt lat="37.91931402444584" lon="15.97972291701374"><ele>16.6</ele><time>2026-05-03T12:46:24.001Z</time></trkpt><trkpt lat="37.91921368705814" lon="15.979618395404625"><ele>15.8</ele><time>2026-05-03T12:46:26.001Z</time></trkpt><trkpt lat="37.91914652797394" lon="15.97959299987705"><ele>15.0</ele><time>2026-05-03T12:46:28.001Z</time></trkpt><trkpt lat="37.91919263509902" lon="15.979451876319422"><ele>15.0</ele><time>2026-05-03T12:46:30.001Z</time></trkpt><trkpt lat="37.919237388401086" lon="15.979343345104278"><ele>15.0</ele><time>2026-05-03T12:46:31.001Z</time></trkpt><trkpt lat="37.91927049854541" lon="15.97922302139696"><ele>15.0</ele><time>2026-05-03T12:46:32.001Z</time></trkpt><trkpt lat="37.91929016280278" lon="15.979081201006677"><ele>15.0</ele><time>2026-05-03T12:46:33.001Z</time></trkpt><trkpt lat="37.91930138589428" lon="15.978923515297648"><ele>15.0</ele><time>2026-05-03T12:46:34.001Z</time></trkpt><trkpt lat="37.91931053873742" lon="15.978772606728699"><ele>15.8</ele><time>2026-05-03T12:46:35.001Z</time></trkpt><trkpt lat="37.919319919506144" lon="15.978633408528824"><ele>16.6</ele><time>2026-05-03T12:46:36.001Z</time></trkpt><trkpt lat="37.91932530104896" lon="15.978512332383046"><ele>17.4</ele><time>2026-05-03T12:46:37.001Z</time></trkpt><trkpt lat="37.91930903383531" lon="15.978378248188287"><ele>18.2</ele><time>2026-05-03T12:46:38.001Z</time></trkpt><trkpt lat="37.919337502310825" lon="15.978286065005266"><ele>19.0</ele><time>2026-05-03T12:46:39.001Z</time></trkpt><trkpt lat="37.91934882055384" lon="15.978188872974291"><ele>20.0</ele><time>2026-05-03T12:46:40.002Z</time></trkpt><trkpt lat="37.91935292766817" lon="15.978094929408496"><ele>21.0</ele><time>2026-05-03T12:46:41.002Z</time></trkpt><trkpt lat="37.91936744868314" lon="15.978003658216265"><ele>22.0</ele><time>2026-05-03T12:46:42Z</time></trkpt><trkpt lat="37.91937250708446" lon="15.97790872056533"><ele>23.0</ele><time>2026-05-03T12:46:43Z</time></trkpt><trkpt lat="37.91938185545613" lon="15.97782352713288"><ele>24.000000000000004</ele><time>2026-05-03T12:46:44Z</time></trkpt><trkpt lat="37.91931392219544" lon="15.977743366120361"><ele>25.0</ele><time>2026-05-03T12:46:46Z</time></trkpt><trkpt lat="37.919243029757105" lon="15.977755381223433"><ele>22.166666666666668</ele><time>2026-05-03T12:46:47Z</time></trkpt><trkpt lat="37.91916873867045" lon="15.977701043915673"><ele>19.333333333333336</ele><time>2026-05-03T12:46:49Z</time></trkpt><trkpt lat="37.91911878236215" lon="15.977804825754685"><ele>16.5</ele><time>2026-05-03T12:46:50Z</time></trkpt><trkpt lat="37.91910304139502" lon="15.977901280013239"><ele>13.666666666666668</ele><time>2026-05-03T12:46:51Z</time></trkpt><trkpt lat="37.9190797638724" lon="15.977976601988528"><ele>10.833333333333332</ele><time>2026-05-03T12:46:52Z</time></trkpt><trkpt lat="37.91907258333488" lon="15.978062097220633"><ele>8.0</ele><time>2026-05-03T12:46:53Z</time></trkpt><trkpt lat="37.9190388409526" lon="15.978144850541417"><ele>7.999999999999999</ele><time>2026-05-03T12:46:54Z</time></trkpt><trkpt lat="37.918995794739956" lon="15.978231386533276"><ele>8.0</ele><time>2026-05-03T12:46:55Z</time></trkpt><trkpt lat="37.918956078596274" lon="15.978318049204866"><ele>8.0</ele><time>2026-05-03T12:46:56Z</time></trkpt><trkpt lat="37.91891446963311" lon="15.97841862754254"><ele>8.0</ele><time>2026-05-03T12:46:57Z</time></trkpt><trkpt lat="37.918876021775866" lon="15.978512193312566"><ele>7.999999999999999</ele><time>2026-05-03T12:46:58Z</time></trkpt><trkpt lat="37.91884193082095" lon="15.978612054623778"><ele>8.0</ele><time>2026-05-03T12:46:59Z</time></trkpt><trkpt lat="37.918798678031514" lon="15.9787075756411"><ele>7.833333333333333</ele><time>2026-05-03T12:47:00Z</time></trkpt><trkpt lat="37.91875453021701" lon="15.97880670017498"><ele>7.666666666666666</ele><time>2026-05-03T12:47:01Z</time></trkpt><trkpt lat="37.91870983061907" lon="15.978898702092346"><ele>7.5</ele><time>2026-05-03T12:47:02Z</time></trkpt><trkpt lat="37.91866464641398" lon="15.978982471285448"><ele>7.333333333333334</ele><time>2026-05-03T12:47:03Z</time></trkpt><trkpt lat="37.91862883848926" lon="15.979062878481376"><ele>7.166666666666667</ele><time>2026-05-03T12:47:04Z</time></trkpt><trkpt lat="37.918602625188825" lon="15.979135570223503"><ele>7.0</ele><time>2026-05-03T12:47:05Z</time></trkpt><trkpt lat="37.918578976208416" lon="15.97925175594991"><ele>7.0</ele><time>2026-05-03T12:47:07Z</time></trkpt><trkpt lat="37.91872330713284" lon="15.979346973031333"><ele>6.999999999999999</ele><time>2026-05-03T12:47:09Z</time></trkpt><trkpt lat="37.918787280414314" lon="15.979410519504935"><ele>6.999999999999999</ele><time>2026-05-03T12:47:10Z</time></trkpt><trkpt lat="37.918858512806786" lon="15.979456240004392"><ele>7.0</ele><time>2026-05-03T12:47:11Z</time></trkpt><trkpt lat="37.91892740194733" lon="15.97949499099233"><ele>7.0</ele><time>2026-05-03T12:47:12Z</time></trkpt><trkpt lat="37.918991178714904" lon="15.979540101025306"><ele>7.000000000000001</ele><time>2026-05-03T12:47:13Z</time></trkpt><trkpt lat="37.9190555641766" lon="15.97958950478229"><ele>7.0</ele><time>2026-05-03T12:47:14Z</time></trkpt><trkpt lat="37.91913661790924" lon="15.979622705643054"><ele>7.0</ele><time>2026-05-03T12:47:15Z</time></trkpt><trkpt lat="37.91919847264014" lon="15.979681492073388"><ele>7.0</ele><time>2026-05-03T12:47:16Z</time></trkpt><trkpt lat="37.91929089843292" lon="15.979702997451843"><ele>7.000000000000001</ele><time>2026-05-03T12:47:17Z</time></trkpt><trkpt lat="37.919362016357226" lon="15.979703394832706"><ele>7.0</ele><time>2026-05-03T12:47:18Z</time></trkpt><trkpt lat="37.91936267506588" lon="15.979945173531233"><ele>8.0</ele><time>2026-05-03T12:47:22Z</time></trkpt><trkpt lat="37.91934993324591" lon="15.980112426044323"><ele>9.0</ele><time>2026-05-03T12:47:23Z</time></trkpt><trkpt lat="37.91934877971765" lon="15.980286931221203"><ele>10.0</ele><time>2026-05-03T12:47:24Z</time></trkpt><trkpt lat="37.91931548510312" lon="15.980438087093704"><ele>11.0</ele><time>2026-05-03T12:47:25Z</time></trkpt><trkpt lat="37.91929551717059" lon="15.980616528209783"><ele>11.0</ele><time>2026-05-03T12:47:26Z</time></trkpt><trkpt lat="37.919281599169274" lon="15.980823808066125"><ele>11.0</ele><time>2026-05-03T12:47:27Z</time></trkpt><trkpt lat="37.919260471041106" lon="15.98103227200006"><ele>11.0</ele><time>2026-05-03T12:47:28Z</time></trkpt><trkpt lat="37.919247906111416" lon="15.981218686307836"><ele>10.333333333333332</ele><time>2026-05-03T12:47:29Z</time></trkpt><trkpt lat="37.919248985692505" lon="15.981414591703299"><ele>9.666666666666666</ele><time>2026-05-03T12:47:30Z</time></trkpt><trkpt lat="37.91923382673627" lon="15.98161411383556"><ele>9.0</ele><time>2026-05-03T12:47:31Z</time></trkpt><trkpt lat="37.919212476113934" lon="15.981821680191285"><ele>8.0</ele><time>2026-05-03T12:47:32Z</time></trkpt><trkpt lat="37.91919822425535" lon="15.98202180979702"><ele>7.0</ele><time>2026-05-03T12:47:33.001Z</time></trkpt><trkpt lat="37.91919086015492" lon="15.982215821572643"><ele>6.0</ele><time>2026-05-03T12:47:34.001Z</time></trkpt><trkpt lat="37.91917956420577" lon="15.982434633162661"><ele>6.333333333333334</ele><time>2026-05-03T12:47:35.001Z</time></trkpt><trkpt lat="37.919173282001864" lon="15.982646008923249"><ele>6.666666666666667</ele><time>2026-05-03T12:47:36.001Z</time></trkpt><trkpt lat="37.91915635293817" lon="15.982835024658014"><ele>7.0</ele><time>2026-05-03T12:47:37.001Z</time></trkpt><trkpt lat="37.9191350699783" lon="15.983066542111672"><ele>7.0</ele><time>2026-05-03T12:47:38.001Z</time></trkpt><trkpt lat="37.91912923882268" lon="15.983273038362386"><ele>7.0</ele><time>2026-05-03T12:47:39.001Z</time></trkpt><trkpt lat="37.91910786751436" lon="15.983500097785097"><ele>7.0</ele><time>2026-05-03T12:47:40.001Z</time></trkpt><trkpt lat="37.919082692239684" lon="15.983726818230103"><ele>7.0</ele><time>2026-05-03T12:47:41.001Z</time></trkpt><trkpt lat="37.919056553906714" lon="15.983932896752792"><ele>7.0</ele><time>2026-05-03T12:47:42.001Z</time></trkpt><trkpt lat="37.919044665606336" lon="15.984128034632056"><ele>7.0</ele><time>2026-05-03T12:47:43.001Z</time></trkpt><trkpt lat="37.919027362040744" lon="15.98427416128186"><ele>7.0</ele><time>2026-05-03T12:47:44.001Z</time></trkpt><trkpt lat="37.91902550829097" lon="15.984380983383396"><ele>7.8</ele><time>2026-05-03T12:47:45.001Z</time></trkpt><trkpt lat="37.919025754706574" lon="15.98447422905433"><ele>8.6</ele><time>2026-05-03T12:47:46.001Z</time></trkpt><trkpt lat="37.919201091600264" lon="15.984488934970722"><ele>9.4</ele><time>2026-05-03T12:47:50.001Z</time></trkpt><trkpt lat="37.91926768545889" lon="15.98445968764676"><ele>10.200000000000001</ele><time>2026-05-03T12:47:51.001Z</time></trkpt><trkpt lat="37.91935476252263" lon="15.984441027573194"><ele>11.0</ele><time>2026-05-03T12:47:52.001Z</time></trkpt><trkpt lat="37.919442123558525" lon="15.984440556718805"><ele>11.5</ele><time>2026-05-03T12:47:53.001Z</time></trkpt><trkpt lat="37.919503539091444" lon="15.98440236468035"><ele>12.0</ele><time>2026-05-03T12:47:54.001Z</time></trkpt><trkpt lat="37.919568450209404" lon="15.984384567084899"><ele>12.5</ele><time>2026-05-03T12:47:55.001Z</time></trkpt><trkpt lat="37.91963309089829" lon="15.984363551537122"><ele>13.0</ele><time>2026-05-03T12:47:56.001Z</time></trkpt><trkpt lat="37.919664625344865" lon="15.984272041008595"><ele>13.500000000000002</ele><time>2026-05-03T12:48:01.001Z</time></trkpt><trkpt lat="37.919514887427844" lon="15.984248898241864"><ele>14.0</ele><time>2026-05-03T12:48:03.001Z</time></trkpt><trkpt lat="37.91942087045609" lon="15.984281710599825"><ele>14.000000000000002</ele><time>2026-05-03T12:48:04.001Z</time></trkpt><trkpt lat="37.919360319818985" lon="15.984310897931115"><ele>14.0</ele><time>2026-05-03T12:48:05.001Z</time></trkpt><trkpt lat="37.91927735662842" lon="15.984349433225942"><ele>14.0</ele><time>2026-05-03T12:48:06.001Z</time></trkpt><trkpt lat="37.91921401835809" lon="15.984376527693207"><ele>14.0</ele><time>2026-05-03T12:48:07.001Z</time></trkpt><trkpt lat="37.91913563808994" lon="15.984410817621333"><ele>14.000000000000002</ele><time>2026-05-03T12:48:08.001Z</time></trkpt><trkpt lat="37.919057649985454" lon="15.984417544168705"><ele>14.0</ele><time>2026-05-03T12:48:09.001Z</time></trkpt><trkpt lat="37.9189766387756" lon="15.984447504693874"><ele>13.399999999999999</ele><time>2026-05-03T12:48:10.001Z</time></trkpt><trkpt lat="37.91889958324607" lon="15.984477703835207"><ele>12.799999999999999</ele><time>2026-05-03T12:48:11.001Z</time></trkpt><trkpt lat="37.91882180196769" lon="15.984531437551412"><ele>12.2</ele><time>2026-05-03T12:48:12.001Z</time></trkpt><trkpt lat="37.91888003357664" lon="15.984485856100362"><ele>11.600000000000001</ele><time>2026-05-03T12:48:13.001Z</time></trkpt><trkpt lat="37.91879023942097" lon="15.984568569111143"><ele>11.0</ele><time>2026-05-03T12:48:15.001Z</time></trkpt><trkpt lat="37.91873275874135" lon="15.9846765287708"><ele>11.0</ele><time>2026-05-03T12:48:17.001Z</time></trkpt><trkpt lat="37.9187100776" lon="15.984835758892912"><ele>11.0</ele><time>2026-05-03T12:48:19.001Z</time></trkpt><trkpt lat="37.91870434974717" lon="15.984929875970675"><ele>11.0</ele><time>2026-05-03T12:48:20.001Z</time></trkpt><trkpt lat="37.91869555961322" lon="15.985025438825959"><ele>11.0</ele><time>2026-05-03T12:48:21.001Z</time></trkpt><trkpt lat="37.91868676836843" lon="15.985118714604344"><ele>11.0</ele><time>2026-05-03T12:48:22.001Z</time></trkpt><trkpt lat="37.91866440542513" lon="15.985327409421954"><ele>11.0</ele><time>2026-05-03T12:48:24.001Z</time></trkpt><trkpt lat="37.918653985510666" lon="15.985413299247211"><ele>11.0</ele><time>2026-05-03T12:48:25.001Z</time></trkpt><trkpt lat="37.91864206904273" lon="15.985500930163347"><ele>11.0</ele><time>2026-05-03T12:48:26.001Z</time></trkpt><trkpt lat="37.91862837283435" lon="15.985601648818124"><ele>11.0</ele><time>2026-05-03T12:48:27.001Z</time></trkpt><trkpt lat="37.91861338035771" lon="15.98571190001444"><ele>11.0</ele><time>2026-05-03T12:48:28.001Z</time></trkpt><trkpt lat="37.91861059940988" lon="15.985822451919104"><ele>11.0</ele><time>2026-05-03T12:48:29.001Z</time></trkpt><trkpt lat="37.918597048232655" lon="15.985934012238188"><ele>11.0</ele><time>2026-05-03T12:48:30.001Z</time></trkpt><trkpt lat="37.91858713733346" lon="15.986037979836917"><ele>11.0</ele><time>2026-05-03T12:48:31.001Z</time></trkpt><trkpt lat="37.91857642271151" lon="15.986129338509876"><ele>11.0</ele><time>2026-05-03T12:48:32.001Z</time></trkpt><trkpt lat="37.918567596403435" lon="15.986211498248391"><ele>11.0</ele><time>2026-05-03T12:48:33.001Z</time></trkpt><trkpt lat="37.91849456718263" lon="15.98632131053622"><ele>11.0</ele><time>2026-05-03T12:48:35.001Z</time></trkpt><trkpt lat="37.91843207241269" lon="15.986345550690409"><ele>11.0</ele><time>2026-05-03T12:48:36.001Z</time></trkpt><trkpt lat="37.918307505386956" lon="15.986341154180215"><ele>10.166666666666666</ele><time>2026-05-03T12:48:38.001Z</time></trkpt><trkpt lat="37.91823995521187" lon="15.986371997723191"><ele>9.333333333333332</ele><time>2026-05-03T12:48:39.001Z</time></trkpt><trkpt lat="37.91818101932069" lon="15.986428143313674"><ele>8.5</ele><time>2026-05-03T12:48:40.001Z</time></trkpt><trkpt lat="37.91816131669154" lon="15.986541522034559"><ele>7.666666666666666</ele><time>2026-05-03T12:48:41.001Z</time></trkpt><trkpt lat="37.918169879337086" lon="15.986650380124013"><ele>6.833333333333333</ele><time>2026-05-03T12:48:42.001Z</time></trkpt><trkpt lat="37.91816977655985" lon="15.986746681016568"><ele>6.0</ele><time>2026-05-03T12:48:43.001Z</time></trkpt><trkpt lat="37.91816121344891" lon="15.986855137671808"><ele>5.833333333333333</ele><time>2026-05-03T12:48:44.001Z</time></trkpt><trkpt lat="37.91818180723411" lon="15.986960437017945"><ele>5.666666666666667</ele><time>2026-05-03T12:48:45.001Z</time></trkpt><trkpt lat="37.9181965820242" lon="15.987058383225389"><ele>5.5</ele><time>2026-05-03T12:48:46.001Z</time></trkpt><trkpt lat="37.91820439949219" lon="15.987170905132322"><ele>5.333333333333334</ele><time>2026-05-03T12:48:47.001Z</time></trkpt><trkpt lat="37.91822872997337" lon="15.987273626755437"><ele>5.166666666666667</ele><time>2026-05-03T12:48:48Z</time></trkpt><trkpt lat="37.91824778690047" lon="15.98738085540739"><ele>5.0</ele><time>2026-05-03T12:48:49Z</time></trkpt><trkpt lat="37.91826913895616" lon="15.987490400037117"><ele>5.0</ele><time>2026-05-03T12:48:50Z</time></trkpt><trkpt lat="37.918270909306734" lon="15.98759934962998"><ele>5.0</ele><time>2026-05-03T12:48:51Z</time></trkpt><trkpt lat="37.9182880989632" lon="15.987702487146882"><ele>5.0</ele><time>2026-05-03T12:48:52Z</time></trkpt><trkpt lat="37.9183049909669" lon="15.987803838617003"><ele>5.0</ele><time>2026-05-03T12:48:53Z</time></trkpt><trkpt lat="37.91831909712164" lon="15.987888475104842"><ele>5.0</ele><time>2026-05-03T12:48:54Z</time></trkpt><trkpt lat="37.91833217395508" lon="15.98796693568083"><ele>5.0</ele><time>2026-05-03T12:48:55Z</time></trkpt><trkpt lat="37.91837028173533" lon="15.988090847708996"><ele>5.0</ele><time>2026-05-03T12:48:57Z</time></trkpt><trkpt lat="37.91839809714378" lon="15.988229550250214"><ele>5.0</ele><time>2026-05-03T12:48:59Z</time></trkpt><trkpt lat="37.91842761121745" lon="15.988310420363835"><ele>5.0</ele><time>2026-05-03T12:49:00Z</time></trkpt><trkpt lat="37.918426289297855" lon="15.988397486871555"><ele>5.0</ele><time>2026-05-03T12:49:01Z</time></trkpt><trkpt lat="37.918468413665884" lon="15.988481278841705"><ele>5.0</ele><time>2026-05-03T12:49:02Z</time></trkpt><trkpt lat="37.91845194961099" lon="15.988654261928787"><ele>5.833333333333334</ele><time>2026-05-03T12:49:04Z</time></trkpt><trkpt lat="37.91845540894617" lon="15.98873717994097"><ele>6.666666666666667</ele><time>2026-05-03T12:49:05Z</time></trkpt><trkpt lat="37.91845301321351" lon="15.988854902772806"><ele>7.5</ele><time>2026-05-03T12:49:07Z</time></trkpt><trkpt lat="37.91845692026925" lon="15.988955214453226"><ele>8.333333333333334</ele><time>2026-05-03T12:49:10Z</time></trkpt><trkpt lat="37.91845337393772" lon="15.989073635297153"><ele>9.166666666666668</ele><time>2026-05-03T12:49:12Z</time></trkpt><trkpt lat="37.918450653092236" lon="15.989195275692062"><ele>10.0</ele><time>2026-05-03T12:49:14Z</time></trkpt><trkpt lat="37.918455220452536" lon="15.989297671286211"><ele>10.166666666666668</ele><time>2026-05-03T12:49:16Z</time></trkpt><trkpt lat="37.9184602786479" lon="15.989409576274715"><ele>10.333333333333334</ele><time>2026-05-03T12:49:18Z</time></trkpt><trkpt lat="37.91845327438088" lon="15.98951717548355"><ele>10.5</ele><time>2026-05-03T12:49:20Z</time></trkpt><trkpt lat="37.918434439376895" lon="15.989626119680445"><ele>10.666666666666666</ele><time>2026-05-03T12:49:22Z</time></trkpt><trkpt lat="37.91843901558463" lon="15.98973314302116"><ele>10.833333333333332</ele><time>2026-05-03T12:49:23Z</time></trkpt><trkpt lat="37.918438570213425" lon="15.989856109926116"><ele>11.0</ele><time>2026-05-03T12:49:25Z</time></trkpt><trkpt lat="37.918421167626015" lon="15.989987645375736"><ele>11.0</ele><time>2026-05-03T12:49:27Z</time></trkpt><trkpt lat="37.918413724037805" lon="15.990091514221401"><ele>11.0</ele><time>2026-05-03T12:49:29Z</time></trkpt><trkpt lat="37.918402958488024" lon="15.990192743355903"><ele>11.0</ele><time>2026-05-03T12:49:32Z</time></trkpt><trkpt lat="37.91836192158198" lon="15.990287122635504"><ele>11.0</ele><time>2026-05-03T12:49:36Z</time></trkpt><trkpt lat="37.91838369801604" lon="15.99020902152858"><ele>11.0</ele><time>2026-05-03T12:49:54.001Z</time></trkpt><trkpt lat="37.91840103205016" lon="15.990117669775247"><ele>11.0</ele><time>2026-05-03T12:49:56.001Z</time></trkpt><trkpt lat="37.91841839276882" lon="15.989975274265573"><ele>11.0</ele><time>2026-05-03T12:49:58.001Z</time></trkpt><trkpt lat="37.91842596746709" lon="15.989825779156153"><ele>11.0</ele><time>2026-05-03T12:50:00.001Z</time></trkpt><trkpt lat="37.918447246422495" lon="15.98970430436877"><ele>11.0</ele><time>2026-05-03T12:50:02.001Z</time></trkpt><trkpt lat="37.91845919739514" lon="15.989571640301685"><ele>11.0</ele><time>2026-05-03T12:50:04.001Z</time></trkpt><trkpt lat="37.918465288208665" lon="15.989453785449884"><ele>11.0</ele><time>2026-05-03T12:50:06.001Z</time></trkpt><trkpt lat="37.91846882216622" lon="15.989361560511734"><ele>11.0</ele><time>2026-05-03T12:50:08.001Z</time></trkpt><trkpt lat="37.918472228704466" lon="15.98926721773688"><ele>11.0</ele><time>2026-05-03T12:50:10.001Z</time></trkpt><trkpt lat="37.9184827198598" lon="15.989155870600332"><ele>11.0</ele><time>2026-05-03T12:50:12.001Z</time></trkpt><trkpt lat="37.918475205997474" lon="15.989043040156092"><ele>11.0</ele><time>2026-05-03T12:50:15.001Z</time></trkpt><trkpt lat="37.91847527920256" lon="15.988960558162256"><ele>11.0</ele><time>2026-05-03T12:50:17.001Z</time></trkpt><trkpt lat="37.918477780898584" lon="15.988854038042906"><ele>11.0</ele><time>2026-05-03T12:50:20.001Z</time></trkpt><trkpt lat="37.9184814254289" lon="15.988758288835974"><ele>10.8</ele><time>2026-05-03T12:50:24.001Z</time></trkpt><trkpt lat="37.9184742237614" lon="15.988631762973993"><ele>10.600000000000001</ele><time>2026-05-03T12:50:28.001Z</time></trkpt><trkpt lat="37.91847932775406" lon="15.988539609909763"><ele>10.4</ele><time>2026-05-03T12:50:29.001Z</time></trkpt><trkpt lat="37.91848342520563" lon="15.988376805932612"><ele>10.2</ele><time>2026-05-03T12:50:31.001Z</time></trkpt><trkpt lat="37.91848258019668" lon="15.988288242258108"><ele>10.0</ele><time>2026-05-03T12:50:32.001Z</time></trkpt><trkpt lat="37.918485083130435" lon="15.988156113908824"><ele>10.0</ele><time>2026-05-03T12:50:34.001Z</time></trkpt><trkpt lat="37.91847655025714" lon="15.988074701863672"><ele>10.0</ele><time>2026-05-03T12:50:35.001Z</time></trkpt><trkpt lat="37.91843927002301" lon="15.987996312231814"><ele>10.0</ele><time>2026-05-03T12:50:36.001Z</time></trkpt><trkpt lat="37.91841015163882" lon="15.987914629161281"><ele>10.0</ele><time>2026-05-03T12:50:37.001Z</time></trkpt><trkpt lat="37.9183476863592" lon="15.987776148171754"><ele>10.0</ele><time>2026-05-03T12:50:39.001Z</time></trkpt><trkpt lat="37.918328051888366" lon="15.987687002270075"><ele>10.0</ele><time>2026-05-03T12:50:40.001Z</time></trkpt><trkpt lat="37.91831231788761" lon="15.987596009514577"><ele>9.166666666666668</ele><time>2026-05-03T12:50:41.001Z</time></trkpt><trkpt lat="37.91828774357577" lon="15.987499403937722"><ele>8.333333333333334</ele><time>2026-05-03T12:50:42.001Z</time></trkpt><trkpt lat="37.918267412615876" lon="15.987404241687347"><ele>7.5</ele><time>2026-05-03T12:50:43.001Z</time></trkpt><trkpt lat="37.91825240485808" lon="15.98730112365062"><ele>6.666666666666667</ele><time>2026-05-03T12:50:44.001Z</time></trkpt><trkpt lat="37.91823975530913" lon="15.987200906790962"><ele>5.833333333333334</ele><time>2026-05-03T12:50:45.001Z</time></trkpt><trkpt lat="37.91822705681508" lon="15.987094063225962"><ele>5.0</ele><time>2026-05-03T12:50:46.001Z</time></trkpt><trkpt lat="37.91820796099268" lon="15.986997831919416"><ele>5.0</ele><time>2026-05-03T12:50:47.001Z</time></trkpt><trkpt lat="37.91818761284885" lon="15.986892734317545"><ele>5.0</ele><time>2026-05-03T12:50:48.001Z</time></trkpt><trkpt lat="37.91816897829685" lon="15.986792966992226"><ele>5.0</ele><time>2026-05-03T12:50:49.001Z</time></trkpt><trkpt lat="37.9181604780912" lon="15.986689669278146"><ele>5.0</ele><time>2026-05-03T12:50:50.001Z</time></trkpt><trkpt lat="37.91816180926937" lon="15.986600327427372"><ele>5.0</ele><time>2026-05-03T12:50:51.001Z</time></trkpt><trkpt lat="37.9181760998574" lon="15.986520662111673"><ele>5.0</ele><time>2026-05-03T12:50:52.001Z</time></trkpt><trkpt lat="37.91819708703055" lon="15.986444639250037"><ele>5.0</ele><time>2026-05-03T12:50:53.001Z</time></trkpt><trkpt lat="37.918244078277155" lon="15.986386816352205"><ele>5.2</ele><time>2026-05-03T12:50:54Z</time></trkpt><trkpt lat="37.918386779876265" lon="15.986322763342656"><ele>5.4</ele><time>2026-05-03T12:50:56Z</time></trkpt><trkpt lat="37.91847135550238" lon="15.986309375362104"><ele>5.6</ele><time>2026-05-03T12:50:57Z</time></trkpt><trkpt lat="37.918561429882004" lon="15.986211197834315"><ele>5.8</ele><time>2026-05-03T12:50:59Z</time></trkpt><trkpt lat="37.918585607762594" lon="15.98613028033383"><ele>6.0</ele><time>2026-05-03T12:51:00Z</time></trkpt><trkpt lat="37.91859033978204" lon="15.98602896638444"><ele>6.666666666666667</ele><time>2026-05-03T12:51:01Z</time></trkpt><trkpt lat="37.918604476643836" lon="15.985923970069752"><ele>7.333333333333334</ele><time>2026-05-03T12:51:02Z</time></trkpt><trkpt lat="37.91862131926247" lon="15.985811526399358"><ele>8.0</ele><time>2026-05-03T12:51:03Z</time></trkpt><trkpt lat="37.918638195614506" lon="15.985697625559856"><ele>8.666666666666668</ele><time>2026-05-03T12:51:04Z</time></trkpt><trkpt lat="37.91865386148391" lon="15.985593647984805"><ele>9.333333333333334</ele><time>2026-05-03T12:51:05Z</time></trkpt><trkpt lat="37.9186659024798" lon="15.98547868070282"><ele>10.0</ele><time>2026-05-03T12:51:06Z</time></trkpt><trkpt lat="37.9186773502191" lon="15.985382915150932"><ele>10.0</ele><time>2026-05-03T12:51:07Z</time></trkpt><trkpt lat="37.91868927402013" lon="15.985284471040435"><ele>10.0</ele><time>2026-05-03T12:51:08Z</time></trkpt><trkpt lat="37.91870103349071" lon="15.985186780417761"><ele>10.0</ele><time>2026-05-03T12:51:09Z</time></trkpt><trkpt lat="37.91870458483494" lon="15.985102456098033"><ele>10.0</ele><time>2026-05-03T12:51:10Z</time></trkpt><trkpt lat="37.91870910194062" lon="15.98502230172329"><ele>10.0</ele><time>2026-05-03T12:51:11Z</time></trkpt><trkpt lat="37.91872918118865" lon="15.984880262757441"><ele>10.0</ele><time>2026-05-03T12:51:13Z</time></trkpt><trkpt lat="37.918745105309426" lon="15.98473315444134"><ele>10.25</ele><time>2026-05-03T12:51:15Z</time></trkpt><trkpt lat="37.91877672153911" lon="15.984610701196454"><ele>10.5</ele><time>2026-05-03T12:51:17Z</time></trkpt><trkpt lat="37.91883856123058" lon="15.984506883328331"><ele>10.75</ele><time>2026-05-03T12:51:19Z</time></trkpt><trkpt lat="37.91895605546512" lon="15.984461149831478"><ele>11.0</ele><time>2026-05-03T12:51:21Z</time></trkpt><trkpt lat="37.91906257758033" lon="15.984563384246453"><ele>11.0</ele><time>2026-05-03T12:51:22Z</time></trkpt><trkpt lat="37.91912518870155" lon="15.984529122874235"><ele>11.0</ele><time>2026-05-03T12:51:23Z</time></trkpt><trkpt lat="37.919288664423306" lon="15.984464658188037"><ele>11.0</ele><time>2026-05-03T12:51:25Z</time></trkpt><trkpt lat="37.91938583788627" lon="15.984434636542343"><ele>11.0</ele><time>2026-05-03T12:51:26Z</time></trkpt><trkpt lat="37.919456878559956" lon="15.98441515828021"><ele>11.0</ele><time>2026-05-03T12:51:27Z</time></trkpt><trkpt lat="37.91956410100152" lon="15.984384857155602"><ele>11.0</ele><time>2026-05-03T12:51:29Z</time></trkpt><trkpt lat="37.919631491560025" lon="15.984358977949482"><ele>11.0</ele><time>2026-05-03T12:51:31Z</time></trkpt><trkpt lat="37.91950336609173" lon="15.984252686850404"><ele>11.0</ele><time>2026-05-03T12:51:37Z</time></trkpt><trkpt lat="37.91943524710619" lon="15.984276246728172"><ele>11.0</ele><time>2026-05-03T12:51:38Z</time></trkpt><trkpt lat="37.919374866044016" lon="15.984299194703418"><ele>11.0</ele><time>2026-05-03T12:51:39Z</time></trkpt><trkpt lat="37.919303259385245" lon="15.98432640898534"><ele>11.0</ele><time>2026-05-03T12:51:40Z</time></trkpt><trkpt lat="37.919219637323515" lon="15.984340049982363"><ele>11.0</ele><time>2026-05-03T12:51:41Z</time></trkpt><trkpt lat="37.91916057332265" lon="15.984395629452532"><ele>11.0</ele><time>2026-05-03T12:51:42Z</time></trkpt><trkpt lat="37.91909080232457" lon="15.984424575721752"><ele>11.0</ele><time>2026-05-03T12:51:43Z</time></trkpt><trkpt lat="37.91901906152167" lon="15.984431575009916"><ele>11.0</ele><time>2026-05-03T12:51:46Z</time></trkpt><trkpt lat="37.91874485840257" lon="15.98463254311822"><ele>11.0</ele><time>2026-05-03T12:51:53Z</time></trkpt><trkpt lat="37.91871376890761" lon="15.984800991019661"><ele>11.0</ele><time>2026-05-03T12:51:54.001Z</time></trkpt><trkpt lat="37.918703664165186" lon="15.984935068767237"><ele>11.0</ele><time>2026-05-03T12:51:55.001Z</time></trkpt><trkpt lat="37.918692497493495" lon="15.985058729265049"><ele>11.0</ele><time>2026-05-03T12:51:56.001Z</time></trkpt><trkpt lat="37.918678607628564" lon="15.985194872232421"><ele>11.0</ele><time>2026-05-03T12:51:57.001Z</time></trkpt><trkpt lat="37.91866233945892" lon="15.985346689497225"><ele>11.0</ele><time>2026-05-03T12:51:58.001Z</time></trkpt><trkpt lat="37.918643898982225" lon="15.985487473367476"><ele>11.0</ele><time>2026-05-03T12:51:59.001Z</time></trkpt><trkpt lat="37.918621957986616" lon="15.98564882223632"><ele>11.0</ele><time>2026-05-03T12:52:00.001Z</time></trkpt><trkpt lat="37.91859646965205" lon="15.985845871701377"><ele>11.0</ele><time>2026-05-03T12:52:01.001Z</time></trkpt><trkpt lat="37.91857416725311" lon="15.986044676182978"><ele>11.0</ele><time>2026-05-03T12:52:02.001Z</time></trkpt><trkpt lat="37.918553750382976" lon="15.98627175026629"><ele>11.0</ele><time>2026-05-03T12:52:03.001Z</time></trkpt><trkpt lat="37.918546303717726" lon="15.98645429296919"><ele>11.0</ele><time>2026-05-03T12:52:04.001Z</time></trkpt><trkpt lat="37.91852090979067" lon="15.986621890461281"><ele>12.0</ele><time>2026-05-03T12:52:05.001Z</time></trkpt><trkpt lat="37.91900338556135" lon="15.987096575623024"><ele>12.0</ele><time>2026-05-03T12:52:06.001Z</time></trkpt><trkpt lat="37.91895963677735" lon="15.987373779637227"><ele>12.0</ele><time>2026-05-03T12:52:07.001Z</time></trkpt><trkpt lat="37.91889032545573" lon="15.987649889273499"><ele>11.0</ele><time>2026-05-03T12:52:08.001Z</time></trkpt><trkpt lat="37.91882191771416" lon="15.987928717232581"><ele>10.0</ele><time>2026-05-03T12:52:09.001Z</time></trkpt><trkpt lat="37.91878167046275" lon="15.988242176119776"><ele>10.0</ele><time>2026-05-03T12:52:10.001Z</time></trkpt><trkpt lat="37.918752686828604" lon="15.98859249143666"><ele>10.0</ele><time>2026-05-03T12:52:11.001Z</time></trkpt><trkpt lat="37.91872213547689" lon="15.98897453202633"><ele>10.5</ele><time>2026-05-03T12:52:12.001Z</time></trkpt><trkpt lat="37.918706032961474" lon="15.989334337399306"><ele>11.0</ele><time>2026-05-03T12:52:13.001Z</time></trkpt><trkpt lat="37.91867983470693" lon="15.989678350370683"><ele>11.0</ele><time>2026-05-03T12:52:14.001Z</time></trkpt><trkpt lat="37.91865572544731" lon="15.989972779139016"><ele>11.0</ele><time>2026-05-03T12:52:15.001Z</time></trkpt><trkpt lat="37.918635938142536" lon="15.990267403592517"><ele>11.5</ele><time>2026-05-03T12:52:16.001Z</time></trkpt><trkpt lat="37.91862120164312" lon="15.990561505727397"><ele>12.0</ele><time>2026-05-03T12:52:17.001Z</time></trkpt><trkpt lat="37.918590407787505" lon="15.990835805304672"><ele>15.0</ele><time>2026-05-03T12:52:18.001Z</time></trkpt><trkpt lat="37.91857212598727" lon="15.991125017659336"><ele>18.0</ele><time>2026-05-03T12:52:19.001Z</time></trkpt><trkpt lat="37.91856062795295" lon="15.991405035895081"><ele>18.0</ele><time>2026-05-03T12:52:20.001Z</time></trkpt><trkpt lat="37.91854573789633" lon="15.991661230071117"><ele>18.0</ele><time>2026-05-03T12:52:21.001Z</time></trkpt><trkpt lat="37.91852658415641" lon="15.991894294814184"><ele>18.0</ele><time>2026-05-03T12:52:22.001Z</time></trkpt><trkpt lat="37.91851078697674" lon="15.99211990867911"><ele>18.0</ele><time>2026-05-03T12:52:23.001Z</time></trkpt><trkpt lat="37.91849001384831" lon="15.992328878303141"><ele>18.0</ele><time>2026-05-03T12:52:24.001Z</time></trkpt><trkpt lat="37.918465140859" lon="15.992520387615816"><ele>18.0</ele><time>2026-05-03T12:52:25.001Z</time></trkpt><trkpt lat="37.91843856214033" lon="15.992691031456808"><ele>16.8</ele><time>2026-05-03T12:52:26.001Z</time></trkpt><trkpt lat="37.91840218563386" lon="15.992840189943186"><ele>15.600000000000001</ele><time>2026-05-03T12:52:27.001Z</time></trkpt><trkpt lat="37.918362944741" lon="15.99297662366574"><ele>14.399999999999999</ele><time>2026-05-03T12:52:28.001Z</time></trkpt><trkpt lat="37.91832964372309" lon="15.993065369188841"><ele>13.2</ele><time>2026-05-03T12:52:29.001Z</time></trkpt><trkpt lat="37.918298595993605" lon="15.993194879116656"><ele>12.0</ele><time>2026-05-03T12:52:31.001Z</time></trkpt><trkpt lat="37.91824677064802" lon="15.993284863233354"><ele>10.75</ele><time>2026-05-03T12:52:34.001Z</time></trkpt><trkpt lat="37.91812562425301" lon="15.993172334976594"><ele>9.5</ele><time>2026-05-03T12:52:38.001Z</time></trkpt><trkpt lat="37.9180512513511" lon="15.993382842539363"><ele>8.25</ele><time>2026-05-03T12:52:40.001Z</time></trkpt><trkpt lat="37.9180253114248" lon="15.993461562201388"><ele>7.0</ele><time>2026-05-03T12:52:41.001Z</time></trkpt><trkpt lat="37.91799588224025" lon="15.993549924310274"><ele>7.0</ele><time>2026-05-03T12:52:42.001Z</time></trkpt><trkpt lat="37.91797492476383" lon="15.993631609770814"><ele>7.0</ele><time>2026-05-03T12:52:43.001Z</time></trkpt><trkpt lat="37.91794758829514" lon="15.993721472987714"><ele>7.0</ele><time>2026-05-03T12:52:44.001Z</time></trkpt><trkpt lat="37.917925679293944" lon="15.993805219759546"><ele>7.0</ele><time>2026-05-03T12:52:45.001Z</time></trkpt><trkpt lat="37.917897248247414" lon="15.993892695259483"><ele>7.0</ele><time>2026-05-03T12:52:46.001Z</time></trkpt><trkpt lat="37.91786596305005" lon="15.993978061094817"><ele>7.0</ele><time>2026-05-03T12:52:47.001Z</time></trkpt><trkpt lat="37.917834173569815" lon="15.994060740387527"><ele>7.0</ele><time>2026-05-03T12:52:48.001Z</time></trkpt><trkpt lat="37.9178064555162" lon="15.994142631115091"><ele>7.333333333333334</ele><time>2026-05-03T12:52:49.001Z</time></trkpt><trkpt lat="37.91777903551075" lon="15.994222572415781"><ele>7.666666666666667</ele><time>2026-05-03T12:52:50.001Z</time></trkpt><trkpt lat="37.917724613421825" lon="15.994288219005684"><ele>8.0</ele><time>2026-05-03T12:52:51.001Z</time></trkpt><trkpt lat="37.91771077615976" lon="15.994420498983194"><ele>8.333333333333334</ele><time>2026-05-03T12:52:53.001Z</time></trkpt><trkpt lat="37.917672624380295" lon="15.994520037875105"><ele>8.666666666666666</ele><time>2026-05-03T12:52:55.001Z</time></trkpt><trkpt lat="37.917631573620525" lon="15.994599798318557"><ele>9.0</ele><time>2026-05-03T12:52:59.001Z</time></trkpt><trkpt lat="37.917596638629995" lon="15.994672211910434"><ele>9.0</ele><time>2026-05-03T12:53:15Z</time></trkpt><trkpt lat="37.91763607339483" lon="15.994586652775231"><ele>9.0</ele><time>2026-05-03T12:53:31Z</time></trkpt><trkpt lat="37.91770492014001" lon="15.99446568713651"><ele>9.0</ele><time>2026-05-03T12:53:33Z</time></trkpt><trkpt lat="37.917733291291746" lon="15.994352723495078"><ele>9.0</ele><time>2026-05-03T12:53:35Z</time></trkpt><trkpt lat="37.9177703956506" lon="15.994233338915398"><ele>9.0</ele><time>2026-05-03T12:53:37Z</time></trkpt><trkpt lat="37.91780563133654" lon="15.994134291403345"><ele>7.0</ele><time>2026-05-03T12:53:39Z</time></trkpt><trkpt lat="37.91784192606917" lon="15.99404214395044"><ele>7.0</ele><time>2026-05-03T12:53:42Z</time></trkpt><trkpt lat="37.91787052327274" lon="15.993941571057405"><ele>7.0</ele><time>2026-05-03T12:53:47Z</time></trkpt><trkpt lat="37.917917239679596" lon="15.993837417557602"><ele>7.0</ele><time>2026-05-03T12:53:50Z</time></trkpt></trkseg></trk></gpx>